<?xml version="1.0" encoding="UTF-8" standalone="no" ?>
<gpx xmlns="http://www.topografix.com/GPX/1/1" xmlns:xsi="http://www.w3.org/2001/XMLSchema-instance" xsi:schemaLocation="http://www.topografix.com/GPX/1/1 http://www.topografix.com/GPX/1/1/gpx.xsd" version="1.1" creator="VisuGPX - https://www.visugpx.com">
  <metadata>
    <name>Route des Grandes Alpes J3-Saint Martin d'Entraunes-Guillestre</name>
  </metadata>
  <trk>
    <name><![CDATA[Sortie vélo le matin]]></name>
    <trkseg>
      <trkpt lat="44.14876" lon="6.76337">
        <ele>1070.5</ele>
        <time>2022-06-12T05:35:27Z</time>
      </trkpt>
      <trkpt lat="44.14876" lon="6.76337">
        <ele>1070.5</ele>
        <time>2022-06-12T05:35:28Z</time>
      </trkpt>
      <trkpt lat="44.14871" lon="6.76342">
        <ele>1070.3</ele>
        <time>2022-06-12T05:35:29Z</time>
      </trkpt>
      <trkpt lat="44.14865" lon="6.76346">
        <ele>1069.8</ele>
        <time>2022-06-12T05:35:30Z</time>
      </trkpt>
      <trkpt lat="44.14859" lon="6.76349">
        <ele>1069.3</ele>
        <time>2022-06-12T05:35:31Z</time>
      </trkpt>
      <trkpt lat="44.14852" lon="6.76353">
        <ele>1068.6</ele>
        <time>2022-06-12T05:35:32Z</time>
      </trkpt>
      <trkpt lat="44.14846" lon="6.76355">
        <ele>1067.8</ele>
        <time>2022-06-12T05:35:33Z</time>
      </trkpt>
      <trkpt lat="44.14839" lon="6.76357">
        <ele>1067</ele>
        <time>2022-06-12T05:35:34Z</time>
      </trkpt>
      <trkpt lat="44.14832" lon="6.76359">
        <ele>1066.4</ele>
        <time>2022-06-12T05:35:35Z</time>
      </trkpt>
      <trkpt lat="44.14826" lon="6.76362">
        <ele>1065.5</ele>
        <time>2022-06-12T05:35:36Z</time>
      </trkpt>
      <trkpt lat="44.1482" lon="6.76366">
        <ele>1064.7</ele>
        <time>2022-06-12T05:35:37Z</time>
      </trkpt>
      <trkpt lat="44.14815" lon="6.76371">
        <ele>1064</ele>
        <time>2022-06-12T05:35:38Z</time>
      </trkpt>
      <trkpt lat="44.1481" lon="6.76375">
        <ele>1063.5</ele>
        <time>2022-06-12T05:35:39Z</time>
      </trkpt>
      <trkpt lat="44.14807" lon="6.76378">
        <ele>1063.1</ele>
        <time>2022-06-12T05:35:40Z</time>
      </trkpt>
      <trkpt lat="44.14804" lon="6.7638">
        <ele>1062.5</ele>
        <time>2022-06-12T05:35:41Z</time>
      </trkpt>
      <trkpt lat="44.14802" lon="6.76381">
        <ele>1061.8</ele>
        <time>2022-06-12T05:35:42Z</time>
      </trkpt>
      <trkpt lat="44.14799" lon="6.7638">
        <ele>1060.9</ele>
        <time>2022-06-12T05:35:43Z</time>
      </trkpt>
      <trkpt lat="44.14797" lon="6.76377">
        <ele>1059.8</ele>
        <time>2022-06-12T05:35:44Z</time>
      </trkpt>
      <trkpt lat="44.14795" lon="6.76373">
        <ele>1058.8</ele>
        <time>2022-06-12T05:35:45Z</time>
      </trkpt>
      <trkpt lat="44.14795" lon="6.76369">
        <ele>1058.1</ele>
        <time>2022-06-12T05:35:46Z</time>
      </trkpt>
      <trkpt lat="44.14795" lon="6.76365">
        <ele>1057.6</ele>
        <time>2022-06-12T05:35:47Z</time>
      </trkpt>
      <trkpt lat="44.14796" lon="6.7636">
        <ele>1057.1</ele>
        <time>2022-06-12T05:35:48Z</time>
      </trkpt>
      <trkpt lat="44.14797" lon="6.76356">
        <ele>1056.7</ele>
        <time>2022-06-12T05:35:49Z</time>
      </trkpt>
      <trkpt lat="44.148" lon="6.76352">
        <ele>1056.5</ele>
        <time>2022-06-12T05:35:50Z</time>
      </trkpt>
      <trkpt lat="44.14802" lon="6.76349">
        <ele>1056.5</ele>
        <time>2022-06-12T05:35:51Z</time>
      </trkpt>
      <trkpt lat="44.14804" lon="6.76346">
        <ele>1056.7</ele>
        <time>2022-06-12T05:35:52Z</time>
      </trkpt>
      <trkpt lat="44.14807" lon="6.76344">
        <ele>1056.9</ele>
        <time>2022-06-12T05:35:53Z</time>
      </trkpt>
      <trkpt lat="44.14808" lon="6.76342">
        <ele>1056.7</ele>
        <time>2022-06-12T05:35:54Z</time>
      </trkpt>
      <trkpt lat="44.14809" lon="6.76341">
        <ele>1056.8</ele>
        <time>2022-06-12T05:35:55Z</time>
      </trkpt>
      <trkpt lat="44.1481" lon="6.76341">
        <ele>1056.9</ele>
        <time>2022-06-12T05:35:56Z</time>
      </trkpt>
      <trkpt lat="44.14811" lon="6.7634">
        <ele>1057.3</ele>
        <time>2022-06-12T05:35:57Z</time>
      </trkpt>
      <trkpt lat="44.14813" lon="6.7634">
        <ele>1057.7</ele>
        <time>2022-06-12T05:35:58Z</time>
      </trkpt>
      <trkpt lat="44.14814" lon="6.7634">
        <ele>1057.9</ele>
        <time>2022-06-12T05:35:59Z</time>
      </trkpt>
      <trkpt lat="44.14816" lon="6.76339">
        <ele>1058.2</ele>
        <time>2022-06-12T05:36:00Z</time>
      </trkpt>
      <trkpt lat="44.14817" lon="6.76339">
        <ele>1058.5</ele>
        <time>2022-06-12T05:36:01Z</time>
      </trkpt>
      <trkpt lat="44.14818" lon="6.76338">
        <ele>1058.5</ele>
        <time>2022-06-12T05:36:02Z</time>
      </trkpt>
      <trkpt lat="44.14818" lon="6.76337">
        <ele>1058.4</ele>
        <time>2022-06-12T05:36:03Z</time>
      </trkpt>
      <trkpt lat="44.1482" lon="6.76335">
        <ele>1058.4</ele>
        <time>2022-06-12T05:36:04Z</time>
      </trkpt>
      <trkpt lat="44.1482" lon="6.76333">
        <ele>1058.1</ele>
        <time>2022-06-12T05:36:05Z</time>
      </trkpt>
      <trkpt lat="44.14822" lon="6.76331">
        <ele>1058.1</ele>
        <time>2022-06-12T05:36:06Z</time>
      </trkpt>
      <trkpt lat="44.14824" lon="6.76329">
        <ele>1058.1</ele>
        <time>2022-06-12T05:36:07Z</time>
      </trkpt>
      <trkpt lat="44.14826" lon="6.76327">
        <ele>1058.1</ele>
        <time>2022-06-12T05:36:08Z</time>
      </trkpt>
      <trkpt lat="44.14827" lon="6.76323">
        <ele>1057.7</ele>
        <time>2022-06-12T05:36:09Z</time>
      </trkpt>
      <trkpt lat="44.14829" lon="6.76319">
        <ele>1057.2</ele>
        <time>2022-06-12T05:36:10Z</time>
      </trkpt>
      <trkpt lat="44.14831" lon="6.76315">
        <ele>1056.9</ele>
        <time>2022-06-12T05:36:11Z</time>
      </trkpt>
      <trkpt lat="44.14833" lon="6.76311">
        <ele>1056.9</ele>
        <time>2022-06-12T05:36:12Z</time>
      </trkpt>
      <trkpt lat="44.14835" lon="6.76307">
        <ele>1056.8</ele>
        <time>2022-06-12T05:36:13Z</time>
      </trkpt>
      <trkpt lat="44.14837" lon="6.76303">
        <ele>1056.6</ele>
        <time>2022-06-12T05:36:14Z</time>
      </trkpt>
      <trkpt lat="44.14839" lon="6.76298">
        <ele>1056.1</ele>
        <time>2022-06-12T05:36:15Z</time>
      </trkpt>
      <trkpt lat="44.14841" lon="6.76293">
        <ele>1055.5</ele>
        <time>2022-06-12T05:36:16Z</time>
      </trkpt>
      <trkpt lat="44.14843" lon="6.76287">
        <ele>1055.2</ele>
        <time>2022-06-12T05:36:17Z</time>
      </trkpt>
      <trkpt lat="44.14845" lon="6.76281">
        <ele>1054.6</ele>
        <time>2022-06-12T05:36:18Z</time>
      </trkpt>
      <trkpt lat="44.14847" lon="6.76275">
        <ele>1054</ele>
        <time>2022-06-12T05:36:19Z</time>
      </trkpt>
      <trkpt lat="44.14849" lon="6.76267">
        <ele>1052.5</ele>
        <time>2022-06-12T05:36:20Z</time>
      </trkpt>
      <trkpt lat="44.14851" lon="6.76259">
        <ele>1051.2</ele>
        <time>2022-06-12T05:36:21Z</time>
      </trkpt>
      <trkpt lat="44.14854" lon="6.76252">
        <ele>1049.9</ele>
        <time>2022-06-12T05:36:22Z</time>
      </trkpt>
      <trkpt lat="44.14856" lon="6.76245">
        <ele>1048.5</ele>
        <time>2022-06-12T05:36:23Z</time>
      </trkpt>
      <trkpt lat="44.14858" lon="6.76238">
        <ele>1047</ele>
        <time>2022-06-12T05:36:24Z</time>
      </trkpt>
      <trkpt lat="44.14858" lon="6.76233">
        <ele>1045.2</ele>
        <time>2022-06-12T05:36:25Z</time>
      </trkpt>
      <trkpt lat="44.14858" lon="6.76228">
        <ele>1043.4</ele>
        <time>2022-06-12T05:36:26Z</time>
      </trkpt>
      <trkpt lat="44.14857" lon="6.76225">
        <ele>1041.8</ele>
        <time>2022-06-12T05:36:27Z</time>
      </trkpt>
      <trkpt lat="44.14852" lon="6.76223">
        <ele>1040.4</ele>
        <time>2022-06-12T05:36:28Z</time>
      </trkpt>
      <trkpt lat="44.14851" lon="6.76225">
        <ele>1040.5</ele>
        <time>2022-06-12T05:36:29Z</time>
      </trkpt>
      <trkpt lat="44.14849" lon="6.76226">
        <ele>1040.4</ele>
        <time>2022-06-12T05:36:30Z</time>
      </trkpt>
      <trkpt lat="44.14847" lon="6.76228">
        <ele>1040.4</ele>
        <time>2022-06-12T05:36:31Z</time>
      </trkpt>
      <trkpt lat="44.14845" lon="6.76229">
        <ele>1040.2</ele>
        <time>2022-06-12T05:37:06Z</time>
      </trkpt>
      <trkpt lat="44.14843" lon="6.76231">
        <ele>1040.1</ele>
        <time>2022-06-12T05:37:07Z</time>
      </trkpt>
      <trkpt lat="44.1484" lon="6.76239">
        <ele>1040.6</ele>
        <time>2022-06-12T05:37:08Z</time>
      </trkpt>
      <trkpt lat="44.14836" lon="6.76247">
        <ele>1040.8</ele>
        <time>2022-06-12T05:37:09Z</time>
      </trkpt>
      <trkpt lat="44.14833" lon="6.76255">
        <ele>1041.3</ele>
        <time>2022-06-12T05:37:10Z</time>
      </trkpt>
      <trkpt lat="44.1483" lon="6.76263">
        <ele>1042.8</ele>
        <time>2022-06-12T05:37:11Z</time>
      </trkpt>
      <trkpt lat="44.14825" lon="6.7627">
        <ele>1043.2</ele>
        <time>2022-06-12T05:37:12Z</time>
      </trkpt>
      <trkpt lat="44.14821" lon="6.76275">
        <ele>1042.8</ele>
        <time>2022-06-12T05:37:13Z</time>
      </trkpt>
      <trkpt lat="44.14817" lon="6.76279">
        <ele>1042.2</ele>
        <time>2022-06-12T05:37:14Z</time>
      </trkpt>
      <trkpt lat="44.14812" lon="6.76282">
        <ele>1041.2</ele>
        <time>2022-06-12T05:37:15Z</time>
      </trkpt>
      <trkpt lat="44.14806" lon="6.76285">
        <ele>1040</ele>
        <time>2022-06-12T05:37:16Z</time>
      </trkpt>
      <trkpt lat="44.14801" lon="6.76289">
        <ele>1039.8</ele>
        <time>2022-06-12T05:37:17Z</time>
      </trkpt>
      <trkpt lat="44.14795" lon="6.76293">
        <ele>1039.6</ele>
        <time>2022-06-12T05:37:18Z</time>
      </trkpt>
      <trkpt lat="44.1479" lon="6.76298">
        <ele>1039.1</ele>
        <time>2022-06-12T05:37:19Z</time>
      </trkpt>
      <trkpt lat="44.14785" lon="6.76303">
        <ele>1038.5</ele>
        <time>2022-06-12T05:37:20Z</time>
      </trkpt>
      <trkpt lat="44.1478" lon="6.76308">
        <ele>1038.1</ele>
        <time>2022-06-12T05:37:21Z</time>
      </trkpt>
      <trkpt lat="44.14774" lon="6.76314">
        <ele>1038.3</ele>
        <time>2022-06-12T05:37:22Z</time>
      </trkpt>
      <trkpt lat="44.14769" lon="6.76321">
        <ele>1038.7</ele>
        <time>2022-06-12T05:37:23Z</time>
      </trkpt>
      <trkpt lat="44.14764" lon="6.76327">
        <ele>1038.6</ele>
        <time>2022-06-12T05:37:24Z</time>
      </trkpt>
      <trkpt lat="44.14759" lon="6.76333">
        <ele>1038.3</ele>
        <time>2022-06-12T05:37:25Z</time>
      </trkpt>
      <trkpt lat="44.14754" lon="6.7634">
        <ele>1038</ele>
        <time>2022-06-12T05:37:26Z</time>
      </trkpt>
      <trkpt lat="44.14748" lon="6.76346">
        <ele>1037.5</ele>
        <time>2022-06-12T05:37:27Z</time>
      </trkpt>
      <trkpt lat="44.14744" lon="6.76352">
        <ele>1037.5</ele>
        <time>2022-06-12T05:37:28Z</time>
      </trkpt>
      <trkpt lat="44.14739" lon="6.76359">
        <ele>1037.4</ele>
        <time>2022-06-12T05:37:29Z</time>
      </trkpt>
      <trkpt lat="44.14734" lon="6.76366">
        <ele>1037.1</ele>
        <time>2022-06-12T05:37:30Z</time>
      </trkpt>
      <trkpt lat="44.14728" lon="6.76373">
        <ele>1036.5</ele>
        <time>2022-06-12T05:37:31Z</time>
      </trkpt>
      <trkpt lat="44.14723" lon="6.7638">
        <ele>1035.5</ele>
        <time>2022-06-12T05:37:32Z</time>
      </trkpt>
      <trkpt lat="44.14718" lon="6.76389">
        <ele>1035.2</ele>
        <time>2022-06-12T05:37:33Z</time>
      </trkpt>
      <trkpt lat="44.14713" lon="6.76398">
        <ele>1035.4</ele>
        <time>2022-06-12T05:37:34Z</time>
      </trkpt>
      <trkpt lat="44.14709" lon="6.76408">
        <ele>1035.3</ele>
        <time>2022-06-12T05:37:35Z</time>
      </trkpt>
      <trkpt lat="44.14705" lon="6.76418">
        <ele>1035.1</ele>
        <time>2022-06-12T05:37:36Z</time>
      </trkpt>
      <trkpt lat="44.14701" lon="6.76427">
        <ele>1034.6</ele>
        <time>2022-06-12T05:37:37Z</time>
      </trkpt>
      <trkpt lat="44.14696" lon="6.76435">
        <ele>1033.8</ele>
        <time>2022-06-12T05:37:38Z</time>
      </trkpt>
      <trkpt lat="44.1469" lon="6.76442">
        <ele>1033.1</ele>
        <time>2022-06-12T05:37:39Z</time>
      </trkpt>
      <trkpt lat="44.14684" lon="6.76448">
        <ele>1032.5</ele>
        <time>2022-06-12T05:37:40Z</time>
      </trkpt>
      <trkpt lat="44.14678" lon="6.76454">
        <ele>1032.3</ele>
        <time>2022-06-12T05:37:41Z</time>
      </trkpt>
      <trkpt lat="44.14672" lon="6.7646">
        <ele>1032.2</ele>
        <time>2022-06-12T05:37:42Z</time>
      </trkpt>
      <trkpt lat="44.14666" lon="6.76466">
        <ele>1032</ele>
        <time>2022-06-12T05:37:43Z</time>
      </trkpt>
      <trkpt lat="44.1466" lon="6.76472">
        <ele>1032</ele>
        <time>2022-06-12T05:37:44Z</time>
      </trkpt>
      <trkpt lat="44.14655" lon="6.76478">
        <ele>1032.2</ele>
        <time>2022-06-12T05:37:45Z</time>
      </trkpt>
      <trkpt lat="44.14649" lon="6.76482">
        <ele>1031.8</ele>
        <time>2022-06-12T05:37:46Z</time>
      </trkpt>
      <trkpt lat="44.14643" lon="6.76482">
        <ele>1031</ele>
        <time>2022-06-12T05:37:47Z</time>
      </trkpt>
      <trkpt lat="44.14637" lon="6.76481">
        <ele>1030.1</ele>
        <time>2022-06-12T05:37:48Z</time>
      </trkpt>
      <trkpt lat="44.14632" lon="6.76479">
        <ele>1029.4</ele>
        <time>2022-06-12T05:37:49Z</time>
      </trkpt>
      <trkpt lat="44.14627" lon="6.76478">
        <ele>1028.8</ele>
        <time>2022-06-12T05:37:50Z</time>
      </trkpt>
      <trkpt lat="44.14622" lon="6.76477">
        <ele>1028.3</ele>
        <time>2022-06-12T05:37:51Z</time>
      </trkpt>
      <trkpt lat="44.14617" lon="6.76477">
        <ele>1027.9</ele>
        <time>2022-06-12T05:37:52Z</time>
      </trkpt>
      <trkpt lat="44.14611" lon="6.76478">
        <ele>1027.7</ele>
        <time>2022-06-12T05:37:53Z</time>
      </trkpt>
      <trkpt lat="44.14605" lon="6.76481">
        <ele>1027.8</ele>
        <time>2022-06-12T05:37:54Z</time>
      </trkpt>
      <trkpt lat="44.14599" lon="6.76485">
        <ele>1027.9</ele>
        <time>2022-06-12T05:37:55Z</time>
      </trkpt>
      <trkpt lat="44.14593" lon="6.76489">
        <ele>1028</ele>
        <time>2022-06-12T05:37:56Z</time>
      </trkpt>
      <trkpt lat="44.14587" lon="6.76494">
        <ele>1027.9</ele>
        <time>2022-06-12T05:37:57Z</time>
      </trkpt>
      <trkpt lat="44.1458" lon="6.76498">
        <ele>1027.8</ele>
        <time>2022-06-12T05:37:58Z</time>
      </trkpt>
      <trkpt lat="44.14574" lon="6.76501">
        <ele>1027.8</ele>
        <time>2022-06-12T05:37:59Z</time>
      </trkpt>
      <trkpt lat="44.14567" lon="6.76504">
        <ele>1028</ele>
        <time>2022-06-12T05:38:00Z</time>
      </trkpt>
      <trkpt lat="44.1456" lon="6.76507">
        <ele>1028</ele>
        <time>2022-06-12T05:38:01Z</time>
      </trkpt>
      <trkpt lat="44.14553" lon="6.7651">
        <ele>1027.9</ele>
        <time>2022-06-12T05:38:02Z</time>
      </trkpt>
      <trkpt lat="44.14546" lon="6.76513">
        <ele>1027.9</ele>
        <time>2022-06-12T05:38:03Z</time>
      </trkpt>
      <trkpt lat="44.14539" lon="6.76515">
        <ele>1027.7</ele>
        <time>2022-06-12T05:38:04Z</time>
      </trkpt>
      <trkpt lat="44.14531" lon="6.76516">
        <ele>1027.3</ele>
        <time>2022-06-12T05:38:05Z</time>
      </trkpt>
      <trkpt lat="44.14523" lon="6.76515">
        <ele>1026.9</ele>
        <time>2022-06-12T05:38:06Z</time>
      </trkpt>
      <trkpt lat="44.14516" lon="6.76514">
        <ele>1026.5</ele>
        <time>2022-06-12T05:38:07Z</time>
      </trkpt>
      <trkpt lat="44.14509" lon="6.76512">
        <ele>1026.2</ele>
        <time>2022-06-12T05:38:08Z</time>
      </trkpt>
      <trkpt lat="44.14502" lon="6.7651">
        <ele>1025.8</ele>
        <time>2022-06-12T05:38:09Z</time>
      </trkpt>
      <trkpt lat="44.14495" lon="6.76508">
        <ele>1025.3</ele>
        <time>2022-06-12T05:38:10Z</time>
      </trkpt>
      <trkpt lat="44.14489" lon="6.76507">
        <ele>1024.8</ele>
        <time>2022-06-12T05:38:11Z</time>
      </trkpt>
      <trkpt lat="44.14483" lon="6.76505">
        <ele>1024.3</ele>
        <time>2022-06-12T05:38:12Z</time>
      </trkpt>
      <trkpt lat="44.14478" lon="6.76504">
        <ele>1023.8</ele>
        <time>2022-06-12T05:38:13Z</time>
      </trkpt>
      <trkpt lat="44.14472" lon="6.76502">
        <ele>1023.2</ele>
        <time>2022-06-12T05:38:14Z</time>
      </trkpt>
      <trkpt lat="44.14467" lon="6.765">
        <ele>1023</ele>
        <time>2022-06-12T05:38:15Z</time>
      </trkpt>
      <trkpt lat="44.14462" lon="6.76498">
        <ele>1022.8</ele>
        <time>2022-06-12T05:38:16Z</time>
      </trkpt>
      <trkpt lat="44.14456" lon="6.76496">
        <ele>1022.6</ele>
        <time>2022-06-12T05:38:17Z</time>
      </trkpt>
      <trkpt lat="44.1445" lon="6.76493">
        <ele>1022.3</ele>
        <time>2022-06-12T05:38:18Z</time>
      </trkpt>
      <trkpt lat="44.14445" lon="6.76491">
        <ele>1022</ele>
        <time>2022-06-12T05:38:19Z</time>
      </trkpt>
      <trkpt lat="44.14439" lon="6.76489">
        <ele>1021.8</ele>
        <time>2022-06-12T05:38:20Z</time>
      </trkpt>
      <trkpt lat="44.14433" lon="6.76487">
        <ele>1021.6</ele>
        <time>2022-06-12T05:38:21Z</time>
      </trkpt>
      <trkpt lat="44.14427" lon="6.76486">
        <ele>1021.4</ele>
        <time>2022-06-12T05:38:22Z</time>
      </trkpt>
      <trkpt lat="44.14421" lon="6.76485">
        <ele>1021.3</ele>
        <time>2022-06-12T05:38:23Z</time>
      </trkpt>
      <trkpt lat="44.14415" lon="6.76485">
        <ele>1021.3</ele>
        <time>2022-06-12T05:38:24Z</time>
      </trkpt>
      <trkpt lat="44.14409" lon="6.76485">
        <ele>1021.3</ele>
        <time>2022-06-12T05:38:25Z</time>
      </trkpt>
      <trkpt lat="44.14403" lon="6.76486">
        <ele>1021.5</ele>
        <time>2022-06-12T05:38:26Z</time>
      </trkpt>
      <trkpt lat="44.14397" lon="6.76488">
        <ele>1021.7</ele>
        <time>2022-06-12T05:38:27Z</time>
      </trkpt>
      <trkpt lat="44.1439" lon="6.7649">
        <ele>1021.9</ele>
        <time>2022-06-12T05:38:28Z</time>
      </trkpt>
      <trkpt lat="44.14384" lon="6.76492">
        <ele>1022.1</ele>
        <time>2022-06-12T05:38:29Z</time>
      </trkpt>
      <trkpt lat="44.14377" lon="6.76494">
        <ele>1022.3</ele>
        <time>2022-06-12T05:38:30Z</time>
      </trkpt>
      <trkpt lat="44.1437" lon="6.76496">
        <ele>1022.5</ele>
        <time>2022-06-12T05:38:31Z</time>
      </trkpt>
      <trkpt lat="44.14363" lon="6.76498">
        <ele>1022.8</ele>
        <time>2022-06-12T05:38:32Z</time>
      </trkpt>
      <trkpt lat="44.14356" lon="6.76501">
        <ele>1023.1</ele>
        <time>2022-06-12T05:38:33Z</time>
      </trkpt>
      <trkpt lat="44.14351" lon="6.76506">
        <ele>1023.6</ele>
        <time>2022-06-12T05:38:34Z</time>
      </trkpt>
      <trkpt lat="44.14346" lon="6.76512">
        <ele>1024.3</ele>
        <time>2022-06-12T05:38:35Z</time>
      </trkpt>
      <trkpt lat="44.14342" lon="6.76517">
        <ele>1024.8</ele>
        <time>2022-06-12T05:38:36Z</time>
      </trkpt>
      <trkpt lat="44.14337" lon="6.76521">
        <ele>1025.2</ele>
        <time>2022-06-12T05:38:37Z</time>
      </trkpt>
      <trkpt lat="44.14331" lon="6.76522">
        <ele>1025.4</ele>
        <time>2022-06-12T05:38:38Z</time>
      </trkpt>
      <trkpt lat="44.14326" lon="6.76521">
        <ele>1025.3</ele>
        <time>2022-06-12T05:38:39Z</time>
      </trkpt>
      <trkpt lat="44.14322" lon="6.76518">
        <ele>1024.9</ele>
        <time>2022-06-12T05:38:40Z</time>
      </trkpt>
      <trkpt lat="44.14319" lon="6.76512">
        <ele>1024.3</ele>
        <time>2022-06-12T05:38:41Z</time>
      </trkpt>
      <trkpt lat="44.14315" lon="6.76507">
        <ele>1023.7</ele>
        <time>2022-06-12T05:38:42Z</time>
      </trkpt>
      <trkpt lat="44.14311" lon="6.76502">
        <ele>1023.2</ele>
        <time>2022-06-12T05:38:43Z</time>
      </trkpt>
      <trkpt lat="44.14306" lon="6.76498">
        <ele>1022.8</ele>
        <time>2022-06-12T05:38:44Z</time>
      </trkpt>
      <trkpt lat="44.143" lon="6.76495">
        <ele>1022.5</ele>
        <time>2022-06-12T05:38:45Z</time>
      </trkpt>
      <trkpt lat="44.14294" lon="6.76494">
        <ele>1022.2</ele>
        <time>2022-06-12T05:38:46Z</time>
      </trkpt>
      <trkpt lat="44.14287" lon="6.76496">
        <ele>1022.2</ele>
        <time>2022-06-12T05:38:47Z</time>
      </trkpt>
      <trkpt lat="44.14281" lon="6.76499">
        <ele>1022.1</ele>
        <time>2022-06-12T05:38:48Z</time>
      </trkpt>
      <trkpt lat="44.14275" lon="6.76502">
        <ele>1021.7</ele>
        <time>2022-06-12T05:38:49Z</time>
      </trkpt>
      <trkpt lat="44.14267" lon="6.76504">
        <ele>1021</ele>
        <time>2022-06-12T05:38:50Z</time>
      </trkpt>
      <trkpt lat="44.1426" lon="6.76507">
        <ele>1020.3</ele>
        <time>2022-06-12T05:38:51Z</time>
      </trkpt>
      <trkpt lat="44.14252" lon="6.7651">
        <ele>1019.6</ele>
        <time>2022-06-12T05:38:52Z</time>
      </trkpt>
      <trkpt lat="44.14246" lon="6.76515">
        <ele>1018.9</ele>
        <time>2022-06-12T05:38:53Z</time>
      </trkpt>
      <trkpt lat="44.1424" lon="6.76521">
        <ele>1018.2</ele>
        <time>2022-06-12T05:38:54Z</time>
      </trkpt>
      <trkpt lat="44.14234" lon="6.76529">
        <ele>1017.7</ele>
        <time>2022-06-12T05:38:55Z</time>
      </trkpt>
      <trkpt lat="44.14229" lon="6.76538">
        <ele>1018</ele>
        <time>2022-06-12T05:38:56Z</time>
      </trkpt>
      <trkpt lat="44.14224" lon="6.76547">
        <ele>1018.3</ele>
        <time>2022-06-12T05:38:57Z</time>
      </trkpt>
      <trkpt lat="44.14218" lon="6.76556">
        <ele>1018.6</ele>
        <time>2022-06-12T05:38:58Z</time>
      </trkpt>
      <trkpt lat="44.14212" lon="6.76564">
        <ele>1018.8</ele>
        <time>2022-06-12T05:38:59Z</time>
      </trkpt>
      <trkpt lat="44.14205" lon="6.76569">
        <ele>1018.5</ele>
        <time>2022-06-12T05:39:00Z</time>
      </trkpt>
      <trkpt lat="44.14198" lon="6.76572">
        <ele>1018.1</ele>
        <time>2022-06-12T05:39:01Z</time>
      </trkpt>
      <trkpt lat="44.1419" lon="6.76574">
        <ele>1017.8</ele>
        <time>2022-06-12T05:39:02Z</time>
      </trkpt>
      <trkpt lat="44.14183" lon="6.76574">
        <ele>1017.6</ele>
        <time>2022-06-12T05:39:03Z</time>
      </trkpt>
      <trkpt lat="44.14176" lon="6.76574">
        <ele>1017.3</ele>
        <time>2022-06-12T05:39:04Z</time>
      </trkpt>
      <trkpt lat="44.14169" lon="6.76574">
        <ele>1017.1</ele>
        <time>2022-06-12T05:39:05Z</time>
      </trkpt>
      <trkpt lat="44.14162" lon="6.76573">
        <ele>1016.7</ele>
        <time>2022-06-12T05:39:06Z</time>
      </trkpt>
      <trkpt lat="44.14155" lon="6.76571">
        <ele>1016.2</ele>
        <time>2022-06-12T05:39:07Z</time>
      </trkpt>
      <trkpt lat="44.14148" lon="6.76568">
        <ele>1015.6</ele>
        <time>2022-06-12T05:39:08Z</time>
      </trkpt>
      <trkpt lat="44.14141" lon="6.76565">
        <ele>1015.1</ele>
        <time>2022-06-12T05:39:09Z</time>
      </trkpt>
      <trkpt lat="44.14135" lon="6.76565">
        <ele>1014.9</ele>
        <time>2022-06-12T05:39:10Z</time>
      </trkpt>
      <trkpt lat="44.14128" lon="6.76566">
        <ele>1014.8</ele>
        <time>2022-06-12T05:39:11Z</time>
      </trkpt>
      <trkpt lat="44.14121" lon="6.76567">
        <ele>1014.9</ele>
        <time>2022-06-12T05:39:12Z</time>
      </trkpt>
      <trkpt lat="44.14114" lon="6.76569">
        <ele>1014.9</ele>
        <time>2022-06-12T05:39:13Z</time>
      </trkpt>
      <trkpt lat="44.14109" lon="6.7657">
        <ele>1014.9</ele>
        <time>2022-06-12T05:39:14Z</time>
      </trkpt>
      <trkpt lat="44.14103" lon="6.76571">
        <ele>1014.9</ele>
        <time>2022-06-12T05:39:15Z</time>
      </trkpt>
      <trkpt lat="44.14097" lon="6.76573">
        <ele>1014.9</ele>
        <time>2022-06-12T05:39:16Z</time>
      </trkpt>
      <trkpt lat="44.1409" lon="6.76573">
        <ele>1014.8</ele>
        <time>2022-06-12T05:39:17Z</time>
      </trkpt>
      <trkpt lat="44.14084" lon="6.76574">
        <ele>1014.7</ele>
        <time>2022-06-12T05:39:18Z</time>
      </trkpt>
      <trkpt lat="44.14078" lon="6.76575">
        <ele>1014.7</ele>
        <time>2022-06-12T05:39:19Z</time>
      </trkpt>
      <trkpt lat="44.14072" lon="6.76575">
        <ele>1014.8</ele>
        <time>2022-06-12T05:39:20Z</time>
      </trkpt>
      <trkpt lat="44.14066" lon="6.76576">
        <ele>1014.9</ele>
        <time>2022-06-12T05:39:21Z</time>
      </trkpt>
      <trkpt lat="44.1406" lon="6.76577">
        <ele>1015.1</ele>
        <time>2022-06-12T05:39:22Z</time>
      </trkpt>
      <trkpt lat="44.14054" lon="6.76578">
        <ele>1015.2</ele>
        <time>2022-06-12T05:39:23Z</time>
      </trkpt>
      <trkpt lat="44.14048" lon="6.7658">
        <ele>1015.2</ele>
        <time>2022-06-12T05:39:24Z</time>
      </trkpt>
      <trkpt lat="44.14042" lon="6.76582">
        <ele>1015.3</ele>
        <time>2022-06-12T05:39:25Z</time>
      </trkpt>
      <trkpt lat="44.14036" lon="6.76585">
        <ele>1015.5</ele>
        <time>2022-06-12T05:39:26Z</time>
      </trkpt>
      <trkpt lat="44.14032" lon="6.76588">
        <ele>1015.7</ele>
        <time>2022-06-12T05:39:27Z</time>
      </trkpt>
      <trkpt lat="44.14028" lon="6.76592">
        <ele>1016.2</ele>
        <time>2022-06-12T05:39:28Z</time>
      </trkpt>
      <trkpt lat="44.14023" lon="6.76596">
        <ele>1016.5</ele>
        <time>2022-06-12T05:39:29Z</time>
      </trkpt>
      <trkpt lat="44.14018" lon="6.76601">
        <ele>1016.9</ele>
        <time>2022-06-12T05:39:30Z</time>
      </trkpt>
      <trkpt lat="44.14013" lon="6.76605">
        <ele>1017.2</ele>
        <time>2022-06-12T05:39:31Z</time>
      </trkpt>
      <trkpt lat="44.14008" lon="6.76609">
        <ele>1017.3</ele>
        <time>2022-06-12T05:39:32Z</time>
      </trkpt>
      <trkpt lat="44.14003" lon="6.76613">
        <ele>1017.4</ele>
        <time>2022-06-12T05:39:33Z</time>
      </trkpt>
      <trkpt lat="44.13997" lon="6.76617">
        <ele>1017.2</ele>
        <time>2022-06-12T05:39:34Z</time>
      </trkpt>
      <trkpt lat="44.13993" lon="6.76619">
        <ele>1016.8</ele>
        <time>2022-06-12T05:39:35Z</time>
      </trkpt>
      <trkpt lat="44.13989" lon="6.76621">
        <ele>1016.4</ele>
        <time>2022-06-12T05:39:36Z</time>
      </trkpt>
      <trkpt lat="44.13986" lon="6.76623">
        <ele>1016.2</ele>
        <time>2022-06-12T05:39:37Z</time>
      </trkpt>
      <trkpt lat="44.13983" lon="6.76625">
        <ele>1015.9</ele>
        <time>2022-06-12T05:39:38Z</time>
      </trkpt>
      <trkpt lat="44.13979" lon="6.76627">
        <ele>1015.7</ele>
        <time>2022-06-12T05:39:39Z</time>
      </trkpt>
      <trkpt lat="44.13976" lon="6.76629">
        <ele>1015.5</ele>
        <time>2022-06-12T05:39:40Z</time>
      </trkpt>
      <trkpt lat="44.13974" lon="6.76632">
        <ele>1015.4</ele>
        <time>2022-06-12T05:39:41Z</time>
      </trkpt>
      <trkpt lat="44.13971" lon="6.76634">
        <ele>1015.2</ele>
        <time>2022-06-12T05:39:42Z</time>
      </trkpt>
      <trkpt lat="44.13967" lon="6.76636">
        <ele>1014.8</ele>
        <time>2022-06-12T05:39:43Z</time>
      </trkpt>
      <trkpt lat="44.13962" lon="6.76638">
        <ele>1014.1</ele>
        <time>2022-06-12T05:39:44Z</time>
      </trkpt>
      <trkpt lat="44.13957" lon="6.76639">
        <ele>1013.3</ele>
        <time>2022-06-12T05:39:45Z</time>
      </trkpt>
      <trkpt lat="44.13952" lon="6.76641">
        <ele>1012.5</ele>
        <time>2022-06-12T05:39:46Z</time>
      </trkpt>
      <trkpt lat="44.13948" lon="6.76644">
        <ele>1012.1</ele>
        <time>2022-06-12T05:39:47Z</time>
      </trkpt>
      <trkpt lat="44.13944" lon="6.76651">
        <ele>1011.8</ele>
        <time>2022-06-12T05:39:48Z</time>
      </trkpt>
      <trkpt lat="44.13942" lon="6.76658">
        <ele>1012</ele>
        <time>2022-06-12T05:39:49Z</time>
      </trkpt>
      <trkpt lat="44.13939" lon="6.76666">
        <ele>1012.1</ele>
        <time>2022-06-12T05:39:50Z</time>
      </trkpt>
      <trkpt lat="44.13936" lon="6.76674">
        <ele>1012.6</ele>
        <time>2022-06-12T05:39:51Z</time>
      </trkpt>
      <trkpt lat="44.13933" lon="6.76681">
        <ele>1013.1</ele>
        <time>2022-06-12T05:39:52Z</time>
      </trkpt>
      <trkpt lat="44.13928" lon="6.76689">
        <ele>1013.5</ele>
        <time>2022-06-12T05:39:53Z</time>
      </trkpt>
      <trkpt lat="44.13924" lon="6.76696">
        <ele>1013.9</ele>
        <time>2022-06-12T05:39:54Z</time>
      </trkpt>
      <trkpt lat="44.13918" lon="6.76702">
        <ele>1014.8</ele>
        <time>2022-06-12T05:39:55Z</time>
      </trkpt>
      <trkpt lat="44.13912" lon="6.76707">
        <ele>1015.3</ele>
        <time>2022-06-12T05:39:56Z</time>
      </trkpt>
      <trkpt lat="44.13906" lon="6.76711">
        <ele>1015.6</ele>
        <time>2022-06-12T05:39:57Z</time>
      </trkpt>
      <trkpt lat="44.13899" lon="6.76713">
        <ele>1015.5</ele>
        <time>2022-06-12T05:39:58Z</time>
      </trkpt>
      <trkpt lat="44.13892" lon="6.76714">
        <ele>1015.2</ele>
        <time>2022-06-12T05:39:59Z</time>
      </trkpt>
      <trkpt lat="44.13886" lon="6.76714">
        <ele>1014.8</ele>
        <time>2022-06-12T05:40:00Z</time>
      </trkpt>
      <trkpt lat="44.13878" lon="6.76714">
        <ele>1014.5</ele>
        <time>2022-06-12T05:40:01Z</time>
      </trkpt>
      <trkpt lat="44.13872" lon="6.76715">
        <ele>1014.5</ele>
        <time>2022-06-12T05:40:02Z</time>
      </trkpt>
      <trkpt lat="44.13864" lon="6.76716">
        <ele>1014.4</ele>
        <time>2022-06-12T05:40:03Z</time>
      </trkpt>
      <trkpt lat="44.13859" lon="6.76717">
        <ele>1014.5</ele>
        <time>2022-06-12T05:40:04Z</time>
      </trkpt>
      <trkpt lat="44.13853" lon="6.76716">
        <ele>1014.2</ele>
        <time>2022-06-12T05:40:05Z</time>
      </trkpt>
      <trkpt lat="44.13845" lon="6.76715">
        <ele>1013.5</ele>
        <time>2022-06-12T05:40:06Z</time>
      </trkpt>
      <trkpt lat="44.13836" lon="6.76712">
        <ele>1012.4</ele>
        <time>2022-06-12T05:40:07Z</time>
      </trkpt>
      <trkpt lat="44.13828" lon="6.76709">
        <ele>1011.4</ele>
        <time>2022-06-12T05:40:08Z</time>
      </trkpt>
      <trkpt lat="44.1382" lon="6.76705">
        <ele>1010.1</ele>
        <time>2022-06-12T05:40:09Z</time>
      </trkpt>
      <trkpt lat="44.13812" lon="6.767">
        <ele>1008.7</ele>
        <time>2022-06-12T05:40:10Z</time>
      </trkpt>
      <trkpt lat="44.13805" lon="6.76696">
        <ele>1007.4</ele>
        <time>2022-06-12T05:40:11Z</time>
      </trkpt>
      <trkpt lat="44.13797" lon="6.76692">
        <ele>1006.4</ele>
        <time>2022-06-12T05:40:12Z</time>
      </trkpt>
      <trkpt lat="44.13789" lon="6.76689">
        <ele>1005.6</ele>
        <time>2022-06-12T05:40:13Z</time>
      </trkpt>
      <trkpt lat="44.1378" lon="6.76685">
        <ele>1004.8</ele>
        <time>2022-06-12T05:40:14Z</time>
      </trkpt>
      <trkpt lat="44.13773" lon="6.76683">
        <ele>1004.2</ele>
        <time>2022-06-12T05:40:15Z</time>
      </trkpt>
      <trkpt lat="44.13766" lon="6.76681">
        <ele>1003.7</ele>
        <time>2022-06-12T05:40:16Z</time>
      </trkpt>
      <trkpt lat="44.13759" lon="6.7668">
        <ele>1003.3</ele>
        <time>2022-06-12T05:40:17Z</time>
      </trkpt>
      <trkpt lat="44.13752" lon="6.76679">
        <ele>1002.8</ele>
        <time>2022-06-12T05:40:18Z</time>
      </trkpt>
      <trkpt lat="44.13744" lon="6.76677">
        <ele>1002</ele>
        <time>2022-06-12T05:40:19Z</time>
      </trkpt>
      <trkpt lat="44.13735" lon="6.76676">
        <ele>1001.1</ele>
        <time>2022-06-12T05:40:20Z</time>
      </trkpt>
      <trkpt lat="44.13726" lon="6.76676">
        <ele>1000.3</ele>
        <time>2022-06-12T05:40:21Z</time>
      </trkpt>
      <trkpt lat="44.13717" lon="6.76678">
        <ele>999.9</ele>
        <time>2022-06-12T05:40:22Z</time>
      </trkpt>
      <trkpt lat="44.13709" lon="6.7668">
        <ele>999.6</ele>
        <time>2022-06-12T05:40:23Z</time>
      </trkpt>
      <trkpt lat="44.13701" lon="6.76682">
        <ele>999.6</ele>
        <time>2022-06-12T05:40:24Z</time>
      </trkpt>
      <trkpt lat="44.13695" lon="6.76686">
        <ele>999.8</ele>
        <time>2022-06-12T05:40:25Z</time>
      </trkpt>
      <trkpt lat="44.1369" lon="6.7669">
        <ele>1000.1</ele>
        <time>2022-06-12T05:40:26Z</time>
      </trkpt>
      <trkpt lat="44.13687" lon="6.76693">
        <ele>1000.4</ele>
        <time>2022-06-12T05:40:27Z</time>
      </trkpt>
      <trkpt lat="44.13684" lon="6.76694">
        <ele>1000.5</ele>
        <time>2022-06-12T05:40:28Z</time>
      </trkpt>
      <trkpt lat="44.13681" lon="6.76693">
        <ele>1000.3</ele>
        <time>2022-06-12T05:40:29Z</time>
      </trkpt>
      <trkpt lat="44.1368" lon="6.76691">
        <ele>999.9</ele>
        <time>2022-06-12T05:40:30Z</time>
      </trkpt>
      <trkpt lat="44.13678" lon="6.76688">
        <ele>999.3</ele>
        <time>2022-06-12T05:40:31Z</time>
      </trkpt>
      <trkpt lat="44.13679" lon="6.76684">
        <ele>998.7</ele>
        <time>2022-06-12T05:40:32Z</time>
      </trkpt>
      <trkpt lat="44.1368" lon="6.7668">
        <ele>998.2</ele>
        <time>2022-06-12T05:40:33Z</time>
      </trkpt>
      <trkpt lat="44.13682" lon="6.76677">
        <ele>997.7</ele>
        <time>2022-06-12T05:40:34Z</time>
      </trkpt>
      <trkpt lat="44.13684" lon="6.76673">
        <ele>997.2</ele>
        <time>2022-06-12T05:40:35Z</time>
      </trkpt>
      <trkpt lat="44.13686" lon="6.76668">
        <ele>996.6</ele>
        <time>2022-06-12T05:40:36Z</time>
      </trkpt>
      <trkpt lat="44.13688" lon="6.76664">
        <ele>996.3</ele>
        <time>2022-06-12T05:40:37Z</time>
      </trkpt>
      <trkpt lat="44.1369" lon="6.76659">
        <ele>996.2</ele>
        <time>2022-06-12T05:40:38Z</time>
      </trkpt>
      <trkpt lat="44.13692" lon="6.76654">
        <ele>996</ele>
        <time>2022-06-12T05:40:39Z</time>
      </trkpt>
      <trkpt lat="44.13694" lon="6.76649">
        <ele>995.7</ele>
        <time>2022-06-12T05:40:40Z</time>
      </trkpt>
      <trkpt lat="44.13696" lon="6.76644">
        <ele>995.4</ele>
        <time>2022-06-12T05:40:41Z</time>
      </trkpt>
      <trkpt lat="44.13699" lon="6.7664">
        <ele>995.2</ele>
        <time>2022-06-12T05:40:42Z</time>
      </trkpt>
      <trkpt lat="44.13702" lon="6.76635">
        <ele>995.9</ele>
        <time>2022-06-12T05:40:43Z</time>
      </trkpt>
      <trkpt lat="44.13705" lon="6.76629">
        <ele>996.9</ele>
        <time>2022-06-12T05:40:44Z</time>
      </trkpt>
      <trkpt lat="44.13708" lon="6.76624">
        <ele>997.7</ele>
        <time>2022-06-12T05:40:45Z</time>
      </trkpt>
      <trkpt lat="44.13711" lon="6.76619">
        <ele>998.3</ele>
        <time>2022-06-12T05:40:46Z</time>
      </trkpt>
      <trkpt lat="44.13714" lon="6.76614">
        <ele>998.9</ele>
        <time>2022-06-12T05:40:47Z</time>
      </trkpt>
      <trkpt lat="44.13717" lon="6.7661">
        <ele>999.5</ele>
        <time>2022-06-12T05:40:48Z</time>
      </trkpt>
      <trkpt lat="44.13721" lon="6.76605">
        <ele>1000.5</ele>
        <time>2022-06-12T05:40:49Z</time>
      </trkpt>
      <trkpt lat="44.13724" lon="6.76601">
        <ele>1001.3</ele>
        <time>2022-06-12T05:40:50Z</time>
      </trkpt>
      <trkpt lat="44.13728" lon="6.76597">
        <ele>1002</ele>
        <time>2022-06-12T05:40:51Z</time>
      </trkpt>
      <trkpt lat="44.13732" lon="6.76594">
        <ele>1002.5</ele>
        <time>2022-06-12T05:40:52Z</time>
      </trkpt>
      <trkpt lat="44.13736" lon="6.7659">
        <ele>1002.9</ele>
        <time>2022-06-12T05:40:53Z</time>
      </trkpt>
      <trkpt lat="44.1374" lon="6.76587">
        <ele>1003.3</ele>
        <time>2022-06-12T05:40:54Z</time>
      </trkpt>
      <trkpt lat="44.13743" lon="6.76583">
        <ele>1003.8</ele>
        <time>2022-06-12T05:40:55Z</time>
      </trkpt>
      <trkpt lat="44.13747" lon="6.7658">
        <ele>1004.3</ele>
        <time>2022-06-12T05:40:56Z</time>
      </trkpt>
      <trkpt lat="44.13751" lon="6.76576">
        <ele>1004.8</ele>
        <time>2022-06-12T05:40:57Z</time>
      </trkpt>
      <trkpt lat="44.13754" lon="6.76572">
        <ele>1005.3</ele>
        <time>2022-06-12T05:40:58Z</time>
      </trkpt>
      <trkpt lat="44.13759" lon="6.76569">
        <ele>1005.4</ele>
        <time>2022-06-12T05:40:59Z</time>
      </trkpt>
      <trkpt lat="44.13763" lon="6.76566">
        <ele>1005.4</ele>
        <time>2022-06-12T05:41:00Z</time>
      </trkpt>
      <trkpt lat="44.13766" lon="6.76563">
        <ele>1005.6</ele>
        <time>2022-06-12T05:41:01Z</time>
      </trkpt>
      <trkpt lat="44.13769" lon="6.76559">
        <ele>1005.9</ele>
        <time>2022-06-12T05:41:02Z</time>
      </trkpt>
      <trkpt lat="44.13773" lon="6.76555">
        <ele>1006.1</ele>
        <time>2022-06-12T05:41:03Z</time>
      </trkpt>
      <trkpt lat="44.13776" lon="6.76551">
        <ele>1006.5</ele>
        <time>2022-06-12T05:41:04Z</time>
      </trkpt>
      <trkpt lat="44.1378" lon="6.76547">
        <ele>1006.9</ele>
        <time>2022-06-12T05:41:05Z</time>
      </trkpt>
      <trkpt lat="44.13782" lon="6.76543">
        <ele>1007.4</ele>
        <time>2022-06-12T05:41:06Z</time>
      </trkpt>
      <trkpt lat="44.13785" lon="6.76539">
        <ele>1007.9</ele>
        <time>2022-06-12T05:41:07Z</time>
      </trkpt>
      <trkpt lat="44.13789" lon="6.76536">
        <ele>1008.2</ele>
        <time>2022-06-12T05:41:08Z</time>
      </trkpt>
      <trkpt lat="44.13792" lon="6.76532">
        <ele>1008.6</ele>
        <time>2022-06-12T05:41:09Z</time>
      </trkpt>
      <trkpt lat="44.13795" lon="6.76528">
        <ele>1008.9</ele>
        <time>2022-06-12T05:41:10Z</time>
      </trkpt>
      <trkpt lat="44.13799" lon="6.76524">
        <ele>1009.5</ele>
        <time>2022-06-12T05:41:11Z</time>
      </trkpt>
      <trkpt lat="44.13802" lon="6.76521">
        <ele>1009.8</ele>
        <time>2022-06-12T05:41:12Z</time>
      </trkpt>
      <trkpt lat="44.13805" lon="6.76518">
        <ele>1010.1</ele>
        <time>2022-06-12T05:41:13Z</time>
      </trkpt>
      <trkpt lat="44.13809" lon="6.76514">
        <ele>1010.4</ele>
        <time>2022-06-12T05:41:14Z</time>
      </trkpt>
      <trkpt lat="44.13812" lon="6.76511">
        <ele>1010.6</ele>
        <time>2022-06-12T05:41:15Z</time>
      </trkpt>
      <trkpt lat="44.13816" lon="6.76508">
        <ele>1010.7</ele>
        <time>2022-06-12T05:41:16Z</time>
      </trkpt>
      <trkpt lat="44.13819" lon="6.76506">
        <ele>1010.6</ele>
        <time>2022-06-12T05:41:17Z</time>
      </trkpt>
      <trkpt lat="44.13823" lon="6.76503">
        <ele>1010.5</ele>
        <time>2022-06-12T05:41:18Z</time>
      </trkpt>
      <trkpt lat="44.13827" lon="6.765">
        <ele>1010.3</ele>
        <time>2022-06-12T05:41:19Z</time>
      </trkpt>
      <trkpt lat="44.13832" lon="6.76497">
        <ele>1010.3</ele>
        <time>2022-06-12T05:41:20Z</time>
      </trkpt>
      <trkpt lat="44.13836" lon="6.76494">
        <ele>1010.5</ele>
        <time>2022-06-12T05:41:21Z</time>
      </trkpt>
      <trkpt lat="44.1384" lon="6.76491">
        <ele>1010.8</ele>
        <time>2022-06-12T05:41:22Z</time>
      </trkpt>
      <trkpt lat="44.13844" lon="6.76489">
        <ele>1010.9</ele>
        <time>2022-06-12T05:41:23Z</time>
      </trkpt>
      <trkpt lat="44.13847" lon="6.76486">
        <ele>1011.1</ele>
        <time>2022-06-12T05:41:24Z</time>
      </trkpt>
      <trkpt lat="44.13851" lon="6.76483">
        <ele>1011.3</ele>
        <time>2022-06-12T05:41:25Z</time>
      </trkpt>
      <trkpt lat="44.13855" lon="6.76479">
        <ele>1011.5</ele>
        <time>2022-06-12T05:41:26Z</time>
      </trkpt>
      <trkpt lat="44.13859" lon="6.76476">
        <ele>1011.6</ele>
        <time>2022-06-12T05:41:27Z</time>
      </trkpt>
      <trkpt lat="44.13862" lon="6.76473">
        <ele>1011.6</ele>
        <time>2022-06-12T05:41:28Z</time>
      </trkpt>
      <trkpt lat="44.13866" lon="6.7647">
        <ele>1011.8</ele>
        <time>2022-06-12T05:41:29Z</time>
      </trkpt>
      <trkpt lat="44.1387" lon="6.76467">
        <ele>1012.1</ele>
        <time>2022-06-12T05:41:30Z</time>
      </trkpt>
      <trkpt lat="44.13873" lon="6.76463">
        <ele>1012.4</ele>
        <time>2022-06-12T05:41:31Z</time>
      </trkpt>
      <trkpt lat="44.13877" lon="6.7646">
        <ele>1012.6</ele>
        <time>2022-06-12T05:41:32Z</time>
      </trkpt>
      <trkpt lat="44.1388" lon="6.76457">
        <ele>1012.7</ele>
        <time>2022-06-12T05:41:33Z</time>
      </trkpt>
      <trkpt lat="44.13884" lon="6.76453">
        <ele>1012.9</ele>
        <time>2022-06-12T05:41:34Z</time>
      </trkpt>
      <trkpt lat="44.13887" lon="6.7645">
        <ele>1013</ele>
        <time>2022-06-12T05:41:35Z</time>
      </trkpt>
      <trkpt lat="44.13891" lon="6.76447">
        <ele>1013</ele>
        <time>2022-06-12T05:41:36Z</time>
      </trkpt>
      <trkpt lat="44.13894" lon="6.76444">
        <ele>1013.1</ele>
        <time>2022-06-12T05:41:37Z</time>
      </trkpt>
      <trkpt lat="44.13898" lon="6.76441">
        <ele>1012.9</ele>
        <time>2022-06-12T05:41:38Z</time>
      </trkpt>
      <trkpt lat="44.13902" lon="6.76438">
        <ele>1012.7</ele>
        <time>2022-06-12T05:41:39Z</time>
      </trkpt>
      <trkpt lat="44.13905" lon="6.76436">
        <ele>1012.3</ele>
        <time>2022-06-12T05:41:40Z</time>
      </trkpt>
      <trkpt lat="44.13909" lon="6.76433">
        <ele>1012</ele>
        <time>2022-06-12T05:41:41Z</time>
      </trkpt>
      <trkpt lat="44.13913" lon="6.7643">
        <ele>1011.7</ele>
        <time>2022-06-12T05:41:42Z</time>
      </trkpt>
      <trkpt lat="44.13916" lon="6.76427">
        <ele>1011.4</ele>
        <time>2022-06-12T05:41:43Z</time>
      </trkpt>
      <trkpt lat="44.1392" lon="6.76423">
        <ele>1011.4</ele>
        <time>2022-06-12T05:41:44Z</time>
      </trkpt>
      <trkpt lat="44.13923" lon="6.7642">
        <ele>1011.5</ele>
        <time>2022-06-12T05:41:45Z</time>
      </trkpt>
      <trkpt lat="44.13927" lon="6.76417">
        <ele>1011.4</ele>
        <time>2022-06-12T05:41:46Z</time>
      </trkpt>
      <trkpt lat="44.13931" lon="6.76415">
        <ele>1011.3</ele>
        <time>2022-06-12T05:41:47Z</time>
      </trkpt>
      <trkpt lat="44.13935" lon="6.76412">
        <ele>1011.4</ele>
        <time>2022-06-12T05:41:48Z</time>
      </trkpt>
      <trkpt lat="44.13938" lon="6.76409">
        <ele>1011.4</ele>
        <time>2022-06-12T05:41:49Z</time>
      </trkpt>
      <trkpt lat="44.13942" lon="6.76407">
        <ele>1011.3</ele>
        <time>2022-06-12T05:41:50Z</time>
      </trkpt>
      <trkpt lat="44.13945" lon="6.76403">
        <ele>1011.3</ele>
        <time>2022-06-12T05:41:51Z</time>
      </trkpt>
      <trkpt lat="44.13948" lon="6.764">
        <ele>1011.7</ele>
        <time>2022-06-12T05:41:52Z</time>
      </trkpt>
      <trkpt lat="44.13951" lon="6.76397">
        <ele>1011.8</ele>
        <time>2022-06-12T05:41:53Z</time>
      </trkpt>
      <trkpt lat="44.13954" lon="6.76393">
        <ele>1012</ele>
        <time>2022-06-12T05:41:54Z</time>
      </trkpt>
      <trkpt lat="44.13957" lon="6.7639">
        <ele>1012.1</ele>
        <time>2022-06-12T05:41:55Z</time>
      </trkpt>
      <trkpt lat="44.1396" lon="6.76385">
        <ele>1012.6</ele>
        <time>2022-06-12T05:41:56Z</time>
      </trkpt>
      <trkpt lat="44.13964" lon="6.76382">
        <ele>1012.6</ele>
        <time>2022-06-12T05:41:57Z</time>
      </trkpt>
      <trkpt lat="44.13968" lon="6.76378">
        <ele>1012.7</ele>
        <time>2022-06-12T05:41:58Z</time>
      </trkpt>
      <trkpt lat="44.13971" lon="6.76374">
        <ele>1013</ele>
        <time>2022-06-12T05:41:59Z</time>
      </trkpt>
      <trkpt lat="44.13975" lon="6.7637">
        <ele>1013.4</ele>
        <time>2022-06-12T05:42:00Z</time>
      </trkpt>
      <trkpt lat="44.13979" lon="6.76367">
        <ele>1013.8</ele>
        <time>2022-06-12T05:42:01Z</time>
      </trkpt>
      <trkpt lat="44.13983" lon="6.76364">
        <ele>1014.1</ele>
        <time>2022-06-12T05:42:02Z</time>
      </trkpt>
      <trkpt lat="44.13986" lon="6.76362">
        <ele>1014.4</ele>
        <time>2022-06-12T05:42:03Z</time>
      </trkpt>
      <trkpt lat="44.1399" lon="6.76359">
        <ele>1014.7</ele>
        <time>2022-06-12T05:42:04Z</time>
      </trkpt>
      <trkpt lat="44.13994" lon="6.76355">
        <ele>1015</ele>
        <time>2022-06-12T05:42:05Z</time>
      </trkpt>
      <trkpt lat="44.13998" lon="6.76352">
        <ele>1015.1</ele>
        <time>2022-06-12T05:42:06Z</time>
      </trkpt>
      <trkpt lat="44.14002" lon="6.7635">
        <ele>1015.3</ele>
        <time>2022-06-12T05:42:07Z</time>
      </trkpt>
      <trkpt lat="44.14005" lon="6.76348">
        <ele>1015.6</ele>
        <time>2022-06-12T05:42:08Z</time>
      </trkpt>
      <trkpt lat="44.14009" lon="6.76345">
        <ele>1015.8</ele>
        <time>2022-06-12T05:42:09Z</time>
      </trkpt>
      <trkpt lat="44.14012" lon="6.76344">
        <ele>1016.1</ele>
        <time>2022-06-12T05:42:10Z</time>
      </trkpt>
      <trkpt lat="44.14016" lon="6.76342">
        <ele>1016.2</ele>
        <time>2022-06-12T05:42:11Z</time>
      </trkpt>
      <trkpt lat="44.1402" lon="6.7634">
        <ele>1016.4</ele>
        <time>2022-06-12T05:42:12Z</time>
      </trkpt>
      <trkpt lat="44.14023" lon="6.76338">
        <ele>1016.6</ele>
        <time>2022-06-12T05:42:13Z</time>
      </trkpt>
      <trkpt lat="44.14027" lon="6.76336">
        <ele>1016.8</ele>
        <time>2022-06-12T05:42:14Z</time>
      </trkpt>
      <trkpt lat="44.1403" lon="6.76334">
        <ele>1017.2</ele>
        <time>2022-06-12T05:42:15Z</time>
      </trkpt>
      <trkpt lat="44.14033" lon="6.76331">
        <ele>1017.7</ele>
        <time>2022-06-12T05:42:16Z</time>
      </trkpt>
      <trkpt lat="44.14036" lon="6.76327">
        <ele>1018.2</ele>
        <time>2022-06-12T05:42:17Z</time>
      </trkpt>
      <trkpt lat="44.14038" lon="6.76324">
        <ele>1018.6</ele>
        <time>2022-06-12T05:42:18Z</time>
      </trkpt>
      <trkpt lat="44.14041" lon="6.7632">
        <ele>1018.9</ele>
        <time>2022-06-12T05:42:19Z</time>
      </trkpt>
      <trkpt lat="44.14042" lon="6.76315">
        <ele>1019.2</ele>
        <time>2022-06-12T05:42:20Z</time>
      </trkpt>
      <trkpt lat="44.14044" lon="6.76311">
        <ele>1019.4</ele>
        <time>2022-06-12T05:42:21Z</time>
      </trkpt>
      <trkpt lat="44.14044" lon="6.76306">
        <ele>1019.6</ele>
        <time>2022-06-12T05:42:22Z</time>
      </trkpt>
      <trkpt lat="44.14044" lon="6.76301">
        <ele>1019.6</ele>
        <time>2022-06-12T05:42:23Z</time>
      </trkpt>
      <trkpt lat="44.14044" lon="6.76296">
        <ele>1019.5</ele>
        <time>2022-06-12T05:42:24Z</time>
      </trkpt>
      <trkpt lat="44.14044" lon="6.76291">
        <ele>1019.5</ele>
        <time>2022-06-12T05:42:25Z</time>
      </trkpt>
      <trkpt lat="44.14044" lon="6.76287">
        <ele>1019.5</ele>
        <time>2022-06-12T05:42:26Z</time>
      </trkpt>
      <trkpt lat="44.14044" lon="6.76282">
        <ele>1019.5</ele>
        <time>2022-06-12T05:42:27Z</time>
      </trkpt>
      <trkpt lat="44.14043" lon="6.76277">
        <ele>1019.5</ele>
        <time>2022-06-12T05:42:28Z</time>
      </trkpt>
      <trkpt lat="44.14043" lon="6.76272">
        <ele>1019.7</ele>
        <time>2022-06-12T05:42:29Z</time>
      </trkpt>
      <trkpt lat="44.14042" lon="6.76267">
        <ele>1019.8</ele>
        <time>2022-06-12T05:42:30Z</time>
      </trkpt>
      <trkpt lat="44.14042" lon="6.76262">
        <ele>1020.1</ele>
        <time>2022-06-12T05:42:31Z</time>
      </trkpt>
      <trkpt lat="44.14042" lon="6.76258">
        <ele>1020.2</ele>
        <time>2022-06-12T05:42:32Z</time>
      </trkpt>
      <trkpt lat="44.14041" lon="6.76253">
        <ele>1020.5</ele>
        <time>2022-06-12T05:42:33Z</time>
      </trkpt>
      <trkpt lat="44.14041" lon="6.76248">
        <ele>1020.8</ele>
        <time>2022-06-12T05:42:34Z</time>
      </trkpt>
      <trkpt lat="44.1404" lon="6.76243">
        <ele>1021.4</ele>
        <time>2022-06-12T05:42:35Z</time>
      </trkpt>
      <trkpt lat="44.1404" lon="6.76238">
        <ele>1022</ele>
        <time>2022-06-12T05:42:36Z</time>
      </trkpt>
      <trkpt lat="44.1404" lon="6.76233">
        <ele>1022.6</ele>
        <time>2022-06-12T05:42:37Z</time>
      </trkpt>
      <trkpt lat="44.1404" lon="6.76229">
        <ele>1023</ele>
        <time>2022-06-12T05:42:38Z</time>
      </trkpt>
      <trkpt lat="44.14041" lon="6.76224">
        <ele>1023.6</ele>
        <time>2022-06-12T05:42:39Z</time>
      </trkpt>
      <trkpt lat="44.14041" lon="6.76218">
        <ele>1024.1</ele>
        <time>2022-06-12T05:42:40Z</time>
      </trkpt>
      <trkpt lat="44.14042" lon="6.76213">
        <ele>1024.6</ele>
        <time>2022-06-12T05:42:41Z</time>
      </trkpt>
      <trkpt lat="44.14043" lon="6.76208">
        <ele>1025</ele>
        <time>2022-06-12T05:42:42Z</time>
      </trkpt>
      <trkpt lat="44.14044" lon="6.76204">
        <ele>1025.4</ele>
        <time>2022-06-12T05:42:43Z</time>
      </trkpt>
      <trkpt lat="44.14045" lon="6.76199">
        <ele>1025.5</ele>
        <time>2022-06-12T05:42:44Z</time>
      </trkpt>
      <trkpt lat="44.14047" lon="6.76195">
        <ele>1025.4</ele>
        <time>2022-06-12T05:42:45Z</time>
      </trkpt>
      <trkpt lat="44.14049" lon="6.76192">
        <ele>1025.5</ele>
        <time>2022-06-12T05:42:46Z</time>
      </trkpt>
      <trkpt lat="44.14051" lon="6.76188">
        <ele>1025.5</ele>
        <time>2022-06-12T05:42:47Z</time>
      </trkpt>
      <trkpt lat="44.14053" lon="6.76185">
        <ele>1025.5</ele>
        <time>2022-06-12T05:42:48Z</time>
      </trkpt>
      <trkpt lat="44.14055" lon="6.76182">
        <ele>1025.4</ele>
        <time>2022-06-12T05:42:49Z</time>
      </trkpt>
      <trkpt lat="44.14057" lon="6.76179">
        <ele>1025.7</ele>
        <time>2022-06-12T05:42:50Z</time>
      </trkpt>
      <trkpt lat="44.14059" lon="6.76175">
        <ele>1026.2</ele>
        <time>2022-06-12T05:42:51Z</time>
      </trkpt>
      <trkpt lat="44.14061" lon="6.76171">
        <ele>1026.5</ele>
        <time>2022-06-12T05:42:52Z</time>
      </trkpt>
      <trkpt lat="44.14063" lon="6.76168">
        <ele>1026.7</ele>
        <time>2022-06-12T05:42:53Z</time>
      </trkpt>
      <trkpt lat="44.14065" lon="6.76165">
        <ele>1027.1</ele>
        <time>2022-06-12T05:42:54Z</time>
      </trkpt>
      <trkpt lat="44.14068" lon="6.76162">
        <ele>1027.4</ele>
        <time>2022-06-12T05:42:55Z</time>
      </trkpt>
      <trkpt lat="44.1407" lon="6.76159">
        <ele>1027.7</ele>
        <time>2022-06-12T05:42:56Z</time>
      </trkpt>
      <trkpt lat="44.14072" lon="6.76156">
        <ele>1027.9</ele>
        <time>2022-06-12T05:42:57Z</time>
      </trkpt>
      <trkpt lat="44.14074" lon="6.76153">
        <ele>1028.2</ele>
        <time>2022-06-12T05:42:58Z</time>
      </trkpt>
      <trkpt lat="44.14076" lon="6.7615">
        <ele>1028.5</ele>
        <time>2022-06-12T05:42:59Z</time>
      </trkpt>
      <trkpt lat="44.14078" lon="6.76147">
        <ele>1028.5</ele>
        <time>2022-06-12T05:43:00Z</time>
      </trkpt>
      <trkpt lat="44.14081" lon="6.76145">
        <ele>1028.5</ele>
        <time>2022-06-12T05:43:01Z</time>
      </trkpt>
      <trkpt lat="44.14084" lon="6.76143">
        <ele>1028.3</ele>
        <time>2022-06-12T05:43:02Z</time>
      </trkpt>
      <trkpt lat="44.14087" lon="6.7614">
        <ele>1028.6</ele>
        <time>2022-06-12T05:43:03Z</time>
      </trkpt>
      <trkpt lat="44.1409" lon="6.76138">
        <ele>1028.9</ele>
        <time>2022-06-12T05:43:04Z</time>
      </trkpt>
      <trkpt lat="44.14093" lon="6.76137">
        <ele>1029.1</ele>
        <time>2022-06-12T05:43:05Z</time>
      </trkpt>
      <trkpt lat="44.14096" lon="6.76135">
        <ele>1029.2</ele>
        <time>2022-06-12T05:43:06Z</time>
      </trkpt>
      <trkpt lat="44.14099" lon="6.76134">
        <ele>1029.3</ele>
        <time>2022-06-12T05:43:07Z</time>
      </trkpt>
      <trkpt lat="44.14102" lon="6.76132">
        <ele>1029.3</ele>
        <time>2022-06-12T05:43:08Z</time>
      </trkpt>
      <trkpt lat="44.14105" lon="6.7613">
        <ele>1029.4</ele>
        <time>2022-06-12T05:43:09Z</time>
      </trkpt>
      <trkpt lat="44.14108" lon="6.76129">
        <ele>1029.3</ele>
        <time>2022-06-12T05:43:10Z</time>
      </trkpt>
      <trkpt lat="44.14111" lon="6.76128">
        <ele>1029.2</ele>
        <time>2022-06-12T05:43:11Z</time>
      </trkpt>
      <trkpt lat="44.14114" lon="6.76127">
        <ele>1029.2</ele>
        <time>2022-06-12T05:43:12Z</time>
      </trkpt>
      <trkpt lat="44.14116" lon="6.76125">
        <ele>1029.3</ele>
        <time>2022-06-12T05:43:13Z</time>
      </trkpt>
      <trkpt lat="44.14119" lon="6.76124">
        <ele>1029.3</ele>
        <time>2022-06-12T05:43:14Z</time>
      </trkpt>
      <trkpt lat="44.14122" lon="6.76122">
        <ele>1029.3</ele>
        <time>2022-06-12T05:43:15Z</time>
      </trkpt>
      <trkpt lat="44.14125" lon="6.76121">
        <ele>1029.3</ele>
        <time>2022-06-12T05:43:16Z</time>
      </trkpt>
      <trkpt lat="44.14127" lon="6.76119">
        <ele>1029.3</ele>
        <time>2022-06-12T05:43:17Z</time>
      </trkpt>
      <trkpt lat="44.1413" lon="6.76117">
        <ele>1029.3</ele>
        <time>2022-06-12T05:43:18Z</time>
      </trkpt>
      <trkpt lat="44.14133" lon="6.76116">
        <ele>1029.2</ele>
        <time>2022-06-12T05:43:19Z</time>
      </trkpt>
      <trkpt lat="44.14136" lon="6.76114">
        <ele>1029.1</ele>
        <time>2022-06-12T05:43:20Z</time>
      </trkpt>
      <trkpt lat="44.14139" lon="6.76112">
        <ele>1029</ele>
        <time>2022-06-12T05:43:21Z</time>
      </trkpt>
      <trkpt lat="44.14141" lon="6.76111">
        <ele>1029.1</ele>
        <time>2022-06-12T05:43:22Z</time>
      </trkpt>
      <trkpt lat="44.14144" lon="6.76109">
        <ele>1029.3</ele>
        <time>2022-06-12T05:43:23Z</time>
      </trkpt>
      <trkpt lat="44.14147" lon="6.76107">
        <ele>1029.6</ele>
        <time>2022-06-12T05:43:24Z</time>
      </trkpt>
      <trkpt lat="44.1415" lon="6.76104">
        <ele>1029.8</ele>
        <time>2022-06-12T05:43:25Z</time>
      </trkpt>
      <trkpt lat="44.14152" lon="6.76102">
        <ele>1030</ele>
        <time>2022-06-12T05:43:26Z</time>
      </trkpt>
      <trkpt lat="44.14154" lon="6.761">
        <ele>1030.2</ele>
        <time>2022-06-12T05:43:27Z</time>
      </trkpt>
      <trkpt lat="44.14157" lon="6.76098">
        <ele>1030.3</ele>
        <time>2022-06-12T05:43:28Z</time>
      </trkpt>
      <trkpt lat="44.14159" lon="6.76095">
        <ele>1030.5</ele>
        <time>2022-06-12T05:43:29Z</time>
      </trkpt>
      <trkpt lat="44.14161" lon="6.76092">
        <ele>1030.6</ele>
        <time>2022-06-12T05:43:30Z</time>
      </trkpt>
      <trkpt lat="44.14164" lon="6.7609">
        <ele>1030.7</ele>
        <time>2022-06-12T05:43:31Z</time>
      </trkpt>
      <trkpt lat="44.14166" lon="6.76087">
        <ele>1030.8</ele>
        <time>2022-06-12T05:43:32Z</time>
      </trkpt>
      <trkpt lat="44.14169" lon="6.76084">
        <ele>1031</ele>
        <time>2022-06-12T05:43:33Z</time>
      </trkpt>
      <trkpt lat="44.14171" lon="6.76082">
        <ele>1031.4</ele>
        <time>2022-06-12T05:43:34Z</time>
      </trkpt>
      <trkpt lat="44.14173" lon="6.76079">
        <ele>1031.8</ele>
        <time>2022-06-12T05:43:35Z</time>
      </trkpt>
      <trkpt lat="44.14175" lon="6.76077">
        <ele>1032.1</ele>
        <time>2022-06-12T05:43:36Z</time>
      </trkpt>
      <trkpt lat="44.14177" lon="6.76074">
        <ele>1032.5</ele>
        <time>2022-06-12T05:43:37Z</time>
      </trkpt>
      <trkpt lat="44.1418" lon="6.7607">
        <ele>1032.9</ele>
        <time>2022-06-12T05:43:38Z</time>
      </trkpt>
      <trkpt lat="44.14183" lon="6.76067">
        <ele>1033.2</ele>
        <time>2022-06-12T05:43:39Z</time>
      </trkpt>
      <trkpt lat="44.14185" lon="6.76064">
        <ele>1033.5</ele>
        <time>2022-06-12T05:43:40Z</time>
      </trkpt>
      <trkpt lat="44.14187" lon="6.76062">
        <ele>1033.7</ele>
        <time>2022-06-12T05:43:41Z</time>
      </trkpt>
      <trkpt lat="44.14189" lon="6.76059">
        <ele>1033.9</ele>
        <time>2022-06-12T05:43:42Z</time>
      </trkpt>
      <trkpt lat="44.14192" lon="6.76057">
        <ele>1034</ele>
        <time>2022-06-12T05:43:43Z</time>
      </trkpt>
      <trkpt lat="44.14194" lon="6.76055">
        <ele>1034.1</ele>
        <time>2022-06-12T05:43:44Z</time>
      </trkpt>
      <trkpt lat="44.14197" lon="6.76053">
        <ele>1034.4</ele>
        <time>2022-06-12T05:43:45Z</time>
      </trkpt>
      <trkpt lat="44.142" lon="6.76051">
        <ele>1034.8</ele>
        <time>2022-06-12T05:43:46Z</time>
      </trkpt>
      <trkpt lat="44.14202" lon="6.76049">
        <ele>1035.1</ele>
        <time>2022-06-12T05:43:47Z</time>
      </trkpt>
      <trkpt lat="44.14205" lon="6.76048">
        <ele>1035.4</ele>
        <time>2022-06-12T05:43:48Z</time>
      </trkpt>
      <trkpt lat="44.14208" lon="6.76048">
        <ele>1035.6</ele>
        <time>2022-06-12T05:43:49Z</time>
      </trkpt>
      <trkpt lat="44.14211" lon="6.76047">
        <ele>1035.8</ele>
        <time>2022-06-12T05:43:50Z</time>
      </trkpt>
      <trkpt lat="44.14214" lon="6.76047">
        <ele>1035.9</ele>
        <time>2022-06-12T05:43:51Z</time>
      </trkpt>
      <trkpt lat="44.14217" lon="6.76048">
        <ele>1036</ele>
        <time>2022-06-12T05:43:52Z</time>
      </trkpt>
      <trkpt lat="44.1422" lon="6.76049">
        <ele>1036.1</ele>
        <time>2022-06-12T05:43:53Z</time>
      </trkpt>
      <trkpt lat="44.14223" lon="6.7605">
        <ele>1036.3</ele>
        <time>2022-06-12T05:43:54Z</time>
      </trkpt>
      <trkpt lat="44.14226" lon="6.76052">
        <ele>1036.4</ele>
        <time>2022-06-12T05:43:55Z</time>
      </trkpt>
      <trkpt lat="44.14229" lon="6.76055">
        <ele>1036.5</ele>
        <time>2022-06-12T05:43:56Z</time>
      </trkpt>
      <trkpt lat="44.14232" lon="6.76057">
        <ele>1036.7</ele>
        <time>2022-06-12T05:43:57Z</time>
      </trkpt>
      <trkpt lat="44.14234" lon="6.7606">
        <ele>1037.1</ele>
        <time>2022-06-12T05:43:58Z</time>
      </trkpt>
      <trkpt lat="44.14236" lon="6.76064">
        <ele>1037.5</ele>
        <time>2022-06-12T05:43:59Z</time>
      </trkpt>
      <trkpt lat="44.14238" lon="6.76068">
        <ele>1037.8</ele>
        <time>2022-06-12T05:44:00Z</time>
      </trkpt>
      <trkpt lat="44.14239" lon="6.76072">
        <ele>1038.3</ele>
        <time>2022-06-12T05:44:01Z</time>
      </trkpt>
      <trkpt lat="44.1424" lon="6.76077">
        <ele>1038.8</ele>
        <time>2022-06-12T05:44:02Z</time>
      </trkpt>
      <trkpt lat="44.14241" lon="6.76081">
        <ele>1039.1</ele>
        <time>2022-06-12T05:44:03Z</time>
      </trkpt>
      <trkpt lat="44.14241" lon="6.76086">
        <ele>1039.3</ele>
        <time>2022-06-12T05:44:04Z</time>
      </trkpt>
      <trkpt lat="44.14241" lon="6.76091">
        <ele>1039.4</ele>
        <time>2022-06-12T05:44:05Z</time>
      </trkpt>
      <trkpt lat="44.14241" lon="6.76095">
        <ele>1039.3</ele>
        <time>2022-06-12T05:44:06Z</time>
      </trkpt>
      <trkpt lat="44.1424" lon="6.761">
        <ele>1039.3</ele>
        <time>2022-06-12T05:44:07Z</time>
      </trkpt>
      <trkpt lat="44.14239" lon="6.76104">
        <ele>1039</ele>
        <time>2022-06-12T05:44:08Z</time>
      </trkpt>
      <trkpt lat="44.14237" lon="6.76109">
        <ele>1038.7</ele>
        <time>2022-06-12T05:44:09Z</time>
      </trkpt>
      <trkpt lat="44.14236" lon="6.76112">
        <ele>1038.5</ele>
        <time>2022-06-12T05:44:10Z</time>
      </trkpt>
      <trkpt lat="44.14234" lon="6.76116">
        <ele>1038.5</ele>
        <time>2022-06-12T05:44:11Z</time>
      </trkpt>
      <trkpt lat="44.14232" lon="6.7612">
        <ele>1038.6</ele>
        <time>2022-06-12T05:44:12Z</time>
      </trkpt>
      <trkpt lat="44.1423" lon="6.76123">
        <ele>1038.8</ele>
        <time>2022-06-12T05:44:13Z</time>
      </trkpt>
      <trkpt lat="44.14229" lon="6.76126">
        <ele>1039</ele>
        <time>2022-06-12T05:44:14Z</time>
      </trkpt>
      <trkpt lat="44.14227" lon="6.76129">
        <ele>1039.2</ele>
        <time>2022-06-12T05:44:15Z</time>
      </trkpt>
      <trkpt lat="44.14226" lon="6.76132">
        <ele>1039.4</ele>
        <time>2022-06-12T05:44:16Z</time>
      </trkpt>
      <trkpt lat="44.14224" lon="6.76135">
        <ele>1039.7</ele>
        <time>2022-06-12T05:44:17Z</time>
      </trkpt>
      <trkpt lat="44.14223" lon="6.76138">
        <ele>1040</ele>
        <time>2022-06-12T05:44:18Z</time>
      </trkpt>
      <trkpt lat="44.14222" lon="6.76141">
        <ele>1040.4</ele>
        <time>2022-06-12T05:44:19Z</time>
      </trkpt>
      <trkpt lat="44.1422" lon="6.76144">
        <ele>1040.6</ele>
        <time>2022-06-12T05:44:20Z</time>
      </trkpt>
      <trkpt lat="44.14218" lon="6.76146">
        <ele>1040.9</ele>
        <time>2022-06-12T05:44:21Z</time>
      </trkpt>
      <trkpt lat="44.14217" lon="6.76149">
        <ele>1041.3</ele>
        <time>2022-06-12T05:44:22Z</time>
      </trkpt>
      <trkpt lat="44.14216" lon="6.76151">
        <ele>1041.6</ele>
        <time>2022-06-12T05:44:23Z</time>
      </trkpt>
      <trkpt lat="44.14214" lon="6.76154">
        <ele>1041.9</ele>
        <time>2022-06-12T05:44:24Z</time>
      </trkpt>
      <trkpt lat="44.14212" lon="6.76156">
        <ele>1042.1</ele>
        <time>2022-06-12T05:44:25Z</time>
      </trkpt>
      <trkpt lat="44.1421" lon="6.76159">
        <ele>1042.4</ele>
        <time>2022-06-12T05:44:26Z</time>
      </trkpt>
      <trkpt lat="44.14209" lon="6.76162">
        <ele>1042.8</ele>
        <time>2022-06-12T05:44:27Z</time>
      </trkpt>
      <trkpt lat="44.14208" lon="6.76164">
        <ele>1043.2</ele>
        <time>2022-06-12T05:44:28Z</time>
      </trkpt>
      <trkpt lat="44.14206" lon="6.76167">
        <ele>1043.4</ele>
        <time>2022-06-12T05:44:29Z</time>
      </trkpt>
      <trkpt lat="44.14204" lon="6.76169">
        <ele>1043.6</ele>
        <time>2022-06-12T05:44:30Z</time>
      </trkpt>
      <trkpt lat="44.14202" lon="6.76172">
        <ele>1043.9</ele>
        <time>2022-06-12T05:44:31Z</time>
      </trkpt>
      <trkpt lat="44.142" lon="6.76174">
        <ele>1044.1</ele>
        <time>2022-06-12T05:44:32Z</time>
      </trkpt>
      <trkpt lat="44.14198" lon="6.76176">
        <ele>1044.2</ele>
        <time>2022-06-12T05:44:33Z</time>
      </trkpt>
      <trkpt lat="44.14196" lon="6.76178">
        <ele>1044.5</ele>
        <time>2022-06-12T05:44:34Z</time>
      </trkpt>
      <trkpt lat="44.14193" lon="6.76181">
        <ele>1044.7</ele>
        <time>2022-06-12T05:44:35Z</time>
      </trkpt>
      <trkpt lat="44.14191" lon="6.76183">
        <ele>1044.6</ele>
        <time>2022-06-12T05:44:36Z</time>
      </trkpt>
      <trkpt lat="44.14189" lon="6.76186">
        <ele>1044.6</ele>
        <time>2022-06-12T05:44:37Z</time>
      </trkpt>
      <trkpt lat="44.14186" lon="6.76188">
        <ele>1044.5</ele>
        <time>2022-06-12T05:44:38Z</time>
      </trkpt>
      <trkpt lat="44.14184" lon="6.7619">
        <ele>1044.4</ele>
        <time>2022-06-12T05:44:39Z</time>
      </trkpt>
      <trkpt lat="44.14181" lon="6.76193">
        <ele>1044.2</ele>
        <time>2022-06-12T05:44:40Z</time>
      </trkpt>
      <trkpt lat="44.14179" lon="6.76196">
        <ele>1044.1</ele>
        <time>2022-06-12T05:44:41Z</time>
      </trkpt>
      <trkpt lat="44.14177" lon="6.76198">
        <ele>1043.9</ele>
        <time>2022-06-12T05:44:42Z</time>
      </trkpt>
      <trkpt lat="44.14175" lon="6.76201">
        <ele>1043.8</ele>
        <time>2022-06-12T05:44:43Z</time>
      </trkpt>
      <trkpt lat="44.14173" lon="6.76204">
        <ele>1043.7</ele>
        <time>2022-06-12T05:44:44Z</time>
      </trkpt>
      <trkpt lat="44.14171" lon="6.76207">
        <ele>1043.7</ele>
        <time>2022-06-12T05:44:45Z</time>
      </trkpt>
      <trkpt lat="44.14169" lon="6.7621">
        <ele>1043.9</ele>
        <time>2022-06-12T05:44:46Z</time>
      </trkpt>
      <trkpt lat="44.14167" lon="6.76213">
        <ele>1044</ele>
        <time>2022-06-12T05:44:47Z</time>
      </trkpt>
      <trkpt lat="44.14165" lon="6.76216">
        <ele>1044.1</ele>
        <time>2022-06-12T05:44:48Z</time>
      </trkpt>
      <trkpt lat="44.14164" lon="6.76218">
        <ele>1044</ele>
        <time>2022-06-12T05:44:49Z</time>
      </trkpt>
      <trkpt lat="44.14162" lon="6.76221">
        <ele>1043.9</ele>
        <time>2022-06-12T05:44:50Z</time>
      </trkpt>
      <trkpt lat="44.1416" lon="6.76223">
        <ele>1043.6</ele>
        <time>2022-06-12T05:44:51Z</time>
      </trkpt>
      <trkpt lat="44.14158" lon="6.76226">
        <ele>1043.6</ele>
        <time>2022-06-12T05:44:52Z</time>
      </trkpt>
      <trkpt lat="44.14157" lon="6.76229">
        <ele>1043.6</ele>
        <time>2022-06-12T05:44:53Z</time>
      </trkpt>
      <trkpt lat="44.14155" lon="6.76232">
        <ele>1043.5</ele>
        <time>2022-06-12T05:44:54Z</time>
      </trkpt>
      <trkpt lat="44.14153" lon="6.76235">
        <ele>1043.6</ele>
        <time>2022-06-12T05:44:55Z</time>
      </trkpt>
      <trkpt lat="44.14151" lon="6.76237">
        <ele>1043.5</ele>
        <time>2022-06-12T05:44:56Z</time>
      </trkpt>
      <trkpt lat="44.14149" lon="6.76239">
        <ele>1043.3</ele>
        <time>2022-06-12T05:44:57Z</time>
      </trkpt>
      <trkpt lat="44.14147" lon="6.76241">
        <ele>1043.1</ele>
        <time>2022-06-12T05:44:58Z</time>
      </trkpt>
      <trkpt lat="44.14145" lon="6.76243">
        <ele>1043</ele>
        <time>2022-06-12T05:44:59Z</time>
      </trkpt>
      <trkpt lat="44.14144" lon="6.76246">
        <ele>1043.2</ele>
        <time>2022-06-12T05:45:00Z</time>
      </trkpt>
      <trkpt lat="44.14142" lon="6.76249">
        <ele>1043.5</ele>
        <time>2022-06-12T05:45:01Z</time>
      </trkpt>
      <trkpt lat="44.14142" lon="6.76252">
        <ele>1043.8</ele>
        <time>2022-06-12T05:45:02Z</time>
      </trkpt>
      <trkpt lat="44.14141" lon="6.76255">
        <ele>1043.9</ele>
        <time>2022-06-12T05:45:03Z</time>
      </trkpt>
      <trkpt lat="44.14141" lon="6.76258">
        <ele>1044.2</ele>
        <time>2022-06-12T05:45:04Z</time>
      </trkpt>
      <trkpt lat="44.14141" lon="6.7626">
        <ele>1044.4</ele>
        <time>2022-06-12T05:45:05Z</time>
      </trkpt>
      <trkpt lat="44.14141" lon="6.76262">
        <ele>1044.6</ele>
        <time>2022-06-12T05:45:06Z</time>
      </trkpt>
      <trkpt lat="44.14142" lon="6.76263">
        <ele>1044.9</ele>
        <time>2022-06-12T05:45:07Z</time>
      </trkpt>
      <trkpt lat="44.14143" lon="6.76265">
        <ele>1045.2</ele>
        <time>2022-06-12T05:45:08Z</time>
      </trkpt>
      <trkpt lat="44.14145" lon="6.76265">
        <ele>1045.5</ele>
        <time>2022-06-12T05:45:09Z</time>
      </trkpt>
      <trkpt lat="44.14147" lon="6.76265">
        <ele>1045.8</ele>
        <time>2022-06-12T05:45:10Z</time>
      </trkpt>
      <trkpt lat="44.14149" lon="6.76265">
        <ele>1046.2</ele>
        <time>2022-06-12T05:45:11Z</time>
      </trkpt>
      <trkpt lat="44.14151" lon="6.76265">
        <ele>1046.5</ele>
        <time>2022-06-12T05:45:12Z</time>
      </trkpt>
      <trkpt lat="44.14154" lon="6.76264">
        <ele>1046.9</ele>
        <time>2022-06-12T05:45:13Z</time>
      </trkpt>
      <trkpt lat="44.14157" lon="6.76262">
        <ele>1047.4</ele>
        <time>2022-06-12T05:45:14Z</time>
      </trkpt>
      <trkpt lat="44.14159" lon="6.76259">
        <ele>1047.9</ele>
        <time>2022-06-12T05:45:15Z</time>
      </trkpt>
      <trkpt lat="44.14162" lon="6.76257">
        <ele>1048.5</ele>
        <time>2022-06-12T05:45:16Z</time>
      </trkpt>
      <trkpt lat="44.14164" lon="6.76253">
        <ele>1049.2</ele>
        <time>2022-06-12T05:45:17Z</time>
      </trkpt>
      <trkpt lat="44.14166" lon="6.7625">
        <ele>1049.9</ele>
        <time>2022-06-12T05:45:18Z</time>
      </trkpt>
      <trkpt lat="44.14169" lon="6.76248">
        <ele>1049.7</ele>
        <time>2022-06-12T05:45:19Z</time>
      </trkpt>
      <trkpt lat="44.14171" lon="6.76245">
        <ele>1049.4</ele>
        <time>2022-06-12T05:45:20Z</time>
      </trkpt>
      <trkpt lat="44.14174" lon="6.76242">
        <ele>1049.2</ele>
        <time>2022-06-12T05:45:21Z</time>
      </trkpt>
      <trkpt lat="44.14175" lon="6.76237">
        <ele>1049</ele>
        <time>2022-06-12T05:45:22Z</time>
      </trkpt>
      <trkpt lat="44.14177" lon="6.76233">
        <ele>1048.9</ele>
        <time>2022-06-12T05:45:23Z</time>
      </trkpt>
      <trkpt lat="44.14178" lon="6.76228">
        <ele>1048.8</ele>
        <time>2022-06-12T05:45:24Z</time>
      </trkpt>
      <trkpt lat="44.1418" lon="6.76223">
        <ele>1048.9</ele>
        <time>2022-06-12T05:45:25Z</time>
      </trkpt>
      <trkpt lat="44.14182" lon="6.76218">
        <ele>1048.7</ele>
        <time>2022-06-12T05:45:26Z</time>
      </trkpt>
      <trkpt lat="44.14185" lon="6.76214">
        <ele>1048.7</ele>
        <time>2022-06-12T05:45:27Z</time>
      </trkpt>
      <trkpt lat="44.14188" lon="6.7621">
        <ele>1048.9</ele>
        <time>2022-06-12T05:45:28Z</time>
      </trkpt>
      <trkpt lat="44.14191" lon="6.76207">
        <ele>1049.4</ele>
        <time>2022-06-12T05:45:29Z</time>
      </trkpt>
      <trkpt lat="44.14195" lon="6.76204">
        <ele>1050.1</ele>
        <time>2022-06-12T05:45:30Z</time>
      </trkpt>
      <trkpt lat="44.14198" lon="6.76202">
        <ele>1049.9</ele>
        <time>2022-06-12T05:45:31Z</time>
      </trkpt>
      <trkpt lat="44.14202" lon="6.76199">
        <ele>1049.8</ele>
        <time>2022-06-12T05:45:32Z</time>
      </trkpt>
      <trkpt lat="44.14205" lon="6.76195">
        <ele>1049.8</ele>
        <time>2022-06-12T05:45:33Z</time>
      </trkpt>
      <trkpt lat="44.14209" lon="6.76192">
        <ele>1049.4</ele>
        <time>2022-06-12T05:45:34Z</time>
      </trkpt>
      <trkpt lat="44.14212" lon="6.76189">
        <ele>1049.1</ele>
        <time>2022-06-12T05:45:35Z</time>
      </trkpt>
      <trkpt lat="44.14215" lon="6.76185">
        <ele>1048.8</ele>
        <time>2022-06-12T05:45:36Z</time>
      </trkpt>
      <trkpt lat="44.14218" lon="6.76181">
        <ele>1048.5</ele>
        <time>2022-06-12T05:45:37Z</time>
      </trkpt>
      <trkpt lat="44.14221" lon="6.76178">
        <ele>1048.3</ele>
        <time>2022-06-12T05:45:38Z</time>
      </trkpt>
      <trkpt lat="44.14224" lon="6.76174">
        <ele>1047.9</ele>
        <time>2022-06-12T05:45:39Z</time>
      </trkpt>
      <trkpt lat="44.14228" lon="6.7617">
        <ele>1047</ele>
        <time>2022-06-12T05:45:40Z</time>
      </trkpt>
      <trkpt lat="44.14231" lon="6.76166">
        <ele>1046.3</ele>
        <time>2022-06-12T05:45:41Z</time>
      </trkpt>
      <trkpt lat="44.14234" lon="6.76163">
        <ele>1045.3</ele>
        <time>2022-06-12T05:45:42Z</time>
      </trkpt>
      <trkpt lat="44.14238" lon="6.76158">
        <ele>1044.5</ele>
        <time>2022-06-12T05:45:43Z</time>
      </trkpt>
      <trkpt lat="44.1424" lon="6.76154">
        <ele>1043.6</ele>
        <time>2022-06-12T05:45:44Z</time>
      </trkpt>
      <trkpt lat="44.14243" lon="6.76148">
        <ele>1042.8</ele>
        <time>2022-06-12T05:45:45Z</time>
      </trkpt>
      <trkpt lat="44.14247" lon="6.76145">
        <ele>1042.5</ele>
        <time>2022-06-12T05:45:46Z</time>
      </trkpt>
      <trkpt lat="44.14251" lon="6.76142">
        <ele>1042.3</ele>
        <time>2022-06-12T05:45:47Z</time>
      </trkpt>
      <trkpt lat="44.14255" lon="6.76139">
        <ele>1042</ele>
        <time>2022-06-12T05:45:48Z</time>
      </trkpt>
      <trkpt lat="44.1426" lon="6.76136">
        <ele>1042.1</ele>
        <time>2022-06-12T05:45:49Z</time>
      </trkpt>
      <trkpt lat="44.14264" lon="6.76134">
        <ele>1042.3</ele>
        <time>2022-06-12T05:45:50Z</time>
      </trkpt>
      <trkpt lat="44.14268" lon="6.76132">
        <ele>1042.5</ele>
        <time>2022-06-12T05:45:51Z</time>
      </trkpt>
      <trkpt lat="44.14271" lon="6.7613">
        <ele>1042.9</ele>
        <time>2022-06-12T05:45:52Z</time>
      </trkpt>
      <trkpt lat="44.14275" lon="6.76129">
        <ele>1043.3</ele>
        <time>2022-06-12T05:45:53Z</time>
      </trkpt>
      <trkpt lat="44.14279" lon="6.76127">
        <ele>1043.6</ele>
        <time>2022-06-12T05:45:54Z</time>
      </trkpt>
      <trkpt lat="44.14282" lon="6.76126">
        <ele>1043.4</ele>
        <time>2022-06-12T05:45:55Z</time>
      </trkpt>
      <trkpt lat="44.14286" lon="6.76124">
        <ele>1043.1</ele>
        <time>2022-06-12T05:45:56Z</time>
      </trkpt>
      <trkpt lat="44.1429" lon="6.76123">
        <ele>1042.9</ele>
        <time>2022-06-12T05:45:57Z</time>
      </trkpt>
      <trkpt lat="44.14294" lon="6.76122">
        <ele>1042.7</ele>
        <time>2022-06-12T05:45:58Z</time>
      </trkpt>
      <trkpt lat="44.14298" lon="6.7612">
        <ele>1042.6</ele>
        <time>2022-06-12T05:45:59Z</time>
      </trkpt>
      <trkpt lat="44.14301" lon="6.76117">
        <ele>1042.8</ele>
        <time>2022-06-12T05:46:00Z</time>
      </trkpt>
      <trkpt lat="44.14305" lon="6.76114">
        <ele>1043.3</ele>
        <time>2022-06-12T05:46:01Z</time>
      </trkpt>
      <trkpt lat="44.14308" lon="6.76111">
        <ele>1043.5</ele>
        <time>2022-06-12T05:46:02Z</time>
      </trkpt>
      <trkpt lat="44.14311" lon="6.76107">
        <ele>1043.5</ele>
        <time>2022-06-12T05:46:03Z</time>
      </trkpt>
      <trkpt lat="44.14314" lon="6.76103">
        <ele>1043.5</ele>
        <time>2022-06-12T05:46:04Z</time>
      </trkpt>
      <trkpt lat="44.14317" lon="6.76098">
        <ele>1044</ele>
        <time>2022-06-12T05:46:05Z</time>
      </trkpt>
      <trkpt lat="44.14319" lon="6.76094">
        <ele>1044.7</ele>
        <time>2022-06-12T05:46:06Z</time>
      </trkpt>
      <trkpt lat="44.14321" lon="6.76089">
        <ele>1045.2</ele>
        <time>2022-06-12T05:46:07Z</time>
      </trkpt>
      <trkpt lat="44.14323" lon="6.76085">
        <ele>1045.7</ele>
        <time>2022-06-12T05:46:08Z</time>
      </trkpt>
      <trkpt lat="44.14326" lon="6.7608">
        <ele>1046</ele>
        <time>2022-06-12T05:46:09Z</time>
      </trkpt>
      <trkpt lat="44.14328" lon="6.76076">
        <ele>1046.3</ele>
        <time>2022-06-12T05:46:10Z</time>
      </trkpt>
      <trkpt lat="44.14331" lon="6.76072">
        <ele>1046.8</ele>
        <time>2022-06-12T05:46:11Z</time>
      </trkpt>
      <trkpt lat="44.14334" lon="6.76068">
        <ele>1047.3</ele>
        <time>2022-06-12T05:46:12Z</time>
      </trkpt>
      <trkpt lat="44.14337" lon="6.76065">
        <ele>1047.5</ele>
        <time>2022-06-12T05:46:13Z</time>
      </trkpt>
      <trkpt lat="44.1434" lon="6.76061">
        <ele>1047.8</ele>
        <time>2022-06-12T05:46:14Z</time>
      </trkpt>
      <trkpt lat="44.14343" lon="6.76058">
        <ele>1048.1</ele>
        <time>2022-06-12T05:46:15Z</time>
      </trkpt>
      <trkpt lat="44.14346" lon="6.76054">
        <ele>1048.4</ele>
        <time>2022-06-12T05:46:16Z</time>
      </trkpt>
      <trkpt lat="44.14349" lon="6.76051">
        <ele>1048.6</ele>
        <time>2022-06-12T05:46:17Z</time>
      </trkpt>
      <trkpt lat="44.14352" lon="6.76048">
        <ele>1048.9</ele>
        <time>2022-06-12T05:46:18Z</time>
      </trkpt>
      <trkpt lat="44.14355" lon="6.76044">
        <ele>1049.3</ele>
        <time>2022-06-12T05:46:19Z</time>
      </trkpt>
      <trkpt lat="44.14359" lon="6.76041">
        <ele>1049.7</ele>
        <time>2022-06-12T05:46:20Z</time>
      </trkpt>
      <trkpt lat="44.14362" lon="6.76039">
        <ele>1049.8</ele>
        <time>2022-06-12T05:46:21Z</time>
      </trkpt>
      <trkpt lat="44.14365" lon="6.76036">
        <ele>1050.2</ele>
        <time>2022-06-12T05:46:22Z</time>
      </trkpt>
      <trkpt lat="44.14368" lon="6.76032">
        <ele>1050.6</ele>
        <time>2022-06-12T05:46:23Z</time>
      </trkpt>
      <trkpt lat="44.14371" lon="6.7603">
        <ele>1050.7</ele>
        <time>2022-06-12T05:46:24Z</time>
      </trkpt>
      <trkpt lat="44.14373" lon="6.76027">
        <ele>1050.8</ele>
        <time>2022-06-12T05:46:25Z</time>
      </trkpt>
      <trkpt lat="44.14376" lon="6.76025">
        <ele>1050.7</ele>
        <time>2022-06-12T05:46:26Z</time>
      </trkpt>
      <trkpt lat="44.14378" lon="6.76022">
        <ele>1050.9</ele>
        <time>2022-06-12T05:46:27Z</time>
      </trkpt>
      <trkpt lat="44.14381" lon="6.7602">
        <ele>1051.2</ele>
        <time>2022-06-12T05:46:28Z</time>
      </trkpt>
      <trkpt lat="44.14384" lon="6.76017">
        <ele>1051.2</ele>
        <time>2022-06-12T05:46:29Z</time>
      </trkpt>
      <trkpt lat="44.14387" lon="6.76014">
        <ele>1051.4</ele>
        <time>2022-06-12T05:46:30Z</time>
      </trkpt>
      <trkpt lat="44.14389" lon="6.76012">
        <ele>1051.5</ele>
        <time>2022-06-12T05:46:31Z</time>
      </trkpt>
      <trkpt lat="44.14392" lon="6.7601">
        <ele>1051.3</ele>
        <time>2022-06-12T05:46:32Z</time>
      </trkpt>
      <trkpt lat="44.14395" lon="6.76008">
        <ele>1051.2</ele>
        <time>2022-06-12T05:46:33Z</time>
      </trkpt>
      <trkpt lat="44.14397" lon="6.76006">
        <ele>1051.2</ele>
        <time>2022-06-12T05:46:34Z</time>
      </trkpt>
      <trkpt lat="44.14399" lon="6.76004">
        <ele>1051.3</ele>
        <time>2022-06-12T05:46:35Z</time>
      </trkpt>
      <trkpt lat="44.14401" lon="6.76001">
        <ele>1051.3</ele>
        <time>2022-06-12T05:46:36Z</time>
      </trkpt>
      <trkpt lat="44.14404" lon="6.75998">
        <ele>1051.6</ele>
        <time>2022-06-12T05:46:37Z</time>
      </trkpt>
      <trkpt lat="44.14407" lon="6.75994">
        <ele>1051.8</ele>
        <time>2022-06-12T05:46:38Z</time>
      </trkpt>
      <trkpt lat="44.1441" lon="6.75991">
        <ele>1052.2</ele>
        <time>2022-06-12T05:46:39Z</time>
      </trkpt>
      <trkpt lat="44.14413" lon="6.75988">
        <ele>1052.7</ele>
        <time>2022-06-12T05:46:40Z</time>
      </trkpt>
      <trkpt lat="44.14416" lon="6.75984">
        <ele>1053.2</ele>
        <time>2022-06-12T05:46:41Z</time>
      </trkpt>
      <trkpt lat="44.14419" lon="6.75981">
        <ele>1053.6</ele>
        <time>2022-06-12T05:46:42Z</time>
      </trkpt>
      <trkpt lat="44.14422" lon="6.75977">
        <ele>1053.5</ele>
        <time>2022-06-12T05:46:43Z</time>
      </trkpt>
      <trkpt lat="44.14425" lon="6.75974">
        <ele>1053.3</ele>
        <time>2022-06-12T05:46:44Z</time>
      </trkpt>
      <trkpt lat="44.14428" lon="6.75971">
        <ele>1052.8</ele>
        <time>2022-06-12T05:46:45Z</time>
      </trkpt>
      <trkpt lat="44.14431" lon="6.75968">
        <ele>1052.3</ele>
        <time>2022-06-12T05:46:46Z</time>
      </trkpt>
      <trkpt lat="44.14434" lon="6.75965">
        <ele>1052.4</ele>
        <time>2022-06-12T05:46:47Z</time>
      </trkpt>
      <trkpt lat="44.14436" lon="6.7596">
        <ele>1053</ele>
        <time>2022-06-12T05:46:48Z</time>
      </trkpt>
      <trkpt lat="44.14439" lon="6.75955">
        <ele>1053.3</ele>
        <time>2022-06-12T05:46:49Z</time>
      </trkpt>
      <trkpt lat="44.14442" lon="6.75951">
        <ele>1053.9</ele>
        <time>2022-06-12T05:46:50Z</time>
      </trkpt>
      <trkpt lat="44.14444" lon="6.75947">
        <ele>1054</ele>
        <time>2022-06-12T05:46:51Z</time>
      </trkpt>
      <trkpt lat="44.14447" lon="6.75944">
        <ele>1054.2</ele>
        <time>2022-06-12T05:46:52Z</time>
      </trkpt>
      <trkpt lat="44.14449" lon="6.75941">
        <ele>1053.9</ele>
        <time>2022-06-12T05:46:53Z</time>
      </trkpt>
      <trkpt lat="44.14452" lon="6.75937">
        <ele>1054</ele>
        <time>2022-06-12T05:46:54Z</time>
      </trkpt>
      <trkpt lat="44.14454" lon="6.75933">
        <ele>1054.1</ele>
        <time>2022-06-12T05:46:55Z</time>
      </trkpt>
      <trkpt lat="44.14456" lon="6.7593">
        <ele>1054</ele>
        <time>2022-06-12T05:46:56Z</time>
      </trkpt>
      <trkpt lat="44.1446" lon="6.75926">
        <ele>1053.4</ele>
        <time>2022-06-12T05:46:57Z</time>
      </trkpt>
      <trkpt lat="44.14462" lon="6.75921">
        <ele>1053.4</ele>
        <time>2022-06-12T05:46:58Z</time>
      </trkpt>
      <trkpt lat="44.14464" lon="6.75916">
        <ele>1053.8</ele>
        <time>2022-06-12T05:46:59Z</time>
      </trkpt>
      <trkpt lat="44.14467" lon="6.75912">
        <ele>1053.6</ele>
        <time>2022-06-12T05:47:00Z</time>
      </trkpt>
      <trkpt lat="44.14469" lon="6.75908">
        <ele>1053.6</ele>
        <time>2022-06-12T05:47:01Z</time>
      </trkpt>
      <trkpt lat="44.14472" lon="6.75904">
        <ele>1053.8</ele>
        <time>2022-06-12T05:47:02Z</time>
      </trkpt>
      <trkpt lat="44.14475" lon="6.759">
        <ele>1054</ele>
        <time>2022-06-12T05:47:03Z</time>
      </trkpt>
      <trkpt lat="44.14477" lon="6.75896">
        <ele>1054.4</ele>
        <time>2022-06-12T05:47:04Z</time>
      </trkpt>
      <trkpt lat="44.14479" lon="6.75892">
        <ele>1054.7</ele>
        <time>2022-06-12T05:47:05Z</time>
      </trkpt>
      <trkpt lat="44.14482" lon="6.75888">
        <ele>1054.7</ele>
        <time>2022-06-12T05:47:06Z</time>
      </trkpt>
      <trkpt lat="44.14484" lon="6.75885">
        <ele>1054.6</ele>
        <time>2022-06-12T05:47:07Z</time>
      </trkpt>
      <trkpt lat="44.14487" lon="6.75881">
        <ele>1054.5</ele>
        <time>2022-06-12T05:47:08Z</time>
      </trkpt>
      <trkpt lat="44.14489" lon="6.75878">
        <ele>1054.6</ele>
        <time>2022-06-12T05:47:09Z</time>
      </trkpt>
      <trkpt lat="44.14491" lon="6.75874">
        <ele>1054.8</ele>
        <time>2022-06-12T05:47:10Z</time>
      </trkpt>
      <trkpt lat="44.14493" lon="6.7587">
        <ele>1054.8</ele>
        <time>2022-06-12T05:47:11Z</time>
      </trkpt>
      <trkpt lat="44.14496" lon="6.75866">
        <ele>1054.9</ele>
        <time>2022-06-12T05:47:12Z</time>
      </trkpt>
      <trkpt lat="44.14498" lon="6.75863">
        <ele>1055.2</ele>
        <time>2022-06-12T05:47:13Z</time>
      </trkpt>
      <trkpt lat="44.14501" lon="6.75859">
        <ele>1055</ele>
        <time>2022-06-12T05:47:14Z</time>
      </trkpt>
      <trkpt lat="44.14503" lon="6.75855">
        <ele>1054.6</ele>
        <time>2022-06-12T05:47:15Z</time>
      </trkpt>
      <trkpt lat="44.14505" lon="6.75851">
        <ele>1054.5</ele>
        <time>2022-06-12T05:47:16Z</time>
      </trkpt>
      <trkpt lat="44.14507" lon="6.75847">
        <ele>1054.4</ele>
        <time>2022-06-12T05:47:17Z</time>
      </trkpt>
      <trkpt lat="44.14508" lon="6.75843">
        <ele>1054.6</ele>
        <time>2022-06-12T05:47:18Z</time>
      </trkpt>
      <trkpt lat="44.1451" lon="6.75839">
        <ele>1054.5</ele>
        <time>2022-06-12T05:47:19Z</time>
      </trkpt>
      <trkpt lat="44.14512" lon="6.75834">
        <ele>1054.5</ele>
        <time>2022-06-12T05:47:20Z</time>
      </trkpt>
      <trkpt lat="44.14514" lon="6.7583">
        <ele>1054.5</ele>
        <time>2022-06-12T05:47:21Z</time>
      </trkpt>
      <trkpt lat="44.14516" lon="6.75827">
        <ele>1054.5</ele>
        <time>2022-06-12T05:47:22Z</time>
      </trkpt>
      <trkpt lat="44.14518" lon="6.75823">
        <ele>1054.7</ele>
        <time>2022-06-12T05:47:23Z</time>
      </trkpt>
      <trkpt lat="44.1452" lon="6.7582">
        <ele>1054.6</ele>
        <time>2022-06-12T05:47:24Z</time>
      </trkpt>
      <trkpt lat="44.14522" lon="6.75816">
        <ele>1054.8</ele>
        <time>2022-06-12T05:47:25Z</time>
      </trkpt>
      <trkpt lat="44.14525" lon="6.75813">
        <ele>1054.9</ele>
        <time>2022-06-12T05:47:26Z</time>
      </trkpt>
      <trkpt lat="44.14527" lon="6.7581">
        <ele>1055</ele>
        <time>2022-06-12T05:47:27Z</time>
      </trkpt>
      <trkpt lat="44.1453" lon="6.75807">
        <ele>1055.3</ele>
        <time>2022-06-12T05:47:28Z</time>
      </trkpt>
      <trkpt lat="44.14532" lon="6.75805">
        <ele>1055.4</ele>
        <time>2022-06-12T05:47:29Z</time>
      </trkpt>
      <trkpt lat="44.14535" lon="6.75803">
        <ele>1055.4</ele>
        <time>2022-06-12T05:47:30Z</time>
      </trkpt>
      <trkpt lat="44.14538" lon="6.75801">
        <ele>1055.4</ele>
        <time>2022-06-12T05:47:31Z</time>
      </trkpt>
      <trkpt lat="44.14541" lon="6.75799">
        <ele>1055.3</ele>
        <time>2022-06-12T05:47:32Z</time>
      </trkpt>
      <trkpt lat="44.14543" lon="6.75798">
        <ele>1055.3</ele>
        <time>2022-06-12T05:47:33Z</time>
      </trkpt>
      <trkpt lat="44.14546" lon="6.75797">
        <ele>1055.2</ele>
        <time>2022-06-12T05:47:34Z</time>
      </trkpt>
      <trkpt lat="44.14548" lon="6.75795">
        <ele>1055.2</ele>
        <time>2022-06-12T05:47:35Z</time>
      </trkpt>
      <trkpt lat="44.14551" lon="6.75793">
        <ele>1055.4</ele>
        <time>2022-06-12T05:47:36Z</time>
      </trkpt>
      <trkpt lat="44.14555" lon="6.75791">
        <ele>1055.4</ele>
        <time>2022-06-12T05:47:37Z</time>
      </trkpt>
      <trkpt lat="44.14558" lon="6.75789">
        <ele>1055.7</ele>
        <time>2022-06-12T05:47:38Z</time>
      </trkpt>
      <trkpt lat="44.1456" lon="6.75786">
        <ele>1056.1</ele>
        <time>2022-06-12T05:47:39Z</time>
      </trkpt>
      <trkpt lat="44.14563" lon="6.75784">
        <ele>1056.3</ele>
        <time>2022-06-12T05:47:40Z</time>
      </trkpt>
      <trkpt lat="44.14566" lon="6.75783">
        <ele>1056.5</ele>
        <time>2022-06-12T05:47:41Z</time>
      </trkpt>
      <trkpt lat="44.14568" lon="6.75781">
        <ele>1056.7</ele>
        <time>2022-06-12T05:47:42Z</time>
      </trkpt>
      <trkpt lat="44.14571" lon="6.7578">
        <ele>1056.8</ele>
        <time>2022-06-12T05:47:43Z</time>
      </trkpt>
      <trkpt lat="44.14574" lon="6.75779">
        <ele>1056.8</ele>
        <time>2022-06-12T05:47:44Z</time>
      </trkpt>
      <trkpt lat="44.14577" lon="6.75777">
        <ele>1057.1</ele>
        <time>2022-06-12T05:47:45Z</time>
      </trkpt>
      <trkpt lat="44.1458" lon="6.75775">
        <ele>1057.3</ele>
        <time>2022-06-12T05:47:46Z</time>
      </trkpt>
      <trkpt lat="44.14582" lon="6.75773">
        <ele>1057.6</ele>
        <time>2022-06-12T05:47:47Z</time>
      </trkpt>
      <trkpt lat="44.14587" lon="6.75772">
        <ele>1057.6</ele>
        <time>2022-06-12T05:47:48Z</time>
      </trkpt>
      <trkpt lat="44.1459" lon="6.7577">
        <ele>1058</ele>
        <time>2022-06-12T05:47:49Z</time>
      </trkpt>
      <trkpt lat="44.14593" lon="6.75768">
        <ele>1058.4</ele>
        <time>2022-06-12T05:47:50Z</time>
      </trkpt>
      <trkpt lat="44.14598" lon="6.75767">
        <ele>1058.2</ele>
        <time>2022-06-12T05:47:51Z</time>
      </trkpt>
      <trkpt lat="44.14602" lon="6.75766">
        <ele>1058.3</ele>
        <time>2022-06-12T05:47:52Z</time>
      </trkpt>
      <trkpt lat="44.14606" lon="6.75765">
        <ele>1058.2</ele>
        <time>2022-06-12T05:47:53Z</time>
      </trkpt>
      <trkpt lat="44.1461" lon="6.75764">
        <ele>1058.2</ele>
        <time>2022-06-12T05:47:54Z</time>
      </trkpt>
      <trkpt lat="44.14614" lon="6.75762">
        <ele>1058.3</ele>
        <time>2022-06-12T05:47:55Z</time>
      </trkpt>
      <trkpt lat="44.14618" lon="6.7576">
        <ele>1058.6</ele>
        <time>2022-06-12T05:47:56Z</time>
      </trkpt>
      <trkpt lat="44.14621" lon="6.75759">
        <ele>1058.9</ele>
        <time>2022-06-12T05:47:57Z</time>
      </trkpt>
      <trkpt lat="44.14625" lon="6.75757">
        <ele>1059.2</ele>
        <time>2022-06-12T05:47:58Z</time>
      </trkpt>
      <trkpt lat="44.14629" lon="6.75755">
        <ele>1059.4</ele>
        <time>2022-06-12T05:47:59Z</time>
      </trkpt>
      <trkpt lat="44.14633" lon="6.75754">
        <ele>1059.5</ele>
        <time>2022-06-12T05:48:00Z</time>
      </trkpt>
      <trkpt lat="44.14636" lon="6.75752">
        <ele>1059.6</ele>
        <time>2022-06-12T05:48:01Z</time>
      </trkpt>
      <trkpt lat="44.1464" lon="6.75751">
        <ele>1059.8</ele>
        <time>2022-06-12T05:48:02Z</time>
      </trkpt>
      <trkpt lat="44.14644" lon="6.75749">
        <ele>1060</ele>
        <time>2022-06-12T05:48:03Z</time>
      </trkpt>
      <trkpt lat="44.14647" lon="6.75748">
        <ele>1060.2</ele>
        <time>2022-06-12T05:48:04Z</time>
      </trkpt>
      <trkpt lat="44.14651" lon="6.75746">
        <ele>1060.4</ele>
        <time>2022-06-12T05:48:05Z</time>
      </trkpt>
      <trkpt lat="44.14654" lon="6.75745">
        <ele>1060.5</ele>
        <time>2022-06-12T05:48:06Z</time>
      </trkpt>
      <trkpt lat="44.14658" lon="6.75744">
        <ele>1060.7</ele>
        <time>2022-06-12T05:48:07Z</time>
      </trkpt>
      <trkpt lat="44.14661" lon="6.75743">
        <ele>1060.8</ele>
        <time>2022-06-12T05:48:08Z</time>
      </trkpt>
      <trkpt lat="44.14665" lon="6.75741">
        <ele>1060.9</ele>
        <time>2022-06-12T05:48:09Z</time>
      </trkpt>
      <trkpt lat="44.14668" lon="6.75741">
        <ele>1061.1</ele>
        <time>2022-06-12T05:48:10Z</time>
      </trkpt>
      <trkpt lat="44.14671" lon="6.7574">
        <ele>1061.2</ele>
        <time>2022-06-12T05:48:11Z</time>
      </trkpt>
      <trkpt lat="44.14674" lon="6.75738">
        <ele>1061.5</ele>
        <time>2022-06-12T05:48:12Z</time>
      </trkpt>
      <trkpt lat="44.14678" lon="6.75737">
        <ele>1061.8</ele>
        <time>2022-06-12T05:48:13Z</time>
      </trkpt>
      <trkpt lat="44.14681" lon="6.75735">
        <ele>1062.2</ele>
        <time>2022-06-12T05:48:14Z</time>
      </trkpt>
      <trkpt lat="44.14685" lon="6.75734">
        <ele>1062.5</ele>
        <time>2022-06-12T05:48:15Z</time>
      </trkpt>
      <trkpt lat="44.14688" lon="6.75733">
        <ele>1062.8</ele>
        <time>2022-06-12T05:48:16Z</time>
      </trkpt>
      <trkpt lat="44.14692" lon="6.75731">
        <ele>1063.1</ele>
        <time>2022-06-12T05:48:17Z</time>
      </trkpt>
      <trkpt lat="44.14695" lon="6.7573">
        <ele>1063.4</ele>
        <time>2022-06-12T05:48:18Z</time>
      </trkpt>
      <trkpt lat="44.14698" lon="6.75729">
        <ele>1063.6</ele>
        <time>2022-06-12T05:48:19Z</time>
      </trkpt>
      <trkpt lat="44.14702" lon="6.75728">
        <ele>1063.8</ele>
        <time>2022-06-12T05:48:20Z</time>
      </trkpt>
      <trkpt lat="44.14706" lon="6.75727">
        <ele>1064.1</ele>
        <time>2022-06-12T05:48:21Z</time>
      </trkpt>
      <trkpt lat="44.1471" lon="6.75726">
        <ele>1064.2</ele>
        <time>2022-06-12T05:48:22Z</time>
      </trkpt>
      <trkpt lat="44.14713" lon="6.75726">
        <ele>1064.4</ele>
        <time>2022-06-12T05:48:23Z</time>
      </trkpt>
      <trkpt lat="44.14717" lon="6.75726">
        <ele>1064.3</ele>
        <time>2022-06-12T05:48:24Z</time>
      </trkpt>
      <trkpt lat="44.1472" lon="6.75726">
        <ele>1064.3</ele>
        <time>2022-06-12T05:48:25Z</time>
      </trkpt>
      <trkpt lat="44.14724" lon="6.75727">
        <ele>1064.2</ele>
        <time>2022-06-12T05:48:26Z</time>
      </trkpt>
      <trkpt lat="44.14727" lon="6.75728">
        <ele>1064.3</ele>
        <time>2022-06-12T05:48:27Z</time>
      </trkpt>
      <trkpt lat="44.14731" lon="6.75729">
        <ele>1064.4</ele>
        <time>2022-06-12T05:48:28Z</time>
      </trkpt>
      <trkpt lat="44.14734" lon="6.7573">
        <ele>1064.5</ele>
        <time>2022-06-12T05:48:29Z</time>
      </trkpt>
      <trkpt lat="44.14738" lon="6.75731">
        <ele>1064.6</ele>
        <time>2022-06-12T05:48:30Z</time>
      </trkpt>
      <trkpt lat="44.14741" lon="6.75732">
        <ele>1064.7</ele>
        <time>2022-06-12T05:48:31Z</time>
      </trkpt>
      <trkpt lat="44.14744" lon="6.75733">
        <ele>1064.6</ele>
        <time>2022-06-12T05:48:32Z</time>
      </trkpt>
      <trkpt lat="44.14748" lon="6.75734">
        <ele>1064.7</ele>
        <time>2022-06-12T05:48:33Z</time>
      </trkpt>
      <trkpt lat="44.14751" lon="6.75735">
        <ele>1064.8</ele>
        <time>2022-06-12T05:48:34Z</time>
      </trkpt>
      <trkpt lat="44.14754" lon="6.75736">
        <ele>1064.8</ele>
        <time>2022-06-12T05:48:35Z</time>
      </trkpt>
      <trkpt lat="44.14758" lon="6.75736">
        <ele>1064.8</ele>
        <time>2022-06-12T05:48:36Z</time>
      </trkpt>
      <trkpt lat="44.14761" lon="6.75736">
        <ele>1064.9</ele>
        <time>2022-06-12T05:48:37Z</time>
      </trkpt>
      <trkpt lat="44.14765" lon="6.75737">
        <ele>1065</ele>
        <time>2022-06-12T05:48:38Z</time>
      </trkpt>
      <trkpt lat="44.14768" lon="6.75737">
        <ele>1065.1</ele>
        <time>2022-06-12T05:48:39Z</time>
      </trkpt>
      <trkpt lat="44.14772" lon="6.75737">
        <ele>1065.2</ele>
        <time>2022-06-12T05:48:40Z</time>
      </trkpt>
      <trkpt lat="44.14776" lon="6.75737">
        <ele>1065.3</ele>
        <time>2022-06-12T05:48:41Z</time>
      </trkpt>
      <trkpt lat="44.14779" lon="6.75736">
        <ele>1065.5</ele>
        <time>2022-06-12T05:48:42Z</time>
      </trkpt>
      <trkpt lat="44.14783" lon="6.75736">
        <ele>1065.6</ele>
        <time>2022-06-12T05:48:43Z</time>
      </trkpt>
      <trkpt lat="44.14786" lon="6.75735">
        <ele>1065.7</ele>
        <time>2022-06-12T05:48:44Z</time>
      </trkpt>
      <trkpt lat="44.1479" lon="6.75734">
        <ele>1065.9</ele>
        <time>2022-06-12T05:48:45Z</time>
      </trkpt>
      <trkpt lat="44.14794" lon="6.75734">
        <ele>1066</ele>
        <time>2022-06-12T05:48:46Z</time>
      </trkpt>
      <trkpt lat="44.14797" lon="6.75733">
        <ele>1066.2</ele>
        <time>2022-06-12T05:48:47Z</time>
      </trkpt>
      <trkpt lat="44.148" lon="6.75732">
        <ele>1066.3</ele>
        <time>2022-06-12T05:48:48Z</time>
      </trkpt>
      <trkpt lat="44.14804" lon="6.7573">
        <ele>1066.5</ele>
        <time>2022-06-12T05:48:49Z</time>
      </trkpt>
      <trkpt lat="44.14808" lon="6.75729">
        <ele>1066.7</ele>
        <time>2022-06-12T05:48:50Z</time>
      </trkpt>
      <trkpt lat="44.14811" lon="6.75728">
        <ele>1066.7</ele>
        <time>2022-06-12T05:48:51Z</time>
      </trkpt>
      <trkpt lat="44.14815" lon="6.75727">
        <ele>1066.9</ele>
        <time>2022-06-12T05:48:52Z</time>
      </trkpt>
      <trkpt lat="44.14818" lon="6.75726">
        <ele>1067</ele>
        <time>2022-06-12T05:48:53Z</time>
      </trkpt>
      <trkpt lat="44.14821" lon="6.75724">
        <ele>1067.1</ele>
        <time>2022-06-12T05:48:54Z</time>
      </trkpt>
      <trkpt lat="44.14825" lon="6.75723">
        <ele>1067.2</ele>
        <time>2022-06-12T05:48:55Z</time>
      </trkpt>
      <trkpt lat="44.14828" lon="6.75722">
        <ele>1067.3</ele>
        <time>2022-06-12T05:48:56Z</time>
      </trkpt>
      <trkpt lat="44.14832" lon="6.7572">
        <ele>1067.4</ele>
        <time>2022-06-12T05:48:57Z</time>
      </trkpt>
      <trkpt lat="44.14835" lon="6.75719">
        <ele>1067.5</ele>
        <time>2022-06-12T05:48:58Z</time>
      </trkpt>
      <trkpt lat="44.14838" lon="6.75718">
        <ele>1067.6</ele>
        <time>2022-06-12T05:48:59Z</time>
      </trkpt>
      <trkpt lat="44.14842" lon="6.75717">
        <ele>1067.6</ele>
        <time>2022-06-12T05:49:00Z</time>
      </trkpt>
      <trkpt lat="44.14845" lon="6.75716">
        <ele>1067.8</ele>
        <time>2022-06-12T05:49:01Z</time>
      </trkpt>
      <trkpt lat="44.14849" lon="6.75714">
        <ele>1068.1</ele>
        <time>2022-06-12T05:49:02Z</time>
      </trkpt>
      <trkpt lat="44.14852" lon="6.75713">
        <ele>1068.3</ele>
        <time>2022-06-12T05:49:03Z</time>
      </trkpt>
      <trkpt lat="44.14855" lon="6.75711">
        <ele>1068.6</ele>
        <time>2022-06-12T05:49:04Z</time>
      </trkpt>
      <trkpt lat="44.14858" lon="6.75709">
        <ele>1068.9</ele>
        <time>2022-06-12T05:49:05Z</time>
      </trkpt>
      <trkpt lat="44.14861" lon="6.75708">
        <ele>1069.2</ele>
        <time>2022-06-12T05:49:06Z</time>
      </trkpt>
      <trkpt lat="44.14864" lon="6.75706">
        <ele>1069.3</ele>
        <time>2022-06-12T05:49:07Z</time>
      </trkpt>
      <trkpt lat="44.14867" lon="6.75705">
        <ele>1069.5</ele>
        <time>2022-06-12T05:49:08Z</time>
      </trkpt>
      <trkpt lat="44.1487" lon="6.75703">
        <ele>1069.6</ele>
        <time>2022-06-12T05:49:09Z</time>
      </trkpt>
      <trkpt lat="44.14873" lon="6.75701">
        <ele>1069.7</ele>
        <time>2022-06-12T05:49:10Z</time>
      </trkpt>
      <trkpt lat="44.14877" lon="6.757">
        <ele>1069.9</ele>
        <time>2022-06-12T05:49:11Z</time>
      </trkpt>
      <trkpt lat="44.1488" lon="6.75698">
        <ele>1070</ele>
        <time>2022-06-12T05:49:12Z</time>
      </trkpt>
      <trkpt lat="44.14883" lon="6.75696">
        <ele>1070.2</ele>
        <time>2022-06-12T05:49:13Z</time>
      </trkpt>
      <trkpt lat="44.14886" lon="6.75694">
        <ele>1070.3</ele>
        <time>2022-06-12T05:49:14Z</time>
      </trkpt>
      <trkpt lat="44.14889" lon="6.75693">
        <ele>1070.4</ele>
        <time>2022-06-12T05:49:15Z</time>
      </trkpt>
      <trkpt lat="44.14892" lon="6.75691">
        <ele>1070.5</ele>
        <time>2022-06-12T05:49:16Z</time>
      </trkpt>
      <trkpt lat="44.14896" lon="6.75689">
        <ele>1070.7</ele>
        <time>2022-06-12T05:49:17Z</time>
      </trkpt>
      <trkpt lat="44.14899" lon="6.75687">
        <ele>1070.8</ele>
        <time>2022-06-12T05:49:18Z</time>
      </trkpt>
      <trkpt lat="44.14902" lon="6.75686">
        <ele>1070.9</ele>
        <time>2022-06-12T05:49:19Z</time>
      </trkpt>
      <trkpt lat="44.14905" lon="6.75684">
        <ele>1071</ele>
        <time>2022-06-12T05:49:20Z</time>
      </trkpt>
      <trkpt lat="44.14908" lon="6.75682">
        <ele>1071.1</ele>
        <time>2022-06-12T05:49:21Z</time>
      </trkpt>
      <trkpt lat="44.14911" lon="6.7568">
        <ele>1071.1</ele>
        <time>2022-06-12T05:49:22Z</time>
      </trkpt>
      <trkpt lat="44.14914" lon="6.75678">
        <ele>1071.3</ele>
        <time>2022-06-12T05:49:23Z</time>
      </trkpt>
      <trkpt lat="44.14917" lon="6.75676">
        <ele>1071.3</ele>
        <time>2022-06-12T05:49:24Z</time>
      </trkpt>
      <trkpt lat="44.1492" lon="6.75674">
        <ele>1071.4</ele>
        <time>2022-06-12T05:49:25Z</time>
      </trkpt>
      <trkpt lat="44.14923" lon="6.75672">
        <ele>1071.5</ele>
        <time>2022-06-12T05:49:26Z</time>
      </trkpt>
      <trkpt lat="44.14927" lon="6.7567">
        <ele>1071.6</ele>
        <time>2022-06-12T05:49:27Z</time>
      </trkpt>
      <trkpt lat="44.1493" lon="6.75669">
        <ele>1071.7</ele>
        <time>2022-06-12T05:49:28Z</time>
      </trkpt>
      <trkpt lat="44.14933" lon="6.75667">
        <ele>1071.7</ele>
        <time>2022-06-12T05:49:29Z</time>
      </trkpt>
      <trkpt lat="44.14937" lon="6.75666">
        <ele>1071.8</ele>
        <time>2022-06-12T05:49:30Z</time>
      </trkpt>
      <trkpt lat="44.1494" lon="6.75664">
        <ele>1072</ele>
        <time>2022-06-12T05:49:31Z</time>
      </trkpt>
      <trkpt lat="44.14943" lon="6.75662">
        <ele>1072.1</ele>
        <time>2022-06-12T05:49:32Z</time>
      </trkpt>
      <trkpt lat="44.14947" lon="6.75661">
        <ele>1072.2</ele>
        <time>2022-06-12T05:49:33Z</time>
      </trkpt>
      <trkpt lat="44.1495" lon="6.75659">
        <ele>1072.3</ele>
        <time>2022-06-12T05:49:34Z</time>
      </trkpt>
      <trkpt lat="44.14954" lon="6.75658">
        <ele>1072.4</ele>
        <time>2022-06-12T05:49:35Z</time>
      </trkpt>
      <trkpt lat="44.14957" lon="6.75657">
        <ele>1072.5</ele>
        <time>2022-06-12T05:49:36Z</time>
      </trkpt>
      <trkpt lat="44.1496" lon="6.75655">
        <ele>1072.6</ele>
        <time>2022-06-12T05:49:37Z</time>
      </trkpt>
      <trkpt lat="44.14964" lon="6.75654">
        <ele>1072.6</ele>
        <time>2022-06-12T05:49:38Z</time>
      </trkpt>
      <trkpt lat="44.14967" lon="6.75654">
        <ele>1072.6</ele>
        <time>2022-06-12T05:49:39Z</time>
      </trkpt>
      <trkpt lat="44.1497" lon="6.75653">
        <ele>1072.7</ele>
        <time>2022-06-12T05:49:40Z</time>
      </trkpt>
      <trkpt lat="44.14974" lon="6.75652">
        <ele>1072.8</ele>
        <time>2022-06-12T05:49:41Z</time>
      </trkpt>
      <trkpt lat="44.14977" lon="6.75651">
        <ele>1073</ele>
        <time>2022-06-12T05:49:42Z</time>
      </trkpt>
      <trkpt lat="44.14981" lon="6.7565">
        <ele>1073.3</ele>
        <time>2022-06-12T05:49:43Z</time>
      </trkpt>
      <trkpt lat="44.14984" lon="6.75649">
        <ele>1073.5</ele>
        <time>2022-06-12T05:49:44Z</time>
      </trkpt>
      <trkpt lat="44.14988" lon="6.75648">
        <ele>1073.7</ele>
        <time>2022-06-12T05:49:45Z</time>
      </trkpt>
      <trkpt lat="44.14991" lon="6.75647">
        <ele>1073.9</ele>
        <time>2022-06-12T05:49:46Z</time>
      </trkpt>
      <trkpt lat="44.14995" lon="6.75647">
        <ele>1074.1</ele>
        <time>2022-06-12T05:49:47Z</time>
      </trkpt>
      <trkpt lat="44.14998" lon="6.75646">
        <ele>1074.2</ele>
        <time>2022-06-12T05:49:48Z</time>
      </trkpt>
      <trkpt lat="44.15001" lon="6.75645">
        <ele>1074.4</ele>
        <time>2022-06-12T05:49:49Z</time>
      </trkpt>
      <trkpt lat="44.15005" lon="6.75645">
        <ele>1074.8</ele>
        <time>2022-06-12T05:49:50Z</time>
      </trkpt>
      <trkpt lat="44.15008" lon="6.75644">
        <ele>1075.1</ele>
        <time>2022-06-12T05:49:51Z</time>
      </trkpt>
      <trkpt lat="44.15012" lon="6.75643">
        <ele>1075.4</ele>
        <time>2022-06-12T05:49:52Z</time>
      </trkpt>
      <trkpt lat="44.15015" lon="6.75642">
        <ele>1075.8</ele>
        <time>2022-06-12T05:49:53Z</time>
      </trkpt>
      <trkpt lat="44.15019" lon="6.75642">
        <ele>1076.1</ele>
        <time>2022-06-12T05:49:54Z</time>
      </trkpt>
      <trkpt lat="44.15022" lon="6.75641">
        <ele>1076.3</ele>
        <time>2022-06-12T05:49:55Z</time>
      </trkpt>
      <trkpt lat="44.15026" lon="6.75641">
        <ele>1076.6</ele>
        <time>2022-06-12T05:49:56Z</time>
      </trkpt>
      <trkpt lat="44.15029" lon="6.7564">
        <ele>1076.9</ele>
        <time>2022-06-12T05:49:57Z</time>
      </trkpt>
      <trkpt lat="44.15033" lon="6.7564">
        <ele>1077.4</ele>
        <time>2022-06-12T05:49:58Z</time>
      </trkpt>
      <trkpt lat="44.15036" lon="6.7564">
        <ele>1077.7</ele>
        <time>2022-06-12T05:49:59Z</time>
      </trkpt>
      <trkpt lat="44.1504" lon="6.75641">
        <ele>1077.9</ele>
        <time>2022-06-12T05:50:00Z</time>
      </trkpt>
      <trkpt lat="44.15043" lon="6.75643">
        <ele>1077.9</ele>
        <time>2022-06-12T05:50:01Z</time>
      </trkpt>
      <trkpt lat="44.15046" lon="6.75645">
        <ele>1077.8</ele>
        <time>2022-06-12T05:50:02Z</time>
      </trkpt>
      <trkpt lat="44.15049" lon="6.75648">
        <ele>1077.7</ele>
        <time>2022-06-12T05:50:03Z</time>
      </trkpt>
      <trkpt lat="44.15052" lon="6.7565">
        <ele>1077.6</ele>
        <time>2022-06-12T05:50:04Z</time>
      </trkpt>
      <trkpt lat="44.15055" lon="6.75653">
        <ele>1077.5</ele>
        <time>2022-06-12T05:50:05Z</time>
      </trkpt>
      <trkpt lat="44.15059" lon="6.75656">
        <ele>1077.4</ele>
        <time>2022-06-12T05:50:06Z</time>
      </trkpt>
      <trkpt lat="44.15061" lon="6.75659">
        <ele>1077.2</ele>
        <time>2022-06-12T05:50:07Z</time>
      </trkpt>
      <trkpt lat="44.15064" lon="6.75662">
        <ele>1076.9</ele>
        <time>2022-06-12T05:50:08Z</time>
      </trkpt>
      <trkpt lat="44.15068" lon="6.75664">
        <ele>1076.8</ele>
        <time>2022-06-12T05:50:09Z</time>
      </trkpt>
      <trkpt lat="44.15071" lon="6.75667">
        <ele>1076.6</ele>
        <time>2022-06-12T05:50:10Z</time>
      </trkpt>
      <trkpt lat="44.15074" lon="6.75669">
        <ele>1076.4</ele>
        <time>2022-06-12T05:50:11Z</time>
      </trkpt>
      <trkpt lat="44.15077" lon="6.75671">
        <ele>1076.4</ele>
        <time>2022-06-12T05:50:12Z</time>
      </trkpt>
      <trkpt lat="44.15081" lon="6.75673">
        <ele>1076.4</ele>
        <time>2022-06-12T05:50:13Z</time>
      </trkpt>
      <trkpt lat="44.15085" lon="6.75674">
        <ele>1076.5</ele>
        <time>2022-06-12T05:50:14Z</time>
      </trkpt>
      <trkpt lat="44.15089" lon="6.75675">
        <ele>1076.7</ele>
        <time>2022-06-12T05:50:15Z</time>
      </trkpt>
      <trkpt lat="44.15094" lon="6.75675">
        <ele>1077</ele>
        <time>2022-06-12T05:50:16Z</time>
      </trkpt>
      <trkpt lat="44.15098" lon="6.75675">
        <ele>1077.3</ele>
        <time>2022-06-12T05:50:17Z</time>
      </trkpt>
      <trkpt lat="44.15102" lon="6.75674">
        <ele>1077.7</ele>
        <time>2022-06-12T05:50:18Z</time>
      </trkpt>
      <trkpt lat="44.15106" lon="6.75674">
        <ele>1078.1</ele>
        <time>2022-06-12T05:50:19Z</time>
      </trkpt>
      <trkpt lat="44.15109" lon="6.75673">
        <ele>1078.6</ele>
        <time>2022-06-12T05:50:20Z</time>
      </trkpt>
      <trkpt lat="44.15113" lon="6.75671">
        <ele>1079.2</ele>
        <time>2022-06-12T05:50:21Z</time>
      </trkpt>
      <trkpt lat="44.15117" lon="6.75669">
        <ele>1079.5</ele>
        <time>2022-06-12T05:50:22Z</time>
      </trkpt>
      <trkpt lat="44.15121" lon="6.75668">
        <ele>1079.8</ele>
        <time>2022-06-12T05:50:23Z</time>
      </trkpt>
      <trkpt lat="44.15125" lon="6.75666">
        <ele>1080.1</ele>
        <time>2022-06-12T05:50:24Z</time>
      </trkpt>
      <trkpt lat="44.15129" lon="6.75665">
        <ele>1080.5</ele>
        <time>2022-06-12T05:50:25Z</time>
      </trkpt>
      <trkpt lat="44.15132" lon="6.75663">
        <ele>1080.8</ele>
        <time>2022-06-12T05:50:26Z</time>
      </trkpt>
      <trkpt lat="44.15136" lon="6.75662">
        <ele>1081</ele>
        <time>2022-06-12T05:50:27Z</time>
      </trkpt>
      <trkpt lat="44.1514" lon="6.75661">
        <ele>1081.3</ele>
        <time>2022-06-12T05:50:28Z</time>
      </trkpt>
      <trkpt lat="44.15144" lon="6.7566">
        <ele>1081.5</ele>
        <time>2022-06-12T05:50:29Z</time>
      </trkpt>
      <trkpt lat="44.15148" lon="6.7566">
        <ele>1081.5</ele>
        <time>2022-06-12T05:50:30Z</time>
      </trkpt>
      <trkpt lat="44.15152" lon="6.75659">
        <ele>1081.7</ele>
        <time>2022-06-12T05:50:31Z</time>
      </trkpt>
      <trkpt lat="44.15156" lon="6.75659">
        <ele>1081.7</ele>
        <time>2022-06-12T05:50:32Z</time>
      </trkpt>
      <trkpt lat="44.1516" lon="6.75659">
        <ele>1081.7</ele>
        <time>2022-06-12T05:50:33Z</time>
      </trkpt>
      <trkpt lat="44.15164" lon="6.75659">
        <ele>1081.8</ele>
        <time>2022-06-12T05:50:34Z</time>
      </trkpt>
      <trkpt lat="44.15168" lon="6.75658">
        <ele>1081.8</ele>
        <time>2022-06-12T05:50:35Z</time>
      </trkpt>
      <trkpt lat="44.15172" lon="6.75657">
        <ele>1081.8</ele>
        <time>2022-06-12T05:50:36Z</time>
      </trkpt>
      <trkpt lat="44.15176" lon="6.75656">
        <ele>1081.9</ele>
        <time>2022-06-12T05:50:37Z</time>
      </trkpt>
      <trkpt lat="44.15179" lon="6.75656">
        <ele>1081.9</ele>
        <time>2022-06-12T05:50:38Z</time>
      </trkpt>
      <trkpt lat="44.15183" lon="6.75655">
        <ele>1082</ele>
        <time>2022-06-12T05:50:39Z</time>
      </trkpt>
      <trkpt lat="44.15187" lon="6.75654">
        <ele>1082.1</ele>
        <time>2022-06-12T05:50:40Z</time>
      </trkpt>
      <trkpt lat="44.15191" lon="6.75653">
        <ele>1082.2</ele>
        <time>2022-06-12T05:50:41Z</time>
      </trkpt>
      <trkpt lat="44.15195" lon="6.75652">
        <ele>1082.2</ele>
        <time>2022-06-12T05:50:42Z</time>
      </trkpt>
      <trkpt lat="44.15198" lon="6.75651">
        <ele>1082.3</ele>
        <time>2022-06-12T05:50:43Z</time>
      </trkpt>
      <trkpt lat="44.15202" lon="6.7565">
        <ele>1082.4</ele>
        <time>2022-06-12T05:50:44Z</time>
      </trkpt>
      <trkpt lat="44.15206" lon="6.75649">
        <ele>1082.6</ele>
        <time>2022-06-12T05:50:45Z</time>
      </trkpt>
      <trkpt lat="44.15209" lon="6.75648">
        <ele>1082.8</ele>
        <time>2022-06-12T05:50:46Z</time>
      </trkpt>
      <trkpt lat="44.15213" lon="6.75648">
        <ele>1082.9</ele>
        <time>2022-06-12T05:50:47Z</time>
      </trkpt>
      <trkpt lat="44.15217" lon="6.75647">
        <ele>1083.1</ele>
        <time>2022-06-12T05:50:48Z</time>
      </trkpt>
      <trkpt lat="44.1522" lon="6.75646">
        <ele>1083.2</ele>
        <time>2022-06-12T05:50:49Z</time>
      </trkpt>
      <trkpt lat="44.15224" lon="6.75645">
        <ele>1083.4</ele>
        <time>2022-06-12T05:50:50Z</time>
      </trkpt>
      <trkpt lat="44.15227" lon="6.75644">
        <ele>1083.5</ele>
        <time>2022-06-12T05:50:51Z</time>
      </trkpt>
      <trkpt lat="44.15231" lon="6.75643">
        <ele>1083.7</ele>
        <time>2022-06-12T05:50:52Z</time>
      </trkpt>
      <trkpt lat="44.15235" lon="6.75642">
        <ele>1083.7</ele>
        <time>2022-06-12T05:50:53Z</time>
      </trkpt>
      <trkpt lat="44.15239" lon="6.75641">
        <ele>1083.8</ele>
        <time>2022-06-12T05:50:54Z</time>
      </trkpt>
      <trkpt lat="44.15243" lon="6.75641">
        <ele>1083.8</ele>
        <time>2022-06-12T05:50:55Z</time>
      </trkpt>
      <trkpt lat="44.15247" lon="6.7564">
        <ele>1083.8</ele>
        <time>2022-06-12T05:50:56Z</time>
      </trkpt>
      <trkpt lat="44.1525" lon="6.7564">
        <ele>1083.7</ele>
        <time>2022-06-12T05:50:57Z</time>
      </trkpt>
      <trkpt lat="44.15254" lon="6.7564">
        <ele>1083.8</ele>
        <time>2022-06-12T05:50:58Z</time>
      </trkpt>
      <trkpt lat="44.15258" lon="6.75639">
        <ele>1084</ele>
        <time>2022-06-12T05:50:59Z</time>
      </trkpt>
      <trkpt lat="44.15262" lon="6.75639">
        <ele>1084</ele>
        <time>2022-06-12T05:51:00Z</time>
      </trkpt>
      <trkpt lat="44.15265" lon="6.75639">
        <ele>1084.1</ele>
        <time>2022-06-12T05:51:01Z</time>
      </trkpt>
      <trkpt lat="44.15269" lon="6.75639">
        <ele>1084.1</ele>
        <time>2022-06-12T05:51:02Z</time>
      </trkpt>
      <trkpt lat="44.15273" lon="6.75639">
        <ele>1084</ele>
        <time>2022-06-12T05:51:03Z</time>
      </trkpt>
      <trkpt lat="44.15276" lon="6.75639">
        <ele>1083.9</ele>
        <time>2022-06-12T05:51:04Z</time>
      </trkpt>
      <trkpt lat="44.1528" lon="6.7564">
        <ele>1083.8</ele>
        <time>2022-06-12T05:51:05Z</time>
      </trkpt>
      <trkpt lat="44.15283" lon="6.7564">
        <ele>1083.8</ele>
        <time>2022-06-12T05:51:06Z</time>
      </trkpt>
      <trkpt lat="44.15287" lon="6.7564">
        <ele>1083.8</ele>
        <time>2022-06-12T05:51:07Z</time>
      </trkpt>
      <trkpt lat="44.1529" lon="6.75641">
        <ele>1083.7</ele>
        <time>2022-06-12T05:51:08Z</time>
      </trkpt>
      <trkpt lat="44.15294" lon="6.75641">
        <ele>1083.7</ele>
        <time>2022-06-12T05:51:09Z</time>
      </trkpt>
      <trkpt lat="44.15298" lon="6.75641">
        <ele>1083.9</ele>
        <time>2022-06-12T05:51:10Z</time>
      </trkpt>
      <trkpt lat="44.15301" lon="6.75642">
        <ele>1083.9</ele>
        <time>2022-06-12T05:51:11Z</time>
      </trkpt>
      <trkpt lat="44.15304" lon="6.75642">
        <ele>1084</ele>
        <time>2022-06-12T05:51:12Z</time>
      </trkpt>
      <trkpt lat="44.15308" lon="6.75642">
        <ele>1084.1</ele>
        <time>2022-06-12T05:51:13Z</time>
      </trkpt>
      <trkpt lat="44.15312" lon="6.75642">
        <ele>1084.6</ele>
        <time>2022-06-12T05:51:14Z</time>
      </trkpt>
      <trkpt lat="44.15316" lon="6.75642">
        <ele>1085</ele>
        <time>2022-06-12T05:51:15Z</time>
      </trkpt>
      <trkpt lat="44.1532" lon="6.75642">
        <ele>1085.5</ele>
        <time>2022-06-12T05:51:16Z</time>
      </trkpt>
      <trkpt lat="44.15324" lon="6.75642">
        <ele>1085.9</ele>
        <time>2022-06-12T05:51:17Z</time>
      </trkpt>
      <trkpt lat="44.15327" lon="6.75642">
        <ele>1086.2</ele>
        <time>2022-06-12T05:51:18Z</time>
      </trkpt>
      <trkpt lat="44.15331" lon="6.75642">
        <ele>1086.5</ele>
        <time>2022-06-12T05:51:19Z</time>
      </trkpt>
      <trkpt lat="44.15335" lon="6.75642">
        <ele>1087</ele>
        <time>2022-06-12T05:51:20Z</time>
      </trkpt>
      <trkpt lat="44.15339" lon="6.75642">
        <ele>1087.6</ele>
        <time>2022-06-12T05:51:21Z</time>
      </trkpt>
      <trkpt lat="44.15343" lon="6.75643">
        <ele>1087.9</ele>
        <time>2022-06-12T05:51:22Z</time>
      </trkpt>
      <trkpt lat="44.15346" lon="6.75643">
        <ele>1088.1</ele>
        <time>2022-06-12T05:51:23Z</time>
      </trkpt>
      <trkpt lat="44.1535" lon="6.75644">
        <ele>1088.4</ele>
        <time>2022-06-12T05:51:24Z</time>
      </trkpt>
      <trkpt lat="44.15354" lon="6.75645">
        <ele>1088.6</ele>
        <time>2022-06-12T05:51:25Z</time>
      </trkpt>
      <trkpt lat="44.15357" lon="6.75646">
        <ele>1088.7</ele>
        <time>2022-06-12T05:51:26Z</time>
      </trkpt>
      <trkpt lat="44.15361" lon="6.75647">
        <ele>1088.8</ele>
        <time>2022-06-12T05:51:27Z</time>
      </trkpt>
      <trkpt lat="44.15364" lon="6.75648">
        <ele>1088.8</ele>
        <time>2022-06-12T05:51:28Z</time>
      </trkpt>
      <trkpt lat="44.15368" lon="6.7565">
        <ele>1088.8</ele>
        <time>2022-06-12T05:51:29Z</time>
      </trkpt>
      <trkpt lat="44.15372" lon="6.75652">
        <ele>1088.7</ele>
        <time>2022-06-12T05:51:30Z</time>
      </trkpt>
      <trkpt lat="44.15375" lon="6.75653">
        <ele>1088.5</ele>
        <time>2022-06-12T05:51:31Z</time>
      </trkpt>
      <trkpt lat="44.15379" lon="6.75655">
        <ele>1088.4</ele>
        <time>2022-06-12T05:51:32Z</time>
      </trkpt>
      <trkpt lat="44.15382" lon="6.75657">
        <ele>1088.1</ele>
        <time>2022-06-12T05:51:33Z</time>
      </trkpt>
      <trkpt lat="44.15386" lon="6.75659">
        <ele>1087.9</ele>
        <time>2022-06-12T05:51:34Z</time>
      </trkpt>
      <trkpt lat="44.15389" lon="6.75661">
        <ele>1087.7</ele>
        <time>2022-06-12T05:51:35Z</time>
      </trkpt>
      <trkpt lat="44.15393" lon="6.75662">
        <ele>1087.8</ele>
        <time>2022-06-12T05:51:36Z</time>
      </trkpt>
      <trkpt lat="44.15397" lon="6.75664">
        <ele>1087.8</ele>
        <time>2022-06-12T05:51:37Z</time>
      </trkpt>
      <trkpt lat="44.15401" lon="6.75666">
        <ele>1088</ele>
        <time>2022-06-12T05:51:38Z</time>
      </trkpt>
      <trkpt lat="44.15404" lon="6.75667">
        <ele>1088.2</ele>
        <time>2022-06-12T05:51:39Z</time>
      </trkpt>
      <trkpt lat="44.15407" lon="6.75669">
        <ele>1088.2</ele>
        <time>2022-06-12T05:51:40Z</time>
      </trkpt>
      <trkpt lat="44.15411" lon="6.7567">
        <ele>1088.4</ele>
        <time>2022-06-12T05:51:41Z</time>
      </trkpt>
      <trkpt lat="44.15414" lon="6.75672">
        <ele>1088.5</ele>
        <time>2022-06-12T05:51:42Z</time>
      </trkpt>
      <trkpt lat="44.15418" lon="6.75673">
        <ele>1088.9</ele>
        <time>2022-06-12T05:51:43Z</time>
      </trkpt>
      <trkpt lat="44.15421" lon="6.75675">
        <ele>1089.1</ele>
        <time>2022-06-12T05:51:44Z</time>
      </trkpt>
      <trkpt lat="44.15425" lon="6.75677">
        <ele>1089.2</ele>
        <time>2022-06-12T05:51:45Z</time>
      </trkpt>
      <trkpt lat="44.15429" lon="6.75678">
        <ele>1089.4</ele>
        <time>2022-06-12T05:51:46Z</time>
      </trkpt>
      <trkpt lat="44.15433" lon="6.75679">
        <ele>1089.7</ele>
        <time>2022-06-12T05:51:47Z</time>
      </trkpt>
      <trkpt lat="44.15436" lon="6.75681">
        <ele>1089.9</ele>
        <time>2022-06-12T05:51:48Z</time>
      </trkpt>
      <trkpt lat="44.1544" lon="6.75682">
        <ele>1090.1</ele>
        <time>2022-06-12T05:51:49Z</time>
      </trkpt>
      <trkpt lat="44.15443" lon="6.75683">
        <ele>1090.1</ele>
        <time>2022-06-12T05:51:50Z</time>
      </trkpt>
      <trkpt lat="44.15447" lon="6.75684">
        <ele>1090.3</ele>
        <time>2022-06-12T05:51:51Z</time>
      </trkpt>
      <trkpt lat="44.1545" lon="6.75685">
        <ele>1090.7</ele>
        <time>2022-06-12T05:51:52Z</time>
      </trkpt>
      <trkpt lat="44.15454" lon="6.75687">
        <ele>1091</ele>
        <time>2022-06-12T05:51:53Z</time>
      </trkpt>
      <trkpt lat="44.15458" lon="6.75688">
        <ele>1091.1</ele>
        <time>2022-06-12T05:51:54Z</time>
      </trkpt>
      <trkpt lat="44.15461" lon="6.7569">
        <ele>1091</ele>
        <time>2022-06-12T05:51:55Z</time>
      </trkpt>
      <trkpt lat="44.15465" lon="6.75692">
        <ele>1090.8</ele>
        <time>2022-06-12T05:51:56Z</time>
      </trkpt>
      <trkpt lat="44.15468" lon="6.75693">
        <ele>1090.8</ele>
        <time>2022-06-12T05:51:57Z</time>
      </trkpt>
      <trkpt lat="44.15472" lon="6.75695">
        <ele>1090.7</ele>
        <time>2022-06-12T05:51:58Z</time>
      </trkpt>
      <trkpt lat="44.15476" lon="6.75697">
        <ele>1090.8</ele>
        <time>2022-06-12T05:51:59Z</time>
      </trkpt>
      <trkpt lat="44.15479" lon="6.75699">
        <ele>1090.7</ele>
        <time>2022-06-12T05:52:00Z</time>
      </trkpt>
      <trkpt lat="44.15482" lon="6.75701">
        <ele>1090.2</ele>
        <time>2022-06-12T05:52:01Z</time>
      </trkpt>
      <trkpt lat="44.15485" lon="6.75704">
        <ele>1089.5</ele>
        <time>2022-06-12T05:52:02Z</time>
      </trkpt>
      <trkpt lat="44.15489" lon="6.75706">
        <ele>1089</ele>
        <time>2022-06-12T05:52:03Z</time>
      </trkpt>
      <trkpt lat="44.15492" lon="6.75709">
        <ele>1088.3</ele>
        <time>2022-06-12T05:52:04Z</time>
      </trkpt>
      <trkpt lat="44.15496" lon="6.75711">
        <ele>1087.9</ele>
        <time>2022-06-12T05:52:05Z</time>
      </trkpt>
      <trkpt lat="44.15499" lon="6.75712">
        <ele>1087.5</ele>
        <time>2022-06-12T05:52:06Z</time>
      </trkpt>
      <trkpt lat="44.15502" lon="6.75714">
        <ele>1086.7</ele>
        <time>2022-06-12T05:52:07Z</time>
      </trkpt>
      <trkpt lat="44.15505" lon="6.75716">
        <ele>1085.7</ele>
        <time>2022-06-12T05:52:08Z</time>
      </trkpt>
      <trkpt lat="44.15509" lon="6.75718">
        <ele>1084.9</ele>
        <time>2022-06-12T05:52:09Z</time>
      </trkpt>
      <trkpt lat="44.15513" lon="6.75719">
        <ele>1084.3</ele>
        <time>2022-06-12T05:52:10Z</time>
      </trkpt>
      <trkpt lat="44.15516" lon="6.75719">
        <ele>1084.2</ele>
        <time>2022-06-12T05:52:11Z</time>
      </trkpt>
      <trkpt lat="44.1552" lon="6.75719">
        <ele>1084.1</ele>
        <time>2022-06-12T05:52:12Z</time>
      </trkpt>
      <trkpt lat="44.15524" lon="6.75719">
        <ele>1084.4</ele>
        <time>2022-06-12T05:52:13Z</time>
      </trkpt>
      <trkpt lat="44.15527" lon="6.75719">
        <ele>1084.7</ele>
        <time>2022-06-12T05:52:14Z</time>
      </trkpt>
      <trkpt lat="44.15531" lon="6.75718">
        <ele>1085.5</ele>
        <time>2022-06-12T05:52:15Z</time>
      </trkpt>
      <trkpt lat="44.15535" lon="6.75717">
        <ele>1086.6</ele>
        <time>2022-06-12T05:52:16Z</time>
      </trkpt>
      <trkpt lat="44.15538" lon="6.75716">
        <ele>1087.7</ele>
        <time>2022-06-12T05:52:17Z</time>
      </trkpt>
      <trkpt lat="44.15542" lon="6.75715">
        <ele>1089</ele>
        <time>2022-06-12T05:52:18Z</time>
      </trkpt>
      <trkpt lat="44.15546" lon="6.75714">
        <ele>1090.8</ele>
        <time>2022-06-12T05:52:19Z</time>
      </trkpt>
      <trkpt lat="44.15549" lon="6.75713">
        <ele>1092.1</ele>
        <time>2022-06-12T05:52:20Z</time>
      </trkpt>
      <trkpt lat="44.15552" lon="6.75713">
        <ele>1092.1</ele>
        <time>2022-06-12T05:52:21Z</time>
      </trkpt>
      <trkpt lat="44.15554" lon="6.75714">
        <ele>1092.2</ele>
        <time>2022-06-12T05:52:22Z</time>
      </trkpt>
      <trkpt lat="44.15557" lon="6.75714">
        <ele>1092.9</ele>
        <time>2022-06-12T05:52:23Z</time>
      </trkpt>
      <trkpt lat="44.1556" lon="6.75713">
        <ele>1094.8</ele>
        <time>2022-06-12T05:52:24Z</time>
      </trkpt>
      <trkpt lat="44.15564" lon="6.75713">
        <ele>1096.6</ele>
        <time>2022-06-12T05:52:25Z</time>
      </trkpt>
      <trkpt lat="44.15568" lon="6.75712">
        <ele>1099.8</ele>
        <time>2022-06-12T05:52:26Z</time>
      </trkpt>
      <trkpt lat="44.15571" lon="6.75712">
        <ele>1100.7</ele>
        <time>2022-06-12T05:52:27Z</time>
      </trkpt>
      <trkpt lat="44.15575" lon="6.75712">
        <ele>1102.6</ele>
        <time>2022-06-12T05:52:28Z</time>
      </trkpt>
      <trkpt lat="44.15579" lon="6.75711">
        <ele>1106.4</ele>
        <time>2022-06-12T05:52:29Z</time>
      </trkpt>
      <trkpt lat="44.15583" lon="6.7571">
        <ele>1109.5</ele>
        <time>2022-06-12T05:52:30Z</time>
      </trkpt>
      <trkpt lat="44.15587" lon="6.7571">
        <ele>1111.7</ele>
        <time>2022-06-12T05:52:31Z</time>
      </trkpt>
      <trkpt lat="44.15591" lon="6.75709">
        <ele>1114.6</ele>
        <time>2022-06-12T05:52:32Z</time>
      </trkpt>
      <trkpt lat="44.15595" lon="6.75708">
        <ele>1117.9</ele>
        <time>2022-06-12T05:52:33Z</time>
      </trkpt>
      <trkpt lat="44.15599" lon="6.75709">
        <ele>1119.6</ele>
        <time>2022-06-12T05:52:34Z</time>
      </trkpt>
      <trkpt lat="44.15603" lon="6.75709">
        <ele>1121.2</ele>
        <time>2022-06-12T05:52:35Z</time>
      </trkpt>
      <trkpt lat="44.15606" lon="6.75708">
        <ele>1124</ele>
        <time>2022-06-12T05:52:36Z</time>
      </trkpt>
      <trkpt lat="44.15608" lon="6.75708">
        <ele>1126.2</ele>
        <time>2022-06-12T05:52:37Z</time>
      </trkpt>
      <trkpt lat="44.15609" lon="6.75707">
        <ele>1126.8</ele>
        <time>2022-06-12T05:52:38Z</time>
      </trkpt>
      <trkpt lat="44.15608" lon="6.75708">
        <ele>1125.8</ele>
        <time>2022-06-12T05:52:39Z</time>
      </trkpt>
      <trkpt lat="44.15609" lon="6.75707">
        <ele>1127.4</ele>
        <time>2022-06-12T05:52:40Z</time>
      </trkpt>
      <trkpt lat="44.1561" lon="6.75707">
        <ele>1127.5</ele>
        <time>2022-06-12T05:52:41Z</time>
      </trkpt>
      <trkpt lat="44.15611" lon="6.75709">
        <ele>1126.2</ele>
        <time>2022-06-12T05:52:42Z</time>
      </trkpt>
      <trkpt lat="44.15612" lon="6.75709">
        <ele>1125.7</ele>
        <time>2022-06-12T05:52:43Z</time>
      </trkpt>
      <trkpt lat="44.15613" lon="6.75708">
        <ele>1128.7</ele>
        <time>2022-06-12T05:52:44Z</time>
      </trkpt>
      <trkpt lat="44.15615" lon="6.75708">
        <ele>1129.5</ele>
        <time>2022-06-12T05:52:45Z</time>
      </trkpt>
      <trkpt lat="44.15617" lon="6.75707">
        <ele>1131.8</ele>
        <time>2022-06-12T05:52:46Z</time>
      </trkpt>
      <trkpt lat="44.15619" lon="6.75708">
        <ele>1131.7</ele>
        <time>2022-06-12T05:52:47Z</time>
      </trkpt>
      <trkpt lat="44.15621" lon="6.75708">
        <ele>1132.6</ele>
        <time>2022-06-12T05:52:48Z</time>
      </trkpt>
      <trkpt lat="44.15622" lon="6.75706">
        <ele>1135.4</ele>
        <time>2022-06-12T05:52:49Z</time>
      </trkpt>
      <trkpt lat="44.15624" lon="6.75704">
        <ele>1140.2</ele>
        <time>2022-06-12T05:52:50Z</time>
      </trkpt>
      <trkpt lat="44.15625" lon="6.75698">
        <ele>1148.5</ele>
        <time>2022-06-12T05:52:51Z</time>
      </trkpt>
      <trkpt lat="44.15626" lon="6.75692">
        <ele>1157.4</ele>
        <time>2022-06-12T05:52:52Z</time>
      </trkpt>
      <trkpt lat="44.15628" lon="6.75686">
        <ele>1166.2</ele>
        <time>2022-06-12T05:52:53Z</time>
      </trkpt>
      <trkpt lat="44.15628" lon="6.75686">
        <ele>1166.2</ele>
        <time>2022-06-12T05:52:54Z</time>
      </trkpt>
      <trkpt lat="44.15628" lon="6.75686">
        <ele>1166.2</ele>
        <time>2022-06-12T05:52:55Z</time>
      </trkpt>
      <trkpt lat="44.15628" lon="6.75686">
        <ele>1166.2</ele>
        <time>2022-06-12T05:52:56Z</time>
      </trkpt>
      <trkpt lat="44.15628" lon="6.75686">
        <ele>1166.2</ele>
        <time>2022-06-12T05:52:57Z</time>
      </trkpt>
      <trkpt lat="44.15628" lon="6.75686">
        <ele>1166.2</ele>
        <time>2022-06-12T05:52:58Z</time>
      </trkpt>
      <trkpt lat="44.15628" lon="6.75686">
        <ele>1166.2</ele>
        <time>2022-06-12T05:52:59Z</time>
      </trkpt>
      <trkpt lat="44.15628" lon="6.75686">
        <ele>1166.2</ele>
        <time>2022-06-12T05:53:00Z</time>
      </trkpt>
      <trkpt lat="44.15628" lon="6.75686">
        <ele>1166.2</ele>
        <time>2022-06-12T05:53:01Z</time>
      </trkpt>
      <trkpt lat="44.15628" lon="6.75686">
        <ele>1166.2</ele>
        <time>2022-06-12T05:53:02Z</time>
      </trkpt>
      <trkpt lat="44.15628" lon="6.75686">
        <ele>1166.2</ele>
        <time>2022-06-12T05:53:03Z</time>
      </trkpt>
      <trkpt lat="44.15628" lon="6.75686">
        <ele>1166.2</ele>
        <time>2022-06-12T05:53:04Z</time>
      </trkpt>
      <trkpt lat="44.15628" lon="6.75686">
        <ele>1166.2</ele>
        <time>2022-06-12T05:53:05Z</time>
      </trkpt>
      <trkpt lat="44.15628" lon="6.75686">
        <ele>1166.2</ele>
        <time>2022-06-12T05:53:06Z</time>
      </trkpt>
      <trkpt lat="44.15628" lon="6.75686">
        <ele>1166.2</ele>
        <time>2022-06-12T05:53:07Z</time>
      </trkpt>
      <trkpt lat="44.15628" lon="6.75686">
        <ele>1166.2</ele>
        <time>2022-06-12T05:53:08Z</time>
      </trkpt>
      <trkpt lat="44.15628" lon="6.75686">
        <ele>1166.2</ele>
        <time>2022-06-12T05:53:09Z</time>
      </trkpt>
      <trkpt lat="44.15628" lon="6.75686">
        <ele>1166.2</ele>
        <time>2022-06-12T05:53:10Z</time>
      </trkpt>
      <trkpt lat="44.15628" lon="6.75686">
        <ele>1166.2</ele>
        <time>2022-06-12T05:53:11Z</time>
      </trkpt>
      <trkpt lat="44.15628" lon="6.75686">
        <ele>1166.2</ele>
        <time>2022-06-12T05:53:12Z</time>
      </trkpt>
      <trkpt lat="44.15628" lon="6.75686">
        <ele>1166.2</ele>
        <time>2022-06-12T05:53:13Z</time>
      </trkpt>
      <trkpt lat="44.15628" lon="6.75686">
        <ele>1166.2</ele>
        <time>2022-06-12T05:53:14Z</time>
      </trkpt>
      <trkpt lat="44.15628" lon="6.75686">
        <ele>1166.2</ele>
        <time>2022-06-12T05:53:15Z</time>
      </trkpt>
      <trkpt lat="44.15628" lon="6.75686">
        <ele>1166.2</ele>
        <time>2022-06-12T05:53:16Z</time>
      </trkpt>
      <trkpt lat="44.15628" lon="6.75686">
        <ele>1166.2</ele>
        <time>2022-06-12T05:53:17Z</time>
      </trkpt>
      <trkpt lat="44.15628" lon="6.75686">
        <ele>1166.2</ele>
        <time>2022-06-12T05:53:18Z</time>
      </trkpt>
      <trkpt lat="44.15628" lon="6.75686">
        <ele>1166.2</ele>
        <time>2022-06-12T05:53:19Z</time>
      </trkpt>
      <trkpt lat="44.15628" lon="6.75686">
        <ele>1166.2</ele>
        <time>2022-06-12T05:53:20Z</time>
      </trkpt>
      <trkpt lat="44.15628" lon="6.75686">
        <ele>1166.2</ele>
        <time>2022-06-12T05:53:21Z</time>
      </trkpt>
      <trkpt lat="44.15628" lon="6.75686">
        <ele>1166.2</ele>
        <time>2022-06-12T05:53:22Z</time>
      </trkpt>
      <trkpt lat="44.15628" lon="6.75686">
        <ele>1166.2</ele>
        <time>2022-06-12T05:53:23Z</time>
      </trkpt>
      <trkpt lat="44.15628" lon="6.75686">
        <ele>1166.2</ele>
        <time>2022-06-12T05:53:24Z</time>
      </trkpt>
      <trkpt lat="44.15628" lon="6.75686">
        <ele>1166.2</ele>
        <time>2022-06-12T05:53:25Z</time>
      </trkpt>
      <trkpt lat="44.15628" lon="6.75686">
        <ele>1166.2</ele>
        <time>2022-06-12T05:53:26Z</time>
      </trkpt>
      <trkpt lat="44.15628" lon="6.75686">
        <ele>1166.2</ele>
        <time>2022-06-12T05:53:27Z</time>
      </trkpt>
      <trkpt lat="44.15628" lon="6.75686">
        <ele>1166.2</ele>
        <time>2022-06-12T05:53:28Z</time>
      </trkpt>
      <trkpt lat="44.15628" lon="6.75686">
        <ele>1166.2</ele>
        <time>2022-06-12T05:53:29Z</time>
      </trkpt>
      <trkpt lat="44.15628" lon="6.75686">
        <ele>1166.2</ele>
        <time>2022-06-12T05:53:30Z</time>
      </trkpt>
      <trkpt lat="44.15628" lon="6.75686">
        <ele>1166.2</ele>
        <time>2022-06-12T05:53:31Z</time>
      </trkpt>
      <trkpt lat="44.15628" lon="6.75686">
        <ele>1166.2</ele>
        <time>2022-06-12T05:53:32Z</time>
      </trkpt>
      <trkpt lat="44.15628" lon="6.75686">
        <ele>1166.2</ele>
        <time>2022-06-12T05:53:33Z</time>
      </trkpt>
      <trkpt lat="44.15628" lon="6.75686">
        <ele>1166.2</ele>
        <time>2022-06-12T05:53:34Z</time>
      </trkpt>
      <trkpt lat="44.15628" lon="6.75686">
        <ele>1166.2</ele>
        <time>2022-06-12T05:53:35Z</time>
      </trkpt>
      <trkpt lat="44.15628" lon="6.75686">
        <ele>1166.2</ele>
        <time>2022-06-12T05:53:36Z</time>
      </trkpt>
      <trkpt lat="44.15628" lon="6.75686">
        <ele>1166.2</ele>
        <time>2022-06-12T05:53:37Z</time>
      </trkpt>
      <trkpt lat="44.15628" lon="6.75686">
        <ele>1166.2</ele>
        <time>2022-06-12T05:53:38Z</time>
      </trkpt>
      <trkpt lat="44.15628" lon="6.75686">
        <ele>1166.2</ele>
        <time>2022-06-12T05:53:39Z</time>
      </trkpt>
      <trkpt lat="44.15628" lon="6.75686">
        <ele>1166.2</ele>
        <time>2022-06-12T05:53:40Z</time>
      </trkpt>
      <trkpt lat="44.15628" lon="6.75686">
        <ele>1166.2</ele>
        <time>2022-06-12T05:53:41Z</time>
      </trkpt>
      <trkpt lat="44.15628" lon="6.75686">
        <ele>1166.2</ele>
        <time>2022-06-12T05:53:42Z</time>
      </trkpt>
      <trkpt lat="44.15628" lon="6.75686">
        <ele>1166.2</ele>
        <time>2022-06-12T05:53:43Z</time>
      </trkpt>
      <trkpt lat="44.15628" lon="6.75686">
        <ele>1166.2</ele>
        <time>2022-06-12T05:53:44Z</time>
      </trkpt>
      <trkpt lat="44.15628" lon="6.75686">
        <ele>1166.2</ele>
        <time>2022-06-12T05:53:45Z</time>
      </trkpt>
      <trkpt lat="44.15628" lon="6.75686">
        <ele>1166.2</ele>
        <time>2022-06-12T05:53:46Z</time>
      </trkpt>
      <trkpt lat="44.15628" lon="6.75686">
        <ele>1166.2</ele>
        <time>2022-06-12T05:53:47Z</time>
      </trkpt>
      <trkpt lat="44.15628" lon="6.75686">
        <ele>1166.2</ele>
        <time>2022-06-12T05:53:48Z</time>
      </trkpt>
      <trkpt lat="44.15731" lon="6.75711">
        <ele>1165.8</ele>
        <time>2022-06-12T05:53:49Z</time>
      </trkpt>
      <trkpt lat="44.15835" lon="6.75736">
        <ele>1108.3</ele>
        <time>2022-06-12T05:53:50Z</time>
      </trkpt>
      <trkpt lat="44.15839" lon="6.75731">
        <ele>1110.7</ele>
        <time>2022-06-12T05:53:51Z</time>
      </trkpt>
      <trkpt lat="44.1584" lon="6.75733">
        <ele>1109.6</ele>
        <time>2022-06-12T05:53:52Z</time>
      </trkpt>
      <trkpt lat="44.15843" lon="6.75733">
        <ele>1110</ele>
        <time>2022-06-12T05:53:53Z</time>
      </trkpt>
      <trkpt lat="44.15846" lon="6.75732">
        <ele>1110.3</ele>
        <time>2022-06-12T05:53:54Z</time>
      </trkpt>
      <trkpt lat="44.1585" lon="6.75732">
        <ele>1110.8</ele>
        <time>2022-06-12T05:53:55Z</time>
      </trkpt>
      <trkpt lat="44.15853" lon="6.75732">
        <ele>1110.7</ele>
        <time>2022-06-12T05:53:56Z</time>
      </trkpt>
      <trkpt lat="44.15854" lon="6.75731">
        <ele>1111.1</ele>
        <time>2022-06-12T05:53:57Z</time>
      </trkpt>
      <trkpt lat="44.15857" lon="6.75731">
        <ele>1111.2</ele>
        <time>2022-06-12T05:53:58Z</time>
      </trkpt>
      <trkpt lat="44.1586" lon="6.75732">
        <ele>1111.1</ele>
        <time>2022-06-12T05:53:59Z</time>
      </trkpt>
      <trkpt lat="44.15862" lon="6.75733">
        <ele>1111</ele>
        <time>2022-06-12T05:54:00Z</time>
      </trkpt>
      <trkpt lat="44.15864" lon="6.75733">
        <ele>1111.3</ele>
        <time>2022-06-12T05:54:01Z</time>
      </trkpt>
      <trkpt lat="44.15867" lon="6.75733">
        <ele>1111.5</ele>
        <time>2022-06-12T05:54:02Z</time>
      </trkpt>
      <trkpt lat="44.15869" lon="6.75735">
        <ele>1111.2</ele>
        <time>2022-06-12T05:54:03Z</time>
      </trkpt>
      <trkpt lat="44.15871" lon="6.75735">
        <ele>1111.4</ele>
        <time>2022-06-12T05:54:04Z</time>
      </trkpt>
      <trkpt lat="44.15873" lon="6.75736">
        <ele>1111.6</ele>
        <time>2022-06-12T05:54:05Z</time>
      </trkpt>
      <trkpt lat="44.15875" lon="6.75736">
        <ele>1111.8</ele>
        <time>2022-06-12T05:54:06Z</time>
      </trkpt>
      <trkpt lat="44.15878" lon="6.75737">
        <ele>1111.7</ele>
        <time>2022-06-12T05:54:07Z</time>
      </trkpt>
      <trkpt lat="44.15881" lon="6.75739">
        <ele>1111.7</ele>
        <time>2022-06-12T05:54:08Z</time>
      </trkpt>
      <trkpt lat="44.15883" lon="6.7574">
        <ele>1111.6</ele>
        <time>2022-06-12T05:54:09Z</time>
      </trkpt>
      <trkpt lat="44.15886" lon="6.75742">
        <ele>1111.1</ele>
        <time>2022-06-12T05:54:10Z</time>
      </trkpt>
      <trkpt lat="44.15888" lon="6.75743">
        <ele>1110.8</ele>
        <time>2022-06-12T05:54:11Z</time>
      </trkpt>
      <trkpt lat="44.15891" lon="6.75744">
        <ele>1110.8</ele>
        <time>2022-06-12T05:54:12Z</time>
      </trkpt>
      <trkpt lat="44.15894" lon="6.75746">
        <ele>1110.5</ele>
        <time>2022-06-12T05:54:13Z</time>
      </trkpt>
      <trkpt lat="44.15897" lon="6.75748">
        <ele>1110.2</ele>
        <time>2022-06-12T05:54:14Z</time>
      </trkpt>
      <trkpt lat="44.15899" lon="6.75749">
        <ele>1110</ele>
        <time>2022-06-12T05:54:15Z</time>
      </trkpt>
      <trkpt lat="44.15902" lon="6.7575">
        <ele>1109.8</ele>
        <time>2022-06-12T05:54:16Z</time>
      </trkpt>
      <trkpt lat="44.15904" lon="6.75751">
        <ele>1109.8</ele>
        <time>2022-06-12T05:54:17Z</time>
      </trkpt>
      <trkpt lat="44.15906" lon="6.75752">
        <ele>1109.9</ele>
        <time>2022-06-12T05:54:18Z</time>
      </trkpt>
      <trkpt lat="44.15909" lon="6.75751">
        <ele>1110.3</ele>
        <time>2022-06-12T05:54:19Z</time>
      </trkpt>
      <trkpt lat="44.15911" lon="6.75751">
        <ele>1110.6</ele>
        <time>2022-06-12T05:54:20Z</time>
      </trkpt>
      <trkpt lat="44.15912" lon="6.75752">
        <ele>1110.7</ele>
        <time>2022-06-12T05:54:21Z</time>
      </trkpt>
      <trkpt lat="44.15914" lon="6.75751">
        <ele>1111.1</ele>
        <time>2022-06-12T05:54:22Z</time>
      </trkpt>
      <trkpt lat="44.15917" lon="6.75751">
        <ele>1111.5</ele>
        <time>2022-06-12T05:54:23Z</time>
      </trkpt>
      <trkpt lat="44.15919" lon="6.75751">
        <ele>1111.9</ele>
        <time>2022-06-12T05:54:24Z</time>
      </trkpt>
      <trkpt lat="44.15921" lon="6.7575">
        <ele>1112.3</ele>
        <time>2022-06-12T05:54:25Z</time>
      </trkpt>
      <trkpt lat="44.15924" lon="6.7575">
        <ele>1112.7</ele>
        <time>2022-06-12T05:54:26Z</time>
      </trkpt>
      <trkpt lat="44.15927" lon="6.7575">
        <ele>1113.3</ele>
        <time>2022-06-12T05:54:27Z</time>
      </trkpt>
      <trkpt lat="44.1593" lon="6.7575">
        <ele>1113.6</ele>
        <time>2022-06-12T05:54:28Z</time>
      </trkpt>
      <trkpt lat="44.15933" lon="6.75749">
        <ele>1114.1</ele>
        <time>2022-06-12T05:54:29Z</time>
      </trkpt>
      <trkpt lat="44.15935" lon="6.75749">
        <ele>1114.5</ele>
        <time>2022-06-12T05:54:30Z</time>
      </trkpt>
      <trkpt lat="44.15938" lon="6.75749">
        <ele>1114.7</ele>
        <time>2022-06-12T05:54:31Z</time>
      </trkpt>
      <trkpt lat="44.1594" lon="6.7575">
        <ele>1114.8</ele>
        <time>2022-06-12T05:54:32Z</time>
      </trkpt>
      <trkpt lat="44.15943" lon="6.7575">
        <ele>1115</ele>
        <time>2022-06-12T05:54:33Z</time>
      </trkpt>
      <trkpt lat="44.15946" lon="6.75749">
        <ele>1115.4</ele>
        <time>2022-06-12T05:54:34Z</time>
      </trkpt>
      <trkpt lat="44.15948" lon="6.75749">
        <ele>1115.8</ele>
        <time>2022-06-12T05:54:35Z</time>
      </trkpt>
      <trkpt lat="44.1595" lon="6.75748">
        <ele>1116.2</ele>
        <time>2022-06-12T05:54:36Z</time>
      </trkpt>
      <trkpt lat="44.15953" lon="6.75747">
        <ele>1116.7</ele>
        <time>2022-06-12T05:54:37Z</time>
      </trkpt>
      <trkpt lat="44.15957" lon="6.75747">
        <ele>1116.7</ele>
        <time>2022-06-12T05:54:38Z</time>
      </trkpt>
      <trkpt lat="44.15959" lon="6.75748">
        <ele>1116.5</ele>
        <time>2022-06-12T05:54:39Z</time>
      </trkpt>
      <trkpt lat="44.1596" lon="6.75748">
        <ele>1116.6</ele>
        <time>2022-06-12T05:54:40Z</time>
      </trkpt>
      <trkpt lat="44.15962" lon="6.75748">
        <ele>1116.6</ele>
        <time>2022-06-12T05:54:41Z</time>
      </trkpt>
      <trkpt lat="44.15964" lon="6.75748">
        <ele>1116.6</ele>
        <time>2022-06-12T05:54:42Z</time>
      </trkpt>
      <trkpt lat="44.15965" lon="6.75749">
        <ele>1116.4</ele>
        <time>2022-06-12T05:54:43Z</time>
      </trkpt>
      <trkpt lat="44.15967" lon="6.75749">
        <ele>1116.5</ele>
        <time>2022-06-12T05:54:44Z</time>
      </trkpt>
      <trkpt lat="44.15969" lon="6.75749">
        <ele>1116.4</ele>
        <time>2022-06-12T05:54:45Z</time>
      </trkpt>
      <trkpt lat="44.15971" lon="6.75749">
        <ele>1116.3</ele>
        <time>2022-06-12T05:54:46Z</time>
      </trkpt>
      <trkpt lat="44.15973" lon="6.7575">
        <ele>1116.2</ele>
        <time>2022-06-12T05:54:47Z</time>
      </trkpt>
      <trkpt lat="44.15977" lon="6.7575">
        <ele>1115.8</ele>
        <time>2022-06-12T05:54:48Z</time>
      </trkpt>
      <trkpt lat="44.15979" lon="6.75751">
        <ele>1115.2</ele>
        <time>2022-06-12T05:54:49Z</time>
      </trkpt>
      <trkpt lat="44.15982" lon="6.75751">
        <ele>1114.9</ele>
        <time>2022-06-12T05:54:50Z</time>
      </trkpt>
      <trkpt lat="44.15984" lon="6.75751">
        <ele>1114.7</ele>
        <time>2022-06-12T05:54:51Z</time>
      </trkpt>
      <trkpt lat="44.15988" lon="6.75751">
        <ele>1114.6</ele>
        <time>2022-06-12T05:54:52Z</time>
      </trkpt>
      <trkpt lat="44.1599" lon="6.7575">
        <ele>1114.6</ele>
        <time>2022-06-12T05:54:53Z</time>
      </trkpt>
      <trkpt lat="44.15995" lon="6.7575">
        <ele>1114.5</ele>
        <time>2022-06-12T05:54:54Z</time>
      </trkpt>
      <trkpt lat="44.15997" lon="6.7575">
        <ele>1114.3</ele>
        <time>2022-06-12T05:54:55Z</time>
      </trkpt>
      <trkpt lat="44.16" lon="6.7575">
        <ele>1114.2</ele>
        <time>2022-06-12T05:54:56Z</time>
      </trkpt>
      <trkpt lat="44.16003" lon="6.75749">
        <ele>1113.7</ele>
        <time>2022-06-12T05:54:57Z</time>
      </trkpt>
      <trkpt lat="44.16007" lon="6.75748">
        <ele>1113</ele>
        <time>2022-06-12T05:54:58Z</time>
      </trkpt>
      <trkpt lat="44.16011" lon="6.75747">
        <ele>1112.2</ele>
        <time>2022-06-12T05:54:59Z</time>
      </trkpt>
      <trkpt lat="44.16014" lon="6.75746">
        <ele>1111.7</ele>
        <time>2022-06-12T05:55:00Z</time>
      </trkpt>
      <trkpt lat="44.16017" lon="6.75745">
        <ele>1111.3</ele>
        <time>2022-06-12T05:55:01Z</time>
      </trkpt>
      <trkpt lat="44.16021" lon="6.75744">
        <ele>1110.7</ele>
        <time>2022-06-12T05:55:02Z</time>
      </trkpt>
      <trkpt lat="44.16024" lon="6.75743">
        <ele>1110.2</ele>
        <time>2022-06-12T05:55:03Z</time>
      </trkpt>
      <trkpt lat="44.16028" lon="6.75742">
        <ele>1110.1</ele>
        <time>2022-06-12T05:55:04Z</time>
      </trkpt>
      <trkpt lat="44.1603" lon="6.75739">
        <ele>1110.1</ele>
        <time>2022-06-12T05:55:05Z</time>
      </trkpt>
      <trkpt lat="44.16033" lon="6.75736">
        <ele>1110.2</ele>
        <time>2022-06-12T05:55:06Z</time>
      </trkpt>
      <trkpt lat="44.16036" lon="6.75734">
        <ele>1110.4</ele>
        <time>2022-06-12T05:55:07Z</time>
      </trkpt>
      <trkpt lat="44.16038" lon="6.7573">
        <ele>1111</ele>
        <time>2022-06-12T05:55:08Z</time>
      </trkpt>
      <trkpt lat="44.1604" lon="6.75726">
        <ele>1111.8</ele>
        <time>2022-06-12T05:55:09Z</time>
      </trkpt>
      <trkpt lat="44.16042" lon="6.75723">
        <ele>1112.6</ele>
        <time>2022-06-12T05:55:10Z</time>
      </trkpt>
      <trkpt lat="44.16044" lon="6.75719">
        <ele>1112.9</ele>
        <time>2022-06-12T05:55:11Z</time>
      </trkpt>
      <trkpt lat="44.16046" lon="6.75716">
        <ele>1113.3</ele>
        <time>2022-06-12T05:55:12Z</time>
      </trkpt>
      <trkpt lat="44.16048" lon="6.75712">
        <ele>1113.8</ele>
        <time>2022-06-12T05:55:13Z</time>
      </trkpt>
      <trkpt lat="44.16049" lon="6.75709">
        <ele>1114.5</ele>
        <time>2022-06-12T05:55:14Z</time>
      </trkpt>
      <trkpt lat="44.16051" lon="6.75705">
        <ele>1115.1</ele>
        <time>2022-06-12T05:55:15Z</time>
      </trkpt>
      <trkpt lat="44.16053" lon="6.75702">
        <ele>1115.3</ele>
        <time>2022-06-12T05:55:16Z</time>
      </trkpt>
      <trkpt lat="44.16055" lon="6.75699">
        <ele>1115.9</ele>
        <time>2022-06-12T05:55:17Z</time>
      </trkpt>
      <trkpt lat="44.16056" lon="6.75695">
        <ele>1116.6</ele>
        <time>2022-06-12T05:55:18Z</time>
      </trkpt>
      <trkpt lat="44.16058" lon="6.75692">
        <ele>1117.1</ele>
        <time>2022-06-12T05:55:19Z</time>
      </trkpt>
      <trkpt lat="44.16059" lon="6.75689">
        <ele>1117.3</ele>
        <time>2022-06-12T05:55:20Z</time>
      </trkpt>
      <trkpt lat="44.16062" lon="6.75686">
        <ele>1117.3</ele>
        <time>2022-06-12T05:55:21Z</time>
      </trkpt>
      <trkpt lat="44.16064" lon="6.75683">
        <ele>1117.4</ele>
        <time>2022-06-12T05:55:22Z</time>
      </trkpt>
      <trkpt lat="44.16066" lon="6.7568">
        <ele>1117.5</ele>
        <time>2022-06-12T05:55:23Z</time>
      </trkpt>
      <trkpt lat="44.16068" lon="6.75678">
        <ele>1117.6</ele>
        <time>2022-06-12T05:55:24Z</time>
      </trkpt>
      <trkpt lat="44.16071" lon="6.75675">
        <ele>1117.6</ele>
        <time>2022-06-12T05:55:25Z</time>
      </trkpt>
      <trkpt lat="44.16073" lon="6.75672">
        <ele>1117.6</ele>
        <time>2022-06-12T05:55:26Z</time>
      </trkpt>
      <trkpt lat="44.16076" lon="6.7567">
        <ele>1117.5</ele>
        <time>2022-06-12T05:55:27Z</time>
      </trkpt>
      <trkpt lat="44.16078" lon="6.75668">
        <ele>1117.4</ele>
        <time>2022-06-12T05:55:28Z</time>
      </trkpt>
      <trkpt lat="44.1608" lon="6.75666">
        <ele>1117.5</ele>
        <time>2022-06-12T05:55:29Z</time>
      </trkpt>
      <trkpt lat="44.16083" lon="6.75664">
        <ele>1117.4</ele>
        <time>2022-06-12T05:55:30Z</time>
      </trkpt>
      <trkpt lat="44.16085" lon="6.75661">
        <ele>1117.5</ele>
        <time>2022-06-12T05:55:31Z</time>
      </trkpt>
      <trkpt lat="44.16087" lon="6.75659">
        <ele>1117.6</ele>
        <time>2022-06-12T05:55:32Z</time>
      </trkpt>
      <trkpt lat="44.16089" lon="6.75657">
        <ele>1117.5</ele>
        <time>2022-06-12T05:55:33Z</time>
      </trkpt>
      <trkpt lat="44.16092" lon="6.75655">
        <ele>1117.2</ele>
        <time>2022-06-12T05:55:34Z</time>
      </trkpt>
      <trkpt lat="44.16095" lon="6.75653">
        <ele>1116.9</ele>
        <time>2022-06-12T05:55:35Z</time>
      </trkpt>
      <trkpt lat="44.16098" lon="6.75651">
        <ele>1116.7</ele>
        <time>2022-06-12T05:55:36Z</time>
      </trkpt>
      <trkpt lat="44.161" lon="6.75649">
        <ele>1116.4</ele>
        <time>2022-06-12T05:55:37Z</time>
      </trkpt>
      <trkpt lat="44.16103" lon="6.75647">
        <ele>1116.1</ele>
        <time>2022-06-12T05:55:38Z</time>
      </trkpt>
      <trkpt lat="44.16106" lon="6.75644">
        <ele>1116.2</ele>
        <time>2022-06-12T05:55:39Z</time>
      </trkpt>
      <trkpt lat="44.16109" lon="6.75641">
        <ele>1116.2</ele>
        <time>2022-06-12T05:55:40Z</time>
      </trkpt>
      <trkpt lat="44.16111" lon="6.75639">
        <ele>1116.1</ele>
        <time>2022-06-12T05:55:41Z</time>
      </trkpt>
      <trkpt lat="44.16114" lon="6.75637">
        <ele>1115.9</ele>
        <time>2022-06-12T05:55:42Z</time>
      </trkpt>
      <trkpt lat="44.16117" lon="6.75635">
        <ele>1115.5</ele>
        <time>2022-06-12T05:55:43Z</time>
      </trkpt>
      <trkpt lat="44.1612" lon="6.75634">
        <ele>1115.1</ele>
        <time>2022-06-12T05:55:44Z</time>
      </trkpt>
      <trkpt lat="44.16122" lon="6.75632">
        <ele>1115.1</ele>
        <time>2022-06-12T05:55:45Z</time>
      </trkpt>
      <trkpt lat="44.16125" lon="6.7563">
        <ele>1114.9</ele>
        <time>2022-06-12T05:55:46Z</time>
      </trkpt>
      <trkpt lat="44.16128" lon="6.75628">
        <ele>1114.9</ele>
        <time>2022-06-12T05:55:47Z</time>
      </trkpt>
      <trkpt lat="44.16131" lon="6.75626">
        <ele>1114.6</ele>
        <time>2022-06-12T05:55:48Z</time>
      </trkpt>
      <trkpt lat="44.16133" lon="6.75624">
        <ele>1114.6</ele>
        <time>2022-06-12T05:55:49Z</time>
      </trkpt>
      <trkpt lat="44.16136" lon="6.75623">
        <ele>1114.4</ele>
        <time>2022-06-12T05:55:50Z</time>
      </trkpt>
      <trkpt lat="44.16139" lon="6.7562">
        <ele>1114.4</ele>
        <time>2022-06-12T05:55:51Z</time>
      </trkpt>
      <trkpt lat="44.16142" lon="6.75619">
        <ele>1114.1</ele>
        <time>2022-06-12T05:55:52Z</time>
      </trkpt>
      <trkpt lat="44.16145" lon="6.75618">
        <ele>1113.8</ele>
        <time>2022-06-12T05:55:53Z</time>
      </trkpt>
      <trkpt lat="44.16148" lon="6.75616">
        <ele>1113.6</ele>
        <time>2022-06-12T05:55:54Z</time>
      </trkpt>
      <trkpt lat="44.16151" lon="6.75614">
        <ele>1113.5</ele>
        <time>2022-06-12T05:55:55Z</time>
      </trkpt>
      <trkpt lat="44.16153" lon="6.75612">
        <ele>1113.5</ele>
        <time>2022-06-12T05:55:56Z</time>
      </trkpt>
      <trkpt lat="44.16156" lon="6.75609">
        <ele>1113.8</ele>
        <time>2022-06-12T05:55:57Z</time>
      </trkpt>
      <trkpt lat="44.16159" lon="6.75606">
        <ele>1114.2</ele>
        <time>2022-06-12T05:55:58Z</time>
      </trkpt>
      <trkpt lat="44.16161" lon="6.75602">
        <ele>1115.2</ele>
        <time>2022-06-12T05:55:59Z</time>
      </trkpt>
      <trkpt lat="44.16164" lon="6.75599">
        <ele>1115.8</ele>
        <time>2022-06-12T05:56:00Z</time>
      </trkpt>
      <trkpt lat="44.16167" lon="6.75596">
        <ele>1116.2</ele>
        <time>2022-06-12T05:56:01Z</time>
      </trkpt>
      <trkpt lat="44.16169" lon="6.75593">
        <ele>1117</ele>
        <time>2022-06-12T05:56:02Z</time>
      </trkpt>
      <trkpt lat="44.16172" lon="6.7559">
        <ele>1117.4</ele>
        <time>2022-06-12T05:56:03Z</time>
      </trkpt>
      <trkpt lat="44.16175" lon="6.75589">
        <ele>1117.7</ele>
        <time>2022-06-12T05:56:04Z</time>
      </trkpt>
      <trkpt lat="44.16178" lon="6.75587">
        <ele>1117.9</ele>
        <time>2022-06-12T05:56:05Z</time>
      </trkpt>
      <trkpt lat="44.16181" lon="6.75585">
        <ele>1118.1</ele>
        <time>2022-06-12T05:56:06Z</time>
      </trkpt>
      <trkpt lat="44.16184" lon="6.75584">
        <ele>1118.4</ele>
        <time>2022-06-12T05:56:07Z</time>
      </trkpt>
      <trkpt lat="44.16188" lon="6.75582">
        <ele>1118.5</ele>
        <time>2022-06-12T05:56:08Z</time>
      </trkpt>
      <trkpt lat="44.16191" lon="6.75581">
        <ele>1118.6</ele>
        <time>2022-06-12T05:56:09Z</time>
      </trkpt>
      <trkpt lat="44.16194" lon="6.75579">
        <ele>1118.6</ele>
        <time>2022-06-12T05:56:10Z</time>
      </trkpt>
      <trkpt lat="44.16197" lon="6.75578">
        <ele>1119</ele>
        <time>2022-06-12T05:56:11Z</time>
      </trkpt>
      <trkpt lat="44.162" lon="6.75577">
        <ele>1119.4</ele>
        <time>2022-06-12T05:56:12Z</time>
      </trkpt>
      <trkpt lat="44.16204" lon="6.75575">
        <ele>1119.8</ele>
        <time>2022-06-12T05:56:13Z</time>
      </trkpt>
      <trkpt lat="44.16207" lon="6.75574">
        <ele>1120.1</ele>
        <time>2022-06-12T05:56:14Z</time>
      </trkpt>
      <trkpt lat="44.1621" lon="6.75573">
        <ele>1120.3</ele>
        <time>2022-06-12T05:56:15Z</time>
      </trkpt>
      <trkpt lat="44.16213" lon="6.75572">
        <ele>1120.5</ele>
        <time>2022-06-12T05:56:16Z</time>
      </trkpt>
      <trkpt lat="44.16216" lon="6.75571">
        <ele>1120.7</ele>
        <time>2022-06-12T05:56:17Z</time>
      </trkpt>
      <trkpt lat="44.1622" lon="6.75569">
        <ele>1121.3</ele>
        <time>2022-06-12T05:56:18Z</time>
      </trkpt>
      <trkpt lat="44.16223" lon="6.75568">
        <ele>1121.7</ele>
        <time>2022-06-12T05:56:19Z</time>
      </trkpt>
      <trkpt lat="44.16226" lon="6.75566">
        <ele>1122.2</ele>
        <time>2022-06-12T05:56:20Z</time>
      </trkpt>
      <trkpt lat="44.16229" lon="6.75565">
        <ele>1122.6</ele>
        <time>2022-06-12T05:56:21Z</time>
      </trkpt>
      <trkpt lat="44.16232" lon="6.75564">
        <ele>1123</ele>
        <time>2022-06-12T05:56:22Z</time>
      </trkpt>
      <trkpt lat="44.16235" lon="6.75562">
        <ele>1123.7</ele>
        <time>2022-06-12T05:56:23Z</time>
      </trkpt>
      <trkpt lat="44.16238" lon="6.75561">
        <ele>1124.1</ele>
        <time>2022-06-12T05:56:24Z</time>
      </trkpt>
      <trkpt lat="44.16241" lon="6.7556">
        <ele>1124.5</ele>
        <time>2022-06-12T05:56:25Z</time>
      </trkpt>
      <trkpt lat="44.16245" lon="6.75558">
        <ele>1125</ele>
        <time>2022-06-12T05:56:26Z</time>
      </trkpt>
      <trkpt lat="44.16248" lon="6.75556">
        <ele>1125.7</ele>
        <time>2022-06-12T05:56:27Z</time>
      </trkpt>
      <trkpt lat="44.16251" lon="6.75555">
        <ele>1126</ele>
        <time>2022-06-12T05:56:28Z</time>
      </trkpt>
      <trkpt lat="44.16254" lon="6.75553">
        <ele>1125.8</ele>
        <time>2022-06-12T05:56:29Z</time>
      </trkpt>
      <trkpt lat="44.16257" lon="6.75551">
        <ele>1125.7</ele>
        <time>2022-06-12T05:56:30Z</time>
      </trkpt>
      <trkpt lat="44.1626" lon="6.75548">
        <ele>1125.8</ele>
        <time>2022-06-12T05:56:31Z</time>
      </trkpt>
      <trkpt lat="44.16263" lon="6.75546">
        <ele>1125.9</ele>
        <time>2022-06-12T05:56:32Z</time>
      </trkpt>
      <trkpt lat="44.16265" lon="6.75543">
        <ele>1126.2</ele>
        <time>2022-06-12T05:56:33Z</time>
      </trkpt>
      <trkpt lat="44.16268" lon="6.7554">
        <ele>1126.5</ele>
        <time>2022-06-12T05:56:34Z</time>
      </trkpt>
      <trkpt lat="44.16271" lon="6.75538">
        <ele>1126.9</ele>
        <time>2022-06-12T05:56:35Z</time>
      </trkpt>
      <trkpt lat="44.16273" lon="6.75535">
        <ele>1127.4</ele>
        <time>2022-06-12T05:56:36Z</time>
      </trkpt>
      <trkpt lat="44.16275" lon="6.75532">
        <ele>1128.1</ele>
        <time>2022-06-12T05:56:37Z</time>
      </trkpt>
      <trkpt lat="44.16278" lon="6.75529">
        <ele>1128.8</ele>
        <time>2022-06-12T05:56:38Z</time>
      </trkpt>
      <trkpt lat="44.1628" lon="6.75525">
        <ele>1128.4</ele>
        <time>2022-06-12T05:56:39Z</time>
      </trkpt>
      <trkpt lat="44.16282" lon="6.75522">
        <ele>1127.9</ele>
        <time>2022-06-12T05:56:40Z</time>
      </trkpt>
      <trkpt lat="44.16283" lon="6.75518">
        <ele>1127.7</ele>
        <time>2022-06-12T05:56:41Z</time>
      </trkpt>
      <trkpt lat="44.16285" lon="6.75514">
        <ele>1127.6</ele>
        <time>2022-06-12T05:56:42Z</time>
      </trkpt>
      <trkpt lat="44.16286" lon="6.7551">
        <ele>1127.6</ele>
        <time>2022-06-12T05:56:43Z</time>
      </trkpt>
      <trkpt lat="44.16286" lon="6.75505">
        <ele>1127.9</ele>
        <time>2022-06-12T05:56:44Z</time>
      </trkpt>
      <trkpt lat="44.16287" lon="6.755">
        <ele>1128.2</ele>
        <time>2022-06-12T05:56:45Z</time>
      </trkpt>
      <trkpt lat="44.16287" lon="6.75496">
        <ele>1128.1</ele>
        <time>2022-06-12T05:56:46Z</time>
      </trkpt>
      <trkpt lat="44.16287" lon="6.75491">
        <ele>1128</ele>
        <time>2022-06-12T05:56:47Z</time>
      </trkpt>
      <trkpt lat="44.16287" lon="6.75486">
        <ele>1127.9</ele>
        <time>2022-06-12T05:56:48Z</time>
      </trkpt>
      <trkpt lat="44.16286" lon="6.75481">
        <ele>1128</ele>
        <time>2022-06-12T05:56:49Z</time>
      </trkpt>
      <trkpt lat="44.16285" lon="6.75476">
        <ele>1128.1</ele>
        <time>2022-06-12T05:56:50Z</time>
      </trkpt>
      <trkpt lat="44.16285" lon="6.75472">
        <ele>1128.2</ele>
        <time>2022-06-12T05:56:51Z</time>
      </trkpt>
      <trkpt lat="44.16285" lon="6.75468">
        <ele>1128.5</ele>
        <time>2022-06-12T05:56:52Z</time>
      </trkpt>
      <trkpt lat="44.16284" lon="6.75463">
        <ele>1129</ele>
        <time>2022-06-12T05:56:53Z</time>
      </trkpt>
      <trkpt lat="44.16284" lon="6.75459">
        <ele>1129.4</ele>
        <time>2022-06-12T05:56:54Z</time>
      </trkpt>
      <trkpt lat="44.16284" lon="6.75454">
        <ele>1129.9</ele>
        <time>2022-06-12T05:56:55Z</time>
      </trkpt>
      <trkpt lat="44.16283" lon="6.75449">
        <ele>1130.3</ele>
        <time>2022-06-12T05:56:56Z</time>
      </trkpt>
      <trkpt lat="44.16283" lon="6.75444">
        <ele>1130.6</ele>
        <time>2022-06-12T05:56:57Z</time>
      </trkpt>
      <trkpt lat="44.16283" lon="6.7544">
        <ele>1131.4</ele>
        <time>2022-06-12T05:56:58Z</time>
      </trkpt>
      <trkpt lat="44.16283" lon="6.75435">
        <ele>1132.1</ele>
        <time>2022-06-12T05:56:59Z</time>
      </trkpt>
      <trkpt lat="44.16282" lon="6.7543">
        <ele>1133</ele>
        <time>2022-06-12T05:57:00Z</time>
      </trkpt>
      <trkpt lat="44.16282" lon="6.75426">
        <ele>1133.8</ele>
        <time>2022-06-12T05:57:01Z</time>
      </trkpt>
      <trkpt lat="44.16281" lon="6.75421">
        <ele>1134.8</ele>
        <time>2022-06-12T05:57:02Z</time>
      </trkpt>
      <trkpt lat="44.16281" lon="6.75416">
        <ele>1135.6</ele>
        <time>2022-06-12T05:57:03Z</time>
      </trkpt>
      <trkpt lat="44.1628" lon="6.75411">
        <ele>1135.7</ele>
        <time>2022-06-12T05:57:04Z</time>
      </trkpt>
      <trkpt lat="44.1628" lon="6.75406">
        <ele>1135.8</ele>
        <time>2022-06-12T05:57:05Z</time>
      </trkpt>
      <trkpt lat="44.16279" lon="6.75402">
        <ele>1135.9</ele>
        <time>2022-06-12T05:57:06Z</time>
      </trkpt>
      <trkpt lat="44.16279" lon="6.75397">
        <ele>1136</ele>
        <time>2022-06-12T05:57:07Z</time>
      </trkpt>
      <trkpt lat="44.16278" lon="6.75392">
        <ele>1136.2</ele>
        <time>2022-06-12T05:57:08Z</time>
      </trkpt>
      <trkpt lat="44.16277" lon="6.75387">
        <ele>1136.5</ele>
        <time>2022-06-12T05:57:09Z</time>
      </trkpt>
      <trkpt lat="44.16277" lon="6.75382">
        <ele>1136.1</ele>
        <time>2022-06-12T05:57:10Z</time>
      </trkpt>
      <trkpt lat="44.16277" lon="6.75377">
        <ele>1135.6</ele>
        <time>2022-06-12T05:57:11Z</time>
      </trkpt>
      <trkpt lat="44.16278" lon="6.75372">
        <ele>1134.8</ele>
        <time>2022-06-12T05:57:12Z</time>
      </trkpt>
      <trkpt lat="44.16279" lon="6.75367">
        <ele>1134.4</ele>
        <time>2022-06-12T05:57:13Z</time>
      </trkpt>
      <trkpt lat="44.16281" lon="6.75363">
        <ele>1134.2</ele>
        <time>2022-06-12T05:57:14Z</time>
      </trkpt>
      <trkpt lat="44.16282" lon="6.75359">
        <ele>1135</ele>
        <time>2022-06-12T05:57:15Z</time>
      </trkpt>
      <trkpt lat="44.16285" lon="6.75355">
        <ele>1136.3</ele>
        <time>2022-06-12T05:57:16Z</time>
      </trkpt>
      <trkpt lat="44.16287" lon="6.75352">
        <ele>1137.7</ele>
        <time>2022-06-12T05:57:17Z</time>
      </trkpt>
      <trkpt lat="44.16291" lon="6.7535">
        <ele>1139</ele>
        <time>2022-06-12T05:57:18Z</time>
      </trkpt>
      <trkpt lat="44.16294" lon="6.75348">
        <ele>1140.2</ele>
        <time>2022-06-12T05:57:19Z</time>
      </trkpt>
      <trkpt lat="44.16297" lon="6.75346">
        <ele>1141.3</ele>
        <time>2022-06-12T05:57:20Z</time>
      </trkpt>
      <trkpt lat="44.163" lon="6.75345">
        <ele>1142.1</ele>
        <time>2022-06-12T05:57:21Z</time>
      </trkpt>
      <trkpt lat="44.16304" lon="6.75346">
        <ele>1142.4</ele>
        <time>2022-06-12T05:57:22Z</time>
      </trkpt>
      <trkpt lat="44.16307" lon="6.75347">
        <ele>1142.8</ele>
        <time>2022-06-12T05:57:23Z</time>
      </trkpt>
      <trkpt lat="44.1631" lon="6.75348">
        <ele>1142.8</ele>
        <time>2022-06-12T05:57:24Z</time>
      </trkpt>
      <trkpt lat="44.16313" lon="6.7535">
        <ele>1142.7</ele>
        <time>2022-06-12T05:57:25Z</time>
      </trkpt>
      <trkpt lat="44.16317" lon="6.75352">
        <ele>1142.1</ele>
        <time>2022-06-12T05:57:26Z</time>
      </trkpt>
      <trkpt lat="44.16319" lon="6.75355">
        <ele>1141.2</ele>
        <time>2022-06-12T05:57:27Z</time>
      </trkpt>
      <trkpt lat="44.16322" lon="6.75358">
        <ele>1139.9</ele>
        <time>2022-06-12T05:57:28Z</time>
      </trkpt>
      <trkpt lat="44.16324" lon="6.75361">
        <ele>1138.7</ele>
        <time>2022-06-12T05:57:29Z</time>
      </trkpt>
      <trkpt lat="44.16326" lon="6.75364">
        <ele>1137.6</ele>
        <time>2022-06-12T05:57:30Z</time>
      </trkpt>
      <trkpt lat="44.16328" lon="6.75367">
        <ele>1136.5</ele>
        <time>2022-06-12T05:57:31Z</time>
      </trkpt>
      <trkpt lat="44.1633" lon="6.75371">
        <ele>1135.2</ele>
        <time>2022-06-12T05:57:32Z</time>
      </trkpt>
      <trkpt lat="44.16332" lon="6.75374">
        <ele>1134</ele>
        <time>2022-06-12T05:57:33Z</time>
      </trkpt>
      <trkpt lat="44.16334" lon="6.75377">
        <ele>1132.6</ele>
        <time>2022-06-12T05:57:34Z</time>
      </trkpt>
      <trkpt lat="44.16336" lon="6.7538">
        <ele>1131.7</ele>
        <time>2022-06-12T05:57:35Z</time>
      </trkpt>
      <trkpt lat="44.16338" lon="6.75383">
        <ele>1130.7</ele>
        <time>2022-06-12T05:57:36Z</time>
      </trkpt>
      <trkpt lat="44.1634" lon="6.75386">
        <ele>1129.8</ele>
        <time>2022-06-12T05:57:37Z</time>
      </trkpt>
      <trkpt lat="44.16342" lon="6.75389">
        <ele>1129</ele>
        <time>2022-06-12T05:57:38Z</time>
      </trkpt>
      <trkpt lat="44.16344" lon="6.75391">
        <ele>1128.7</ele>
        <time>2022-06-12T05:57:39Z</time>
      </trkpt>
      <trkpt lat="44.16347" lon="6.75393">
        <ele>1128.4</ele>
        <time>2022-06-12T05:57:40Z</time>
      </trkpt>
      <trkpt lat="44.16349" lon="6.75395">
        <ele>1128.3</ele>
        <time>2022-06-12T05:57:41Z</time>
      </trkpt>
      <trkpt lat="44.16351" lon="6.75396">
        <ele>1128.4</ele>
        <time>2022-06-12T05:57:42Z</time>
      </trkpt>
      <trkpt lat="44.16353" lon="6.75397">
        <ele>1128.4</ele>
        <time>2022-06-12T05:57:43Z</time>
      </trkpt>
      <trkpt lat="44.16356" lon="6.75397">
        <ele>1128.7</ele>
        <time>2022-06-12T05:57:44Z</time>
      </trkpt>
      <trkpt lat="44.16358" lon="6.75396">
        <ele>1129.4</ele>
        <time>2022-06-12T05:57:45Z</time>
      </trkpt>
      <trkpt lat="44.16361" lon="6.75396">
        <ele>1129.9</ele>
        <time>2022-06-12T05:57:46Z</time>
      </trkpt>
      <trkpt lat="44.16364" lon="6.75395">
        <ele>1130.3</ele>
        <time>2022-06-12T05:57:47Z</time>
      </trkpt>
      <trkpt lat="44.16367" lon="6.75394">
        <ele>1130.6</ele>
        <time>2022-06-12T05:57:48Z</time>
      </trkpt>
      <trkpt lat="44.1637" lon="6.75394">
        <ele>1130.9</ele>
        <time>2022-06-12T05:57:49Z</time>
      </trkpt>
      <trkpt lat="44.16372" lon="6.75393">
        <ele>1131.4</ele>
        <time>2022-06-12T05:57:50Z</time>
      </trkpt>
      <trkpt lat="44.16375" lon="6.75392">
        <ele>1131.8</ele>
        <time>2022-06-12T05:57:51Z</time>
      </trkpt>
      <trkpt lat="44.16379" lon="6.75391">
        <ele>1132.3</ele>
        <time>2022-06-12T05:57:52Z</time>
      </trkpt>
      <trkpt lat="44.16382" lon="6.75389">
        <ele>1132.8</ele>
        <time>2022-06-12T05:57:53Z</time>
      </trkpt>
      <trkpt lat="44.16386" lon="6.75388">
        <ele>1133.5</ele>
        <time>2022-06-12T05:57:54Z</time>
      </trkpt>
      <trkpt lat="44.16389" lon="6.75387">
        <ele>1134.3</ele>
        <time>2022-06-12T05:57:55Z</time>
      </trkpt>
      <trkpt lat="44.16392" lon="6.75385">
        <ele>1134.6</ele>
        <time>2022-06-12T05:57:56Z</time>
      </trkpt>
      <trkpt lat="44.16395" lon="6.75384">
        <ele>1134.8</ele>
        <time>2022-06-12T05:57:57Z</time>
      </trkpt>
      <trkpt lat="44.16398" lon="6.75383">
        <ele>1135.1</ele>
        <time>2022-06-12T05:57:58Z</time>
      </trkpt>
      <trkpt lat="44.16401" lon="6.75382">
        <ele>1135.3</ele>
        <time>2022-06-12T05:57:59Z</time>
      </trkpt>
      <trkpt lat="44.16404" lon="6.75381">
        <ele>1135.6</ele>
        <time>2022-06-12T05:58:00Z</time>
      </trkpt>
      <trkpt lat="44.16407" lon="6.7538">
        <ele>1135.7</ele>
        <time>2022-06-12T05:58:01Z</time>
      </trkpt>
      <trkpt lat="44.16409" lon="6.7538">
        <ele>1135.7</ele>
        <time>2022-06-12T05:58:02Z</time>
      </trkpt>
      <trkpt lat="44.16412" lon="6.75379">
        <ele>1135.6</ele>
        <time>2022-06-12T05:58:03Z</time>
      </trkpt>
      <trkpt lat="44.16416" lon="6.75378">
        <ele>1135.6</ele>
        <time>2022-06-12T05:58:04Z</time>
      </trkpt>
      <trkpt lat="44.16418" lon="6.75378">
        <ele>1135.6</ele>
        <time>2022-06-12T05:58:05Z</time>
      </trkpt>
      <trkpt lat="44.16421" lon="6.75377">
        <ele>1135.6</ele>
        <time>2022-06-12T05:58:06Z</time>
      </trkpt>
      <trkpt lat="44.16424" lon="6.75376">
        <ele>1135.7</ele>
        <time>2022-06-12T05:58:07Z</time>
      </trkpt>
      <trkpt lat="44.16427" lon="6.75375">
        <ele>1135.6</ele>
        <time>2022-06-12T05:58:08Z</time>
      </trkpt>
      <trkpt lat="44.1643" lon="6.75375">
        <ele>1135.5</ele>
        <time>2022-06-12T05:58:09Z</time>
      </trkpt>
      <trkpt lat="44.16432" lon="6.75374">
        <ele>1135.5</ele>
        <time>2022-06-12T05:58:10Z</time>
      </trkpt>
      <trkpt lat="44.16435" lon="6.75373">
        <ele>1135.6</ele>
        <time>2022-06-12T05:58:11Z</time>
      </trkpt>
      <trkpt lat="44.16438" lon="6.75372">
        <ele>1135.5</ele>
        <time>2022-06-12T05:58:12Z</time>
      </trkpt>
      <trkpt lat="44.16441" lon="6.75372">
        <ele>1135.2</ele>
        <time>2022-06-12T05:58:13Z</time>
      </trkpt>
      <trkpt lat="44.16444" lon="6.75371">
        <ele>1135.3</ele>
        <time>2022-06-12T05:58:14Z</time>
      </trkpt>
      <trkpt lat="44.16447" lon="6.7537">
        <ele>1135.3</ele>
        <time>2022-06-12T05:58:15Z</time>
      </trkpt>
      <trkpt lat="44.1645" lon="6.75369">
        <ele>1135.5</ele>
        <time>2022-06-12T05:58:16Z</time>
      </trkpt>
      <trkpt lat="44.16453" lon="6.75367">
        <ele>1136</ele>
        <time>2022-06-12T05:58:17Z</time>
      </trkpt>
      <trkpt lat="44.16456" lon="6.75366">
        <ele>1136.3</ele>
        <time>2022-06-12T05:58:18Z</time>
      </trkpt>
      <trkpt lat="44.16459" lon="6.75364">
        <ele>1136.6</ele>
        <time>2022-06-12T05:58:19Z</time>
      </trkpt>
      <trkpt lat="44.16462" lon="6.75363">
        <ele>1137</ele>
        <time>2022-06-12T05:58:20Z</time>
      </trkpt>
      <trkpt lat="44.16465" lon="6.75361">
        <ele>1137.4</ele>
        <time>2022-06-12T05:58:21Z</time>
      </trkpt>
      <trkpt lat="44.16468" lon="6.7536">
        <ele>1137.8</ele>
        <time>2022-06-12T05:58:22Z</time>
      </trkpt>
      <trkpt lat="44.16471" lon="6.75359">
        <ele>1137.8</ele>
        <time>2022-06-12T05:58:23Z</time>
      </trkpt>
      <trkpt lat="44.16474" lon="6.75358">
        <ele>1138.1</ele>
        <time>2022-06-12T05:58:24Z</time>
      </trkpt>
      <trkpt lat="44.16477" lon="6.75357">
        <ele>1138</ele>
        <time>2022-06-12T05:58:25Z</time>
      </trkpt>
      <trkpt lat="44.1648" lon="6.75356">
        <ele>1137.9</ele>
        <time>2022-06-12T05:58:26Z</time>
      </trkpt>
      <trkpt lat="44.16483" lon="6.75355">
        <ele>1138</ele>
        <time>2022-06-12T05:58:27Z</time>
      </trkpt>
      <trkpt lat="44.16486" lon="6.75354">
        <ele>1138.2</ele>
        <time>2022-06-12T05:58:28Z</time>
      </trkpt>
      <trkpt lat="44.16489" lon="6.75353">
        <ele>1138.5</ele>
        <time>2022-06-12T05:58:29Z</time>
      </trkpt>
      <trkpt lat="44.16492" lon="6.75351">
        <ele>1138.8</ele>
        <time>2022-06-12T05:58:30Z</time>
      </trkpt>
      <trkpt lat="44.16495" lon="6.7535">
        <ele>1139.1</ele>
        <time>2022-06-12T05:58:31Z</time>
      </trkpt>
      <trkpt lat="44.16498" lon="6.75349">
        <ele>1139.4</ele>
        <time>2022-06-12T05:58:32Z</time>
      </trkpt>
      <trkpt lat="44.16501" lon="6.75348">
        <ele>1139.5</ele>
        <time>2022-06-12T05:58:33Z</time>
      </trkpt>
      <trkpt lat="44.16504" lon="6.75347">
        <ele>1139.5</ele>
        <time>2022-06-12T05:58:34Z</time>
      </trkpt>
      <trkpt lat="44.16507" lon="6.75346">
        <ele>1139.5</ele>
        <time>2022-06-12T05:58:35Z</time>
      </trkpt>
      <trkpt lat="44.16511" lon="6.75345">
        <ele>1139.7</ele>
        <time>2022-06-12T05:58:36Z</time>
      </trkpt>
      <trkpt lat="44.16514" lon="6.75344">
        <ele>1140</ele>
        <time>2022-06-12T05:58:37Z</time>
      </trkpt>
      <trkpt lat="44.16516" lon="6.75343">
        <ele>1140.3</ele>
        <time>2022-06-12T05:58:38Z</time>
      </trkpt>
      <trkpt lat="44.16519" lon="6.75342">
        <ele>1140.5</ele>
        <time>2022-06-12T05:58:39Z</time>
      </trkpt>
      <trkpt lat="44.16522" lon="6.75341">
        <ele>1140.7</ele>
        <time>2022-06-12T05:58:40Z</time>
      </trkpt>
      <trkpt lat="44.16524" lon="6.7534">
        <ele>1140.7</ele>
        <time>2022-06-12T05:58:41Z</time>
      </trkpt>
      <trkpt lat="44.16527" lon="6.75339">
        <ele>1140.8</ele>
        <time>2022-06-12T05:58:42Z</time>
      </trkpt>
      <trkpt lat="44.1653" lon="6.75338">
        <ele>1140.9</ele>
        <time>2022-06-12T05:58:43Z</time>
      </trkpt>
      <trkpt lat="44.16533" lon="6.75337">
        <ele>1141</ele>
        <time>2022-06-12T05:58:44Z</time>
      </trkpt>
      <trkpt lat="44.16536" lon="6.75337">
        <ele>1141.1</ele>
        <time>2022-06-12T05:58:45Z</time>
      </trkpt>
      <trkpt lat="44.16538" lon="6.75336">
        <ele>1141.3</ele>
        <time>2022-06-12T05:58:46Z</time>
      </trkpt>
      <trkpt lat="44.16541" lon="6.75335">
        <ele>1141.1</ele>
        <time>2022-06-12T05:58:47Z</time>
      </trkpt>
      <trkpt lat="44.16544" lon="6.75335">
        <ele>1141</ele>
        <time>2022-06-12T05:58:48Z</time>
      </trkpt>
      <trkpt lat="44.16547" lon="6.75334">
        <ele>1140.7</ele>
        <time>2022-06-12T05:58:49Z</time>
      </trkpt>
      <trkpt lat="44.1655" lon="6.75334">
        <ele>1140.5</ele>
        <time>2022-06-12T05:58:50Z</time>
      </trkpt>
      <trkpt lat="44.16552" lon="6.75334">
        <ele>1140.2</ele>
        <time>2022-06-12T05:58:51Z</time>
      </trkpt>
      <trkpt lat="44.16555" lon="6.75333">
        <ele>1140.2</ele>
        <time>2022-06-12T05:58:52Z</time>
      </trkpt>
      <trkpt lat="44.16558" lon="6.75332">
        <ele>1140.3</ele>
        <time>2022-06-12T05:58:53Z</time>
      </trkpt>
      <trkpt lat="44.16561" lon="6.75332">
        <ele>1140.1</ele>
        <time>2022-06-12T05:58:54Z</time>
      </trkpt>
      <trkpt lat="44.16563" lon="6.75332">
        <ele>1139.9</ele>
        <time>2022-06-12T05:58:55Z</time>
      </trkpt>
      <trkpt lat="44.16566" lon="6.75331">
        <ele>1139.8</ele>
        <time>2022-06-12T05:58:56Z</time>
      </trkpt>
      <trkpt lat="44.16569" lon="6.75331">
        <ele>1139.9</ele>
        <time>2022-06-12T05:58:57Z</time>
      </trkpt>
      <trkpt lat="44.16571" lon="6.7533">
        <ele>1140.1</ele>
        <time>2022-06-12T05:58:58Z</time>
      </trkpt>
      <trkpt lat="44.16574" lon="6.75329">
        <ele>1140.3</ele>
        <time>2022-06-12T05:58:59Z</time>
      </trkpt>
      <trkpt lat="44.16577" lon="6.75328">
        <ele>1140.3</ele>
        <time>2022-06-12T05:59:00Z</time>
      </trkpt>
      <trkpt lat="44.1658" lon="6.75327">
        <ele>1140.5</ele>
        <time>2022-06-12T05:59:01Z</time>
      </trkpt>
      <trkpt lat="44.16583" lon="6.75326">
        <ele>1140.8</ele>
        <time>2022-06-12T05:59:02Z</time>
      </trkpt>
      <trkpt lat="44.16586" lon="6.75324">
        <ele>1141.4</ele>
        <time>2022-06-12T05:59:03Z</time>
      </trkpt>
      <trkpt lat="44.16588" lon="6.75323">
        <ele>1141.9</ele>
        <time>2022-06-12T05:59:04Z</time>
      </trkpt>
      <trkpt lat="44.16591" lon="6.75322">
        <ele>1142</ele>
        <time>2022-06-12T05:59:05Z</time>
      </trkpt>
      <trkpt lat="44.16594" lon="6.7532">
        <ele>1142.3</ele>
        <time>2022-06-12T05:59:06Z</time>
      </trkpt>
      <trkpt lat="44.16597" lon="6.75319">
        <ele>1142.7</ele>
        <time>2022-06-12T05:59:07Z</time>
      </trkpt>
      <trkpt lat="44.16599" lon="6.75317">
        <ele>1143.4</ele>
        <time>2022-06-12T05:59:08Z</time>
      </trkpt>
      <trkpt lat="44.16602" lon="6.75315">
        <ele>1143.9</ele>
        <time>2022-06-12T05:59:09Z</time>
      </trkpt>
      <trkpt lat="44.16605" lon="6.75313">
        <ele>1144.4</ele>
        <time>2022-06-12T05:59:10Z</time>
      </trkpt>
      <trkpt lat="44.16608" lon="6.75311">
        <ele>1145.1</ele>
        <time>2022-06-12T05:59:11Z</time>
      </trkpt>
      <trkpt lat="44.1661" lon="6.75309">
        <ele>1145.6</ele>
        <time>2022-06-12T05:59:12Z</time>
      </trkpt>
      <trkpt lat="44.16613" lon="6.75307">
        <ele>1146.2</ele>
        <time>2022-06-12T05:59:13Z</time>
      </trkpt>
      <trkpt lat="44.16616" lon="6.75304">
        <ele>1147.2</ele>
        <time>2022-06-12T05:59:14Z</time>
      </trkpt>
      <trkpt lat="44.16618" lon="6.75301">
        <ele>1148.1</ele>
        <time>2022-06-12T05:59:15Z</time>
      </trkpt>
      <trkpt lat="44.16621" lon="6.75299">
        <ele>1148.7</ele>
        <time>2022-06-12T05:59:16Z</time>
      </trkpt>
      <trkpt lat="44.16624" lon="6.75297">
        <ele>1149.4</ele>
        <time>2022-06-12T05:59:17Z</time>
      </trkpt>
      <trkpt lat="44.16626" lon="6.75295">
        <ele>1150</ele>
        <time>2022-06-12T05:59:18Z</time>
      </trkpt>
      <trkpt lat="44.16629" lon="6.75293">
        <ele>1150.5</ele>
        <time>2022-06-12T05:59:19Z</time>
      </trkpt>
      <trkpt lat="44.16631" lon="6.75291">
        <ele>1151</ele>
        <time>2022-06-12T05:59:20Z</time>
      </trkpt>
      <trkpt lat="44.16633" lon="6.75289">
        <ele>1151.2</ele>
        <time>2022-06-12T05:59:21Z</time>
      </trkpt>
      <trkpt lat="44.16635" lon="6.75287">
        <ele>1151.6</ele>
        <time>2022-06-12T05:59:22Z</time>
      </trkpt>
      <trkpt lat="44.16637" lon="6.75286">
        <ele>1151.9</ele>
        <time>2022-06-12T05:59:23Z</time>
      </trkpt>
      <trkpt lat="44.1664" lon="6.75284">
        <ele>1151.9</ele>
        <time>2022-06-12T05:59:24Z</time>
      </trkpt>
      <trkpt lat="44.16642" lon="6.75283">
        <ele>1151.8</ele>
        <time>2022-06-12T05:59:25Z</time>
      </trkpt>
      <trkpt lat="44.16645" lon="6.75282">
        <ele>1151.6</ele>
        <time>2022-06-12T05:59:26Z</time>
      </trkpt>
      <trkpt lat="44.16648" lon="6.7528">
        <ele>1151.7</ele>
        <time>2022-06-12T05:59:27Z</time>
      </trkpt>
      <trkpt lat="44.1665" lon="6.75279">
        <ele>1151.9</ele>
        <time>2022-06-12T05:59:28Z</time>
      </trkpt>
      <trkpt lat="44.16653" lon="6.75277">
        <ele>1151.9</ele>
        <time>2022-06-12T05:59:29Z</time>
      </trkpt>
      <trkpt lat="44.16655" lon="6.75276">
        <ele>1152</ele>
        <time>2022-06-12T05:59:30Z</time>
      </trkpt>
      <trkpt lat="44.16658" lon="6.75274">
        <ele>1152.3</ele>
        <time>2022-06-12T05:59:31Z</time>
      </trkpt>
      <trkpt lat="44.1666" lon="6.75272">
        <ele>1152.5</ele>
        <time>2022-06-12T05:59:32Z</time>
      </trkpt>
      <trkpt lat="44.16663" lon="6.75271">
        <ele>1152.5</ele>
        <time>2022-06-12T05:59:33Z</time>
      </trkpt>
      <trkpt lat="44.16665" lon="6.75269">
        <ele>1152.4</ele>
        <time>2022-06-12T05:59:34Z</time>
      </trkpt>
      <trkpt lat="44.16667" lon="6.75267">
        <ele>1152.8</ele>
        <time>2022-06-12T05:59:35Z</time>
      </trkpt>
      <trkpt lat="44.1667" lon="6.75265">
        <ele>1153</ele>
        <time>2022-06-12T05:59:36Z</time>
      </trkpt>
      <trkpt lat="44.16673" lon="6.75264">
        <ele>1153.2</ele>
        <time>2022-06-12T05:59:37Z</time>
      </trkpt>
      <trkpt lat="44.16676" lon="6.75262">
        <ele>1153.4</ele>
        <time>2022-06-12T05:59:38Z</time>
      </trkpt>
      <trkpt lat="44.16679" lon="6.7526">
        <ele>1153.1</ele>
        <time>2022-06-12T05:59:39Z</time>
      </trkpt>
      <trkpt lat="44.16682" lon="6.75258">
        <ele>1153.2</ele>
        <time>2022-06-12T05:59:40Z</time>
      </trkpt>
      <trkpt lat="44.16685" lon="6.75256">
        <ele>1153.4</ele>
        <time>2022-06-12T05:59:41Z</time>
      </trkpt>
      <trkpt lat="44.16688" lon="6.75254">
        <ele>1153.4</ele>
        <time>2022-06-12T05:59:42Z</time>
      </trkpt>
      <trkpt lat="44.16691" lon="6.75252">
        <ele>1153.2</ele>
        <time>2022-06-12T05:59:43Z</time>
      </trkpt>
      <trkpt lat="44.16694" lon="6.75251">
        <ele>1152.9</ele>
        <time>2022-06-12T05:59:44Z</time>
      </trkpt>
      <trkpt lat="44.16697" lon="6.75249">
        <ele>1152.7</ele>
        <time>2022-06-12T05:59:45Z</time>
      </trkpt>
      <trkpt lat="44.167" lon="6.75248">
        <ele>1152.4</ele>
        <time>2022-06-12T05:59:46Z</time>
      </trkpt>
      <trkpt lat="44.16703" lon="6.75246">
        <ele>1152.3</ele>
        <time>2022-06-12T05:59:47Z</time>
      </trkpt>
      <trkpt lat="44.16705" lon="6.75244">
        <ele>1152.3</ele>
        <time>2022-06-12T05:59:48Z</time>
      </trkpt>
      <trkpt lat="44.16708" lon="6.75241">
        <ele>1152.4</ele>
        <time>2022-06-12T05:59:49Z</time>
      </trkpt>
      <trkpt lat="44.16711" lon="6.75239">
        <ele>1152.3</ele>
        <time>2022-06-12T05:59:50Z</time>
      </trkpt>
      <trkpt lat="44.16713" lon="6.75236">
        <ele>1152.5</ele>
        <time>2022-06-12T05:59:51Z</time>
      </trkpt>
      <trkpt lat="44.16715" lon="6.75234">
        <ele>1152.7</ele>
        <time>2022-06-12T05:59:52Z</time>
      </trkpt>
      <trkpt lat="44.16717" lon="6.75231">
        <ele>1153</ele>
        <time>2022-06-12T05:59:53Z</time>
      </trkpt>
      <trkpt lat="44.1672" lon="6.75227">
        <ele>1153.2</ele>
        <time>2022-06-12T05:59:54Z</time>
      </trkpt>
      <trkpt lat="44.16722" lon="6.75224">
        <ele>1153.5</ele>
        <time>2022-06-12T05:59:55Z</time>
      </trkpt>
      <trkpt lat="44.16725" lon="6.75222">
        <ele>1153.7</ele>
        <time>2022-06-12T05:59:56Z</time>
      </trkpt>
      <trkpt lat="44.16727" lon="6.75219">
        <ele>1154.2</ele>
        <time>2022-06-12T05:59:57Z</time>
      </trkpt>
      <trkpt lat="44.1673" lon="6.75216">
        <ele>1154.4</ele>
        <time>2022-06-12T05:59:58Z</time>
      </trkpt>
      <trkpt lat="44.16733" lon="6.75214">
        <ele>1154.7</ele>
        <time>2022-06-12T05:59:59Z</time>
      </trkpt>
      <trkpt lat="44.16736" lon="6.75212">
        <ele>1154.8</ele>
        <time>2022-06-12T06:00:00Z</time>
      </trkpt>
      <trkpt lat="44.16738" lon="6.7521">
        <ele>1154.9</ele>
        <time>2022-06-12T06:00:01Z</time>
      </trkpt>
      <trkpt lat="44.16741" lon="6.75208">
        <ele>1155.1</ele>
        <time>2022-06-12T06:00:02Z</time>
      </trkpt>
      <trkpt lat="44.16744" lon="6.75206">
        <ele>1155.3</ele>
        <time>2022-06-12T06:00:03Z</time>
      </trkpt>
      <trkpt lat="44.16747" lon="6.75204">
        <ele>1155.4</ele>
        <time>2022-06-12T06:00:04Z</time>
      </trkpt>
      <trkpt lat="44.16749" lon="6.75202">
        <ele>1155.6</ele>
        <time>2022-06-12T06:00:05Z</time>
      </trkpt>
      <trkpt lat="44.16752" lon="6.75201">
        <ele>1155.7</ele>
        <time>2022-06-12T06:00:06Z</time>
      </trkpt>
      <trkpt lat="44.16755" lon="6.75199">
        <ele>1155.9</ele>
        <time>2022-06-12T06:00:07Z</time>
      </trkpt>
      <trkpt lat="44.16758" lon="6.75198">
        <ele>1156</ele>
        <time>2022-06-12T06:00:08Z</time>
      </trkpt>
      <trkpt lat="44.16761" lon="6.75196">
        <ele>1156.2</ele>
        <time>2022-06-12T06:00:09Z</time>
      </trkpt>
      <trkpt lat="44.16764" lon="6.75195">
        <ele>1156.4</ele>
        <time>2022-06-12T06:00:10Z</time>
      </trkpt>
      <trkpt lat="44.16767" lon="6.75193">
        <ele>1156.7</ele>
        <time>2022-06-12T06:00:11Z</time>
      </trkpt>
      <trkpt lat="44.1677" lon="6.75191">
        <ele>1157.3</ele>
        <time>2022-06-12T06:00:12Z</time>
      </trkpt>
      <trkpt lat="44.16773" lon="6.7519">
        <ele>1157.6</ele>
        <time>2022-06-12T06:00:13Z</time>
      </trkpt>
      <trkpt lat="44.16776" lon="6.75189">
        <ele>1157.7</ele>
        <time>2022-06-12T06:00:14Z</time>
      </trkpt>
      <trkpt lat="44.16779" lon="6.75188">
        <ele>1157.5</ele>
        <time>2022-06-12T06:00:15Z</time>
      </trkpt>
      <trkpt lat="44.16782" lon="6.75188">
        <ele>1157.1</ele>
        <time>2022-06-12T06:00:16Z</time>
      </trkpt>
      <trkpt lat="44.16785" lon="6.75188">
        <ele>1156.8</ele>
        <time>2022-06-12T06:00:17Z</time>
      </trkpt>
      <trkpt lat="44.16788" lon="6.75187">
        <ele>1156.8</ele>
        <time>2022-06-12T06:00:18Z</time>
      </trkpt>
      <trkpt lat="44.16791" lon="6.75185">
        <ele>1156.9</ele>
        <time>2022-06-12T06:00:19Z</time>
      </trkpt>
      <trkpt lat="44.16794" lon="6.75184">
        <ele>1157</ele>
        <time>2022-06-12T06:00:20Z</time>
      </trkpt>
      <trkpt lat="44.16797" lon="6.75182">
        <ele>1157.3</ele>
        <time>2022-06-12T06:00:21Z</time>
      </trkpt>
      <trkpt lat="44.168" lon="6.75181">
        <ele>1157.5</ele>
        <time>2022-06-12T06:00:22Z</time>
      </trkpt>
      <trkpt lat="44.16803" lon="6.75179">
        <ele>1157.7</ele>
        <time>2022-06-12T06:00:23Z</time>
      </trkpt>
      <trkpt lat="44.16806" lon="6.75178">
        <ele>1157.8</ele>
        <time>2022-06-12T06:00:24Z</time>
      </trkpt>
      <trkpt lat="44.16808" lon="6.75177">
        <ele>1158</ele>
        <time>2022-06-12T06:00:25Z</time>
      </trkpt>
      <trkpt lat="44.16811" lon="6.75175">
        <ele>1158.2</ele>
        <time>2022-06-12T06:00:26Z</time>
      </trkpt>
      <trkpt lat="44.16814" lon="6.75174">
        <ele>1158.3</ele>
        <time>2022-06-12T06:00:27Z</time>
      </trkpt>
      <trkpt lat="44.16817" lon="6.75173">
        <ele>1158.3</ele>
        <time>2022-06-12T06:00:28Z</time>
      </trkpt>
      <trkpt lat="44.1682" lon="6.75172">
        <ele>1158.4</ele>
        <time>2022-06-12T06:00:29Z</time>
      </trkpt>
      <trkpt lat="44.16823" lon="6.75171">
        <ele>1158.6</ele>
        <time>2022-06-12T06:00:30Z</time>
      </trkpt>
      <trkpt lat="44.16826" lon="6.7517">
        <ele>1158.7</ele>
        <time>2022-06-12T06:00:31Z</time>
      </trkpt>
      <trkpt lat="44.16829" lon="6.75168">
        <ele>1158.9</ele>
        <time>2022-06-12T06:00:32Z</time>
      </trkpt>
      <trkpt lat="44.16832" lon="6.75167">
        <ele>1159.2</ele>
        <time>2022-06-12T06:00:33Z</time>
      </trkpt>
      <trkpt lat="44.16835" lon="6.75166">
        <ele>1159.5</ele>
        <time>2022-06-12T06:00:34Z</time>
      </trkpt>
      <trkpt lat="44.16838" lon="6.75164">
        <ele>1160.1</ele>
        <time>2022-06-12T06:00:35Z</time>
      </trkpt>
      <trkpt lat="44.16841" lon="6.75163">
        <ele>1160.4</ele>
        <time>2022-06-12T06:00:36Z</time>
      </trkpt>
      <trkpt lat="44.16844" lon="6.75163">
        <ele>1160.6</ele>
        <time>2022-06-12T06:00:37Z</time>
      </trkpt>
      <trkpt lat="44.16846" lon="6.75162">
        <ele>1160.8</ele>
        <time>2022-06-12T06:00:38Z</time>
      </trkpt>
      <trkpt lat="44.16849" lon="6.75162">
        <ele>1161</ele>
        <time>2022-06-12T06:00:39Z</time>
      </trkpt>
      <trkpt lat="44.16852" lon="6.75162">
        <ele>1160.9</ele>
        <time>2022-06-12T06:00:40Z</time>
      </trkpt>
      <trkpt lat="44.16855" lon="6.75161">
        <ele>1160.9</ele>
        <time>2022-06-12T06:00:41Z</time>
      </trkpt>
      <trkpt lat="44.16858" lon="6.75161">
        <ele>1161.1</ele>
        <time>2022-06-12T06:00:42Z</time>
      </trkpt>
      <trkpt lat="44.16861" lon="6.75161">
        <ele>1161</ele>
        <time>2022-06-12T06:00:43Z</time>
      </trkpt>
      <trkpt lat="44.16864" lon="6.75161">
        <ele>1161.1</ele>
        <time>2022-06-12T06:00:44Z</time>
      </trkpt>
      <trkpt lat="44.16867" lon="6.7516">
        <ele>1161.3</ele>
        <time>2022-06-12T06:00:45Z</time>
      </trkpt>
      <trkpt lat="44.1687" lon="6.7516">
        <ele>1161.4</ele>
        <time>2022-06-12T06:00:46Z</time>
      </trkpt>
      <trkpt lat="44.16873" lon="6.7516">
        <ele>1161.7</ele>
        <time>2022-06-12T06:00:47Z</time>
      </trkpt>
      <trkpt lat="44.16876" lon="6.7516">
        <ele>1161.9</ele>
        <time>2022-06-12T06:00:48Z</time>
      </trkpt>
      <trkpt lat="44.16878" lon="6.75159">
        <ele>1162</ele>
        <time>2022-06-12T06:00:49Z</time>
      </trkpt>
      <trkpt lat="44.16881" lon="6.75159">
        <ele>1162.2</ele>
        <time>2022-06-12T06:00:50Z</time>
      </trkpt>
      <trkpt lat="44.16884" lon="6.75159">
        <ele>1162.4</ele>
        <time>2022-06-12T06:00:51Z</time>
      </trkpt>
      <trkpt lat="44.16888" lon="6.75159">
        <ele>1162.5</ele>
        <time>2022-06-12T06:00:52Z</time>
      </trkpt>
      <trkpt lat="44.16891" lon="6.75159">
        <ele>1162.5</ele>
        <time>2022-06-12T06:00:53Z</time>
      </trkpt>
      <trkpt lat="44.16894" lon="6.75159">
        <ele>1162.7</ele>
        <time>2022-06-12T06:00:54Z</time>
      </trkpt>
      <trkpt lat="44.16897" lon="6.75158">
        <ele>1162.9</ele>
        <time>2022-06-12T06:00:55Z</time>
      </trkpt>
      <trkpt lat="44.169" lon="6.75158">
        <ele>1163</ele>
        <time>2022-06-12T06:00:56Z</time>
      </trkpt>
      <trkpt lat="44.16903" lon="6.75158">
        <ele>1163.2</ele>
        <time>2022-06-12T06:00:57Z</time>
      </trkpt>
      <trkpt lat="44.16906" lon="6.75158">
        <ele>1163.4</ele>
        <time>2022-06-12T06:00:58Z</time>
      </trkpt>
      <trkpt lat="44.16909" lon="6.75157">
        <ele>1163.8</ele>
        <time>2022-06-12T06:00:59Z</time>
      </trkpt>
      <trkpt lat="44.16911" lon="6.75157">
        <ele>1164</ele>
        <time>2022-06-12T06:01:00Z</time>
      </trkpt>
      <trkpt lat="44.16914" lon="6.75157">
        <ele>1164.2</ele>
        <time>2022-06-12T06:01:01Z</time>
      </trkpt>
      <trkpt lat="44.16917" lon="6.75157">
        <ele>1164.4</ele>
        <time>2022-06-12T06:01:02Z</time>
      </trkpt>
      <trkpt lat="44.1692" lon="6.75156">
        <ele>1164.7</ele>
        <time>2022-06-12T06:01:03Z</time>
      </trkpt>
      <trkpt lat="44.16923" lon="6.75156">
        <ele>1164.9</ele>
        <time>2022-06-12T06:01:04Z</time>
      </trkpt>
      <trkpt lat="44.16926" lon="6.75155">
        <ele>1165.4</ele>
        <time>2022-06-12T06:01:05Z</time>
      </trkpt>
      <trkpt lat="44.16929" lon="6.75154">
        <ele>1165.9</ele>
        <time>2022-06-12T06:01:06Z</time>
      </trkpt>
      <trkpt lat="44.16931" lon="6.75153">
        <ele>1166.3</ele>
        <time>2022-06-12T06:01:07Z</time>
      </trkpt>
      <trkpt lat="44.16934" lon="6.75152">
        <ele>1166.8</ele>
        <time>2022-06-12T06:01:08Z</time>
      </trkpt>
      <trkpt lat="44.16938" lon="6.75152">
        <ele>1167.2</ele>
        <time>2022-06-12T06:01:09Z</time>
      </trkpt>
      <trkpt lat="44.16941" lon="6.75152">
        <ele>1167.4</ele>
        <time>2022-06-12T06:01:10Z</time>
      </trkpt>
      <trkpt lat="44.16944" lon="6.75152">
        <ele>1167.5</ele>
        <time>2022-06-12T06:01:11Z</time>
      </trkpt>
      <trkpt lat="44.16947" lon="6.75152">
        <ele>1167.5</ele>
        <time>2022-06-12T06:01:12Z</time>
      </trkpt>
      <trkpt lat="44.1695" lon="6.75152">
        <ele>1167.3</ele>
        <time>2022-06-12T06:01:13Z</time>
      </trkpt>
      <trkpt lat="44.16952" lon="6.75152">
        <ele>1167.2</ele>
        <time>2022-06-12T06:01:14Z</time>
      </trkpt>
      <trkpt lat="44.16955" lon="6.75153">
        <ele>1167.1</ele>
        <time>2022-06-12T06:01:15Z</time>
      </trkpt>
      <trkpt lat="44.16957" lon="6.75154">
        <ele>1166.7</ele>
        <time>2022-06-12T06:01:16Z</time>
      </trkpt>
      <trkpt lat="44.1696" lon="6.75155">
        <ele>1166.3</ele>
        <time>2022-06-12T06:01:17Z</time>
      </trkpt>
      <trkpt lat="44.16962" lon="6.75155">
        <ele>1165.9</ele>
        <time>2022-06-12T06:01:18Z</time>
      </trkpt>
      <trkpt lat="44.16964" lon="6.75156">
        <ele>1165.6</ele>
        <time>2022-06-12T06:01:19Z</time>
      </trkpt>
      <trkpt lat="44.16967" lon="6.75156">
        <ele>1165.6</ele>
        <time>2022-06-12T06:01:20Z</time>
      </trkpt>
      <trkpt lat="44.1697" lon="6.75156">
        <ele>1165.6</ele>
        <time>2022-06-12T06:01:21Z</time>
      </trkpt>
      <trkpt lat="44.16973" lon="6.75156">
        <ele>1165.7</ele>
        <time>2022-06-12T06:01:22Z</time>
      </trkpt>
      <trkpt lat="44.16976" lon="6.75156">
        <ele>1165.7</ele>
        <time>2022-06-12T06:01:23Z</time>
      </trkpt>
      <trkpt lat="44.16978" lon="6.75156">
        <ele>1165.6</ele>
        <time>2022-06-12T06:01:24Z</time>
      </trkpt>
      <trkpt lat="44.16981" lon="6.75155">
        <ele>1165.7</ele>
        <time>2022-06-12T06:01:25Z</time>
      </trkpt>
      <trkpt lat="44.16984" lon="6.75155">
        <ele>1165.8</ele>
        <time>2022-06-12T06:01:26Z</time>
      </trkpt>
      <trkpt lat="44.16988" lon="6.75154">
        <ele>1165.9</ele>
        <time>2022-06-12T06:01:27Z</time>
      </trkpt>
      <trkpt lat="44.16992" lon="6.75154">
        <ele>1166</ele>
        <time>2022-06-12T06:01:28Z</time>
      </trkpt>
      <trkpt lat="44.16995" lon="6.75153">
        <ele>1166.3</ele>
        <time>2022-06-12T06:01:29Z</time>
      </trkpt>
      <trkpt lat="44.16999" lon="6.75152">
        <ele>1166.6</ele>
        <time>2022-06-12T06:01:30Z</time>
      </trkpt>
      <trkpt lat="44.17002" lon="6.75151">
        <ele>1166.7</ele>
        <time>2022-06-12T06:01:31Z</time>
      </trkpt>
      <trkpt lat="44.17005" lon="6.7515">
        <ele>1166.6</ele>
        <time>2022-06-12T06:01:32Z</time>
      </trkpt>
      <trkpt lat="44.17008" lon="6.75149">
        <ele>1166.6</ele>
        <time>2022-06-12T06:01:33Z</time>
      </trkpt>
      <trkpt lat="44.17012" lon="6.75148">
        <ele>1166.6</ele>
        <time>2022-06-12T06:01:34Z</time>
      </trkpt>
      <trkpt lat="44.17014" lon="6.75147">
        <ele>1166.9</ele>
        <time>2022-06-12T06:01:35Z</time>
      </trkpt>
      <trkpt lat="44.17017" lon="6.75146">
        <ele>1167</ele>
        <time>2022-06-12T06:01:36Z</time>
      </trkpt>
      <trkpt lat="44.1702" lon="6.75145">
        <ele>1167.1</ele>
        <time>2022-06-12T06:01:37Z</time>
      </trkpt>
      <trkpt lat="44.17023" lon="6.75144">
        <ele>1167.3</ele>
        <time>2022-06-12T06:01:38Z</time>
      </trkpt>
      <trkpt lat="44.17026" lon="6.75143">
        <ele>1167.4</ele>
        <time>2022-06-12T06:01:39Z</time>
      </trkpt>
      <trkpt lat="44.17029" lon="6.75142">
        <ele>1167.5</ele>
        <time>2022-06-12T06:01:40Z</time>
      </trkpt>
      <trkpt lat="44.17032" lon="6.7514">
        <ele>1167.7</ele>
        <time>2022-06-12T06:01:41Z</time>
      </trkpt>
      <trkpt lat="44.17035" lon="6.75139">
        <ele>1167.8</ele>
        <time>2022-06-12T06:01:42Z</time>
      </trkpt>
      <trkpt lat="44.17038" lon="6.75138">
        <ele>1167.7</ele>
        <time>2022-06-12T06:01:43Z</time>
      </trkpt>
      <trkpt lat="44.17041" lon="6.75137">
        <ele>1167.6</ele>
        <time>2022-06-12T06:01:44Z</time>
      </trkpt>
      <trkpt lat="44.17043" lon="6.75136">
        <ele>1167.6</ele>
        <time>2022-06-12T06:01:45Z</time>
      </trkpt>
      <trkpt lat="44.17046" lon="6.75135">
        <ele>1167.6</ele>
        <time>2022-06-12T06:01:46Z</time>
      </trkpt>
      <trkpt lat="44.17049" lon="6.75134">
        <ele>1167.5</ele>
        <time>2022-06-12T06:01:47Z</time>
      </trkpt>
      <trkpt lat="44.17052" lon="6.75133">
        <ele>1167.4</ele>
        <time>2022-06-12T06:01:48Z</time>
      </trkpt>
      <trkpt lat="44.17055" lon="6.75132">
        <ele>1167.4</ele>
        <time>2022-06-12T06:01:49Z</time>
      </trkpt>
      <trkpt lat="44.17057" lon="6.7513">
        <ele>1167.5</ele>
        <time>2022-06-12T06:01:50Z</time>
      </trkpt>
      <trkpt lat="44.1706" lon="6.75129">
        <ele>1167.6</ele>
        <time>2022-06-12T06:01:51Z</time>
      </trkpt>
      <trkpt lat="44.17063" lon="6.75127">
        <ele>1167.8</ele>
        <time>2022-06-12T06:01:52Z</time>
      </trkpt>
      <trkpt lat="44.17066" lon="6.75126">
        <ele>1168</ele>
        <time>2022-06-12T06:01:53Z</time>
      </trkpt>
      <trkpt lat="44.17068" lon="6.75124">
        <ele>1168.3</ele>
        <time>2022-06-12T06:01:54Z</time>
      </trkpt>
      <trkpt lat="44.17071" lon="6.75122">
        <ele>1168.7</ele>
        <time>2022-06-12T06:01:55Z</time>
      </trkpt>
      <trkpt lat="44.17074" lon="6.7512">
        <ele>1168.9</ele>
        <time>2022-06-12T06:01:56Z</time>
      </trkpt>
      <trkpt lat="44.17076" lon="6.75118">
        <ele>1169.1</ele>
        <time>2022-06-12T06:01:57Z</time>
      </trkpt>
      <trkpt lat="44.17079" lon="6.75116">
        <ele>1169.3</ele>
        <time>2022-06-12T06:01:58Z</time>
      </trkpt>
      <trkpt lat="44.17082" lon="6.75113">
        <ele>1169.5</ele>
        <time>2022-06-12T06:01:59Z</time>
      </trkpt>
      <trkpt lat="44.17085" lon="6.75111">
        <ele>1169.8</ele>
        <time>2022-06-12T06:02:00Z</time>
      </trkpt>
      <trkpt lat="44.17088" lon="6.75109">
        <ele>1170.1</ele>
        <time>2022-06-12T06:02:01Z</time>
      </trkpt>
      <trkpt lat="44.1709" lon="6.75107">
        <ele>1170.2</ele>
        <time>2022-06-12T06:02:02Z</time>
      </trkpt>
      <trkpt lat="44.17093" lon="6.75106">
        <ele>1170.3</ele>
        <time>2022-06-12T06:02:03Z</time>
      </trkpt>
      <trkpt lat="44.17096" lon="6.75105">
        <ele>1170.2</ele>
        <time>2022-06-12T06:02:04Z</time>
      </trkpt>
      <trkpt lat="44.17099" lon="6.75104">
        <ele>1170</ele>
        <time>2022-06-12T06:02:05Z</time>
      </trkpt>
      <trkpt lat="44.17101" lon="6.75103">
        <ele>1169.8</ele>
        <time>2022-06-12T06:02:06Z</time>
      </trkpt>
      <trkpt lat="44.17104" lon="6.75104">
        <ele>1169.2</ele>
        <time>2022-06-12T06:02:07Z</time>
      </trkpt>
      <trkpt lat="44.17107" lon="6.75104">
        <ele>1168.7</ele>
        <time>2022-06-12T06:02:08Z</time>
      </trkpt>
      <trkpt lat="44.1711" lon="6.75104">
        <ele>1168.2</ele>
        <time>2022-06-12T06:02:09Z</time>
      </trkpt>
      <trkpt lat="44.17113" lon="6.75104">
        <ele>1168</ele>
        <time>2022-06-12T06:02:10Z</time>
      </trkpt>
      <trkpt lat="44.17116" lon="6.75103">
        <ele>1167.8</ele>
        <time>2022-06-12T06:02:11Z</time>
      </trkpt>
      <trkpt lat="44.17119" lon="6.75103">
        <ele>1167.7</ele>
        <time>2022-06-12T06:02:12Z</time>
      </trkpt>
      <trkpt lat="44.17122" lon="6.75101">
        <ele>1167.8</ele>
        <time>2022-06-12T06:02:13Z</time>
      </trkpt>
      <trkpt lat="44.17125" lon="6.751">
        <ele>1167.8</ele>
        <time>2022-06-12T06:02:14Z</time>
      </trkpt>
      <trkpt lat="44.17128" lon="6.75098">
        <ele>1168.1</ele>
        <time>2022-06-12T06:02:15Z</time>
      </trkpt>
      <trkpt lat="44.1713" lon="6.75096">
        <ele>1168.3</ele>
        <time>2022-06-12T06:02:16Z</time>
      </trkpt>
      <trkpt lat="44.17133" lon="6.75094">
        <ele>1168.6</ele>
        <time>2022-06-12T06:02:17Z</time>
      </trkpt>
      <trkpt lat="44.17136" lon="6.75092">
        <ele>1169</ele>
        <time>2022-06-12T06:02:18Z</time>
      </trkpt>
      <trkpt lat="44.17139" lon="6.7509">
        <ele>1169.2</ele>
        <time>2022-06-12T06:02:19Z</time>
      </trkpt>
      <trkpt lat="44.17141" lon="6.75088">
        <ele>1169.4</ele>
        <time>2022-06-12T06:02:20Z</time>
      </trkpt>
      <trkpt lat="44.17144" lon="6.75086">
        <ele>1169.6</ele>
        <time>2022-06-12T06:02:21Z</time>
      </trkpt>
      <trkpt lat="44.17146" lon="6.75083">
        <ele>1169.8</ele>
        <time>2022-06-12T06:02:22Z</time>
      </trkpt>
      <trkpt lat="44.17148" lon="6.75081">
        <ele>1170.2</ele>
        <time>2022-06-12T06:02:23Z</time>
      </trkpt>
      <trkpt lat="44.17151" lon="6.75078">
        <ele>1170.7</ele>
        <time>2022-06-12T06:02:24Z</time>
      </trkpt>
      <trkpt lat="44.17153" lon="6.75075">
        <ele>1171.3</ele>
        <time>2022-06-12T06:02:25Z</time>
      </trkpt>
      <trkpt lat="44.17155" lon="6.75072">
        <ele>1171.9</ele>
        <time>2022-06-12T06:02:26Z</time>
      </trkpt>
      <trkpt lat="44.17157" lon="6.75068">
        <ele>1172.6</ele>
        <time>2022-06-12T06:02:27Z</time>
      </trkpt>
      <trkpt lat="44.17159" lon="6.75065">
        <ele>1173.3</ele>
        <time>2022-06-12T06:02:28Z</time>
      </trkpt>
      <trkpt lat="44.17162" lon="6.75062">
        <ele>1173.8</ele>
        <time>2022-06-12T06:02:29Z</time>
      </trkpt>
      <trkpt lat="44.17164" lon="6.75059">
        <ele>1174.4</ele>
        <time>2022-06-12T06:02:30Z</time>
      </trkpt>
      <trkpt lat="44.17166" lon="6.75057">
        <ele>1174.8</ele>
        <time>2022-06-12T06:02:31Z</time>
      </trkpt>
      <trkpt lat="44.17169" lon="6.75054">
        <ele>1175.2</ele>
        <time>2022-06-12T06:02:32Z</time>
      </trkpt>
      <trkpt lat="44.17171" lon="6.7505">
        <ele>1175.9</ele>
        <time>2022-06-12T06:02:33Z</time>
      </trkpt>
      <trkpt lat="44.17173" lon="6.75047">
        <ele>1176.5</ele>
        <time>2022-06-12T06:02:34Z</time>
      </trkpt>
      <trkpt lat="44.17175" lon="6.75045">
        <ele>1176.9</ele>
        <time>2022-06-12T06:02:35Z</time>
      </trkpt>
      <trkpt lat="44.17177" lon="6.75042">
        <ele>1177.3</ele>
        <time>2022-06-12T06:02:36Z</time>
      </trkpt>
      <trkpt lat="44.17178" lon="6.7504">
        <ele>1177.8</ele>
        <time>2022-06-12T06:02:37Z</time>
      </trkpt>
      <trkpt lat="44.1718" lon="6.75038">
        <ele>1178.1</ele>
        <time>2022-06-12T06:02:38Z</time>
      </trkpt>
      <trkpt lat="44.17183" lon="6.75036">
        <ele>1178.1</ele>
        <time>2022-06-12T06:02:39Z</time>
      </trkpt>
      <trkpt lat="44.17184" lon="6.75034">
        <ele>1178.5</ele>
        <time>2022-06-12T06:02:40Z</time>
      </trkpt>
      <trkpt lat="44.17187" lon="6.75032">
        <ele>1178.5</ele>
        <time>2022-06-12T06:02:41Z</time>
      </trkpt>
      <trkpt lat="44.17189" lon="6.7503">
        <ele>1178.5</ele>
        <time>2022-06-12T06:02:42Z</time>
      </trkpt>
      <trkpt lat="44.17191" lon="6.75028">
        <ele>1178.9</ele>
        <time>2022-06-12T06:02:43Z</time>
      </trkpt>
      <trkpt lat="44.17193" lon="6.75026">
        <ele>1179.2</ele>
        <time>2022-06-12T06:02:44Z</time>
      </trkpt>
      <trkpt lat="44.17196" lon="6.75024">
        <ele>1179.4</ele>
        <time>2022-06-12T06:02:45Z</time>
      </trkpt>
      <trkpt lat="44.17198" lon="6.75021">
        <ele>1179.9</ele>
        <time>2022-06-12T06:02:46Z</time>
      </trkpt>
      <trkpt lat="44.17201" lon="6.7502">
        <ele>1180</ele>
        <time>2022-06-12T06:02:47Z</time>
      </trkpt>
      <trkpt lat="44.17204" lon="6.75018">
        <ele>1180.2</ele>
        <time>2022-06-12T06:02:48Z</time>
      </trkpt>
      <trkpt lat="44.17208" lon="6.75016">
        <ele>1180</ele>
        <time>2022-06-12T06:02:49Z</time>
      </trkpt>
      <trkpt lat="44.17211" lon="6.75014">
        <ele>1180.1</ele>
        <time>2022-06-12T06:02:50Z</time>
      </trkpt>
      <trkpt lat="44.17214" lon="6.75013">
        <ele>1180.1</ele>
        <time>2022-06-12T06:02:51Z</time>
      </trkpt>
      <trkpt lat="44.17217" lon="6.75011">
        <ele>1180.2</ele>
        <time>2022-06-12T06:02:52Z</time>
      </trkpt>
      <trkpt lat="44.1722" lon="6.7501">
        <ele>1180.1</ele>
        <time>2022-06-12T06:02:53Z</time>
      </trkpt>
      <trkpt lat="44.17224" lon="6.75008">
        <ele>1180.3</ele>
        <time>2022-06-12T06:02:54Z</time>
      </trkpt>
      <trkpt lat="44.17226" lon="6.75007">
        <ele>1180.7</ele>
        <time>2022-06-12T06:02:55Z</time>
      </trkpt>
      <trkpt lat="44.17229" lon="6.75006">
        <ele>1180.8</ele>
        <time>2022-06-12T06:02:56Z</time>
      </trkpt>
      <trkpt lat="44.17232" lon="6.75004">
        <ele>1181.2</ele>
        <time>2022-06-12T06:02:57Z</time>
      </trkpt>
      <trkpt lat="44.17235" lon="6.75003">
        <ele>1181.5</ele>
        <time>2022-06-12T06:02:58Z</time>
      </trkpt>
      <trkpt lat="44.17238" lon="6.75001">
        <ele>1181.8</ele>
        <time>2022-06-12T06:02:59Z</time>
      </trkpt>
      <trkpt lat="44.17241" lon="6.75">
        <ele>1182.1</ele>
        <time>2022-06-12T06:03:00Z</time>
      </trkpt>
      <trkpt lat="44.17244" lon="6.74999">
        <ele>1182.5</ele>
        <time>2022-06-12T06:03:01Z</time>
      </trkpt>
      <trkpt lat="44.17248" lon="6.74998">
        <ele>1182.5</ele>
        <time>2022-06-12T06:03:02Z</time>
      </trkpt>
      <trkpt lat="44.17251" lon="6.74998">
        <ele>1182.5</ele>
        <time>2022-06-12T06:03:03Z</time>
      </trkpt>
      <trkpt lat="44.17253" lon="6.74998">
        <ele>1182.7</ele>
        <time>2022-06-12T06:03:04Z</time>
      </trkpt>
      <trkpt lat="44.17256" lon="6.74998">
        <ele>1182.8</ele>
        <time>2022-06-12T06:03:05Z</time>
      </trkpt>
      <trkpt lat="44.17259" lon="6.74998">
        <ele>1182.8</ele>
        <time>2022-06-12T06:03:06Z</time>
      </trkpt>
      <trkpt lat="44.17261" lon="6.74998">
        <ele>1183</ele>
        <time>2022-06-12T06:03:07Z</time>
      </trkpt>
      <trkpt lat="44.17264" lon="6.74998">
        <ele>1183.4</ele>
        <time>2022-06-12T06:03:08Z</time>
      </trkpt>
      <trkpt lat="44.17266" lon="6.74997">
        <ele>1183.7</ele>
        <time>2022-06-12T06:03:09Z</time>
      </trkpt>
      <trkpt lat="44.17269" lon="6.74998">
        <ele>1183.7</ele>
        <time>2022-06-12T06:03:10Z</time>
      </trkpt>
      <trkpt lat="44.17272" lon="6.74997">
        <ele>1184.3</ele>
        <time>2022-06-12T06:03:11Z</time>
      </trkpt>
      <trkpt lat="44.17274" lon="6.74997">
        <ele>1184.3</ele>
        <time>2022-06-12T06:03:12Z</time>
      </trkpt>
      <trkpt lat="44.17276" lon="6.74998">
        <ele>1184.2</ele>
        <time>2022-06-12T06:03:13Z</time>
      </trkpt>
      <trkpt lat="44.17279" lon="6.74999">
        <ele>1183.8</ele>
        <time>2022-06-12T06:03:14Z</time>
      </trkpt>
      <trkpt lat="44.17282" lon="6.74999">
        <ele>1184</ele>
        <time>2022-06-12T06:03:15Z</time>
      </trkpt>
      <trkpt lat="44.17284" lon="6.75001">
        <ele>1183.8</ele>
        <time>2022-06-12T06:03:16Z</time>
      </trkpt>
      <trkpt lat="44.17287" lon="6.75002">
        <ele>1183.7</ele>
        <time>2022-06-12T06:03:17Z</time>
      </trkpt>
      <trkpt lat="44.1729" lon="6.75003">
        <ele>1183.7</ele>
        <time>2022-06-12T06:03:18Z</time>
      </trkpt>
      <trkpt lat="44.17292" lon="6.75004">
        <ele>1183.7</ele>
        <time>2022-06-12T06:03:19Z</time>
      </trkpt>
      <trkpt lat="44.17295" lon="6.75006">
        <ele>1183.6</ele>
        <time>2022-06-12T06:03:20Z</time>
      </trkpt>
      <trkpt lat="44.17299" lon="6.75007">
        <ele>1183.5</ele>
        <time>2022-06-12T06:03:21Z</time>
      </trkpt>
      <trkpt lat="44.17302" lon="6.75009">
        <ele>1183.4</ele>
        <time>2022-06-12T06:03:22Z</time>
      </trkpt>
      <trkpt lat="44.17304" lon="6.75011">
        <ele>1183.2</ele>
        <time>2022-06-12T06:03:23Z</time>
      </trkpt>
      <trkpt lat="44.17307" lon="6.75012">
        <ele>1182.9</ele>
        <time>2022-06-12T06:03:24Z</time>
      </trkpt>
      <trkpt lat="44.17309" lon="6.75014">
        <ele>1182.7</ele>
        <time>2022-06-12T06:03:25Z</time>
      </trkpt>
      <trkpt lat="44.17311" lon="6.75015">
        <ele>1182.7</ele>
        <time>2022-06-12T06:03:26Z</time>
      </trkpt>
      <trkpt lat="44.17314" lon="6.75017">
        <ele>1182.6</ele>
        <time>2022-06-12T06:03:27Z</time>
      </trkpt>
      <trkpt lat="44.17316" lon="6.75018">
        <ele>1182.5</ele>
        <time>2022-06-12T06:03:28Z</time>
      </trkpt>
      <trkpt lat="44.17319" lon="6.7502">
        <ele>1182.6</ele>
        <time>2022-06-12T06:03:29Z</time>
      </trkpt>
      <trkpt lat="44.17321" lon="6.75021">
        <ele>1182.5</ele>
        <time>2022-06-12T06:03:30Z</time>
      </trkpt>
      <trkpt lat="44.17323" lon="6.75023">
        <ele>1182.4</ele>
        <time>2022-06-12T06:03:31Z</time>
      </trkpt>
      <trkpt lat="44.17326" lon="6.75025">
        <ele>1182.3</ele>
        <time>2022-06-12T06:03:32Z</time>
      </trkpt>
      <trkpt lat="44.17329" lon="6.75026">
        <ele>1182.4</ele>
        <time>2022-06-12T06:03:33Z</time>
      </trkpt>
      <trkpt lat="44.17331" lon="6.75028">
        <ele>1182.4</ele>
        <time>2022-06-12T06:03:34Z</time>
      </trkpt>
      <trkpt lat="44.17334" lon="6.75029">
        <ele>1182.7</ele>
        <time>2022-06-12T06:03:35Z</time>
      </trkpt>
      <trkpt lat="44.17337" lon="6.7503">
        <ele>1182.9</ele>
        <time>2022-06-12T06:03:36Z</time>
      </trkpt>
      <trkpt lat="44.17339" lon="6.75031">
        <ele>1182.9</ele>
        <time>2022-06-12T06:03:37Z</time>
      </trkpt>
      <trkpt lat="44.17342" lon="6.75032">
        <ele>1183</ele>
        <time>2022-06-12T06:03:38Z</time>
      </trkpt>
      <trkpt lat="44.17344" lon="6.75032">
        <ele>1183.3</ele>
        <time>2022-06-12T06:03:39Z</time>
      </trkpt>
      <trkpt lat="44.17346" lon="6.75032">
        <ele>1183.7</ele>
        <time>2022-06-12T06:03:40Z</time>
      </trkpt>
      <trkpt lat="44.17349" lon="6.75032">
        <ele>1184</ele>
        <time>2022-06-12T06:03:41Z</time>
      </trkpt>
      <trkpt lat="44.17352" lon="6.75032">
        <ele>1184.4</ele>
        <time>2022-06-12T06:03:42Z</time>
      </trkpt>
      <trkpt lat="44.17354" lon="6.75032">
        <ele>1184.9</ele>
        <time>2022-06-12T06:03:43Z</time>
      </trkpt>
      <trkpt lat="44.17357" lon="6.75032">
        <ele>1185.4</ele>
        <time>2022-06-12T06:03:44Z</time>
      </trkpt>
      <trkpt lat="44.1736" lon="6.75031">
        <ele>1185.9</ele>
        <time>2022-06-12T06:03:45Z</time>
      </trkpt>
      <trkpt lat="44.17362" lon="6.75031">
        <ele>1186.2</ele>
        <time>2022-06-12T06:03:46Z</time>
      </trkpt>
      <trkpt lat="44.17365" lon="6.75031">
        <ele>1186.1</ele>
        <time>2022-06-12T06:03:47Z</time>
      </trkpt>
      <trkpt lat="44.17367" lon="6.7503">
        <ele>1186.2</ele>
        <time>2022-06-12T06:03:48Z</time>
      </trkpt>
      <trkpt lat="44.1737" lon="6.75029">
        <ele>1186.4</ele>
        <time>2022-06-12T06:03:49Z</time>
      </trkpt>
      <trkpt lat="44.17373" lon="6.75028">
        <ele>1186.5</ele>
        <time>2022-06-12T06:03:50Z</time>
      </trkpt>
      <trkpt lat="44.17375" lon="6.75027">
        <ele>1186.6</ele>
        <time>2022-06-12T06:03:51Z</time>
      </trkpt>
      <trkpt lat="44.17377" lon="6.75026">
        <ele>1186.8</ele>
        <time>2022-06-12T06:03:52Z</time>
      </trkpt>
      <trkpt lat="44.1738" lon="6.75025">
        <ele>1187</ele>
        <time>2022-06-12T06:03:53Z</time>
      </trkpt>
      <trkpt lat="44.17382" lon="6.75023">
        <ele>1187.2</ele>
        <time>2022-06-12T06:03:54Z</time>
      </trkpt>
      <trkpt lat="44.17384" lon="6.75022">
        <ele>1187.4</ele>
        <time>2022-06-12T06:03:55Z</time>
      </trkpt>
      <trkpt lat="44.17386" lon="6.75022">
        <ele>1187.4</ele>
        <time>2022-06-12T06:03:56Z</time>
      </trkpt>
      <trkpt lat="44.17389" lon="6.75021">
        <ele>1187.4</ele>
        <time>2022-06-12T06:03:57Z</time>
      </trkpt>
      <trkpt lat="44.17391" lon="6.75021">
        <ele>1187.1</ele>
        <time>2022-06-12T06:03:58Z</time>
      </trkpt>
      <trkpt lat="44.17394" lon="6.75021">
        <ele>1186.7</ele>
        <time>2022-06-12T06:03:59Z</time>
      </trkpt>
      <trkpt lat="44.17396" lon="6.75022">
        <ele>1186.4</ele>
        <time>2022-06-12T06:04:00Z</time>
      </trkpt>
      <trkpt lat="44.17398" lon="6.75022">
        <ele>1186.1</ele>
        <time>2022-06-12T06:04:01Z</time>
      </trkpt>
      <trkpt lat="44.174" lon="6.75022">
        <ele>1185.8</ele>
        <time>2022-06-12T06:04:02Z</time>
      </trkpt>
      <trkpt lat="44.17403" lon="6.75022">
        <ele>1185.4</ele>
        <time>2022-06-12T06:04:03Z</time>
      </trkpt>
      <trkpt lat="44.17406" lon="6.75021">
        <ele>1185.1</ele>
        <time>2022-06-12T06:04:04Z</time>
      </trkpt>
      <trkpt lat="44.17408" lon="6.75022">
        <ele>1184.7</ele>
        <time>2022-06-12T06:04:05Z</time>
      </trkpt>
      <trkpt lat="44.17411" lon="6.75021">
        <ele>1184.5</ele>
        <time>2022-06-12T06:04:06Z</time>
      </trkpt>
      <trkpt lat="44.17414" lon="6.7502">
        <ele>1184.3</ele>
        <time>2022-06-12T06:04:07Z</time>
      </trkpt>
      <trkpt lat="44.17416" lon="6.75019">
        <ele>1184.3</ele>
        <time>2022-06-12T06:04:08Z</time>
      </trkpt>
      <trkpt lat="44.17418" lon="6.75018">
        <ele>1184.2</ele>
        <time>2022-06-12T06:04:09Z</time>
      </trkpt>
      <trkpt lat="44.17421" lon="6.75016">
        <ele>1184.2</ele>
        <time>2022-06-12T06:04:10Z</time>
      </trkpt>
      <trkpt lat="44.17423" lon="6.75014">
        <ele>1184.3</ele>
        <time>2022-06-12T06:04:11Z</time>
      </trkpt>
      <trkpt lat="44.17426" lon="6.75013">
        <ele>1184.3</ele>
        <time>2022-06-12T06:04:12Z</time>
      </trkpt>
      <trkpt lat="44.17428" lon="6.75011">
        <ele>1184.3</ele>
        <time>2022-06-12T06:04:13Z</time>
      </trkpt>
      <trkpt lat="44.1743" lon="6.75008">
        <ele>1184.5</ele>
        <time>2022-06-12T06:04:14Z</time>
      </trkpt>
      <trkpt lat="44.17432" lon="6.75006">
        <ele>1184.8</ele>
        <time>2022-06-12T06:04:15Z</time>
      </trkpt>
      <trkpt lat="44.17434" lon="6.75003">
        <ele>1185.1</ele>
        <time>2022-06-12T06:04:16Z</time>
      </trkpt>
      <trkpt lat="44.17436" lon="6.75001">
        <ele>1185.3</ele>
        <time>2022-06-12T06:04:17Z</time>
      </trkpt>
      <trkpt lat="44.17438" lon="6.74999">
        <ele>1186</ele>
        <time>2022-06-12T06:04:18Z</time>
      </trkpt>
      <trkpt lat="44.1744" lon="6.74996">
        <ele>1186.8</ele>
        <time>2022-06-12T06:04:19Z</time>
      </trkpt>
      <trkpt lat="44.17442" lon="6.74994">
        <ele>1187.7</ele>
        <time>2022-06-12T06:04:20Z</time>
      </trkpt>
      <trkpt lat="44.17444" lon="6.74992">
        <ele>1188.4</ele>
        <time>2022-06-12T06:04:21Z</time>
      </trkpt>
      <trkpt lat="44.17446" lon="6.74989">
        <ele>1189.2</ele>
        <time>2022-06-12T06:04:22Z</time>
      </trkpt>
      <trkpt lat="44.17448" lon="6.74987">
        <ele>1190.2</ele>
        <time>2022-06-12T06:04:23Z</time>
      </trkpt>
      <trkpt lat="44.1745" lon="6.74985">
        <ele>1191.1</ele>
        <time>2022-06-12T06:04:24Z</time>
      </trkpt>
      <trkpt lat="44.17452" lon="6.74982">
        <ele>1192.1</ele>
        <time>2022-06-12T06:04:25Z</time>
      </trkpt>
      <trkpt lat="44.17453" lon="6.74979">
        <ele>1193.1</ele>
        <time>2022-06-12T06:04:26Z</time>
      </trkpt>
      <trkpt lat="44.17455" lon="6.74977">
        <ele>1194</ele>
        <time>2022-06-12T06:04:27Z</time>
      </trkpt>
      <trkpt lat="44.17457" lon="6.74974">
        <ele>1194.7</ele>
        <time>2022-06-12T06:04:28Z</time>
      </trkpt>
      <trkpt lat="44.17459" lon="6.74972">
        <ele>1195.4</ele>
        <time>2022-06-12T06:04:29Z</time>
      </trkpt>
      <trkpt lat="44.17461" lon="6.7497">
        <ele>1195.7</ele>
        <time>2022-06-12T06:04:30Z</time>
      </trkpt>
      <trkpt lat="44.17463" lon="6.74968">
        <ele>1195.9</ele>
        <time>2022-06-12T06:04:31Z</time>
      </trkpt>
      <trkpt lat="44.17465" lon="6.74966">
        <ele>1196.2</ele>
        <time>2022-06-12T06:04:32Z</time>
      </trkpt>
      <trkpt lat="44.17467" lon="6.74965">
        <ele>1196.3</ele>
        <time>2022-06-12T06:04:33Z</time>
      </trkpt>
      <trkpt lat="44.17469" lon="6.74963">
        <ele>1196.4</ele>
        <time>2022-06-12T06:04:34Z</time>
      </trkpt>
      <trkpt lat="44.17471" lon="6.74962">
        <ele>1196.5</ele>
        <time>2022-06-12T06:04:35Z</time>
      </trkpt>
      <trkpt lat="44.17474" lon="6.74961">
        <ele>1196.7</ele>
        <time>2022-06-12T06:04:36Z</time>
      </trkpt>
      <trkpt lat="44.17476" lon="6.74959">
        <ele>1197</ele>
        <time>2022-06-12T06:04:37Z</time>
      </trkpt>
      <trkpt lat="44.17478" lon="6.74959">
        <ele>1197.1</ele>
        <time>2022-06-12T06:04:38Z</time>
      </trkpt>
      <trkpt lat="44.1748" lon="6.74958">
        <ele>1197.4</ele>
        <time>2022-06-12T06:04:39Z</time>
      </trkpt>
      <trkpt lat="44.17482" lon="6.74957">
        <ele>1197.5</ele>
        <time>2022-06-12T06:04:40Z</time>
      </trkpt>
      <trkpt lat="44.17484" lon="6.74956">
        <ele>1197.7</ele>
        <time>2022-06-12T06:04:41Z</time>
      </trkpt>
      <trkpt lat="44.17487" lon="6.74955">
        <ele>1197.8</ele>
        <time>2022-06-12T06:04:42Z</time>
      </trkpt>
      <trkpt lat="44.17489" lon="6.74954">
        <ele>1198.2</ele>
        <time>2022-06-12T06:04:43Z</time>
      </trkpt>
      <trkpt lat="44.17491" lon="6.74953">
        <ele>1198.2</ele>
        <time>2022-06-12T06:04:44Z</time>
      </trkpt>
      <trkpt lat="44.17493" lon="6.74954">
        <ele>1198</ele>
        <time>2022-06-12T06:04:45Z</time>
      </trkpt>
      <trkpt lat="44.17494" lon="6.74954">
        <ele>1198</ele>
        <time>2022-06-12T06:04:46Z</time>
      </trkpt>
      <trkpt lat="44.17496" lon="6.74954">
        <ele>1197.9</ele>
        <time>2022-06-12T06:04:47Z</time>
      </trkpt>
      <trkpt lat="44.17498" lon="6.74954">
        <ele>1197.7</ele>
        <time>2022-06-12T06:04:48Z</time>
      </trkpt>
      <trkpt lat="44.175" lon="6.74954">
        <ele>1197.5</ele>
        <time>2022-06-12T06:04:49Z</time>
      </trkpt>
      <trkpt lat="44.17502" lon="6.74955">
        <ele>1197.3</ele>
        <time>2022-06-12T06:04:50Z</time>
      </trkpt>
      <trkpt lat="44.17505" lon="6.74955">
        <ele>1197.2</ele>
        <time>2022-06-12T06:04:51Z</time>
      </trkpt>
      <trkpt lat="44.17507" lon="6.74954">
        <ele>1197.3</ele>
        <time>2022-06-12T06:04:52Z</time>
      </trkpt>
      <trkpt lat="44.1751" lon="6.74954">
        <ele>1197.5</ele>
        <time>2022-06-12T06:04:53Z</time>
      </trkpt>
      <trkpt lat="44.17512" lon="6.74953">
        <ele>1197.5</ele>
        <time>2022-06-12T06:04:54Z</time>
      </trkpt>
      <trkpt lat="44.17515" lon="6.74953">
        <ele>1197.7</ele>
        <time>2022-06-12T06:04:55Z</time>
      </trkpt>
      <trkpt lat="44.17518" lon="6.74951">
        <ele>1198</ele>
        <time>2022-06-12T06:04:56Z</time>
      </trkpt>
      <trkpt lat="44.17521" lon="6.7495">
        <ele>1198.4</ele>
        <time>2022-06-12T06:04:57Z</time>
      </trkpt>
      <trkpt lat="44.17524" lon="6.74949">
        <ele>1198.8</ele>
        <time>2022-06-12T06:04:58Z</time>
      </trkpt>
      <trkpt lat="44.17527" lon="6.74947">
        <ele>1199.1</ele>
        <time>2022-06-12T06:04:59Z</time>
      </trkpt>
      <trkpt lat="44.1753" lon="6.74946">
        <ele>1199.5</ele>
        <time>2022-06-12T06:05:00Z</time>
      </trkpt>
      <trkpt lat="44.17532" lon="6.74945">
        <ele>1199.8</ele>
        <time>2022-06-12T06:05:01Z</time>
      </trkpt>
      <trkpt lat="44.17535" lon="6.74943">
        <ele>1200.1</ele>
        <time>2022-06-12T06:05:02Z</time>
      </trkpt>
      <trkpt lat="44.17538" lon="6.74941">
        <ele>1200.4</ele>
        <time>2022-06-12T06:05:03Z</time>
      </trkpt>
      <trkpt lat="44.1754" lon="6.74939">
        <ele>1200.7</ele>
        <time>2022-06-12T06:05:04Z</time>
      </trkpt>
      <trkpt lat="44.17543" lon="6.74938">
        <ele>1201</ele>
        <time>2022-06-12T06:05:05Z</time>
      </trkpt>
      <trkpt lat="44.17546" lon="6.74936">
        <ele>1201.2</ele>
        <time>2022-06-12T06:05:06Z</time>
      </trkpt>
      <trkpt lat="44.17549" lon="6.74934">
        <ele>1201.4</ele>
        <time>2022-06-12T06:05:07Z</time>
      </trkpt>
      <trkpt lat="44.17552" lon="6.74933">
        <ele>1201.7</ele>
        <time>2022-06-12T06:05:08Z</time>
      </trkpt>
      <trkpt lat="44.17555" lon="6.74932">
        <ele>1201.8</ele>
        <time>2022-06-12T06:05:09Z</time>
      </trkpt>
      <trkpt lat="44.17559" lon="6.7493">
        <ele>1201.9</ele>
        <time>2022-06-12T06:05:10Z</time>
      </trkpt>
      <trkpt lat="44.17562" lon="6.74929">
        <ele>1202</ele>
        <time>2022-06-12T06:05:11Z</time>
      </trkpt>
      <trkpt lat="44.17566" lon="6.74928">
        <ele>1202</ele>
        <time>2022-06-12T06:05:12Z</time>
      </trkpt>
      <trkpt lat="44.1757" lon="6.74928">
        <ele>1201.9</ele>
        <time>2022-06-12T06:05:13Z</time>
      </trkpt>
      <trkpt lat="44.17573" lon="6.74927">
        <ele>1201.9</ele>
        <time>2022-06-12T06:05:14Z</time>
      </trkpt>
      <trkpt lat="44.17577" lon="6.74926">
        <ele>1201.9</ele>
        <time>2022-06-12T06:05:15Z</time>
      </trkpt>
      <trkpt lat="44.17581" lon="6.74926">
        <ele>1201.9</ele>
        <time>2022-06-12T06:05:16Z</time>
      </trkpt>
      <trkpt lat="44.17585" lon="6.74925">
        <ele>1201.9</ele>
        <time>2022-06-12T06:05:17Z</time>
      </trkpt>
      <trkpt lat="44.17588" lon="6.74923">
        <ele>1202</ele>
        <time>2022-06-12T06:05:18Z</time>
      </trkpt>
      <trkpt lat="44.17592" lon="6.74921">
        <ele>1202.2</ele>
        <time>2022-06-12T06:05:19Z</time>
      </trkpt>
      <trkpt lat="44.17596" lon="6.7492">
        <ele>1202.4</ele>
        <time>2022-06-12T06:05:20Z</time>
      </trkpt>
      <trkpt lat="44.17599" lon="6.74918">
        <ele>1202.5</ele>
        <time>2022-06-12T06:05:21Z</time>
      </trkpt>
      <trkpt lat="44.17603" lon="6.74916">
        <ele>1202.8</ele>
        <time>2022-06-12T06:05:22Z</time>
      </trkpt>
      <trkpt lat="44.17607" lon="6.74913">
        <ele>1203</ele>
        <time>2022-06-12T06:05:23Z</time>
      </trkpt>
      <trkpt lat="44.1761" lon="6.74911">
        <ele>1203.2</ele>
        <time>2022-06-12T06:05:24Z</time>
      </trkpt>
      <trkpt lat="44.17613" lon="6.74908">
        <ele>1203.3</ele>
        <time>2022-06-12T06:05:25Z</time>
      </trkpt>
      <trkpt lat="44.17617" lon="6.74905">
        <ele>1203.2</ele>
        <time>2022-06-12T06:05:26Z</time>
      </trkpt>
      <trkpt lat="44.1762" lon="6.74902">
        <ele>1203.3</ele>
        <time>2022-06-12T06:05:27Z</time>
      </trkpt>
      <trkpt lat="44.17623" lon="6.749">
        <ele>1203.4</ele>
        <time>2022-06-12T06:05:28Z</time>
      </trkpt>
      <trkpt lat="44.17626" lon="6.74898">
        <ele>1203.4</ele>
        <time>2022-06-12T06:05:29Z</time>
      </trkpt>
      <trkpt lat="44.1763" lon="6.74896">
        <ele>1203.4</ele>
        <time>2022-06-12T06:05:30Z</time>
      </trkpt>
      <trkpt lat="44.17633" lon="6.74894">
        <ele>1203.5</ele>
        <time>2022-06-12T06:05:31Z</time>
      </trkpt>
      <trkpt lat="44.17636" lon="6.74892">
        <ele>1203.6</ele>
        <time>2022-06-12T06:05:32Z</time>
      </trkpt>
      <trkpt lat="44.17639" lon="6.74889">
        <ele>1203.9</ele>
        <time>2022-06-12T06:05:33Z</time>
      </trkpt>
      <trkpt lat="44.17642" lon="6.74887">
        <ele>1203.9</ele>
        <time>2022-06-12T06:05:34Z</time>
      </trkpt>
      <trkpt lat="44.17646" lon="6.74885">
        <ele>1203.9</ele>
        <time>2022-06-12T06:05:35Z</time>
      </trkpt>
      <trkpt lat="44.17648" lon="6.74884">
        <ele>1203.8</ele>
        <time>2022-06-12T06:05:36Z</time>
      </trkpt>
      <trkpt lat="44.17652" lon="6.74882">
        <ele>1203.7</ele>
        <time>2022-06-12T06:05:37Z</time>
      </trkpt>
      <trkpt lat="44.17655" lon="6.74881">
        <ele>1203.6</ele>
        <time>2022-06-12T06:05:38Z</time>
      </trkpt>
      <trkpt lat="44.17657" lon="6.74878">
        <ele>1203.6</ele>
        <time>2022-06-12T06:05:39Z</time>
      </trkpt>
      <trkpt lat="44.1766" lon="6.74877">
        <ele>1203.6</ele>
        <time>2022-06-12T06:05:40Z</time>
      </trkpt>
      <trkpt lat="44.17663" lon="6.74874">
        <ele>1203.7</ele>
        <time>2022-06-12T06:05:41Z</time>
      </trkpt>
      <trkpt lat="44.17666" lon="6.74872">
        <ele>1203.7</ele>
        <time>2022-06-12T06:05:42Z</time>
      </trkpt>
      <trkpt lat="44.17669" lon="6.7487">
        <ele>1203.9</ele>
        <time>2022-06-12T06:05:43Z</time>
      </trkpt>
      <trkpt lat="44.17671" lon="6.74867">
        <ele>1204.2</ele>
        <time>2022-06-12T06:05:44Z</time>
      </trkpt>
      <trkpt lat="44.17674" lon="6.74864">
        <ele>1204.3</ele>
        <time>2022-06-12T06:05:45Z</time>
      </trkpt>
      <trkpt lat="44.17676" lon="6.74862">
        <ele>1204.5</ele>
        <time>2022-06-12T06:05:46Z</time>
      </trkpt>
      <trkpt lat="44.17679" lon="6.74859">
        <ele>1204.6</ele>
        <time>2022-06-12T06:05:47Z</time>
      </trkpt>
      <trkpt lat="44.17682" lon="6.74858">
        <ele>1204.6</ele>
        <time>2022-06-12T06:05:48Z</time>
      </trkpt>
      <trkpt lat="44.17685" lon="6.74856">
        <ele>1204.5</ele>
        <time>2022-06-12T06:05:49Z</time>
      </trkpt>
      <trkpt lat="44.17687" lon="6.74853">
        <ele>1204.7</ele>
        <time>2022-06-12T06:05:50Z</time>
      </trkpt>
      <trkpt lat="44.1769" lon="6.74852">
        <ele>1204.7</ele>
        <time>2022-06-12T06:05:51Z</time>
      </trkpt>
      <trkpt lat="44.17693" lon="6.7485">
        <ele>1204.7</ele>
        <time>2022-06-12T06:05:52Z</time>
      </trkpt>
      <trkpt lat="44.17695" lon="6.74849">
        <ele>1204.6</ele>
        <time>2022-06-12T06:05:53Z</time>
      </trkpt>
      <trkpt lat="44.17697" lon="6.74847">
        <ele>1204.7</ele>
        <time>2022-06-12T06:05:54Z</time>
      </trkpt>
      <trkpt lat="44.177" lon="6.74846">
        <ele>1204.5</ele>
        <time>2022-06-12T06:05:55Z</time>
      </trkpt>
      <trkpt lat="44.17704" lon="6.74845">
        <ele>1204.3</ele>
        <time>2022-06-12T06:05:56Z</time>
      </trkpt>
      <trkpt lat="44.17707" lon="6.74845">
        <ele>1204.1</ele>
        <time>2022-06-12T06:05:57Z</time>
      </trkpt>
      <trkpt lat="44.17711" lon="6.74844">
        <ele>1203.8</ele>
        <time>2022-06-12T06:05:58Z</time>
      </trkpt>
      <trkpt lat="44.17714" lon="6.74843">
        <ele>1203.6</ele>
        <time>2022-06-12T06:05:59Z</time>
      </trkpt>
      <trkpt lat="44.17718" lon="6.74842">
        <ele>1203.4</ele>
        <time>2022-06-12T06:06:00Z</time>
      </trkpt>
      <trkpt lat="44.17721" lon="6.74842">
        <ele>1203.1</ele>
        <time>2022-06-12T06:06:01Z</time>
      </trkpt>
      <trkpt lat="44.17725" lon="6.74841">
        <ele>1203</ele>
        <time>2022-06-12T06:06:02Z</time>
      </trkpt>
      <trkpt lat="44.17729" lon="6.7484">
        <ele>1203.3</ele>
        <time>2022-06-12T06:06:03Z</time>
      </trkpt>
      <trkpt lat="44.17732" lon="6.74838">
        <ele>1203.6</ele>
        <time>2022-06-12T06:06:04Z</time>
      </trkpt>
      <trkpt lat="44.17735" lon="6.74837">
        <ele>1203.8</ele>
        <time>2022-06-12T06:06:05Z</time>
      </trkpt>
      <trkpt lat="44.17739" lon="6.74835">
        <ele>1204</ele>
        <time>2022-06-12T06:06:06Z</time>
      </trkpt>
      <trkpt lat="44.17742" lon="6.74834">
        <ele>1204.1</ele>
        <time>2022-06-12T06:06:07Z</time>
      </trkpt>
      <trkpt lat="44.17745" lon="6.74833">
        <ele>1204.2</ele>
        <time>2022-06-12T06:06:08Z</time>
      </trkpt>
      <trkpt lat="44.17748" lon="6.74832">
        <ele>1204.5</ele>
        <time>2022-06-12T06:06:09Z</time>
      </trkpt>
      <trkpt lat="44.1775" lon="6.74831">
        <ele>1204.7</ele>
        <time>2022-06-12T06:06:10Z</time>
      </trkpt>
      <trkpt lat="44.17752" lon="6.7483">
        <ele>1205.5</ele>
        <time>2022-06-12T06:06:11Z</time>
      </trkpt>
      <trkpt lat="44.17755" lon="6.74829">
        <ele>1206.4</ele>
        <time>2022-06-12T06:06:12Z</time>
      </trkpt>
      <trkpt lat="44.17757" lon="6.74829">
        <ele>1207.1</ele>
        <time>2022-06-12T06:06:13Z</time>
      </trkpt>
      <trkpt lat="44.1776" lon="6.74828">
        <ele>1207.9</ele>
        <time>2022-06-12T06:06:14Z</time>
      </trkpt>
      <trkpt lat="44.17763" lon="6.74828">
        <ele>1208.8</ele>
        <time>2022-06-12T06:06:15Z</time>
      </trkpt>
      <trkpt lat="44.17767" lon="6.74828">
        <ele>1209.5</ele>
        <time>2022-06-12T06:06:16Z</time>
      </trkpt>
      <trkpt lat="44.1777" lon="6.74829">
        <ele>1210</ele>
        <time>2022-06-12T06:06:17Z</time>
      </trkpt>
      <trkpt lat="44.17773" lon="6.74831">
        <ele>1210.4</ele>
        <time>2022-06-12T06:06:18Z</time>
      </trkpt>
      <trkpt lat="44.17775" lon="6.74833">
        <ele>1210.6</ele>
        <time>2022-06-12T06:06:19Z</time>
      </trkpt>
      <trkpt lat="44.17777" lon="6.74835">
        <ele>1210.5</ele>
        <time>2022-06-12T06:06:20Z</time>
      </trkpt>
      <trkpt lat="44.17779" lon="6.74838">
        <ele>1210.5</ele>
        <time>2022-06-12T06:06:21Z</time>
      </trkpt>
      <trkpt lat="44.17781" lon="6.74841">
        <ele>1210.6</ele>
        <time>2022-06-12T06:06:22Z</time>
      </trkpt>
      <trkpt lat="44.17783" lon="6.74845">
        <ele>1210.3</ele>
        <time>2022-06-12T06:06:23Z</time>
      </trkpt>
      <trkpt lat="44.17784" lon="6.74848">
        <ele>1210</ele>
        <time>2022-06-12T06:06:24Z</time>
      </trkpt>
      <trkpt lat="44.17785" lon="6.74852">
        <ele>1209.5</ele>
        <time>2022-06-12T06:06:25Z</time>
      </trkpt>
      <trkpt lat="44.17786" lon="6.74856">
        <ele>1208.8</ele>
        <time>2022-06-12T06:06:26Z</time>
      </trkpt>
      <trkpt lat="44.17787" lon="6.74861">
        <ele>1208.1</ele>
        <time>2022-06-12T06:06:27Z</time>
      </trkpt>
      <trkpt lat="44.17789" lon="6.74865">
        <ele>1207.8</ele>
        <time>2022-06-12T06:06:28Z</time>
      </trkpt>
      <trkpt lat="44.17791" lon="6.7487">
        <ele>1207.4</ele>
        <time>2022-06-12T06:06:29Z</time>
      </trkpt>
      <trkpt lat="44.17794" lon="6.74874">
        <ele>1207.1</ele>
        <time>2022-06-12T06:06:30Z</time>
      </trkpt>
      <trkpt lat="44.17796" lon="6.74878">
        <ele>1206.8</ele>
        <time>2022-06-12T06:06:31Z</time>
      </trkpt>
      <trkpt lat="44.178" lon="6.74882">
        <ele>1206.6</ele>
        <time>2022-06-12T06:06:32Z</time>
      </trkpt>
      <trkpt lat="44.17803" lon="6.74886">
        <ele>1206.4</ele>
        <time>2022-06-12T06:06:33Z</time>
      </trkpt>
      <trkpt lat="44.17807" lon="6.74889">
        <ele>1206.1</ele>
        <time>2022-06-12T06:06:34Z</time>
      </trkpt>
      <trkpt lat="44.1781" lon="6.74891">
        <ele>1205.9</ele>
        <time>2022-06-12T06:06:35Z</time>
      </trkpt>
      <trkpt lat="44.17814" lon="6.74893">
        <ele>1205.7</ele>
        <time>2022-06-12T06:06:36Z</time>
      </trkpt>
      <trkpt lat="44.17818" lon="6.74895">
        <ele>1205.6</ele>
        <time>2022-06-12T06:06:37Z</time>
      </trkpt>
      <trkpt lat="44.17821" lon="6.74897">
        <ele>1205.5</ele>
        <time>2022-06-12T06:06:38Z</time>
      </trkpt>
      <trkpt lat="44.17825" lon="6.74898">
        <ele>1205.6</ele>
        <time>2022-06-12T06:06:39Z</time>
      </trkpt>
      <trkpt lat="44.17828" lon="6.74899">
        <ele>1205.7</ele>
        <time>2022-06-12T06:06:40Z</time>
      </trkpt>
      <trkpt lat="44.17832" lon="6.74899">
        <ele>1206</ele>
        <time>2022-06-12T06:06:41Z</time>
      </trkpt>
      <trkpt lat="44.17836" lon="6.74899">
        <ele>1206.3</ele>
        <time>2022-06-12T06:06:42Z</time>
      </trkpt>
      <trkpt lat="44.1784" lon="6.74898">
        <ele>1206.4</ele>
        <time>2022-06-12T06:06:43Z</time>
      </trkpt>
      <trkpt lat="44.17844" lon="6.74898">
        <ele>1206.6</ele>
        <time>2022-06-12T06:06:44Z</time>
      </trkpt>
      <trkpt lat="44.17848" lon="6.74898">
        <ele>1206.7</ele>
        <time>2022-06-12T06:06:45Z</time>
      </trkpt>
      <trkpt lat="44.17852" lon="6.74898">
        <ele>1206.8</ele>
        <time>2022-06-12T06:06:46Z</time>
      </trkpt>
      <trkpt lat="44.17856" lon="6.74898">
        <ele>1207</ele>
        <time>2022-06-12T06:06:47Z</time>
      </trkpt>
      <trkpt lat="44.1786" lon="6.74898">
        <ele>1207.1</ele>
        <time>2022-06-12T06:06:48Z</time>
      </trkpt>
      <trkpt lat="44.17863" lon="6.74898">
        <ele>1207</ele>
        <time>2022-06-12T06:06:49Z</time>
      </trkpt>
      <trkpt lat="44.17867" lon="6.74898">
        <ele>1207</ele>
        <time>2022-06-12T06:06:50Z</time>
      </trkpt>
      <trkpt lat="44.17871" lon="6.74898">
        <ele>1206.9</ele>
        <time>2022-06-12T06:06:51Z</time>
      </trkpt>
      <trkpt lat="44.17874" lon="6.74898">
        <ele>1206.8</ele>
        <time>2022-06-12T06:06:52Z</time>
      </trkpt>
      <trkpt lat="44.17877" lon="6.74898">
        <ele>1206.7</ele>
        <time>2022-06-12T06:06:53Z</time>
      </trkpt>
      <trkpt lat="44.17881" lon="6.74898">
        <ele>1206.7</ele>
        <time>2022-06-12T06:06:54Z</time>
      </trkpt>
      <trkpt lat="44.17884" lon="6.74898">
        <ele>1206.6</ele>
        <time>2022-06-12T06:06:55Z</time>
      </trkpt>
      <trkpt lat="44.17887" lon="6.74898">
        <ele>1206.6</ele>
        <time>2022-06-12T06:06:56Z</time>
      </trkpt>
      <trkpt lat="44.17891" lon="6.74897">
        <ele>1206.5</ele>
        <time>2022-06-12T06:06:57Z</time>
      </trkpt>
      <trkpt lat="44.17894" lon="6.74898">
        <ele>1206.4</ele>
        <time>2022-06-12T06:06:58Z</time>
      </trkpt>
      <trkpt lat="44.17898" lon="6.74898">
        <ele>1206.3</ele>
        <time>2022-06-12T06:06:59Z</time>
      </trkpt>
      <trkpt lat="44.17902" lon="6.74898">
        <ele>1206.2</ele>
        <time>2022-06-12T06:07:00Z</time>
      </trkpt>
      <trkpt lat="44.17905" lon="6.74897">
        <ele>1206.2</ele>
        <time>2022-06-12T06:07:01Z</time>
      </trkpt>
      <trkpt lat="44.17909" lon="6.74897">
        <ele>1206.2</ele>
        <time>2022-06-12T06:07:02Z</time>
      </trkpt>
      <trkpt lat="44.17912" lon="6.74896">
        <ele>1206.3</ele>
        <time>2022-06-12T06:07:03Z</time>
      </trkpt>
      <trkpt lat="44.17915" lon="6.74896">
        <ele>1206.3</ele>
        <time>2022-06-12T06:07:04Z</time>
      </trkpt>
      <trkpt lat="44.17919" lon="6.74895">
        <ele>1206.6</ele>
        <time>2022-06-12T06:07:05Z</time>
      </trkpt>
      <trkpt lat="44.17922" lon="6.74894">
        <ele>1206.9</ele>
        <time>2022-06-12T06:07:06Z</time>
      </trkpt>
      <trkpt lat="44.17926" lon="6.74893">
        <ele>1207.3</ele>
        <time>2022-06-12T06:07:07Z</time>
      </trkpt>
      <trkpt lat="44.1793" lon="6.74892">
        <ele>1207.7</ele>
        <time>2022-06-12T06:07:08Z</time>
      </trkpt>
      <trkpt lat="44.17934" lon="6.74891">
        <ele>1208</ele>
        <time>2022-06-12T06:07:09Z</time>
      </trkpt>
      <trkpt lat="44.17937" lon="6.74891">
        <ele>1208.3</ele>
        <time>2022-06-12T06:07:10Z</time>
      </trkpt>
      <trkpt lat="44.17941" lon="6.7489">
        <ele>1208.7</ele>
        <time>2022-06-12T06:07:11Z</time>
      </trkpt>
      <trkpt lat="44.17945" lon="6.7489">
        <ele>1208.9</ele>
        <time>2022-06-12T06:07:12Z</time>
      </trkpt>
      <trkpt lat="44.17949" lon="6.7489">
        <ele>1209.3</ele>
        <time>2022-06-12T06:07:13Z</time>
      </trkpt>
      <trkpt lat="44.17952" lon="6.7489">
        <ele>1209.5</ele>
        <time>2022-06-12T06:07:14Z</time>
      </trkpt>
      <trkpt lat="44.17956" lon="6.74891">
        <ele>1209.6</ele>
        <time>2022-06-12T06:07:15Z</time>
      </trkpt>
      <trkpt lat="44.1796" lon="6.74892">
        <ele>1209.6</ele>
        <time>2022-06-12T06:07:16Z</time>
      </trkpt>
      <trkpt lat="44.17963" lon="6.74894">
        <ele>1209.6</ele>
        <time>2022-06-12T06:07:17Z</time>
      </trkpt>
      <trkpt lat="44.17966" lon="6.74895">
        <ele>1209.6</ele>
        <time>2022-06-12T06:07:18Z</time>
      </trkpt>
      <trkpt lat="44.17969" lon="6.74896">
        <ele>1209.6</ele>
        <time>2022-06-12T06:07:19Z</time>
      </trkpt>
      <trkpt lat="44.17972" lon="6.74897">
        <ele>1209.5</ele>
        <time>2022-06-12T06:07:20Z</time>
      </trkpt>
      <trkpt lat="44.17975" lon="6.74898">
        <ele>1209.4</ele>
        <time>2022-06-12T06:07:21Z</time>
      </trkpt>
      <trkpt lat="44.17979" lon="6.74899">
        <ele>1209.3</ele>
        <time>2022-06-12T06:07:22Z</time>
      </trkpt>
      <trkpt lat="44.17982" lon="6.74899">
        <ele>1209.2</ele>
        <time>2022-06-12T06:07:23Z</time>
      </trkpt>
      <trkpt lat="44.17985" lon="6.74901">
        <ele>1208.9</ele>
        <time>2022-06-12T06:07:24Z</time>
      </trkpt>
      <trkpt lat="44.17988" lon="6.74902">
        <ele>1208.8</ele>
        <time>2022-06-12T06:07:25Z</time>
      </trkpt>
      <trkpt lat="44.17992" lon="6.74902">
        <ele>1208.8</ele>
        <time>2022-06-12T06:07:26Z</time>
      </trkpt>
      <trkpt lat="44.17995" lon="6.74902">
        <ele>1209</ele>
        <time>2022-06-12T06:07:27Z</time>
      </trkpt>
      <trkpt lat="44.17999" lon="6.74902">
        <ele>1209.2</ele>
        <time>2022-06-12T06:07:28Z</time>
      </trkpt>
      <trkpt lat="44.18003" lon="6.74902">
        <ele>1209.3</ele>
        <time>2022-06-12T06:07:29Z</time>
      </trkpt>
      <trkpt lat="44.18007" lon="6.74902">
        <ele>1209.2</ele>
        <time>2022-06-12T06:07:30Z</time>
      </trkpt>
      <trkpt lat="44.18011" lon="6.74902">
        <ele>1209.2</ele>
        <time>2022-06-12T06:07:31Z</time>
      </trkpt>
      <trkpt lat="44.18015" lon="6.74901">
        <ele>1209.4</ele>
        <time>2022-06-12T06:07:32Z</time>
      </trkpt>
      <trkpt lat="44.18019" lon="6.749">
        <ele>1209.8</ele>
        <time>2022-06-12T06:07:33Z</time>
      </trkpt>
      <trkpt lat="44.18023" lon="6.74899">
        <ele>1210.1</ele>
        <time>2022-06-12T06:07:34Z</time>
      </trkpt>
      <trkpt lat="44.18026" lon="6.74898">
        <ele>1210.4</ele>
        <time>2022-06-12T06:07:35Z</time>
      </trkpt>
      <trkpt lat="44.1803" lon="6.74897">
        <ele>1210.7</ele>
        <time>2022-06-12T06:07:36Z</time>
      </trkpt>
      <trkpt lat="44.18033" lon="6.74896">
        <ele>1211</ele>
        <time>2022-06-12T06:07:37Z</time>
      </trkpt>
      <trkpt lat="44.18037" lon="6.74895">
        <ele>1211.3</ele>
        <time>2022-06-12T06:07:38Z</time>
      </trkpt>
      <trkpt lat="44.18041" lon="6.74894">
        <ele>1211.7</ele>
        <time>2022-06-12T06:07:39Z</time>
      </trkpt>
      <trkpt lat="44.18045" lon="6.74893">
        <ele>1211.9</ele>
        <time>2022-06-12T06:07:40Z</time>
      </trkpt>
      <trkpt lat="44.18049" lon="6.74891">
        <ele>1212.4</ele>
        <time>2022-06-12T06:07:41Z</time>
      </trkpt>
      <trkpt lat="44.18053" lon="6.7489">
        <ele>1212.6</ele>
        <time>2022-06-12T06:07:42Z</time>
      </trkpt>
      <trkpt lat="44.18057" lon="6.74889">
        <ele>1212.8</ele>
        <time>2022-06-12T06:07:43Z</time>
      </trkpt>
      <trkpt lat="44.18061" lon="6.74888">
        <ele>1212.9</ele>
        <time>2022-06-12T06:07:44Z</time>
      </trkpt>
      <trkpt lat="44.18065" lon="6.74886">
        <ele>1213.2</ele>
        <time>2022-06-12T06:07:45Z</time>
      </trkpt>
      <trkpt lat="44.18069" lon="6.74884">
        <ele>1213.6</ele>
        <time>2022-06-12T06:07:46Z</time>
      </trkpt>
      <trkpt lat="44.18072" lon="6.74881">
        <ele>1214.1</ele>
        <time>2022-06-12T06:07:47Z</time>
      </trkpt>
      <trkpt lat="44.18076" lon="6.74879">
        <ele>1214.8</ele>
        <time>2022-06-12T06:07:48Z</time>
      </trkpt>
      <trkpt lat="44.1808" lon="6.74877">
        <ele>1215.2</ele>
        <time>2022-06-12T06:07:49Z</time>
      </trkpt>
      <trkpt lat="44.18085" lon="6.74874">
        <ele>1215.7</ele>
        <time>2022-06-12T06:07:50Z</time>
      </trkpt>
      <trkpt lat="44.18088" lon="6.74872">
        <ele>1216.2</ele>
        <time>2022-06-12T06:07:51Z</time>
      </trkpt>
      <trkpt lat="44.18092" lon="6.7487">
        <ele>1216.6</ele>
        <time>2022-06-12T06:07:52Z</time>
      </trkpt>
      <trkpt lat="44.18096" lon="6.74867">
        <ele>1217.3</ele>
        <time>2022-06-12T06:07:53Z</time>
      </trkpt>
      <trkpt lat="44.181" lon="6.74865">
        <ele>1217.5</ele>
        <time>2022-06-12T06:07:54Z</time>
      </trkpt>
      <trkpt lat="44.18105" lon="6.74863">
        <ele>1217.4</ele>
        <time>2022-06-12T06:07:55Z</time>
      </trkpt>
      <trkpt lat="44.18109" lon="6.74862">
        <ele>1217.3</ele>
        <time>2022-06-12T06:07:56Z</time>
      </trkpt>
      <trkpt lat="44.18113" lon="6.74859">
        <ele>1217.8</ele>
        <time>2022-06-12T06:07:57Z</time>
      </trkpt>
      <trkpt lat="44.18117" lon="6.74858">
        <ele>1217.8</ele>
        <time>2022-06-12T06:07:58Z</time>
      </trkpt>
      <trkpt lat="44.18121" lon="6.74857">
        <ele>1217.8</ele>
        <time>2022-06-12T06:07:59Z</time>
      </trkpt>
      <trkpt lat="44.18124" lon="6.74855">
        <ele>1218.2</ele>
        <time>2022-06-12T06:08:00Z</time>
      </trkpt>
      <trkpt lat="44.18128" lon="6.74853">
        <ele>1218.5</ele>
        <time>2022-06-12T06:08:01Z</time>
      </trkpt>
      <trkpt lat="44.18132" lon="6.74851">
        <ele>1218.5</ele>
        <time>2022-06-12T06:08:02Z</time>
      </trkpt>
      <trkpt lat="44.18135" lon="6.74848">
        <ele>1219.3</ele>
        <time>2022-06-12T06:08:03Z</time>
      </trkpt>
      <trkpt lat="44.18139" lon="6.74845">
        <ele>1219.9</ele>
        <time>2022-06-12T06:08:04Z</time>
      </trkpt>
      <trkpt lat="44.18142" lon="6.74843">
        <ele>1220.7</ele>
        <time>2022-06-12T06:08:05Z</time>
      </trkpt>
      <trkpt lat="44.18145" lon="6.74841">
        <ele>1221.3</ele>
        <time>2022-06-12T06:08:06Z</time>
      </trkpt>
      <trkpt lat="44.18148" lon="6.74838">
        <ele>1222</ele>
        <time>2022-06-12T06:08:07Z</time>
      </trkpt>
      <trkpt lat="44.18151" lon="6.74836">
        <ele>1222.8</ele>
        <time>2022-06-12T06:08:08Z</time>
      </trkpt>
      <trkpt lat="44.18154" lon="6.74833">
        <ele>1223.7</ele>
        <time>2022-06-12T06:08:09Z</time>
      </trkpt>
      <trkpt lat="44.18158" lon="6.74829">
        <ele>1224.6</ele>
        <time>2022-06-12T06:08:10Z</time>
      </trkpt>
      <trkpt lat="44.18161" lon="6.74827">
        <ele>1225</ele>
        <time>2022-06-12T06:08:11Z</time>
      </trkpt>
      <trkpt lat="44.18164" lon="6.74825">
        <ele>1225.5</ele>
        <time>2022-06-12T06:08:12Z</time>
      </trkpt>
      <trkpt lat="44.18167" lon="6.74824">
        <ele>1225.8</ele>
        <time>2022-06-12T06:08:13Z</time>
      </trkpt>
      <trkpt lat="44.18171" lon="6.74822">
        <ele>1226.4</ele>
        <time>2022-06-12T06:08:14Z</time>
      </trkpt>
      <trkpt lat="44.18175" lon="6.7482">
        <ele>1227.2</ele>
        <time>2022-06-12T06:08:15Z</time>
      </trkpt>
      <trkpt lat="44.18178" lon="6.74818">
        <ele>1227.9</ele>
        <time>2022-06-12T06:08:16Z</time>
      </trkpt>
      <trkpt lat="44.18181" lon="6.74816">
        <ele>1228.4</ele>
        <time>2022-06-12T06:08:17Z</time>
      </trkpt>
      <trkpt lat="44.18184" lon="6.74815">
        <ele>1228.8</ele>
        <time>2022-06-12T06:08:18Z</time>
      </trkpt>
      <trkpt lat="44.18188" lon="6.74814">
        <ele>1229.1</ele>
        <time>2022-06-12T06:08:19Z</time>
      </trkpt>
      <trkpt lat="44.18192" lon="6.74814">
        <ele>1229.2</ele>
        <time>2022-06-12T06:08:20Z</time>
      </trkpt>
      <trkpt lat="44.18195" lon="6.74813">
        <ele>1229.3</ele>
        <time>2022-06-12T06:08:21Z</time>
      </trkpt>
      <trkpt lat="44.18198" lon="6.74815">
        <ele>1229.2</ele>
        <time>2022-06-12T06:08:22Z</time>
      </trkpt>
      <trkpt lat="44.18201" lon="6.74816">
        <ele>1229</ele>
        <time>2022-06-12T06:08:23Z</time>
      </trkpt>
      <trkpt lat="44.18204" lon="6.74818">
        <ele>1228.7</ele>
        <time>2022-06-12T06:08:24Z</time>
      </trkpt>
      <trkpt lat="44.18207" lon="6.7482">
        <ele>1228.5</ele>
        <time>2022-06-12T06:08:25Z</time>
      </trkpt>
      <trkpt lat="44.18211" lon="6.74823">
        <ele>1227.8</ele>
        <time>2022-06-12T06:08:26Z</time>
      </trkpt>
      <trkpt lat="44.18215" lon="6.74825">
        <ele>1227.6</ele>
        <time>2022-06-12T06:08:27Z</time>
      </trkpt>
      <trkpt lat="44.18219" lon="6.74828">
        <ele>1227.4</ele>
        <time>2022-06-12T06:08:28Z</time>
      </trkpt>
      <trkpt lat="44.18222" lon="6.7483">
        <ele>1227.1</ele>
        <time>2022-06-12T06:08:29Z</time>
      </trkpt>
      <trkpt lat="44.18226" lon="6.74833">
        <ele>1226.9</ele>
        <time>2022-06-12T06:08:30Z</time>
      </trkpt>
      <trkpt lat="44.1823" lon="6.74835">
        <ele>1226.7</ele>
        <time>2022-06-12T06:08:31Z</time>
      </trkpt>
      <trkpt lat="44.18233" lon="6.74838">
        <ele>1226.5</ele>
        <time>2022-06-12T06:08:32Z</time>
      </trkpt>
      <trkpt lat="44.18236" lon="6.7484">
        <ele>1226.3</ele>
        <time>2022-06-12T06:08:33Z</time>
      </trkpt>
      <trkpt lat="44.1824" lon="6.74842">
        <ele>1226.2</ele>
        <time>2022-06-12T06:08:34Z</time>
      </trkpt>
      <trkpt lat="44.18243" lon="6.74845">
        <ele>1226</ele>
        <time>2022-06-12T06:08:35Z</time>
      </trkpt>
      <trkpt lat="44.18246" lon="6.74847">
        <ele>1225.8</ele>
        <time>2022-06-12T06:08:36Z</time>
      </trkpt>
      <trkpt lat="44.18249" lon="6.74849">
        <ele>1225.7</ele>
        <time>2022-06-12T06:08:37Z</time>
      </trkpt>
      <trkpt lat="44.18253" lon="6.74852">
        <ele>1225.7</ele>
        <time>2022-06-12T06:08:38Z</time>
      </trkpt>
      <trkpt lat="44.18256" lon="6.74854">
        <ele>1225.6</ele>
        <time>2022-06-12T06:08:39Z</time>
      </trkpt>
      <trkpt lat="44.18259" lon="6.74856">
        <ele>1225.6</ele>
        <time>2022-06-12T06:08:40Z</time>
      </trkpt>
      <trkpt lat="44.18262" lon="6.74858">
        <ele>1225.5</ele>
        <time>2022-06-12T06:08:41Z</time>
      </trkpt>
      <trkpt lat="44.18265" lon="6.74861">
        <ele>1225.4</ele>
        <time>2022-06-12T06:08:42Z</time>
      </trkpt>
      <trkpt lat="44.18268" lon="6.74863">
        <ele>1225.4</ele>
        <time>2022-06-12T06:08:43Z</time>
      </trkpt>
      <trkpt lat="44.18271" lon="6.74866">
        <ele>1225.4</ele>
        <time>2022-06-12T06:08:44Z</time>
      </trkpt>
      <trkpt lat="44.18274" lon="6.74868">
        <ele>1225.4</ele>
        <time>2022-06-12T06:08:45Z</time>
      </trkpt>
      <trkpt lat="44.18278" lon="6.74871">
        <ele>1225.6</ele>
        <time>2022-06-12T06:08:46Z</time>
      </trkpt>
      <trkpt lat="44.18281" lon="6.74873">
        <ele>1225.7</ele>
        <time>2022-06-12T06:08:47Z</time>
      </trkpt>
      <trkpt lat="44.18284" lon="6.74875">
        <ele>1225.7</ele>
        <time>2022-06-12T06:08:48Z</time>
      </trkpt>
      <trkpt lat="44.18287" lon="6.74878">
        <ele>1225.7</ele>
        <time>2022-06-12T06:08:49Z</time>
      </trkpt>
      <trkpt lat="44.18291" lon="6.7488">
        <ele>1225.7</ele>
        <time>2022-06-12T06:08:50Z</time>
      </trkpt>
      <trkpt lat="44.18294" lon="6.74883">
        <ele>1225.6</ele>
        <time>2022-06-12T06:08:51Z</time>
      </trkpt>
      <trkpt lat="44.18297" lon="6.74885">
        <ele>1225.6</ele>
        <time>2022-06-12T06:08:52Z</time>
      </trkpt>
      <trkpt lat="44.183" lon="6.74887">
        <ele>1225.5</ele>
        <time>2022-06-12T06:08:53Z</time>
      </trkpt>
      <trkpt lat="44.18303" lon="6.74889">
        <ele>1225.5</ele>
        <time>2022-06-12T06:08:54Z</time>
      </trkpt>
      <trkpt lat="44.18305" lon="6.74891">
        <ele>1225.5</ele>
        <time>2022-06-12T06:08:55Z</time>
      </trkpt>
      <trkpt lat="44.18308" lon="6.74893">
        <ele>1225.5</ele>
        <time>2022-06-12T06:08:56Z</time>
      </trkpt>
      <trkpt lat="44.18311" lon="6.74895">
        <ele>1225.6</ele>
        <time>2022-06-12T06:08:57Z</time>
      </trkpt>
      <trkpt lat="44.18314" lon="6.74896">
        <ele>1225.8</ele>
        <time>2022-06-12T06:08:58Z</time>
      </trkpt>
      <trkpt lat="44.18317" lon="6.74898">
        <ele>1226</ele>
        <time>2022-06-12T06:08:59Z</time>
      </trkpt>
      <trkpt lat="44.1832" lon="6.74899">
        <ele>1226.2</ele>
        <time>2022-06-12T06:09:00Z</time>
      </trkpt>
      <trkpt lat="44.18322" lon="6.749">
        <ele>1226.3</ele>
        <time>2022-06-12T06:09:01Z</time>
      </trkpt>
      <trkpt lat="44.18325" lon="6.74901">
        <ele>1226.6</ele>
        <time>2022-06-12T06:09:02Z</time>
      </trkpt>
      <trkpt lat="44.18328" lon="6.74902">
        <ele>1226.9</ele>
        <time>2022-06-12T06:09:03Z</time>
      </trkpt>
      <trkpt lat="44.18331" lon="6.74902">
        <ele>1227.3</ele>
        <time>2022-06-12T06:09:04Z</time>
      </trkpt>
      <trkpt lat="44.18335" lon="6.74903">
        <ele>1227.5</ele>
        <time>2022-06-12T06:09:05Z</time>
      </trkpt>
      <trkpt lat="44.18338" lon="6.74904">
        <ele>1227.7</ele>
        <time>2022-06-12T06:09:06Z</time>
      </trkpt>
      <trkpt lat="44.18341" lon="6.74904">
        <ele>1227.9</ele>
        <time>2022-06-12T06:09:07Z</time>
      </trkpt>
      <trkpt lat="44.18344" lon="6.74905">
        <ele>1228</ele>
        <time>2022-06-12T06:09:08Z</time>
      </trkpt>
      <trkpt lat="44.18348" lon="6.74905">
        <ele>1228.2</ele>
        <time>2022-06-12T06:09:09Z</time>
      </trkpt>
      <trkpt lat="44.18351" lon="6.74906">
        <ele>1228.4</ele>
        <time>2022-06-12T06:09:10Z</time>
      </trkpt>
      <trkpt lat="44.18355" lon="6.74906">
        <ele>1228.5</ele>
        <time>2022-06-12T06:09:11Z</time>
      </trkpt>
      <trkpt lat="44.18358" lon="6.74907">
        <ele>1228.7</ele>
        <time>2022-06-12T06:09:12Z</time>
      </trkpt>
      <trkpt lat="44.18362" lon="6.74907">
        <ele>1228.8</ele>
        <time>2022-06-12T06:09:13Z</time>
      </trkpt>
      <trkpt lat="44.18365" lon="6.74907">
        <ele>1229</ele>
        <time>2022-06-12T06:09:14Z</time>
      </trkpt>
      <trkpt lat="44.18369" lon="6.74907">
        <ele>1229.3</ele>
        <time>2022-06-12T06:09:15Z</time>
      </trkpt>
      <trkpt lat="44.18372" lon="6.74908">
        <ele>1229.4</ele>
        <time>2022-06-12T06:09:16Z</time>
      </trkpt>
      <trkpt lat="44.18375" lon="6.74908">
        <ele>1229.6</ele>
        <time>2022-06-12T06:09:17Z</time>
      </trkpt>
      <trkpt lat="44.18379" lon="6.74908">
        <ele>1229.8</ele>
        <time>2022-06-12T06:09:18Z</time>
      </trkpt>
      <trkpt lat="44.18381" lon="6.74908">
        <ele>1230</ele>
        <time>2022-06-12T06:09:19Z</time>
      </trkpt>
      <trkpt lat="44.18384" lon="6.74908">
        <ele>1230.2</ele>
        <time>2022-06-12T06:09:20Z</time>
      </trkpt>
      <trkpt lat="44.18387" lon="6.74908">
        <ele>1230.4</ele>
        <time>2022-06-12T06:09:21Z</time>
      </trkpt>
      <trkpt lat="44.1839" lon="6.74908">
        <ele>1230.6</ele>
        <time>2022-06-12T06:09:22Z</time>
      </trkpt>
      <trkpt lat="44.18393" lon="6.74908">
        <ele>1230.5</ele>
        <time>2022-06-12T06:09:23Z</time>
      </trkpt>
      <trkpt lat="44.18396" lon="6.74908">
        <ele>1230.5</ele>
        <time>2022-06-12T06:09:24Z</time>
      </trkpt>
      <trkpt lat="44.184" lon="6.74908">
        <ele>1230.4</ele>
        <time>2022-06-12T06:09:25Z</time>
      </trkpt>
      <trkpt lat="44.18403" lon="6.74909">
        <ele>1230.4</ele>
        <time>2022-06-12T06:09:26Z</time>
      </trkpt>
      <trkpt lat="44.18407" lon="6.74908">
        <ele>1230.4</ele>
        <time>2022-06-12T06:09:27Z</time>
      </trkpt>
      <trkpt lat="44.1841" lon="6.74908">
        <ele>1230.6</ele>
        <time>2022-06-12T06:09:28Z</time>
      </trkpt>
      <trkpt lat="44.18414" lon="6.74907">
        <ele>1230.7</ele>
        <time>2022-06-12T06:09:29Z</time>
      </trkpt>
      <trkpt lat="44.18417" lon="6.74907">
        <ele>1230.8</ele>
        <time>2022-06-12T06:09:30Z</time>
      </trkpt>
      <trkpt lat="44.1842" lon="6.74906">
        <ele>1231</ele>
        <time>2022-06-12T06:09:31Z</time>
      </trkpt>
      <trkpt lat="44.18423" lon="6.74906">
        <ele>1231.1</ele>
        <time>2022-06-12T06:09:32Z</time>
      </trkpt>
      <trkpt lat="44.18426" lon="6.74905">
        <ele>1231.2</ele>
        <time>2022-06-12T06:09:33Z</time>
      </trkpt>
      <trkpt lat="44.18429" lon="6.74904">
        <ele>1231.4</ele>
        <time>2022-06-12T06:09:34Z</time>
      </trkpt>
      <trkpt lat="44.18432" lon="6.74903">
        <ele>1231.6</ele>
        <time>2022-06-12T06:09:35Z</time>
      </trkpt>
      <trkpt lat="44.18435" lon="6.74902">
        <ele>1231.8</ele>
        <time>2022-06-12T06:09:36Z</time>
      </trkpt>
      <trkpt lat="44.18438" lon="6.74901">
        <ele>1232.1</ele>
        <time>2022-06-12T06:09:37Z</time>
      </trkpt>
      <trkpt lat="44.18441" lon="6.749">
        <ele>1232.3</ele>
        <time>2022-06-12T06:09:38Z</time>
      </trkpt>
      <trkpt lat="44.18444" lon="6.74899">
        <ele>1232.6</ele>
        <time>2022-06-12T06:09:39Z</time>
      </trkpt>
      <trkpt lat="44.18447" lon="6.74897">
        <ele>1232.9</ele>
        <time>2022-06-12T06:09:40Z</time>
      </trkpt>
      <trkpt lat="44.1845" lon="6.74896">
        <ele>1233.3</ele>
        <time>2022-06-12T06:09:41Z</time>
      </trkpt>
      <trkpt lat="44.18453" lon="6.74895">
        <ele>1233.6</ele>
        <time>2022-06-12T06:09:42Z</time>
      </trkpt>
      <trkpt lat="44.18455" lon="6.74893">
        <ele>1234</ele>
        <time>2022-06-12T06:09:43Z</time>
      </trkpt>
      <trkpt lat="44.18458" lon="6.74892">
        <ele>1234.3</ele>
        <time>2022-06-12T06:09:44Z</time>
      </trkpt>
      <trkpt lat="44.18461" lon="6.7489">
        <ele>1234.6</ele>
        <time>2022-06-12T06:09:45Z</time>
      </trkpt>
      <trkpt lat="44.18464" lon="6.74889">
        <ele>1235</ele>
        <time>2022-06-12T06:09:46Z</time>
      </trkpt>
      <trkpt lat="44.18467" lon="6.74888">
        <ele>1235.2</ele>
        <time>2022-06-12T06:09:47Z</time>
      </trkpt>
      <trkpt lat="44.18469" lon="6.74887">
        <ele>1235.5</ele>
        <time>2022-06-12T06:09:48Z</time>
      </trkpt>
      <trkpt lat="44.18472" lon="6.74886">
        <ele>1235.8</ele>
        <time>2022-06-12T06:09:49Z</time>
      </trkpt>
      <trkpt lat="44.18475" lon="6.74885">
        <ele>1236</ele>
        <time>2022-06-12T06:09:50Z</time>
      </trkpt>
      <trkpt lat="44.18478" lon="6.74884">
        <ele>1236.1</ele>
        <time>2022-06-12T06:09:51Z</time>
      </trkpt>
      <trkpt lat="44.18481" lon="6.74882">
        <ele>1236.4</ele>
        <time>2022-06-12T06:09:52Z</time>
      </trkpt>
      <trkpt lat="44.18484" lon="6.74881">
        <ele>1236.6</ele>
        <time>2022-06-12T06:09:53Z</time>
      </trkpt>
      <trkpt lat="44.18487" lon="6.7488">
        <ele>1236.8</ele>
        <time>2022-06-12T06:09:54Z</time>
      </trkpt>
      <trkpt lat="44.1849" lon="6.74879">
        <ele>1237</ele>
        <time>2022-06-12T06:09:55Z</time>
      </trkpt>
      <trkpt lat="44.18493" lon="6.74877">
        <ele>1237.2</ele>
        <time>2022-06-12T06:09:56Z</time>
      </trkpt>
      <trkpt lat="44.18495" lon="6.74877">
        <ele>1237.3</ele>
        <time>2022-06-12T06:09:57Z</time>
      </trkpt>
      <trkpt lat="44.18498" lon="6.74876">
        <ele>1237.4</ele>
        <time>2022-06-12T06:09:58Z</time>
      </trkpt>
      <trkpt lat="44.18501" lon="6.74875">
        <ele>1237.6</ele>
        <time>2022-06-12T06:09:59Z</time>
      </trkpt>
      <trkpt lat="44.18503" lon="6.74874">
        <ele>1237.7</ele>
        <time>2022-06-12T06:10:00Z</time>
      </trkpt>
      <trkpt lat="44.18506" lon="6.74872">
        <ele>1238</ele>
        <time>2022-06-12T06:10:01Z</time>
      </trkpt>
      <trkpt lat="44.18509" lon="6.74871">
        <ele>1238.1</ele>
        <time>2022-06-12T06:10:02Z</time>
      </trkpt>
      <trkpt lat="44.18512" lon="6.7487">
        <ele>1238.3</ele>
        <time>2022-06-12T06:10:03Z</time>
      </trkpt>
      <trkpt lat="44.18515" lon="6.74869">
        <ele>1238.4</ele>
        <time>2022-06-12T06:10:04Z</time>
      </trkpt>
      <trkpt lat="44.18517" lon="6.74867">
        <ele>1238.5</ele>
        <time>2022-06-12T06:10:05Z</time>
      </trkpt>
      <trkpt lat="44.1852" lon="6.74866">
        <ele>1238.6</ele>
        <time>2022-06-12T06:10:06Z</time>
      </trkpt>
      <trkpt lat="44.18523" lon="6.74865">
        <ele>1238.6</ele>
        <time>2022-06-12T06:10:07Z</time>
      </trkpt>
      <trkpt lat="44.18525" lon="6.74864">
        <ele>1238.7</ele>
        <time>2022-06-12T06:10:08Z</time>
      </trkpt>
      <trkpt lat="44.18528" lon="6.74862">
        <ele>1238.8</ele>
        <time>2022-06-12T06:10:09Z</time>
      </trkpt>
      <trkpt lat="44.1853" lon="6.74861">
        <ele>1239</ele>
        <time>2022-06-12T06:10:10Z</time>
      </trkpt>
      <trkpt lat="44.18533" lon="6.7486">
        <ele>1239.3</ele>
        <time>2022-06-12T06:10:11Z</time>
      </trkpt>
      <trkpt lat="44.18536" lon="6.74859">
        <ele>1239.5</ele>
        <time>2022-06-12T06:10:12Z</time>
      </trkpt>
      <trkpt lat="44.18539" lon="6.74858">
        <ele>1239.8</ele>
        <time>2022-06-12T06:10:13Z</time>
      </trkpt>
      <trkpt lat="44.18542" lon="6.74856">
        <ele>1240</ele>
        <time>2022-06-12T06:10:14Z</time>
      </trkpt>
      <trkpt lat="44.18544" lon="6.74855">
        <ele>1240.3</ele>
        <time>2022-06-12T06:10:15Z</time>
      </trkpt>
      <trkpt lat="44.18547" lon="6.74854">
        <ele>1240.5</ele>
        <time>2022-06-12T06:10:16Z</time>
      </trkpt>
      <trkpt lat="44.1855" lon="6.74852">
        <ele>1240.8</ele>
        <time>2022-06-12T06:10:17Z</time>
      </trkpt>
      <trkpt lat="44.18553" lon="6.74851">
        <ele>1240.9</ele>
        <time>2022-06-12T06:10:18Z</time>
      </trkpt>
      <trkpt lat="44.18555" lon="6.7485">
        <ele>1241.1</ele>
        <time>2022-06-12T06:10:19Z</time>
      </trkpt>
      <trkpt lat="44.18558" lon="6.74849">
        <ele>1241.2</ele>
        <time>2022-06-12T06:10:20Z</time>
      </trkpt>
      <trkpt lat="44.18561" lon="6.74848">
        <ele>1241.3</ele>
        <time>2022-06-12T06:10:21Z</time>
      </trkpt>
      <trkpt lat="44.18564" lon="6.74847">
        <ele>1241.4</ele>
        <time>2022-06-12T06:10:22Z</time>
      </trkpt>
      <trkpt lat="44.18567" lon="6.74846">
        <ele>1241.5</ele>
        <time>2022-06-12T06:10:23Z</time>
      </trkpt>
      <trkpt lat="44.18569" lon="6.74845">
        <ele>1241.8</ele>
        <time>2022-06-12T06:10:24Z</time>
      </trkpt>
      <trkpt lat="44.18572" lon="6.74844">
        <ele>1241.9</ele>
        <time>2022-06-12T06:10:25Z</time>
      </trkpt>
      <trkpt lat="44.18575" lon="6.74844">
        <ele>1241.9</ele>
        <time>2022-06-12T06:10:26Z</time>
      </trkpt>
      <trkpt lat="44.18577" lon="6.74843">
        <ele>1242.1</ele>
        <time>2022-06-12T06:10:27Z</time>
      </trkpt>
      <trkpt lat="44.1858" lon="6.74841">
        <ele>1242.4</ele>
        <time>2022-06-12T06:10:28Z</time>
      </trkpt>
      <trkpt lat="44.18582" lon="6.7484">
        <ele>1242.5</ele>
        <time>2022-06-12T06:10:29Z</time>
      </trkpt>
      <trkpt lat="44.18585" lon="6.74839">
        <ele>1242.7</ele>
        <time>2022-06-12T06:10:30Z</time>
      </trkpt>
      <trkpt lat="44.18587" lon="6.74838">
        <ele>1242.9</ele>
        <time>2022-06-12T06:10:31Z</time>
      </trkpt>
      <trkpt lat="44.1859" lon="6.74836">
        <ele>1243.1</ele>
        <time>2022-06-12T06:10:32Z</time>
      </trkpt>
      <trkpt lat="44.18593" lon="6.74835">
        <ele>1243.4</ele>
        <time>2022-06-12T06:10:33Z</time>
      </trkpt>
      <trkpt lat="44.18596" lon="6.74833">
        <ele>1243.6</ele>
        <time>2022-06-12T06:10:34Z</time>
      </trkpt>
      <trkpt lat="44.18598" lon="6.74832">
        <ele>1243.8</ele>
        <time>2022-06-12T06:10:35Z</time>
      </trkpt>
      <trkpt lat="44.18601" lon="6.74831">
        <ele>1244.1</ele>
        <time>2022-06-12T06:10:36Z</time>
      </trkpt>
      <trkpt lat="44.18604" lon="6.74829">
        <ele>1244.4</ele>
        <time>2022-06-12T06:10:37Z</time>
      </trkpt>
      <trkpt lat="44.18606" lon="6.74828">
        <ele>1244.7</ele>
        <time>2022-06-12T06:10:38Z</time>
      </trkpt>
      <trkpt lat="44.18609" lon="6.74826">
        <ele>1244.9</ele>
        <time>2022-06-12T06:10:39Z</time>
      </trkpt>
      <trkpt lat="44.18612" lon="6.74824">
        <ele>1245.3</ele>
        <time>2022-06-12T06:10:40Z</time>
      </trkpt>
      <trkpt lat="44.18616" lon="6.74823">
        <ele>1245.7</ele>
        <time>2022-06-12T06:10:41Z</time>
      </trkpt>
      <trkpt lat="44.18619" lon="6.74821">
        <ele>1245.9</ele>
        <time>2022-06-12T06:10:42Z</time>
      </trkpt>
      <trkpt lat="44.18621" lon="6.7482">
        <ele>1246.2</ele>
        <time>2022-06-12T06:10:43Z</time>
      </trkpt>
      <trkpt lat="44.18624" lon="6.74819">
        <ele>1246.4</ele>
        <time>2022-06-12T06:10:44Z</time>
      </trkpt>
      <trkpt lat="44.18627" lon="6.74818">
        <ele>1246.5</ele>
        <time>2022-06-12T06:10:45Z</time>
      </trkpt>
      <trkpt lat="44.1863" lon="6.74817">
        <ele>1246.8</ele>
        <time>2022-06-12T06:10:46Z</time>
      </trkpt>
      <trkpt lat="44.18633" lon="6.74815">
        <ele>1247.1</ele>
        <time>2022-06-12T06:10:47Z</time>
      </trkpt>
      <trkpt lat="44.18636" lon="6.74814">
        <ele>1247.3</ele>
        <time>2022-06-12T06:10:48Z</time>
      </trkpt>
      <trkpt lat="44.1864" lon="6.74812">
        <ele>1247.5</ele>
        <time>2022-06-12T06:10:49Z</time>
      </trkpt>
      <trkpt lat="44.18643" lon="6.74811">
        <ele>1247.8</ele>
        <time>2022-06-12T06:10:50Z</time>
      </trkpt>
      <trkpt lat="44.18646" lon="6.7481">
        <ele>1247.9</ele>
        <time>2022-06-12T06:10:51Z</time>
      </trkpt>
      <trkpt lat="44.1865" lon="6.74809">
        <ele>1248</ele>
        <time>2022-06-12T06:10:52Z</time>
      </trkpt>
      <trkpt lat="44.18653" lon="6.74807">
        <ele>1248.2</ele>
        <time>2022-06-12T06:10:53Z</time>
      </trkpt>
      <trkpt lat="44.18656" lon="6.74806">
        <ele>1248.4</ele>
        <time>2022-06-12T06:10:54Z</time>
      </trkpt>
      <trkpt lat="44.18659" lon="6.74804">
        <ele>1248.6</ele>
        <time>2022-06-12T06:10:55Z</time>
      </trkpt>
      <trkpt lat="44.18662" lon="6.74802">
        <ele>1249</ele>
        <time>2022-06-12T06:10:56Z</time>
      </trkpt>
      <trkpt lat="44.18664" lon="6.748">
        <ele>1249.3</ele>
        <time>2022-06-12T06:10:57Z</time>
      </trkpt>
      <trkpt lat="44.18668" lon="6.74798">
        <ele>1249.6</ele>
        <time>2022-06-12T06:10:58Z</time>
      </trkpt>
      <trkpt lat="44.18671" lon="6.74796">
        <ele>1249.9</ele>
        <time>2022-06-12T06:10:59Z</time>
      </trkpt>
      <trkpt lat="44.18674" lon="6.74794">
        <ele>1250.1</ele>
        <time>2022-06-12T06:11:00Z</time>
      </trkpt>
      <trkpt lat="44.18678" lon="6.74792">
        <ele>1250.4</ele>
        <time>2022-06-12T06:11:01Z</time>
      </trkpt>
      <trkpt lat="44.1868" lon="6.7479">
        <ele>1250.7</ele>
        <time>2022-06-12T06:11:02Z</time>
      </trkpt>
      <trkpt lat="44.18683" lon="6.74787">
        <ele>1251</ele>
        <time>2022-06-12T06:11:03Z</time>
      </trkpt>
      <trkpt lat="44.18686" lon="6.74785">
        <ele>1251.2</ele>
        <time>2022-06-12T06:11:04Z</time>
      </trkpt>
      <trkpt lat="44.18689" lon="6.74784">
        <ele>1251.3</ele>
        <time>2022-06-12T06:11:05Z</time>
      </trkpt>
      <trkpt lat="44.18693" lon="6.74783">
        <ele>1251.3</ele>
        <time>2022-06-12T06:11:06Z</time>
      </trkpt>
      <trkpt lat="44.18696" lon="6.74782">
        <ele>1251.1</ele>
        <time>2022-06-12T06:11:07Z</time>
      </trkpt>
      <trkpt lat="44.187" lon="6.74781">
        <ele>1250.9</ele>
        <time>2022-06-12T06:11:08Z</time>
      </trkpt>
      <trkpt lat="44.18703" lon="6.7478">
        <ele>1250.7</ele>
        <time>2022-06-12T06:11:09Z</time>
      </trkpt>
      <trkpt lat="44.18707" lon="6.7478">
        <ele>1250.4</ele>
        <time>2022-06-12T06:11:10Z</time>
      </trkpt>
      <trkpt lat="44.1871" lon="6.7478">
        <ele>1250.1</ele>
        <time>2022-06-12T06:11:11Z</time>
      </trkpt>
      <trkpt lat="44.18713" lon="6.7478">
        <ele>1249.7</ele>
        <time>2022-06-12T06:11:12Z</time>
      </trkpt>
      <trkpt lat="44.18717" lon="6.7478">
        <ele>1249.3</ele>
        <time>2022-06-12T06:11:13Z</time>
      </trkpt>
      <trkpt lat="44.1872" lon="6.74781">
        <ele>1248.9</ele>
        <time>2022-06-12T06:11:14Z</time>
      </trkpt>
      <trkpt lat="44.18724" lon="6.74783">
        <ele>1248.4</ele>
        <time>2022-06-12T06:11:15Z</time>
      </trkpt>
      <trkpt lat="44.18727" lon="6.74784">
        <ele>1248.1</ele>
        <time>2022-06-12T06:11:16Z</time>
      </trkpt>
      <trkpt lat="44.1873" lon="6.74786">
        <ele>1247.9</ele>
        <time>2022-06-12T06:11:17Z</time>
      </trkpt>
      <trkpt lat="44.18733" lon="6.74788">
        <ele>1247.5</ele>
        <time>2022-06-12T06:11:18Z</time>
      </trkpt>
      <trkpt lat="44.18736" lon="6.7479">
        <ele>1247.2</ele>
        <time>2022-06-12T06:11:19Z</time>
      </trkpt>
      <trkpt lat="44.18739" lon="6.74792">
        <ele>1246.8</ele>
        <time>2022-06-12T06:11:20Z</time>
      </trkpt>
      <trkpt lat="44.18742" lon="6.74795">
        <ele>1246.5</ele>
        <time>2022-06-12T06:11:21Z</time>
      </trkpt>
      <trkpt lat="44.18745" lon="6.74798">
        <ele>1246.1</ele>
        <time>2022-06-12T06:11:22Z</time>
      </trkpt>
      <trkpt lat="44.18748" lon="6.748">
        <ele>1245.7</ele>
        <time>2022-06-12T06:11:23Z</time>
      </trkpt>
      <trkpt lat="44.1875" lon="6.74803">
        <ele>1245.3</ele>
        <time>2022-06-12T06:11:24Z</time>
      </trkpt>
      <trkpt lat="44.18753" lon="6.74805">
        <ele>1245.2</ele>
        <time>2022-06-12T06:11:25Z</time>
      </trkpt>
      <trkpt lat="44.18756" lon="6.74808">
        <ele>1245.2</ele>
        <time>2022-06-12T06:11:26Z</time>
      </trkpt>
      <trkpt lat="44.18759" lon="6.74811">
        <ele>1245.2</ele>
        <time>2022-06-12T06:11:27Z</time>
      </trkpt>
      <trkpt lat="44.18762" lon="6.74813">
        <ele>1245.3</ele>
        <time>2022-06-12T06:11:28Z</time>
      </trkpt>
      <trkpt lat="44.18764" lon="6.74816">
        <ele>1245.3</ele>
        <time>2022-06-12T06:11:29Z</time>
      </trkpt>
      <trkpt lat="44.18767" lon="6.74818">
        <ele>1245.4</ele>
        <time>2022-06-12T06:11:30Z</time>
      </trkpt>
      <trkpt lat="44.1877" lon="6.74821">
        <ele>1245.5</ele>
        <time>2022-06-12T06:11:31Z</time>
      </trkpt>
      <trkpt lat="44.18772" lon="6.74823">
        <ele>1245.7</ele>
        <time>2022-06-12T06:11:32Z</time>
      </trkpt>
      <trkpt lat="44.18775" lon="6.74825">
        <ele>1245.8</ele>
        <time>2022-06-12T06:11:33Z</time>
      </trkpt>
      <trkpt lat="44.18777" lon="6.74828">
        <ele>1245.9</ele>
        <time>2022-06-12T06:11:34Z</time>
      </trkpt>
      <trkpt lat="44.18779" lon="6.7483">
        <ele>1246.1</ele>
        <time>2022-06-12T06:11:35Z</time>
      </trkpt>
      <trkpt lat="44.18782" lon="6.74832">
        <ele>1246.4</ele>
        <time>2022-06-12T06:11:36Z</time>
      </trkpt>
      <trkpt lat="44.18784" lon="6.74834">
        <ele>1246.7</ele>
        <time>2022-06-12T06:11:37Z</time>
      </trkpt>
      <trkpt lat="44.18786" lon="6.74835">
        <ele>1247</ele>
        <time>2022-06-12T06:11:38Z</time>
      </trkpt>
      <trkpt lat="44.18788" lon="6.74837">
        <ele>1247.3</ele>
        <time>2022-06-12T06:11:39Z</time>
      </trkpt>
      <trkpt lat="44.18789" lon="6.74838">
        <ele>1247.6</ele>
        <time>2022-06-12T06:11:40Z</time>
      </trkpt>
      <trkpt lat="44.1879" lon="6.7484">
        <ele>1247.8</ele>
        <time>2022-06-12T06:11:41Z</time>
      </trkpt>
      <trkpt lat="44.18791" lon="6.74841">
        <ele>1248</ele>
        <time>2022-06-12T06:11:42Z</time>
      </trkpt>
      <trkpt lat="44.18792" lon="6.74841">
        <ele>1248.1</ele>
        <time>2022-06-12T06:11:43Z</time>
      </trkpt>
      <trkpt lat="44.18793" lon="6.74841">
        <ele>1248.2</ele>
        <time>2022-06-12T06:11:44Z</time>
      </trkpt>
      <trkpt lat="44.18793" lon="6.74841">
        <ele>1248.2</ele>
        <time>2022-06-12T06:11:45Z</time>
      </trkpt>
      <trkpt lat="44.18796" lon="6.74841">
        <ele>1248.5</ele>
        <time>2022-06-12T06:12:02Z</time>
      </trkpt>
      <trkpt lat="44.18798" lon="6.74842">
        <ele>1248.7</ele>
        <time>2022-06-12T06:12:03Z</time>
      </trkpt>
      <trkpt lat="44.188" lon="6.74842">
        <ele>1249</ele>
        <time>2022-06-12T06:12:04Z</time>
      </trkpt>
      <trkpt lat="44.18802" lon="6.74843">
        <ele>1249.2</ele>
        <time>2022-06-12T06:12:05Z</time>
      </trkpt>
      <trkpt lat="44.18803" lon="6.74844">
        <ele>1249.5</ele>
        <time>2022-06-12T06:12:06Z</time>
      </trkpt>
      <trkpt lat="44.18805" lon="6.74845">
        <ele>1249.8</ele>
        <time>2022-06-12T06:12:07Z</time>
      </trkpt>
      <trkpt lat="44.18808" lon="6.74846">
        <ele>1250.1</ele>
        <time>2022-06-12T06:12:08Z</time>
      </trkpt>
      <trkpt lat="44.18809" lon="6.74847">
        <ele>1250.4</ele>
        <time>2022-06-12T06:12:09Z</time>
      </trkpt>
      <trkpt lat="44.18811" lon="6.74848">
        <ele>1250.7</ele>
        <time>2022-06-12T06:12:10Z</time>
      </trkpt>
      <trkpt lat="44.18812" lon="6.7485">
        <ele>1251</ele>
        <time>2022-06-12T06:12:11Z</time>
      </trkpt>
      <trkpt lat="44.18813" lon="6.74852">
        <ele>1251.2</ele>
        <time>2022-06-12T06:12:12Z</time>
      </trkpt>
      <trkpt lat="44.18814" lon="6.74853">
        <ele>1251.4</ele>
        <time>2022-06-12T06:12:13Z</time>
      </trkpt>
      <trkpt lat="44.18815" lon="6.74854">
        <ele>1251.6</ele>
        <time>2022-06-12T06:12:14Z</time>
      </trkpt>
      <trkpt lat="44.18816" lon="6.74854">
        <ele>1251.7</ele>
        <time>2022-06-12T06:12:15Z</time>
      </trkpt>
      <trkpt lat="44.18816" lon="6.74854">
        <ele>1251.7</ele>
        <time>2022-06-12T06:12:16Z</time>
      </trkpt>
      <trkpt lat="44.18827" lon="6.74851">
        <ele>1252.8</ele>
        <time>2022-06-12T06:35:09Z</time>
      </trkpt>
      <trkpt lat="44.18828" lon="6.74852">
        <ele>1253</ele>
        <time>2022-06-12T06:35:10Z</time>
      </trkpt>
      <trkpt lat="44.1883" lon="6.74852">
        <ele>1253.2</ele>
        <time>2022-06-12T06:35:11Z</time>
      </trkpt>
      <trkpt lat="44.18832" lon="6.74852">
        <ele>1253.5</ele>
        <time>2022-06-12T06:35:12Z</time>
      </trkpt>
      <trkpt lat="44.18834" lon="6.74853">
        <ele>1253.8</ele>
        <time>2022-06-12T06:35:13Z</time>
      </trkpt>
      <trkpt lat="44.18836" lon="6.74854">
        <ele>1254</ele>
        <time>2022-06-12T06:35:14Z</time>
      </trkpt>
      <trkpt lat="44.18838" lon="6.74857">
        <ele>1254.4</ele>
        <time>2022-06-12T06:35:15Z</time>
      </trkpt>
      <trkpt lat="44.1884" lon="6.74858">
        <ele>1254.7</ele>
        <time>2022-06-12T06:35:16Z</time>
      </trkpt>
      <trkpt lat="44.18842" lon="6.7486">
        <ele>1254.9</ele>
        <time>2022-06-12T06:35:17Z</time>
      </trkpt>
      <trkpt lat="44.18844" lon="6.74862">
        <ele>1255.2</ele>
        <time>2022-06-12T06:35:18Z</time>
      </trkpt>
      <trkpt lat="44.18847" lon="6.74863">
        <ele>1255.5</ele>
        <time>2022-06-12T06:35:19Z</time>
      </trkpt>
      <trkpt lat="44.18849" lon="6.74864">
        <ele>1255.8</ele>
        <time>2022-06-12T06:35:20Z</time>
      </trkpt>
      <trkpt lat="44.18852" lon="6.74865">
        <ele>1256.1</ele>
        <time>2022-06-12T06:35:21Z</time>
      </trkpt>
      <trkpt lat="44.18854" lon="6.74866">
        <ele>1256.4</ele>
        <time>2022-06-12T06:35:22Z</time>
      </trkpt>
      <trkpt lat="44.18856" lon="6.74867">
        <ele>1256.7</ele>
        <time>2022-06-12T06:35:23Z</time>
      </trkpt>
      <trkpt lat="44.18859" lon="6.74868">
        <ele>1257</ele>
        <time>2022-06-12T06:35:24Z</time>
      </trkpt>
      <trkpt lat="44.18861" lon="6.74869">
        <ele>1257.2</ele>
        <time>2022-06-12T06:35:25Z</time>
      </trkpt>
      <trkpt lat="44.18864" lon="6.7487">
        <ele>1257.4</ele>
        <time>2022-06-12T06:35:26Z</time>
      </trkpt>
      <trkpt lat="44.18866" lon="6.74871">
        <ele>1257.5</ele>
        <time>2022-06-12T06:35:27Z</time>
      </trkpt>
      <trkpt lat="44.18869" lon="6.74871">
        <ele>1257.6</ele>
        <time>2022-06-12T06:35:28Z</time>
      </trkpt>
      <trkpt lat="44.18871" lon="6.74873">
        <ele>1257.8</ele>
        <time>2022-06-12T06:35:29Z</time>
      </trkpt>
      <trkpt lat="44.18874" lon="6.74874">
        <ele>1257.9</ele>
        <time>2022-06-12T06:35:30Z</time>
      </trkpt>
      <trkpt lat="44.18877" lon="6.74874">
        <ele>1258</ele>
        <time>2022-06-12T06:35:31Z</time>
      </trkpt>
      <trkpt lat="44.18879" lon="6.74875">
        <ele>1258.1</ele>
        <time>2022-06-12T06:35:32Z</time>
      </trkpt>
      <trkpt lat="44.18881" lon="6.74876">
        <ele>1258.2</ele>
        <time>2022-06-12T06:35:33Z</time>
      </trkpt>
      <trkpt lat="44.18884" lon="6.74877">
        <ele>1258.4</ele>
        <time>2022-06-12T06:35:34Z</time>
      </trkpt>
      <trkpt lat="44.18886" lon="6.74879">
        <ele>1258.5</ele>
        <time>2022-06-12T06:35:35Z</time>
      </trkpt>
      <trkpt lat="44.18888" lon="6.74879">
        <ele>1258.6</ele>
        <time>2022-06-12T06:35:36Z</time>
      </trkpt>
      <trkpt lat="44.18891" lon="6.74881">
        <ele>1258.8</ele>
        <time>2022-06-12T06:35:37Z</time>
      </trkpt>
      <trkpt lat="44.18893" lon="6.74882">
        <ele>1258.9</ele>
        <time>2022-06-12T06:35:38Z</time>
      </trkpt>
      <trkpt lat="44.18895" lon="6.74884">
        <ele>1259</ele>
        <time>2022-06-12T06:35:39Z</time>
      </trkpt>
      <trkpt lat="44.18897" lon="6.74885">
        <ele>1259.2</ele>
        <time>2022-06-12T06:35:40Z</time>
      </trkpt>
      <trkpt lat="44.18899" lon="6.74887">
        <ele>1259.3</ele>
        <time>2022-06-12T06:35:41Z</time>
      </trkpt>
      <trkpt lat="44.18902" lon="6.74888">
        <ele>1259.4</ele>
        <time>2022-06-12T06:35:42Z</time>
      </trkpt>
      <trkpt lat="44.18904" lon="6.74889">
        <ele>1259.5</ele>
        <time>2022-06-12T06:35:43Z</time>
      </trkpt>
      <trkpt lat="44.18907" lon="6.7489">
        <ele>1259.7</ele>
        <time>2022-06-12T06:35:44Z</time>
      </trkpt>
      <trkpt lat="44.18909" lon="6.74891">
        <ele>1259.8</ele>
        <time>2022-06-12T06:35:45Z</time>
      </trkpt>
      <trkpt lat="44.18911" lon="6.74893">
        <ele>1259.9</ele>
        <time>2022-06-12T06:35:46Z</time>
      </trkpt>
      <trkpt lat="44.18912" lon="6.74894">
        <ele>1260</ele>
        <time>2022-06-12T06:35:47Z</time>
      </trkpt>
      <trkpt lat="44.18914" lon="6.74896">
        <ele>1260.1</ele>
        <time>2022-06-12T06:35:48Z</time>
      </trkpt>
      <trkpt lat="44.18917" lon="6.74897">
        <ele>1260.3</ele>
        <time>2022-06-12T06:35:49Z</time>
      </trkpt>
      <trkpt lat="44.18919" lon="6.74899">
        <ele>1260.6</ele>
        <time>2022-06-12T06:35:50Z</time>
      </trkpt>
      <trkpt lat="44.18921" lon="6.74901">
        <ele>1261.1</ele>
        <time>2022-06-12T06:35:51Z</time>
      </trkpt>
      <trkpt lat="44.18923" lon="6.74902">
        <ele>1261.6</ele>
        <time>2022-06-12T06:35:52Z</time>
      </trkpt>
      <trkpt lat="44.18926" lon="6.74904">
        <ele>1262.2</ele>
        <time>2022-06-12T06:35:53Z</time>
      </trkpt>
      <trkpt lat="44.18928" lon="6.74904">
        <ele>1262.7</ele>
        <time>2022-06-12T06:35:54Z</time>
      </trkpt>
      <trkpt lat="44.18931" lon="6.74904">
        <ele>1263.2</ele>
        <time>2022-06-12T06:35:55Z</time>
      </trkpt>
      <trkpt lat="44.18933" lon="6.74905">
        <ele>1263.8</ele>
        <time>2022-06-12T06:35:56Z</time>
      </trkpt>
      <trkpt lat="44.18935" lon="6.74906">
        <ele>1264.3</ele>
        <time>2022-06-12T06:35:57Z</time>
      </trkpt>
      <trkpt lat="44.18938" lon="6.74907">
        <ele>1265</ele>
        <time>2022-06-12T06:35:58Z</time>
      </trkpt>
      <trkpt lat="44.1894" lon="6.74908">
        <ele>1265.7</ele>
        <time>2022-06-12T06:35:59Z</time>
      </trkpt>
      <trkpt lat="44.18942" lon="6.74909">
        <ele>1266.3</ele>
        <time>2022-06-12T06:36:00Z</time>
      </trkpt>
      <trkpt lat="44.18944" lon="6.74909">
        <ele>1266.8</ele>
        <time>2022-06-12T06:36:01Z</time>
      </trkpt>
      <trkpt lat="44.18946" lon="6.74909">
        <ele>1267.4</ele>
        <time>2022-06-12T06:36:02Z</time>
      </trkpt>
      <trkpt lat="44.18949" lon="6.74909">
        <ele>1268.1</ele>
        <time>2022-06-12T06:36:03Z</time>
      </trkpt>
      <trkpt lat="44.18951" lon="6.74909">
        <ele>1268.7</ele>
        <time>2022-06-12T06:36:04Z</time>
      </trkpt>
      <trkpt lat="44.18953" lon="6.7491">
        <ele>1269.4</ele>
        <time>2022-06-12T06:36:05Z</time>
      </trkpt>
      <trkpt lat="44.18955" lon="6.7491">
        <ele>1270.1</ele>
        <time>2022-06-12T06:36:06Z</time>
      </trkpt>
      <trkpt lat="44.18958" lon="6.74911">
        <ele>1270.9</ele>
        <time>2022-06-12T06:36:07Z</time>
      </trkpt>
      <trkpt lat="44.1896" lon="6.74911">
        <ele>1271.5</ele>
        <time>2022-06-12T06:36:08Z</time>
      </trkpt>
      <trkpt lat="44.18962" lon="6.7491">
        <ele>1272</ele>
        <time>2022-06-12T06:36:09Z</time>
      </trkpt>
      <trkpt lat="44.18965" lon="6.74909">
        <ele>1272.1</ele>
        <time>2022-06-12T06:36:10Z</time>
      </trkpt>
      <trkpt lat="44.18967" lon="6.74909">
        <ele>1272.3</ele>
        <time>2022-06-12T06:36:11Z</time>
      </trkpt>
      <trkpt lat="44.18969" lon="6.74908">
        <ele>1272.5</ele>
        <time>2022-06-12T06:36:12Z</time>
      </trkpt>
      <trkpt lat="44.18972" lon="6.74907">
        <ele>1272.7</ele>
        <time>2022-06-12T06:36:13Z</time>
      </trkpt>
      <trkpt lat="44.18974" lon="6.74906">
        <ele>1272.5</ele>
        <time>2022-06-12T06:36:14Z</time>
      </trkpt>
      <trkpt lat="44.18976" lon="6.74906">
        <ele>1272.5</ele>
        <time>2022-06-12T06:36:15Z</time>
      </trkpt>
      <trkpt lat="44.18978" lon="6.74905">
        <ele>1272.3</ele>
        <time>2022-06-12T06:36:16Z</time>
      </trkpt>
      <trkpt lat="44.1898" lon="6.74904">
        <ele>1272.3</ele>
        <time>2022-06-12T06:36:17Z</time>
      </trkpt>
      <trkpt lat="44.18983" lon="6.74903">
        <ele>1272.1</ele>
        <time>2022-06-12T06:36:18Z</time>
      </trkpt>
      <trkpt lat="44.18985" lon="6.74902">
        <ele>1271.8</ele>
        <time>2022-06-12T06:36:19Z</time>
      </trkpt>
      <trkpt lat="44.18987" lon="6.74901">
        <ele>1271.4</ele>
        <time>2022-06-12T06:36:20Z</time>
      </trkpt>
      <trkpt lat="44.18989" lon="6.749">
        <ele>1271.1</ele>
        <time>2022-06-12T06:36:21Z</time>
      </trkpt>
      <trkpt lat="44.18991" lon="6.749">
        <ele>1270.8</ele>
        <time>2022-06-12T06:36:22Z</time>
      </trkpt>
      <trkpt lat="44.18993" lon="6.74898">
        <ele>1270.1</ele>
        <time>2022-06-12T06:36:23Z</time>
      </trkpt>
      <trkpt lat="44.18995" lon="6.74897">
        <ele>1269.7</ele>
        <time>2022-06-12T06:36:24Z</time>
      </trkpt>
      <trkpt lat="44.18997" lon="6.74896">
        <ele>1269.3</ele>
        <time>2022-06-12T06:36:25Z</time>
      </trkpt>
      <trkpt lat="44.18999" lon="6.74895">
        <ele>1268.8</ele>
        <time>2022-06-12T06:36:26Z</time>
      </trkpt>
      <trkpt lat="44.19001" lon="6.74894">
        <ele>1268.3</ele>
        <time>2022-06-12T06:36:27Z</time>
      </trkpt>
      <trkpt lat="44.19003" lon="6.74893">
        <ele>1268.8</ele>
        <time>2022-06-12T06:36:28Z</time>
      </trkpt>
      <trkpt lat="44.19005" lon="6.74891">
        <ele>1269.2</ele>
        <time>2022-06-12T06:36:29Z</time>
      </trkpt>
      <trkpt lat="44.19007" lon="6.7489">
        <ele>1269.6</ele>
        <time>2022-06-12T06:36:30Z</time>
      </trkpt>
      <trkpt lat="44.19009" lon="6.74889">
        <ele>1270</ele>
        <time>2022-06-12T06:36:31Z</time>
      </trkpt>
      <trkpt lat="44.19011" lon="6.74888">
        <ele>1270.8</ele>
        <time>2022-06-12T06:36:32Z</time>
      </trkpt>
      <trkpt lat="44.19013" lon="6.74887">
        <ele>1271.6</ele>
        <time>2022-06-12T06:36:33Z</time>
      </trkpt>
      <trkpt lat="44.19015" lon="6.74886">
        <ele>1272.6</ele>
        <time>2022-06-12T06:36:34Z</time>
      </trkpt>
      <trkpt lat="44.19018" lon="6.74885">
        <ele>1273.6</ele>
        <time>2022-06-12T06:36:35Z</time>
      </trkpt>
      <trkpt lat="44.1902" lon="6.74884">
        <ele>1274.3</ele>
        <time>2022-06-12T06:36:36Z</time>
      </trkpt>
      <trkpt lat="44.19021" lon="6.74883">
        <ele>1274.9</ele>
        <time>2022-06-12T06:36:37Z</time>
      </trkpt>
      <trkpt lat="44.19023" lon="6.74882">
        <ele>1275.4</ele>
        <time>2022-06-12T06:36:38Z</time>
      </trkpt>
      <trkpt lat="44.19025" lon="6.74881">
        <ele>1276</ele>
        <time>2022-06-12T06:36:39Z</time>
      </trkpt>
      <trkpt lat="44.19027" lon="6.7488">
        <ele>1276.5</ele>
        <time>2022-06-12T06:36:40Z</time>
      </trkpt>
      <trkpt lat="44.19029" lon="6.74878">
        <ele>1276.8</ele>
        <time>2022-06-12T06:36:41Z</time>
      </trkpt>
      <trkpt lat="44.1903" lon="6.74876">
        <ele>1277</ele>
        <time>2022-06-12T06:36:42Z</time>
      </trkpt>
      <trkpt lat="44.19032" lon="6.74875">
        <ele>1277.2</ele>
        <time>2022-06-12T06:36:43Z</time>
      </trkpt>
      <trkpt lat="44.19034" lon="6.74874">
        <ele>1277.7</ele>
        <time>2022-06-12T06:36:44Z</time>
      </trkpt>
      <trkpt lat="44.19036" lon="6.74872">
        <ele>1278</ele>
        <time>2022-06-12T06:36:45Z</time>
      </trkpt>
      <trkpt lat="44.19038" lon="6.7487">
        <ele>1277.9</ele>
        <time>2022-06-12T06:36:46Z</time>
      </trkpt>
      <trkpt lat="44.1904" lon="6.74867">
        <ele>1277.7</ele>
        <time>2022-06-12T06:36:47Z</time>
      </trkpt>
      <trkpt lat="44.19042" lon="6.74866">
        <ele>1277.9</ele>
        <time>2022-06-12T06:36:48Z</time>
      </trkpt>
      <trkpt lat="44.19044" lon="6.74864">
        <ele>1277.8</ele>
        <time>2022-06-12T06:36:49Z</time>
      </trkpt>
      <trkpt lat="44.19046" lon="6.74863">
        <ele>1278</ele>
        <time>2022-06-12T06:36:50Z</time>
      </trkpt>
      <trkpt lat="44.19048" lon="6.74862">
        <ele>1278.3</ele>
        <time>2022-06-12T06:36:51Z</time>
      </trkpt>
      <trkpt lat="44.1905" lon="6.7486">
        <ele>1278.5</ele>
        <time>2022-06-12T06:36:52Z</time>
      </trkpt>
      <trkpt lat="44.19051" lon="6.74859">
        <ele>1278.4</ele>
        <time>2022-06-12T06:36:53Z</time>
      </trkpt>
      <trkpt lat="44.19053" lon="6.74857">
        <ele>1278.1</ele>
        <time>2022-06-12T06:36:54Z</time>
      </trkpt>
      <trkpt lat="44.19055" lon="6.74855">
        <ele>1277.9</ele>
        <time>2022-06-12T06:36:55Z</time>
      </trkpt>
      <trkpt lat="44.19057" lon="6.74853">
        <ele>1278</ele>
        <time>2022-06-12T06:36:56Z</time>
      </trkpt>
      <trkpt lat="44.19059" lon="6.74852">
        <ele>1278.1</ele>
        <time>2022-06-12T06:36:57Z</time>
      </trkpt>
      <trkpt lat="44.19061" lon="6.7485">
        <ele>1278.4</ele>
        <time>2022-06-12T06:36:58Z</time>
      </trkpt>
      <trkpt lat="44.19063" lon="6.74849">
        <ele>1278.8</ele>
        <time>2022-06-12T06:36:59Z</time>
      </trkpt>
      <trkpt lat="44.19065" lon="6.74848">
        <ele>1279</ele>
        <time>2022-06-12T06:37:00Z</time>
      </trkpt>
      <trkpt lat="44.19067" lon="6.74848">
        <ele>1279.4</ele>
        <time>2022-06-12T06:37:01Z</time>
      </trkpt>
      <trkpt lat="44.19069" lon="6.74846">
        <ele>1279.6</ele>
        <time>2022-06-12T06:37:02Z</time>
      </trkpt>
      <trkpt lat="44.19071" lon="6.74845">
        <ele>1280</ele>
        <time>2022-06-12T06:37:03Z</time>
      </trkpt>
      <trkpt lat="44.19074" lon="6.74845">
        <ele>1280.5</ele>
        <time>2022-06-12T06:37:04Z</time>
      </trkpt>
      <trkpt lat="44.19076" lon="6.74844">
        <ele>1281</ele>
        <time>2022-06-12T06:37:05Z</time>
      </trkpt>
      <trkpt lat="44.19078" lon="6.74842">
        <ele>1281.1</ele>
        <time>2022-06-12T06:37:06Z</time>
      </trkpt>
      <trkpt lat="44.1908" lon="6.74841">
        <ele>1281.1</ele>
        <time>2022-06-12T06:37:07Z</time>
      </trkpt>
      <trkpt lat="44.19082" lon="6.74839">
        <ele>1281.1</ele>
        <time>2022-06-12T06:37:08Z</time>
      </trkpt>
      <trkpt lat="44.19084" lon="6.74838">
        <ele>1281.3</ele>
        <time>2022-06-12T06:37:09Z</time>
      </trkpt>
      <trkpt lat="44.19086" lon="6.74837">
        <ele>1281.4</ele>
        <time>2022-06-12T06:37:10Z</time>
      </trkpt>
      <trkpt lat="44.19088" lon="6.74835">
        <ele>1281.6</ele>
        <time>2022-06-12T06:37:11Z</time>
      </trkpt>
      <trkpt lat="44.1909" lon="6.74834">
        <ele>1282</ele>
        <time>2022-06-12T06:37:12Z</time>
      </trkpt>
      <trkpt lat="44.19092" lon="6.74832">
        <ele>1282</ele>
        <time>2022-06-12T06:37:13Z</time>
      </trkpt>
      <trkpt lat="44.19094" lon="6.74831">
        <ele>1282.2</ele>
        <time>2022-06-12T06:37:14Z</time>
      </trkpt>
      <trkpt lat="44.19096" lon="6.74829">
        <ele>1282.3</ele>
        <time>2022-06-12T06:37:15Z</time>
      </trkpt>
      <trkpt lat="44.19098" lon="6.74827">
        <ele>1282.6</ele>
        <time>2022-06-12T06:37:16Z</time>
      </trkpt>
      <trkpt lat="44.191" lon="6.74825">
        <ele>1282.5</ele>
        <time>2022-06-12T06:37:17Z</time>
      </trkpt>
      <trkpt lat="44.19102" lon="6.74823">
        <ele>1282.5</ele>
        <time>2022-06-12T06:37:18Z</time>
      </trkpt>
      <trkpt lat="44.19104" lon="6.74822">
        <ele>1282.4</ele>
        <time>2022-06-12T06:37:19Z</time>
      </trkpt>
      <trkpt lat="44.19105" lon="6.74819">
        <ele>1282.2</ele>
        <time>2022-06-12T06:37:20Z</time>
      </trkpt>
      <trkpt lat="44.19107" lon="6.74817">
        <ele>1282</ele>
        <time>2022-06-12T06:37:21Z</time>
      </trkpt>
      <trkpt lat="44.19109" lon="6.74815">
        <ele>1282</ele>
        <time>2022-06-12T06:37:22Z</time>
      </trkpt>
      <trkpt lat="44.19111" lon="6.74813">
        <ele>1282</ele>
        <time>2022-06-12T06:37:23Z</time>
      </trkpt>
      <trkpt lat="44.19113" lon="6.74812">
        <ele>1282</ele>
        <time>2022-06-12T06:37:24Z</time>
      </trkpt>
      <trkpt lat="44.19115" lon="6.7481">
        <ele>1281.8</ele>
        <time>2022-06-12T06:37:25Z</time>
      </trkpt>
      <trkpt lat="44.19117" lon="6.74807">
        <ele>1281.5</ele>
        <time>2022-06-12T06:37:26Z</time>
      </trkpt>
      <trkpt lat="44.19119" lon="6.74806">
        <ele>1281.4</ele>
        <time>2022-06-12T06:37:27Z</time>
      </trkpt>
      <trkpt lat="44.1912" lon="6.74804">
        <ele>1281.4</ele>
        <time>2022-06-12T06:37:28Z</time>
      </trkpt>
      <trkpt lat="44.19122" lon="6.74802">
        <ele>1281.4</ele>
        <time>2022-06-12T06:37:29Z</time>
      </trkpt>
      <trkpt lat="44.19124" lon="6.748">
        <ele>1281.3</ele>
        <time>2022-06-12T06:37:30Z</time>
      </trkpt>
      <trkpt lat="44.19126" lon="6.74798">
        <ele>1281.4</ele>
        <time>2022-06-12T06:37:31Z</time>
      </trkpt>
      <trkpt lat="44.19128" lon="6.74796">
        <ele>1281.5</ele>
        <time>2022-06-12T06:37:32Z</time>
      </trkpt>
      <trkpt lat="44.1913" lon="6.74795">
        <ele>1281.6</ele>
        <time>2022-06-12T06:37:33Z</time>
      </trkpt>
      <trkpt lat="44.19132" lon="6.74793">
        <ele>1281.8</ele>
        <time>2022-06-12T06:37:34Z</time>
      </trkpt>
      <trkpt lat="44.19134" lon="6.74792">
        <ele>1282</ele>
        <time>2022-06-12T06:37:35Z</time>
      </trkpt>
      <trkpt lat="44.19136" lon="6.7479">
        <ele>1282</ele>
        <time>2022-06-12T06:37:36Z</time>
      </trkpt>
      <trkpt lat="44.19138" lon="6.74788">
        <ele>1282</ele>
        <time>2022-06-12T06:37:37Z</time>
      </trkpt>
      <trkpt lat="44.1914" lon="6.74787">
        <ele>1282</ele>
        <time>2022-06-12T06:37:38Z</time>
      </trkpt>
      <trkpt lat="44.19142" lon="6.74785">
        <ele>1282.1</ele>
        <time>2022-06-12T06:37:39Z</time>
      </trkpt>
      <trkpt lat="44.19144" lon="6.74783">
        <ele>1282.2</ele>
        <time>2022-06-12T06:37:40Z</time>
      </trkpt>
      <trkpt lat="44.19146" lon="6.74781">
        <ele>1282</ele>
        <time>2022-06-12T06:37:41Z</time>
      </trkpt>
      <trkpt lat="44.19148" lon="6.74778">
        <ele>1282</ele>
        <time>2022-06-12T06:37:42Z</time>
      </trkpt>
      <trkpt lat="44.19149" lon="6.74776">
        <ele>1281.9</ele>
        <time>2022-06-12T06:37:43Z</time>
      </trkpt>
      <trkpt lat="44.19151" lon="6.74774">
        <ele>1282.1</ele>
        <time>2022-06-12T06:37:44Z</time>
      </trkpt>
      <trkpt lat="44.19153" lon="6.74772">
        <ele>1282.3</ele>
        <time>2022-06-12T06:37:45Z</time>
      </trkpt>
      <trkpt lat="44.19155" lon="6.7477">
        <ele>1282.3</ele>
        <time>2022-06-12T06:37:46Z</time>
      </trkpt>
      <trkpt lat="44.19157" lon="6.74767">
        <ele>1282.1</ele>
        <time>2022-06-12T06:37:47Z</time>
      </trkpt>
      <trkpt lat="44.19158" lon="6.74765">
        <ele>1282</ele>
        <time>2022-06-12T06:37:48Z</time>
      </trkpt>
      <trkpt lat="44.1916" lon="6.74763">
        <ele>1281.9</ele>
        <time>2022-06-12T06:37:49Z</time>
      </trkpt>
      <trkpt lat="44.19162" lon="6.74761">
        <ele>1281.8</ele>
        <time>2022-06-12T06:37:50Z</time>
      </trkpt>
      <trkpt lat="44.19164" lon="6.74759">
        <ele>1281.8</ele>
        <time>2022-06-12T06:37:51Z</time>
      </trkpt>
      <trkpt lat="44.19166" lon="6.74757">
        <ele>1281.8</ele>
        <time>2022-06-12T06:37:52Z</time>
      </trkpt>
      <trkpt lat="44.19167" lon="6.74756">
        <ele>1281.7</ele>
        <time>2022-06-12T06:37:53Z</time>
      </trkpt>
      <trkpt lat="44.1917" lon="6.74754">
        <ele>1281.8</ele>
        <time>2022-06-12T06:37:54Z</time>
      </trkpt>
      <trkpt lat="44.19172" lon="6.74753">
        <ele>1281.9</ele>
        <time>2022-06-12T06:37:55Z</time>
      </trkpt>
      <trkpt lat="44.19174" lon="6.74752">
        <ele>1282</ele>
        <time>2022-06-12T06:37:56Z</time>
      </trkpt>
      <trkpt lat="44.19176" lon="6.74752">
        <ele>1282.2</ele>
        <time>2022-06-12T06:37:57Z</time>
      </trkpt>
      <trkpt lat="44.19178" lon="6.74751">
        <ele>1282.3</ele>
        <time>2022-06-12T06:37:58Z</time>
      </trkpt>
      <trkpt lat="44.19181" lon="6.7475">
        <ele>1282.6</ele>
        <time>2022-06-12T06:37:59Z</time>
      </trkpt>
      <trkpt lat="44.19183" lon="6.7475">
        <ele>1283</ele>
        <time>2022-06-12T06:38:00Z</time>
      </trkpt>
      <trkpt lat="44.19185" lon="6.7475">
        <ele>1283.4</ele>
        <time>2022-06-12T06:38:01Z</time>
      </trkpt>
      <trkpt lat="44.19187" lon="6.7475">
        <ele>1283.7</ele>
        <time>2022-06-12T06:38:02Z</time>
      </trkpt>
      <trkpt lat="44.1919" lon="6.7475">
        <ele>1284.1</ele>
        <time>2022-06-12T06:38:03Z</time>
      </trkpt>
      <trkpt lat="44.19192" lon="6.7475">
        <ele>1284.4</ele>
        <time>2022-06-12T06:38:04Z</time>
      </trkpt>
      <trkpt lat="44.19194" lon="6.7475">
        <ele>1284.9</ele>
        <time>2022-06-12T06:38:05Z</time>
      </trkpt>
      <trkpt lat="44.19197" lon="6.7475">
        <ele>1285.3</ele>
        <time>2022-06-12T06:38:06Z</time>
      </trkpt>
      <trkpt lat="44.19199" lon="6.7475">
        <ele>1285.5</ele>
        <time>2022-06-12T06:38:07Z</time>
      </trkpt>
      <trkpt lat="44.19201" lon="6.7475">
        <ele>1285.7</ele>
        <time>2022-06-12T06:38:08Z</time>
      </trkpt>
      <trkpt lat="44.19203" lon="6.7475">
        <ele>1285.9</ele>
        <time>2022-06-12T06:38:09Z</time>
      </trkpt>
      <trkpt lat="44.19206" lon="6.7475">
        <ele>1286.2</ele>
        <time>2022-06-12T06:38:10Z</time>
      </trkpt>
      <trkpt lat="44.19208" lon="6.74751">
        <ele>1286.6</ele>
        <time>2022-06-12T06:38:11Z</time>
      </trkpt>
      <trkpt lat="44.1921" lon="6.74751">
        <ele>1287.1</ele>
        <time>2022-06-12T06:38:12Z</time>
      </trkpt>
      <trkpt lat="44.19212" lon="6.74752">
        <ele>1287.6</ele>
        <time>2022-06-12T06:38:13Z</time>
      </trkpt>
      <trkpt lat="44.19215" lon="6.74752">
        <ele>1288</ele>
        <time>2022-06-12T06:38:14Z</time>
      </trkpt>
      <trkpt lat="44.19217" lon="6.74752">
        <ele>1288.4</ele>
        <time>2022-06-12T06:38:15Z</time>
      </trkpt>
      <trkpt lat="44.19219" lon="6.74753">
        <ele>1289</ele>
        <time>2022-06-12T06:38:16Z</time>
      </trkpt>
      <trkpt lat="44.19222" lon="6.74754">
        <ele>1289.6</ele>
        <time>2022-06-12T06:38:17Z</time>
      </trkpt>
      <trkpt lat="44.19224" lon="6.74754">
        <ele>1289.9</ele>
        <time>2022-06-12T06:38:18Z</time>
      </trkpt>
      <trkpt lat="44.19226" lon="6.74754">
        <ele>1290.1</ele>
        <time>2022-06-12T06:38:19Z</time>
      </trkpt>
      <trkpt lat="44.19228" lon="6.74754">
        <ele>1290.3</ele>
        <time>2022-06-12T06:38:20Z</time>
      </trkpt>
      <trkpt lat="44.19231" lon="6.74754">
        <ele>1290.4</ele>
        <time>2022-06-12T06:38:21Z</time>
      </trkpt>
      <trkpt lat="44.19233" lon="6.74754">
        <ele>1290.6</ele>
        <time>2022-06-12T06:38:22Z</time>
      </trkpt>
      <trkpt lat="44.19235" lon="6.74754">
        <ele>1290.9</ele>
        <time>2022-06-12T06:38:23Z</time>
      </trkpt>
      <trkpt lat="44.19237" lon="6.74755">
        <ele>1291.1</ele>
        <time>2022-06-12T06:38:24Z</time>
      </trkpt>
      <trkpt lat="44.1924" lon="6.74755">
        <ele>1291.3</ele>
        <time>2022-06-12T06:38:25Z</time>
      </trkpt>
      <trkpt lat="44.19242" lon="6.74755">
        <ele>1291.5</ele>
        <time>2022-06-12T06:38:26Z</time>
      </trkpt>
      <trkpt lat="44.19244" lon="6.74755">
        <ele>1291.8</ele>
        <time>2022-06-12T06:38:27Z</time>
      </trkpt>
      <trkpt lat="44.19246" lon="6.74756">
        <ele>1292.2</ele>
        <time>2022-06-12T06:38:28Z</time>
      </trkpt>
      <trkpt lat="44.19249" lon="6.74756">
        <ele>1292.5</ele>
        <time>2022-06-12T06:38:29Z</time>
      </trkpt>
      <trkpt lat="44.19251" lon="6.74757">
        <ele>1293</ele>
        <time>2022-06-12T06:38:30Z</time>
      </trkpt>
      <trkpt lat="44.19253" lon="6.74757">
        <ele>1293.5</ele>
        <time>2022-06-12T06:38:31Z</time>
      </trkpt>
      <trkpt lat="44.19255" lon="6.74756">
        <ele>1293.9</ele>
        <time>2022-06-12T06:38:32Z</time>
      </trkpt>
      <trkpt lat="44.19258" lon="6.74756">
        <ele>1294.4</ele>
        <time>2022-06-12T06:38:33Z</time>
      </trkpt>
      <trkpt lat="44.1926" lon="6.74757">
        <ele>1294.9</ele>
        <time>2022-06-12T06:38:34Z</time>
      </trkpt>
      <trkpt lat="44.19262" lon="6.74756">
        <ele>1295.2</ele>
        <time>2022-06-12T06:38:35Z</time>
      </trkpt>
      <trkpt lat="44.19265" lon="6.74755">
        <ele>1295.5</ele>
        <time>2022-06-12T06:38:36Z</time>
      </trkpt>
      <trkpt lat="44.19267" lon="6.74755">
        <ele>1295.7</ele>
        <time>2022-06-12T06:38:37Z</time>
      </trkpt>
      <trkpt lat="44.19269" lon="6.74754">
        <ele>1295.9</ele>
        <time>2022-06-12T06:38:38Z</time>
      </trkpt>
      <trkpt lat="44.19271" lon="6.74753">
        <ele>1296.1</ele>
        <time>2022-06-12T06:38:39Z</time>
      </trkpt>
      <trkpt lat="44.19273" lon="6.74752">
        <ele>1296.3</ele>
        <time>2022-06-12T06:38:40Z</time>
      </trkpt>
      <trkpt lat="44.19275" lon="6.7475">
        <ele>1296.3</ele>
        <time>2022-06-12T06:38:41Z</time>
      </trkpt>
      <trkpt lat="44.19278" lon="6.74748">
        <ele>1296.5</ele>
        <time>2022-06-12T06:38:42Z</time>
      </trkpt>
      <trkpt lat="44.19279" lon="6.74747">
        <ele>1297.1</ele>
        <time>2022-06-12T06:38:43Z</time>
      </trkpt>
      <trkpt lat="44.19281" lon="6.74745">
        <ele>1297.7</ele>
        <time>2022-06-12T06:38:44Z</time>
      </trkpt>
      <trkpt lat="44.19283" lon="6.74742">
        <ele>1298.3</ele>
        <time>2022-06-12T06:38:45Z</time>
      </trkpt>
      <trkpt lat="44.19284" lon="6.7474">
        <ele>1298.6</ele>
        <time>2022-06-12T06:38:46Z</time>
      </trkpt>
      <trkpt lat="44.19286" lon="6.74738">
        <ele>1298.7</ele>
        <time>2022-06-12T06:38:47Z</time>
      </trkpt>
      <trkpt lat="44.19287" lon="6.74735">
        <ele>1299</ele>
        <time>2022-06-12T06:38:48Z</time>
      </trkpt>
      <trkpt lat="44.19289" lon="6.74733">
        <ele>1299.4</ele>
        <time>2022-06-12T06:38:49Z</time>
      </trkpt>
      <trkpt lat="44.1929" lon="6.7473">
        <ele>1299.7</ele>
        <time>2022-06-12T06:38:50Z</time>
      </trkpt>
      <trkpt lat="44.19292" lon="6.74727">
        <ele>1300</ele>
        <time>2022-06-12T06:38:51Z</time>
      </trkpt>
      <trkpt lat="44.19293" lon="6.74725">
        <ele>1300.1</ele>
        <time>2022-06-12T06:38:52Z</time>
      </trkpt>
      <trkpt lat="44.19295" lon="6.74721">
        <ele>1300</ele>
        <time>2022-06-12T06:38:53Z</time>
      </trkpt>
      <trkpt lat="44.19296" lon="6.74719">
        <ele>1300.2</ele>
        <time>2022-06-12T06:38:54Z</time>
      </trkpt>
      <trkpt lat="44.19298" lon="6.74716">
        <ele>1300.3</ele>
        <time>2022-06-12T06:38:55Z</time>
      </trkpt>
      <trkpt lat="44.193" lon="6.74713">
        <ele>1300.6</ele>
        <time>2022-06-12T06:38:56Z</time>
      </trkpt>
      <trkpt lat="44.19302" lon="6.74711">
        <ele>1300.9</ele>
        <time>2022-06-12T06:38:57Z</time>
      </trkpt>
      <trkpt lat="44.19304" lon="6.74708">
        <ele>1301</ele>
        <time>2022-06-12T06:38:58Z</time>
      </trkpt>
      <trkpt lat="44.19306" lon="6.74706">
        <ele>1301</ele>
        <time>2022-06-12T06:38:59Z</time>
      </trkpt>
      <trkpt lat="44.19308" lon="6.74703">
        <ele>1301.1</ele>
        <time>2022-06-12T06:39:00Z</time>
      </trkpt>
      <trkpt lat="44.19309" lon="6.74701">
        <ele>1301.1</ele>
        <time>2022-06-12T06:39:01Z</time>
      </trkpt>
      <trkpt lat="44.19311" lon="6.74699">
        <ele>1301.2</ele>
        <time>2022-06-12T06:39:02Z</time>
      </trkpt>
      <trkpt lat="44.19313" lon="6.74697">
        <ele>1301.3</ele>
        <time>2022-06-12T06:39:03Z</time>
      </trkpt>
      <trkpt lat="44.19315" lon="6.74695">
        <ele>1301.7</ele>
        <time>2022-06-12T06:39:04Z</time>
      </trkpt>
      <trkpt lat="44.19317" lon="6.74694">
        <ele>1302.2</ele>
        <time>2022-06-12T06:39:05Z</time>
      </trkpt>
      <trkpt lat="44.19319" lon="6.74692">
        <ele>1302.6</ele>
        <time>2022-06-12T06:39:06Z</time>
      </trkpt>
      <trkpt lat="44.19321" lon="6.74691">
        <ele>1302.9</ele>
        <time>2022-06-12T06:39:07Z</time>
      </trkpt>
      <trkpt lat="44.19323" lon="6.74689">
        <ele>1303.2</ele>
        <time>2022-06-12T06:39:08Z</time>
      </trkpt>
      <trkpt lat="44.19325" lon="6.74687">
        <ele>1303.4</ele>
        <time>2022-06-12T06:39:09Z</time>
      </trkpt>
      <trkpt lat="44.19327" lon="6.74686">
        <ele>1303.7</ele>
        <time>2022-06-12T06:39:10Z</time>
      </trkpt>
      <trkpt lat="44.19329" lon="6.74685">
        <ele>1304.2</ele>
        <time>2022-06-12T06:39:11Z</time>
      </trkpt>
      <trkpt lat="44.19331" lon="6.74683">
        <ele>1304.6</ele>
        <time>2022-06-12T06:39:12Z</time>
      </trkpt>
      <trkpt lat="44.19333" lon="6.74682">
        <ele>1305</ele>
        <time>2022-06-12T06:39:13Z</time>
      </trkpt>
      <trkpt lat="44.19335" lon="6.74681">
        <ele>1305.3</ele>
        <time>2022-06-12T06:39:14Z</time>
      </trkpt>
      <trkpt lat="44.19337" lon="6.74679">
        <ele>1305.5</ele>
        <time>2022-06-12T06:39:15Z</time>
      </trkpt>
      <trkpt lat="44.1934" lon="6.74678">
        <ele>1305.8</ele>
        <time>2022-06-12T06:39:16Z</time>
      </trkpt>
      <trkpt lat="44.19342" lon="6.74677">
        <ele>1306.1</ele>
        <time>2022-06-12T06:39:17Z</time>
      </trkpt>
      <trkpt lat="44.19344" lon="6.74675">
        <ele>1306.3</ele>
        <time>2022-06-12T06:39:18Z</time>
      </trkpt>
      <trkpt lat="44.19346" lon="6.74674">
        <ele>1306.6</ele>
        <time>2022-06-12T06:39:19Z</time>
      </trkpt>
      <trkpt lat="44.19348" lon="6.74673">
        <ele>1307</ele>
        <time>2022-06-12T06:39:20Z</time>
      </trkpt>
      <trkpt lat="44.1935" lon="6.74673">
        <ele>1307.4</ele>
        <time>2022-06-12T06:39:21Z</time>
      </trkpt>
      <trkpt lat="44.19352" lon="6.74672">
        <ele>1307.8</ele>
        <time>2022-06-12T06:39:22Z</time>
      </trkpt>
      <trkpt lat="44.19354" lon="6.74671">
        <ele>1308.2</ele>
        <time>2022-06-12T06:39:23Z</time>
      </trkpt>
      <trkpt lat="44.19356" lon="6.74669">
        <ele>1308.3</ele>
        <time>2022-06-12T06:39:24Z</time>
      </trkpt>
      <trkpt lat="44.19358" lon="6.74668">
        <ele>1308.4</ele>
        <time>2022-06-12T06:39:25Z</time>
      </trkpt>
      <trkpt lat="44.1936" lon="6.74667">
        <ele>1308.6</ele>
        <time>2022-06-12T06:39:26Z</time>
      </trkpt>
      <trkpt lat="44.19362" lon="6.74666">
        <ele>1308.8</ele>
        <time>2022-06-12T06:39:27Z</time>
      </trkpt>
      <trkpt lat="44.19364" lon="6.74664">
        <ele>1308.7</ele>
        <time>2022-06-12T06:39:28Z</time>
      </trkpt>
      <trkpt lat="44.19366" lon="6.74663">
        <ele>1308.9</ele>
        <time>2022-06-12T06:39:29Z</time>
      </trkpt>
      <trkpt lat="44.19368" lon="6.74662">
        <ele>1308.8</ele>
        <time>2022-06-12T06:39:30Z</time>
      </trkpt>
      <trkpt lat="44.1937" lon="6.7466">
        <ele>1308.9</ele>
        <time>2022-06-12T06:39:31Z</time>
      </trkpt>
      <trkpt lat="44.19372" lon="6.74659">
        <ele>1308.8</ele>
        <time>2022-06-12T06:39:32Z</time>
      </trkpt>
      <trkpt lat="44.19374" lon="6.74657">
        <ele>1308.6</ele>
        <time>2022-06-12T06:39:33Z</time>
      </trkpt>
      <trkpt lat="44.19376" lon="6.74655">
        <ele>1308.5</ele>
        <time>2022-06-12T06:39:34Z</time>
      </trkpt>
      <trkpt lat="44.19378" lon="6.74654">
        <ele>1308.2</ele>
        <time>2022-06-12T06:39:35Z</time>
      </trkpt>
      <trkpt lat="44.1938" lon="6.74652">
        <ele>1308.2</ele>
        <time>2022-06-12T06:39:36Z</time>
      </trkpt>
      <trkpt lat="44.19382" lon="6.74651">
        <ele>1308</ele>
        <time>2022-06-12T06:39:37Z</time>
      </trkpt>
      <trkpt lat="44.19384" lon="6.74649">
        <ele>1307.7</ele>
        <time>2022-06-12T06:39:38Z</time>
      </trkpt>
      <trkpt lat="44.19386" lon="6.74648">
        <ele>1307.5</ele>
        <time>2022-06-12T06:39:39Z</time>
      </trkpt>
      <trkpt lat="44.19388" lon="6.74646">
        <ele>1307</ele>
        <time>2022-06-12T06:39:40Z</time>
      </trkpt>
      <trkpt lat="44.1939" lon="6.74644">
        <ele>1306.7</ele>
        <time>2022-06-12T06:39:41Z</time>
      </trkpt>
      <trkpt lat="44.19392" lon="6.74643">
        <ele>1306.3</ele>
        <time>2022-06-12T06:39:42Z</time>
      </trkpt>
      <trkpt lat="44.19393" lon="6.74641">
        <ele>1305.9</ele>
        <time>2022-06-12T06:39:43Z</time>
      </trkpt>
      <trkpt lat="44.19396" lon="6.7464">
        <ele>1305.9</ele>
        <time>2022-06-12T06:39:44Z</time>
      </trkpt>
      <trkpt lat="44.19398" lon="6.7464">
        <ele>1305.9</ele>
        <time>2022-06-12T06:39:45Z</time>
      </trkpt>
      <trkpt lat="44.194" lon="6.74639">
        <ele>1306.2</ele>
        <time>2022-06-12T06:39:46Z</time>
      </trkpt>
      <trkpt lat="44.19402" lon="6.74639">
        <ele>1306.5</ele>
        <time>2022-06-12T06:39:47Z</time>
      </trkpt>
      <trkpt lat="44.19405" lon="6.74639">
        <ele>1306.9</ele>
        <time>2022-06-12T06:39:48Z</time>
      </trkpt>
      <trkpt lat="44.19407" lon="6.74639">
        <ele>1307.3</ele>
        <time>2022-06-12T06:39:49Z</time>
      </trkpt>
      <trkpt lat="44.19409" lon="6.74639">
        <ele>1307.7</ele>
        <time>2022-06-12T06:39:50Z</time>
      </trkpt>
      <trkpt lat="44.19411" lon="6.7464">
        <ele>1308.3</ele>
        <time>2022-06-12T06:39:51Z</time>
      </trkpt>
      <trkpt lat="44.19414" lon="6.7464">
        <ele>1308.8</ele>
        <time>2022-06-12T06:39:52Z</time>
      </trkpt>
      <trkpt lat="44.19416" lon="6.7464">
        <ele>1309.4</ele>
        <time>2022-06-12T06:39:53Z</time>
      </trkpt>
      <trkpt lat="44.19418" lon="6.74641">
        <ele>1310</ele>
        <time>2022-06-12T06:39:54Z</time>
      </trkpt>
      <trkpt lat="44.1942" lon="6.74641">
        <ele>1310.6</ele>
        <time>2022-06-12T06:39:55Z</time>
      </trkpt>
      <trkpt lat="44.19422" lon="6.74642">
        <ele>1311</ele>
        <time>2022-06-12T06:39:56Z</time>
      </trkpt>
      <trkpt lat="44.19425" lon="6.74642">
        <ele>1311.5</ele>
        <time>2022-06-12T06:39:57Z</time>
      </trkpt>
      <trkpt lat="44.19427" lon="6.74643">
        <ele>1312</ele>
        <time>2022-06-12T06:39:58Z</time>
      </trkpt>
      <trkpt lat="44.19429" lon="6.74643">
        <ele>1312.6</ele>
        <time>2022-06-12T06:39:59Z</time>
      </trkpt>
      <trkpt lat="44.19431" lon="6.74644">
        <ele>1313</ele>
        <time>2022-06-12T06:40:00Z</time>
      </trkpt>
      <trkpt lat="44.19434" lon="6.74644">
        <ele>1313.3</ele>
        <time>2022-06-12T06:40:01Z</time>
      </trkpt>
      <trkpt lat="44.19436" lon="6.74644">
        <ele>1313.6</ele>
        <time>2022-06-12T06:40:02Z</time>
      </trkpt>
      <trkpt lat="44.19438" lon="6.74644">
        <ele>1314</ele>
        <time>2022-06-12T06:40:03Z</time>
      </trkpt>
      <trkpt lat="44.1944" lon="6.74644">
        <ele>1314.2</ele>
        <time>2022-06-12T06:40:04Z</time>
      </trkpt>
      <trkpt lat="44.19443" lon="6.74644">
        <ele>1314.5</ele>
        <time>2022-06-12T06:40:05Z</time>
      </trkpt>
      <trkpt lat="44.19445" lon="6.74644">
        <ele>1314.6</ele>
        <time>2022-06-12T06:40:06Z</time>
      </trkpt>
      <trkpt lat="44.19447" lon="6.74644">
        <ele>1314.5</ele>
        <time>2022-06-12T06:40:07Z</time>
      </trkpt>
      <trkpt lat="44.1945" lon="6.74644">
        <ele>1314.4</ele>
        <time>2022-06-12T06:40:08Z</time>
      </trkpt>
      <trkpt lat="44.19452" lon="6.74643">
        <ele>1314.1</ele>
        <time>2022-06-12T06:40:09Z</time>
      </trkpt>
      <trkpt lat="44.19454" lon="6.74642">
        <ele>1313.8</ele>
        <time>2022-06-12T06:40:10Z</time>
      </trkpt>
      <trkpt lat="44.19456" lon="6.74641">
        <ele>1313.4</ele>
        <time>2022-06-12T06:40:11Z</time>
      </trkpt>
      <trkpt lat="44.19458" lon="6.74641">
        <ele>1313.2</ele>
        <time>2022-06-12T06:40:12Z</time>
      </trkpt>
      <trkpt lat="44.1946" lon="6.7464">
        <ele>1313</ele>
        <time>2022-06-12T06:40:13Z</time>
      </trkpt>
      <trkpt lat="44.19463" lon="6.74639">
        <ele>1312.7</ele>
        <time>2022-06-12T06:40:14Z</time>
      </trkpt>
      <trkpt lat="44.19465" lon="6.74638">
        <ele>1312.3</ele>
        <time>2022-06-12T06:40:15Z</time>
      </trkpt>
      <trkpt lat="44.19467" lon="6.74636">
        <ele>1311.7</ele>
        <time>2022-06-12T06:40:16Z</time>
      </trkpt>
      <trkpt lat="44.19469" lon="6.74635">
        <ele>1311.3</ele>
        <time>2022-06-12T06:40:17Z</time>
      </trkpt>
      <trkpt lat="44.19471" lon="6.74634">
        <ele>1310.9</ele>
        <time>2022-06-12T06:40:18Z</time>
      </trkpt>
      <trkpt lat="44.19473" lon="6.74633">
        <ele>1310.6</ele>
        <time>2022-06-12T06:40:19Z</time>
      </trkpt>
      <trkpt lat="44.19475" lon="6.74632">
        <ele>1310.5</ele>
        <time>2022-06-12T06:40:20Z</time>
      </trkpt>
      <trkpt lat="44.19477" lon="6.74631">
        <ele>1310.5</ele>
        <time>2022-06-12T06:40:21Z</time>
      </trkpt>
      <trkpt lat="44.1948" lon="6.7463">
        <ele>1310.5</ele>
        <time>2022-06-12T06:40:22Z</time>
      </trkpt>
      <trkpt lat="44.19482" lon="6.7463">
        <ele>1310.4</ele>
        <time>2022-06-12T06:40:23Z</time>
      </trkpt>
      <trkpt lat="44.19484" lon="6.74629">
        <ele>1310.6</ele>
        <time>2022-06-12T06:40:24Z</time>
      </trkpt>
      <trkpt lat="44.19487" lon="6.74629">
        <ele>1310.8</ele>
        <time>2022-06-12T06:40:25Z</time>
      </trkpt>
      <trkpt lat="44.19489" lon="6.7463">
        <ele>1311.3</ele>
        <time>2022-06-12T06:40:26Z</time>
      </trkpt>
      <trkpt lat="44.19491" lon="6.7463">
        <ele>1311.7</ele>
        <time>2022-06-12T06:40:27Z</time>
      </trkpt>
      <trkpt lat="44.19493" lon="6.74632">
        <ele>1312.4</ele>
        <time>2022-06-12T06:40:28Z</time>
      </trkpt>
      <trkpt lat="44.19494" lon="6.74634">
        <ele>1313.1</ele>
        <time>2022-06-12T06:40:29Z</time>
      </trkpt>
      <trkpt lat="44.19496" lon="6.74636">
        <ele>1313.9</ele>
        <time>2022-06-12T06:40:30Z</time>
      </trkpt>
      <trkpt lat="44.19497" lon="6.74639">
        <ele>1314.7</ele>
        <time>2022-06-12T06:40:31Z</time>
      </trkpt>
      <trkpt lat="44.19499" lon="6.74641">
        <ele>1315.5</ele>
        <time>2022-06-12T06:40:32Z</time>
      </trkpt>
      <trkpt lat="44.195" lon="6.74643">
        <ele>1316.3</ele>
        <time>2022-06-12T06:40:33Z</time>
      </trkpt>
      <trkpt lat="44.19502" lon="6.74646">
        <ele>1317.6</ele>
        <time>2022-06-12T06:40:34Z</time>
      </trkpt>
      <trkpt lat="44.19503" lon="6.74648">
        <ele>1318.8</ele>
        <time>2022-06-12T06:40:35Z</time>
      </trkpt>
      <trkpt lat="44.19505" lon="6.74651">
        <ele>1320</ele>
        <time>2022-06-12T06:40:36Z</time>
      </trkpt>
      <trkpt lat="44.19506" lon="6.74653">
        <ele>1321.1</ele>
        <time>2022-06-12T06:40:37Z</time>
      </trkpt>
      <trkpt lat="44.19508" lon="6.74655">
        <ele>1322.2</ele>
        <time>2022-06-12T06:40:38Z</time>
      </trkpt>
      <trkpt lat="44.19509" lon="6.74657">
        <ele>1323.2</ele>
        <time>2022-06-12T06:40:39Z</time>
      </trkpt>
      <trkpt lat="44.19511" lon="6.74658">
        <ele>1324.2</ele>
        <time>2022-06-12T06:40:40Z</time>
      </trkpt>
      <trkpt lat="44.19513" lon="6.7466">
        <ele>1325.1</ele>
        <time>2022-06-12T06:40:41Z</time>
      </trkpt>
      <trkpt lat="44.19515" lon="6.7466">
        <ele>1325.9</ele>
        <time>2022-06-12T06:40:42Z</time>
      </trkpt>
      <trkpt lat="44.19517" lon="6.74661">
        <ele>1326.6</ele>
        <time>2022-06-12T06:40:43Z</time>
      </trkpt>
      <trkpt lat="44.19519" lon="6.7466">
        <ele>1327.1</ele>
        <time>2022-06-12T06:40:44Z</time>
      </trkpt>
      <trkpt lat="44.19521" lon="6.7466">
        <ele>1327.8</ele>
        <time>2022-06-12T06:40:45Z</time>
      </trkpt>
      <trkpt lat="44.19523" lon="6.74659">
        <ele>1328.4</ele>
        <time>2022-06-12T06:40:46Z</time>
      </trkpt>
      <trkpt lat="44.19525" lon="6.74659">
        <ele>1328.9</ele>
        <time>2022-06-12T06:40:47Z</time>
      </trkpt>
      <trkpt lat="44.19527" lon="6.74657">
        <ele>1329.4</ele>
        <time>2022-06-12T06:40:48Z</time>
      </trkpt>
      <trkpt lat="44.19529" lon="6.74656">
        <ele>1329.9</ele>
        <time>2022-06-12T06:40:49Z</time>
      </trkpt>
      <trkpt lat="44.1953" lon="6.74653">
        <ele>1330.6</ele>
        <time>2022-06-12T06:40:50Z</time>
      </trkpt>
      <trkpt lat="44.19532" lon="6.74651">
        <ele>1331.1</ele>
        <time>2022-06-12T06:40:51Z</time>
      </trkpt>
      <trkpt lat="44.19533" lon="6.74648">
        <ele>1331.5</ele>
        <time>2022-06-12T06:40:52Z</time>
      </trkpt>
      <trkpt lat="44.19534" lon="6.74645">
        <ele>1332</ele>
        <time>2022-06-12T06:40:53Z</time>
      </trkpt>
      <trkpt lat="44.19535" lon="6.74643">
        <ele>1332.3</ele>
        <time>2022-06-12T06:40:54Z</time>
      </trkpt>
      <trkpt lat="44.19536" lon="6.7464">
        <ele>1332.4</ele>
        <time>2022-06-12T06:40:55Z</time>
      </trkpt>
      <trkpt lat="44.19537" lon="6.74637">
        <ele>1332.3</ele>
        <time>2022-06-12T06:40:56Z</time>
      </trkpt>
      <trkpt lat="44.19537" lon="6.74634">
        <ele>1331.8</ele>
        <time>2022-06-12T06:40:57Z</time>
      </trkpt>
      <trkpt lat="44.19537" lon="6.74631">
        <ele>1331.6</ele>
        <time>2022-06-12T06:40:58Z</time>
      </trkpt>
      <trkpt lat="44.19538" lon="6.74628">
        <ele>1331.4</ele>
        <time>2022-06-12T06:40:59Z</time>
      </trkpt>
      <trkpt lat="44.19538" lon="6.74625">
        <ele>1331.2</ele>
        <time>2022-06-12T06:41:00Z</time>
      </trkpt>
      <trkpt lat="44.19539" lon="6.74622">
        <ele>1331.3</ele>
        <time>2022-06-12T06:41:01Z</time>
      </trkpt>
      <trkpt lat="44.1954" lon="6.74619">
        <ele>1331.1</ele>
        <time>2022-06-12T06:41:02Z</time>
      </trkpt>
      <trkpt lat="44.1954" lon="6.74615">
        <ele>1330.8</ele>
        <time>2022-06-12T06:41:03Z</time>
      </trkpt>
      <trkpt lat="44.19541" lon="6.74612">
        <ele>1330.7</ele>
        <time>2022-06-12T06:41:04Z</time>
      </trkpt>
      <trkpt lat="44.19541" lon="6.74609">
        <ele>1330.1</ele>
        <time>2022-06-12T06:41:05Z</time>
      </trkpt>
      <trkpt lat="44.19542" lon="6.74607">
        <ele>1329.5</ele>
        <time>2022-06-12T06:41:06Z</time>
      </trkpt>
      <trkpt lat="44.19543" lon="6.74604">
        <ele>1328.8</ele>
        <time>2022-06-12T06:41:07Z</time>
      </trkpt>
      <trkpt lat="44.19544" lon="6.74601">
        <ele>1328.1</ele>
        <time>2022-06-12T06:41:08Z</time>
      </trkpt>
      <trkpt lat="44.19546" lon="6.74598">
        <ele>1327.4</ele>
        <time>2022-06-12T06:41:09Z</time>
      </trkpt>
      <trkpt lat="44.19547" lon="6.74596">
        <ele>1327.1</ele>
        <time>2022-06-12T06:41:10Z</time>
      </trkpt>
      <trkpt lat="44.19549" lon="6.74593">
        <ele>1326.8</ele>
        <time>2022-06-12T06:41:11Z</time>
      </trkpt>
      <trkpt lat="44.19551" lon="6.74592">
        <ele>1326.6</ele>
        <time>2022-06-12T06:41:12Z</time>
      </trkpt>
      <trkpt lat="44.19553" lon="6.7459">
        <ele>1326.4</ele>
        <time>2022-06-12T06:41:13Z</time>
      </trkpt>
      <trkpt lat="44.19555" lon="6.74589">
        <ele>1326.8</ele>
        <time>2022-06-12T06:41:14Z</time>
      </trkpt>
      <trkpt lat="44.19557" lon="6.74589">
        <ele>1326.5</ele>
        <time>2022-06-12T06:41:15Z</time>
      </trkpt>
      <trkpt lat="44.1956" lon="6.74588">
        <ele>1325.9</ele>
        <time>2022-06-12T06:41:16Z</time>
      </trkpt>
      <trkpt lat="44.19562" lon="6.74588">
        <ele>1325.6</ele>
        <time>2022-06-12T06:41:17Z</time>
      </trkpt>
      <trkpt lat="44.19564" lon="6.74589">
        <ele>1325.3</ele>
        <time>2022-06-12T06:41:18Z</time>
      </trkpt>
      <trkpt lat="44.19566" lon="6.7459">
        <ele>1325.5</ele>
        <time>2022-06-12T06:41:19Z</time>
      </trkpt>
      <trkpt lat="44.19568" lon="6.74591">
        <ele>1325.8</ele>
        <time>2022-06-12T06:41:20Z</time>
      </trkpt>
      <trkpt lat="44.1957" lon="6.74593">
        <ele>1326.2</ele>
        <time>2022-06-12T06:41:21Z</time>
      </trkpt>
      <trkpt lat="44.19572" lon="6.74594">
        <ele>1326.6</ele>
        <time>2022-06-12T06:41:22Z</time>
      </trkpt>
      <trkpt lat="44.19574" lon="6.74596">
        <ele>1327</ele>
        <time>2022-06-12T06:41:23Z</time>
      </trkpt>
      <trkpt lat="44.19576" lon="6.74597">
        <ele>1327.4</ele>
        <time>2022-06-12T06:41:24Z</time>
      </trkpt>
      <trkpt lat="44.19578" lon="6.74599">
        <ele>1327.8</ele>
        <time>2022-06-12T06:41:25Z</time>
      </trkpt>
      <trkpt lat="44.1958" lon="6.746">
        <ele>1328.2</ele>
        <time>2022-06-12T06:41:26Z</time>
      </trkpt>
      <trkpt lat="44.19582" lon="6.74602">
        <ele>1328.5</ele>
        <time>2022-06-12T06:41:27Z</time>
      </trkpt>
      <trkpt lat="44.19584" lon="6.74603">
        <ele>1328.7</ele>
        <time>2022-06-12T06:41:28Z</time>
      </trkpt>
      <trkpt lat="44.19586" lon="6.74605">
        <ele>1329.3</ele>
        <time>2022-06-12T06:41:29Z</time>
      </trkpt>
      <trkpt lat="44.19588" lon="6.74606">
        <ele>1329.8</ele>
        <time>2022-06-12T06:41:30Z</time>
      </trkpt>
      <trkpt lat="44.1959" lon="6.74608">
        <ele>1330.2</ele>
        <time>2022-06-12T06:41:31Z</time>
      </trkpt>
      <trkpt lat="44.19591" lon="6.7461">
        <ele>1330.6</ele>
        <time>2022-06-12T06:41:32Z</time>
      </trkpt>
      <trkpt lat="44.19593" lon="6.74611">
        <ele>1330.8</ele>
        <time>2022-06-12T06:41:33Z</time>
      </trkpt>
      <trkpt lat="44.19595" lon="6.74613">
        <ele>1331.1</ele>
        <time>2022-06-12T06:41:34Z</time>
      </trkpt>
      <trkpt lat="44.19597" lon="6.74614">
        <ele>1331.5</ele>
        <time>2022-06-12T06:41:35Z</time>
      </trkpt>
      <trkpt lat="44.19599" lon="6.74616">
        <ele>1331.7</ele>
        <time>2022-06-12T06:41:36Z</time>
      </trkpt>
      <trkpt lat="44.19601" lon="6.74617">
        <ele>1331.9</ele>
        <time>2022-06-12T06:41:37Z</time>
      </trkpt>
      <trkpt lat="44.19603" lon="6.74619">
        <ele>1332</ele>
        <time>2022-06-12T06:41:38Z</time>
      </trkpt>
      <trkpt lat="44.19605" lon="6.74621">
        <ele>1332.3</ele>
        <time>2022-06-12T06:41:39Z</time>
      </trkpt>
      <trkpt lat="44.19607" lon="6.74623">
        <ele>1332.6</ele>
        <time>2022-06-12T06:41:40Z</time>
      </trkpt>
      <trkpt lat="44.19609" lon="6.74625">
        <ele>1332.9</ele>
        <time>2022-06-12T06:41:41Z</time>
      </trkpt>
      <trkpt lat="44.19611" lon="6.74627">
        <ele>1333.1</ele>
        <time>2022-06-12T06:41:42Z</time>
      </trkpt>
      <trkpt lat="44.19613" lon="6.74628">
        <ele>1333.5</ele>
        <time>2022-06-12T06:41:43Z</time>
      </trkpt>
      <trkpt lat="44.19615" lon="6.7463">
        <ele>1334</ele>
        <time>2022-06-12T06:41:44Z</time>
      </trkpt>
      <trkpt lat="44.19617" lon="6.74632">
        <ele>1334.4</ele>
        <time>2022-06-12T06:41:45Z</time>
      </trkpt>
      <trkpt lat="44.19619" lon="6.74633">
        <ele>1334.6</ele>
        <time>2022-06-12T06:41:46Z</time>
      </trkpt>
      <trkpt lat="44.19621" lon="6.74635">
        <ele>1335</ele>
        <time>2022-06-12T06:41:47Z</time>
      </trkpt>
      <trkpt lat="44.19623" lon="6.74637">
        <ele>1335.1</ele>
        <time>2022-06-12T06:41:48Z</time>
      </trkpt>
      <trkpt lat="44.19625" lon="6.74638">
        <ele>1335.1</ele>
        <time>2022-06-12T06:41:49Z</time>
      </trkpt>
      <trkpt lat="44.19628" lon="6.74639">
        <ele>1335.2</ele>
        <time>2022-06-12T06:41:50Z</time>
      </trkpt>
      <trkpt lat="44.1963" lon="6.74641">
        <ele>1335.4</ele>
        <time>2022-06-12T06:41:51Z</time>
      </trkpt>
      <trkpt lat="44.19632" lon="6.74643">
        <ele>1335.7</ele>
        <time>2022-06-12T06:41:52Z</time>
      </trkpt>
      <trkpt lat="44.19634" lon="6.74645">
        <ele>1335.9</ele>
        <time>2022-06-12T06:41:53Z</time>
      </trkpt>
      <trkpt lat="44.19636" lon="6.74647">
        <ele>1336.1</ele>
        <time>2022-06-12T06:41:54Z</time>
      </trkpt>
      <trkpt lat="44.19638" lon="6.74649">
        <ele>1336.2</ele>
        <time>2022-06-12T06:41:55Z</time>
      </trkpt>
      <trkpt lat="44.1964" lon="6.74651">
        <ele>1336.4</ele>
        <time>2022-06-12T06:41:56Z</time>
      </trkpt>
      <trkpt lat="44.19641" lon="6.74653">
        <ele>1337</ele>
        <time>2022-06-12T06:41:57Z</time>
      </trkpt>
      <trkpt lat="44.19643" lon="6.74655">
        <ele>1337.7</ele>
        <time>2022-06-12T06:41:58Z</time>
      </trkpt>
      <trkpt lat="44.19645" lon="6.74658">
        <ele>1338.4</ele>
        <time>2022-06-12T06:41:59Z</time>
      </trkpt>
      <trkpt lat="44.19646" lon="6.74661">
        <ele>1339.1</ele>
        <time>2022-06-12T06:42:00Z</time>
      </trkpt>
      <trkpt lat="44.19646" lon="6.74664">
        <ele>1339.8</ele>
        <time>2022-06-12T06:42:01Z</time>
      </trkpt>
      <trkpt lat="44.19646" lon="6.74667">
        <ele>1340.6</ele>
        <time>2022-06-12T06:42:02Z</time>
      </trkpt>
      <trkpt lat="44.19644" lon="6.74669">
        <ele>1341.3</ele>
        <time>2022-06-12T06:42:03Z</time>
      </trkpt>
      <trkpt lat="44.19642" lon="6.74671">
        <ele>1342</ele>
        <time>2022-06-12T06:42:04Z</time>
      </trkpt>
      <trkpt lat="44.1964" lon="6.74671">
        <ele>1342.1</ele>
        <time>2022-06-12T06:42:05Z</time>
      </trkpt>
      <trkpt lat="44.19638" lon="6.7467">
        <ele>1342.3</ele>
        <time>2022-06-12T06:42:06Z</time>
      </trkpt>
      <trkpt lat="44.19636" lon="6.74669">
        <ele>1342.5</ele>
        <time>2022-06-12T06:42:07Z</time>
      </trkpt>
      <trkpt lat="44.19634" lon="6.74667">
        <ele>1342.7</ele>
        <time>2022-06-12T06:42:08Z</time>
      </trkpt>
      <trkpt lat="44.19633" lon="6.74664">
        <ele>1342.4</ele>
        <time>2022-06-12T06:42:09Z</time>
      </trkpt>
      <trkpt lat="44.19632" lon="6.74662">
        <ele>1342</ele>
        <time>2022-06-12T06:42:10Z</time>
      </trkpt>
      <trkpt lat="44.1963" lon="6.74659">
        <ele>1341.6</ele>
        <time>2022-06-12T06:42:11Z</time>
      </trkpt>
      <trkpt lat="44.19629" lon="6.74656">
        <ele>1341.1</ele>
        <time>2022-06-12T06:42:12Z</time>
      </trkpt>
      <trkpt lat="44.19627" lon="6.74654">
        <ele>1340.6</ele>
        <time>2022-06-12T06:42:13Z</time>
      </trkpt>
      <trkpt lat="44.19625" lon="6.74651">
        <ele>1340.2</ele>
        <time>2022-06-12T06:42:14Z</time>
      </trkpt>
      <trkpt lat="44.19624" lon="6.74649">
        <ele>1339.8</ele>
        <time>2022-06-12T06:42:15Z</time>
      </trkpt>
      <trkpt lat="44.19622" lon="6.74648">
        <ele>1339.6</ele>
        <time>2022-06-12T06:42:16Z</time>
      </trkpt>
      <trkpt lat="44.1962" lon="6.74646">
        <ele>1339.3</ele>
        <time>2022-06-12T06:42:17Z</time>
      </trkpt>
      <trkpt lat="44.19617" lon="6.74644">
        <ele>1339.2</ele>
        <time>2022-06-12T06:42:18Z</time>
      </trkpt>
      <trkpt lat="44.19615" lon="6.74643">
        <ele>1339</ele>
        <time>2022-06-12T06:42:19Z</time>
      </trkpt>
      <trkpt lat="44.19613" lon="6.74642">
        <ele>1338.9</ele>
        <time>2022-06-12T06:42:20Z</time>
      </trkpt>
      <trkpt lat="44.19611" lon="6.7464">
        <ele>1338.6</ele>
        <time>2022-06-12T06:42:21Z</time>
      </trkpt>
      <trkpt lat="44.19609" lon="6.74639">
        <ele>1338.7</ele>
        <time>2022-06-12T06:42:22Z</time>
      </trkpt>
      <trkpt lat="44.19607" lon="6.74637">
        <ele>1338.8</ele>
        <time>2022-06-12T06:42:23Z</time>
      </trkpt>
      <trkpt lat="44.19604" lon="6.74636">
        <ele>1338.9</ele>
        <time>2022-06-12T06:42:24Z</time>
      </trkpt>
      <trkpt lat="44.19603" lon="6.74634">
        <ele>1338.7</ele>
        <time>2022-06-12T06:42:25Z</time>
      </trkpt>
      <trkpt lat="44.19601" lon="6.74633">
        <ele>1338.6</ele>
        <time>2022-06-12T06:42:26Z</time>
      </trkpt>
      <trkpt lat="44.19598" lon="6.74631">
        <ele>1338.7</ele>
        <time>2022-06-12T06:42:27Z</time>
      </trkpt>
      <trkpt lat="44.19597" lon="6.7463">
        <ele>1338.5</ele>
        <time>2022-06-12T06:42:28Z</time>
      </trkpt>
      <trkpt lat="44.19595" lon="6.74628">
        <ele>1338.5</ele>
        <time>2022-06-12T06:42:29Z</time>
      </trkpt>
      <trkpt lat="44.19592" lon="6.74627">
        <ele>1338.5</ele>
        <time>2022-06-12T06:42:30Z</time>
      </trkpt>
      <trkpt lat="44.1959" lon="6.74626">
        <ele>1338.7</ele>
        <time>2022-06-12T06:42:31Z</time>
      </trkpt>
      <trkpt lat="44.19588" lon="6.74625">
        <ele>1338.8</ele>
        <time>2022-06-12T06:42:32Z</time>
      </trkpt>
      <trkpt lat="44.19586" lon="6.74624">
        <ele>1338.8</ele>
        <time>2022-06-12T06:42:33Z</time>
      </trkpt>
      <trkpt lat="44.19584" lon="6.74623">
        <ele>1338.9</ele>
        <time>2022-06-12T06:42:34Z</time>
      </trkpt>
      <trkpt lat="44.19582" lon="6.74623">
        <ele>1338.9</ele>
        <time>2022-06-12T06:42:35Z</time>
      </trkpt>
      <trkpt lat="44.19579" lon="6.74622">
        <ele>1338.9</ele>
        <time>2022-06-12T06:42:36Z</time>
      </trkpt>
      <trkpt lat="44.19577" lon="6.74622">
        <ele>1339.1</ele>
        <time>2022-06-12T06:42:37Z</time>
      </trkpt>
      <trkpt lat="44.19575" lon="6.74622">
        <ele>1339.4</ele>
        <time>2022-06-12T06:42:38Z</time>
      </trkpt>
      <trkpt lat="44.19573" lon="6.74623">
        <ele>1339.8</ele>
        <time>2022-06-12T06:42:39Z</time>
      </trkpt>
      <trkpt lat="44.19571" lon="6.74624">
        <ele>1340.4</ele>
        <time>2022-06-12T06:42:40Z</time>
      </trkpt>
      <trkpt lat="44.19568" lon="6.74625">
        <ele>1341</ele>
        <time>2022-06-12T06:42:41Z</time>
      </trkpt>
      <trkpt lat="44.19566" lon="6.74627">
        <ele>1341.7</ele>
        <time>2022-06-12T06:42:42Z</time>
      </trkpt>
      <trkpt lat="44.19565" lon="6.74628">
        <ele>1342.4</ele>
        <time>2022-06-12T06:42:43Z</time>
      </trkpt>
      <trkpt lat="44.19563" lon="6.74631">
        <ele>1343.1</ele>
        <time>2022-06-12T06:42:44Z</time>
      </trkpt>
      <trkpt lat="44.19561" lon="6.74633">
        <ele>1343.8</ele>
        <time>2022-06-12T06:42:45Z</time>
      </trkpt>
      <trkpt lat="44.1956" lon="6.74635">
        <ele>1344.4</ele>
        <time>2022-06-12T06:42:46Z</time>
      </trkpt>
      <trkpt lat="44.19559" lon="6.74638">
        <ele>1345</ele>
        <time>2022-06-12T06:42:47Z</time>
      </trkpt>
      <trkpt lat="44.19558" lon="6.74641">
        <ele>1345.5</ele>
        <time>2022-06-12T06:42:48Z</time>
      </trkpt>
      <trkpt lat="44.19557" lon="6.74644">
        <ele>1346</ele>
        <time>2022-06-12T06:42:49Z</time>
      </trkpt>
      <trkpt lat="44.19557" lon="6.74647">
        <ele>1346.6</ele>
        <time>2022-06-12T06:42:50Z</time>
      </trkpt>
      <trkpt lat="44.19556" lon="6.74651">
        <ele>1347.2</ele>
        <time>2022-06-12T06:42:51Z</time>
      </trkpt>
      <trkpt lat="44.19556" lon="6.74654">
        <ele>1347.9</ele>
        <time>2022-06-12T06:42:52Z</time>
      </trkpt>
      <trkpt lat="44.19556" lon="6.74657">
        <ele>1348.5</ele>
        <time>2022-06-12T06:42:53Z</time>
      </trkpt>
      <trkpt lat="44.19557" lon="6.7466">
        <ele>1349.2</ele>
        <time>2022-06-12T06:42:54Z</time>
      </trkpt>
      <trkpt lat="44.19556" lon="6.74664">
        <ele>1349.7</ele>
        <time>2022-06-12T06:42:55Z</time>
      </trkpt>
      <trkpt lat="44.19557" lon="6.74667">
        <ele>1350.4</ele>
        <time>2022-06-12T06:42:56Z</time>
      </trkpt>
      <trkpt lat="44.19557" lon="6.74671">
        <ele>1350.8</ele>
        <time>2022-06-12T06:42:57Z</time>
      </trkpt>
      <trkpt lat="44.19557" lon="6.74674">
        <ele>1351.2</ele>
        <time>2022-06-12T06:42:58Z</time>
      </trkpt>
      <trkpt lat="44.19557" lon="6.74677">
        <ele>1351.5</ele>
        <time>2022-06-12T06:42:59Z</time>
      </trkpt>
      <trkpt lat="44.19558" lon="6.7468">
        <ele>1351.9</ele>
        <time>2022-06-12T06:43:00Z</time>
      </trkpt>
      <trkpt lat="44.19558" lon="6.74683">
        <ele>1352.3</ele>
        <time>2022-06-12T06:43:01Z</time>
      </trkpt>
      <trkpt lat="44.19558" lon="6.74687">
        <ele>1352.6</ele>
        <time>2022-06-12T06:43:02Z</time>
      </trkpt>
      <trkpt lat="44.19558" lon="6.7469">
        <ele>1352.8</ele>
        <time>2022-06-12T06:43:03Z</time>
      </trkpt>
      <trkpt lat="44.19557" lon="6.74694">
        <ele>1352.8</ele>
        <time>2022-06-12T06:43:04Z</time>
      </trkpt>
      <trkpt lat="44.19557" lon="6.74697">
        <ele>1353</ele>
        <time>2022-06-12T06:43:05Z</time>
      </trkpt>
      <trkpt lat="44.19557" lon="6.74701">
        <ele>1353.3</ele>
        <time>2022-06-12T06:43:06Z</time>
      </trkpt>
      <trkpt lat="44.19557" lon="6.74704">
        <ele>1353.6</ele>
        <time>2022-06-12T06:43:07Z</time>
      </trkpt>
      <trkpt lat="44.19557" lon="6.74708">
        <ele>1353.7</ele>
        <time>2022-06-12T06:43:08Z</time>
      </trkpt>
      <trkpt lat="44.19557" lon="6.74711">
        <ele>1354.1</ele>
        <time>2022-06-12T06:43:09Z</time>
      </trkpt>
      <trkpt lat="44.19557" lon="6.74714">
        <ele>1354.4</ele>
        <time>2022-06-12T06:43:10Z</time>
      </trkpt>
      <trkpt lat="44.19557" lon="6.74718">
        <ele>1354.8</ele>
        <time>2022-06-12T06:43:11Z</time>
      </trkpt>
      <trkpt lat="44.19558" lon="6.74721">
        <ele>1355.2</ele>
        <time>2022-06-12T06:43:12Z</time>
      </trkpt>
      <trkpt lat="44.19558" lon="6.74725">
        <ele>1355.6</ele>
        <time>2022-06-12T06:43:13Z</time>
      </trkpt>
      <trkpt lat="44.19558" lon="6.74729">
        <ele>1356</ele>
        <time>2022-06-12T06:43:14Z</time>
      </trkpt>
      <trkpt lat="44.19558" lon="6.74732">
        <ele>1356.3</ele>
        <time>2022-06-12T06:43:15Z</time>
      </trkpt>
      <trkpt lat="44.19559" lon="6.74735">
        <ele>1356.8</ele>
        <time>2022-06-12T06:43:16Z</time>
      </trkpt>
      <trkpt lat="44.19559" lon="6.74739">
        <ele>1357.1</ele>
        <time>2022-06-12T06:43:17Z</time>
      </trkpt>
      <trkpt lat="44.19559" lon="6.74742">
        <ele>1357.4</ele>
        <time>2022-06-12T06:43:18Z</time>
      </trkpt>
      <trkpt lat="44.19559" lon="6.74745">
        <ele>1357.6</ele>
        <time>2022-06-12T06:43:19Z</time>
      </trkpt>
      <trkpt lat="44.19559" lon="6.74749">
        <ele>1357.9</ele>
        <time>2022-06-12T06:43:20Z</time>
      </trkpt>
      <trkpt lat="44.19558" lon="6.74752">
        <ele>1357.6</ele>
        <time>2022-06-12T06:43:21Z</time>
      </trkpt>
      <trkpt lat="44.19557" lon="6.74754">
        <ele>1357.4</ele>
        <time>2022-06-12T06:43:22Z</time>
      </trkpt>
      <trkpt lat="44.19555" lon="6.74756">
        <ele>1357.1</ele>
        <time>2022-06-12T06:43:23Z</time>
      </trkpt>
      <trkpt lat="44.19553" lon="6.74757">
        <ele>1357.2</ele>
        <time>2022-06-12T06:43:24Z</time>
      </trkpt>
      <trkpt lat="44.19551" lon="6.74759">
        <ele>1357.1</ele>
        <time>2022-06-12T06:43:25Z</time>
      </trkpt>
      <trkpt lat="44.19549" lon="6.74759">
        <ele>1357</ele>
        <time>2022-06-12T06:43:26Z</time>
      </trkpt>
      <trkpt lat="44.19547" lon="6.74761">
        <ele>1356.9</ele>
        <time>2022-06-12T06:43:27Z</time>
      </trkpt>
      <trkpt lat="44.19545" lon="6.74761">
        <ele>1356.7</ele>
        <time>2022-06-12T06:43:28Z</time>
      </trkpt>
      <trkpt lat="44.19543" lon="6.74762">
        <ele>1356.6</ele>
        <time>2022-06-12T06:43:29Z</time>
      </trkpt>
      <trkpt lat="44.19541" lon="6.74762">
        <ele>1356.3</ele>
        <time>2022-06-12T06:43:30Z</time>
      </trkpt>
      <trkpt lat="44.19539" lon="6.74762">
        <ele>1355.9</ele>
        <time>2022-06-12T06:43:31Z</time>
      </trkpt>
      <trkpt lat="44.19536" lon="6.74762">
        <ele>1355.4</ele>
        <time>2022-06-12T06:43:32Z</time>
      </trkpt>
      <trkpt lat="44.19534" lon="6.74761">
        <ele>1355</ele>
        <time>2022-06-12T06:43:33Z</time>
      </trkpt>
      <trkpt lat="44.19531" lon="6.74761">
        <ele>1354.5</ele>
        <time>2022-06-12T06:43:34Z</time>
      </trkpt>
      <trkpt lat="44.19529" lon="6.74761">
        <ele>1354.2</ele>
        <time>2022-06-12T06:43:35Z</time>
      </trkpt>
      <trkpt lat="44.19527" lon="6.74761">
        <ele>1354.1</ele>
        <time>2022-06-12T06:43:36Z</time>
      </trkpt>
      <trkpt lat="44.19525" lon="6.74761">
        <ele>1354.1</ele>
        <time>2022-06-12T06:43:37Z</time>
      </trkpt>
      <trkpt lat="44.19523" lon="6.7476">
        <ele>1354.2</ele>
        <time>2022-06-12T06:43:38Z</time>
      </trkpt>
      <trkpt lat="44.19521" lon="6.7476">
        <ele>1354.2</ele>
        <time>2022-06-12T06:43:39Z</time>
      </trkpt>
      <trkpt lat="44.19519" lon="6.74759">
        <ele>1354.1</ele>
        <time>2022-06-12T06:43:40Z</time>
      </trkpt>
      <trkpt lat="44.19516" lon="6.74758">
        <ele>1354.1</ele>
        <time>2022-06-12T06:43:41Z</time>
      </trkpt>
      <trkpt lat="44.19514" lon="6.74758">
        <ele>1354.1</ele>
        <time>2022-06-12T06:43:42Z</time>
      </trkpt>
      <trkpt lat="44.19512" lon="6.74757">
        <ele>1354.1</ele>
        <time>2022-06-12T06:43:43Z</time>
      </trkpt>
      <trkpt lat="44.19509" lon="6.74757">
        <ele>1354.1</ele>
        <time>2022-06-12T06:43:44Z</time>
      </trkpt>
      <trkpt lat="44.19507" lon="6.74756">
        <ele>1354.2</ele>
        <time>2022-06-12T06:43:45Z</time>
      </trkpt>
      <trkpt lat="44.19505" lon="6.74756">
        <ele>1354.3</ele>
        <time>2022-06-12T06:43:46Z</time>
      </trkpt>
      <trkpt lat="44.19502" lon="6.74756">
        <ele>1354.4</ele>
        <time>2022-06-12T06:43:47Z</time>
      </trkpt>
      <trkpt lat="44.195" lon="6.74756">
        <ele>1354.6</ele>
        <time>2022-06-12T06:43:48Z</time>
      </trkpt>
      <trkpt lat="44.19498" lon="6.74756">
        <ele>1354.9</ele>
        <time>2022-06-12T06:43:49Z</time>
      </trkpt>
      <trkpt lat="44.19495" lon="6.74756">
        <ele>1355.2</ele>
        <time>2022-06-12T06:43:50Z</time>
      </trkpt>
      <trkpt lat="44.19493" lon="6.74756">
        <ele>1355.5</ele>
        <time>2022-06-12T06:43:51Z</time>
      </trkpt>
      <trkpt lat="44.1949" lon="6.74757">
        <ele>1355.9</ele>
        <time>2022-06-12T06:43:52Z</time>
      </trkpt>
      <trkpt lat="44.19487" lon="6.74757">
        <ele>1356.4</ele>
        <time>2022-06-12T06:43:53Z</time>
      </trkpt>
      <trkpt lat="44.19485" lon="6.74758">
        <ele>1356.8</ele>
        <time>2022-06-12T06:43:54Z</time>
      </trkpt>
      <trkpt lat="44.19483" lon="6.74758">
        <ele>1357.3</ele>
        <time>2022-06-12T06:43:55Z</time>
      </trkpt>
      <trkpt lat="44.1948" lon="6.74759">
        <ele>1357.7</ele>
        <time>2022-06-12T06:43:56Z</time>
      </trkpt>
      <trkpt lat="44.19478" lon="6.74759">
        <ele>1358.3</ele>
        <time>2022-06-12T06:43:57Z</time>
      </trkpt>
      <trkpt lat="44.19475" lon="6.7476">
        <ele>1358.9</ele>
        <time>2022-06-12T06:43:58Z</time>
      </trkpt>
      <trkpt lat="44.19473" lon="6.74761">
        <ele>1359.6</ele>
        <time>2022-06-12T06:43:59Z</time>
      </trkpt>
      <trkpt lat="44.19471" lon="6.74763">
        <ele>1360.1</ele>
        <time>2022-06-12T06:44:00Z</time>
      </trkpt>
      <trkpt lat="44.19469" lon="6.74764">
        <ele>1360.6</ele>
        <time>2022-06-12T06:44:01Z</time>
      </trkpt>
      <trkpt lat="44.19466" lon="6.74766">
        <ele>1361.1</ele>
        <time>2022-06-12T06:44:02Z</time>
      </trkpt>
      <trkpt lat="44.19464" lon="6.74767">
        <ele>1361.5</ele>
        <time>2022-06-12T06:44:03Z</time>
      </trkpt>
      <trkpt lat="44.19463" lon="6.74768">
        <ele>1361.8</ele>
        <time>2022-06-12T06:44:04Z</time>
      </trkpt>
      <trkpt lat="44.19461" lon="6.74769">
        <ele>1362.2</ele>
        <time>2022-06-12T06:44:05Z</time>
      </trkpt>
      <trkpt lat="44.19458" lon="6.74771">
        <ele>1362.6</ele>
        <time>2022-06-12T06:44:06Z</time>
      </trkpt>
      <trkpt lat="44.19456" lon="6.74772">
        <ele>1363</ele>
        <time>2022-06-12T06:44:07Z</time>
      </trkpt>
      <trkpt lat="44.19454" lon="6.74773">
        <ele>1363.3</ele>
        <time>2022-06-12T06:44:08Z</time>
      </trkpt>
      <trkpt lat="44.19452" lon="6.74774">
        <ele>1363.6</ele>
        <time>2022-06-12T06:44:09Z</time>
      </trkpt>
      <trkpt lat="44.1945" lon="6.74775">
        <ele>1364.1</ele>
        <time>2022-06-12T06:44:10Z</time>
      </trkpt>
      <trkpt lat="44.19448" lon="6.74776">
        <ele>1364.5</ele>
        <time>2022-06-12T06:44:11Z</time>
      </trkpt>
      <trkpt lat="44.19446" lon="6.74777">
        <ele>1364.8</ele>
        <time>2022-06-12T06:44:12Z</time>
      </trkpt>
      <trkpt lat="44.19444" lon="6.74779">
        <ele>1365.1</ele>
        <time>2022-06-12T06:44:13Z</time>
      </trkpt>
      <trkpt lat="44.19442" lon="6.7478">
        <ele>1365.2</ele>
        <time>2022-06-12T06:44:14Z</time>
      </trkpt>
      <trkpt lat="44.1944" lon="6.74781">
        <ele>1365.3</ele>
        <time>2022-06-12T06:44:15Z</time>
      </trkpt>
      <trkpt lat="44.19438" lon="6.74782">
        <ele>1365.3</ele>
        <time>2022-06-12T06:44:16Z</time>
      </trkpt>
      <trkpt lat="44.19436" lon="6.74783">
        <ele>1365.3</ele>
        <time>2022-06-12T06:44:17Z</time>
      </trkpt>
      <trkpt lat="44.19434" lon="6.74785">
        <ele>1365.3</ele>
        <time>2022-06-12T06:44:18Z</time>
      </trkpt>
      <trkpt lat="44.19432" lon="6.74785">
        <ele>1365.2</ele>
        <time>2022-06-12T06:44:19Z</time>
      </trkpt>
      <trkpt lat="44.19429" lon="6.74787">
        <ele>1365.1</ele>
        <time>2022-06-12T06:44:20Z</time>
      </trkpt>
      <trkpt lat="44.19427" lon="6.74788">
        <ele>1365.1</ele>
        <time>2022-06-12T06:44:21Z</time>
      </trkpt>
      <trkpt lat="44.19424" lon="6.74789">
        <ele>1365.1</ele>
        <time>2022-06-12T06:44:22Z</time>
      </trkpt>
      <trkpt lat="44.19422" lon="6.74791">
        <ele>1365.1</ele>
        <time>2022-06-12T06:44:23Z</time>
      </trkpt>
      <trkpt lat="44.1942" lon="6.74792">
        <ele>1365.1</ele>
        <time>2022-06-12T06:44:24Z</time>
      </trkpt>
      <trkpt lat="44.19417" lon="6.74794">
        <ele>1365.1</ele>
        <time>2022-06-12T06:44:25Z</time>
      </trkpt>
      <trkpt lat="44.19415" lon="6.74795">
        <ele>1365</ele>
        <time>2022-06-12T06:44:26Z</time>
      </trkpt>
      <trkpt lat="44.19413" lon="6.74797">
        <ele>1365</ele>
        <time>2022-06-12T06:44:27Z</time>
      </trkpt>
      <trkpt lat="44.19411" lon="6.74798">
        <ele>1364.9</ele>
        <time>2022-06-12T06:44:28Z</time>
      </trkpt>
      <trkpt lat="44.19409" lon="6.748">
        <ele>1364.8</ele>
        <time>2022-06-12T06:44:29Z</time>
      </trkpt>
      <trkpt lat="44.19406" lon="6.74802">
        <ele>1364.9</ele>
        <time>2022-06-12T06:44:30Z</time>
      </trkpt>
      <trkpt lat="44.19404" lon="6.74804">
        <ele>1365</ele>
        <time>2022-06-12T06:44:31Z</time>
      </trkpt>
      <trkpt lat="44.19403" lon="6.74807">
        <ele>1365.3</ele>
        <time>2022-06-12T06:44:32Z</time>
      </trkpt>
      <trkpt lat="44.19402" lon="6.7481">
        <ele>1365.4</ele>
        <time>2022-06-12T06:44:33Z</time>
      </trkpt>
      <trkpt lat="44.19401" lon="6.74813">
        <ele>1365.8</ele>
        <time>2022-06-12T06:44:34Z</time>
      </trkpt>
      <trkpt lat="44.19401" lon="6.74817">
        <ele>1366.2</ele>
        <time>2022-06-12T06:44:35Z</time>
      </trkpt>
      <trkpt lat="44.19401" lon="6.7482">
        <ele>1366.8</ele>
        <time>2022-06-12T06:44:36Z</time>
      </trkpt>
      <trkpt lat="44.19402" lon="6.74824">
        <ele>1367.4</ele>
        <time>2022-06-12T06:44:37Z</time>
      </trkpt>
      <trkpt lat="44.19402" lon="6.74827">
        <ele>1368</ele>
        <time>2022-06-12T06:44:38Z</time>
      </trkpt>
      <trkpt lat="44.19403" lon="6.7483">
        <ele>1368.6</ele>
        <time>2022-06-12T06:44:39Z</time>
      </trkpt>
      <trkpt lat="44.19405" lon="6.74833">
        <ele>1369.3</ele>
        <time>2022-06-12T06:44:40Z</time>
      </trkpt>
      <trkpt lat="44.19407" lon="6.74834">
        <ele>1370</ele>
        <time>2022-06-12T06:44:41Z</time>
      </trkpt>
      <trkpt lat="44.1941" lon="6.74835">
        <ele>1370.6</ele>
        <time>2022-06-12T06:44:42Z</time>
      </trkpt>
      <trkpt lat="44.19413" lon="6.74835">
        <ele>1371.3</ele>
        <time>2022-06-12T06:44:43Z</time>
      </trkpt>
      <trkpt lat="44.19415" lon="6.74834">
        <ele>1371.8</ele>
        <time>2022-06-12T06:44:44Z</time>
      </trkpt>
      <trkpt lat="44.19417" lon="6.74834">
        <ele>1372.2</ele>
        <time>2022-06-12T06:44:45Z</time>
      </trkpt>
      <trkpt lat="44.1942" lon="6.74833">
        <ele>1372.6</ele>
        <time>2022-06-12T06:44:46Z</time>
      </trkpt>
      <trkpt lat="44.19422" lon="6.74832">
        <ele>1373</ele>
        <time>2022-06-12T06:44:47Z</time>
      </trkpt>
      <trkpt lat="44.19424" lon="6.7483">
        <ele>1373.3</ele>
        <time>2022-06-12T06:44:48Z</time>
      </trkpt>
      <trkpt lat="44.19426" lon="6.74828">
        <ele>1373.5</ele>
        <time>2022-06-12T06:44:49Z</time>
      </trkpt>
      <trkpt lat="44.19429" lon="6.74827">
        <ele>1373.8</ele>
        <time>2022-06-12T06:44:50Z</time>
      </trkpt>
      <trkpt lat="44.19431" lon="6.74825">
        <ele>1374</ele>
        <time>2022-06-12T06:44:51Z</time>
      </trkpt>
      <trkpt lat="44.19433" lon="6.74824">
        <ele>1374.3</ele>
        <time>2022-06-12T06:44:52Z</time>
      </trkpt>
      <trkpt lat="44.19435" lon="6.74822">
        <ele>1374.5</ele>
        <time>2022-06-12T06:44:53Z</time>
      </trkpt>
      <trkpt lat="44.19437" lon="6.74821">
        <ele>1374.8</ele>
        <time>2022-06-12T06:44:54Z</time>
      </trkpt>
      <trkpt lat="44.1944" lon="6.7482">
        <ele>1375</ele>
        <time>2022-06-12T06:44:55Z</time>
      </trkpt>
      <trkpt lat="44.19442" lon="6.74818">
        <ele>1375.2</ele>
        <time>2022-06-12T06:44:56Z</time>
      </trkpt>
      <trkpt lat="44.19444" lon="6.74817">
        <ele>1375.4</ele>
        <time>2022-06-12T06:44:57Z</time>
      </trkpt>
      <trkpt lat="44.19447" lon="6.74816">
        <ele>1375.3</ele>
        <time>2022-06-12T06:44:58Z</time>
      </trkpt>
      <trkpt lat="44.19449" lon="6.74815">
        <ele>1375.1</ele>
        <time>2022-06-12T06:44:59Z</time>
      </trkpt>
      <trkpt lat="44.19451" lon="6.74814">
        <ele>1374.9</ele>
        <time>2022-06-12T06:45:00Z</time>
      </trkpt>
      <trkpt lat="44.19453" lon="6.74812">
        <ele>1374.6</ele>
        <time>2022-06-12T06:45:01Z</time>
      </trkpt>
      <trkpt lat="44.19455" lon="6.74811">
        <ele>1374.2</ele>
        <time>2022-06-12T06:45:02Z</time>
      </trkpt>
      <trkpt lat="44.19457" lon="6.74809">
        <ele>1373.9</ele>
        <time>2022-06-12T06:45:03Z</time>
      </trkpt>
      <trkpt lat="44.19459" lon="6.74808">
        <ele>1373.5</ele>
        <time>2022-06-12T06:45:04Z</time>
      </trkpt>
      <trkpt lat="44.19461" lon="6.74806">
        <ele>1373.1</ele>
        <time>2022-06-12T06:45:05Z</time>
      </trkpt>
      <trkpt lat="44.19464" lon="6.74805">
        <ele>1372.9</ele>
        <time>2022-06-12T06:45:06Z</time>
      </trkpt>
      <trkpt lat="44.19466" lon="6.74805">
        <ele>1372.7</ele>
        <time>2022-06-12T06:45:07Z</time>
      </trkpt>
      <trkpt lat="44.19468" lon="6.74805">
        <ele>1372.7</ele>
        <time>2022-06-12T06:45:08Z</time>
      </trkpt>
      <trkpt lat="44.19471" lon="6.74805">
        <ele>1372.8</ele>
        <time>2022-06-12T06:45:09Z</time>
      </trkpt>
      <trkpt lat="44.19473" lon="6.74806">
        <ele>1372.9</ele>
        <time>2022-06-12T06:45:10Z</time>
      </trkpt>
      <trkpt lat="44.19475" lon="6.74807">
        <ele>1372.7</ele>
        <time>2022-06-12T06:45:11Z</time>
      </trkpt>
      <trkpt lat="44.19477" lon="6.74808">
        <ele>1372.7</ele>
        <time>2022-06-12T06:45:12Z</time>
      </trkpt>
      <trkpt lat="44.19479" lon="6.7481">
        <ele>1372.9</ele>
        <time>2022-06-12T06:45:13Z</time>
      </trkpt>
      <trkpt lat="44.1948" lon="6.74812">
        <ele>1373.1</ele>
        <time>2022-06-12T06:45:14Z</time>
      </trkpt>
      <trkpt lat="44.19482" lon="6.74815">
        <ele>1373.4</ele>
        <time>2022-06-12T06:45:15Z</time>
      </trkpt>
      <trkpt lat="44.19483" lon="6.74817">
        <ele>1373.7</ele>
        <time>2022-06-12T06:45:16Z</time>
      </trkpt>
      <trkpt lat="44.19485" lon="6.7482">
        <ele>1374</ele>
        <time>2022-06-12T06:45:17Z</time>
      </trkpt>
      <trkpt lat="44.19486" lon="6.74822">
        <ele>1374.2</ele>
        <time>2022-06-12T06:45:18Z</time>
      </trkpt>
      <trkpt lat="44.19487" lon="6.74825">
        <ele>1374.5</ele>
        <time>2022-06-12T06:45:19Z</time>
      </trkpt>
      <trkpt lat="44.19489" lon="6.74827">
        <ele>1374.8</ele>
        <time>2022-06-12T06:45:20Z</time>
      </trkpt>
      <trkpt lat="44.1949" lon="6.7483">
        <ele>1375.1</ele>
        <time>2022-06-12T06:45:21Z</time>
      </trkpt>
      <trkpt lat="44.19491" lon="6.74833">
        <ele>1375.4</ele>
        <time>2022-06-12T06:45:22Z</time>
      </trkpt>
      <trkpt lat="44.19492" lon="6.74836">
        <ele>1375.8</ele>
        <time>2022-06-12T06:45:23Z</time>
      </trkpt>
      <trkpt lat="44.19493" lon="6.74839">
        <ele>1376.3</ele>
        <time>2022-06-12T06:45:24Z</time>
      </trkpt>
      <trkpt lat="44.19494" lon="6.74843">
        <ele>1376.9</ele>
        <time>2022-06-12T06:45:25Z</time>
      </trkpt>
      <trkpt lat="44.19494" lon="6.74846">
        <ele>1377.3</ele>
        <time>2022-06-12T06:45:26Z</time>
      </trkpt>
      <trkpt lat="44.19495" lon="6.74849">
        <ele>1377.8</ele>
        <time>2022-06-12T06:45:27Z</time>
      </trkpt>
      <trkpt lat="44.19495" lon="6.74852">
        <ele>1378.5</ele>
        <time>2022-06-12T06:45:28Z</time>
      </trkpt>
      <trkpt lat="44.19496" lon="6.74856">
        <ele>1379.1</ele>
        <time>2022-06-12T06:45:29Z</time>
      </trkpt>
      <trkpt lat="44.19496" lon="6.74859">
        <ele>1379.7</ele>
        <time>2022-06-12T06:45:30Z</time>
      </trkpt>
      <trkpt lat="44.19496" lon="6.74862">
        <ele>1380.3</ele>
        <time>2022-06-12T06:45:31Z</time>
      </trkpt>
      <trkpt lat="44.19497" lon="6.74865">
        <ele>1380.6</ele>
        <time>2022-06-12T06:45:32Z</time>
      </trkpt>
      <trkpt lat="44.19497" lon="6.74868">
        <ele>1381</ele>
        <time>2022-06-12T06:45:33Z</time>
      </trkpt>
      <trkpt lat="44.19497" lon="6.74872">
        <ele>1381.4</ele>
        <time>2022-06-12T06:45:34Z</time>
      </trkpt>
      <trkpt lat="44.19497" lon="6.74875">
        <ele>1381.8</ele>
        <time>2022-06-12T06:45:35Z</time>
      </trkpt>
      <trkpt lat="44.19497" lon="6.74878">
        <ele>1382.3</ele>
        <time>2022-06-12T06:45:36Z</time>
      </trkpt>
      <trkpt lat="44.19497" lon="6.74881">
        <ele>1382.7</ele>
        <time>2022-06-12T06:45:37Z</time>
      </trkpt>
      <trkpt lat="44.19497" lon="6.74885">
        <ele>1383.2</ele>
        <time>2022-06-12T06:45:38Z</time>
      </trkpt>
      <trkpt lat="44.19497" lon="6.74888">
        <ele>1383.7</ele>
        <time>2022-06-12T06:45:39Z</time>
      </trkpt>
      <trkpt lat="44.19496" lon="6.74891">
        <ele>1384.4</ele>
        <time>2022-06-12T06:45:40Z</time>
      </trkpt>
      <trkpt lat="44.19496" lon="6.74894">
        <ele>1385</ele>
        <time>2022-06-12T06:45:41Z</time>
      </trkpt>
      <trkpt lat="44.19495" lon="6.74897">
        <ele>1385.6</ele>
        <time>2022-06-12T06:45:42Z</time>
      </trkpt>
      <trkpt lat="44.19495" lon="6.749">
        <ele>1386.1</ele>
        <time>2022-06-12T06:45:43Z</time>
      </trkpt>
      <trkpt lat="44.19495" lon="6.74903">
        <ele>1386.6</ele>
        <time>2022-06-12T06:45:44Z</time>
      </trkpt>
      <trkpt lat="44.19495" lon="6.74907">
        <ele>1387</ele>
        <time>2022-06-12T06:45:45Z</time>
      </trkpt>
      <trkpt lat="44.19495" lon="6.7491">
        <ele>1387.3</ele>
        <time>2022-06-12T06:45:46Z</time>
      </trkpt>
      <trkpt lat="44.19495" lon="6.74914">
        <ele>1387.7</ele>
        <time>2022-06-12T06:45:47Z</time>
      </trkpt>
      <trkpt lat="44.19496" lon="6.74917">
        <ele>1388.2</ele>
        <time>2022-06-12T06:45:48Z</time>
      </trkpt>
      <trkpt lat="44.19496" lon="6.7492">
        <ele>1388.8</ele>
        <time>2022-06-12T06:45:49Z</time>
      </trkpt>
      <trkpt lat="44.19496" lon="6.74923">
        <ele>1389.3</ele>
        <time>2022-06-12T06:45:50Z</time>
      </trkpt>
      <trkpt lat="44.19497" lon="6.74926">
        <ele>1389.7</ele>
        <time>2022-06-12T06:45:51Z</time>
      </trkpt>
      <trkpt lat="44.19499" lon="6.74929">
        <ele>1390.1</ele>
        <time>2022-06-12T06:45:52Z</time>
      </trkpt>
      <trkpt lat="44.195" lon="6.74932">
        <ele>1390.4</ele>
        <time>2022-06-12T06:45:53Z</time>
      </trkpt>
      <trkpt lat="44.19501" lon="6.74935">
        <ele>1390.8</ele>
        <time>2022-06-12T06:45:54Z</time>
      </trkpt>
      <trkpt lat="44.19503" lon="6.74938">
        <ele>1391.4</ele>
        <time>2022-06-12T06:45:55Z</time>
      </trkpt>
      <trkpt lat="44.19504" lon="6.7494">
        <ele>1391.8</ele>
        <time>2022-06-12T06:45:56Z</time>
      </trkpt>
      <trkpt lat="44.19506" lon="6.74942">
        <ele>1392.3</ele>
        <time>2022-06-12T06:45:57Z</time>
      </trkpt>
      <trkpt lat="44.19508" lon="6.74944">
        <ele>1392.7</ele>
        <time>2022-06-12T06:45:58Z</time>
      </trkpt>
      <trkpt lat="44.1951" lon="6.74945">
        <ele>1392.9</ele>
        <time>2022-06-12T06:45:59Z</time>
      </trkpt>
      <trkpt lat="44.19512" lon="6.74946">
        <ele>1392.9</ele>
        <time>2022-06-12T06:46:00Z</time>
      </trkpt>
      <trkpt lat="44.19514" lon="6.74947">
        <ele>1393</ele>
        <time>2022-06-12T06:46:01Z</time>
      </trkpt>
      <trkpt lat="44.19516" lon="6.74947">
        <ele>1393</ele>
        <time>2022-06-12T06:46:02Z</time>
      </trkpt>
      <trkpt lat="44.19518" lon="6.74948">
        <ele>1393.1</ele>
        <time>2022-06-12T06:46:03Z</time>
      </trkpt>
      <trkpt lat="44.1952" lon="6.74947">
        <ele>1392.9</ele>
        <time>2022-06-12T06:46:04Z</time>
      </trkpt>
      <trkpt lat="44.19522" lon="6.74946">
        <ele>1392.5</ele>
        <time>2022-06-12T06:46:05Z</time>
      </trkpt>
      <trkpt lat="44.19525" lon="6.74945">
        <ele>1392.2</ele>
        <time>2022-06-12T06:46:06Z</time>
      </trkpt>
      <trkpt lat="44.19527" lon="6.74944">
        <ele>1391.9</ele>
        <time>2022-06-12T06:46:07Z</time>
      </trkpt>
      <trkpt lat="44.19529" lon="6.74942">
        <ele>1391.8</ele>
        <time>2022-06-12T06:46:08Z</time>
      </trkpt>
      <trkpt lat="44.19531" lon="6.74941">
        <ele>1391.9</ele>
        <time>2022-06-12T06:46:09Z</time>
      </trkpt>
      <trkpt lat="44.19534" lon="6.74939">
        <ele>1392.1</ele>
        <time>2022-06-12T06:46:10Z</time>
      </trkpt>
      <trkpt lat="44.19536" lon="6.74938">
        <ele>1392.3</ele>
        <time>2022-06-12T06:46:11Z</time>
      </trkpt>
      <trkpt lat="44.19538" lon="6.74936">
        <ele>1392.5</ele>
        <time>2022-06-12T06:46:12Z</time>
      </trkpt>
      <trkpt lat="44.1954" lon="6.74935">
        <ele>1392.7</ele>
        <time>2022-06-12T06:46:13Z</time>
      </trkpt>
      <trkpt lat="44.19542" lon="6.74934">
        <ele>1392.9</ele>
        <time>2022-06-12T06:46:14Z</time>
      </trkpt>
      <trkpt lat="44.19544" lon="6.74932">
        <ele>1393.1</ele>
        <time>2022-06-12T06:46:15Z</time>
      </trkpt>
      <trkpt lat="44.19546" lon="6.74931">
        <ele>1393.3</ele>
        <time>2022-06-12T06:46:16Z</time>
      </trkpt>
      <trkpt lat="44.19548" lon="6.74929">
        <ele>1393.4</ele>
        <time>2022-06-12T06:46:17Z</time>
      </trkpt>
      <trkpt lat="44.1955" lon="6.74927">
        <ele>1393.5</ele>
        <time>2022-06-12T06:46:18Z</time>
      </trkpt>
      <trkpt lat="44.19551" lon="6.74925">
        <ele>1393.5</ele>
        <time>2022-06-12T06:46:19Z</time>
      </trkpt>
      <trkpt lat="44.19553" lon="6.74923">
        <ele>1393.6</ele>
        <time>2022-06-12T06:46:20Z</time>
      </trkpt>
      <trkpt lat="44.19555" lon="6.74921">
        <ele>1393.6</ele>
        <time>2022-06-12T06:46:21Z</time>
      </trkpt>
      <trkpt lat="44.19557" lon="6.74918">
        <ele>1393.7</ele>
        <time>2022-06-12T06:46:22Z</time>
      </trkpt>
      <trkpt lat="44.19558" lon="6.74916">
        <ele>1393.8</ele>
        <time>2022-06-12T06:46:23Z</time>
      </trkpt>
      <trkpt lat="44.19559" lon="6.74913">
        <ele>1393.7</ele>
        <time>2022-06-12T06:46:24Z</time>
      </trkpt>
      <trkpt lat="44.1956" lon="6.7491">
        <ele>1393.3</ele>
        <time>2022-06-12T06:46:25Z</time>
      </trkpt>
      <trkpt lat="44.1956" lon="6.74907">
        <ele>1392.9</ele>
        <time>2022-06-12T06:46:26Z</time>
      </trkpt>
      <trkpt lat="44.19561" lon="6.74903">
        <ele>1392.4</ele>
        <time>2022-06-12T06:46:27Z</time>
      </trkpt>
      <trkpt lat="44.19561" lon="6.749">
        <ele>1392</ele>
        <time>2022-06-12T06:46:28Z</time>
      </trkpt>
      <trkpt lat="44.19562" lon="6.74897">
        <ele>1391.7</ele>
        <time>2022-06-12T06:46:29Z</time>
      </trkpt>
      <trkpt lat="44.19563" lon="6.74894">
        <ele>1391.4</ele>
        <time>2022-06-12T06:46:30Z</time>
      </trkpt>
      <trkpt lat="44.19564" lon="6.74892">
        <ele>1391.3</ele>
        <time>2022-06-12T06:46:31Z</time>
      </trkpt>
      <trkpt lat="44.19565" lon="6.7489">
        <ele>1391.3</ele>
        <time>2022-06-12T06:46:32Z</time>
      </trkpt>
      <trkpt lat="44.19565" lon="6.74888">
        <ele>1391.4</ele>
        <time>2022-06-12T06:46:33Z</time>
      </trkpt>
      <trkpt lat="44.19566" lon="6.74888">
        <ele>1391.3</ele>
        <time>2022-06-12T06:46:34Z</time>
      </trkpt>
      <trkpt lat="44.19566" lon="6.74888">
        <ele>1391.3</ele>
        <time>2022-06-12T06:46:35Z</time>
      </trkpt>
      <trkpt lat="44.19571" lon="6.7488">
        <ele>1392</ele>
        <time>2022-06-12T06:47:32Z</time>
      </trkpt>
      <trkpt lat="44.19573" lon="6.74879">
        <ele>1392.7</ele>
        <time>2022-06-12T06:47:33Z</time>
      </trkpt>
      <trkpt lat="44.19576" lon="6.74878">
        <ele>1393.5</ele>
        <time>2022-06-12T06:47:34Z</time>
      </trkpt>
      <trkpt lat="44.19579" lon="6.74877">
        <ele>1394.4</ele>
        <time>2022-06-12T06:47:35Z</time>
      </trkpt>
      <trkpt lat="44.19581" lon="6.74876">
        <ele>1395.2</ele>
        <time>2022-06-12T06:47:36Z</time>
      </trkpt>
      <trkpt lat="44.19583" lon="6.74874">
        <ele>1395.6</ele>
        <time>2022-06-12T06:47:37Z</time>
      </trkpt>
      <trkpt lat="44.19585" lon="6.74872">
        <ele>1395.7</ele>
        <time>2022-06-12T06:47:38Z</time>
      </trkpt>
      <trkpt lat="44.19587" lon="6.7487">
        <ele>1395.9</ele>
        <time>2022-06-12T06:47:39Z</time>
      </trkpt>
      <trkpt lat="44.19589" lon="6.74868">
        <ele>1396</ele>
        <time>2022-06-12T06:47:40Z</time>
      </trkpt>
      <trkpt lat="44.19591" lon="6.74866">
        <ele>1396.1</ele>
        <time>2022-06-12T06:47:41Z</time>
      </trkpt>
      <trkpt lat="44.19593" lon="6.74864">
        <ele>1396.3</ele>
        <time>2022-06-12T06:47:42Z</time>
      </trkpt>
      <trkpt lat="44.19595" lon="6.74862">
        <ele>1396.3</ele>
        <time>2022-06-12T06:47:43Z</time>
      </trkpt>
      <trkpt lat="44.19597" lon="6.7486">
        <ele>1396.4</ele>
        <time>2022-06-12T06:47:44Z</time>
      </trkpt>
      <trkpt lat="44.19598" lon="6.74858">
        <ele>1396.5</ele>
        <time>2022-06-12T06:47:45Z</time>
      </trkpt>
      <trkpt lat="44.196" lon="6.74855">
        <ele>1396.7</ele>
        <time>2022-06-12T06:47:46Z</time>
      </trkpt>
      <trkpt lat="44.19602" lon="6.74853">
        <ele>1396.8</ele>
        <time>2022-06-12T06:47:47Z</time>
      </trkpt>
      <trkpt lat="44.19604" lon="6.7485">
        <ele>1396.8</ele>
        <time>2022-06-12T06:47:48Z</time>
      </trkpt>
      <trkpt lat="44.19605" lon="6.74848">
        <ele>1396.8</ele>
        <time>2022-06-12T06:47:49Z</time>
      </trkpt>
      <trkpt lat="44.19607" lon="6.74845">
        <ele>1396.9</ele>
        <time>2022-06-12T06:47:50Z</time>
      </trkpt>
      <trkpt lat="44.19609" lon="6.74843">
        <ele>1397</ele>
        <time>2022-06-12T06:47:51Z</time>
      </trkpt>
      <trkpt lat="44.1961" lon="6.7484">
        <ele>1397.1</ele>
        <time>2022-06-12T06:47:52Z</time>
      </trkpt>
      <trkpt lat="44.19612" lon="6.74838">
        <ele>1396.9</ele>
        <time>2022-06-12T06:47:53Z</time>
      </trkpt>
      <trkpt lat="44.19613" lon="6.74835">
        <ele>1396.1</ele>
        <time>2022-06-12T06:47:54Z</time>
      </trkpt>
      <trkpt lat="44.19614" lon="6.74833">
        <ele>1395.2</ele>
        <time>2022-06-12T06:47:55Z</time>
      </trkpt>
      <trkpt lat="44.19616" lon="6.74831">
        <ele>1394.4</ele>
        <time>2022-06-12T06:47:56Z</time>
      </trkpt>
      <trkpt lat="44.19618" lon="6.7483">
        <ele>1393.7</ele>
        <time>2022-06-12T06:47:57Z</time>
      </trkpt>
      <trkpt lat="44.1962" lon="6.74829">
        <ele>1393.1</ele>
        <time>2022-06-12T06:47:58Z</time>
      </trkpt>
      <trkpt lat="44.19621" lon="6.74828">
        <ele>1392.4</ele>
        <time>2022-06-12T06:47:59Z</time>
      </trkpt>
      <trkpt lat="44.19623" lon="6.74827">
        <ele>1391.9</ele>
        <time>2022-06-12T06:48:00Z</time>
      </trkpt>
      <trkpt lat="44.19623" lon="6.74827">
        <ele>1391.6</ele>
        <time>2022-06-12T06:48:01Z</time>
      </trkpt>
      <trkpt lat="44.19623" lon="6.74827">
        <ele>1391.6</ele>
        <time>2022-06-12T06:48:02Z</time>
      </trkpt>
      <trkpt lat="44.19624" lon="6.74827">
        <ele>1391.5</ele>
        <time>2022-06-12T06:48:03Z</time>
      </trkpt>
      <trkpt lat="44.19624" lon="6.74827">
        <ele>1391.6</ele>
        <time>2022-06-12T06:48:04Z</time>
      </trkpt>
      <trkpt lat="44.19624" lon="6.74827">
        <ele>1391.6</ele>
        <time>2022-06-12T06:48:05Z</time>
      </trkpt>
      <trkpt lat="44.19629" lon="6.74836">
        <ele>1393.6</ele>
        <time>2022-06-12T06:52:30Z</time>
      </trkpt>
      <trkpt lat="44.19631" lon="6.74838">
        <ele>1393.9</ele>
        <time>2022-06-12T06:52:31Z</time>
      </trkpt>
      <trkpt lat="44.19633" lon="6.7484">
        <ele>1394.3</ele>
        <time>2022-06-12T06:52:32Z</time>
      </trkpt>
      <trkpt lat="44.19635" lon="6.74843">
        <ele>1394.9</ele>
        <time>2022-06-12T06:52:33Z</time>
      </trkpt>
      <trkpt lat="44.19636" lon="6.74845">
        <ele>1395.4</ele>
        <time>2022-06-12T06:52:34Z</time>
      </trkpt>
      <trkpt lat="44.19638" lon="6.74847">
        <ele>1396</ele>
        <time>2022-06-12T06:52:35Z</time>
      </trkpt>
      <trkpt lat="44.19639" lon="6.7485">
        <ele>1396.7</ele>
        <time>2022-06-12T06:52:36Z</time>
      </trkpt>
      <trkpt lat="44.19641" lon="6.74853">
        <ele>1397.4</ele>
        <time>2022-06-12T06:52:37Z</time>
      </trkpt>
      <trkpt lat="44.19642" lon="6.74856">
        <ele>1398</ele>
        <time>2022-06-12T06:52:38Z</time>
      </trkpt>
      <trkpt lat="44.19643" lon="6.74858">
        <ele>1398.6</ele>
        <time>2022-06-12T06:52:39Z</time>
      </trkpt>
      <trkpt lat="44.19644" lon="6.74862">
        <ele>1399.4</ele>
        <time>2022-06-12T06:52:40Z</time>
      </trkpt>
      <trkpt lat="44.19644" lon="6.74865">
        <ele>1399.7</ele>
        <time>2022-06-12T06:52:41Z</time>
      </trkpt>
      <trkpt lat="44.19645" lon="6.74868">
        <ele>1400.1</ele>
        <time>2022-06-12T06:52:42Z</time>
      </trkpt>
      <trkpt lat="44.19646" lon="6.74871">
        <ele>1400.5</ele>
        <time>2022-06-12T06:52:43Z</time>
      </trkpt>
      <trkpt lat="44.19647" lon="6.74874">
        <ele>1400.7</ele>
        <time>2022-06-12T06:52:44Z</time>
      </trkpt>
      <trkpt lat="44.19648" lon="6.74877">
        <ele>1400.9</ele>
        <time>2022-06-12T06:52:45Z</time>
      </trkpt>
      <trkpt lat="44.19649" lon="6.7488">
        <ele>1401.1</ele>
        <time>2022-06-12T06:52:46Z</time>
      </trkpt>
      <trkpt lat="44.1965" lon="6.74882">
        <ele>1401.3</ele>
        <time>2022-06-12T06:52:47Z</time>
      </trkpt>
      <trkpt lat="44.19651" lon="6.74885">
        <ele>1401.4</ele>
        <time>2022-06-12T06:52:48Z</time>
      </trkpt>
      <trkpt lat="44.19652" lon="6.74888">
        <ele>1401.5</ele>
        <time>2022-06-12T06:52:49Z</time>
      </trkpt>
      <trkpt lat="44.19653" lon="6.7489">
        <ele>1401.6</ele>
        <time>2022-06-12T06:52:50Z</time>
      </trkpt>
      <trkpt lat="44.19654" lon="6.74893">
        <ele>1401.6</ele>
        <time>2022-06-12T06:52:51Z</time>
      </trkpt>
      <trkpt lat="44.19656" lon="6.74895">
        <ele>1401.6</ele>
        <time>2022-06-12T06:52:52Z</time>
      </trkpt>
      <trkpt lat="44.19657" lon="6.74897">
        <ele>1401.5</ele>
        <time>2022-06-12T06:52:53Z</time>
      </trkpt>
      <trkpt lat="44.19659" lon="6.749">
        <ele>1401.4</ele>
        <time>2022-06-12T06:52:54Z</time>
      </trkpt>
      <trkpt lat="44.1966" lon="6.74902">
        <ele>1401.6</ele>
        <time>2022-06-12T06:52:55Z</time>
      </trkpt>
      <trkpt lat="44.19661" lon="6.74905">
        <ele>1401.7</ele>
        <time>2022-06-12T06:52:56Z</time>
      </trkpt>
      <trkpt lat="44.19662" lon="6.74908">
        <ele>1401.8</ele>
        <time>2022-06-12T06:52:57Z</time>
      </trkpt>
      <trkpt lat="44.19663" lon="6.7491">
        <ele>1401.9</ele>
        <time>2022-06-12T06:52:58Z</time>
      </trkpt>
      <trkpt lat="44.19664" lon="6.74913">
        <ele>1402.1</ele>
        <time>2022-06-12T06:52:59Z</time>
      </trkpt>
      <trkpt lat="44.19665" lon="6.74916">
        <ele>1402.2</ele>
        <time>2022-06-12T06:53:00Z</time>
      </trkpt>
      <trkpt lat="44.19667" lon="6.74918">
        <ele>1402.4</ele>
        <time>2022-06-12T06:53:01Z</time>
      </trkpt>
      <trkpt lat="44.19668" lon="6.7492">
        <ele>1403</ele>
        <time>2022-06-12T06:53:02Z</time>
      </trkpt>
      <trkpt lat="44.19669" lon="6.74922">
        <ele>1403.7</ele>
        <time>2022-06-12T06:53:03Z</time>
      </trkpt>
      <trkpt lat="44.19671" lon="6.74925">
        <ele>1404.3</ele>
        <time>2022-06-12T06:53:04Z</time>
      </trkpt>
      <trkpt lat="44.19673" lon="6.74927">
        <ele>1405</ele>
        <time>2022-06-12T06:53:05Z</time>
      </trkpt>
      <trkpt lat="44.19674" lon="6.74928">
        <ele>1405.5</ele>
        <time>2022-06-12T06:53:06Z</time>
      </trkpt>
      <trkpt lat="44.19677" lon="6.7493">
        <ele>1406</ele>
        <time>2022-06-12T06:53:07Z</time>
      </trkpt>
      <trkpt lat="44.19679" lon="6.7493">
        <ele>1406.3</ele>
        <time>2022-06-12T06:53:08Z</time>
      </trkpt>
      <trkpt lat="44.19681" lon="6.7493">
        <ele>1406.5</ele>
        <time>2022-06-12T06:53:09Z</time>
      </trkpt>
      <trkpt lat="44.19684" lon="6.7493">
        <ele>1406.7</ele>
        <time>2022-06-12T06:53:10Z</time>
      </trkpt>
      <trkpt lat="44.19686" lon="6.7493">
        <ele>1406.8</ele>
        <time>2022-06-12T06:53:11Z</time>
      </trkpt>
      <trkpt lat="44.19688" lon="6.7493">
        <ele>1406.9</ele>
        <time>2022-06-12T06:53:12Z</time>
      </trkpt>
      <trkpt lat="44.19691" lon="6.74929">
        <ele>1406.9</ele>
        <time>2022-06-12T06:53:13Z</time>
      </trkpt>
      <trkpt lat="44.19693" lon="6.74928">
        <ele>1406.8</ele>
        <time>2022-06-12T06:53:14Z</time>
      </trkpt>
      <trkpt lat="44.19695" lon="6.74927">
        <ele>1407.1</ele>
        <time>2022-06-12T06:53:15Z</time>
      </trkpt>
      <trkpt lat="44.19698" lon="6.74925">
        <ele>1407.7</ele>
        <time>2022-06-12T06:53:16Z</time>
      </trkpt>
      <trkpt lat="44.197" lon="6.74924">
        <ele>1408.2</ele>
        <time>2022-06-12T06:53:17Z</time>
      </trkpt>
      <trkpt lat="44.19702" lon="6.74922">
        <ele>1408.6</ele>
        <time>2022-06-12T06:53:18Z</time>
      </trkpt>
      <trkpt lat="44.19704" lon="6.74921">
        <ele>1408.7</ele>
        <time>2022-06-12T06:53:19Z</time>
      </trkpt>
      <trkpt lat="44.19706" lon="6.74919">
        <ele>1408.8</ele>
        <time>2022-06-12T06:53:20Z</time>
      </trkpt>
      <trkpt lat="44.19708" lon="6.74917">
        <ele>1408.9</ele>
        <time>2022-06-12T06:53:21Z</time>
      </trkpt>
      <trkpt lat="44.1971" lon="6.74916">
        <ele>1409.1</ele>
        <time>2022-06-12T06:53:22Z</time>
      </trkpt>
      <trkpt lat="44.19711" lon="6.74914">
        <ele>1409.3</ele>
        <time>2022-06-12T06:53:23Z</time>
      </trkpt>
      <trkpt lat="44.19713" lon="6.74913">
        <ele>1409.6</ele>
        <time>2022-06-12T06:53:24Z</time>
      </trkpt>
      <trkpt lat="44.19716" lon="6.74912">
        <ele>1410.1</ele>
        <time>2022-06-12T06:53:25Z</time>
      </trkpt>
      <trkpt lat="44.19718" lon="6.74911">
        <ele>1410.6</ele>
        <time>2022-06-12T06:53:26Z</time>
      </trkpt>
      <trkpt lat="44.1972" lon="6.7491">
        <ele>1410.9</ele>
        <time>2022-06-12T06:53:27Z</time>
      </trkpt>
      <trkpt lat="44.19722" lon="6.74909">
        <ele>1411.3</ele>
        <time>2022-06-12T06:53:28Z</time>
      </trkpt>
      <trkpt lat="44.19724" lon="6.74908">
        <ele>1412</ele>
        <time>2022-06-12T06:53:29Z</time>
      </trkpt>
      <trkpt lat="44.19726" lon="6.74906">
        <ele>1412.6</ele>
        <time>2022-06-12T06:53:30Z</time>
      </trkpt>
      <trkpt lat="44.19728" lon="6.74905">
        <ele>1413.4</ele>
        <time>2022-06-12T06:53:31Z</time>
      </trkpt>
      <trkpt lat="44.1973" lon="6.74904">
        <ele>1414.1</ele>
        <time>2022-06-12T06:53:32Z</time>
      </trkpt>
      <trkpt lat="44.19733" lon="6.74903">
        <ele>1415</ele>
        <time>2022-06-12T06:53:33Z</time>
      </trkpt>
      <trkpt lat="44.19735" lon="6.74902">
        <ele>1415.8</ele>
        <time>2022-06-12T06:53:34Z</time>
      </trkpt>
      <trkpt lat="44.19737" lon="6.749">
        <ele>1416.4</ele>
        <time>2022-06-12T06:53:35Z</time>
      </trkpt>
      <trkpt lat="44.19739" lon="6.74898">
        <ele>1417</ele>
        <time>2022-06-12T06:53:36Z</time>
      </trkpt>
      <trkpt lat="44.1974" lon="6.74897">
        <ele>1417.6</ele>
        <time>2022-06-12T06:53:37Z</time>
      </trkpt>
      <trkpt lat="44.19742" lon="6.74895">
        <ele>1418.1</ele>
        <time>2022-06-12T06:53:38Z</time>
      </trkpt>
      <trkpt lat="44.19744" lon="6.74893">
        <ele>1418.5</ele>
        <time>2022-06-12T06:53:39Z</time>
      </trkpt>
      <trkpt lat="44.19745" lon="6.7489">
        <ele>1418.6</ele>
        <time>2022-06-12T06:53:40Z</time>
      </trkpt>
      <trkpt lat="44.19746" lon="6.74888">
        <ele>1418.7</ele>
        <time>2022-06-12T06:53:41Z</time>
      </trkpt>
      <trkpt lat="44.19747" lon="6.74885">
        <ele>1418.5</ele>
        <time>2022-06-12T06:53:42Z</time>
      </trkpt>
      <trkpt lat="44.19749" lon="6.74883">
        <ele>1418.5</ele>
        <time>2022-06-12T06:53:43Z</time>
      </trkpt>
      <trkpt lat="44.1975" lon="6.7488">
        <ele>1418.3</ele>
        <time>2022-06-12T06:53:44Z</time>
      </trkpt>
      <trkpt lat="44.19751" lon="6.74878">
        <ele>1417.8</ele>
        <time>2022-06-12T06:53:45Z</time>
      </trkpt>
      <trkpt lat="44.19752" lon="6.74875">
        <ele>1417.1</ele>
        <time>2022-06-12T06:53:46Z</time>
      </trkpt>
      <trkpt lat="44.19753" lon="6.74872">
        <ele>1416.4</ele>
        <time>2022-06-12T06:53:47Z</time>
      </trkpt>
      <trkpt lat="44.19754" lon="6.7487">
        <ele>1415.8</ele>
        <time>2022-06-12T06:53:48Z</time>
      </trkpt>
      <trkpt lat="44.19755" lon="6.74867">
        <ele>1415.2</ele>
        <time>2022-06-12T06:53:49Z</time>
      </trkpt>
      <trkpt lat="44.19757" lon="6.74865">
        <ele>1414.7</ele>
        <time>2022-06-12T06:53:50Z</time>
      </trkpt>
      <trkpt lat="44.19759" lon="6.74863">
        <ele>1414.2</ele>
        <time>2022-06-12T06:53:51Z</time>
      </trkpt>
      <trkpt lat="44.19761" lon="6.74862">
        <ele>1414</ele>
        <time>2022-06-12T06:53:52Z</time>
      </trkpt>
      <trkpt lat="44.19763" lon="6.74861">
        <ele>1413.9</ele>
        <time>2022-06-12T06:53:53Z</time>
      </trkpt>
      <trkpt lat="44.19765" lon="6.74861">
        <ele>1414</ele>
        <time>2022-06-12T06:53:54Z</time>
      </trkpt>
      <trkpt lat="44.19767" lon="6.74861">
        <ele>1414.1</ele>
        <time>2022-06-12T06:53:55Z</time>
      </trkpt>
      <trkpt lat="44.19769" lon="6.74861">
        <ele>1414.3</ele>
        <time>2022-06-12T06:53:56Z</time>
      </trkpt>
      <trkpt lat="44.19771" lon="6.74862">
        <ele>1414.7</ele>
        <time>2022-06-12T06:53:57Z</time>
      </trkpt>
      <trkpt lat="44.19774" lon="6.74862">
        <ele>1415.1</ele>
        <time>2022-06-12T06:53:58Z</time>
      </trkpt>
      <trkpt lat="44.19776" lon="6.74863">
        <ele>1415.6</ele>
        <time>2022-06-12T06:53:59Z</time>
      </trkpt>
      <trkpt lat="44.19777" lon="6.74865">
        <ele>1416.2</ele>
        <time>2022-06-12T06:54:00Z</time>
      </trkpt>
      <trkpt lat="44.19779" lon="6.74866">
        <ele>1416.5</ele>
        <time>2022-06-12T06:54:01Z</time>
      </trkpt>
      <trkpt lat="44.19781" lon="6.74868">
        <ele>1416.6</ele>
        <time>2022-06-12T06:54:02Z</time>
      </trkpt>
      <trkpt lat="44.19783" lon="6.7487">
        <ele>1416.6</ele>
        <time>2022-06-12T06:54:03Z</time>
      </trkpt>
      <trkpt lat="44.19784" lon="6.74872">
        <ele>1416.7</ele>
        <time>2022-06-12T06:54:04Z</time>
      </trkpt>
      <trkpt lat="44.19786" lon="6.74874">
        <ele>1416.9</ele>
        <time>2022-06-12T06:54:05Z</time>
      </trkpt>
      <trkpt lat="44.19788" lon="6.74876">
        <ele>1417.2</ele>
        <time>2022-06-12T06:54:06Z</time>
      </trkpt>
      <trkpt lat="44.1979" lon="6.74878">
        <ele>1417.5</ele>
        <time>2022-06-12T06:54:07Z</time>
      </trkpt>
      <trkpt lat="44.19791" lon="6.7488">
        <ele>1417.8</ele>
        <time>2022-06-12T06:54:08Z</time>
      </trkpt>
      <trkpt lat="44.19793" lon="6.74882">
        <ele>1418.2</ele>
        <time>2022-06-12T06:54:09Z</time>
      </trkpt>
      <trkpt lat="44.19794" lon="6.74884">
        <ele>1418.4</ele>
        <time>2022-06-12T06:54:10Z</time>
      </trkpt>
      <trkpt lat="44.19796" lon="6.74886">
        <ele>1418.6</ele>
        <time>2022-06-12T06:54:11Z</time>
      </trkpt>
      <trkpt lat="44.19798" lon="6.74888">
        <ele>1418.9</ele>
        <time>2022-06-12T06:54:12Z</time>
      </trkpt>
      <trkpt lat="44.198" lon="6.7489">
        <ele>1419.1</ele>
        <time>2022-06-12T06:54:13Z</time>
      </trkpt>
      <trkpt lat="44.19801" lon="6.74892">
        <ele>1419.3</ele>
        <time>2022-06-12T06:54:14Z</time>
      </trkpt>
      <trkpt lat="44.19803" lon="6.74895">
        <ele>1419.6</ele>
        <time>2022-06-12T06:54:15Z</time>
      </trkpt>
      <trkpt lat="44.19804" lon="6.74897">
        <ele>1419.8</ele>
        <time>2022-06-12T06:54:16Z</time>
      </trkpt>
      <trkpt lat="44.19806" lon="6.74899">
        <ele>1420</ele>
        <time>2022-06-12T06:54:17Z</time>
      </trkpt>
      <trkpt lat="44.19807" lon="6.74902">
        <ele>1420.3</ele>
        <time>2022-06-12T06:54:18Z</time>
      </trkpt>
      <trkpt lat="44.19808" lon="6.74904">
        <ele>1420.6</ele>
        <time>2022-06-12T06:54:19Z</time>
      </trkpt>
      <trkpt lat="44.1981" lon="6.74907">
        <ele>1421</ele>
        <time>2022-06-12T06:54:20Z</time>
      </trkpt>
      <trkpt lat="44.19811" lon="6.74909">
        <ele>1421.3</ele>
        <time>2022-06-12T06:54:21Z</time>
      </trkpt>
      <trkpt lat="44.19812" lon="6.74912">
        <ele>1421.6</ele>
        <time>2022-06-12T06:54:22Z</time>
      </trkpt>
      <trkpt lat="44.19814" lon="6.74914">
        <ele>1422</ele>
        <time>2022-06-12T06:54:23Z</time>
      </trkpt>
      <trkpt lat="44.19815" lon="6.74917">
        <ele>1422.4</ele>
        <time>2022-06-12T06:54:24Z</time>
      </trkpt>
      <trkpt lat="44.19816" lon="6.74919">
        <ele>1423</ele>
        <time>2022-06-12T06:54:25Z</time>
      </trkpt>
      <trkpt lat="44.19817" lon="6.74922">
        <ele>1423.4</ele>
        <time>2022-06-12T06:54:26Z</time>
      </trkpt>
      <trkpt lat="44.19818" lon="6.74924">
        <ele>1423.7</ele>
        <time>2022-06-12T06:54:27Z</time>
      </trkpt>
      <trkpt lat="44.1982" lon="6.74926">
        <ele>1423.8</ele>
        <time>2022-06-12T06:54:28Z</time>
      </trkpt>
      <trkpt lat="44.19822" lon="6.74928">
        <ele>1424</ele>
        <time>2022-06-12T06:54:29Z</time>
      </trkpt>
      <trkpt lat="44.19823" lon="6.7493">
        <ele>1424</ele>
        <time>2022-06-12T06:54:30Z</time>
      </trkpt>
      <trkpt lat="44.19825" lon="6.74932">
        <ele>1424</ele>
        <time>2022-06-12T06:54:31Z</time>
      </trkpt>
      <trkpt lat="44.19827" lon="6.74934">
        <ele>1423.9</ele>
        <time>2022-06-12T06:54:32Z</time>
      </trkpt>
      <trkpt lat="44.19829" lon="6.74935">
        <ele>1423.5</ele>
        <time>2022-06-12T06:54:33Z</time>
      </trkpt>
      <trkpt lat="44.19831" lon="6.74937">
        <ele>1423.1</ele>
        <time>2022-06-12T06:54:34Z</time>
      </trkpt>
      <trkpt lat="44.19833" lon="6.74938">
        <ele>1422.6</ele>
        <time>2022-06-12T06:54:35Z</time>
      </trkpt>
      <trkpt lat="44.19835" lon="6.74938">
        <ele>1422.6</ele>
        <time>2022-06-12T06:54:36Z</time>
      </trkpt>
      <trkpt lat="44.19838" lon="6.74937">
        <ele>1423</ele>
        <time>2022-06-12T06:54:37Z</time>
      </trkpt>
      <trkpt lat="44.1984" lon="6.74936">
        <ele>1423.3</ele>
        <time>2022-06-12T06:54:38Z</time>
      </trkpt>
      <trkpt lat="44.19842" lon="6.74934">
        <ele>1423.5</ele>
        <time>2022-06-12T06:54:39Z</time>
      </trkpt>
      <trkpt lat="44.19844" lon="6.74932">
        <ele>1423.6</ele>
        <time>2022-06-12T06:54:40Z</time>
      </trkpt>
      <trkpt lat="44.19846" lon="6.7493">
        <ele>1423.5</ele>
        <time>2022-06-12T06:54:41Z</time>
      </trkpt>
      <trkpt lat="44.19848" lon="6.74927">
        <ele>1423.5</ele>
        <time>2022-06-12T06:54:42Z</time>
      </trkpt>
      <trkpt lat="44.19849" lon="6.74925">
        <ele>1423.5</ele>
        <time>2022-06-12T06:54:43Z</time>
      </trkpt>
      <trkpt lat="44.19851" lon="6.74922">
        <ele>1423.4</ele>
        <time>2022-06-12T06:54:44Z</time>
      </trkpt>
      <trkpt lat="44.19852" lon="6.74919">
        <ele>1423.3</ele>
        <time>2022-06-12T06:54:45Z</time>
      </trkpt>
      <trkpt lat="44.19852" lon="6.74916">
        <ele>1423</ele>
        <time>2022-06-12T06:54:46Z</time>
      </trkpt>
      <trkpt lat="44.19852" lon="6.74913">
        <ele>1422.5</ele>
        <time>2022-06-12T06:54:47Z</time>
      </trkpt>
      <trkpt lat="44.19853" lon="6.7491">
        <ele>1421.9</ele>
        <time>2022-06-12T06:54:48Z</time>
      </trkpt>
      <trkpt lat="44.19853" lon="6.74907">
        <ele>1421.4</ele>
        <time>2022-06-12T06:54:49Z</time>
      </trkpt>
      <trkpt lat="44.19854" lon="6.74904">
        <ele>1420.9</ele>
        <time>2022-06-12T06:54:50Z</time>
      </trkpt>
      <trkpt lat="44.19854" lon="6.74901">
        <ele>1420.5</ele>
        <time>2022-06-12T06:54:51Z</time>
      </trkpt>
      <trkpt lat="44.19855" lon="6.74898">
        <ele>1420.3</ele>
        <time>2022-06-12T06:54:52Z</time>
      </trkpt>
      <trkpt lat="44.19856" lon="6.74894">
        <ele>1419.9</ele>
        <time>2022-06-12T06:54:53Z</time>
      </trkpt>
      <trkpt lat="44.19857" lon="6.74891">
        <ele>1419.8</ele>
        <time>2022-06-12T06:54:54Z</time>
      </trkpt>
      <trkpt lat="44.19858" lon="6.74888">
        <ele>1419.7</ele>
        <time>2022-06-12T06:54:55Z</time>
      </trkpt>
      <trkpt lat="44.1986" lon="6.74885">
        <ele>1419.7</ele>
        <time>2022-06-12T06:54:56Z</time>
      </trkpt>
      <trkpt lat="44.19861" lon="6.74882">
        <ele>1419.7</ele>
        <time>2022-06-12T06:54:57Z</time>
      </trkpt>
      <trkpt lat="44.19862" lon="6.7488">
        <ele>1419.8</ele>
        <time>2022-06-12T06:54:58Z</time>
      </trkpt>
      <trkpt lat="44.19864" lon="6.74876">
        <ele>1419.8</ele>
        <time>2022-06-12T06:54:59Z</time>
      </trkpt>
      <trkpt lat="44.19865" lon="6.74873">
        <ele>1419.7</ele>
        <time>2022-06-12T06:55:00Z</time>
      </trkpt>
      <trkpt lat="44.19866" lon="6.7487">
        <ele>1419.6</ele>
        <time>2022-06-12T06:55:01Z</time>
      </trkpt>
      <trkpt lat="44.19867" lon="6.74867">
        <ele>1419.4</ele>
        <time>2022-06-12T06:55:02Z</time>
      </trkpt>
      <trkpt lat="44.19867" lon="6.74864">
        <ele>1419.2</ele>
        <time>2022-06-12T06:55:03Z</time>
      </trkpt>
      <trkpt lat="44.19868" lon="6.74861">
        <ele>1419.1</ele>
        <time>2022-06-12T06:55:04Z</time>
      </trkpt>
      <trkpt lat="44.19869" lon="6.74858">
        <ele>1419.1</ele>
        <time>2022-06-12T06:55:05Z</time>
      </trkpt>
      <trkpt lat="44.19871" lon="6.74855">
        <ele>1419.2</ele>
        <time>2022-06-12T06:55:06Z</time>
      </trkpt>
      <trkpt lat="44.19872" lon="6.74853">
        <ele>1419.4</ele>
        <time>2022-06-12T06:55:07Z</time>
      </trkpt>
      <trkpt lat="44.19874" lon="6.7485">
        <ele>1419.7</ele>
        <time>2022-06-12T06:55:08Z</time>
      </trkpt>
      <trkpt lat="44.19876" lon="6.74848">
        <ele>1420.1</ele>
        <time>2022-06-12T06:55:09Z</time>
      </trkpt>
      <trkpt lat="44.19878" lon="6.74846">
        <ele>1420.6</ele>
        <time>2022-06-12T06:55:10Z</time>
      </trkpt>
      <trkpt lat="44.1988" lon="6.74845">
        <ele>1421.2</ele>
        <time>2022-06-12T06:55:11Z</time>
      </trkpt>
      <trkpt lat="44.19882" lon="6.74844">
        <ele>1421.9</ele>
        <time>2022-06-12T06:55:12Z</time>
      </trkpt>
      <trkpt lat="44.19884" lon="6.74842">
        <ele>1422.7</ele>
        <time>2022-06-12T06:55:13Z</time>
      </trkpt>
      <trkpt lat="44.19887" lon="6.74841">
        <ele>1423.5</ele>
        <time>2022-06-12T06:55:14Z</time>
      </trkpt>
      <trkpt lat="44.19889" lon="6.74841">
        <ele>1424.3</ele>
        <time>2022-06-12T06:55:15Z</time>
      </trkpt>
      <trkpt lat="44.19891" lon="6.7484">
        <ele>1424.7</ele>
        <time>2022-06-12T06:55:16Z</time>
      </trkpt>
      <trkpt lat="44.19894" lon="6.74839">
        <ele>1425.2</ele>
        <time>2022-06-12T06:55:17Z</time>
      </trkpt>
      <trkpt lat="44.19896" lon="6.74838">
        <ele>1425.6</ele>
        <time>2022-06-12T06:55:18Z</time>
      </trkpt>
      <trkpt lat="44.19898" lon="6.74839">
        <ele>1426.3</ele>
        <time>2022-06-12T06:55:19Z</time>
      </trkpt>
      <trkpt lat="44.19901" lon="6.74839">
        <ele>1427</ele>
        <time>2022-06-12T06:55:20Z</time>
      </trkpt>
      <trkpt lat="44.19903" lon="6.74839">
        <ele>1427.6</ele>
        <time>2022-06-12T06:55:21Z</time>
      </trkpt>
      <trkpt lat="44.19905" lon="6.7484">
        <ele>1428.3</ele>
        <time>2022-06-12T06:55:22Z</time>
      </trkpt>
      <trkpt lat="44.19908" lon="6.7484">
        <ele>1429</ele>
        <time>2022-06-12T06:55:23Z</time>
      </trkpt>
      <trkpt lat="44.1991" lon="6.7484">
        <ele>1429.6</ele>
        <time>2022-06-12T06:55:24Z</time>
      </trkpt>
      <trkpt lat="44.19912" lon="6.7484">
        <ele>1430.1</ele>
        <time>2022-06-12T06:55:25Z</time>
      </trkpt>
      <trkpt lat="44.19914" lon="6.7484">
        <ele>1430.7</ele>
        <time>2022-06-12T06:55:26Z</time>
      </trkpt>
      <trkpt lat="44.19916" lon="6.7484">
        <ele>1431.2</ele>
        <time>2022-06-12T06:55:27Z</time>
      </trkpt>
      <trkpt lat="44.19918" lon="6.7484">
        <ele>1431.6</ele>
        <time>2022-06-12T06:55:28Z</time>
      </trkpt>
      <trkpt lat="44.19921" lon="6.74839">
        <ele>1431.9</ele>
        <time>2022-06-12T06:55:29Z</time>
      </trkpt>
      <trkpt lat="44.19923" lon="6.74838">
        <ele>1432.2</ele>
        <time>2022-06-12T06:55:30Z</time>
      </trkpt>
      <trkpt lat="44.19925" lon="6.74838">
        <ele>1432.6</ele>
        <time>2022-06-12T06:55:31Z</time>
      </trkpt>
      <trkpt lat="44.19928" lon="6.74837">
        <ele>1432.9</ele>
        <time>2022-06-12T06:55:32Z</time>
      </trkpt>
      <trkpt lat="44.1993" lon="6.74837">
        <ele>1433.3</ele>
        <time>2022-06-12T06:55:33Z</time>
      </trkpt>
      <trkpt lat="44.19932" lon="6.74837">
        <ele>1433.6</ele>
        <time>2022-06-12T06:55:34Z</time>
      </trkpt>
      <trkpt lat="44.19934" lon="6.74836">
        <ele>1433.9</ele>
        <time>2022-06-12T06:55:35Z</time>
      </trkpt>
      <trkpt lat="44.19937" lon="6.74836">
        <ele>1434.3</ele>
        <time>2022-06-12T06:55:36Z</time>
      </trkpt>
      <trkpt lat="44.1994" lon="6.74835">
        <ele>1434.7</ele>
        <time>2022-06-12T06:55:37Z</time>
      </trkpt>
      <trkpt lat="44.19943" lon="6.74835">
        <ele>1435.1</ele>
        <time>2022-06-12T06:55:38Z</time>
      </trkpt>
      <trkpt lat="44.19946" lon="6.74834">
        <ele>1435.5</ele>
        <time>2022-06-12T06:55:39Z</time>
      </trkpt>
      <trkpt lat="44.19948" lon="6.74834">
        <ele>1436</ele>
        <time>2022-06-12T06:55:40Z</time>
      </trkpt>
      <trkpt lat="44.19951" lon="6.74834">
        <ele>1436.6</ele>
        <time>2022-06-12T06:55:41Z</time>
      </trkpt>
      <trkpt lat="44.19953" lon="6.74834">
        <ele>1437.1</ele>
        <time>2022-06-12T06:55:42Z</time>
      </trkpt>
      <trkpt lat="44.19956" lon="6.74834">
        <ele>1437.5</ele>
        <time>2022-06-12T06:55:43Z</time>
      </trkpt>
      <trkpt lat="44.19958" lon="6.74833">
        <ele>1437.8</ele>
        <time>2022-06-12T06:55:44Z</time>
      </trkpt>
      <trkpt lat="44.1996" lon="6.74832">
        <ele>1438.1</ele>
        <time>2022-06-12T06:55:45Z</time>
      </trkpt>
      <trkpt lat="44.19963" lon="6.74831">
        <ele>1438.3</ele>
        <time>2022-06-12T06:55:46Z</time>
      </trkpt>
      <trkpt lat="44.19965" lon="6.7483">
        <ele>1438.5</ele>
        <time>2022-06-12T06:55:47Z</time>
      </trkpt>
      <trkpt lat="44.19967" lon="6.74829">
        <ele>1438.7</ele>
        <time>2022-06-12T06:55:48Z</time>
      </trkpt>
      <trkpt lat="44.1997" lon="6.74829">
        <ele>1439</ele>
        <time>2022-06-12T06:55:49Z</time>
      </trkpt>
      <trkpt lat="44.19972" lon="6.74828">
        <ele>1439.3</ele>
        <time>2022-06-12T06:55:50Z</time>
      </trkpt>
      <trkpt lat="44.19974" lon="6.74827">
        <ele>1439.7</ele>
        <time>2022-06-12T06:55:51Z</time>
      </trkpt>
      <trkpt lat="44.19977" lon="6.74827">
        <ele>1440.2</ele>
        <time>2022-06-12T06:55:52Z</time>
      </trkpt>
      <trkpt lat="44.19979" lon="6.74826">
        <ele>1440.6</ele>
        <time>2022-06-12T06:55:53Z</time>
      </trkpt>
      <trkpt lat="44.19982" lon="6.74825">
        <ele>1441</ele>
        <time>2022-06-12T06:55:54Z</time>
      </trkpt>
      <trkpt lat="44.19984" lon="6.74824">
        <ele>1441.3</ele>
        <time>2022-06-12T06:55:55Z</time>
      </trkpt>
      <trkpt lat="44.19986" lon="6.74824">
        <ele>1441.6</ele>
        <time>2022-06-12T06:55:56Z</time>
      </trkpt>
      <trkpt lat="44.19989" lon="6.74823">
        <ele>1442</ele>
        <time>2022-06-12T06:55:57Z</time>
      </trkpt>
      <trkpt lat="44.19991" lon="6.74822">
        <ele>1442.2</ele>
        <time>2022-06-12T06:55:58Z</time>
      </trkpt>
      <trkpt lat="44.19993" lon="6.74821">
        <ele>1442.4</ele>
        <time>2022-06-12T06:55:59Z</time>
      </trkpt>
      <trkpt lat="44.19996" lon="6.7482">
        <ele>1442.7</ele>
        <time>2022-06-12T06:56:00Z</time>
      </trkpt>
      <trkpt lat="44.19998" lon="6.7482">
        <ele>1443.1</ele>
        <time>2022-06-12T06:56:01Z</time>
      </trkpt>
      <trkpt lat="44.2" lon="6.74819">
        <ele>1443.3</ele>
        <time>2022-06-12T06:56:02Z</time>
      </trkpt>
      <trkpt lat="44.20002" lon="6.74819">
        <ele>1443.6</ele>
        <time>2022-06-12T06:56:03Z</time>
      </trkpt>
      <trkpt lat="44.20005" lon="6.74818">
        <ele>1443.9</ele>
        <time>2022-06-12T06:56:04Z</time>
      </trkpt>
      <trkpt lat="44.20007" lon="6.74818">
        <ele>1444.2</ele>
        <time>2022-06-12T06:56:05Z</time>
      </trkpt>
      <trkpt lat="44.20009" lon="6.74817">
        <ele>1444.5</ele>
        <time>2022-06-12T06:56:06Z</time>
      </trkpt>
      <trkpt lat="44.20011" lon="6.74817">
        <ele>1444.8</ele>
        <time>2022-06-12T06:56:07Z</time>
      </trkpt>
      <trkpt lat="44.20014" lon="6.74816">
        <ele>1444.9</ele>
        <time>2022-06-12T06:56:08Z</time>
      </trkpt>
      <trkpt lat="44.20016" lon="6.74816">
        <ele>1445.2</ele>
        <time>2022-06-12T06:56:09Z</time>
      </trkpt>
      <trkpt lat="44.20018" lon="6.74815">
        <ele>1445.5</ele>
        <time>2022-06-12T06:56:10Z</time>
      </trkpt>
      <trkpt lat="44.2002" lon="6.74815">
        <ele>1445.7</ele>
        <time>2022-06-12T06:56:11Z</time>
      </trkpt>
      <trkpt lat="44.20022" lon="6.74814">
        <ele>1446</ele>
        <time>2022-06-12T06:56:12Z</time>
      </trkpt>
      <trkpt lat="44.20025" lon="6.74814">
        <ele>1446.4</ele>
        <time>2022-06-12T06:56:13Z</time>
      </trkpt>
      <trkpt lat="44.20027" lon="6.74814">
        <ele>1446.8</ele>
        <time>2022-06-12T06:56:14Z</time>
      </trkpt>
      <trkpt lat="44.20029" lon="6.74814">
        <ele>1447.3</ele>
        <time>2022-06-12T06:56:15Z</time>
      </trkpt>
      <trkpt lat="44.20032" lon="6.74813">
        <ele>1447.9</ele>
        <time>2022-06-12T06:56:16Z</time>
      </trkpt>
      <trkpt lat="44.20034" lon="6.74813">
        <ele>1448.5</ele>
        <time>2022-06-12T06:56:17Z</time>
      </trkpt>
      <trkpt lat="44.20036" lon="6.74812">
        <ele>1449</ele>
        <time>2022-06-12T06:56:18Z</time>
      </trkpt>
      <trkpt lat="44.20038" lon="6.74811">
        <ele>1449.5</ele>
        <time>2022-06-12T06:56:19Z</time>
      </trkpt>
      <trkpt lat="44.20041" lon="6.7481">
        <ele>1449.9</ele>
        <time>2022-06-12T06:56:20Z</time>
      </trkpt>
      <trkpt lat="44.20043" lon="6.74809">
        <ele>1450.2</ele>
        <time>2022-06-12T06:56:21Z</time>
      </trkpt>
      <trkpt lat="44.20045" lon="6.74808">
        <ele>1450.2</ele>
        <time>2022-06-12T06:56:22Z</time>
      </trkpt>
      <trkpt lat="44.20047" lon="6.74807">
        <ele>1450.3</ele>
        <time>2022-06-12T06:56:23Z</time>
      </trkpt>
      <trkpt lat="44.20049" lon="6.74805">
        <ele>1450.6</ele>
        <time>2022-06-12T06:56:24Z</time>
      </trkpt>
      <trkpt lat="44.20051" lon="6.74804">
        <ele>1451</ele>
        <time>2022-06-12T06:56:25Z</time>
      </trkpt>
      <trkpt lat="44.20053" lon="6.74803">
        <ele>1451.4</ele>
        <time>2022-06-12T06:56:26Z</time>
      </trkpt>
      <trkpt lat="44.20056" lon="6.74802">
        <ele>1452</ele>
        <time>2022-06-12T06:56:27Z</time>
      </trkpt>
      <trkpt lat="44.20057" lon="6.74801">
        <ele>1452.2</ele>
        <time>2022-06-12T06:56:28Z</time>
      </trkpt>
      <trkpt lat="44.20059" lon="6.74799">
        <ele>1452.5</ele>
        <time>2022-06-12T06:56:29Z</time>
      </trkpt>
      <trkpt lat="44.20061" lon="6.74797">
        <ele>1452.5</ele>
        <time>2022-06-12T06:56:30Z</time>
      </trkpt>
      <trkpt lat="44.20063" lon="6.74796">
        <ele>1452.8</ele>
        <time>2022-06-12T06:56:31Z</time>
      </trkpt>
      <trkpt lat="44.20065" lon="6.74794">
        <ele>1452.8</ele>
        <time>2022-06-12T06:56:32Z</time>
      </trkpt>
      <trkpt lat="44.20066" lon="6.74792">
        <ele>1452.8</ele>
        <time>2022-06-12T06:56:33Z</time>
      </trkpt>
      <trkpt lat="44.20068" lon="6.7479">
        <ele>1453</ele>
        <time>2022-06-12T06:56:34Z</time>
      </trkpt>
      <trkpt lat="44.2007" lon="6.74789">
        <ele>1453.2</ele>
        <time>2022-06-12T06:56:35Z</time>
      </trkpt>
      <trkpt lat="44.20072" lon="6.74786">
        <ele>1453.1</ele>
        <time>2022-06-12T06:56:36Z</time>
      </trkpt>
      <trkpt lat="44.20074" lon="6.74784">
        <ele>1453</ele>
        <time>2022-06-12T06:56:37Z</time>
      </trkpt>
      <trkpt lat="44.20076" lon="6.74782">
        <ele>1452.9</ele>
        <time>2022-06-12T06:56:38Z</time>
      </trkpt>
      <trkpt lat="44.20077" lon="6.7478">
        <ele>1452.5</ele>
        <time>2022-06-12T06:56:39Z</time>
      </trkpt>
      <trkpt lat="44.20079" lon="6.74777">
        <ele>1452.3</ele>
        <time>2022-06-12T06:56:40Z</time>
      </trkpt>
      <trkpt lat="44.2008" lon="6.74775">
        <ele>1452.2</ele>
        <time>2022-06-12T06:56:41Z</time>
      </trkpt>
      <trkpt lat="44.20081" lon="6.74772">
        <ele>1451.8</ele>
        <time>2022-06-12T06:56:42Z</time>
      </trkpt>
      <trkpt lat="44.20083" lon="6.7477">
        <ele>1451.7</ele>
        <time>2022-06-12T06:56:43Z</time>
      </trkpt>
      <trkpt lat="44.20084" lon="6.74767">
        <ele>1451.5</ele>
        <time>2022-06-12T06:56:44Z</time>
      </trkpt>
      <trkpt lat="44.20086" lon="6.74765">
        <ele>1451.5</ele>
        <time>2022-06-12T06:56:45Z</time>
      </trkpt>
      <trkpt lat="44.20087" lon="6.74763">
        <ele>1451.4</ele>
        <time>2022-06-12T06:56:46Z</time>
      </trkpt>
      <trkpt lat="44.20089" lon="6.74761">
        <ele>1451.2</ele>
        <time>2022-06-12T06:56:47Z</time>
      </trkpt>
      <trkpt lat="44.20091" lon="6.74758">
        <ele>1451.2</ele>
        <time>2022-06-12T06:56:48Z</time>
      </trkpt>
      <trkpt lat="44.20093" lon="6.74756">
        <ele>1451.2</ele>
        <time>2022-06-12T06:56:49Z</time>
      </trkpt>
      <trkpt lat="44.20094" lon="6.74754">
        <ele>1451.1</ele>
        <time>2022-06-12T06:56:50Z</time>
      </trkpt>
      <trkpt lat="44.20096" lon="6.74751">
        <ele>1450.8</ele>
        <time>2022-06-12T06:56:51Z</time>
      </trkpt>
      <trkpt lat="44.20097" lon="6.74749">
        <ele>1450.6</ele>
        <time>2022-06-12T06:56:52Z</time>
      </trkpt>
      <trkpt lat="44.20098" lon="6.74746">
        <ele>1450.6</ele>
        <time>2022-06-12T06:56:53Z</time>
      </trkpt>
      <trkpt lat="44.201" lon="6.74744">
        <ele>1450.5</ele>
        <time>2022-06-12T06:56:54Z</time>
      </trkpt>
      <trkpt lat="44.20101" lon="6.74741">
        <ele>1450.4</ele>
        <time>2022-06-12T06:56:55Z</time>
      </trkpt>
      <trkpt lat="44.20103" lon="6.74738">
        <ele>1450.4</ele>
        <time>2022-06-12T06:56:56Z</time>
      </trkpt>
      <trkpt lat="44.20104" lon="6.74736">
        <ele>1450.5</ele>
        <time>2022-06-12T06:56:57Z</time>
      </trkpt>
      <trkpt lat="44.20106" lon="6.74734">
        <ele>1450.7</ele>
        <time>2022-06-12T06:56:58Z</time>
      </trkpt>
      <trkpt lat="44.20108" lon="6.74733">
        <ele>1451</ele>
        <time>2022-06-12T06:56:59Z</time>
      </trkpt>
      <trkpt lat="44.2011" lon="6.74731">
        <ele>1451.3</ele>
        <time>2022-06-12T06:57:00Z</time>
      </trkpt>
      <trkpt lat="44.20112" lon="6.7473">
        <ele>1451.6</ele>
        <time>2022-06-12T06:57:01Z</time>
      </trkpt>
      <trkpt lat="44.20114" lon="6.7473">
        <ele>1452</ele>
        <time>2022-06-12T06:57:02Z</time>
      </trkpt>
      <trkpt lat="44.20116" lon="6.7473">
        <ele>1452.3</ele>
        <time>2022-06-12T06:57:03Z</time>
      </trkpt>
      <trkpt lat="44.20119" lon="6.74729">
        <ele>1452.7</ele>
        <time>2022-06-12T06:57:04Z</time>
      </trkpt>
      <trkpt lat="44.20121" lon="6.7473">
        <ele>1453.2</ele>
        <time>2022-06-12T06:57:05Z</time>
      </trkpt>
      <trkpt lat="44.20123" lon="6.7473">
        <ele>1453.7</ele>
        <time>2022-06-12T06:57:06Z</time>
      </trkpt>
      <trkpt lat="44.20126" lon="6.74731">
        <ele>1454.3</ele>
        <time>2022-06-12T06:57:07Z</time>
      </trkpt>
      <trkpt lat="44.20128" lon="6.74731">
        <ele>1454.8</ele>
        <time>2022-06-12T06:57:08Z</time>
      </trkpt>
      <trkpt lat="44.20131" lon="6.74731">
        <ele>1455.3</ele>
        <time>2022-06-12T06:57:09Z</time>
      </trkpt>
      <trkpt lat="44.20133" lon="6.74732">
        <ele>1455.9</ele>
        <time>2022-06-12T06:57:10Z</time>
      </trkpt>
      <trkpt lat="44.20135" lon="6.74733">
        <ele>1456.5</ele>
        <time>2022-06-12T06:57:11Z</time>
      </trkpt>
      <trkpt lat="44.20137" lon="6.74734">
        <ele>1457.1</ele>
        <time>2022-06-12T06:57:12Z</time>
      </trkpt>
      <trkpt lat="44.20139" lon="6.74735">
        <ele>1457.7</ele>
        <time>2022-06-12T06:57:13Z</time>
      </trkpt>
      <trkpt lat="44.20141" lon="6.74736">
        <ele>1458.1</ele>
        <time>2022-06-12T06:57:14Z</time>
      </trkpt>
      <trkpt lat="44.20143" lon="6.74736">
        <ele>1458.6</ele>
        <time>2022-06-12T06:57:15Z</time>
      </trkpt>
      <trkpt lat="44.20145" lon="6.74737">
        <ele>1458.9</ele>
        <time>2022-06-12T06:57:16Z</time>
      </trkpt>
      <trkpt lat="44.20147" lon="6.74737">
        <ele>1459.2</ele>
        <time>2022-06-12T06:57:17Z</time>
      </trkpt>
      <trkpt lat="44.20149" lon="6.74737">
        <ele>1459.5</ele>
        <time>2022-06-12T06:57:18Z</time>
      </trkpt>
      <trkpt lat="44.20151" lon="6.74737">
        <ele>1459.8</ele>
        <time>2022-06-12T06:57:19Z</time>
      </trkpt>
      <trkpt lat="44.20154" lon="6.74737">
        <ele>1459.9</ele>
        <time>2022-06-12T06:57:20Z</time>
      </trkpt>
      <trkpt lat="44.20156" lon="6.74736">
        <ele>1460.1</ele>
        <time>2022-06-12T06:57:21Z</time>
      </trkpt>
      <trkpt lat="44.20158" lon="6.74735">
        <ele>1460.2</ele>
        <time>2022-06-12T06:57:22Z</time>
      </trkpt>
      <trkpt lat="44.20161" lon="6.74734">
        <ele>1460.4</ele>
        <time>2022-06-12T06:57:23Z</time>
      </trkpt>
      <trkpt lat="44.20163" lon="6.74733">
        <ele>1460.6</ele>
        <time>2022-06-12T06:57:24Z</time>
      </trkpt>
      <trkpt lat="44.20166" lon="6.74733">
        <ele>1460.8</ele>
        <time>2022-06-12T06:57:25Z</time>
      </trkpt>
      <trkpt lat="44.20168" lon="6.74732">
        <ele>1460.9</ele>
        <time>2022-06-12T06:57:26Z</time>
      </trkpt>
      <trkpt lat="44.2017" lon="6.74731">
        <ele>1461.2</ele>
        <time>2022-06-12T06:57:27Z</time>
      </trkpt>
      <trkpt lat="44.20172" lon="6.7473">
        <ele>1461.4</ele>
        <time>2022-06-12T06:57:28Z</time>
      </trkpt>
      <trkpt lat="44.20174" lon="6.74728">
        <ele>1461.6</ele>
        <time>2022-06-12T06:57:29Z</time>
      </trkpt>
      <trkpt lat="44.20176" lon="6.74727">
        <ele>1461.9</ele>
        <time>2022-06-12T06:57:30Z</time>
      </trkpt>
      <trkpt lat="44.20179" lon="6.74726">
        <ele>1462.1</ele>
        <time>2022-06-12T06:57:31Z</time>
      </trkpt>
      <trkpt lat="44.20181" lon="6.74724">
        <ele>1462.3</ele>
        <time>2022-06-12T06:57:32Z</time>
      </trkpt>
      <trkpt lat="44.20183" lon="6.74722">
        <ele>1462.5</ele>
        <time>2022-06-12T06:57:33Z</time>
      </trkpt>
      <trkpt lat="44.20185" lon="6.74721">
        <ele>1462.6</ele>
        <time>2022-06-12T06:57:34Z</time>
      </trkpt>
      <trkpt lat="44.20187" lon="6.74719">
        <ele>1462.7</ele>
        <time>2022-06-12T06:57:35Z</time>
      </trkpt>
      <trkpt lat="44.20189" lon="6.74718">
        <ele>1462.9</ele>
        <time>2022-06-12T06:57:36Z</time>
      </trkpt>
      <trkpt lat="44.20191" lon="6.74716">
        <ele>1463</ele>
        <time>2022-06-12T06:57:37Z</time>
      </trkpt>
      <trkpt lat="44.20193" lon="6.74714">
        <ele>1463</ele>
        <time>2022-06-12T06:57:38Z</time>
      </trkpt>
      <trkpt lat="44.20194" lon="6.74711">
        <ele>1463</ele>
        <time>2022-06-12T06:57:39Z</time>
      </trkpt>
      <trkpt lat="44.20196" lon="6.74709">
        <ele>1462.9</ele>
        <time>2022-06-12T06:57:40Z</time>
      </trkpt>
      <trkpt lat="44.20198" lon="6.74707">
        <ele>1463</ele>
        <time>2022-06-12T06:57:41Z</time>
      </trkpt>
      <trkpt lat="44.20199" lon="6.74704">
        <ele>1462.9</ele>
        <time>2022-06-12T06:57:42Z</time>
      </trkpt>
      <trkpt lat="44.20201" lon="6.74702">
        <ele>1462.9</ele>
        <time>2022-06-12T06:57:43Z</time>
      </trkpt>
      <trkpt lat="44.20202" lon="6.747">
        <ele>1462.9</ele>
        <time>2022-06-12T06:57:44Z</time>
      </trkpt>
      <trkpt lat="44.20204" lon="6.74697">
        <ele>1462.8</ele>
        <time>2022-06-12T06:57:45Z</time>
      </trkpt>
      <trkpt lat="44.20205" lon="6.74694">
        <ele>1462.7</ele>
        <time>2022-06-12T06:57:46Z</time>
      </trkpt>
      <trkpt lat="44.20207" lon="6.74692">
        <ele>1462.5</ele>
        <time>2022-06-12T06:57:47Z</time>
      </trkpt>
      <trkpt lat="44.20208" lon="6.74689">
        <ele>1462.4</ele>
        <time>2022-06-12T06:57:48Z</time>
      </trkpt>
      <trkpt lat="44.2021" lon="6.74687">
        <ele>1462.3</ele>
        <time>2022-06-12T06:57:49Z</time>
      </trkpt>
      <trkpt lat="44.20211" lon="6.74684">
        <ele>1462.1</ele>
        <time>2022-06-12T06:57:50Z</time>
      </trkpt>
      <trkpt lat="44.20212" lon="6.74682">
        <ele>1462</ele>
        <time>2022-06-12T06:57:51Z</time>
      </trkpt>
      <trkpt lat="44.20213" lon="6.74679">
        <ele>1461.8</ele>
        <time>2022-06-12T06:57:52Z</time>
      </trkpt>
      <trkpt lat="44.20215" lon="6.74676">
        <ele>1461.6</ele>
        <time>2022-06-12T06:57:53Z</time>
      </trkpt>
      <trkpt lat="44.20216" lon="6.74674">
        <ele>1461.5</ele>
        <time>2022-06-12T06:57:54Z</time>
      </trkpt>
      <trkpt lat="44.20217" lon="6.74671">
        <ele>1461.4</ele>
        <time>2022-06-12T06:57:55Z</time>
      </trkpt>
      <trkpt lat="44.20219" lon="6.74669">
        <ele>1461.3</ele>
        <time>2022-06-12T06:57:56Z</time>
      </trkpt>
      <trkpt lat="44.2022" lon="6.74667">
        <ele>1461.4</ele>
        <time>2022-06-12T06:57:57Z</time>
      </trkpt>
      <trkpt lat="44.20222" lon="6.74665">
        <ele>1461.5</ele>
        <time>2022-06-12T06:57:58Z</time>
      </trkpt>
      <trkpt lat="44.20224" lon="6.74663">
        <ele>1461.4</ele>
        <time>2022-06-12T06:57:59Z</time>
      </trkpt>
      <trkpt lat="44.20226" lon="6.74661">
        <ele>1461.4</ele>
        <time>2022-06-12T06:58:00Z</time>
      </trkpt>
      <trkpt lat="44.20228" lon="6.7466">
        <ele>1461.4</ele>
        <time>2022-06-12T06:58:01Z</time>
      </trkpt>
      <trkpt lat="44.2023" lon="6.74658">
        <ele>1461.3</ele>
        <time>2022-06-12T06:58:02Z</time>
      </trkpt>
      <trkpt lat="44.20232" lon="6.74657">
        <ele>1461.4</ele>
        <time>2022-06-12T06:58:03Z</time>
      </trkpt>
      <trkpt lat="44.20234" lon="6.74656">
        <ele>1461.3</ele>
        <time>2022-06-12T06:58:04Z</time>
      </trkpt>
      <trkpt lat="44.20237" lon="6.74655">
        <ele>1461.4</ele>
        <time>2022-06-12T06:58:05Z</time>
      </trkpt>
      <trkpt lat="44.20239" lon="6.74654">
        <ele>1461.6</ele>
        <time>2022-06-12T06:58:06Z</time>
      </trkpt>
      <trkpt lat="44.20241" lon="6.74653">
        <ele>1461.8</ele>
        <time>2022-06-12T06:58:07Z</time>
      </trkpt>
      <trkpt lat="44.20243" lon="6.74653">
        <ele>1462</ele>
        <time>2022-06-12T06:58:08Z</time>
      </trkpt>
      <trkpt lat="44.20245" lon="6.74653">
        <ele>1462.4</ele>
        <time>2022-06-12T06:58:09Z</time>
      </trkpt>
      <trkpt lat="44.20247" lon="6.74654">
        <ele>1462.8</ele>
        <time>2022-06-12T06:58:10Z</time>
      </trkpt>
      <trkpt lat="44.2025" lon="6.74654">
        <ele>1463.3</ele>
        <time>2022-06-12T06:58:11Z</time>
      </trkpt>
      <trkpt lat="44.20252" lon="6.74655">
        <ele>1463.7</ele>
        <time>2022-06-12T06:58:12Z</time>
      </trkpt>
      <trkpt lat="44.20254" lon="6.74656">
        <ele>1464.1</ele>
        <time>2022-06-12T06:58:13Z</time>
      </trkpt>
      <trkpt lat="44.20256" lon="6.74657">
        <ele>1464.4</ele>
        <time>2022-06-12T06:58:14Z</time>
      </trkpt>
      <trkpt lat="44.20258" lon="6.74658">
        <ele>1464.7</ele>
        <time>2022-06-12T06:58:15Z</time>
      </trkpt>
      <trkpt lat="44.20261" lon="6.74658">
        <ele>1465.1</ele>
        <time>2022-06-12T06:58:16Z</time>
      </trkpt>
      <trkpt lat="44.20263" lon="6.74659">
        <ele>1465.4</ele>
        <time>2022-06-12T06:58:17Z</time>
      </trkpt>
      <trkpt lat="44.20265" lon="6.7466">
        <ele>1465.7</ele>
        <time>2022-06-12T06:58:18Z</time>
      </trkpt>
      <trkpt lat="44.20267" lon="6.7466">
        <ele>1466</ele>
        <time>2022-06-12T06:58:19Z</time>
      </trkpt>
      <trkpt lat="44.20269" lon="6.74661">
        <ele>1466.2</ele>
        <time>2022-06-12T06:58:20Z</time>
      </trkpt>
      <trkpt lat="44.20272" lon="6.74662">
        <ele>1466.6</ele>
        <time>2022-06-12T06:58:21Z</time>
      </trkpt>
      <trkpt lat="44.20274" lon="6.74662">
        <ele>1466.8</ele>
        <time>2022-06-12T06:58:22Z</time>
      </trkpt>
      <trkpt lat="44.20276" lon="6.74663">
        <ele>1467.2</ele>
        <time>2022-06-12T06:58:23Z</time>
      </trkpt>
      <trkpt lat="44.20278" lon="6.74664">
        <ele>1467.4</ele>
        <time>2022-06-12T06:58:24Z</time>
      </trkpt>
      <trkpt lat="44.2028" lon="6.74664">
        <ele>1467.7</ele>
        <time>2022-06-12T06:58:25Z</time>
      </trkpt>
      <trkpt lat="44.20282" lon="6.74665">
        <ele>1468</ele>
        <time>2022-06-12T06:58:26Z</time>
      </trkpt>
      <trkpt lat="44.20285" lon="6.74665">
        <ele>1468.2</ele>
        <time>2022-06-12T06:58:27Z</time>
      </trkpt>
      <trkpt lat="44.20287" lon="6.74666">
        <ele>1468.5</ele>
        <time>2022-06-12T06:58:28Z</time>
      </trkpt>
      <trkpt lat="44.20289" lon="6.74666">
        <ele>1468.7</ele>
        <time>2022-06-12T06:58:29Z</time>
      </trkpt>
      <trkpt lat="44.20291" lon="6.74667">
        <ele>1468.9</ele>
        <time>2022-06-12T06:58:30Z</time>
      </trkpt>
      <trkpt lat="44.20293" lon="6.74667">
        <ele>1469.2</ele>
        <time>2022-06-12T06:58:31Z</time>
      </trkpt>
      <trkpt lat="44.20296" lon="6.74668">
        <ele>1469.5</ele>
        <time>2022-06-12T06:58:32Z</time>
      </trkpt>
      <trkpt lat="44.20298" lon="6.74668">
        <ele>1469.8</ele>
        <time>2022-06-12T06:58:33Z</time>
      </trkpt>
      <trkpt lat="44.203" lon="6.74669">
        <ele>1470.1</ele>
        <time>2022-06-12T06:58:34Z</time>
      </trkpt>
      <trkpt lat="44.20302" lon="6.7467">
        <ele>1470.4</ele>
        <time>2022-06-12T06:58:35Z</time>
      </trkpt>
      <trkpt lat="44.20305" lon="6.7467">
        <ele>1470.6</ele>
        <time>2022-06-12T06:58:36Z</time>
      </trkpt>
      <trkpt lat="44.20307" lon="6.74671">
        <ele>1471</ele>
        <time>2022-06-12T06:58:37Z</time>
      </trkpt>
      <trkpt lat="44.20309" lon="6.74671">
        <ele>1471.3</ele>
        <time>2022-06-12T06:58:38Z</time>
      </trkpt>
      <trkpt lat="44.20311" lon="6.74672">
        <ele>1471.7</ele>
        <time>2022-06-12T06:58:39Z</time>
      </trkpt>
      <trkpt lat="44.20314" lon="6.74672">
        <ele>1472</ele>
        <time>2022-06-12T06:58:40Z</time>
      </trkpt>
      <trkpt lat="44.20316" lon="6.74673">
        <ele>1472.4</ele>
        <time>2022-06-12T06:58:41Z</time>
      </trkpt>
      <trkpt lat="44.20318" lon="6.74673">
        <ele>1472.8</ele>
        <time>2022-06-12T06:58:42Z</time>
      </trkpt>
      <trkpt lat="44.2032" lon="6.74674">
        <ele>1473.2</ele>
        <time>2022-06-12T06:58:43Z</time>
      </trkpt>
      <trkpt lat="44.20323" lon="6.74675">
        <ele>1473.7</ele>
        <time>2022-06-12T06:58:44Z</time>
      </trkpt>
      <trkpt lat="44.20325" lon="6.74676">
        <ele>1474</ele>
        <time>2022-06-12T06:58:45Z</time>
      </trkpt>
      <trkpt lat="44.20327" lon="6.74676">
        <ele>1474.4</ele>
        <time>2022-06-12T06:58:46Z</time>
      </trkpt>
      <trkpt lat="44.20329" lon="6.74677">
        <ele>1474.7</ele>
        <time>2022-06-12T06:58:47Z</time>
      </trkpt>
      <trkpt lat="44.20331" lon="6.74678">
        <ele>1475.1</ele>
        <time>2022-06-12T06:58:48Z</time>
      </trkpt>
      <trkpt lat="44.20333" lon="6.74678">
        <ele>1475.4</ele>
        <time>2022-06-12T06:58:49Z</time>
      </trkpt>
      <trkpt lat="44.20335" lon="6.74679">
        <ele>1476</ele>
        <time>2022-06-12T06:58:50Z</time>
      </trkpt>
      <trkpt lat="44.20337" lon="6.74679">
        <ele>1476.6</ele>
        <time>2022-06-12T06:58:51Z</time>
      </trkpt>
      <trkpt lat="44.20339" lon="6.7468">
        <ele>1477.2</ele>
        <time>2022-06-12T06:58:52Z</time>
      </trkpt>
      <trkpt lat="44.20341" lon="6.74681">
        <ele>1477.9</ele>
        <time>2022-06-12T06:58:53Z</time>
      </trkpt>
      <trkpt lat="44.20344" lon="6.74681">
        <ele>1478.4</ele>
        <time>2022-06-12T06:58:54Z</time>
      </trkpt>
      <trkpt lat="44.20346" lon="6.74681">
        <ele>1478.9</ele>
        <time>2022-06-12T06:58:55Z</time>
      </trkpt>
      <trkpt lat="44.20348" lon="6.7468">
        <ele>1479.4</ele>
        <time>2022-06-12T06:58:56Z</time>
      </trkpt>
      <trkpt lat="44.20351" lon="6.7468">
        <ele>1479.9</ele>
        <time>2022-06-12T06:58:57Z</time>
      </trkpt>
      <trkpt lat="44.20353" lon="6.7468">
        <ele>1480.4</ele>
        <time>2022-06-12T06:58:58Z</time>
      </trkpt>
      <trkpt lat="44.20355" lon="6.74679">
        <ele>1480.8</ele>
        <time>2022-06-12T06:58:59Z</time>
      </trkpt>
      <trkpt lat="44.20357" lon="6.74679">
        <ele>1481.2</ele>
        <time>2022-06-12T06:59:00Z</time>
      </trkpt>
      <trkpt lat="44.2036" lon="6.74678">
        <ele>1481.6</ele>
        <time>2022-06-12T06:59:01Z</time>
      </trkpt>
      <trkpt lat="44.20362" lon="6.74677">
        <ele>1482.3</ele>
        <time>2022-06-12T06:59:02Z</time>
      </trkpt>
      <trkpt lat="44.20364" lon="6.74677">
        <ele>1483.3</ele>
        <time>2022-06-12T06:59:03Z</time>
      </trkpt>
      <trkpt lat="44.20367" lon="6.74675">
        <ele>1484.1</ele>
        <time>2022-06-12T06:59:04Z</time>
      </trkpt>
      <trkpt lat="44.20369" lon="6.74674">
        <ele>1484.9</ele>
        <time>2022-06-12T06:59:05Z</time>
      </trkpt>
      <trkpt lat="44.20371" lon="6.74672">
        <ele>1485.5</ele>
        <time>2022-06-12T06:59:06Z</time>
      </trkpt>
      <trkpt lat="44.20372" lon="6.7467">
        <ele>1486</ele>
        <time>2022-06-12T06:59:07Z</time>
      </trkpt>
      <trkpt lat="44.20374" lon="6.74667">
        <ele>1486.6</ele>
        <time>2022-06-12T06:59:08Z</time>
      </trkpt>
      <trkpt lat="44.20376" lon="6.74665">
        <ele>1487</ele>
        <time>2022-06-12T06:59:09Z</time>
      </trkpt>
      <trkpt lat="44.20377" lon="6.74663">
        <ele>1487.5</ele>
        <time>2022-06-12T06:59:10Z</time>
      </trkpt>
      <trkpt lat="44.20379" lon="6.74661">
        <ele>1487.8</ele>
        <time>2022-06-12T06:59:11Z</time>
      </trkpt>
      <trkpt lat="44.2038" lon="6.74658">
        <ele>1488.1</ele>
        <time>2022-06-12T06:59:12Z</time>
      </trkpt>
      <trkpt lat="44.20382" lon="6.74656">
        <ele>1488.3</ele>
        <time>2022-06-12T06:59:13Z</time>
      </trkpt>
      <trkpt lat="44.20383" lon="6.74654">
        <ele>1488.6</ele>
        <time>2022-06-12T06:59:14Z</time>
      </trkpt>
      <trkpt lat="44.20385" lon="6.74651">
        <ele>1488.9</ele>
        <time>2022-06-12T06:59:15Z</time>
      </trkpt>
      <trkpt lat="44.20386" lon="6.74649">
        <ele>1489.3</ele>
        <time>2022-06-12T06:59:16Z</time>
      </trkpt>
      <trkpt lat="44.20388" lon="6.74647">
        <ele>1489.6</ele>
        <time>2022-06-12T06:59:17Z</time>
      </trkpt>
      <trkpt lat="44.20389" lon="6.74644">
        <ele>1489.8</ele>
        <time>2022-06-12T06:59:18Z</time>
      </trkpt>
      <trkpt lat="44.2039" lon="6.74641">
        <ele>1490.2</ele>
        <time>2022-06-12T06:59:19Z</time>
      </trkpt>
      <trkpt lat="44.20392" lon="6.74639">
        <ele>1490.4</ele>
        <time>2022-06-12T06:59:20Z</time>
      </trkpt>
      <trkpt lat="44.20393" lon="6.74636">
        <ele>1490.7</ele>
        <time>2022-06-12T06:59:21Z</time>
      </trkpt>
      <trkpt lat="44.20394" lon="6.74633">
        <ele>1490.9</ele>
        <time>2022-06-12T06:59:22Z</time>
      </trkpt>
      <trkpt lat="44.20395" lon="6.7463">
        <ele>1491</ele>
        <time>2022-06-12T06:59:23Z</time>
      </trkpt>
      <trkpt lat="44.20395" lon="6.74627">
        <ele>1491</ele>
        <time>2022-06-12T06:59:24Z</time>
      </trkpt>
      <trkpt lat="44.20396" lon="6.74624">
        <ele>1491.1</ele>
        <time>2022-06-12T06:59:25Z</time>
      </trkpt>
      <trkpt lat="44.20397" lon="6.74621">
        <ele>1491.3</ele>
        <time>2022-06-12T06:59:26Z</time>
      </trkpt>
      <trkpt lat="44.20398" lon="6.74619">
        <ele>1491.3</ele>
        <time>2022-06-12T06:59:27Z</time>
      </trkpt>
      <trkpt lat="44.20398" lon="6.74615">
        <ele>1491.2</ele>
        <time>2022-06-12T06:59:28Z</time>
      </trkpt>
      <trkpt lat="44.20399" lon="6.74612">
        <ele>1491.1</ele>
        <time>2022-06-12T06:59:29Z</time>
      </trkpt>
      <trkpt lat="44.20399" lon="6.74609">
        <ele>1491</ele>
        <time>2022-06-12T06:59:30Z</time>
      </trkpt>
      <trkpt lat="44.204" lon="6.74606">
        <ele>1490.9</ele>
        <time>2022-06-12T06:59:31Z</time>
      </trkpt>
      <trkpt lat="44.20401" lon="6.74603">
        <ele>1490.8</ele>
        <time>2022-06-12T06:59:32Z</time>
      </trkpt>
      <trkpt lat="44.20402" lon="6.746">
        <ele>1490.6</ele>
        <time>2022-06-12T06:59:33Z</time>
      </trkpt>
      <trkpt lat="44.20402" lon="6.74597">
        <ele>1490.4</ele>
        <time>2022-06-12T06:59:34Z</time>
      </trkpt>
      <trkpt lat="44.20403" lon="6.74594">
        <ele>1490.2</ele>
        <time>2022-06-12T06:59:35Z</time>
      </trkpt>
      <trkpt lat="44.20403" lon="6.74591">
        <ele>1489.9</ele>
        <time>2022-06-12T06:59:36Z</time>
      </trkpt>
      <trkpt lat="44.20404" lon="6.74588">
        <ele>1489.7</ele>
        <time>2022-06-12T06:59:37Z</time>
      </trkpt>
      <trkpt lat="44.20406" lon="6.74585">
        <ele>1489.7</ele>
        <time>2022-06-12T06:59:38Z</time>
      </trkpt>
      <trkpt lat="44.20407" lon="6.74583">
        <ele>1489.4</ele>
        <time>2022-06-12T06:59:39Z</time>
      </trkpt>
      <trkpt lat="44.20408" lon="6.74581">
        <ele>1489.1</ele>
        <time>2022-06-12T06:59:40Z</time>
      </trkpt>
      <trkpt lat="44.2041" lon="6.74579">
        <ele>1488.8</ele>
        <time>2022-06-12T06:59:41Z</time>
      </trkpt>
      <trkpt lat="44.20412" lon="6.74577">
        <ele>1488.4</ele>
        <time>2022-06-12T06:59:42Z</time>
      </trkpt>
      <trkpt lat="44.20414" lon="6.74575">
        <ele>1488.3</ele>
        <time>2022-06-12T06:59:43Z</time>
      </trkpt>
      <trkpt lat="44.20416" lon="6.74574">
        <ele>1488.3</ele>
        <time>2022-06-12T06:59:44Z</time>
      </trkpt>
      <trkpt lat="44.20418" lon="6.74573">
        <ele>1488</ele>
        <time>2022-06-12T06:59:45Z</time>
      </trkpt>
      <trkpt lat="44.2042" lon="6.74573">
        <ele>1487.4</ele>
        <time>2022-06-12T06:59:46Z</time>
      </trkpt>
      <trkpt lat="44.20423" lon="6.74573">
        <ele>1487.1</ele>
        <time>2022-06-12T06:59:47Z</time>
      </trkpt>
      <trkpt lat="44.20425" lon="6.74573">
        <ele>1486.8</ele>
        <time>2022-06-12T06:59:48Z</time>
      </trkpt>
      <trkpt lat="44.20427" lon="6.74574">
        <ele>1486.5</ele>
        <time>2022-06-12T06:59:49Z</time>
      </trkpt>
      <trkpt lat="44.20429" lon="6.74575">
        <ele>1486.5</ele>
        <time>2022-06-12T06:59:50Z</time>
      </trkpt>
      <trkpt lat="44.20431" lon="6.74576">
        <ele>1486.5</ele>
        <time>2022-06-12T06:59:51Z</time>
      </trkpt>
      <trkpt lat="44.20433" lon="6.74577">
        <ele>1486.7</ele>
        <time>2022-06-12T06:59:52Z</time>
      </trkpt>
      <trkpt lat="44.20435" lon="6.74579">
        <ele>1487</ele>
        <time>2022-06-12T06:59:53Z</time>
      </trkpt>
      <trkpt lat="44.20437" lon="6.74581">
        <ele>1487.5</ele>
        <time>2022-06-12T06:59:54Z</time>
      </trkpt>
      <trkpt lat="44.20439" lon="6.74582">
        <ele>1487.8</ele>
        <time>2022-06-12T06:59:55Z</time>
      </trkpt>
      <trkpt lat="44.2044" lon="6.74584">
        <ele>1488</ele>
        <time>2022-06-12T06:59:56Z</time>
      </trkpt>
      <trkpt lat="44.20442" lon="6.74586">
        <ele>1488.2</ele>
        <time>2022-06-12T06:59:57Z</time>
      </trkpt>
      <trkpt lat="44.20444" lon="6.74588">
        <ele>1488.5</ele>
        <time>2022-06-12T06:59:58Z</time>
      </trkpt>
      <trkpt lat="44.20445" lon="6.7459">
        <ele>1488.9</ele>
        <time>2022-06-12T06:59:59Z</time>
      </trkpt>
      <trkpt lat="44.20446" lon="6.74592">
        <ele>1489.3</ele>
        <time>2022-06-12T07:00:00Z</time>
      </trkpt>
      <trkpt lat="44.20448" lon="6.74594">
        <ele>1489.9</ele>
        <time>2022-06-12T07:00:01Z</time>
      </trkpt>
      <trkpt lat="44.20449" lon="6.74597">
        <ele>1490.5</ele>
        <time>2022-06-12T07:00:02Z</time>
      </trkpt>
      <trkpt lat="44.2045" lon="6.74599">
        <ele>1491.1</ele>
        <time>2022-06-12T07:00:03Z</time>
      </trkpt>
      <trkpt lat="44.20452" lon="6.74602">
        <ele>1491.6</ele>
        <time>2022-06-12T07:00:04Z</time>
      </trkpt>
      <trkpt lat="44.20453" lon="6.74604">
        <ele>1492.1</ele>
        <time>2022-06-12T07:00:05Z</time>
      </trkpt>
      <trkpt lat="44.20455" lon="6.74606">
        <ele>1492.6</ele>
        <time>2022-06-12T07:00:06Z</time>
      </trkpt>
      <trkpt lat="44.20457" lon="6.74608">
        <ele>1493.1</ele>
        <time>2022-06-12T07:00:07Z</time>
      </trkpt>
      <trkpt lat="44.20458" lon="6.7461">
        <ele>1493.6</ele>
        <time>2022-06-12T07:00:08Z</time>
      </trkpt>
      <trkpt lat="44.2046" lon="6.74612">
        <ele>1494.1</ele>
        <time>2022-06-12T07:00:09Z</time>
      </trkpt>
      <trkpt lat="44.20461" lon="6.74614">
        <ele>1494.6</ele>
        <time>2022-06-12T07:00:10Z</time>
      </trkpt>
      <trkpt lat="44.20463" lon="6.74616">
        <ele>1495.2</ele>
        <time>2022-06-12T07:00:11Z</time>
      </trkpt>
      <trkpt lat="44.20465" lon="6.74618">
        <ele>1495.6</ele>
        <time>2022-06-12T07:00:12Z</time>
      </trkpt>
      <trkpt lat="44.20467" lon="6.74619">
        <ele>1495.9</ele>
        <time>2022-06-12T07:00:13Z</time>
      </trkpt>
      <trkpt lat="44.20469" lon="6.74621">
        <ele>1496.2</ele>
        <time>2022-06-12T07:00:14Z</time>
      </trkpt>
      <trkpt lat="44.20471" lon="6.74621">
        <ele>1496.3</ele>
        <time>2022-06-12T07:00:15Z</time>
      </trkpt>
      <trkpt lat="44.20474" lon="6.74622">
        <ele>1496.7</ele>
        <time>2022-06-12T07:00:16Z</time>
      </trkpt>
      <trkpt lat="44.20476" lon="6.74622">
        <ele>1497.4</ele>
        <time>2022-06-12T07:00:17Z</time>
      </trkpt>
      <trkpt lat="44.20479" lon="6.74623">
        <ele>1498</ele>
        <time>2022-06-12T07:00:18Z</time>
      </trkpt>
      <trkpt lat="44.20481" lon="6.74623">
        <ele>1498.5</ele>
        <time>2022-06-12T07:00:19Z</time>
      </trkpt>
      <trkpt lat="44.20484" lon="6.74623">
        <ele>1498.9</ele>
        <time>2022-06-12T07:00:20Z</time>
      </trkpt>
      <trkpt lat="44.20486" lon="6.74623">
        <ele>1499.3</ele>
        <time>2022-06-12T07:00:21Z</time>
      </trkpt>
      <trkpt lat="44.20488" lon="6.74623">
        <ele>1499.8</ele>
        <time>2022-06-12T07:00:22Z</time>
      </trkpt>
      <trkpt lat="44.20491" lon="6.74622">
        <ele>1500.2</ele>
        <time>2022-06-12T07:00:23Z</time>
      </trkpt>
      <trkpt lat="44.20494" lon="6.74622">
        <ele>1500.6</ele>
        <time>2022-06-12T07:00:24Z</time>
      </trkpt>
      <trkpt lat="44.20496" lon="6.74621">
        <ele>1500.8</ele>
        <time>2022-06-12T07:00:25Z</time>
      </trkpt>
      <trkpt lat="44.20498" lon="6.7462">
        <ele>1501</ele>
        <time>2022-06-12T07:00:26Z</time>
      </trkpt>
      <trkpt lat="44.20501" lon="6.7462">
        <ele>1501.3</ele>
        <time>2022-06-12T07:00:27Z</time>
      </trkpt>
      <trkpt lat="44.20504" lon="6.74619">
        <ele>1501.7</ele>
        <time>2022-06-12T07:00:28Z</time>
      </trkpt>
      <trkpt lat="44.20506" lon="6.74619">
        <ele>1502</ele>
        <time>2022-06-12T07:00:29Z</time>
      </trkpt>
      <trkpt lat="44.20508" lon="6.74618">
        <ele>1502.2</ele>
        <time>2022-06-12T07:00:30Z</time>
      </trkpt>
      <trkpt lat="44.20511" lon="6.74617">
        <ele>1502.5</ele>
        <time>2022-06-12T07:00:31Z</time>
      </trkpt>
      <trkpt lat="44.20513" lon="6.74616">
        <ele>1502.8</ele>
        <time>2022-06-12T07:00:32Z</time>
      </trkpt>
      <trkpt lat="44.20516" lon="6.74616">
        <ele>1503</ele>
        <time>2022-06-12T07:00:33Z</time>
      </trkpt>
      <trkpt lat="44.20518" lon="6.74614">
        <ele>1503</ele>
        <time>2022-06-12T07:00:34Z</time>
      </trkpt>
      <trkpt lat="44.20521" lon="6.74613">
        <ele>1503.1</ele>
        <time>2022-06-12T07:00:35Z</time>
      </trkpt>
      <trkpt lat="44.20523" lon="6.74611">
        <ele>1503</ele>
        <time>2022-06-12T07:00:36Z</time>
      </trkpt>
      <trkpt lat="44.20525" lon="6.7461">
        <ele>1503.1</ele>
        <time>2022-06-12T07:00:37Z</time>
      </trkpt>
      <trkpt lat="44.20528" lon="6.74609">
        <ele>1503.2</ele>
        <time>2022-06-12T07:00:38Z</time>
      </trkpt>
      <trkpt lat="44.2053" lon="6.74609">
        <ele>1503.4</ele>
        <time>2022-06-12T07:00:39Z</time>
      </trkpt>
      <trkpt lat="44.20532" lon="6.74608">
        <ele>1503.6</ele>
        <time>2022-06-12T07:00:40Z</time>
      </trkpt>
      <trkpt lat="44.20535" lon="6.74608">
        <ele>1503.9</ele>
        <time>2022-06-12T07:00:41Z</time>
      </trkpt>
      <trkpt lat="44.20537" lon="6.74607">
        <ele>1504</ele>
        <time>2022-06-12T07:00:42Z</time>
      </trkpt>
      <trkpt lat="44.20539" lon="6.74606">
        <ele>1504</ele>
        <time>2022-06-12T07:00:43Z</time>
      </trkpt>
      <trkpt lat="44.20541" lon="6.74604">
        <ele>1503.9</ele>
        <time>2022-06-12T07:00:44Z</time>
      </trkpt>
      <trkpt lat="44.20544" lon="6.74603">
        <ele>1503.8</ele>
        <time>2022-06-12T07:00:45Z</time>
      </trkpt>
      <trkpt lat="44.20546" lon="6.74602">
        <ele>1503.6</ele>
        <time>2022-06-12T07:00:46Z</time>
      </trkpt>
      <trkpt lat="44.20548" lon="6.74601">
        <ele>1503.5</ele>
        <time>2022-06-12T07:00:47Z</time>
      </trkpt>
      <trkpt lat="44.2055" lon="6.746">
        <ele>1503.4</ele>
        <time>2022-06-12T07:00:48Z</time>
      </trkpt>
      <trkpt lat="44.20552" lon="6.74599">
        <ele>1503.4</ele>
        <time>2022-06-12T07:00:49Z</time>
      </trkpt>
      <trkpt lat="44.20554" lon="6.74598">
        <ele>1503.5</ele>
        <time>2022-06-12T07:00:50Z</time>
      </trkpt>
      <trkpt lat="44.20557" lon="6.74597">
        <ele>1503.5</ele>
        <time>2022-06-12T07:00:51Z</time>
      </trkpt>
      <trkpt lat="44.20559" lon="6.74596">
        <ele>1503.5</ele>
        <time>2022-06-12T07:00:52Z</time>
      </trkpt>
      <trkpt lat="44.20561" lon="6.74595">
        <ele>1503.5</ele>
        <time>2022-06-12T07:00:53Z</time>
      </trkpt>
      <trkpt lat="44.20564" lon="6.74594">
        <ele>1503.4</ele>
        <time>2022-06-12T07:00:54Z</time>
      </trkpt>
      <trkpt lat="44.20566" lon="6.74593">
        <ele>1503.1</ele>
        <time>2022-06-12T07:00:55Z</time>
      </trkpt>
      <trkpt lat="44.20568" lon="6.74591">
        <ele>1502.8</ele>
        <time>2022-06-12T07:00:56Z</time>
      </trkpt>
      <trkpt lat="44.2057" lon="6.7459">
        <ele>1502.6</ele>
        <time>2022-06-12T07:00:57Z</time>
      </trkpt>
      <trkpt lat="44.20572" lon="6.74589">
        <ele>1502.5</ele>
        <time>2022-06-12T07:00:58Z</time>
      </trkpt>
      <trkpt lat="44.20574" lon="6.74588">
        <ele>1502.4</ele>
        <time>2022-06-12T07:00:59Z</time>
      </trkpt>
      <trkpt lat="44.20577" lon="6.74587">
        <ele>1502.4</ele>
        <time>2022-06-12T07:01:00Z</time>
      </trkpt>
      <trkpt lat="44.20579" lon="6.74586">
        <ele>1502.5</ele>
        <time>2022-06-12T07:01:01Z</time>
      </trkpt>
      <trkpt lat="44.20581" lon="6.74585">
        <ele>1502.3</ele>
        <time>2022-06-12T07:01:02Z</time>
      </trkpt>
      <trkpt lat="44.20583" lon="6.74584">
        <ele>1502.2</ele>
        <time>2022-06-12T07:01:03Z</time>
      </trkpt>
      <trkpt lat="44.20585" lon="6.74583">
        <ele>1502.1</ele>
        <time>2022-06-12T07:01:04Z</time>
      </trkpt>
      <trkpt lat="44.20588" lon="6.74582">
        <ele>1502.2</ele>
        <time>2022-06-12T07:01:05Z</time>
      </trkpt>
      <trkpt lat="44.2059" lon="6.74582">
        <ele>1502.2</ele>
        <time>2022-06-12T07:01:06Z</time>
      </trkpt>
      <trkpt lat="44.20592" lon="6.74581">
        <ele>1502.1</ele>
        <time>2022-06-12T07:01:07Z</time>
      </trkpt>
      <trkpt lat="44.20594" lon="6.7458">
        <ele>1501.9</ele>
        <time>2022-06-12T07:01:08Z</time>
      </trkpt>
      <trkpt lat="44.20597" lon="6.74579">
        <ele>1501.9</ele>
        <time>2022-06-12T07:01:09Z</time>
      </trkpt>
      <trkpt lat="44.20599" lon="6.74577">
        <ele>1501.7</ele>
        <time>2022-06-12T07:01:10Z</time>
      </trkpt>
      <trkpt lat="44.20601" lon="6.74576">
        <ele>1501.6</ele>
        <time>2022-06-12T07:01:11Z</time>
      </trkpt>
      <trkpt lat="44.20603" lon="6.74575">
        <ele>1501.5</ele>
        <time>2022-06-12T07:01:12Z</time>
      </trkpt>
      <trkpt lat="44.20605" lon="6.74574">
        <ele>1501.4</ele>
        <time>2022-06-12T07:01:13Z</time>
      </trkpt>
      <trkpt lat="44.20608" lon="6.74573">
        <ele>1501.3</ele>
        <time>2022-06-12T07:01:14Z</time>
      </trkpt>
      <trkpt lat="44.2061" lon="6.74572">
        <ele>1501.3</ele>
        <time>2022-06-12T07:01:15Z</time>
      </trkpt>
      <trkpt lat="44.20612" lon="6.74571">
        <ele>1501.2</ele>
        <time>2022-06-12T07:01:16Z</time>
      </trkpt>
      <trkpt lat="44.20614" lon="6.74571">
        <ele>1501.1</ele>
        <time>2022-06-12T07:01:17Z</time>
      </trkpt>
      <trkpt lat="44.20616" lon="6.7457">
        <ele>1501</ele>
        <time>2022-06-12T07:01:18Z</time>
      </trkpt>
      <trkpt lat="44.20618" lon="6.7457">
        <ele>1501.1</ele>
        <time>2022-06-12T07:01:19Z</time>
      </trkpt>
      <trkpt lat="44.20621" lon="6.74569">
        <ele>1501</ele>
        <time>2022-06-12T07:01:20Z</time>
      </trkpt>
      <trkpt lat="44.20623" lon="6.74568">
        <ele>1500.9</ele>
        <time>2022-06-12T07:01:21Z</time>
      </trkpt>
      <trkpt lat="44.20625" lon="6.74568">
        <ele>1500.9</ele>
        <time>2022-06-12T07:01:22Z</time>
      </trkpt>
      <trkpt lat="44.20628" lon="6.74567">
        <ele>1500.8</ele>
        <time>2022-06-12T07:01:23Z</time>
      </trkpt>
      <trkpt lat="44.2063" lon="6.74567">
        <ele>1500.9</ele>
        <time>2022-06-12T07:01:24Z</time>
      </trkpt>
      <trkpt lat="44.20632" lon="6.74567">
        <ele>1501.1</ele>
        <time>2022-06-12T07:01:25Z</time>
      </trkpt>
      <trkpt lat="44.20634" lon="6.74567">
        <ele>1501.3</ele>
        <time>2022-06-12T07:01:26Z</time>
      </trkpt>
      <trkpt lat="44.20636" lon="6.74568">
        <ele>1501.6</ele>
        <time>2022-06-12T07:01:27Z</time>
      </trkpt>
      <trkpt lat="44.20638" lon="6.74568">
        <ele>1501.8</ele>
        <time>2022-06-12T07:01:28Z</time>
      </trkpt>
      <trkpt lat="44.20641" lon="6.74568">
        <ele>1502</ele>
        <time>2022-06-12T07:01:29Z</time>
      </trkpt>
      <trkpt lat="44.20643" lon="6.74569">
        <ele>1502.2</ele>
        <time>2022-06-12T07:01:30Z</time>
      </trkpt>
      <trkpt lat="44.20645" lon="6.74569">
        <ele>1502.3</ele>
        <time>2022-06-12T07:01:31Z</time>
      </trkpt>
      <trkpt lat="44.20647" lon="6.74569">
        <ele>1502.3</ele>
        <time>2022-06-12T07:01:32Z</time>
      </trkpt>
      <trkpt lat="44.20649" lon="6.74569">
        <ele>1502.4</ele>
        <time>2022-06-12T07:01:33Z</time>
      </trkpt>
      <trkpt lat="44.20651" lon="6.74569">
        <ele>1502.4</ele>
        <time>2022-06-12T07:01:34Z</time>
      </trkpt>
      <trkpt lat="44.20653" lon="6.74569">
        <ele>1502.4</ele>
        <time>2022-06-12T07:01:35Z</time>
      </trkpt>
      <trkpt lat="44.20656" lon="6.74569">
        <ele>1502.4</ele>
        <time>2022-06-12T07:01:36Z</time>
      </trkpt>
      <trkpt lat="44.20658" lon="6.7457">
        <ele>1502.6</ele>
        <time>2022-06-12T07:01:37Z</time>
      </trkpt>
      <trkpt lat="44.2066" lon="6.7457">
        <ele>1502.6</ele>
        <time>2022-06-12T07:01:38Z</time>
      </trkpt>
      <trkpt lat="44.20662" lon="6.7457">
        <ele>1502.8</ele>
        <time>2022-06-12T07:01:39Z</time>
      </trkpt>
      <trkpt lat="44.20665" lon="6.74571">
        <ele>1502.9</ele>
        <time>2022-06-12T07:01:40Z</time>
      </trkpt>
      <trkpt lat="44.20667" lon="6.74571">
        <ele>1503</ele>
        <time>2022-06-12T07:01:41Z</time>
      </trkpt>
      <trkpt lat="44.2067" lon="6.74571">
        <ele>1502.9</ele>
        <time>2022-06-12T07:01:42Z</time>
      </trkpt>
      <trkpt lat="44.20672" lon="6.74571">
        <ele>1502.8</ele>
        <time>2022-06-12T07:01:43Z</time>
      </trkpt>
      <trkpt lat="44.20674" lon="6.74571">
        <ele>1502.7</ele>
        <time>2022-06-12T07:01:44Z</time>
      </trkpt>
      <trkpt lat="44.20676" lon="6.74571">
        <ele>1502.5</ele>
        <time>2022-06-12T07:01:45Z</time>
      </trkpt>
      <trkpt lat="44.20679" lon="6.74571">
        <ele>1502.3</ele>
        <time>2022-06-12T07:01:46Z</time>
      </trkpt>
      <trkpt lat="44.20681" lon="6.74572">
        <ele>1502.3</ele>
        <time>2022-06-12T07:01:47Z</time>
      </trkpt>
      <trkpt lat="44.20683" lon="6.74572">
        <ele>1502.3</ele>
        <time>2022-06-12T07:01:48Z</time>
      </trkpt>
      <trkpt lat="44.20686" lon="6.74572">
        <ele>1502.3</ele>
        <time>2022-06-12T07:01:49Z</time>
      </trkpt>
      <trkpt lat="44.20688" lon="6.74573">
        <ele>1502.4</ele>
        <time>2022-06-12T07:01:50Z</time>
      </trkpt>
      <trkpt lat="44.2069" lon="6.74574">
        <ele>1502.5</ele>
        <time>2022-06-12T07:01:51Z</time>
      </trkpt>
      <trkpt lat="44.20693" lon="6.74575">
        <ele>1502.9</ele>
        <time>2022-06-12T07:01:52Z</time>
      </trkpt>
      <trkpt lat="44.20695" lon="6.74577">
        <ele>1503.3</ele>
        <time>2022-06-12T07:01:53Z</time>
      </trkpt>
      <trkpt lat="44.20697" lon="6.74578">
        <ele>1504</ele>
        <time>2022-06-12T07:01:54Z</time>
      </trkpt>
      <trkpt lat="44.20699" lon="6.7458">
        <ele>1504.7</ele>
        <time>2022-06-12T07:01:55Z</time>
      </trkpt>
      <trkpt lat="44.207" lon="6.74582">
        <ele>1505.5</ele>
        <time>2022-06-12T07:01:56Z</time>
      </trkpt>
      <trkpt lat="44.20702" lon="6.74584">
        <ele>1506.3</ele>
        <time>2022-06-12T07:01:57Z</time>
      </trkpt>
      <trkpt lat="44.20704" lon="6.74585">
        <ele>1507.1</ele>
        <time>2022-06-12T07:01:58Z</time>
      </trkpt>
      <trkpt lat="44.20706" lon="6.74587">
        <ele>1507.8</ele>
        <time>2022-06-12T07:01:59Z</time>
      </trkpt>
      <trkpt lat="44.20707" lon="6.74589">
        <ele>1508.6</ele>
        <time>2022-06-12T07:02:00Z</time>
      </trkpt>
      <trkpt lat="44.20708" lon="6.74591">
        <ele>1509.4</ele>
        <time>2022-06-12T07:02:01Z</time>
      </trkpt>
      <trkpt lat="44.2071" lon="6.74593">
        <ele>1510.3</ele>
        <time>2022-06-12T07:02:02Z</time>
      </trkpt>
      <trkpt lat="44.20711" lon="6.74596">
        <ele>1511.3</ele>
        <time>2022-06-12T07:02:03Z</time>
      </trkpt>
      <trkpt lat="44.20712" lon="6.74599">
        <ele>1512.3</ele>
        <time>2022-06-12T07:02:04Z</time>
      </trkpt>
      <trkpt lat="44.20714" lon="6.74601">
        <ele>1513.2</ele>
        <time>2022-06-12T07:02:05Z</time>
      </trkpt>
      <trkpt lat="44.20715" lon="6.74604">
        <ele>1514.2</ele>
        <time>2022-06-12T07:02:06Z</time>
      </trkpt>
      <trkpt lat="44.20716" lon="6.74606">
        <ele>1515.1</ele>
        <time>2022-06-12T07:02:07Z</time>
      </trkpt>
      <trkpt lat="44.20718" lon="6.74608">
        <ele>1515.9</ele>
        <time>2022-06-12T07:02:08Z</time>
      </trkpt>
      <trkpt lat="44.2072" lon="6.7461">
        <ele>1516.5</ele>
        <time>2022-06-12T07:02:09Z</time>
      </trkpt>
      <trkpt lat="44.20721" lon="6.74612">
        <ele>1517.2</ele>
        <time>2022-06-12T07:02:10Z</time>
      </trkpt>
      <trkpt lat="44.20723" lon="6.74613">
        <ele>1517.9</ele>
        <time>2022-06-12T07:02:11Z</time>
      </trkpt>
      <trkpt lat="44.20725" lon="6.74615">
        <ele>1518.7</ele>
        <time>2022-06-12T07:02:12Z</time>
      </trkpt>
      <trkpt lat="44.20727" lon="6.74616">
        <ele>1519.3</ele>
        <time>2022-06-12T07:02:13Z</time>
      </trkpt>
      <trkpt lat="44.20729" lon="6.74617">
        <ele>1519.9</ele>
        <time>2022-06-12T07:02:14Z</time>
      </trkpt>
      <trkpt lat="44.20731" lon="6.74618">
        <ele>1520.5</ele>
        <time>2022-06-12T07:02:15Z</time>
      </trkpt>
      <trkpt lat="44.20734" lon="6.74618">
        <ele>1521</ele>
        <time>2022-06-12T07:02:16Z</time>
      </trkpt>
      <trkpt lat="44.20736" lon="6.74619">
        <ele>1521.5</ele>
        <time>2022-06-12T07:02:17Z</time>
      </trkpt>
      <trkpt lat="44.20738" lon="6.74618">
        <ele>1521.7</ele>
        <time>2022-06-12T07:02:18Z</time>
      </trkpt>
      <trkpt lat="44.20741" lon="6.74618">
        <ele>1521.8</ele>
        <time>2022-06-12T07:02:19Z</time>
      </trkpt>
      <trkpt lat="44.20743" lon="6.74618">
        <ele>1522.1</ele>
        <time>2022-06-12T07:02:20Z</time>
      </trkpt>
      <trkpt lat="44.20745" lon="6.74617">
        <ele>1522.3</ele>
        <time>2022-06-12T07:02:21Z</time>
      </trkpt>
      <trkpt lat="44.20748" lon="6.74617">
        <ele>1522.4</ele>
        <time>2022-06-12T07:02:22Z</time>
      </trkpt>
      <trkpt lat="44.2075" lon="6.74616">
        <ele>1522.4</ele>
        <time>2022-06-12T07:02:23Z</time>
      </trkpt>
      <trkpt lat="44.20752" lon="6.74614">
        <ele>1522.4</ele>
        <time>2022-06-12T07:02:24Z</time>
      </trkpt>
      <trkpt lat="44.20754" lon="6.74613">
        <ele>1522.5</ele>
        <time>2022-06-12T07:02:25Z</time>
      </trkpt>
      <trkpt lat="44.20756" lon="6.74611">
        <ele>1522.6</ele>
        <time>2022-06-12T07:02:26Z</time>
      </trkpt>
      <trkpt lat="44.20758" lon="6.7461">
        <ele>1522.8</ele>
        <time>2022-06-12T07:02:27Z</time>
      </trkpt>
      <trkpt lat="44.20759" lon="6.74608">
        <ele>1522.9</ele>
        <time>2022-06-12T07:02:28Z</time>
      </trkpt>
      <trkpt lat="44.20761" lon="6.74606">
        <ele>1523.1</ele>
        <time>2022-06-12T07:02:29Z</time>
      </trkpt>
      <trkpt lat="44.20763" lon="6.74605">
        <ele>1523.3</ele>
        <time>2022-06-12T07:02:30Z</time>
      </trkpt>
      <trkpt lat="44.20766" lon="6.74603">
        <ele>1523.6</ele>
        <time>2022-06-12T07:02:31Z</time>
      </trkpt>
      <trkpt lat="44.20768" lon="6.74601">
        <ele>1523.7</ele>
        <time>2022-06-12T07:02:32Z</time>
      </trkpt>
      <trkpt lat="44.2077" lon="6.746">
        <ele>1524</ele>
        <time>2022-06-12T07:02:33Z</time>
      </trkpt>
      <trkpt lat="44.20772" lon="6.74598">
        <ele>1524.2</ele>
        <time>2022-06-12T07:02:34Z</time>
      </trkpt>
      <trkpt lat="44.20773" lon="6.74596">
        <ele>1524.2</ele>
        <time>2022-06-12T07:02:35Z</time>
      </trkpt>
      <trkpt lat="44.20775" lon="6.74594">
        <ele>1524.3</ele>
        <time>2022-06-12T07:02:36Z</time>
      </trkpt>
      <trkpt lat="44.20777" lon="6.74592">
        <ele>1524.6</ele>
        <time>2022-06-12T07:02:37Z</time>
      </trkpt>
      <trkpt lat="44.2078" lon="6.74591">
        <ele>1525.1</ele>
        <time>2022-06-12T07:02:38Z</time>
      </trkpt>
      <trkpt lat="44.20782" lon="6.74589">
        <ele>1525.6</ele>
        <time>2022-06-12T07:02:39Z</time>
      </trkpt>
      <trkpt lat="44.20784" lon="6.74588">
        <ele>1525.9</ele>
        <time>2022-06-12T07:02:40Z</time>
      </trkpt>
      <trkpt lat="44.20786" lon="6.74586">
        <ele>1526.3</ele>
        <time>2022-06-12T07:02:41Z</time>
      </trkpt>
      <trkpt lat="44.20788" lon="6.74585">
        <ele>1526.7</ele>
        <time>2022-06-12T07:02:42Z</time>
      </trkpt>
      <trkpt lat="44.2079" lon="6.74583">
        <ele>1527</ele>
        <time>2022-06-12T07:02:43Z</time>
      </trkpt>
      <trkpt lat="44.20792" lon="6.74581">
        <ele>1527.2</ele>
        <time>2022-06-12T07:02:44Z</time>
      </trkpt>
      <trkpt lat="44.20794" lon="6.74579">
        <ele>1527.4</ele>
        <time>2022-06-12T07:02:45Z</time>
      </trkpt>
      <trkpt lat="44.20796" lon="6.74578">
        <ele>1527.6</ele>
        <time>2022-06-12T07:02:46Z</time>
      </trkpt>
      <trkpt lat="44.20798" lon="6.74576">
        <ele>1528</ele>
        <time>2022-06-12T07:02:47Z</time>
      </trkpt>
      <trkpt lat="44.20801" lon="6.74574">
        <ele>1528.3</ele>
        <time>2022-06-12T07:02:48Z</time>
      </trkpt>
      <trkpt lat="44.20803" lon="6.74572">
        <ele>1528.6</ele>
        <time>2022-06-12T07:02:49Z</time>
      </trkpt>
      <trkpt lat="44.20805" lon="6.74571">
        <ele>1528.9</ele>
        <time>2022-06-12T07:02:50Z</time>
      </trkpt>
      <trkpt lat="44.20807" lon="6.74569">
        <ele>1529.2</ele>
        <time>2022-06-12T07:02:51Z</time>
      </trkpt>
      <trkpt lat="44.20809" lon="6.74568">
        <ele>1529.7</ele>
        <time>2022-06-12T07:02:52Z</time>
      </trkpt>
      <trkpt lat="44.20811" lon="6.74566">
        <ele>1530.1</ele>
        <time>2022-06-12T07:02:53Z</time>
      </trkpt>
      <trkpt lat="44.20813" lon="6.74565">
        <ele>1530.6</ele>
        <time>2022-06-12T07:02:54Z</time>
      </trkpt>
      <trkpt lat="44.20814" lon="6.74563">
        <ele>1530.8</ele>
        <time>2022-06-12T07:02:55Z</time>
      </trkpt>
      <trkpt lat="44.20816" lon="6.74561">
        <ele>1531.1</ele>
        <time>2022-06-12T07:02:56Z</time>
      </trkpt>
      <trkpt lat="44.20818" lon="6.74559">
        <ele>1531.4</ele>
        <time>2022-06-12T07:02:57Z</time>
      </trkpt>
      <trkpt lat="44.2082" lon="6.74557">
        <ele>1531.7</ele>
        <time>2022-06-12T07:02:58Z</time>
      </trkpt>
      <trkpt lat="44.20821" lon="6.74555">
        <ele>1532</ele>
        <time>2022-06-12T07:02:59Z</time>
      </trkpt>
      <trkpt lat="44.20823" lon="6.74552">
        <ele>1532.2</ele>
        <time>2022-06-12T07:03:00Z</time>
      </trkpt>
      <trkpt lat="44.20825" lon="6.7455">
        <ele>1532.4</ele>
        <time>2022-06-12T07:03:01Z</time>
      </trkpt>
      <trkpt lat="44.20827" lon="6.74548">
        <ele>1532.6</ele>
        <time>2022-06-12T07:03:02Z</time>
      </trkpt>
      <trkpt lat="44.20828" lon="6.74546">
        <ele>1532.8</ele>
        <time>2022-06-12T07:03:03Z</time>
      </trkpt>
      <trkpt lat="44.2083" lon="6.74544">
        <ele>1533.1</ele>
        <time>2022-06-12T07:03:04Z</time>
      </trkpt>
      <trkpt lat="44.20832" lon="6.74541">
        <ele>1533.3</ele>
        <time>2022-06-12T07:03:05Z</time>
      </trkpt>
      <trkpt lat="44.20833" lon="6.74539">
        <ele>1533.4</ele>
        <time>2022-06-12T07:03:06Z</time>
      </trkpt>
      <trkpt lat="44.20835" lon="6.74537">
        <ele>1533.6</ele>
        <time>2022-06-12T07:03:07Z</time>
      </trkpt>
      <trkpt lat="44.20836" lon="6.74534">
        <ele>1533.7</ele>
        <time>2022-06-12T07:03:08Z</time>
      </trkpt>
      <trkpt lat="44.20838" lon="6.74533">
        <ele>1534</ele>
        <time>2022-06-12T07:03:09Z</time>
      </trkpt>
      <trkpt lat="44.20839" lon="6.7453">
        <ele>1534</ele>
        <time>2022-06-12T07:03:10Z</time>
      </trkpt>
      <trkpt lat="44.2084" lon="6.74528">
        <ele>1533.9</ele>
        <time>2022-06-12T07:03:11Z</time>
      </trkpt>
      <trkpt lat="44.20842" lon="6.74526">
        <ele>1534.1</ele>
        <time>2022-06-12T07:03:12Z</time>
      </trkpt>
      <trkpt lat="44.20843" lon="6.74523">
        <ele>1534.2</ele>
        <time>2022-06-12T07:03:13Z</time>
      </trkpt>
      <trkpt lat="44.20845" lon="6.7452">
        <ele>1534.2</ele>
        <time>2022-06-12T07:03:14Z</time>
      </trkpt>
      <trkpt lat="44.20846" lon="6.74517">
        <ele>1534</ele>
        <time>2022-06-12T07:03:15Z</time>
      </trkpt>
      <trkpt lat="44.20847" lon="6.74514">
        <ele>1533.8</ele>
        <time>2022-06-12T07:03:16Z</time>
      </trkpt>
      <trkpt lat="44.20849" lon="6.74512">
        <ele>1533.9</ele>
        <time>2022-06-12T07:03:17Z</time>
      </trkpt>
      <trkpt lat="44.2085" lon="6.74509">
        <ele>1534.1</ele>
        <time>2022-06-12T07:03:18Z</time>
      </trkpt>
      <trkpt lat="44.20852" lon="6.74507">
        <ele>1534.1</ele>
        <time>2022-06-12T07:03:19Z</time>
      </trkpt>
      <trkpt lat="44.20853" lon="6.74505">
        <ele>1534.2</ele>
        <time>2022-06-12T07:03:20Z</time>
      </trkpt>
      <trkpt lat="44.20855" lon="6.74502">
        <ele>1534.4</ele>
        <time>2022-06-12T07:03:21Z</time>
      </trkpt>
      <trkpt lat="44.20856" lon="6.745">
        <ele>1534.5</ele>
        <time>2022-06-12T07:03:22Z</time>
      </trkpt>
      <trkpt lat="44.20858" lon="6.74498">
        <ele>1534.7</ele>
        <time>2022-06-12T07:03:23Z</time>
      </trkpt>
      <trkpt lat="44.2086" lon="6.74496">
        <ele>1535</ele>
        <time>2022-06-12T07:03:24Z</time>
      </trkpt>
      <trkpt lat="44.20862" lon="6.74493">
        <ele>1535</ele>
        <time>2022-06-12T07:03:25Z</time>
      </trkpt>
      <trkpt lat="44.20864" lon="6.74491">
        <ele>1534.8</ele>
        <time>2022-06-12T07:03:26Z</time>
      </trkpt>
      <trkpt lat="44.20865" lon="6.74489">
        <ele>1534.8</ele>
        <time>2022-06-12T07:03:27Z</time>
      </trkpt>
      <trkpt lat="44.20867" lon="6.74487">
        <ele>1534.6</ele>
        <time>2022-06-12T07:03:28Z</time>
      </trkpt>
      <trkpt lat="44.20869" lon="6.74485">
        <ele>1534.6</ele>
        <time>2022-06-12T07:03:29Z</time>
      </trkpt>
      <trkpt lat="44.20871" lon="6.74483">
        <ele>1534.5</ele>
        <time>2022-06-12T07:03:30Z</time>
      </trkpt>
      <trkpt lat="44.20873" lon="6.74481">
        <ele>1534.4</ele>
        <time>2022-06-12T07:03:31Z</time>
      </trkpt>
      <trkpt lat="44.20875" lon="6.74479">
        <ele>1534.4</ele>
        <time>2022-06-12T07:03:32Z</time>
      </trkpt>
      <trkpt lat="44.20877" lon="6.74477">
        <ele>1534.3</ele>
        <time>2022-06-12T07:03:33Z</time>
      </trkpt>
      <trkpt lat="44.20879" lon="6.74476">
        <ele>1534.3</ele>
        <time>2022-06-12T07:03:34Z</time>
      </trkpt>
      <trkpt lat="44.20881" lon="6.74474">
        <ele>1534.1</ele>
        <time>2022-06-12T07:03:35Z</time>
      </trkpt>
      <trkpt lat="44.20883" lon="6.74472">
        <ele>1533.9</ele>
        <time>2022-06-12T07:03:36Z</time>
      </trkpt>
      <trkpt lat="44.20885" lon="6.7447">
        <ele>1534</ele>
        <time>2022-06-12T07:03:37Z</time>
      </trkpt>
      <trkpt lat="44.20887" lon="6.74469">
        <ele>1534.1</ele>
        <time>2022-06-12T07:03:38Z</time>
      </trkpt>
      <trkpt lat="44.20889" lon="6.74468">
        <ele>1534</ele>
        <time>2022-06-12T07:03:39Z</time>
      </trkpt>
      <trkpt lat="44.20892" lon="6.74466">
        <ele>1533.3</ele>
        <time>2022-06-12T07:03:40Z</time>
      </trkpt>
      <trkpt lat="44.20894" lon="6.74465">
        <ele>1532.7</ele>
        <time>2022-06-12T07:03:41Z</time>
      </trkpt>
      <trkpt lat="44.20896" lon="6.74464">
        <ele>1532.2</ele>
        <time>2022-06-12T07:03:42Z</time>
      </trkpt>
      <trkpt lat="44.20898" lon="6.74463">
        <ele>1531.8</ele>
        <time>2022-06-12T07:03:43Z</time>
      </trkpt>
      <trkpt lat="44.20901" lon="6.74462">
        <ele>1531.5</ele>
        <time>2022-06-12T07:03:44Z</time>
      </trkpt>
      <trkpt lat="44.20903" lon="6.74462">
        <ele>1531.3</ele>
        <time>2022-06-12T07:03:45Z</time>
      </trkpt>
      <trkpt lat="44.20906" lon="6.74462">
        <ele>1531.3</ele>
        <time>2022-06-12T07:03:46Z</time>
      </trkpt>
      <trkpt lat="44.20908" lon="6.74462">
        <ele>1531.3</ele>
        <time>2022-06-12T07:03:47Z</time>
      </trkpt>
      <trkpt lat="44.2091" lon="6.74463">
        <ele>1531.5</ele>
        <time>2022-06-12T07:03:48Z</time>
      </trkpt>
      <trkpt lat="44.20912" lon="6.74463">
        <ele>1531.8</ele>
        <time>2022-06-12T07:03:49Z</time>
      </trkpt>
      <trkpt lat="44.20915" lon="6.74464">
        <ele>1532.2</ele>
        <time>2022-06-12T07:03:50Z</time>
      </trkpt>
      <trkpt lat="44.20917" lon="6.74466">
        <ele>1532.9</ele>
        <time>2022-06-12T07:03:51Z</time>
      </trkpt>
      <trkpt lat="44.20918" lon="6.74467">
        <ele>1532.8</ele>
        <time>2022-06-12T07:03:52Z</time>
      </trkpt>
      <trkpt lat="44.2092" lon="6.74469">
        <ele>1532.7</ele>
        <time>2022-06-12T07:03:53Z</time>
      </trkpt>
      <trkpt lat="44.20922" lon="6.74471">
        <ele>1532.8</ele>
        <time>2022-06-12T07:03:54Z</time>
      </trkpt>
      <trkpt lat="44.20924" lon="6.74473">
        <ele>1533.1</ele>
        <time>2022-06-12T07:03:55Z</time>
      </trkpt>
      <trkpt lat="44.20925" lon="6.74475">
        <ele>1533.2</ele>
        <time>2022-06-12T07:03:56Z</time>
      </trkpt>
      <trkpt lat="44.20927" lon="6.74478">
        <ele>1533.4</ele>
        <time>2022-06-12T07:03:57Z</time>
      </trkpt>
      <trkpt lat="44.20928" lon="6.7448">
        <ele>1533.5</ele>
        <time>2022-06-12T07:03:58Z</time>
      </trkpt>
      <trkpt lat="44.2093" lon="6.74482">
        <ele>1533.5</ele>
        <time>2022-06-12T07:03:59Z</time>
      </trkpt>
      <trkpt lat="44.20932" lon="6.74484">
        <ele>1533.6</ele>
        <time>2022-06-12T07:04:00Z</time>
      </trkpt>
      <trkpt lat="44.20933" lon="6.74487">
        <ele>1533.7</ele>
        <time>2022-06-12T07:04:01Z</time>
      </trkpt>
      <trkpt lat="44.20935" lon="6.74489">
        <ele>1533.9</ele>
        <time>2022-06-12T07:04:02Z</time>
      </trkpt>
      <trkpt lat="44.20937" lon="6.74492">
        <ele>1534.2</ele>
        <time>2022-06-12T07:04:03Z</time>
      </trkpt>
      <trkpt lat="44.20938" lon="6.74494">
        <ele>1534.5</ele>
        <time>2022-06-12T07:04:04Z</time>
      </trkpt>
      <trkpt lat="44.2094" lon="6.74497">
        <ele>1534.8</ele>
        <time>2022-06-12T07:04:05Z</time>
      </trkpt>
      <trkpt lat="44.20941" lon="6.74499">
        <ele>1535.1</ele>
        <time>2022-06-12T07:04:06Z</time>
      </trkpt>
      <trkpt lat="44.20943" lon="6.74501">
        <ele>1535.3</ele>
        <time>2022-06-12T07:04:07Z</time>
      </trkpt>
      <trkpt lat="44.20944" lon="6.74504">
        <ele>1535.4</ele>
        <time>2022-06-12T07:04:08Z</time>
      </trkpt>
      <trkpt lat="44.20946" lon="6.74506">
        <ele>1535.6</ele>
        <time>2022-06-12T07:04:09Z</time>
      </trkpt>
      <trkpt lat="44.20947" lon="6.74509">
        <ele>1535.6</ele>
        <time>2022-06-12T07:04:10Z</time>
      </trkpt>
      <trkpt lat="44.20949" lon="6.74511">
        <ele>1535.6</ele>
        <time>2022-06-12T07:04:11Z</time>
      </trkpt>
      <trkpt lat="44.2095" lon="6.74514">
        <ele>1535.6</ele>
        <time>2022-06-12T07:04:12Z</time>
      </trkpt>
      <trkpt lat="44.20952" lon="6.74516">
        <ele>1535.6</ele>
        <time>2022-06-12T07:04:13Z</time>
      </trkpt>
      <trkpt lat="44.20954" lon="6.74519">
        <ele>1535.7</ele>
        <time>2022-06-12T07:04:14Z</time>
      </trkpt>
      <trkpt lat="44.20955" lon="6.74521">
        <ele>1535.8</ele>
        <time>2022-06-12T07:04:15Z</time>
      </trkpt>
      <trkpt lat="44.20957" lon="6.74524">
        <ele>1535.9</ele>
        <time>2022-06-12T07:04:16Z</time>
      </trkpt>
      <trkpt lat="44.20958" lon="6.74526">
        <ele>1536.2</ele>
        <time>2022-06-12T07:04:17Z</time>
      </trkpt>
      <trkpt lat="44.20959" lon="6.74529">
        <ele>1536.4</ele>
        <time>2022-06-12T07:04:18Z</time>
      </trkpt>
      <trkpt lat="44.2096" lon="6.74532">
        <ele>1536.7</ele>
        <time>2022-06-12T07:04:19Z</time>
      </trkpt>
      <trkpt lat="44.20962" lon="6.74535">
        <ele>1537</ele>
        <time>2022-06-12T07:04:20Z</time>
      </trkpt>
      <trkpt lat="44.20963" lon="6.74537">
        <ele>1537.3</ele>
        <time>2022-06-12T07:04:21Z</time>
      </trkpt>
      <trkpt lat="44.20964" lon="6.7454">
        <ele>1537.6</ele>
        <time>2022-06-12T07:04:22Z</time>
      </trkpt>
      <trkpt lat="44.20965" lon="6.74543">
        <ele>1538</ele>
        <time>2022-06-12T07:04:23Z</time>
      </trkpt>
      <trkpt lat="44.20966" lon="6.74546">
        <ele>1538.4</ele>
        <time>2022-06-12T07:04:24Z</time>
      </trkpt>
      <trkpt lat="44.20967" lon="6.74548">
        <ele>1538.8</ele>
        <time>2022-06-12T07:04:25Z</time>
      </trkpt>
      <trkpt lat="44.20968" lon="6.74551">
        <ele>1539.4</ele>
        <time>2022-06-12T07:04:26Z</time>
      </trkpt>
      <trkpt lat="44.20969" lon="6.74554">
        <ele>1540</ele>
        <time>2022-06-12T07:04:27Z</time>
      </trkpt>
      <trkpt lat="44.2097" lon="6.74557">
        <ele>1540.3</ele>
        <time>2022-06-12T07:04:28Z</time>
      </trkpt>
      <trkpt lat="44.20971" lon="6.7456">
        <ele>1540.6</ele>
        <time>2022-06-12T07:04:29Z</time>
      </trkpt>
      <trkpt lat="44.20973" lon="6.74562">
        <ele>1540.7</ele>
        <time>2022-06-12T07:04:30Z</time>
      </trkpt>
      <trkpt lat="44.20974" lon="6.74564">
        <ele>1540.8</ele>
        <time>2022-06-12T07:04:31Z</time>
      </trkpt>
      <trkpt lat="44.20975" lon="6.74567">
        <ele>1541</ele>
        <time>2022-06-12T07:04:32Z</time>
      </trkpt>
      <trkpt lat="44.20977" lon="6.74569">
        <ele>1541.1</ele>
        <time>2022-06-12T07:04:33Z</time>
      </trkpt>
      <trkpt lat="44.20978" lon="6.74571">
        <ele>1541.3</ele>
        <time>2022-06-12T07:04:34Z</time>
      </trkpt>
      <trkpt lat="44.20979" lon="6.74574">
        <ele>1541.6</ele>
        <time>2022-06-12T07:04:35Z</time>
      </trkpt>
      <trkpt lat="44.20981" lon="6.74577">
        <ele>1541.8</ele>
        <time>2022-06-12T07:04:36Z</time>
      </trkpt>
      <trkpt lat="44.20982" lon="6.74579">
        <ele>1542.1</ele>
        <time>2022-06-12T07:04:37Z</time>
      </trkpt>
      <trkpt lat="44.20983" lon="6.74582">
        <ele>1542.5</ele>
        <time>2022-06-12T07:04:38Z</time>
      </trkpt>
      <trkpt lat="44.20984" lon="6.74584">
        <ele>1542.9</ele>
        <time>2022-06-12T07:04:39Z</time>
      </trkpt>
      <trkpt lat="44.20986" lon="6.74587">
        <ele>1543.2</ele>
        <time>2022-06-12T07:04:40Z</time>
      </trkpt>
      <trkpt lat="44.20987" lon="6.74589">
        <ele>1543.5</ele>
        <time>2022-06-12T07:04:41Z</time>
      </trkpt>
      <trkpt lat="44.20988" lon="6.74592">
        <ele>1543.8</ele>
        <time>2022-06-12T07:04:42Z</time>
      </trkpt>
      <trkpt lat="44.2099" lon="6.74594">
        <ele>1544.1</ele>
        <time>2022-06-12T07:04:43Z</time>
      </trkpt>
      <trkpt lat="44.20991" lon="6.74597">
        <ele>1544.5</ele>
        <time>2022-06-12T07:04:44Z</time>
      </trkpt>
      <trkpt lat="44.20993" lon="6.74599">
        <ele>1544.9</ele>
        <time>2022-06-12T07:04:45Z</time>
      </trkpt>
      <trkpt lat="44.20994" lon="6.74602">
        <ele>1545.4</ele>
        <time>2022-06-12T07:04:46Z</time>
      </trkpt>
      <trkpt lat="44.20995" lon="6.74605">
        <ele>1546</ele>
        <time>2022-06-12T07:04:47Z</time>
      </trkpt>
      <trkpt lat="44.20997" lon="6.74607">
        <ele>1546.5</ele>
        <time>2022-06-12T07:04:48Z</time>
      </trkpt>
      <trkpt lat="44.20998" lon="6.7461">
        <ele>1547.1</ele>
        <time>2022-06-12T07:04:49Z</time>
      </trkpt>
      <trkpt lat="44.20999" lon="6.74613">
        <ele>1547.6</ele>
        <time>2022-06-12T07:04:50Z</time>
      </trkpt>
      <trkpt lat="44.21" lon="6.74615">
        <ele>1548.1</ele>
        <time>2022-06-12T07:04:51Z</time>
      </trkpt>
      <trkpt lat="44.21002" lon="6.74618">
        <ele>1548.4</ele>
        <time>2022-06-12T07:04:52Z</time>
      </trkpt>
      <trkpt lat="44.21003" lon="6.7462">
        <ele>1548.8</ele>
        <time>2022-06-12T07:04:53Z</time>
      </trkpt>
      <trkpt lat="44.21005" lon="6.74623">
        <ele>1549.3</ele>
        <time>2022-06-12T07:04:54Z</time>
      </trkpt>
      <trkpt lat="44.21006" lon="6.74626">
        <ele>1549.7</ele>
        <time>2022-06-12T07:04:55Z</time>
      </trkpt>
      <trkpt lat="44.21008" lon="6.74629">
        <ele>1550.2</ele>
        <time>2022-06-12T07:04:56Z</time>
      </trkpt>
      <trkpt lat="44.21009" lon="6.74632">
        <ele>1550.9</ele>
        <time>2022-06-12T07:04:57Z</time>
      </trkpt>
      <trkpt lat="44.2101" lon="6.74635">
        <ele>1551.5</ele>
        <time>2022-06-12T07:04:58Z</time>
      </trkpt>
      <trkpt lat="44.21011" lon="6.74637">
        <ele>1552.1</ele>
        <time>2022-06-12T07:04:59Z</time>
      </trkpt>
      <trkpt lat="44.21013" lon="6.7464">
        <ele>1552.7</ele>
        <time>2022-06-12T07:05:00Z</time>
      </trkpt>
      <trkpt lat="44.21014" lon="6.74642">
        <ele>1553</ele>
        <time>2022-06-12T07:05:01Z</time>
      </trkpt>
      <trkpt lat="44.21016" lon="6.74645">
        <ele>1553.5</ele>
        <time>2022-06-12T07:05:02Z</time>
      </trkpt>
      <trkpt lat="44.21018" lon="6.74647">
        <ele>1553.8</ele>
        <time>2022-06-12T07:05:03Z</time>
      </trkpt>
      <trkpt lat="44.2102" lon="6.74649">
        <ele>1554.2</ele>
        <time>2022-06-12T07:05:04Z</time>
      </trkpt>
      <trkpt lat="44.21021" lon="6.74651">
        <ele>1554.5</ele>
        <time>2022-06-12T07:05:05Z</time>
      </trkpt>
      <trkpt lat="44.21023" lon="6.74652">
        <ele>1554.5</ele>
        <time>2022-06-12T07:05:06Z</time>
      </trkpt>
      <trkpt lat="44.21026" lon="6.74653">
        <ele>1554.5</ele>
        <time>2022-06-12T07:05:07Z</time>
      </trkpt>
      <trkpt lat="44.21028" lon="6.74654">
        <ele>1554.5</ele>
        <time>2022-06-12T07:05:08Z</time>
      </trkpt>
      <trkpt lat="44.2103" lon="6.74655">
        <ele>1554.6</ele>
        <time>2022-06-12T07:05:09Z</time>
      </trkpt>
      <trkpt lat="44.21032" lon="6.74655">
        <ele>1554.6</ele>
        <time>2022-06-12T07:05:10Z</time>
      </trkpt>
      <trkpt lat="44.21035" lon="6.74656">
        <ele>1554.5</ele>
        <time>2022-06-12T07:05:11Z</time>
      </trkpt>
      <trkpt lat="44.21037" lon="6.74656">
        <ele>1554.4</ele>
        <time>2022-06-12T07:05:12Z</time>
      </trkpt>
      <trkpt lat="44.2104" lon="6.74656">
        <ele>1554.3</ele>
        <time>2022-06-12T07:05:13Z</time>
      </trkpt>
      <trkpt lat="44.21042" lon="6.74656">
        <ele>1554.3</ele>
        <time>2022-06-12T07:05:14Z</time>
      </trkpt>
      <trkpt lat="44.21044" lon="6.74656">
        <ele>1554.1</ele>
        <time>2022-06-12T07:05:15Z</time>
      </trkpt>
      <trkpt lat="44.21047" lon="6.74656">
        <ele>1554</ele>
        <time>2022-06-12T07:05:16Z</time>
      </trkpt>
      <trkpt lat="44.21049" lon="6.74656">
        <ele>1553.6</ele>
        <time>2022-06-12T07:05:17Z</time>
      </trkpt>
      <trkpt lat="44.21052" lon="6.74655">
        <ele>1553.3</ele>
        <time>2022-06-12T07:05:18Z</time>
      </trkpt>
      <trkpt lat="44.21054" lon="6.74655">
        <ele>1552.9</ele>
        <time>2022-06-12T07:05:19Z</time>
      </trkpt>
      <trkpt lat="44.21056" lon="6.74654">
        <ele>1552.5</ele>
        <time>2022-06-12T07:05:20Z</time>
      </trkpt>
      <trkpt lat="44.21058" lon="6.74653">
        <ele>1552.1</ele>
        <time>2022-06-12T07:05:21Z</time>
      </trkpt>
      <trkpt lat="44.2106" lon="6.74653">
        <ele>1551.8</ele>
        <time>2022-06-12T07:05:22Z</time>
      </trkpt>
      <trkpt lat="44.21062" lon="6.74652">
        <ele>1551.3</ele>
        <time>2022-06-12T07:05:23Z</time>
      </trkpt>
      <trkpt lat="44.21065" lon="6.74652">
        <ele>1551</ele>
        <time>2022-06-12T07:05:24Z</time>
      </trkpt>
      <trkpt lat="44.21067" lon="6.74651">
        <ele>1550.6</ele>
        <time>2022-06-12T07:05:25Z</time>
      </trkpt>
      <trkpt lat="44.21069" lon="6.7465">
        <ele>1550.2</ele>
        <time>2022-06-12T07:05:26Z</time>
      </trkpt>
      <trkpt lat="44.21071" lon="6.7465">
        <ele>1549.7</ele>
        <time>2022-06-12T07:05:27Z</time>
      </trkpt>
      <trkpt lat="44.21073" lon="6.74649">
        <ele>1549.4</ele>
        <time>2022-06-12T07:05:28Z</time>
      </trkpt>
      <trkpt lat="44.21076" lon="6.74649">
        <ele>1548.9</ele>
        <time>2022-06-12T07:05:29Z</time>
      </trkpt>
      <trkpt lat="44.21078" lon="6.74648">
        <ele>1548.7</ele>
        <time>2022-06-12T07:05:30Z</time>
      </trkpt>
      <trkpt lat="44.21081" lon="6.74648">
        <ele>1548.4</ele>
        <time>2022-06-12T07:05:31Z</time>
      </trkpt>
      <trkpt lat="44.21083" lon="6.74648">
        <ele>1548.3</ele>
        <time>2022-06-12T07:05:32Z</time>
      </trkpt>
      <trkpt lat="44.21086" lon="6.74648">
        <ele>1548</ele>
        <time>2022-06-12T07:05:33Z</time>
      </trkpt>
      <trkpt lat="44.21088" lon="6.74649">
        <ele>1547.7</ele>
        <time>2022-06-12T07:05:34Z</time>
      </trkpt>
      <trkpt lat="44.21091" lon="6.74649">
        <ele>1547.6</ele>
        <time>2022-06-12T07:05:35Z</time>
      </trkpt>
      <trkpt lat="44.21093" lon="6.7465">
        <ele>1547.5</ele>
        <time>2022-06-12T07:05:36Z</time>
      </trkpt>
      <trkpt lat="44.21095" lon="6.74651">
        <ele>1547.6</ele>
        <time>2022-06-12T07:05:37Z</time>
      </trkpt>
      <trkpt lat="44.21098" lon="6.74653">
        <ele>1547.8</ele>
        <time>2022-06-12T07:05:38Z</time>
      </trkpt>
      <trkpt lat="44.211" lon="6.74654">
        <ele>1548.2</ele>
        <time>2022-06-12T07:05:39Z</time>
      </trkpt>
      <trkpt lat="44.21102" lon="6.74656">
        <ele>1548.7</ele>
        <time>2022-06-12T07:05:40Z</time>
      </trkpt>
      <trkpt lat="44.21104" lon="6.74658">
        <ele>1549.4</ele>
        <time>2022-06-12T07:05:41Z</time>
      </trkpt>
      <trkpt lat="44.21105" lon="6.7466">
        <ele>1550.1</ele>
        <time>2022-06-12T07:05:42Z</time>
      </trkpt>
      <trkpt lat="44.21107" lon="6.74663">
        <ele>1550.8</ele>
        <time>2022-06-12T07:05:43Z</time>
      </trkpt>
      <trkpt lat="44.21109" lon="6.74665">
        <ele>1551.7</ele>
        <time>2022-06-12T07:05:44Z</time>
      </trkpt>
      <trkpt lat="44.2111" lon="6.74668">
        <ele>1552.6</ele>
        <time>2022-06-12T07:05:45Z</time>
      </trkpt>
      <trkpt lat="44.21112" lon="6.7467">
        <ele>1553.5</ele>
        <time>2022-06-12T07:05:46Z</time>
      </trkpt>
      <trkpt lat="44.21113" lon="6.74673">
        <ele>1554.4</ele>
        <time>2022-06-12T07:05:47Z</time>
      </trkpt>
      <trkpt lat="44.21114" lon="6.74675">
        <ele>1555.2</ele>
        <time>2022-06-12T07:05:48Z</time>
      </trkpt>
      <trkpt lat="44.21116" lon="6.74678">
        <ele>1556.1</ele>
        <time>2022-06-12T07:05:49Z</time>
      </trkpt>
      <trkpt lat="44.21117" lon="6.7468">
        <ele>1557</ele>
        <time>2022-06-12T07:05:50Z</time>
      </trkpt>
      <trkpt lat="44.21118" lon="6.74683">
        <ele>1557.9</ele>
        <time>2022-06-12T07:05:51Z</time>
      </trkpt>
      <trkpt lat="44.2112" lon="6.74685">
        <ele>1558.9</ele>
        <time>2022-06-12T07:05:52Z</time>
      </trkpt>
      <trkpt lat="44.21121" lon="6.74688">
        <ele>1559.8</ele>
        <time>2022-06-12T07:05:53Z</time>
      </trkpt>
      <trkpt lat="44.21122" lon="6.74691">
        <ele>1560.8</ele>
        <time>2022-06-12T07:05:54Z</time>
      </trkpt>
      <trkpt lat="44.21124" lon="6.74693">
        <ele>1561.7</ele>
        <time>2022-06-12T07:05:55Z</time>
      </trkpt>
      <trkpt lat="44.21126" lon="6.74696">
        <ele>1562.6</ele>
        <time>2022-06-12T07:05:56Z</time>
      </trkpt>
      <trkpt lat="44.21127" lon="6.74699">
        <ele>1563.5</ele>
        <time>2022-06-12T07:05:57Z</time>
      </trkpt>
      <trkpt lat="44.21129" lon="6.74701">
        <ele>1564.5</ele>
        <time>2022-06-12T07:05:58Z</time>
      </trkpt>
      <trkpt lat="44.21131" lon="6.74704">
        <ele>1565.2</ele>
        <time>2022-06-12T07:05:59Z</time>
      </trkpt>
      <trkpt lat="44.21133" lon="6.74706">
        <ele>1565.8</ele>
        <time>2022-06-12T07:06:00Z</time>
      </trkpt>
      <trkpt lat="44.21135" lon="6.74707">
        <ele>1566.2</ele>
        <time>2022-06-12T07:06:01Z</time>
      </trkpt>
      <trkpt lat="44.21137" lon="6.74709">
        <ele>1566.5</ele>
        <time>2022-06-12T07:06:02Z</time>
      </trkpt>
      <trkpt lat="44.21139" lon="6.7471">
        <ele>1566.6</ele>
        <time>2022-06-12T07:06:03Z</time>
      </trkpt>
      <trkpt lat="44.21141" lon="6.7471">
        <ele>1566.6</ele>
        <time>2022-06-12T07:06:04Z</time>
      </trkpt>
      <trkpt lat="44.21143" lon="6.7471">
        <ele>1566.4</ele>
        <time>2022-06-12T07:06:05Z</time>
      </trkpt>
      <trkpt lat="44.21146" lon="6.7471">
        <ele>1566.1</ele>
        <time>2022-06-12T07:06:06Z</time>
      </trkpt>
      <trkpt lat="44.21148" lon="6.7471">
        <ele>1565.9</ele>
        <time>2022-06-12T07:06:07Z</time>
      </trkpt>
      <trkpt lat="44.2115" lon="6.7471">
        <ele>1565.7</ele>
        <time>2022-06-12T07:06:08Z</time>
      </trkpt>
      <trkpt lat="44.21152" lon="6.7471">
        <ele>1565.4</ele>
        <time>2022-06-12T07:06:09Z</time>
      </trkpt>
      <trkpt lat="44.21155" lon="6.7471">
        <ele>1565</ele>
        <time>2022-06-12T07:06:10Z</time>
      </trkpt>
      <trkpt lat="44.21157" lon="6.7471">
        <ele>1564.8</ele>
        <time>2022-06-12T07:06:11Z</time>
      </trkpt>
      <trkpt lat="44.2116" lon="6.7471">
        <ele>1564.7</ele>
        <time>2022-06-12T07:06:12Z</time>
      </trkpt>
      <trkpt lat="44.21162" lon="6.7471">
        <ele>1564.4</ele>
        <time>2022-06-12T07:06:13Z</time>
      </trkpt>
      <trkpt lat="44.21164" lon="6.7471">
        <ele>1564.2</ele>
        <time>2022-06-12T07:06:14Z</time>
      </trkpt>
      <trkpt lat="44.21167" lon="6.74711">
        <ele>1564.1</ele>
        <time>2022-06-12T07:06:15Z</time>
      </trkpt>
      <trkpt lat="44.21169" lon="6.74711">
        <ele>1564.1</ele>
        <time>2022-06-12T07:06:16Z</time>
      </trkpt>
      <trkpt lat="44.21171" lon="6.74711">
        <ele>1563.8</ele>
        <time>2022-06-12T07:06:17Z</time>
      </trkpt>
      <trkpt lat="44.21174" lon="6.74711">
        <ele>1563.6</ele>
        <time>2022-06-12T07:06:18Z</time>
      </trkpt>
      <trkpt lat="44.21176" lon="6.74711">
        <ele>1563.4</ele>
        <time>2022-06-12T07:06:19Z</time>
      </trkpt>
      <trkpt lat="44.21179" lon="6.74711">
        <ele>1563.4</ele>
        <time>2022-06-12T07:06:20Z</time>
      </trkpt>
      <trkpt lat="44.21181" lon="6.74712">
        <ele>1563.6</ele>
        <time>2022-06-12T07:06:21Z</time>
      </trkpt>
      <trkpt lat="44.21183" lon="6.74712">
        <ele>1563.4</ele>
        <time>2022-06-12T07:06:22Z</time>
      </trkpt>
      <trkpt lat="44.21186" lon="6.74712">
        <ele>1563.3</ele>
        <time>2022-06-12T07:06:23Z</time>
      </trkpt>
      <trkpt lat="44.21188" lon="6.74712">
        <ele>1563.3</ele>
        <time>2022-06-12T07:06:24Z</time>
      </trkpt>
      <trkpt lat="44.21191" lon="6.74712">
        <ele>1563.2</ele>
        <time>2022-06-12T07:06:25Z</time>
      </trkpt>
      <trkpt lat="44.21193" lon="6.74713">
        <ele>1563.2</ele>
        <time>2022-06-12T07:06:26Z</time>
      </trkpt>
      <trkpt lat="44.21195" lon="6.74713">
        <ele>1563.4</ele>
        <time>2022-06-12T07:06:27Z</time>
      </trkpt>
      <trkpt lat="44.21198" lon="6.74714">
        <ele>1563.8</ele>
        <time>2022-06-12T07:06:28Z</time>
      </trkpt>
      <trkpt lat="44.212" lon="6.74715">
        <ele>1564.3</ele>
        <time>2022-06-12T07:06:29Z</time>
      </trkpt>
      <trkpt lat="44.21203" lon="6.74716">
        <ele>1564.9</ele>
        <time>2022-06-12T07:06:30Z</time>
      </trkpt>
      <trkpt lat="44.21205" lon="6.74718">
        <ele>1565.7</ele>
        <time>2022-06-12T07:06:31Z</time>
      </trkpt>
      <trkpt lat="44.21208" lon="6.74719">
        <ele>1566.4</ele>
        <time>2022-06-12T07:06:32Z</time>
      </trkpt>
      <trkpt lat="44.2121" lon="6.7472">
        <ele>1567.1</ele>
        <time>2022-06-12T07:06:33Z</time>
      </trkpt>
      <trkpt lat="44.21212" lon="6.74722">
        <ele>1567.8</ele>
        <time>2022-06-12T07:06:34Z</time>
      </trkpt>
      <trkpt lat="44.21215" lon="6.74723">
        <ele>1568.5</ele>
        <time>2022-06-12T07:06:35Z</time>
      </trkpt>
      <trkpt lat="44.21217" lon="6.74725">
        <ele>1569.2</ele>
        <time>2022-06-12T07:06:36Z</time>
      </trkpt>
      <trkpt lat="44.2122" lon="6.74728">
        <ele>1570.1</ele>
        <time>2022-06-12T07:06:37Z</time>
      </trkpt>
      <trkpt lat="44.21222" lon="6.7473">
        <ele>1571</ele>
        <time>2022-06-12T07:06:38Z</time>
      </trkpt>
      <trkpt lat="44.21225" lon="6.74731">
        <ele>1571.6</ele>
        <time>2022-06-12T07:06:39Z</time>
      </trkpt>
      <trkpt lat="44.21229" lon="6.74732">
        <ele>1571.8</ele>
        <time>2022-06-12T07:06:40Z</time>
      </trkpt>
      <trkpt lat="44.21232" lon="6.74733">
        <ele>1571.9</ele>
        <time>2022-06-12T07:06:41Z</time>
      </trkpt>
      <trkpt lat="44.21235" lon="6.74733">
        <ele>1571.9</ele>
        <time>2022-06-12T07:06:42Z</time>
      </trkpt>
      <trkpt lat="44.21238" lon="6.74733">
        <ele>1572</ele>
        <time>2022-06-12T07:06:43Z</time>
      </trkpt>
      <trkpt lat="44.21241" lon="6.74733">
        <ele>1572</ele>
        <time>2022-06-12T07:06:44Z</time>
      </trkpt>
      <trkpt lat="44.21244" lon="6.74732">
        <ele>1571.7</ele>
        <time>2022-06-12T07:06:45Z</time>
      </trkpt>
      <trkpt lat="44.21247" lon="6.74732">
        <ele>1571.4</ele>
        <time>2022-06-12T07:06:46Z</time>
      </trkpt>
      <trkpt lat="44.2125" lon="6.74731">
        <ele>1571.1</ele>
        <time>2022-06-12T07:06:47Z</time>
      </trkpt>
      <trkpt lat="44.21253" lon="6.74731">
        <ele>1570.6</ele>
        <time>2022-06-12T07:06:48Z</time>
      </trkpt>
      <trkpt lat="44.21256" lon="6.7473">
        <ele>1570.1</ele>
        <time>2022-06-12T07:06:49Z</time>
      </trkpt>
      <trkpt lat="44.21259" lon="6.7473">
        <ele>1569.7</ele>
        <time>2022-06-12T07:06:50Z</time>
      </trkpt>
      <trkpt lat="44.21262" lon="6.7473">
        <ele>1569.3</ele>
        <time>2022-06-12T07:06:51Z</time>
      </trkpt>
      <trkpt lat="44.21265" lon="6.7473">
        <ele>1569.2</ele>
        <time>2022-06-12T07:06:52Z</time>
      </trkpt>
      <trkpt lat="44.21268" lon="6.74731">
        <ele>1569.1</ele>
        <time>2022-06-12T07:06:53Z</time>
      </trkpt>
      <trkpt lat="44.21271" lon="6.74731">
        <ele>1569</ele>
        <time>2022-06-12T07:06:54Z</time>
      </trkpt>
      <trkpt lat="44.21275" lon="6.74732">
        <ele>1568.9</ele>
        <time>2022-06-12T07:06:55Z</time>
      </trkpt>
      <trkpt lat="44.21278" lon="6.74733">
        <ele>1568.8</ele>
        <time>2022-06-12T07:06:56Z</time>
      </trkpt>
      <trkpt lat="44.21281" lon="6.74734">
        <ele>1568.5</ele>
        <time>2022-06-12T07:06:57Z</time>
      </trkpt>
      <trkpt lat="44.21284" lon="6.74735">
        <ele>1568.4</ele>
        <time>2022-06-12T07:06:58Z</time>
      </trkpt>
      <trkpt lat="44.21287" lon="6.74736">
        <ele>1568.2</ele>
        <time>2022-06-12T07:06:59Z</time>
      </trkpt>
      <trkpt lat="44.2129" lon="6.74738">
        <ele>1568.2</ele>
        <time>2022-06-12T07:07:00Z</time>
      </trkpt>
      <trkpt lat="44.21293" lon="6.74739">
        <ele>1568.3</ele>
        <time>2022-06-12T07:07:01Z</time>
      </trkpt>
      <trkpt lat="44.21296" lon="6.74741">
        <ele>1568.4</ele>
        <time>2022-06-12T07:07:02Z</time>
      </trkpt>
      <trkpt lat="44.21299" lon="6.74743">
        <ele>1568.5</ele>
        <time>2022-06-12T07:07:03Z</time>
      </trkpt>
      <trkpt lat="44.21302" lon="6.74745">
        <ele>1568.6</ele>
        <time>2022-06-12T07:07:04Z</time>
      </trkpt>
      <trkpt lat="44.21305" lon="6.74747">
        <ele>1568.8</ele>
        <time>2022-06-12T07:07:05Z</time>
      </trkpt>
      <trkpt lat="44.21308" lon="6.74749">
        <ele>1569.1</ele>
        <time>2022-06-12T07:07:06Z</time>
      </trkpt>
      <trkpt lat="44.21311" lon="6.74752">
        <ele>1569.4</ele>
        <time>2022-06-12T07:07:07Z</time>
      </trkpt>
      <trkpt lat="44.21314" lon="6.74754">
        <ele>1569.6</ele>
        <time>2022-06-12T07:07:08Z</time>
      </trkpt>
      <trkpt lat="44.21316" lon="6.74756">
        <ele>1569.8</ele>
        <time>2022-06-12T07:07:09Z</time>
      </trkpt>
      <trkpt lat="44.21319" lon="6.74759">
        <ele>1570.3</ele>
        <time>2022-06-12T07:07:10Z</time>
      </trkpt>
      <trkpt lat="44.21321" lon="6.74761">
        <ele>1571</ele>
        <time>2022-06-12T07:07:11Z</time>
      </trkpt>
      <trkpt lat="44.21324" lon="6.74765">
        <ele>1572</ele>
        <time>2022-06-12T07:07:12Z</time>
      </trkpt>
      <trkpt lat="44.21325" lon="6.74768">
        <ele>1572.9</ele>
        <time>2022-06-12T07:07:13Z</time>
      </trkpt>
      <trkpt lat="44.21327" lon="6.74771">
        <ele>1573.8</ele>
        <time>2022-06-12T07:07:14Z</time>
      </trkpt>
      <trkpt lat="44.2133" lon="6.74774">
        <ele>1574.7</ele>
        <time>2022-06-12T07:07:15Z</time>
      </trkpt>
      <trkpt lat="44.21332" lon="6.74776">
        <ele>1575.4</ele>
        <time>2022-06-12T07:07:16Z</time>
      </trkpt>
      <trkpt lat="44.21335" lon="6.74778">
        <ele>1576</ele>
        <time>2022-06-12T07:07:17Z</time>
      </trkpt>
      <trkpt lat="44.21338" lon="6.7478">
        <ele>1576.7</ele>
        <time>2022-06-12T07:07:18Z</time>
      </trkpt>
      <trkpt lat="44.21342" lon="6.74781">
        <ele>1577.2</ele>
        <time>2022-06-12T07:07:19Z</time>
      </trkpt>
      <trkpt lat="44.21345" lon="6.74782">
        <ele>1577.3</ele>
        <time>2022-06-12T07:07:20Z</time>
      </trkpt>
      <trkpt lat="44.21349" lon="6.74782">
        <ele>1577.3</ele>
        <time>2022-06-12T07:07:21Z</time>
      </trkpt>
      <trkpt lat="44.21353" lon="6.74782">
        <ele>1577.1</ele>
        <time>2022-06-12T07:07:22Z</time>
      </trkpt>
      <trkpt lat="44.21356" lon="6.74782">
        <ele>1576.6</ele>
        <time>2022-06-12T07:07:23Z</time>
      </trkpt>
      <trkpt lat="44.2136" lon="6.74781">
        <ele>1575.8</ele>
        <time>2022-06-12T07:07:24Z</time>
      </trkpt>
      <trkpt lat="44.21364" lon="6.7478">
        <ele>1575.2</ele>
        <time>2022-06-12T07:07:25Z</time>
      </trkpt>
      <trkpt lat="44.21368" lon="6.74779">
        <ele>1575</ele>
        <time>2022-06-12T07:07:26Z</time>
      </trkpt>
      <trkpt lat="44.21372" lon="6.74778">
        <ele>1574.9</ele>
        <time>2022-06-12T07:07:27Z</time>
      </trkpt>
      <trkpt lat="44.21376" lon="6.74778">
        <ele>1575.1</ele>
        <time>2022-06-12T07:07:28Z</time>
      </trkpt>
      <trkpt lat="44.2138" lon="6.74778">
        <ele>1575.4</ele>
        <time>2022-06-12T07:07:29Z</time>
      </trkpt>
      <trkpt lat="44.21384" lon="6.74778">
        <ele>1575.8</ele>
        <time>2022-06-12T07:07:30Z</time>
      </trkpt>
      <trkpt lat="44.21388" lon="6.74778">
        <ele>1576.2</ele>
        <time>2022-06-12T07:07:31Z</time>
      </trkpt>
      <trkpt lat="44.21392" lon="6.74779">
        <ele>1576.8</ele>
        <time>2022-06-12T07:07:32Z</time>
      </trkpt>
      <trkpt lat="44.21396" lon="6.7478">
        <ele>1577.5</ele>
        <time>2022-06-12T07:07:33Z</time>
      </trkpt>
      <trkpt lat="44.214" lon="6.74781">
        <ele>1578</ele>
        <time>2022-06-12T07:07:34Z</time>
      </trkpt>
      <trkpt lat="44.21404" lon="6.74781">
        <ele>1578.2</ele>
        <time>2022-06-12T07:07:35Z</time>
      </trkpt>
      <trkpt lat="44.21409" lon="6.7478">
        <ele>1578.1</ele>
        <time>2022-06-12T07:07:36Z</time>
      </trkpt>
      <trkpt lat="44.21413" lon="6.7478">
        <ele>1578.1</ele>
        <time>2022-06-12T07:07:37Z</time>
      </trkpt>
      <trkpt lat="44.21417" lon="6.7478">
        <ele>1578.1</ele>
        <time>2022-06-12T07:07:38Z</time>
      </trkpt>
      <trkpt lat="44.21421" lon="6.7478">
        <ele>1578</ele>
        <time>2022-06-12T07:07:39Z</time>
      </trkpt>
      <trkpt lat="44.21426" lon="6.7478">
        <ele>1578</ele>
        <time>2022-06-12T07:07:40Z</time>
      </trkpt>
      <trkpt lat="44.2143" lon="6.7478">
        <ele>1577.9</ele>
        <time>2022-06-12T07:07:41Z</time>
      </trkpt>
      <trkpt lat="44.21434" lon="6.74779">
        <ele>1577.8</ele>
        <time>2022-06-12T07:07:42Z</time>
      </trkpt>
      <trkpt lat="44.21438" lon="6.74779">
        <ele>1577.6</ele>
        <time>2022-06-12T07:07:43Z</time>
      </trkpt>
      <trkpt lat="44.21442" lon="6.74778">
        <ele>1577.2</ele>
        <time>2022-06-12T07:07:44Z</time>
      </trkpt>
      <trkpt lat="44.21445" lon="6.74778">
        <ele>1576.9</ele>
        <time>2022-06-12T07:07:45Z</time>
      </trkpt>
      <trkpt lat="44.21449" lon="6.74778">
        <ele>1576.3</ele>
        <time>2022-06-12T07:07:46Z</time>
      </trkpt>
      <trkpt lat="44.21453" lon="6.74777">
        <ele>1575.7</ele>
        <time>2022-06-12T07:07:47Z</time>
      </trkpt>
      <trkpt lat="44.21457" lon="6.74777">
        <ele>1575.3</ele>
        <time>2022-06-12T07:07:48Z</time>
      </trkpt>
      <trkpt lat="44.21462" lon="6.74777">
        <ele>1574.8</ele>
        <time>2022-06-12T07:07:49Z</time>
      </trkpt>
      <trkpt lat="44.21466" lon="6.74777">
        <ele>1574.4</ele>
        <time>2022-06-12T07:07:50Z</time>
      </trkpt>
      <trkpt lat="44.2147" lon="6.74777">
        <ele>1574</ele>
        <time>2022-06-12T07:07:51Z</time>
      </trkpt>
      <trkpt lat="44.21473" lon="6.74777">
        <ele>1573.5</ele>
        <time>2022-06-12T07:07:52Z</time>
      </trkpt>
      <trkpt lat="44.21477" lon="6.74778">
        <ele>1573</ele>
        <time>2022-06-12T07:07:53Z</time>
      </trkpt>
      <trkpt lat="44.21481" lon="6.74778">
        <ele>1572.5</ele>
        <time>2022-06-12T07:07:54Z</time>
      </trkpt>
      <trkpt lat="44.21485" lon="6.74779">
        <ele>1572.2</ele>
        <time>2022-06-12T07:07:55Z</time>
      </trkpt>
      <trkpt lat="44.21489" lon="6.7478">
        <ele>1571.9</ele>
        <time>2022-06-12T07:07:56Z</time>
      </trkpt>
      <trkpt lat="44.21493" lon="6.74782">
        <ele>1571.7</ele>
        <time>2022-06-12T07:07:57Z</time>
      </trkpt>
      <trkpt lat="44.21497" lon="6.74783">
        <ele>1571.8</ele>
        <time>2022-06-12T07:07:58Z</time>
      </trkpt>
      <trkpt lat="44.21501" lon="6.74786">
        <ele>1571.9</ele>
        <time>2022-06-12T07:07:59Z</time>
      </trkpt>
      <trkpt lat="44.21504" lon="6.74788">
        <ele>1572</ele>
        <time>2022-06-12T07:08:00Z</time>
      </trkpt>
      <trkpt lat="44.21508" lon="6.7479">
        <ele>1572.3</ele>
        <time>2022-06-12T07:08:01Z</time>
      </trkpt>
      <trkpt lat="44.21511" lon="6.74793">
        <ele>1572.7</ele>
        <time>2022-06-12T07:08:02Z</time>
      </trkpt>
      <trkpt lat="44.21514" lon="6.74796">
        <ele>1573.2</ele>
        <time>2022-06-12T07:08:03Z</time>
      </trkpt>
      <trkpt lat="44.21518" lon="6.748">
        <ele>1573.9</ele>
        <time>2022-06-12T07:08:04Z</time>
      </trkpt>
      <trkpt lat="44.21521" lon="6.74803">
        <ele>1574.3</ele>
        <time>2022-06-12T07:08:05Z</time>
      </trkpt>
      <trkpt lat="44.21524" lon="6.74806">
        <ele>1574.8</ele>
        <time>2022-06-12T07:08:06Z</time>
      </trkpt>
      <trkpt lat="44.21528" lon="6.74809">
        <ele>1575.1</ele>
        <time>2022-06-12T07:08:07Z</time>
      </trkpt>
      <trkpt lat="44.21532" lon="6.74811">
        <ele>1575.4</ele>
        <time>2022-06-12T07:08:08Z</time>
      </trkpt>
      <trkpt lat="44.21536" lon="6.74813">
        <ele>1575.4</ele>
        <time>2022-06-12T07:08:09Z</time>
      </trkpt>
      <trkpt lat="44.21541" lon="6.74815">
        <ele>1575.4</ele>
        <time>2022-06-12T07:08:10Z</time>
      </trkpt>
      <trkpt lat="44.21545" lon="6.74817">
        <ele>1575.3</ele>
        <time>2022-06-12T07:08:11Z</time>
      </trkpt>
      <trkpt lat="44.21549" lon="6.74818">
        <ele>1575.2</ele>
        <time>2022-06-12T07:08:12Z</time>
      </trkpt>
      <trkpt lat="44.21552" lon="6.74819">
        <ele>1575</ele>
        <time>2022-06-12T07:08:13Z</time>
      </trkpt>
      <trkpt lat="44.21556" lon="6.74821">
        <ele>1574.9</ele>
        <time>2022-06-12T07:08:14Z</time>
      </trkpt>
      <trkpt lat="44.21559" lon="6.74822">
        <ele>1574.6</ele>
        <time>2022-06-12T07:08:15Z</time>
      </trkpt>
      <trkpt lat="44.21563" lon="6.74824">
        <ele>1574.4</ele>
        <time>2022-06-12T07:08:16Z</time>
      </trkpt>
      <trkpt lat="44.21567" lon="6.74825">
        <ele>1573.9</ele>
        <time>2022-06-12T07:08:17Z</time>
      </trkpt>
      <trkpt lat="44.21572" lon="6.74826">
        <ele>1573.4</ele>
        <time>2022-06-12T07:08:18Z</time>
      </trkpt>
      <trkpt lat="44.21576" lon="6.74828">
        <ele>1573</ele>
        <time>2022-06-12T07:08:19Z</time>
      </trkpt>
      <trkpt lat="44.2158" lon="6.7483">
        <ele>1572.8</ele>
        <time>2022-06-12T07:08:20Z</time>
      </trkpt>
      <trkpt lat="44.21584" lon="6.74832">
        <ele>1572.5</ele>
        <time>2022-06-12T07:08:21Z</time>
      </trkpt>
      <trkpt lat="44.21587" lon="6.74834">
        <ele>1572.2</ele>
        <time>2022-06-12T07:08:22Z</time>
      </trkpt>
      <trkpt lat="44.21591" lon="6.74837">
        <ele>1571.9</ele>
        <time>2022-06-12T07:08:23Z</time>
      </trkpt>
      <trkpt lat="44.21594" lon="6.7484">
        <ele>1571.8</ele>
        <time>2022-06-12T07:08:24Z</time>
      </trkpt>
      <trkpt lat="44.21598" lon="6.74843">
        <ele>1571.7</ele>
        <time>2022-06-12T07:08:25Z</time>
      </trkpt>
      <trkpt lat="44.21601" lon="6.74847">
        <ele>1571.8</ele>
        <time>2022-06-12T07:08:26Z</time>
      </trkpt>
      <trkpt lat="44.21603" lon="6.74851">
        <ele>1572</ele>
        <time>2022-06-12T07:08:27Z</time>
      </trkpt>
      <trkpt lat="44.21606" lon="6.74855">
        <ele>1572.3</ele>
        <time>2022-06-12T07:08:28Z</time>
      </trkpt>
      <trkpt lat="44.21608" lon="6.7486">
        <ele>1572.7</ele>
        <time>2022-06-12T07:08:29Z</time>
      </trkpt>
      <trkpt lat="44.2161" lon="6.74865">
        <ele>1573.3</ele>
        <time>2022-06-12T07:08:30Z</time>
      </trkpt>
      <trkpt lat="44.21612" lon="6.74871">
        <ele>1574.3</ele>
        <time>2022-06-12T07:08:31Z</time>
      </trkpt>
      <trkpt lat="44.21613" lon="6.74876">
        <ele>1575.2</ele>
        <time>2022-06-12T07:08:32Z</time>
      </trkpt>
      <trkpt lat="44.21614" lon="6.74881">
        <ele>1576.2</ele>
        <time>2022-06-12T07:08:33Z</time>
      </trkpt>
      <trkpt lat="44.21616" lon="6.74886">
        <ele>1577.2</ele>
        <time>2022-06-12T07:08:34Z</time>
      </trkpt>
      <trkpt lat="44.21617" lon="6.74892">
        <ele>1578</ele>
        <time>2022-06-12T07:08:35Z</time>
      </trkpt>
      <trkpt lat="44.21619" lon="6.74896">
        <ele>1578.4</ele>
        <time>2022-06-12T07:08:36Z</time>
      </trkpt>
      <trkpt lat="44.21622" lon="6.74901">
        <ele>1578.8</ele>
        <time>2022-06-12T07:08:37Z</time>
      </trkpt>
      <trkpt lat="44.21625" lon="6.74905">
        <ele>1579.2</ele>
        <time>2022-06-12T07:08:38Z</time>
      </trkpt>
      <trkpt lat="44.21628" lon="6.74908">
        <ele>1579.6</ele>
        <time>2022-06-12T07:08:39Z</time>
      </trkpt>
      <trkpt lat="44.21631" lon="6.74911">
        <ele>1580.1</ele>
        <time>2022-06-12T07:08:40Z</time>
      </trkpt>
      <trkpt lat="44.21635" lon="6.74914">
        <ele>1580.4</ele>
        <time>2022-06-12T07:08:41Z</time>
      </trkpt>
      <trkpt lat="44.21639" lon="6.74916">
        <ele>1580.7</ele>
        <time>2022-06-12T07:08:42Z</time>
      </trkpt>
      <trkpt lat="44.21643" lon="6.74917">
        <ele>1581.7</ele>
        <time>2022-06-12T07:08:43Z</time>
      </trkpt>
      <trkpt lat="44.21648" lon="6.74917">
        <ele>1582.5</ele>
        <time>2022-06-12T07:08:44Z</time>
      </trkpt>
      <trkpt lat="44.21651" lon="6.74916">
        <ele>1583</ele>
        <time>2022-06-12T07:08:45Z</time>
      </trkpt>
      <trkpt lat="44.21655" lon="6.74916">
        <ele>1583.6</ele>
        <time>2022-06-12T07:08:46Z</time>
      </trkpt>
      <trkpt lat="44.21658" lon="6.74916">
        <ele>1584.2</ele>
        <time>2022-06-12T07:08:47Z</time>
      </trkpt>
      <trkpt lat="44.21661" lon="6.74916">
        <ele>1584.5</ele>
        <time>2022-06-12T07:08:48Z</time>
      </trkpt>
      <trkpt lat="44.21664" lon="6.74914">
        <ele>1584.4</ele>
        <time>2022-06-12T07:08:49Z</time>
      </trkpt>
      <trkpt lat="44.21667" lon="6.74913">
        <ele>1584.6</ele>
        <time>2022-06-12T07:08:50Z</time>
      </trkpt>
      <trkpt lat="44.21672" lon="6.74911">
        <ele>1585.4</ele>
        <time>2022-06-12T07:08:51Z</time>
      </trkpt>
      <trkpt lat="44.21676" lon="6.7491">
        <ele>1586.2</ele>
        <time>2022-06-12T07:08:52Z</time>
      </trkpt>
      <trkpt lat="44.2168" lon="6.74908">
        <ele>1586.8</ele>
        <time>2022-06-12T07:08:53Z</time>
      </trkpt>
      <trkpt lat="44.21684" lon="6.74906">
        <ele>1587.6</ele>
        <time>2022-06-12T07:08:54Z</time>
      </trkpt>
      <trkpt lat="44.21688" lon="6.74905">
        <ele>1588.4</ele>
        <time>2022-06-12T07:08:55Z</time>
      </trkpt>
      <trkpt lat="44.21692" lon="6.74904">
        <ele>1589</ele>
        <time>2022-06-12T07:08:56Z</time>
      </trkpt>
      <trkpt lat="44.21695" lon="6.74903">
        <ele>1590</ele>
        <time>2022-06-12T07:08:57Z</time>
      </trkpt>
      <trkpt lat="44.21698" lon="6.74903">
        <ele>1591.9</ele>
        <time>2022-06-12T07:08:58Z</time>
      </trkpt>
      <trkpt lat="44.217" lon="6.74902">
        <ele>1593.1</ele>
        <time>2022-06-12T07:08:59Z</time>
      </trkpt>
      <trkpt lat="44.21702" lon="6.74902">
        <ele>1594.1</ele>
        <time>2022-06-12T07:09:00Z</time>
      </trkpt>
      <trkpt lat="44.21702" lon="6.74902">
        <ele>1594.5</ele>
        <time>2022-06-12T07:09:01Z</time>
      </trkpt>
      <trkpt lat="44.21702" lon="6.74902">
        <ele>1594.5</ele>
        <time>2022-06-12T07:09:02Z</time>
      </trkpt>
      <trkpt lat="44.21702" lon="6.74902">
        <ele>1594.3</ele>
        <time>2022-06-12T07:09:03Z</time>
      </trkpt>
      <trkpt lat="44.21702" lon="6.74902">
        <ele>1594.1</ele>
        <time>2022-06-12T07:09:04Z</time>
      </trkpt>
      <trkpt lat="44.21702" lon="6.74902">
        <ele>1594.1</ele>
        <time>2022-06-12T07:09:05Z</time>
      </trkpt>
      <trkpt lat="44.21706" lon="6.74902">
        <ele>1596.7</ele>
        <time>2022-06-12T07:11:54Z</time>
      </trkpt>
      <trkpt lat="44.21707" lon="6.74902">
        <ele>1597.4</ele>
        <time>2022-06-12T07:11:55Z</time>
      </trkpt>
      <trkpt lat="44.21708" lon="6.74902">
        <ele>1598.4</ele>
        <time>2022-06-12T07:11:56Z</time>
      </trkpt>
      <trkpt lat="44.2171" lon="6.74901">
        <ele>1599.5</ele>
        <time>2022-06-12T07:11:57Z</time>
      </trkpt>
      <trkpt lat="44.21713" lon="6.74901">
        <ele>1600.9</ele>
        <time>2022-06-12T07:11:58Z</time>
      </trkpt>
      <trkpt lat="44.21716" lon="6.749">
        <ele>1602.3</ele>
        <time>2022-06-12T07:11:59Z</time>
      </trkpt>
      <trkpt lat="44.21719" lon="6.74899">
        <ele>1604.1</ele>
        <time>2022-06-12T07:12:00Z</time>
      </trkpt>
      <trkpt lat="44.21722" lon="6.74898">
        <ele>1605.4</ele>
        <time>2022-06-12T07:12:01Z</time>
      </trkpt>
      <trkpt lat="44.21726" lon="6.74896">
        <ele>1607.8</ele>
        <time>2022-06-12T07:12:02Z</time>
      </trkpt>
      <trkpt lat="44.2173" lon="6.74894">
        <ele>1610.3</ele>
        <time>2022-06-12T07:12:03Z</time>
      </trkpt>
      <trkpt lat="44.21734" lon="6.74893">
        <ele>1612.9</ele>
        <time>2022-06-12T07:12:04Z</time>
      </trkpt>
      <trkpt lat="44.21738" lon="6.74891">
        <ele>1615.3</ele>
        <time>2022-06-12T07:12:05Z</time>
      </trkpt>
      <trkpt lat="44.21741" lon="6.74888">
        <ele>1616.5</ele>
        <time>2022-06-12T07:12:06Z</time>
      </trkpt>
      <trkpt lat="44.21744" lon="6.74885">
        <ele>1617.6</ele>
        <time>2022-06-12T07:12:07Z</time>
      </trkpt>
      <trkpt lat="44.21748" lon="6.74881">
        <ele>1618</ele>
        <time>2022-06-12T07:12:08Z</time>
      </trkpt>
      <trkpt lat="44.21751" lon="6.74877">
        <ele>1617.9</ele>
        <time>2022-06-12T07:12:09Z</time>
      </trkpt>
      <trkpt lat="44.21754" lon="6.74873">
        <ele>1618.4</ele>
        <time>2022-06-12T07:12:10Z</time>
      </trkpt>
      <trkpt lat="44.21758" lon="6.7487">
        <ele>1618.7</ele>
        <time>2022-06-12T07:12:11Z</time>
      </trkpt>
      <trkpt lat="44.21761" lon="6.74867">
        <ele>1620.3</ele>
        <time>2022-06-12T07:12:12Z</time>
      </trkpt>
      <trkpt lat="44.21764" lon="6.74865">
        <ele>1621.8</ele>
        <time>2022-06-12T07:12:13Z</time>
      </trkpt>
      <trkpt lat="44.21768" lon="6.74862">
        <ele>1623.1</ele>
        <time>2022-06-12T07:12:14Z</time>
      </trkpt>
      <trkpt lat="44.21771" lon="6.7486">
        <ele>1624.3</ele>
        <time>2022-06-12T07:12:15Z</time>
      </trkpt>
      <trkpt lat="44.21774" lon="6.74856">
        <ele>1623.1</ele>
        <time>2022-06-12T07:12:16Z</time>
      </trkpt>
      <trkpt lat="44.21774" lon="6.74856">
        <ele>1623.1</ele>
        <time>2022-06-12T07:12:17Z</time>
      </trkpt>
      <trkpt lat="44.21774" lon="6.74856">
        <ele>1623.1</ele>
        <time>2022-06-12T07:12:18Z</time>
      </trkpt>
      <trkpt lat="44.21774" lon="6.74856">
        <ele>1623.1</ele>
        <time>2022-06-12T07:12:19Z</time>
      </trkpt>
      <trkpt lat="44.21774" lon="6.74856">
        <ele>1623.1</ele>
        <time>2022-06-12T07:12:20Z</time>
      </trkpt>
      <trkpt lat="44.21774" lon="6.74856">
        <ele>1623.1</ele>
        <time>2022-06-12T07:12:21Z</time>
      </trkpt>
      <trkpt lat="44.21774" lon="6.74856">
        <ele>1623.1</ele>
        <time>2022-06-12T07:12:22Z</time>
      </trkpt>
      <trkpt lat="44.21774" lon="6.74856">
        <ele>1623.1</ele>
        <time>2022-06-12T07:12:23Z</time>
      </trkpt>
      <trkpt lat="44.21774" lon="6.74856">
        <ele>1623.1</ele>
        <time>2022-06-12T07:12:24Z</time>
      </trkpt>
      <trkpt lat="44.21774" lon="6.74856">
        <ele>1623.1</ele>
        <time>2022-06-12T07:12:25Z</time>
      </trkpt>
      <trkpt lat="44.21812" lon="6.74819">
        <ele>1597.5</ele>
        <time>2022-06-12T07:12:26Z</time>
      </trkpt>
      <trkpt lat="44.21816" lon="6.74812">
        <ele>1591.3</ele>
        <time>2022-06-12T07:12:27Z</time>
      </trkpt>
      <trkpt lat="44.21821" lon="6.74812">
        <ele>1591.7</ele>
        <time>2022-06-12T07:12:28Z</time>
      </trkpt>
      <trkpt lat="44.21823" lon="6.74807">
        <ele>1588.7</ele>
        <time>2022-06-12T07:12:29Z</time>
      </trkpt>
      <trkpt lat="44.21826" lon="6.74807">
        <ele>1588.6</ele>
        <time>2022-06-12T07:12:30Z</time>
      </trkpt>
      <trkpt lat="44.21828" lon="6.74805">
        <ele>1587.7</ele>
        <time>2022-06-12T07:12:31Z</time>
      </trkpt>
      <trkpt lat="44.21832" lon="6.74804">
        <ele>1587.9</ele>
        <time>2022-06-12T07:12:32Z</time>
      </trkpt>
      <trkpt lat="44.21836" lon="6.74803">
        <ele>1586.4</ele>
        <time>2022-06-12T07:12:33Z</time>
      </trkpt>
      <trkpt lat="44.2184" lon="6.74801">
        <ele>1583.4</ele>
        <time>2022-06-12T07:12:34Z</time>
      </trkpt>
      <trkpt lat="44.21845" lon="6.74793">
        <ele>1577.9</ele>
        <time>2022-06-12T07:12:35Z</time>
      </trkpt>
      <trkpt lat="44.21846" lon="6.74789">
        <ele>1575.9</ele>
        <time>2022-06-12T07:12:36Z</time>
      </trkpt>
      <trkpt lat="44.21852" lon="6.74782">
        <ele>1571.7</ele>
        <time>2022-06-12T07:12:37Z</time>
      </trkpt>
      <trkpt lat="44.21856" lon="6.74782">
        <ele>1571.2</ele>
        <time>2022-06-12T07:12:38Z</time>
      </trkpt>
      <trkpt lat="44.21863" lon="6.74784">
        <ele>1569.7</ele>
        <time>2022-06-12T07:12:39Z</time>
      </trkpt>
      <trkpt lat="44.21866" lon="6.7478">
        <ele>1567.6</ele>
        <time>2022-06-12T07:12:40Z</time>
      </trkpt>
      <trkpt lat="44.21871" lon="6.74781">
        <ele>1565.8</ele>
        <time>2022-06-12T07:12:41Z</time>
      </trkpt>
      <trkpt lat="44.21875" lon="6.74783">
        <ele>1564.6</ele>
        <time>2022-06-12T07:12:42Z</time>
      </trkpt>
      <trkpt lat="44.21879" lon="6.74785">
        <ele>1563.2</ele>
        <time>2022-06-12T07:12:43Z</time>
      </trkpt>
      <trkpt lat="44.21883" lon="6.74786">
        <ele>1561.9</ele>
        <time>2022-06-12T07:12:44Z</time>
      </trkpt>
      <trkpt lat="44.21886" lon="6.74788">
        <ele>1560.6</ele>
        <time>2022-06-12T07:12:45Z</time>
      </trkpt>
      <trkpt lat="44.2189" lon="6.7479">
        <ele>1559.8</ele>
        <time>2022-06-12T07:12:46Z</time>
      </trkpt>
      <trkpt lat="44.21894" lon="6.74793">
        <ele>1560.1</ele>
        <time>2022-06-12T07:12:47Z</time>
      </trkpt>
      <trkpt lat="44.21897" lon="6.74795">
        <ele>1560.4</ele>
        <time>2022-06-12T07:12:48Z</time>
      </trkpt>
      <trkpt lat="44.21901" lon="6.74797">
        <ele>1560.6</ele>
        <time>2022-06-12T07:12:49Z</time>
      </trkpt>
      <trkpt lat="44.21904" lon="6.74799">
        <ele>1560.8</ele>
        <time>2022-06-12T07:12:50Z</time>
      </trkpt>
      <trkpt lat="44.21908" lon="6.74801">
        <ele>1560.8</ele>
        <time>2022-06-12T07:12:51Z</time>
      </trkpt>
      <trkpt lat="44.21912" lon="6.74803">
        <ele>1560.9</ele>
        <time>2022-06-12T07:12:52Z</time>
      </trkpt>
      <trkpt lat="44.21916" lon="6.74805">
        <ele>1561</ele>
        <time>2022-06-12T07:12:53Z</time>
      </trkpt>
      <trkpt lat="44.21919" lon="6.74807">
        <ele>1561.9</ele>
        <time>2022-06-12T07:12:54Z</time>
      </trkpt>
      <trkpt lat="44.21923" lon="6.74808">
        <ele>1563.4</ele>
        <time>2022-06-12T07:12:55Z</time>
      </trkpt>
      <trkpt lat="44.21927" lon="6.7481">
        <ele>1565</ele>
        <time>2022-06-12T07:12:56Z</time>
      </trkpt>
      <trkpt lat="44.21931" lon="6.74811">
        <ele>1566.4</ele>
        <time>2022-06-12T07:12:57Z</time>
      </trkpt>
      <trkpt lat="44.21935" lon="6.74811">
        <ele>1567.8</ele>
        <time>2022-06-12T07:12:58Z</time>
      </trkpt>
      <trkpt lat="44.21938" lon="6.74811">
        <ele>1568.9</ele>
        <time>2022-06-12T07:12:59Z</time>
      </trkpt>
      <trkpt lat="44.21941" lon="6.74809">
        <ele>1570</ele>
        <time>2022-06-12T07:13:00Z</time>
      </trkpt>
      <trkpt lat="44.21944" lon="6.74806">
        <ele>1570.8</ele>
        <time>2022-06-12T07:13:01Z</time>
      </trkpt>
      <trkpt lat="44.21947" lon="6.74803">
        <ele>1572.3</ele>
        <time>2022-06-12T07:13:02Z</time>
      </trkpt>
      <trkpt lat="44.21949" lon="6.74799">
        <ele>1573.9</ele>
        <time>2022-06-12T07:13:03Z</time>
      </trkpt>
      <trkpt lat="44.21951" lon="6.74796">
        <ele>1575.6</ele>
        <time>2022-06-12T07:13:04Z</time>
      </trkpt>
      <trkpt lat="44.21954" lon="6.74792">
        <ele>1577.6</ele>
        <time>2022-06-12T07:13:05Z</time>
      </trkpt>
      <trkpt lat="44.21956" lon="6.74788">
        <ele>1579.6</ele>
        <time>2022-06-12T07:13:06Z</time>
      </trkpt>
      <trkpt lat="44.21959" lon="6.74784">
        <ele>1581.5</ele>
        <time>2022-06-12T07:13:07Z</time>
      </trkpt>
      <trkpt lat="44.21961" lon="6.74781">
        <ele>1583.4</ele>
        <time>2022-06-12T07:13:08Z</time>
      </trkpt>
      <trkpt lat="44.21962" lon="6.74777">
        <ele>1585.1</ele>
        <time>2022-06-12T07:13:09Z</time>
      </trkpt>
      <trkpt lat="44.21964" lon="6.74774">
        <ele>1586.7</ele>
        <time>2022-06-12T07:13:10Z</time>
      </trkpt>
      <trkpt lat="44.21966" lon="6.7477">
        <ele>1588.5</ele>
        <time>2022-06-12T07:13:11Z</time>
      </trkpt>
      <trkpt lat="44.21968" lon="6.74767">
        <ele>1590.5</ele>
        <time>2022-06-12T07:13:12Z</time>
      </trkpt>
      <trkpt lat="44.21969" lon="6.74764">
        <ele>1592.3</ele>
        <time>2022-06-12T07:13:13Z</time>
      </trkpt>
      <trkpt lat="44.2197" lon="6.74761">
        <ele>1593.8</ele>
        <time>2022-06-12T07:13:14Z</time>
      </trkpt>
      <trkpt lat="44.21971" lon="6.74758">
        <ele>1595.4</ele>
        <time>2022-06-12T07:13:15Z</time>
      </trkpt>
      <trkpt lat="44.21973" lon="6.74755">
        <ele>1597</ele>
        <time>2022-06-12T07:13:16Z</time>
      </trkpt>
      <trkpt lat="44.21974" lon="6.74752">
        <ele>1598.1</ele>
        <time>2022-06-12T07:13:17Z</time>
      </trkpt>
      <trkpt lat="44.21975" lon="6.74749">
        <ele>1598.9</ele>
        <time>2022-06-12T07:13:18Z</time>
      </trkpt>
      <trkpt lat="44.21976" lon="6.74746">
        <ele>1599.4</ele>
        <time>2022-06-12T07:13:19Z</time>
      </trkpt>
      <trkpt lat="44.21977" lon="6.74743">
        <ele>1599.9</ele>
        <time>2022-06-12T07:13:20Z</time>
      </trkpt>
      <trkpt lat="44.21978" lon="6.7474">
        <ele>1600.4</ele>
        <time>2022-06-12T07:13:21Z</time>
      </trkpt>
      <trkpt lat="44.21979" lon="6.74738">
        <ele>1600.8</ele>
        <time>2022-06-12T07:13:22Z</time>
      </trkpt>
      <trkpt lat="44.2198" lon="6.74735">
        <ele>1601.3</ele>
        <time>2022-06-12T07:13:23Z</time>
      </trkpt>
      <trkpt lat="44.21981" lon="6.74733">
        <ele>1601.8</ele>
        <time>2022-06-12T07:13:24Z</time>
      </trkpt>
      <trkpt lat="44.21982" lon="6.7473">
        <ele>1602.4</ele>
        <time>2022-06-12T07:13:25Z</time>
      </trkpt>
      <trkpt lat="44.21984" lon="6.74728">
        <ele>1603.2</ele>
        <time>2022-06-12T07:13:26Z</time>
      </trkpt>
      <trkpt lat="44.21985" lon="6.74725">
        <ele>1603.8</ele>
        <time>2022-06-12T07:13:27Z</time>
      </trkpt>
      <trkpt lat="44.21987" lon="6.74723">
        <ele>1604.6</ele>
        <time>2022-06-12T07:13:28Z</time>
      </trkpt>
      <trkpt lat="44.21988" lon="6.7472">
        <ele>1605.1</ele>
        <time>2022-06-12T07:13:29Z</time>
      </trkpt>
      <trkpt lat="44.21989" lon="6.74717">
        <ele>1605.5</ele>
        <time>2022-06-12T07:13:30Z</time>
      </trkpt>
      <trkpt lat="44.2199" lon="6.74713">
        <ele>1605.7</ele>
        <time>2022-06-12T07:13:31Z</time>
      </trkpt>
      <trkpt lat="44.2199" lon="6.7471">
        <ele>1605.9</ele>
        <time>2022-06-12T07:13:32Z</time>
      </trkpt>
      <trkpt lat="44.21991" lon="6.74707">
        <ele>1606.2</ele>
        <time>2022-06-12T07:13:33Z</time>
      </trkpt>
      <trkpt lat="44.21992" lon="6.74704">
        <ele>1606.5</ele>
        <time>2022-06-12T07:13:34Z</time>
      </trkpt>
      <trkpt lat="44.21994" lon="6.74701">
        <ele>1606.8</ele>
        <time>2022-06-12T07:13:35Z</time>
      </trkpt>
      <trkpt lat="44.21995" lon="6.74698">
        <ele>1607.2</ele>
        <time>2022-06-12T07:13:36Z</time>
      </trkpt>
      <trkpt lat="44.21996" lon="6.74696">
        <ele>1607.5</ele>
        <time>2022-06-12T07:13:37Z</time>
      </trkpt>
      <trkpt lat="44.21997" lon="6.74693">
        <ele>1607.6</ele>
        <time>2022-06-12T07:13:38Z</time>
      </trkpt>
      <trkpt lat="44.21997" lon="6.7469">
        <ele>1607.5</ele>
        <time>2022-06-12T07:13:39Z</time>
      </trkpt>
      <trkpt lat="44.21997" lon="6.74687">
        <ele>1607.2</ele>
        <time>2022-06-12T07:13:40Z</time>
      </trkpt>
      <trkpt lat="44.21996" lon="6.74684">
        <ele>1606.8</ele>
        <time>2022-06-12T07:13:41Z</time>
      </trkpt>
      <trkpt lat="44.21996" lon="6.74681">
        <ele>1606.6</ele>
        <time>2022-06-12T07:13:42Z</time>
      </trkpt>
      <trkpt lat="44.21996" lon="6.74677">
        <ele>1606.4</ele>
        <time>2022-06-12T07:13:43Z</time>
      </trkpt>
      <trkpt lat="44.21996" lon="6.74674">
        <ele>1606.1</ele>
        <time>2022-06-12T07:13:44Z</time>
      </trkpt>
      <trkpt lat="44.21996" lon="6.7467">
        <ele>1605.9</ele>
        <time>2022-06-12T07:13:45Z</time>
      </trkpt>
      <trkpt lat="44.21996" lon="6.74667">
        <ele>1605.6</ele>
        <time>2022-06-12T07:13:46Z</time>
      </trkpt>
      <trkpt lat="44.21996" lon="6.74663">
        <ele>1606</ele>
        <time>2022-06-12T07:13:47Z</time>
      </trkpt>
      <trkpt lat="44.21996" lon="6.7466">
        <ele>1606.4</ele>
        <time>2022-06-12T07:13:48Z</time>
      </trkpt>
      <trkpt lat="44.21996" lon="6.74656">
        <ele>1606.9</ele>
        <time>2022-06-12T07:13:49Z</time>
      </trkpt>
      <trkpt lat="44.21996" lon="6.74653">
        <ele>1607.2</ele>
        <time>2022-06-12T07:13:50Z</time>
      </trkpt>
      <trkpt lat="44.21995" lon="6.74649">
        <ele>1607.4</ele>
        <time>2022-06-12T07:13:51Z</time>
      </trkpt>
      <trkpt lat="44.21995" lon="6.74645">
        <ele>1607.8</ele>
        <time>2022-06-12T07:13:52Z</time>
      </trkpt>
      <trkpt lat="44.21994" lon="6.74642">
        <ele>1608</ele>
        <time>2022-06-12T07:13:53Z</time>
      </trkpt>
      <trkpt lat="44.21994" lon="6.74639">
        <ele>1608</ele>
        <time>2022-06-12T07:13:54Z</time>
      </trkpt>
      <trkpt lat="44.21993" lon="6.74635">
        <ele>1608.3</ele>
        <time>2022-06-12T07:13:55Z</time>
      </trkpt>
      <trkpt lat="44.21991" lon="6.74632">
        <ele>1608.4</ele>
        <time>2022-06-12T07:13:56Z</time>
      </trkpt>
      <trkpt lat="44.2199" lon="6.74629">
        <ele>1608.6</ele>
        <time>2022-06-12T07:13:57Z</time>
      </trkpt>
      <trkpt lat="44.21989" lon="6.74625">
        <ele>1608.8</ele>
        <time>2022-06-12T07:13:58Z</time>
      </trkpt>
      <trkpt lat="44.21988" lon="6.74622">
        <ele>1608.9</ele>
        <time>2022-06-12T07:13:59Z</time>
      </trkpt>
      <trkpt lat="44.21987" lon="6.7462">
        <ele>1608.9</ele>
        <time>2022-06-12T07:14:00Z</time>
      </trkpt>
      <trkpt lat="44.21985" lon="6.74617">
        <ele>1608.6</ele>
        <time>2022-06-12T07:14:01Z</time>
      </trkpt>
      <trkpt lat="44.21982" lon="6.74615">
        <ele>1608.2</ele>
        <time>2022-06-12T07:14:02Z</time>
      </trkpt>
      <trkpt lat="44.2198" lon="6.74613">
        <ele>1607.5</ele>
        <time>2022-06-12T07:14:03Z</time>
      </trkpt>
      <trkpt lat="44.21977" lon="6.74611">
        <ele>1607</ele>
        <time>2022-06-12T07:14:04Z</time>
      </trkpt>
      <trkpt lat="44.21975" lon="6.74609">
        <ele>1606.7</ele>
        <time>2022-06-12T07:14:05Z</time>
      </trkpt>
      <trkpt lat="44.21974" lon="6.74607">
        <ele>1606.7</ele>
        <time>2022-06-12T07:14:06Z</time>
      </trkpt>
      <trkpt lat="44.21972" lon="6.74605">
        <ele>1606.8</ele>
        <time>2022-06-12T07:14:07Z</time>
      </trkpt>
      <trkpt lat="44.2197" lon="6.74603">
        <ele>1607.1</ele>
        <time>2022-06-12T07:14:08Z</time>
      </trkpt>
      <trkpt lat="44.21969" lon="6.746">
        <ele>1607.4</ele>
        <time>2022-06-12T07:14:09Z</time>
      </trkpt>
      <trkpt lat="44.21967" lon="6.74598">
        <ele>1607.5</ele>
        <time>2022-06-12T07:14:10Z</time>
      </trkpt>
      <trkpt lat="44.21966" lon="6.74597">
        <ele>1607.7</ele>
        <time>2022-06-12T07:14:11Z</time>
      </trkpt>
      <trkpt lat="44.21964" lon="6.74595">
        <ele>1607.9</ele>
        <time>2022-06-12T07:14:12Z</time>
      </trkpt>
      <trkpt lat="44.21961" lon="6.74593">
        <ele>1607.7</ele>
        <time>2022-06-12T07:14:13Z</time>
      </trkpt>
      <trkpt lat="44.21959" lon="6.74592">
        <ele>1607.6</ele>
        <time>2022-06-12T07:14:14Z</time>
      </trkpt>
      <trkpt lat="44.21956" lon="6.7459">
        <ele>1607.7</ele>
        <time>2022-06-12T07:14:15Z</time>
      </trkpt>
      <trkpt lat="44.21954" lon="6.74589">
        <ele>1607.8</ele>
        <time>2022-06-12T07:14:16Z</time>
      </trkpt>
      <trkpt lat="44.21952" lon="6.74587">
        <ele>1608.2</ele>
        <time>2022-06-12T07:14:17Z</time>
      </trkpt>
      <trkpt lat="44.2195" lon="6.74585">
        <ele>1608.6</ele>
        <time>2022-06-12T07:14:18Z</time>
      </trkpt>
      <trkpt lat="44.21948" lon="6.74583">
        <ele>1609</ele>
        <time>2022-06-12T07:14:19Z</time>
      </trkpt>
      <trkpt lat="44.21946" lon="6.74582">
        <ele>1609</ele>
        <time>2022-06-12T07:14:20Z</time>
      </trkpt>
      <trkpt lat="44.21944" lon="6.74581">
        <ele>1609</ele>
        <time>2022-06-12T07:14:21Z</time>
      </trkpt>
      <trkpt lat="44.21941" lon="6.7458">
        <ele>1609</ele>
        <time>2022-06-12T07:14:22Z</time>
      </trkpt>
      <trkpt lat="44.21939" lon="6.7458">
        <ele>1608.9</ele>
        <time>2022-06-12T07:14:23Z</time>
      </trkpt>
      <trkpt lat="44.21937" lon="6.7458">
        <ele>1608.8</ele>
        <time>2022-06-12T07:14:24Z</time>
      </trkpt>
      <trkpt lat="44.21934" lon="6.7458">
        <ele>1608.7</ele>
        <time>2022-06-12T07:14:25Z</time>
      </trkpt>
      <trkpt lat="44.21932" lon="6.74579">
        <ele>1608.8</ele>
        <time>2022-06-12T07:14:26Z</time>
      </trkpt>
      <trkpt lat="44.21929" lon="6.74578">
        <ele>1608.8</ele>
        <time>2022-06-12T07:14:27Z</time>
      </trkpt>
      <trkpt lat="44.21927" lon="6.74578">
        <ele>1608.8</ele>
        <time>2022-06-12T07:14:28Z</time>
      </trkpt>
      <trkpt lat="44.21925" lon="6.74577">
        <ele>1608.8</ele>
        <time>2022-06-12T07:14:29Z</time>
      </trkpt>
      <trkpt lat="44.21922" lon="6.74577">
        <ele>1608.8</ele>
        <time>2022-06-12T07:14:30Z</time>
      </trkpt>
      <trkpt lat="44.2192" lon="6.74576">
        <ele>1608.8</ele>
        <time>2022-06-12T07:14:31Z</time>
      </trkpt>
      <trkpt lat="44.21917" lon="6.74576">
        <ele>1608.8</ele>
        <time>2022-06-12T07:14:32Z</time>
      </trkpt>
      <trkpt lat="44.21915" lon="6.74575">
        <ele>1608</ele>
        <time>2022-06-12T07:14:33Z</time>
      </trkpt>
      <trkpt lat="44.21913" lon="6.74575">
        <ele>1606.9</ele>
        <time>2022-06-12T07:14:34Z</time>
      </trkpt>
      <trkpt lat="44.21911" lon="6.74574">
        <ele>1605.8</ele>
        <time>2022-06-12T07:14:35Z</time>
      </trkpt>
      <trkpt lat="44.21908" lon="6.74573">
        <ele>1604.8</ele>
        <time>2022-06-12T07:14:36Z</time>
      </trkpt>
      <trkpt lat="44.21906" lon="6.74573">
        <ele>1603.7</ele>
        <time>2022-06-12T07:14:37Z</time>
      </trkpt>
      <trkpt lat="44.21904" lon="6.74572">
        <ele>1602.6</ele>
        <time>2022-06-12T07:14:38Z</time>
      </trkpt>
      <trkpt lat="44.21901" lon="6.74572">
        <ele>1601.3</ele>
        <time>2022-06-12T07:14:39Z</time>
      </trkpt>
      <trkpt lat="44.21899" lon="6.74571">
        <ele>1600</ele>
        <time>2022-06-12T07:14:40Z</time>
      </trkpt>
      <trkpt lat="44.21896" lon="6.74571">
        <ele>1598.6</ele>
        <time>2022-06-12T07:14:41Z</time>
      </trkpt>
      <trkpt lat="44.21894" lon="6.74571">
        <ele>1597.6</ele>
        <time>2022-06-12T07:14:42Z</time>
      </trkpt>
      <trkpt lat="44.21892" lon="6.7457">
        <ele>1596.5</ele>
        <time>2022-06-12T07:14:43Z</time>
      </trkpt>
      <trkpt lat="44.2189" lon="6.74568">
        <ele>1595.9</ele>
        <time>2022-06-12T07:14:44Z</time>
      </trkpt>
      <trkpt lat="44.21888" lon="6.74566">
        <ele>1594.6</ele>
        <time>2022-06-12T07:14:45Z</time>
      </trkpt>
      <trkpt lat="44.21886" lon="6.74564">
        <ele>1593.3</ele>
        <time>2022-06-12T07:14:46Z</time>
      </trkpt>
      <trkpt lat="44.21885" lon="6.74561">
        <ele>1592.7</ele>
        <time>2022-06-12T07:14:47Z</time>
      </trkpt>
      <trkpt lat="44.21884" lon="6.74558">
        <ele>1592.7</ele>
        <time>2022-06-12T07:14:48Z</time>
      </trkpt>
      <trkpt lat="44.21884" lon="6.74555">
        <ele>1593.4</ele>
        <time>2022-06-12T07:14:49Z</time>
      </trkpt>
      <trkpt lat="44.21884" lon="6.74551">
        <ele>1595</ele>
        <time>2022-06-12T07:14:50Z</time>
      </trkpt>
      <trkpt lat="44.21885" lon="6.74548">
        <ele>1597.1</ele>
        <time>2022-06-12T07:14:51Z</time>
      </trkpt>
      <trkpt lat="44.21886" lon="6.74546">
        <ele>1599.5</ele>
        <time>2022-06-12T07:14:52Z</time>
      </trkpt>
      <trkpt lat="44.21888" lon="6.74543">
        <ele>1602.5</ele>
        <time>2022-06-12T07:14:53Z</time>
      </trkpt>
      <trkpt lat="44.2189" lon="6.74541">
        <ele>1605.1</ele>
        <time>2022-06-12T07:14:54Z</time>
      </trkpt>
      <trkpt lat="44.21892" lon="6.74539">
        <ele>1607</ele>
        <time>2022-06-12T07:14:55Z</time>
      </trkpt>
      <trkpt lat="44.21894" lon="6.74538">
        <ele>1608.7</ele>
        <time>2022-06-12T07:14:56Z</time>
      </trkpt>
      <trkpt lat="44.21896" lon="6.74538">
        <ele>1610.1</ele>
        <time>2022-06-12T07:14:57Z</time>
      </trkpt>
      <trkpt lat="44.21899" lon="6.74539">
        <ele>1611</ele>
        <time>2022-06-12T07:14:58Z</time>
      </trkpt>
      <trkpt lat="44.21901" lon="6.7454">
        <ele>1611.8</ele>
        <time>2022-06-12T07:14:59Z</time>
      </trkpt>
      <trkpt lat="44.21903" lon="6.74542">
        <ele>1612.3</ele>
        <time>2022-06-12T07:15:00Z</time>
      </trkpt>
      <trkpt lat="44.21905" lon="6.74544">
        <ele>1612.7</ele>
        <time>2022-06-12T07:15:01Z</time>
      </trkpt>
      <trkpt lat="44.21906" lon="6.74546">
        <ele>1612.9</ele>
        <time>2022-06-12T07:15:02Z</time>
      </trkpt>
      <trkpt lat="44.21908" lon="6.74548">
        <ele>1613</ele>
        <time>2022-06-12T07:15:03Z</time>
      </trkpt>
      <trkpt lat="44.21909" lon="6.74551">
        <ele>1613.2</ele>
        <time>2022-06-12T07:15:04Z</time>
      </trkpt>
      <trkpt lat="44.21911" lon="6.74552">
        <ele>1613.7</ele>
        <time>2022-06-12T07:15:05Z</time>
      </trkpt>
      <trkpt lat="44.21913" lon="6.74554">
        <ele>1614.4</ele>
        <time>2022-06-12T07:15:06Z</time>
      </trkpt>
      <trkpt lat="44.21915" lon="6.74555">
        <ele>1615.1</ele>
        <time>2022-06-12T07:15:07Z</time>
      </trkpt>
      <trkpt lat="44.21917" lon="6.74557">
        <ele>1615.7</ele>
        <time>2022-06-12T07:15:08Z</time>
      </trkpt>
      <trkpt lat="44.2192" lon="6.74557">
        <ele>1615.7</ele>
        <time>2022-06-12T07:15:09Z</time>
      </trkpt>
      <trkpt lat="44.21922" lon="6.74558">
        <ele>1615.8</ele>
        <time>2022-06-12T07:15:10Z</time>
      </trkpt>
      <trkpt lat="44.21924" lon="6.74558">
        <ele>1615.8</ele>
        <time>2022-06-12T07:15:11Z</time>
      </trkpt>
      <trkpt lat="44.21927" lon="6.74559">
        <ele>1615.9</ele>
        <time>2022-06-12T07:15:12Z</time>
      </trkpt>
      <trkpt lat="44.21929" lon="6.74559">
        <ele>1616</ele>
        <time>2022-06-12T07:15:13Z</time>
      </trkpt>
      <trkpt lat="44.21931" lon="6.74559">
        <ele>1616.1</ele>
        <time>2022-06-12T07:15:14Z</time>
      </trkpt>
      <trkpt lat="44.21933" lon="6.7456">
        <ele>1616.2</ele>
        <time>2022-06-12T07:15:15Z</time>
      </trkpt>
      <trkpt lat="44.21935" lon="6.7456">
        <ele>1616.4</ele>
        <time>2022-06-12T07:15:16Z</time>
      </trkpt>
      <trkpt lat="44.21937" lon="6.7456">
        <ele>1616.4</ele>
        <time>2022-06-12T07:15:17Z</time>
      </trkpt>
      <trkpt lat="44.2194" lon="6.74561">
        <ele>1616.5</ele>
        <time>2022-06-12T07:15:18Z</time>
      </trkpt>
      <trkpt lat="44.21942" lon="6.74561">
        <ele>1616.6</ele>
        <time>2022-06-12T07:15:19Z</time>
      </trkpt>
      <trkpt lat="44.21945" lon="6.74561">
        <ele>1616.8</ele>
        <time>2022-06-12T07:15:20Z</time>
      </trkpt>
      <trkpt lat="44.21947" lon="6.74561">
        <ele>1617.2</ele>
        <time>2022-06-12T07:15:21Z</time>
      </trkpt>
      <trkpt lat="44.21949" lon="6.74562">
        <ele>1617.3</ele>
        <time>2022-06-12T07:15:22Z</time>
      </trkpt>
      <trkpt lat="44.21951" lon="6.74563">
        <ele>1617.3</ele>
        <time>2022-06-12T07:15:23Z</time>
      </trkpt>
      <trkpt lat="44.21954" lon="6.74564">
        <ele>1617.5</ele>
        <time>2022-06-12T07:15:24Z</time>
      </trkpt>
      <trkpt lat="44.21956" lon="6.74564">
        <ele>1617.7</ele>
        <time>2022-06-12T07:15:25Z</time>
      </trkpt>
      <trkpt lat="44.21958" lon="6.74565">
        <ele>1618</ele>
        <time>2022-06-12T07:15:26Z</time>
      </trkpt>
      <trkpt lat="44.21961" lon="6.74565">
        <ele>1618.3</ele>
        <time>2022-06-12T07:15:27Z</time>
      </trkpt>
      <trkpt lat="44.21963" lon="6.74565">
        <ele>1618.7</ele>
        <time>2022-06-12T07:15:28Z</time>
      </trkpt>
      <trkpt lat="44.21966" lon="6.74566">
        <ele>1619.1</ele>
        <time>2022-06-12T07:15:29Z</time>
      </trkpt>
      <trkpt lat="44.21968" lon="6.74565">
        <ele>1619.7</ele>
        <time>2022-06-12T07:15:30Z</time>
      </trkpt>
      <trkpt lat="44.21971" lon="6.74565">
        <ele>1620.2</ele>
        <time>2022-06-12T07:15:31Z</time>
      </trkpt>
      <trkpt lat="44.21973" lon="6.74565">
        <ele>1620.8</ele>
        <time>2022-06-12T07:15:32Z</time>
      </trkpt>
      <trkpt lat="44.21975" lon="6.74566">
        <ele>1621.4</ele>
        <time>2022-06-12T07:15:33Z</time>
      </trkpt>
      <trkpt lat="44.21978" lon="6.74566">
        <ele>1622.1</ele>
        <time>2022-06-12T07:15:34Z</time>
      </trkpt>
      <trkpt lat="44.2198" lon="6.74567">
        <ele>1622.7</ele>
        <time>2022-06-12T07:15:35Z</time>
      </trkpt>
      <trkpt lat="44.21982" lon="6.74567">
        <ele>1623.3</ele>
        <time>2022-06-12T07:15:36Z</time>
      </trkpt>
      <trkpt lat="44.21985" lon="6.74568">
        <ele>1623.8</ele>
        <time>2022-06-12T07:15:37Z</time>
      </trkpt>
      <trkpt lat="44.21987" lon="6.74569">
        <ele>1624.3</ele>
        <time>2022-06-12T07:15:38Z</time>
      </trkpt>
      <trkpt lat="44.21989" lon="6.7457">
        <ele>1624.7</ele>
        <time>2022-06-12T07:15:39Z</time>
      </trkpt>
      <trkpt lat="44.21992" lon="6.74571">
        <ele>1625.2</ele>
        <time>2022-06-12T07:15:40Z</time>
      </trkpt>
      <trkpt lat="44.21994" lon="6.74572">
        <ele>1625.8</ele>
        <time>2022-06-12T07:15:41Z</time>
      </trkpt>
      <trkpt lat="44.21996" lon="6.74573">
        <ele>1626.2</ele>
        <time>2022-06-12T07:15:42Z</time>
      </trkpt>
      <trkpt lat="44.21999" lon="6.74574">
        <ele>1626.7</ele>
        <time>2022-06-12T07:15:43Z</time>
      </trkpt>
      <trkpt lat="44.22001" lon="6.74575">
        <ele>1627.2</ele>
        <time>2022-06-12T07:15:44Z</time>
      </trkpt>
      <trkpt lat="44.22003" lon="6.74576">
        <ele>1627.5</ele>
        <time>2022-06-12T07:15:45Z</time>
      </trkpt>
      <trkpt lat="44.22005" lon="6.74578">
        <ele>1627.8</ele>
        <time>2022-06-12T07:15:46Z</time>
      </trkpt>
      <trkpt lat="44.22008" lon="6.74579">
        <ele>1628.3</ele>
        <time>2022-06-12T07:15:47Z</time>
      </trkpt>
      <trkpt lat="44.2201" lon="6.74581">
        <ele>1628.6</ele>
        <time>2022-06-12T07:15:48Z</time>
      </trkpt>
      <trkpt lat="44.22012" lon="6.74582">
        <ele>1628.9</ele>
        <time>2022-06-12T07:15:49Z</time>
      </trkpt>
      <trkpt lat="44.22014" lon="6.74584">
        <ele>1629.1</ele>
        <time>2022-06-12T07:15:50Z</time>
      </trkpt>
      <trkpt lat="44.22016" lon="6.74586">
        <ele>1629.4</ele>
        <time>2022-06-12T07:15:51Z</time>
      </trkpt>
      <trkpt lat="44.22017" lon="6.74588">
        <ele>1629.7</ele>
        <time>2022-06-12T07:15:52Z</time>
      </trkpt>
      <trkpt lat="44.22019" lon="6.7459">
        <ele>1629.9</ele>
        <time>2022-06-12T07:15:53Z</time>
      </trkpt>
      <trkpt lat="44.22021" lon="6.74593">
        <ele>1630</ele>
        <time>2022-06-12T07:15:54Z</time>
      </trkpt>
      <trkpt lat="44.22022" lon="6.74595">
        <ele>1630.1</ele>
        <time>2022-06-12T07:15:55Z</time>
      </trkpt>
      <trkpt lat="44.22024" lon="6.74598">
        <ele>1630.1</ele>
        <time>2022-06-12T07:15:56Z</time>
      </trkpt>
      <trkpt lat="44.22025" lon="6.746">
        <ele>1630.3</ele>
        <time>2022-06-12T07:15:57Z</time>
      </trkpt>
      <trkpt lat="44.22027" lon="6.74602">
        <ele>1630.4</ele>
        <time>2022-06-12T07:15:58Z</time>
      </trkpt>
      <trkpt lat="44.22028" lon="6.74605">
        <ele>1630.5</ele>
        <time>2022-06-12T07:15:59Z</time>
      </trkpt>
      <trkpt lat="44.22029" lon="6.74608">
        <ele>1630.4</ele>
        <time>2022-06-12T07:16:00Z</time>
      </trkpt>
      <trkpt lat="44.22031" lon="6.7461">
        <ele>1630.3</ele>
        <time>2022-06-12T07:16:01Z</time>
      </trkpt>
      <trkpt lat="44.22032" lon="6.74613">
        <ele>1630.1</ele>
        <time>2022-06-12T07:16:02Z</time>
      </trkpt>
      <trkpt lat="44.22033" lon="6.74616">
        <ele>1630</ele>
        <time>2022-06-12T07:16:03Z</time>
      </trkpt>
      <trkpt lat="44.22034" lon="6.74619">
        <ele>1629.9</ele>
        <time>2022-06-12T07:16:04Z</time>
      </trkpt>
      <trkpt lat="44.22035" lon="6.74621">
        <ele>1629.9</ele>
        <time>2022-06-12T07:16:05Z</time>
      </trkpt>
      <trkpt lat="44.22037" lon="6.74624">
        <ele>1629.9</ele>
        <time>2022-06-12T07:16:06Z</time>
      </trkpt>
      <trkpt lat="44.22038" lon="6.74627">
        <ele>1629.8</ele>
        <time>2022-06-12T07:16:07Z</time>
      </trkpt>
      <trkpt lat="44.2204" lon="6.7463">
        <ele>1630</ele>
        <time>2022-06-12T07:16:08Z</time>
      </trkpt>
      <trkpt lat="44.22042" lon="6.74633">
        <ele>1630</ele>
        <time>2022-06-12T07:16:09Z</time>
      </trkpt>
      <trkpt lat="44.22043" lon="6.74636">
        <ele>1630</ele>
        <time>2022-06-12T07:16:10Z</time>
      </trkpt>
      <trkpt lat="44.22044" lon="6.74639">
        <ele>1630</ele>
        <time>2022-06-12T07:16:11Z</time>
      </trkpt>
      <trkpt lat="44.22046" lon="6.74642">
        <ele>1630.2</ele>
        <time>2022-06-12T07:16:12Z</time>
      </trkpt>
      <trkpt lat="44.22047" lon="6.74645">
        <ele>1630.3</ele>
        <time>2022-06-12T07:16:13Z</time>
      </trkpt>
      <trkpt lat="44.22049" lon="6.74648">
        <ele>1630.7</ele>
        <time>2022-06-12T07:16:14Z</time>
      </trkpt>
      <trkpt lat="44.2205" lon="6.74651">
        <ele>1630.9</ele>
        <time>2022-06-12T07:16:15Z</time>
      </trkpt>
      <trkpt lat="44.22051" lon="6.74654">
        <ele>1631</ele>
        <time>2022-06-12T07:16:16Z</time>
      </trkpt>
      <trkpt lat="44.22053" lon="6.74657">
        <ele>1631.2</ele>
        <time>2022-06-12T07:16:17Z</time>
      </trkpt>
      <trkpt lat="44.22054" lon="6.74659">
        <ele>1631.2</ele>
        <time>2022-06-12T07:16:18Z</time>
      </trkpt>
      <trkpt lat="44.22055" lon="6.74662">
        <ele>1631.2</ele>
        <time>2022-06-12T07:16:19Z</time>
      </trkpt>
      <trkpt lat="44.22056" lon="6.74665">
        <ele>1631.2</ele>
        <time>2022-06-12T07:16:20Z</time>
      </trkpt>
      <trkpt lat="44.22057" lon="6.74668">
        <ele>1631.4</ele>
        <time>2022-06-12T07:16:21Z</time>
      </trkpt>
      <trkpt lat="44.22058" lon="6.74671">
        <ele>1631.6</ele>
        <time>2022-06-12T07:16:22Z</time>
      </trkpt>
      <trkpt lat="44.22059" lon="6.74674">
        <ele>1631.6</ele>
        <time>2022-06-12T07:16:23Z</time>
      </trkpt>
      <trkpt lat="44.2206" lon="6.74677">
        <ele>1631.9</ele>
        <time>2022-06-12T07:16:24Z</time>
      </trkpt>
      <trkpt lat="44.22061" lon="6.7468">
        <ele>1632.2</ele>
        <time>2022-06-12T07:16:25Z</time>
      </trkpt>
      <trkpt lat="44.22063" lon="6.74682">
        <ele>1632.6</ele>
        <time>2022-06-12T07:16:26Z</time>
      </trkpt>
      <trkpt lat="44.22064" lon="6.74685">
        <ele>1632.9</ele>
        <time>2022-06-12T07:16:27Z</time>
      </trkpt>
      <trkpt lat="44.22066" lon="6.74688">
        <ele>1633.2</ele>
        <time>2022-06-12T07:16:28Z</time>
      </trkpt>
      <trkpt lat="44.22067" lon="6.74691">
        <ele>1633.5</ele>
        <time>2022-06-12T07:16:29Z</time>
      </trkpt>
      <trkpt lat="44.22069" lon="6.74694">
        <ele>1633.8</ele>
        <time>2022-06-12T07:16:30Z</time>
      </trkpt>
      <trkpt lat="44.2207" lon="6.74697">
        <ele>1634.2</ele>
        <time>2022-06-12T07:16:31Z</time>
      </trkpt>
      <trkpt lat="44.22072" lon="6.74699">
        <ele>1634.4</ele>
        <time>2022-06-12T07:16:32Z</time>
      </trkpt>
      <trkpt lat="44.22073" lon="6.74702">
        <ele>1634.7</ele>
        <time>2022-06-12T07:16:33Z</time>
      </trkpt>
      <trkpt lat="44.22075" lon="6.74705">
        <ele>1635.1</ele>
        <time>2022-06-12T07:16:34Z</time>
      </trkpt>
      <trkpt lat="44.22076" lon="6.74707">
        <ele>1635.4</ele>
        <time>2022-06-12T07:16:35Z</time>
      </trkpt>
      <trkpt lat="44.22078" lon="6.7471">
        <ele>1635.8</ele>
        <time>2022-06-12T07:16:36Z</time>
      </trkpt>
      <trkpt lat="44.22079" lon="6.74713">
        <ele>1636.1</ele>
        <time>2022-06-12T07:16:37Z</time>
      </trkpt>
      <trkpt lat="44.22081" lon="6.74715">
        <ele>1636.5</ele>
        <time>2022-06-12T07:16:38Z</time>
      </trkpt>
      <trkpt lat="44.22082" lon="6.74718">
        <ele>1636.9</ele>
        <time>2022-06-12T07:16:39Z</time>
      </trkpt>
      <trkpt lat="44.22084" lon="6.7472">
        <ele>1637.2</ele>
        <time>2022-06-12T07:16:40Z</time>
      </trkpt>
      <trkpt lat="44.22085" lon="6.74723">
        <ele>1637.4</ele>
        <time>2022-06-12T07:16:41Z</time>
      </trkpt>
      <trkpt lat="44.22087" lon="6.74725">
        <ele>1637.6</ele>
        <time>2022-06-12T07:16:42Z</time>
      </trkpt>
      <trkpt lat="44.22089" lon="6.74727">
        <ele>1638</ele>
        <time>2022-06-12T07:16:43Z</time>
      </trkpt>
      <trkpt lat="44.22091" lon="6.74729">
        <ele>1638.3</ele>
        <time>2022-06-12T07:16:44Z</time>
      </trkpt>
      <trkpt lat="44.22092" lon="6.74731">
        <ele>1638.6</ele>
        <time>2022-06-12T07:16:45Z</time>
      </trkpt>
      <trkpt lat="44.22094" lon="6.74733">
        <ele>1638.9</ele>
        <time>2022-06-12T07:16:46Z</time>
      </trkpt>
      <trkpt lat="44.22096" lon="6.74735">
        <ele>1639.3</ele>
        <time>2022-06-12T07:16:47Z</time>
      </trkpt>
      <trkpt lat="44.22098" lon="6.74737">
        <ele>1639.6</ele>
        <time>2022-06-12T07:16:48Z</time>
      </trkpt>
      <trkpt lat="44.221" lon="6.74739">
        <ele>1640.1</ele>
        <time>2022-06-12T07:16:49Z</time>
      </trkpt>
      <trkpt lat="44.22102" lon="6.74741">
        <ele>1640.4</ele>
        <time>2022-06-12T07:16:50Z</time>
      </trkpt>
      <trkpt lat="44.22104" lon="6.74743">
        <ele>1640.9</ele>
        <time>2022-06-12T07:16:51Z</time>
      </trkpt>
      <trkpt lat="44.22105" lon="6.74745">
        <ele>1641.3</ele>
        <time>2022-06-12T07:16:52Z</time>
      </trkpt>
      <trkpt lat="44.22107" lon="6.74747">
        <ele>1641.8</ele>
        <time>2022-06-12T07:16:53Z</time>
      </trkpt>
      <trkpt lat="44.22109" lon="6.74749">
        <ele>1642.2</ele>
        <time>2022-06-12T07:16:54Z</time>
      </trkpt>
      <trkpt lat="44.22111" lon="6.74751">
        <ele>1642.6</ele>
        <time>2022-06-12T07:16:55Z</time>
      </trkpt>
      <trkpt lat="44.22113" lon="6.74753">
        <ele>1642.6</ele>
        <time>2022-06-12T07:16:56Z</time>
      </trkpt>
      <trkpt lat="44.22114" lon="6.74755">
        <ele>1642.5</ele>
        <time>2022-06-12T07:16:57Z</time>
      </trkpt>
      <trkpt lat="44.22116" lon="6.74757">
        <ele>1642.3</ele>
        <time>2022-06-12T07:16:58Z</time>
      </trkpt>
      <trkpt lat="44.22117" lon="6.74759">
        <ele>1642.2</ele>
        <time>2022-06-12T07:16:59Z</time>
      </trkpt>
      <trkpt lat="44.22118" lon="6.74761">
        <ele>1642.1</ele>
        <time>2022-06-12T07:17:00Z</time>
      </trkpt>
      <trkpt lat="44.2212" lon="6.74763">
        <ele>1642.2</ele>
        <time>2022-06-12T07:17:01Z</time>
      </trkpt>
      <trkpt lat="44.22122" lon="6.74765">
        <ele>1642.3</ele>
        <time>2022-06-12T07:17:02Z</time>
      </trkpt>
      <trkpt lat="44.22123" lon="6.74768">
        <ele>1642.3</ele>
        <time>2022-06-12T07:17:03Z</time>
      </trkpt>
      <trkpt lat="44.22125" lon="6.7477">
        <ele>1642.4</ele>
        <time>2022-06-12T07:17:04Z</time>
      </trkpt>
      <trkpt lat="44.22127" lon="6.74772">
        <ele>1642.5</ele>
        <time>2022-06-12T07:17:05Z</time>
      </trkpt>
      <trkpt lat="44.22128" lon="6.74774">
        <ele>1642.7</ele>
        <time>2022-06-12T07:17:06Z</time>
      </trkpt>
      <trkpt lat="44.2213" lon="6.74776">
        <ele>1643</ele>
        <time>2022-06-12T07:17:07Z</time>
      </trkpt>
      <trkpt lat="44.22132" lon="6.74779">
        <ele>1643.1</ele>
        <time>2022-06-12T07:17:08Z</time>
      </trkpt>
      <trkpt lat="44.22134" lon="6.74781">
        <ele>1642.9</ele>
        <time>2022-06-12T07:17:09Z</time>
      </trkpt>
      <trkpt lat="44.22136" lon="6.74783">
        <ele>1642.8</ele>
        <time>2022-06-12T07:17:10Z</time>
      </trkpt>
      <trkpt lat="44.22137" lon="6.74784">
        <ele>1642.6</ele>
        <time>2022-06-12T07:17:11Z</time>
      </trkpt>
      <trkpt lat="44.22139" lon="6.74786">
        <ele>1642.5</ele>
        <time>2022-06-12T07:17:12Z</time>
      </trkpt>
      <trkpt lat="44.22141" lon="6.74788">
        <ele>1642.3</ele>
        <time>2022-06-12T07:17:13Z</time>
      </trkpt>
      <trkpt lat="44.22143" lon="6.7479">
        <ele>1642.1</ele>
        <time>2022-06-12T07:17:14Z</time>
      </trkpt>
      <trkpt lat="44.22146" lon="6.74791">
        <ele>1642</ele>
        <time>2022-06-12T07:17:15Z</time>
      </trkpt>
      <trkpt lat="44.22147" lon="6.74793">
        <ele>1642</ele>
        <time>2022-06-12T07:17:16Z</time>
      </trkpt>
      <trkpt lat="44.22149" lon="6.74794">
        <ele>1641.9</ele>
        <time>2022-06-12T07:17:17Z</time>
      </trkpt>
      <trkpt lat="44.22151" lon="6.74796">
        <ele>1641.7</ele>
        <time>2022-06-12T07:17:18Z</time>
      </trkpt>
      <trkpt lat="44.22153" lon="6.74798">
        <ele>1641.7</ele>
        <time>2022-06-12T07:17:19Z</time>
      </trkpt>
      <trkpt lat="44.22155" lon="6.74799">
        <ele>1641.9</ele>
        <time>2022-06-12T07:17:20Z</time>
      </trkpt>
      <trkpt lat="44.22157" lon="6.74801">
        <ele>1642</ele>
        <time>2022-06-12T07:17:21Z</time>
      </trkpt>
      <trkpt lat="44.2216" lon="6.74802">
        <ele>1642.5</ele>
        <time>2022-06-12T07:17:22Z</time>
      </trkpt>
      <trkpt lat="44.22162" lon="6.74803">
        <ele>1643.1</ele>
        <time>2022-06-12T07:17:23Z</time>
      </trkpt>
      <trkpt lat="44.22164" lon="6.74803">
        <ele>1643.8</ele>
        <time>2022-06-12T07:17:24Z</time>
      </trkpt>
      <trkpt lat="44.22167" lon="6.74803">
        <ele>1644.6</ele>
        <time>2022-06-12T07:17:25Z</time>
      </trkpt>
      <trkpt lat="44.22169" lon="6.74804">
        <ele>1645</ele>
        <time>2022-06-12T07:17:26Z</time>
      </trkpt>
      <trkpt lat="44.22172" lon="6.74804">
        <ele>1645.5</ele>
        <time>2022-06-12T07:17:27Z</time>
      </trkpt>
      <trkpt lat="44.22174" lon="6.74804">
        <ele>1645.9</ele>
        <time>2022-06-12T07:17:28Z</time>
      </trkpt>
      <trkpt lat="44.22176" lon="6.74804">
        <ele>1646.3</ele>
        <time>2022-06-12T07:17:29Z</time>
      </trkpt>
      <trkpt lat="44.22178" lon="6.74805">
        <ele>1646.6</ele>
        <time>2022-06-12T07:17:30Z</time>
      </trkpt>
      <trkpt lat="44.2218" lon="6.74805">
        <ele>1647</ele>
        <time>2022-06-12T07:17:31Z</time>
      </trkpt>
      <trkpt lat="44.22183" lon="6.74806">
        <ele>1647.3</ele>
        <time>2022-06-12T07:17:32Z</time>
      </trkpt>
      <trkpt lat="44.22185" lon="6.74807">
        <ele>1647.5</ele>
        <time>2022-06-12T07:17:33Z</time>
      </trkpt>
      <trkpt lat="44.22188" lon="6.74807">
        <ele>1647.8</ele>
        <time>2022-06-12T07:17:34Z</time>
      </trkpt>
      <trkpt lat="44.2219" lon="6.74807">
        <ele>1648.1</ele>
        <time>2022-06-12T07:17:35Z</time>
      </trkpt>
      <trkpt lat="44.22193" lon="6.74808">
        <ele>1648.4</ele>
        <time>2022-06-12T07:17:36Z</time>
      </trkpt>
      <trkpt lat="44.22195" lon="6.74809">
        <ele>1648.3</ele>
        <time>2022-06-12T07:17:37Z</time>
      </trkpt>
      <trkpt lat="44.22198" lon="6.74809">
        <ele>1648.4</ele>
        <time>2022-06-12T07:17:38Z</time>
      </trkpt>
      <trkpt lat="44.222" lon="6.7481">
        <ele>1648.4</ele>
        <time>2022-06-12T07:17:39Z</time>
      </trkpt>
      <trkpt lat="44.22203" lon="6.7481">
        <ele>1648.4</ele>
        <time>2022-06-12T07:17:40Z</time>
      </trkpt>
      <trkpt lat="44.22205" lon="6.74811">
        <ele>1648.4</ele>
        <time>2022-06-12T07:17:41Z</time>
      </trkpt>
      <trkpt lat="44.22208" lon="6.74811">
        <ele>1648.5</ele>
        <time>2022-06-12T07:17:42Z</time>
      </trkpt>
      <trkpt lat="44.2221" lon="6.74812">
        <ele>1648.5</ele>
        <time>2022-06-12T07:17:43Z</time>
      </trkpt>
      <trkpt lat="44.22213" lon="6.74813">
        <ele>1648.2</ele>
        <time>2022-06-12T07:17:44Z</time>
      </trkpt>
      <trkpt lat="44.22215" lon="6.74814">
        <ele>1648</ele>
        <time>2022-06-12T07:17:45Z</time>
      </trkpt>
      <trkpt lat="44.22217" lon="6.74814">
        <ele>1648.2</ele>
        <time>2022-06-12T07:17:46Z</time>
      </trkpt>
      <trkpt lat="44.2222" lon="6.74814">
        <ele>1648.4</ele>
        <time>2022-06-12T07:17:47Z</time>
      </trkpt>
      <trkpt lat="44.22222" lon="6.74814">
        <ele>1648.6</ele>
        <time>2022-06-12T07:17:48Z</time>
      </trkpt>
      <trkpt lat="44.22225" lon="6.74814">
        <ele>1648.9</ele>
        <time>2022-06-12T07:17:49Z</time>
      </trkpt>
      <trkpt lat="44.22227" lon="6.74815">
        <ele>1649</ele>
        <time>2022-06-12T07:17:50Z</time>
      </trkpt>
      <trkpt lat="44.2223" lon="6.74814">
        <ele>1649.4</ele>
        <time>2022-06-12T07:17:51Z</time>
      </trkpt>
      <trkpt lat="44.22232" lon="6.74815">
        <ele>1649.5</ele>
        <time>2022-06-12T07:17:52Z</time>
      </trkpt>
      <trkpt lat="44.22234" lon="6.74815">
        <ele>1649.6</ele>
        <time>2022-06-12T07:17:53Z</time>
      </trkpt>
      <trkpt lat="44.22237" lon="6.74815">
        <ele>1649.7</ele>
        <time>2022-06-12T07:17:54Z</time>
      </trkpt>
      <trkpt lat="44.22239" lon="6.74816">
        <ele>1649.7</ele>
        <time>2022-06-12T07:17:55Z</time>
      </trkpt>
      <trkpt lat="44.22242" lon="6.74816">
        <ele>1649.8</ele>
        <time>2022-06-12T07:17:56Z</time>
      </trkpt>
      <trkpt lat="44.22245" lon="6.74817">
        <ele>1650</ele>
        <time>2022-06-12T07:17:57Z</time>
      </trkpt>
      <trkpt lat="44.22247" lon="6.74817">
        <ele>1650.3</ele>
        <time>2022-06-12T07:17:58Z</time>
      </trkpt>
      <trkpt lat="44.2225" lon="6.74817">
        <ele>1650.6</ele>
        <time>2022-06-12T07:17:59Z</time>
      </trkpt>
      <trkpt lat="44.22252" lon="6.74816">
        <ele>1650.9</ele>
        <time>2022-06-12T07:18:00Z</time>
      </trkpt>
      <trkpt lat="44.22255" lon="6.74816">
        <ele>1651.2</ele>
        <time>2022-06-12T07:18:01Z</time>
      </trkpt>
      <trkpt lat="44.22257" lon="6.74816">
        <ele>1651.5</ele>
        <time>2022-06-12T07:18:02Z</time>
      </trkpt>
      <trkpt lat="44.22259" lon="6.74815">
        <ele>1651.8</ele>
        <time>2022-06-12T07:18:03Z</time>
      </trkpt>
      <trkpt lat="44.22262" lon="6.74815">
        <ele>1652.1</ele>
        <time>2022-06-12T07:18:04Z</time>
      </trkpt>
      <trkpt lat="44.22264" lon="6.74815">
        <ele>1652.4</ele>
        <time>2022-06-12T07:18:05Z</time>
      </trkpt>
      <trkpt lat="44.22267" lon="6.74815">
        <ele>1652.7</ele>
        <time>2022-06-12T07:18:06Z</time>
      </trkpt>
      <trkpt lat="44.22269" lon="6.74814">
        <ele>1652.9</ele>
        <time>2022-06-12T07:18:07Z</time>
      </trkpt>
      <trkpt lat="44.22272" lon="6.74814">
        <ele>1653.2</ele>
        <time>2022-06-12T07:18:08Z</time>
      </trkpt>
      <trkpt lat="44.22274" lon="6.74814">
        <ele>1653.5</ele>
        <time>2022-06-12T07:18:09Z</time>
      </trkpt>
      <trkpt lat="44.22277" lon="6.74813">
        <ele>1653.8</ele>
        <time>2022-06-12T07:18:10Z</time>
      </trkpt>
      <trkpt lat="44.22279" lon="6.74813">
        <ele>1654.1</ele>
        <time>2022-06-12T07:18:11Z</time>
      </trkpt>
      <trkpt lat="44.22281" lon="6.74813">
        <ele>1654.2</ele>
        <time>2022-06-12T07:18:12Z</time>
      </trkpt>
      <trkpt lat="44.22283" lon="6.74813">
        <ele>1654.3</ele>
        <time>2022-06-12T07:18:13Z</time>
      </trkpt>
      <trkpt lat="44.22286" lon="6.74813">
        <ele>1654.5</ele>
        <time>2022-06-12T07:18:14Z</time>
      </trkpt>
      <trkpt lat="44.22288" lon="6.74813">
        <ele>1654.7</ele>
        <time>2022-06-12T07:18:15Z</time>
      </trkpt>
      <trkpt lat="44.22291" lon="6.74812">
        <ele>1655</ele>
        <time>2022-06-12T07:18:16Z</time>
      </trkpt>
      <trkpt lat="44.22293" lon="6.74812">
        <ele>1655.3</ele>
        <time>2022-06-12T07:18:17Z</time>
      </trkpt>
      <trkpt lat="44.22296" lon="6.74811">
        <ele>1655.7</ele>
        <time>2022-06-12T07:18:18Z</time>
      </trkpt>
      <trkpt lat="44.22298" lon="6.74811">
        <ele>1656</ele>
        <time>2022-06-12T07:18:19Z</time>
      </trkpt>
      <trkpt lat="44.223" lon="6.7481">
        <ele>1656.2</ele>
        <time>2022-06-12T07:18:20Z</time>
      </trkpt>
      <trkpt lat="44.22302" lon="6.74811">
        <ele>1656.2</ele>
        <time>2022-06-12T07:18:21Z</time>
      </trkpt>
      <trkpt lat="44.22305" lon="6.74811">
        <ele>1656.3</ele>
        <time>2022-06-12T07:18:22Z</time>
      </trkpt>
      <trkpt lat="44.22307" lon="6.74811">
        <ele>1656.4</ele>
        <time>2022-06-12T07:18:23Z</time>
      </trkpt>
      <trkpt lat="44.2231" lon="6.74811">
        <ele>1656.5</ele>
        <time>2022-06-12T07:18:24Z</time>
      </trkpt>
      <trkpt lat="44.22312" lon="6.74811">
        <ele>1656.8</ele>
        <time>2022-06-12T07:18:25Z</time>
      </trkpt>
      <trkpt lat="44.22315" lon="6.74812">
        <ele>1656.9</ele>
        <time>2022-06-12T07:18:26Z</time>
      </trkpt>
      <trkpt lat="44.22317" lon="6.74812">
        <ele>1656.9</ele>
        <time>2022-06-12T07:18:27Z</time>
      </trkpt>
      <trkpt lat="44.22319" lon="6.74812">
        <ele>1657</ele>
        <time>2022-06-12T07:18:28Z</time>
      </trkpt>
      <trkpt lat="44.22322" lon="6.74812">
        <ele>1657.2</ele>
        <time>2022-06-12T07:18:29Z</time>
      </trkpt>
      <trkpt lat="44.22324" lon="6.74813">
        <ele>1657.4</ele>
        <time>2022-06-12T07:18:30Z</time>
      </trkpt>
      <trkpt lat="44.22327" lon="6.74813">
        <ele>1657.6</ele>
        <time>2022-06-12T07:18:31Z</time>
      </trkpt>
      <trkpt lat="44.22329" lon="6.74813">
        <ele>1657.8</ele>
        <time>2022-06-12T07:18:32Z</time>
      </trkpt>
      <trkpt lat="44.22332" lon="6.74813">
        <ele>1658</ele>
        <time>2022-06-12T07:18:33Z</time>
      </trkpt>
      <trkpt lat="44.22334" lon="6.74813">
        <ele>1658.2</ele>
        <time>2022-06-12T07:18:34Z</time>
      </trkpt>
      <trkpt lat="44.22336" lon="6.74813">
        <ele>1658.4</ele>
        <time>2022-06-12T07:18:35Z</time>
      </trkpt>
      <trkpt lat="44.22339" lon="6.74813">
        <ele>1658.7</ele>
        <time>2022-06-12T07:18:36Z</time>
      </trkpt>
      <trkpt lat="44.22341" lon="6.74813">
        <ele>1659</ele>
        <time>2022-06-12T07:18:37Z</time>
      </trkpt>
      <trkpt lat="44.22344" lon="6.74813">
        <ele>1659.4</ele>
        <time>2022-06-12T07:18:38Z</time>
      </trkpt>
      <trkpt lat="44.22346" lon="6.74813">
        <ele>1659.7</ele>
        <time>2022-06-12T07:18:39Z</time>
      </trkpt>
      <trkpt lat="44.22348" lon="6.74812">
        <ele>1660.1</ele>
        <time>2022-06-12T07:18:40Z</time>
      </trkpt>
      <trkpt lat="44.22351" lon="6.74812">
        <ele>1660.4</ele>
        <time>2022-06-12T07:18:41Z</time>
      </trkpt>
      <trkpt lat="44.22353" lon="6.74812">
        <ele>1660.7</ele>
        <time>2022-06-12T07:18:42Z</time>
      </trkpt>
      <trkpt lat="44.22355" lon="6.74812">
        <ele>1661</ele>
        <time>2022-06-12T07:18:43Z</time>
      </trkpt>
      <trkpt lat="44.22358" lon="6.74812">
        <ele>1661.2</ele>
        <time>2022-06-12T07:18:44Z</time>
      </trkpt>
      <trkpt lat="44.2236" lon="6.74812">
        <ele>1661.4</ele>
        <time>2022-06-12T07:18:45Z</time>
      </trkpt>
      <trkpt lat="44.22362" lon="6.74813">
        <ele>1661.6</ele>
        <time>2022-06-12T07:18:46Z</time>
      </trkpt>
      <trkpt lat="44.22364" lon="6.74813">
        <ele>1661.9</ele>
        <time>2022-06-12T07:18:47Z</time>
      </trkpt>
      <trkpt lat="44.22366" lon="6.74813">
        <ele>1662.1</ele>
        <time>2022-06-12T07:18:48Z</time>
      </trkpt>
      <trkpt lat="44.22369" lon="6.74813">
        <ele>1662.5</ele>
        <time>2022-06-12T07:18:49Z</time>
      </trkpt>
      <trkpt lat="44.22371" lon="6.74813">
        <ele>1663</ele>
        <time>2022-06-12T07:18:50Z</time>
      </trkpt>
      <trkpt lat="44.22373" lon="6.74813">
        <ele>1663.3</ele>
        <time>2022-06-12T07:18:51Z</time>
      </trkpt>
      <trkpt lat="44.22375" lon="6.74812">
        <ele>1663.7</ele>
        <time>2022-06-12T07:18:52Z</time>
      </trkpt>
      <trkpt lat="44.22377" lon="6.74812">
        <ele>1664</ele>
        <time>2022-06-12T07:18:53Z</time>
      </trkpt>
      <trkpt lat="44.22379" lon="6.74812">
        <ele>1664.4</ele>
        <time>2022-06-12T07:18:54Z</time>
      </trkpt>
      <trkpt lat="44.22381" lon="6.74812">
        <ele>1664.7</ele>
        <time>2022-06-12T07:18:55Z</time>
      </trkpt>
      <trkpt lat="44.22383" lon="6.74812">
        <ele>1665</ele>
        <time>2022-06-12T07:18:56Z</time>
      </trkpt>
      <trkpt lat="44.22385" lon="6.74813">
        <ele>1665.1</ele>
        <time>2022-06-12T07:18:57Z</time>
      </trkpt>
      <trkpt lat="44.22387" lon="6.74813">
        <ele>1665.3</ele>
        <time>2022-06-12T07:18:58Z</time>
      </trkpt>
      <trkpt lat="44.22388" lon="6.74814">
        <ele>1665.4</ele>
        <time>2022-06-12T07:18:59Z</time>
      </trkpt>
      <trkpt lat="44.2239" lon="6.74815">
        <ele>1665.5</ele>
        <time>2022-06-12T07:19:00Z</time>
      </trkpt>
      <trkpt lat="44.22393" lon="6.74816">
        <ele>1665.8</ele>
        <time>2022-06-12T07:19:01Z</time>
      </trkpt>
      <trkpt lat="44.22396" lon="6.74815">
        <ele>1666.2</ele>
        <time>2022-06-12T07:19:02Z</time>
      </trkpt>
      <trkpt lat="44.22398" lon="6.74815">
        <ele>1666.6</ele>
        <time>2022-06-12T07:19:03Z</time>
      </trkpt>
      <trkpt lat="44.224" lon="6.74815">
        <ele>1666.9</ele>
        <time>2022-06-12T07:19:04Z</time>
      </trkpt>
      <trkpt lat="44.22403" lon="6.74816">
        <ele>1667.2</ele>
        <time>2022-06-12T07:19:05Z</time>
      </trkpt>
      <trkpt lat="44.22405" lon="6.74816">
        <ele>1667.5</ele>
        <time>2022-06-12T07:19:06Z</time>
      </trkpt>
      <trkpt lat="44.22408" lon="6.74816">
        <ele>1667.8</ele>
        <time>2022-06-12T07:19:07Z</time>
      </trkpt>
      <trkpt lat="44.2241" lon="6.74817">
        <ele>1668</ele>
        <time>2022-06-12T07:19:08Z</time>
      </trkpt>
      <trkpt lat="44.22412" lon="6.74817">
        <ele>1668.3</ele>
        <time>2022-06-12T07:19:09Z</time>
      </trkpt>
      <trkpt lat="44.22415" lon="6.74817">
        <ele>1668.6</ele>
        <time>2022-06-12T07:19:10Z</time>
      </trkpt>
      <trkpt lat="44.22417" lon="6.74818">
        <ele>1668.9</ele>
        <time>2022-06-12T07:19:11Z</time>
      </trkpt>
      <trkpt lat="44.22419" lon="6.74817">
        <ele>1669.2</ele>
        <time>2022-06-12T07:19:12Z</time>
      </trkpt>
      <trkpt lat="44.22421" lon="6.74818">
        <ele>1669.4</ele>
        <time>2022-06-12T07:19:13Z</time>
      </trkpt>
      <trkpt lat="44.22424" lon="6.74818">
        <ele>1669.7</ele>
        <time>2022-06-12T07:19:14Z</time>
      </trkpt>
      <trkpt lat="44.22426" lon="6.74817">
        <ele>1670.1</ele>
        <time>2022-06-12T07:19:15Z</time>
      </trkpt>
      <trkpt lat="44.22428" lon="6.74818">
        <ele>1670.3</ele>
        <time>2022-06-12T07:19:16Z</time>
      </trkpt>
      <trkpt lat="44.22431" lon="6.74818">
        <ele>1670.5</ele>
        <time>2022-06-12T07:19:17Z</time>
      </trkpt>
      <trkpt lat="44.22433" lon="6.74819">
        <ele>1670.7</ele>
        <time>2022-06-12T07:19:18Z</time>
      </trkpt>
      <trkpt lat="44.22435" lon="6.74819">
        <ele>1670.8</ele>
        <time>2022-06-12T07:19:19Z</time>
      </trkpt>
      <trkpt lat="44.22437" lon="6.7482">
        <ele>1671</ele>
        <time>2022-06-12T07:19:20Z</time>
      </trkpt>
      <trkpt lat="44.22439" lon="6.7482">
        <ele>1671.1</ele>
        <time>2022-06-12T07:19:21Z</time>
      </trkpt>
      <trkpt lat="44.22441" lon="6.74821">
        <ele>1671.3</ele>
        <time>2022-06-12T07:19:22Z</time>
      </trkpt>
      <trkpt lat="44.22443" lon="6.74821">
        <ele>1671.5</ele>
        <time>2022-06-12T07:19:23Z</time>
      </trkpt>
      <trkpt lat="44.22446" lon="6.74821">
        <ele>1671.8</ele>
        <time>2022-06-12T07:19:24Z</time>
      </trkpt>
      <trkpt lat="44.22448" lon="6.74822">
        <ele>1672</ele>
        <time>2022-06-12T07:19:25Z</time>
      </trkpt>
      <trkpt lat="44.2245" lon="6.74822">
        <ele>1672.1</ele>
        <time>2022-06-12T07:19:26Z</time>
      </trkpt>
      <trkpt lat="44.22453" lon="6.74823">
        <ele>1672.3</ele>
        <time>2022-06-12T07:19:27Z</time>
      </trkpt>
      <trkpt lat="44.22455" lon="6.74823">
        <ele>1672.5</ele>
        <time>2022-06-12T07:19:28Z</time>
      </trkpt>
      <trkpt lat="44.22458" lon="6.74824">
        <ele>1672.8</ele>
        <time>2022-06-12T07:19:29Z</time>
      </trkpt>
      <trkpt lat="44.2246" lon="6.74824">
        <ele>1672.9</ele>
        <time>2022-06-12T07:19:30Z</time>
      </trkpt>
      <trkpt lat="44.22463" lon="6.74825">
        <ele>1673.1</ele>
        <time>2022-06-12T07:19:31Z</time>
      </trkpt>
      <trkpt lat="44.22465" lon="6.74825">
        <ele>1673.3</ele>
        <time>2022-06-12T07:19:32Z</time>
      </trkpt>
      <trkpt lat="44.22468" lon="6.74826">
        <ele>1673.4</ele>
        <time>2022-06-12T07:19:33Z</time>
      </trkpt>
      <trkpt lat="44.2247" lon="6.74826">
        <ele>1673.5</ele>
        <time>2022-06-12T07:19:34Z</time>
      </trkpt>
      <trkpt lat="44.22473" lon="6.74827">
        <ele>1673.7</ele>
        <time>2022-06-12T07:19:35Z</time>
      </trkpt>
      <trkpt lat="44.22475" lon="6.74827">
        <ele>1674</ele>
        <time>2022-06-12T07:19:36Z</time>
      </trkpt>
      <trkpt lat="44.22478" lon="6.74828">
        <ele>1674.2</ele>
        <time>2022-06-12T07:19:37Z</time>
      </trkpt>
      <trkpt lat="44.2248" lon="6.74829">
        <ele>1674.3</ele>
        <time>2022-06-12T07:19:38Z</time>
      </trkpt>
      <trkpt lat="44.22482" lon="6.74829">
        <ele>1674.4</ele>
        <time>2022-06-12T07:19:39Z</time>
      </trkpt>
      <trkpt lat="44.22485" lon="6.7483">
        <ele>1674.7</ele>
        <time>2022-06-12T07:19:40Z</time>
      </trkpt>
      <trkpt lat="44.22487" lon="6.74831">
        <ele>1674.9</ele>
        <time>2022-06-12T07:19:41Z</time>
      </trkpt>
      <trkpt lat="44.2249" lon="6.74832">
        <ele>1674.9</ele>
        <time>2022-06-12T07:19:42Z</time>
      </trkpt>
      <trkpt lat="44.22492" lon="6.74833">
        <ele>1674.8</ele>
        <time>2022-06-12T07:19:43Z</time>
      </trkpt>
      <trkpt lat="44.22493" lon="6.74835">
        <ele>1674.7</ele>
        <time>2022-06-12T07:19:44Z</time>
      </trkpt>
      <trkpt lat="44.22496" lon="6.74837">
        <ele>1674.6</ele>
        <time>2022-06-12T07:19:45Z</time>
      </trkpt>
      <trkpt lat="44.22498" lon="6.74839">
        <ele>1674.4</ele>
        <time>2022-06-12T07:19:46Z</time>
      </trkpt>
      <trkpt lat="44.225" lon="6.7484">
        <ele>1674.2</ele>
        <time>2022-06-12T07:19:47Z</time>
      </trkpt>
      <trkpt lat="44.22501" lon="6.74842">
        <ele>1674</ele>
        <time>2022-06-12T07:19:48Z</time>
      </trkpt>
      <trkpt lat="44.22503" lon="6.74844">
        <ele>1673.8</ele>
        <time>2022-06-12T07:19:49Z</time>
      </trkpt>
      <trkpt lat="44.22504" lon="6.74845">
        <ele>1673.7</ele>
        <time>2022-06-12T07:19:50Z</time>
      </trkpt>
      <trkpt lat="44.22506" lon="6.74847">
        <ele>1673.6</ele>
        <time>2022-06-12T07:19:51Z</time>
      </trkpt>
      <trkpt lat="44.22508" lon="6.74848">
        <ele>1673.6</ele>
        <time>2022-06-12T07:19:52Z</time>
      </trkpt>
      <trkpt lat="44.2251" lon="6.7485">
        <ele>1673.5</ele>
        <time>2022-06-12T07:19:53Z</time>
      </trkpt>
      <trkpt lat="44.22512" lon="6.74851">
        <ele>1673.3</ele>
        <time>2022-06-12T07:19:54Z</time>
      </trkpt>
      <trkpt lat="44.22513" lon="6.74852">
        <ele>1673.3</ele>
        <time>2022-06-12T07:19:55Z</time>
      </trkpt>
      <trkpt lat="44.22515" lon="6.74853">
        <ele>1673.2</ele>
        <time>2022-06-12T07:19:56Z</time>
      </trkpt>
      <trkpt lat="44.22517" lon="6.74855">
        <ele>1673.3</ele>
        <time>2022-06-12T07:19:57Z</time>
      </trkpt>
      <trkpt lat="44.22519" lon="6.74856">
        <ele>1673.3</ele>
        <time>2022-06-12T07:19:58Z</time>
      </trkpt>
      <trkpt lat="44.22522" lon="6.74857">
        <ele>1673.4</ele>
        <time>2022-06-12T07:19:59Z</time>
      </trkpt>
      <trkpt lat="44.22524" lon="6.74857">
        <ele>1673.5</ele>
        <time>2022-06-12T07:20:00Z</time>
      </trkpt>
      <trkpt lat="44.22526" lon="6.74858">
        <ele>1673.6</ele>
        <time>2022-06-12T07:20:01Z</time>
      </trkpt>
      <trkpt lat="44.22528" lon="6.74859">
        <ele>1673.7</ele>
        <time>2022-06-12T07:20:02Z</time>
      </trkpt>
      <trkpt lat="44.2253" lon="6.74859">
        <ele>1674.1</ele>
        <time>2022-06-12T07:20:03Z</time>
      </trkpt>
      <trkpt lat="44.22533" lon="6.74859">
        <ele>1674.4</ele>
        <time>2022-06-12T07:20:04Z</time>
      </trkpt>
      <trkpt lat="44.22535" lon="6.74859">
        <ele>1674.6</ele>
        <time>2022-06-12T07:20:05Z</time>
      </trkpt>
      <trkpt lat="44.22538" lon="6.7486">
        <ele>1674.9</ele>
        <time>2022-06-12T07:20:06Z</time>
      </trkpt>
      <trkpt lat="44.22541" lon="6.7486">
        <ele>1675.3</ele>
        <time>2022-06-12T07:20:07Z</time>
      </trkpt>
      <trkpt lat="44.22544" lon="6.74859">
        <ele>1675.8</ele>
        <time>2022-06-12T07:20:08Z</time>
      </trkpt>
      <trkpt lat="44.22546" lon="6.74859">
        <ele>1676.2</ele>
        <time>2022-06-12T07:20:09Z</time>
      </trkpt>
      <trkpt lat="44.22549" lon="6.74859">
        <ele>1676.5</ele>
        <time>2022-06-12T07:20:10Z</time>
      </trkpt>
      <trkpt lat="44.22552" lon="6.74859">
        <ele>1677.1</ele>
        <time>2022-06-12T07:20:11Z</time>
      </trkpt>
      <trkpt lat="44.22554" lon="6.74859">
        <ele>1677.4</ele>
        <time>2022-06-12T07:20:12Z</time>
      </trkpt>
      <trkpt lat="44.22556" lon="6.74857">
        <ele>1678.1</ele>
        <time>2022-06-12T07:20:13Z</time>
      </trkpt>
      <trkpt lat="44.22559" lon="6.74856">
        <ele>1678.8</ele>
        <time>2022-06-12T07:20:14Z</time>
      </trkpt>
      <trkpt lat="44.22561" lon="6.74855">
        <ele>1679.3</ele>
        <time>2022-06-12T07:20:15Z</time>
      </trkpt>
      <trkpt lat="44.22563" lon="6.74854">
        <ele>1679.9</ele>
        <time>2022-06-12T07:20:16Z</time>
      </trkpt>
      <trkpt lat="44.22565" lon="6.74854">
        <ele>1680.3</ele>
        <time>2022-06-12T07:20:17Z</time>
      </trkpt>
      <trkpt lat="44.22567" lon="6.74854">
        <ele>1680.6</ele>
        <time>2022-06-12T07:20:18Z</time>
      </trkpt>
      <trkpt lat="44.2257" lon="6.74853">
        <ele>1681</ele>
        <time>2022-06-12T07:20:19Z</time>
      </trkpt>
      <trkpt lat="44.22572" lon="6.74853">
        <ele>1681.4</ele>
        <time>2022-06-12T07:20:20Z</time>
      </trkpt>
      <trkpt lat="44.22575" lon="6.74852">
        <ele>1682</ele>
        <time>2022-06-12T07:20:21Z</time>
      </trkpt>
      <trkpt lat="44.22577" lon="6.74852">
        <ele>1682.4</ele>
        <time>2022-06-12T07:20:22Z</time>
      </trkpt>
      <trkpt lat="44.22579" lon="6.74852">
        <ele>1682.6</ele>
        <time>2022-06-12T07:20:23Z</time>
      </trkpt>
      <trkpt lat="44.22582" lon="6.74851">
        <ele>1683</ele>
        <time>2022-06-12T07:20:24Z</time>
      </trkpt>
      <trkpt lat="44.22584" lon="6.74852">
        <ele>1683.1</ele>
        <time>2022-06-12T07:20:25Z</time>
      </trkpt>
      <trkpt lat="44.22587" lon="6.74852">
        <ele>1683.5</ele>
        <time>2022-06-12T07:20:26Z</time>
      </trkpt>
      <trkpt lat="44.22589" lon="6.74852">
        <ele>1683.8</ele>
        <time>2022-06-12T07:20:27Z</time>
      </trkpt>
      <trkpt lat="44.22592" lon="6.74852">
        <ele>1684.2</ele>
        <time>2022-06-12T07:20:28Z</time>
      </trkpt>
      <trkpt lat="44.22594" lon="6.74852">
        <ele>1684.5</ele>
        <time>2022-06-12T07:20:29Z</time>
      </trkpt>
      <trkpt lat="44.22597" lon="6.74852">
        <ele>1684.9</ele>
        <time>2022-06-12T07:20:30Z</time>
      </trkpt>
      <trkpt lat="44.22599" lon="6.74852">
        <ele>1685.2</ele>
        <time>2022-06-12T07:20:31Z</time>
      </trkpt>
      <trkpt lat="44.22601" lon="6.74852">
        <ele>1685.6</ele>
        <time>2022-06-12T07:20:32Z</time>
      </trkpt>
      <trkpt lat="44.22604" lon="6.74852">
        <ele>1686</ele>
        <time>2022-06-12T07:20:33Z</time>
      </trkpt>
      <trkpt lat="44.22606" lon="6.74852">
        <ele>1686.3</ele>
        <time>2022-06-12T07:20:34Z</time>
      </trkpt>
      <trkpt lat="44.22608" lon="6.74852">
        <ele>1686.6</ele>
        <time>2022-06-12T07:20:35Z</time>
      </trkpt>
      <trkpt lat="44.22611" lon="6.74852">
        <ele>1686.9</ele>
        <time>2022-06-12T07:20:36Z</time>
      </trkpt>
      <trkpt lat="44.22613" lon="6.74853">
        <ele>1687</ele>
        <time>2022-06-12T07:20:37Z</time>
      </trkpt>
      <trkpt lat="44.22615" lon="6.74854">
        <ele>1687</ele>
        <time>2022-06-12T07:20:38Z</time>
      </trkpt>
      <trkpt lat="44.22617" lon="6.74855">
        <ele>1687</ele>
        <time>2022-06-12T07:20:39Z</time>
      </trkpt>
      <trkpt lat="44.22619" lon="6.74856">
        <ele>1687</ele>
        <time>2022-06-12T07:20:40Z</time>
      </trkpt>
      <trkpt lat="44.22621" lon="6.74857">
        <ele>1686.8</ele>
        <time>2022-06-12T07:20:41Z</time>
      </trkpt>
      <trkpt lat="44.22623" lon="6.74858">
        <ele>1686.7</ele>
        <time>2022-06-12T07:20:42Z</time>
      </trkpt>
      <trkpt lat="44.22626" lon="6.7486">
        <ele>1686.5</ele>
        <time>2022-06-12T07:20:43Z</time>
      </trkpt>
      <trkpt lat="44.22628" lon="6.74861">
        <ele>1686.3</ele>
        <time>2022-06-12T07:20:44Z</time>
      </trkpt>
      <trkpt lat="44.2263" lon="6.74863">
        <ele>1686.1</ele>
        <time>2022-06-12T07:20:45Z</time>
      </trkpt>
      <trkpt lat="44.22632" lon="6.74864">
        <ele>1685.9</ele>
        <time>2022-06-12T07:20:46Z</time>
      </trkpt>
      <trkpt lat="44.22634" lon="6.74866">
        <ele>1685.6</ele>
        <time>2022-06-12T07:20:47Z</time>
      </trkpt>
      <trkpt lat="44.22635" lon="6.74868">
        <ele>1685.2</ele>
        <time>2022-06-12T07:20:48Z</time>
      </trkpt>
      <trkpt lat="44.22637" lon="6.7487">
        <ele>1684.7</ele>
        <time>2022-06-12T07:20:49Z</time>
      </trkpt>
      <trkpt lat="44.22639" lon="6.74872">
        <ele>1684.4</ele>
        <time>2022-06-12T07:20:50Z</time>
      </trkpt>
      <trkpt lat="44.22641" lon="6.74874">
        <ele>1684</ele>
        <time>2022-06-12T07:20:51Z</time>
      </trkpt>
      <trkpt lat="44.22643" lon="6.74876">
        <ele>1683.7</ele>
        <time>2022-06-12T07:20:52Z</time>
      </trkpt>
      <trkpt lat="44.22645" lon="6.74878">
        <ele>1683.5</ele>
        <time>2022-06-12T07:20:53Z</time>
      </trkpt>
      <trkpt lat="44.22647" lon="6.74879">
        <ele>1683.4</ele>
        <time>2022-06-12T07:20:54Z</time>
      </trkpt>
      <trkpt lat="44.22649" lon="6.7488">
        <ele>1683.3</ele>
        <time>2022-06-12T07:20:55Z</time>
      </trkpt>
      <trkpt lat="44.22652" lon="6.74881">
        <ele>1683.5</ele>
        <time>2022-06-12T07:20:56Z</time>
      </trkpt>
      <trkpt lat="44.22654" lon="6.74882">
        <ele>1683.6</ele>
        <time>2022-06-12T07:20:57Z</time>
      </trkpt>
      <trkpt lat="44.22657" lon="6.74882">
        <ele>1683.7</ele>
        <time>2022-06-12T07:20:58Z</time>
      </trkpt>
      <trkpt lat="44.22659" lon="6.74883">
        <ele>1683.9</ele>
        <time>2022-06-12T07:20:59Z</time>
      </trkpt>
      <trkpt lat="44.22662" lon="6.74884">
        <ele>1684</ele>
        <time>2022-06-12T07:21:00Z</time>
      </trkpt>
      <trkpt lat="44.22664" lon="6.74884">
        <ele>1684.1</ele>
        <time>2022-06-12T07:21:01Z</time>
      </trkpt>
      <trkpt lat="44.22666" lon="6.74885">
        <ele>1684.3</ele>
        <time>2022-06-12T07:21:02Z</time>
      </trkpt>
      <trkpt lat="44.22669" lon="6.74885">
        <ele>1684.6</ele>
        <time>2022-06-12T07:21:03Z</time>
      </trkpt>
      <trkpt lat="44.22671" lon="6.74885">
        <ele>1684.9</ele>
        <time>2022-06-12T07:21:04Z</time>
      </trkpt>
      <trkpt lat="44.22674" lon="6.74885">
        <ele>1685.2</ele>
        <time>2022-06-12T07:21:05Z</time>
      </trkpt>
      <trkpt lat="44.22676" lon="6.74885">
        <ele>1685.4</ele>
        <time>2022-06-12T07:21:06Z</time>
      </trkpt>
      <trkpt lat="44.22679" lon="6.74884">
        <ele>1685.8</ele>
        <time>2022-06-12T07:21:07Z</time>
      </trkpt>
      <trkpt lat="44.22681" lon="6.74884">
        <ele>1686</ele>
        <time>2022-06-12T07:21:08Z</time>
      </trkpt>
      <trkpt lat="44.22684" lon="6.74884">
        <ele>1686.4</ele>
        <time>2022-06-12T07:21:09Z</time>
      </trkpt>
      <trkpt lat="44.22686" lon="6.74883">
        <ele>1686.9</ele>
        <time>2022-06-12T07:21:10Z</time>
      </trkpt>
      <trkpt lat="44.22688" lon="6.74883">
        <ele>1687.4</ele>
        <time>2022-06-12T07:21:11Z</time>
      </trkpt>
      <trkpt lat="44.22691" lon="6.74881">
        <ele>1688</ele>
        <time>2022-06-12T07:21:12Z</time>
      </trkpt>
      <trkpt lat="44.22693" lon="6.7488">
        <ele>1688.7</ele>
        <time>2022-06-12T07:21:13Z</time>
      </trkpt>
      <trkpt lat="44.22695" lon="6.7488">
        <ele>1689.2</ele>
        <time>2022-06-12T07:21:14Z</time>
      </trkpt>
      <trkpt lat="44.22698" lon="6.74879">
        <ele>1689.7</ele>
        <time>2022-06-12T07:21:15Z</time>
      </trkpt>
      <trkpt lat="44.227" lon="6.74878">
        <ele>1690.1</ele>
        <time>2022-06-12T07:21:16Z</time>
      </trkpt>
      <trkpt lat="44.22702" lon="6.74877">
        <ele>1690.8</ele>
        <time>2022-06-12T07:21:17Z</time>
      </trkpt>
      <trkpt lat="44.22705" lon="6.74876">
        <ele>1691.4</ele>
        <time>2022-06-12T07:21:18Z</time>
      </trkpt>
      <trkpt lat="44.22707" lon="6.74876">
        <ele>1691.9</ele>
        <time>2022-06-12T07:21:19Z</time>
      </trkpt>
      <trkpt lat="44.22709" lon="6.74875">
        <ele>1692.5</ele>
        <time>2022-06-12T07:21:20Z</time>
      </trkpt>
      <trkpt lat="44.22711" lon="6.74873">
        <ele>1693.2</ele>
        <time>2022-06-12T07:21:21Z</time>
      </trkpt>
      <trkpt lat="44.22713" lon="6.74872">
        <ele>1693.8</ele>
        <time>2022-06-12T07:21:22Z</time>
      </trkpt>
      <trkpt lat="44.22716" lon="6.74871">
        <ele>1694.3</ele>
        <time>2022-06-12T07:21:23Z</time>
      </trkpt>
      <trkpt lat="44.22718" lon="6.7487">
        <ele>1694.9</ele>
        <time>2022-06-12T07:21:24Z</time>
      </trkpt>
      <trkpt lat="44.2272" lon="6.74869">
        <ele>1695.5</ele>
        <time>2022-06-12T07:21:25Z</time>
      </trkpt>
      <trkpt lat="44.22723" lon="6.74868">
        <ele>1696.2</ele>
        <time>2022-06-12T07:21:26Z</time>
      </trkpt>
      <trkpt lat="44.22725" lon="6.74867">
        <ele>1696.8</ele>
        <time>2022-06-12T07:21:27Z</time>
      </trkpt>
      <trkpt lat="44.22727" lon="6.74865">
        <ele>1697.5</ele>
        <time>2022-06-12T07:21:28Z</time>
      </trkpt>
      <trkpt lat="44.2273" lon="6.74865">
        <ele>1698.1</ele>
        <time>2022-06-12T07:21:29Z</time>
      </trkpt>
      <trkpt lat="44.22732" lon="6.74864">
        <ele>1698.6</ele>
        <time>2022-06-12T07:21:30Z</time>
      </trkpt>
      <trkpt lat="44.22734" lon="6.74863">
        <ele>1699.2</ele>
        <time>2022-06-12T07:21:31Z</time>
      </trkpt>
      <trkpt lat="44.22736" lon="6.74863">
        <ele>1699.6</ele>
        <time>2022-06-12T07:21:32Z</time>
      </trkpt>
      <trkpt lat="44.22739" lon="6.74863">
        <ele>1700</ele>
        <time>2022-06-12T07:21:33Z</time>
      </trkpt>
      <trkpt lat="44.22741" lon="6.74862">
        <ele>1700.5</ele>
        <time>2022-06-12T07:21:34Z</time>
      </trkpt>
      <trkpt lat="44.22743" lon="6.74862">
        <ele>1700.8</ele>
        <time>2022-06-12T07:21:35Z</time>
      </trkpt>
      <trkpt lat="44.22745" lon="6.74862">
        <ele>1701.2</ele>
        <time>2022-06-12T07:21:36Z</time>
      </trkpt>
      <trkpt lat="44.22748" lon="6.74862">
        <ele>1701.4</ele>
        <time>2022-06-12T07:21:37Z</time>
      </trkpt>
      <trkpt lat="44.2275" lon="6.74862">
        <ele>1701.7</ele>
        <time>2022-06-12T07:21:38Z</time>
      </trkpt>
      <trkpt lat="44.22752" lon="6.74863">
        <ele>1701.8</ele>
        <time>2022-06-12T07:21:39Z</time>
      </trkpt>
      <trkpt lat="44.22754" lon="6.74864">
        <ele>1701.9</ele>
        <time>2022-06-12T07:21:40Z</time>
      </trkpt>
      <trkpt lat="44.22756" lon="6.74865">
        <ele>1702</ele>
        <time>2022-06-12T07:21:41Z</time>
      </trkpt>
      <trkpt lat="44.22758" lon="6.74867">
        <ele>1702</ele>
        <time>2022-06-12T07:21:42Z</time>
      </trkpt>
      <trkpt lat="44.2276" lon="6.74869">
        <ele>1701.9</ele>
        <time>2022-06-12T07:21:43Z</time>
      </trkpt>
      <trkpt lat="44.22762" lon="6.7487">
        <ele>1701.9</ele>
        <time>2022-06-12T07:21:44Z</time>
      </trkpt>
      <trkpt lat="44.22764" lon="6.74873">
        <ele>1701.7</ele>
        <time>2022-06-12T07:21:45Z</time>
      </trkpt>
      <trkpt lat="44.22766" lon="6.74875">
        <ele>1701.6</ele>
        <time>2022-06-12T07:21:46Z</time>
      </trkpt>
      <trkpt lat="44.22767" lon="6.74877">
        <ele>1701.4</ele>
        <time>2022-06-12T07:21:47Z</time>
      </trkpt>
      <trkpt lat="44.22769" lon="6.74879">
        <ele>1701.3</ele>
        <time>2022-06-12T07:21:48Z</time>
      </trkpt>
      <trkpt lat="44.22771" lon="6.74881">
        <ele>1701.2</ele>
        <time>2022-06-12T07:21:49Z</time>
      </trkpt>
      <trkpt lat="44.22773" lon="6.74883">
        <ele>1701.3</ele>
        <time>2022-06-12T07:21:50Z</time>
      </trkpt>
      <trkpt lat="44.22774" lon="6.74884">
        <ele>1701.3</ele>
        <time>2022-06-12T07:21:51Z</time>
      </trkpt>
      <trkpt lat="44.22776" lon="6.74885">
        <ele>1701.4</ele>
        <time>2022-06-12T07:21:52Z</time>
      </trkpt>
      <trkpt lat="44.22778" lon="6.74886">
        <ele>1701.5</ele>
        <time>2022-06-12T07:21:53Z</time>
      </trkpt>
      <trkpt lat="44.2278" lon="6.74887">
        <ele>1701.3</ele>
        <time>2022-06-12T07:21:54Z</time>
      </trkpt>
      <trkpt lat="44.22782" lon="6.74888">
        <ele>1701</ele>
        <time>2022-06-12T07:21:55Z</time>
      </trkpt>
      <trkpt lat="44.22785" lon="6.74889">
        <ele>1700.8</ele>
        <time>2022-06-12T07:21:56Z</time>
      </trkpt>
      <trkpt lat="44.22787" lon="6.74889">
        <ele>1700.8</ele>
        <time>2022-06-12T07:21:57Z</time>
      </trkpt>
      <trkpt lat="44.22789" lon="6.74889">
        <ele>1700.7</ele>
        <time>2022-06-12T07:21:58Z</time>
      </trkpt>
      <trkpt lat="44.22792" lon="6.74888">
        <ele>1700.6</ele>
        <time>2022-06-12T07:21:59Z</time>
      </trkpt>
      <trkpt lat="44.22795" lon="6.74888">
        <ele>1700.6</ele>
        <time>2022-06-12T07:22:00Z</time>
      </trkpt>
      <trkpt lat="44.22797" lon="6.74888">
        <ele>1700.5</ele>
        <time>2022-06-12T07:22:01Z</time>
      </trkpt>
      <trkpt lat="44.228" lon="6.74888">
        <ele>1700.5</ele>
        <time>2022-06-12T07:22:02Z</time>
      </trkpt>
      <trkpt lat="44.22802" lon="6.74887">
        <ele>1700.6</ele>
        <time>2022-06-12T07:22:03Z</time>
      </trkpt>
      <trkpt lat="44.22805" lon="6.74887">
        <ele>1700.5</ele>
        <time>2022-06-12T07:22:04Z</time>
      </trkpt>
      <trkpt lat="44.22807" lon="6.74886">
        <ele>1700.8</ele>
        <time>2022-06-12T07:22:05Z</time>
      </trkpt>
      <trkpt lat="44.2281" lon="6.74886">
        <ele>1701.2</ele>
        <time>2022-06-12T07:22:06Z</time>
      </trkpt>
      <trkpt lat="44.22812" lon="6.74885">
        <ele>1701.7</ele>
        <time>2022-06-12T07:22:07Z</time>
      </trkpt>
      <trkpt lat="44.22814" lon="6.74884">
        <ele>1702</ele>
        <time>2022-06-12T07:22:08Z</time>
      </trkpt>
      <trkpt lat="44.22817" lon="6.74884">
        <ele>1702.3</ele>
        <time>2022-06-12T07:22:09Z</time>
      </trkpt>
      <trkpt lat="44.22819" lon="6.74883">
        <ele>1702.6</ele>
        <time>2022-06-12T07:22:10Z</time>
      </trkpt>
      <trkpt lat="44.22822" lon="6.74882">
        <ele>1703</ele>
        <time>2022-06-12T07:22:11Z</time>
      </trkpt>
      <trkpt lat="44.22824" lon="6.74882">
        <ele>1703.3</ele>
        <time>2022-06-12T07:22:12Z</time>
      </trkpt>
      <trkpt lat="44.22826" lon="6.74881">
        <ele>1703.7</ele>
        <time>2022-06-12T07:22:13Z</time>
      </trkpt>
      <trkpt lat="44.22829" lon="6.74881">
        <ele>1703.8</ele>
        <time>2022-06-12T07:22:14Z</time>
      </trkpt>
      <trkpt lat="44.22831" lon="6.7488">
        <ele>1704</ele>
        <time>2022-06-12T07:22:15Z</time>
      </trkpt>
      <trkpt lat="44.22833" lon="6.74881">
        <ele>1704.2</ele>
        <time>2022-06-12T07:22:16Z</time>
      </trkpt>
      <trkpt lat="44.22836" lon="6.74881">
        <ele>1704.7</ele>
        <time>2022-06-12T07:22:17Z</time>
      </trkpt>
      <trkpt lat="44.22838" lon="6.74882">
        <ele>1705.2</ele>
        <time>2022-06-12T07:22:18Z</time>
      </trkpt>
      <trkpt lat="44.22841" lon="6.74882">
        <ele>1705.8</ele>
        <time>2022-06-12T07:22:19Z</time>
      </trkpt>
      <trkpt lat="44.22843" lon="6.74883">
        <ele>1706.3</ele>
        <time>2022-06-12T07:22:20Z</time>
      </trkpt>
      <trkpt lat="44.22846" lon="6.74884">
        <ele>1706.7</ele>
        <time>2022-06-12T07:22:21Z</time>
      </trkpt>
      <trkpt lat="44.22848" lon="6.74886">
        <ele>1707.1</ele>
        <time>2022-06-12T07:22:22Z</time>
      </trkpt>
      <trkpt lat="44.2285" lon="6.74887">
        <ele>1707.5</ele>
        <time>2022-06-12T07:22:23Z</time>
      </trkpt>
      <trkpt lat="44.22852" lon="6.74888">
        <ele>1707.8</ele>
        <time>2022-06-12T07:22:24Z</time>
      </trkpt>
      <trkpt lat="44.22854" lon="6.7489">
        <ele>1708</ele>
        <time>2022-06-12T07:22:25Z</time>
      </trkpt>
      <trkpt lat="44.22856" lon="6.74892">
        <ele>1708.2</ele>
        <time>2022-06-12T07:22:26Z</time>
      </trkpt>
      <trkpt lat="44.22858" lon="6.74893">
        <ele>1708.5</ele>
        <time>2022-06-12T07:22:27Z</time>
      </trkpt>
      <trkpt lat="44.2286" lon="6.74895">
        <ele>1708.6</ele>
        <time>2022-06-12T07:22:28Z</time>
      </trkpt>
      <trkpt lat="44.22862" lon="6.74897">
        <ele>1708.8</ele>
        <time>2022-06-12T07:22:29Z</time>
      </trkpt>
      <trkpt lat="44.22864" lon="6.74899">
        <ele>1708.9</ele>
        <time>2022-06-12T07:22:30Z</time>
      </trkpt>
      <trkpt lat="44.22866" lon="6.749">
        <ele>1708.9</ele>
        <time>2022-06-12T07:22:31Z</time>
      </trkpt>
      <trkpt lat="44.22868" lon="6.74902">
        <ele>1709.1</ele>
        <time>2022-06-12T07:22:32Z</time>
      </trkpt>
      <trkpt lat="44.22871" lon="6.74903">
        <ele>1709.4</ele>
        <time>2022-06-12T07:22:33Z</time>
      </trkpt>
      <trkpt lat="44.22873" lon="6.74904">
        <ele>1709.5</ele>
        <time>2022-06-12T07:22:34Z</time>
      </trkpt>
      <trkpt lat="44.22875" lon="6.74905">
        <ele>1709.8</ele>
        <time>2022-06-12T07:22:35Z</time>
      </trkpt>
      <trkpt lat="44.22877" lon="6.74906">
        <ele>1710</ele>
        <time>2022-06-12T07:22:36Z</time>
      </trkpt>
      <trkpt lat="44.2288" lon="6.74907">
        <ele>1710.4</ele>
        <time>2022-06-12T07:22:37Z</time>
      </trkpt>
      <trkpt lat="44.22882" lon="6.74907">
        <ele>1710.7</ele>
        <time>2022-06-12T07:22:38Z</time>
      </trkpt>
      <trkpt lat="44.22884" lon="6.74908">
        <ele>1711</ele>
        <time>2022-06-12T07:22:39Z</time>
      </trkpt>
      <trkpt lat="44.22886" lon="6.74908">
        <ele>1711.4</ele>
        <time>2022-06-12T07:22:40Z</time>
      </trkpt>
      <trkpt lat="44.22889" lon="6.74907">
        <ele>1712</ele>
        <time>2022-06-12T07:22:41Z</time>
      </trkpt>
      <trkpt lat="44.22891" lon="6.74907">
        <ele>1712.2</ele>
        <time>2022-06-12T07:22:42Z</time>
      </trkpt>
      <trkpt lat="44.22893" lon="6.74907">
        <ele>1712.4</ele>
        <time>2022-06-12T07:22:43Z</time>
      </trkpt>
      <trkpt lat="44.22895" lon="6.74906">
        <ele>1712.6</ele>
        <time>2022-06-12T07:22:44Z</time>
      </trkpt>
      <trkpt lat="44.22898" lon="6.74906">
        <ele>1712.8</ele>
        <time>2022-06-12T07:22:45Z</time>
      </trkpt>
      <trkpt lat="44.229" lon="6.74905">
        <ele>1713.1</ele>
        <time>2022-06-12T07:22:46Z</time>
      </trkpt>
      <trkpt lat="44.22903" lon="6.74905">
        <ele>1713.3</ele>
        <time>2022-06-12T07:22:47Z</time>
      </trkpt>
      <trkpt lat="44.22905" lon="6.74904">
        <ele>1713.6</ele>
        <time>2022-06-12T07:22:48Z</time>
      </trkpt>
      <trkpt lat="44.22907" lon="6.74903">
        <ele>1713.9</ele>
        <time>2022-06-12T07:22:49Z</time>
      </trkpt>
      <trkpt lat="44.2291" lon="6.74903">
        <ele>1714.2</ele>
        <time>2022-06-12T07:22:50Z</time>
      </trkpt>
      <trkpt lat="44.22912" lon="6.74902">
        <ele>1714.5</ele>
        <time>2022-06-12T07:22:51Z</time>
      </trkpt>
      <trkpt lat="44.22914" lon="6.74901">
        <ele>1714.8</ele>
        <time>2022-06-12T07:22:52Z</time>
      </trkpt>
      <trkpt lat="44.22916" lon="6.74901">
        <ele>1715</ele>
        <time>2022-06-12T07:22:53Z</time>
      </trkpt>
      <trkpt lat="44.22919" lon="6.749">
        <ele>1715.3</ele>
        <time>2022-06-12T07:22:54Z</time>
      </trkpt>
      <trkpt lat="44.22921" lon="6.74898">
        <ele>1715.6</ele>
        <time>2022-06-12T07:22:55Z</time>
      </trkpt>
      <trkpt lat="44.22923" lon="6.74898">
        <ele>1715.8</ele>
        <time>2022-06-12T07:22:56Z</time>
      </trkpt>
      <trkpt lat="44.22925" lon="6.74897">
        <ele>1716.1</ele>
        <time>2022-06-12T07:22:57Z</time>
      </trkpt>
      <trkpt lat="44.22927" lon="6.74896">
        <ele>1716.3</ele>
        <time>2022-06-12T07:22:58Z</time>
      </trkpt>
      <trkpt lat="44.22929" lon="6.74895">
        <ele>1716.4</ele>
        <time>2022-06-12T07:22:59Z</time>
      </trkpt>
      <trkpt lat="44.22932" lon="6.74894">
        <ele>1716.6</ele>
        <time>2022-06-12T07:23:00Z</time>
      </trkpt>
      <trkpt lat="44.22934" lon="6.74894">
        <ele>1716.8</ele>
        <time>2022-06-12T07:23:01Z</time>
      </trkpt>
      <trkpt lat="44.22936" lon="6.74893">
        <ele>1717</ele>
        <time>2022-06-12T07:23:02Z</time>
      </trkpt>
      <trkpt lat="44.22938" lon="6.74893">
        <ele>1717.1</ele>
        <time>2022-06-12T07:23:03Z</time>
      </trkpt>
      <trkpt lat="44.2294" lon="6.74892">
        <ele>1717.2</ele>
        <time>2022-06-12T07:23:04Z</time>
      </trkpt>
      <trkpt lat="44.22943" lon="6.74891">
        <ele>1717.4</ele>
        <time>2022-06-12T07:23:05Z</time>
      </trkpt>
      <trkpt lat="44.22945" lon="6.74891">
        <ele>1717.6</ele>
        <time>2022-06-12T07:23:06Z</time>
      </trkpt>
      <trkpt lat="44.22947" lon="6.7489">
        <ele>1717.7</ele>
        <time>2022-06-12T07:23:07Z</time>
      </trkpt>
      <trkpt lat="44.22949" lon="6.7489">
        <ele>1717.7</ele>
        <time>2022-06-12T07:23:08Z</time>
      </trkpt>
      <trkpt lat="44.22951" lon="6.74889">
        <ele>1717.9</ele>
        <time>2022-06-12T07:23:09Z</time>
      </trkpt>
      <trkpt lat="44.22954" lon="6.74889">
        <ele>1718.1</ele>
        <time>2022-06-12T07:23:10Z</time>
      </trkpt>
      <trkpt lat="44.22956" lon="6.74888">
        <ele>1718.3</ele>
        <time>2022-06-12T07:23:11Z</time>
      </trkpt>
      <trkpt lat="44.22958" lon="6.74887">
        <ele>1718.4</ele>
        <time>2022-06-12T07:23:12Z</time>
      </trkpt>
      <trkpt lat="44.22961" lon="6.74886">
        <ele>1718.6</ele>
        <time>2022-06-12T07:23:13Z</time>
      </trkpt>
      <trkpt lat="44.22963" lon="6.74885">
        <ele>1718.9</ele>
        <time>2022-06-12T07:23:14Z</time>
      </trkpt>
      <trkpt lat="44.22965" lon="6.74884">
        <ele>1719.1</ele>
        <time>2022-06-12T07:23:15Z</time>
      </trkpt>
      <trkpt lat="44.22967" lon="6.74883">
        <ele>1719.2</ele>
        <time>2022-06-12T07:23:16Z</time>
      </trkpt>
      <trkpt lat="44.2297" lon="6.74883">
        <ele>1719.3</ele>
        <time>2022-06-12T07:23:17Z</time>
      </trkpt>
      <trkpt lat="44.22972" lon="6.74883">
        <ele>1719.3</ele>
        <time>2022-06-12T07:23:18Z</time>
      </trkpt>
      <trkpt lat="44.22974" lon="6.74882">
        <ele>1719.6</ele>
        <time>2022-06-12T07:23:19Z</time>
      </trkpt>
      <trkpt lat="44.22976" lon="6.74882">
        <ele>1719.9</ele>
        <time>2022-06-12T07:23:20Z</time>
      </trkpt>
      <trkpt lat="44.22979" lon="6.74881">
        <ele>1720.2</ele>
        <time>2022-06-12T07:23:21Z</time>
      </trkpt>
      <trkpt lat="44.22981" lon="6.7488">
        <ele>1720.5</ele>
        <time>2022-06-12T07:23:22Z</time>
      </trkpt>
      <trkpt lat="44.22983" lon="6.7488">
        <ele>1720.8</ele>
        <time>2022-06-12T07:23:23Z</time>
      </trkpt>
      <trkpt lat="44.22985" lon="6.74879">
        <ele>1721.1</ele>
        <time>2022-06-12T07:23:24Z</time>
      </trkpt>
      <trkpt lat="44.22988" lon="6.74878">
        <ele>1721.4</ele>
        <time>2022-06-12T07:23:25Z</time>
      </trkpt>
      <trkpt lat="44.2299" lon="6.74878">
        <ele>1721.7</ele>
        <time>2022-06-12T07:23:26Z</time>
      </trkpt>
      <trkpt lat="44.22992" lon="6.74877">
        <ele>1722</ele>
        <time>2022-06-12T07:23:27Z</time>
      </trkpt>
      <trkpt lat="44.22995" lon="6.74877">
        <ele>1722.3</ele>
        <time>2022-06-12T07:23:28Z</time>
      </trkpt>
      <trkpt lat="44.22997" lon="6.74876">
        <ele>1722.5</ele>
        <time>2022-06-12T07:23:29Z</time>
      </trkpt>
      <trkpt lat="44.22999" lon="6.74876">
        <ele>1722.7</ele>
        <time>2022-06-12T07:23:30Z</time>
      </trkpt>
      <trkpt lat="44.23001" lon="6.74876">
        <ele>1723.1</ele>
        <time>2022-06-12T07:23:31Z</time>
      </trkpt>
      <trkpt lat="44.23003" lon="6.74876">
        <ele>1723.8</ele>
        <time>2022-06-12T07:23:32Z</time>
      </trkpt>
      <trkpt lat="44.23006" lon="6.74876">
        <ele>1724.4</ele>
        <time>2022-06-12T07:23:33Z</time>
      </trkpt>
      <trkpt lat="44.23008" lon="6.74876">
        <ele>1724.9</ele>
        <time>2022-06-12T07:23:34Z</time>
      </trkpt>
      <trkpt lat="44.23009" lon="6.74876">
        <ele>1725.3</ele>
        <time>2022-06-12T07:23:35Z</time>
      </trkpt>
      <trkpt lat="44.23011" lon="6.74876">
        <ele>1725.8</ele>
        <time>2022-06-12T07:23:36Z</time>
      </trkpt>
      <trkpt lat="44.23014" lon="6.74877">
        <ele>1726.3</ele>
        <time>2022-06-12T07:23:37Z</time>
      </trkpt>
      <trkpt lat="44.23016" lon="6.74877">
        <ele>1726.7</ele>
        <time>2022-06-12T07:23:38Z</time>
      </trkpt>
      <trkpt lat="44.23018" lon="6.74878">
        <ele>1727.1</ele>
        <time>2022-06-12T07:23:39Z</time>
      </trkpt>
      <trkpt lat="44.2302" lon="6.74879">
        <ele>1727.6</ele>
        <time>2022-06-12T07:23:40Z</time>
      </trkpt>
      <trkpt lat="44.23022" lon="6.7488">
        <ele>1727.9</ele>
        <time>2022-06-12T07:23:41Z</time>
      </trkpt>
      <trkpt lat="44.23024" lon="6.74881">
        <ele>1728.3</ele>
        <time>2022-06-12T07:23:42Z</time>
      </trkpt>
      <trkpt lat="44.23026" lon="6.74882">
        <ele>1728.5</ele>
        <time>2022-06-12T07:23:43Z</time>
      </trkpt>
      <trkpt lat="44.23027" lon="6.74884">
        <ele>1728.8</ele>
        <time>2022-06-12T07:23:44Z</time>
      </trkpt>
      <trkpt lat="44.23029" lon="6.74885">
        <ele>1729.2</ele>
        <time>2022-06-12T07:23:45Z</time>
      </trkpt>
      <trkpt lat="44.23031" lon="6.74886">
        <ele>1729.7</ele>
        <time>2022-06-12T07:23:46Z</time>
      </trkpt>
      <trkpt lat="44.23033" lon="6.74888">
        <ele>1730.2</ele>
        <time>2022-06-12T07:23:47Z</time>
      </trkpt>
      <trkpt lat="44.23035" lon="6.7489">
        <ele>1730.6</ele>
        <time>2022-06-12T07:23:48Z</time>
      </trkpt>
      <trkpt lat="44.23036" lon="6.74892">
        <ele>1730.9</ele>
        <time>2022-06-12T07:23:49Z</time>
      </trkpt>
      <trkpt lat="44.23038" lon="6.74893">
        <ele>1731.3</ele>
        <time>2022-06-12T07:23:50Z</time>
      </trkpt>
      <trkpt lat="44.2304" lon="6.74895">
        <ele>1731.7</ele>
        <time>2022-06-12T07:23:51Z</time>
      </trkpt>
      <trkpt lat="44.23041" lon="6.74897">
        <ele>1732</ele>
        <time>2022-06-12T07:23:52Z</time>
      </trkpt>
      <trkpt lat="44.23043" lon="6.749">
        <ele>1732.3</ele>
        <time>2022-06-12T07:23:53Z</time>
      </trkpt>
      <trkpt lat="44.23044" lon="6.74902">
        <ele>1732.6</ele>
        <time>2022-06-12T07:23:54Z</time>
      </trkpt>
      <trkpt lat="44.23046" lon="6.74904">
        <ele>1732.8</ele>
        <time>2022-06-12T07:23:55Z</time>
      </trkpt>
      <trkpt lat="44.23047" lon="6.74907">
        <ele>1733</ele>
        <time>2022-06-12T07:23:56Z</time>
      </trkpt>
      <trkpt lat="44.23048" lon="6.74909">
        <ele>1733.1</ele>
        <time>2022-06-12T07:23:57Z</time>
      </trkpt>
      <trkpt lat="44.2305" lon="6.74912">
        <ele>1733.3</ele>
        <time>2022-06-12T07:23:58Z</time>
      </trkpt>
      <trkpt lat="44.23051" lon="6.74915">
        <ele>1733.3</ele>
        <time>2022-06-12T07:23:59Z</time>
      </trkpt>
      <trkpt lat="44.23052" lon="6.74918">
        <ele>1733.3</ele>
        <time>2022-06-12T07:24:00Z</time>
      </trkpt>
      <trkpt lat="44.23052" lon="6.74921">
        <ele>1733</ele>
        <time>2022-06-12T07:24:01Z</time>
      </trkpt>
      <trkpt lat="44.23053" lon="6.74923">
        <ele>1733</ele>
        <time>2022-06-12T07:24:02Z</time>
      </trkpt>
      <trkpt lat="44.23054" lon="6.74926">
        <ele>1732.8</ele>
        <time>2022-06-12T07:24:03Z</time>
      </trkpt>
      <trkpt lat="44.23055" lon="6.74929">
        <ele>1732.8</ele>
        <time>2022-06-12T07:24:04Z</time>
      </trkpt>
      <trkpt lat="44.23055" lon="6.74932">
        <ele>1732.6</ele>
        <time>2022-06-12T07:24:05Z</time>
      </trkpt>
      <trkpt lat="44.23056" lon="6.74936">
        <ele>1732.4</ele>
        <time>2022-06-12T07:24:06Z</time>
      </trkpt>
      <trkpt lat="44.23056" lon="6.74939">
        <ele>1732.1</ele>
        <time>2022-06-12T07:24:07Z</time>
      </trkpt>
      <trkpt lat="44.23056" lon="6.74942">
        <ele>1731.7</ele>
        <time>2022-06-12T07:24:08Z</time>
      </trkpt>
      <trkpt lat="44.23057" lon="6.74945">
        <ele>1731.3</ele>
        <time>2022-06-12T07:24:09Z</time>
      </trkpt>
      <trkpt lat="44.23057" lon="6.74948">
        <ele>1730.8</ele>
        <time>2022-06-12T07:24:10Z</time>
      </trkpt>
      <trkpt lat="44.23058" lon="6.74951">
        <ele>1730.3</ele>
        <time>2022-06-12T07:24:11Z</time>
      </trkpt>
      <trkpt lat="44.23059" lon="6.74954">
        <ele>1730</ele>
        <time>2022-06-12T07:24:12Z</time>
      </trkpt>
      <trkpt lat="44.23059" lon="6.74957">
        <ele>1729.6</ele>
        <time>2022-06-12T07:24:13Z</time>
      </trkpt>
      <trkpt lat="44.23061" lon="6.7496">
        <ele>1729.4</ele>
        <time>2022-06-12T07:24:14Z</time>
      </trkpt>
      <trkpt lat="44.23062" lon="6.74962">
        <ele>1729.4</ele>
        <time>2022-06-12T07:24:15Z</time>
      </trkpt>
      <trkpt lat="44.23064" lon="6.74964">
        <ele>1729.5</ele>
        <time>2022-06-12T07:24:16Z</time>
      </trkpt>
      <trkpt lat="44.23065" lon="6.74966">
        <ele>1729.6</ele>
        <time>2022-06-12T07:24:17Z</time>
      </trkpt>
      <trkpt lat="44.23067" lon="6.74968">
        <ele>1729.8</ele>
        <time>2022-06-12T07:24:18Z</time>
      </trkpt>
      <trkpt lat="44.23069" lon="6.7497">
        <ele>1730</ele>
        <time>2022-06-12T07:24:19Z</time>
      </trkpt>
      <trkpt lat="44.23071" lon="6.74972">
        <ele>1730.1</ele>
        <time>2022-06-12T07:24:20Z</time>
      </trkpt>
      <trkpt lat="44.23073" lon="6.74973">
        <ele>1730.3</ele>
        <time>2022-06-12T07:24:21Z</time>
      </trkpt>
      <trkpt lat="44.23075" lon="6.74974">
        <ele>1730.9</ele>
        <time>2022-06-12T07:24:22Z</time>
      </trkpt>
      <trkpt lat="44.23077" lon="6.74974">
        <ele>1731.5</ele>
        <time>2022-06-12T07:24:23Z</time>
      </trkpt>
      <trkpt lat="44.23079" lon="6.74975">
        <ele>1731.9</ele>
        <time>2022-06-12T07:24:24Z</time>
      </trkpt>
      <trkpt lat="44.23081" lon="6.74976">
        <ele>1732.3</ele>
        <time>2022-06-12T07:24:25Z</time>
      </trkpt>
      <trkpt lat="44.23084" lon="6.74977">
        <ele>1732.9</ele>
        <time>2022-06-12T07:24:26Z</time>
      </trkpt>
      <trkpt lat="44.23086" lon="6.74978">
        <ele>1733.6</ele>
        <time>2022-06-12T07:24:27Z</time>
      </trkpt>
      <trkpt lat="44.23089" lon="6.74978">
        <ele>1734.3</ele>
        <time>2022-06-12T07:24:28Z</time>
      </trkpt>
      <trkpt lat="44.23091" lon="6.74979">
        <ele>1735.1</ele>
        <time>2022-06-12T07:24:29Z</time>
      </trkpt>
      <trkpt lat="44.23093" lon="6.74979">
        <ele>1735.8</ele>
        <time>2022-06-12T07:24:30Z</time>
      </trkpt>
      <trkpt lat="44.23095" lon="6.7498">
        <ele>1736.3</ele>
        <time>2022-06-12T07:24:31Z</time>
      </trkpt>
      <trkpt lat="44.23098" lon="6.7498">
        <ele>1737.1</ele>
        <time>2022-06-12T07:24:32Z</time>
      </trkpt>
      <trkpt lat="44.231" lon="6.74981">
        <ele>1737.9</ele>
        <time>2022-06-12T07:24:33Z</time>
      </trkpt>
      <trkpt lat="44.23103" lon="6.74981">
        <ele>1738.7</ele>
        <time>2022-06-12T07:24:34Z</time>
      </trkpt>
      <trkpt lat="44.23106" lon="6.74982">
        <ele>1739.4</ele>
        <time>2022-06-12T07:24:35Z</time>
      </trkpt>
      <trkpt lat="44.23108" lon="6.74984">
        <ele>1740</ele>
        <time>2022-06-12T07:24:36Z</time>
      </trkpt>
      <trkpt lat="44.23111" lon="6.74985">
        <ele>1740.6</ele>
        <time>2022-06-12T07:24:37Z</time>
      </trkpt>
      <trkpt lat="44.23113" lon="6.74987">
        <ele>1741.2</ele>
        <time>2022-06-12T07:24:38Z</time>
      </trkpt>
      <trkpt lat="44.23115" lon="6.74988">
        <ele>1741.8</ele>
        <time>2022-06-12T07:24:39Z</time>
      </trkpt>
      <trkpt lat="44.23118" lon="6.74989">
        <ele>1742.5</ele>
        <time>2022-06-12T07:24:40Z</time>
      </trkpt>
      <trkpt lat="44.2312" lon="6.74991">
        <ele>1743.1</ele>
        <time>2022-06-12T07:24:41Z</time>
      </trkpt>
      <trkpt lat="44.23122" lon="6.74992">
        <ele>1743.7</ele>
        <time>2022-06-12T07:24:42Z</time>
      </trkpt>
      <trkpt lat="44.23124" lon="6.74993">
        <ele>1744.3</ele>
        <time>2022-06-12T07:24:43Z</time>
      </trkpt>
      <trkpt lat="44.23126" lon="6.74994">
        <ele>1744.7</ele>
        <time>2022-06-12T07:24:44Z</time>
      </trkpt>
      <trkpt lat="44.23128" lon="6.74996">
        <ele>1745.1</ele>
        <time>2022-06-12T07:24:45Z</time>
      </trkpt>
      <trkpt lat="44.23129" lon="6.74998">
        <ele>1745.4</ele>
        <time>2022-06-12T07:24:46Z</time>
      </trkpt>
      <trkpt lat="44.23131" lon="6.74999">
        <ele>1745.8</ele>
        <time>2022-06-12T07:24:47Z</time>
      </trkpt>
      <trkpt lat="44.23133" lon="6.75001">
        <ele>1746.2</ele>
        <time>2022-06-12T07:24:48Z</time>
      </trkpt>
      <trkpt lat="44.23135" lon="6.75003">
        <ele>1746.6</ele>
        <time>2022-06-12T07:24:49Z</time>
      </trkpt>
      <trkpt lat="44.23136" lon="6.75005">
        <ele>1746.8</ele>
        <time>2022-06-12T07:24:50Z</time>
      </trkpt>
      <trkpt lat="44.23138" lon="6.75008">
        <ele>1747</ele>
        <time>2022-06-12T07:24:51Z</time>
      </trkpt>
      <trkpt lat="44.2314" lon="6.7501">
        <ele>1747.2</ele>
        <time>2022-06-12T07:24:52Z</time>
      </trkpt>
      <trkpt lat="44.23141" lon="6.75013">
        <ele>1747.4</ele>
        <time>2022-06-12T07:24:53Z</time>
      </trkpt>
      <trkpt lat="44.23143" lon="6.75015">
        <ele>1747.6</ele>
        <time>2022-06-12T07:24:54Z</time>
      </trkpt>
      <trkpt lat="44.23144" lon="6.75017">
        <ele>1747.9</ele>
        <time>2022-06-12T07:24:55Z</time>
      </trkpt>
      <trkpt lat="44.23145" lon="6.7502">
        <ele>1748</ele>
        <time>2022-06-12T07:24:56Z</time>
      </trkpt>
      <trkpt lat="44.23146" lon="6.75022">
        <ele>1748.1</ele>
        <time>2022-06-12T07:24:57Z</time>
      </trkpt>
      <trkpt lat="44.23147" lon="6.75025">
        <ele>1748.1</ele>
        <time>2022-06-12T07:24:58Z</time>
      </trkpt>
      <trkpt lat="44.23149" lon="6.75028">
        <ele>1748.2</ele>
        <time>2022-06-12T07:24:59Z</time>
      </trkpt>
      <trkpt lat="44.23149" lon="6.75031">
        <ele>1748.3</ele>
        <time>2022-06-12T07:25:00Z</time>
      </trkpt>
      <trkpt lat="44.2315" lon="6.75035">
        <ele>1748.3</ele>
        <time>2022-06-12T07:25:01Z</time>
      </trkpt>
      <trkpt lat="44.2315" lon="6.75038">
        <ele>1748.1</ele>
        <time>2022-06-12T07:25:02Z</time>
      </trkpt>
      <trkpt lat="44.23151" lon="6.75042">
        <ele>1747.9</ele>
        <time>2022-06-12T07:25:03Z</time>
      </trkpt>
      <trkpt lat="44.23152" lon="6.75045">
        <ele>1748</ele>
        <time>2022-06-12T07:25:04Z</time>
      </trkpt>
      <trkpt lat="44.23152" lon="6.75048">
        <ele>1747.8</ele>
        <time>2022-06-12T07:25:05Z</time>
      </trkpt>
      <trkpt lat="44.23152" lon="6.75052">
        <ele>1747.6</ele>
        <time>2022-06-12T07:25:06Z</time>
      </trkpt>
      <trkpt lat="44.23152" lon="6.75055">
        <ele>1747.1</ele>
        <time>2022-06-12T07:25:07Z</time>
      </trkpt>
      <trkpt lat="44.23152" lon="6.75059">
        <ele>1746.7</ele>
        <time>2022-06-12T07:25:08Z</time>
      </trkpt>
      <trkpt lat="44.23152" lon="6.75062">
        <ele>1746.3</ele>
        <time>2022-06-12T07:25:09Z</time>
      </trkpt>
      <trkpt lat="44.23152" lon="6.75065">
        <ele>1746.1</ele>
        <time>2022-06-12T07:25:10Z</time>
      </trkpt>
      <trkpt lat="44.23152" lon="6.75068">
        <ele>1745.9</ele>
        <time>2022-06-12T07:25:11Z</time>
      </trkpt>
      <trkpt lat="44.23152" lon="6.75072">
        <ele>1745.7</ele>
        <time>2022-06-12T07:25:12Z</time>
      </trkpt>
      <trkpt lat="44.23152" lon="6.75075">
        <ele>1745.5</ele>
        <time>2022-06-12T07:25:13Z</time>
      </trkpt>
      <trkpt lat="44.23152" lon="6.75078">
        <ele>1745.2</ele>
        <time>2022-06-12T07:25:14Z</time>
      </trkpt>
      <trkpt lat="44.23152" lon="6.75081">
        <ele>1745</ele>
        <time>2022-06-12T07:25:15Z</time>
      </trkpt>
      <trkpt lat="44.23153" lon="6.75084">
        <ele>1744.8</ele>
        <time>2022-06-12T07:25:16Z</time>
      </trkpt>
      <trkpt lat="44.23153" lon="6.75087">
        <ele>1744.5</ele>
        <time>2022-06-12T07:25:17Z</time>
      </trkpt>
      <trkpt lat="44.23153" lon="6.7509">
        <ele>1744.3</ele>
        <time>2022-06-12T07:25:18Z</time>
      </trkpt>
      <trkpt lat="44.23154" lon="6.75093">
        <ele>1744.2</ele>
        <time>2022-06-12T07:25:19Z</time>
      </trkpt>
      <trkpt lat="44.23155" lon="6.75096">
        <ele>1744.2</ele>
        <time>2022-06-12T07:25:20Z</time>
      </trkpt>
      <trkpt lat="44.23157" lon="6.75099">
        <ele>1744.3</ele>
        <time>2022-06-12T07:25:21Z</time>
      </trkpt>
      <trkpt lat="44.23158" lon="6.75101">
        <ele>1744.4</ele>
        <time>2022-06-12T07:25:22Z</time>
      </trkpt>
      <trkpt lat="44.2316" lon="6.75102">
        <ele>1744.7</ele>
        <time>2022-06-12T07:25:23Z</time>
      </trkpt>
      <trkpt lat="44.23162" lon="6.75104">
        <ele>1745.1</ele>
        <time>2022-06-12T07:25:24Z</time>
      </trkpt>
      <trkpt lat="44.23165" lon="6.75105">
        <ele>1745.6</ele>
        <time>2022-06-12T07:25:25Z</time>
      </trkpt>
      <trkpt lat="44.23168" lon="6.75106">
        <ele>1746</ele>
        <time>2022-06-12T07:25:26Z</time>
      </trkpt>
      <trkpt lat="44.2317" lon="6.75107">
        <ele>1746.3</ele>
        <time>2022-06-12T07:25:27Z</time>
      </trkpt>
      <trkpt lat="44.23172" lon="6.75107">
        <ele>1746.6</ele>
        <time>2022-06-12T07:25:28Z</time>
      </trkpt>
      <trkpt lat="44.23174" lon="6.75107">
        <ele>1746.9</ele>
        <time>2022-06-12T07:25:29Z</time>
      </trkpt>
      <trkpt lat="44.23177" lon="6.75107">
        <ele>1747.3</ele>
        <time>2022-06-12T07:25:30Z</time>
      </trkpt>
      <trkpt lat="44.2318" lon="6.75107">
        <ele>1747.7</ele>
        <time>2022-06-12T07:25:31Z</time>
      </trkpt>
      <trkpt lat="44.23182" lon="6.75108">
        <ele>1748</ele>
        <time>2022-06-12T07:25:32Z</time>
      </trkpt>
      <trkpt lat="44.23185" lon="6.75108">
        <ele>1748.4</ele>
        <time>2022-06-12T07:25:33Z</time>
      </trkpt>
      <trkpt lat="44.23187" lon="6.75108">
        <ele>1748.8</ele>
        <time>2022-06-12T07:25:34Z</time>
      </trkpt>
      <trkpt lat="44.2319" lon="6.75107">
        <ele>1749.3</ele>
        <time>2022-06-12T07:25:35Z</time>
      </trkpt>
      <trkpt lat="44.23191" lon="6.75107">
        <ele>1749.5</ele>
        <time>2022-06-12T07:25:36Z</time>
      </trkpt>
      <trkpt lat="44.23193" lon="6.75107">
        <ele>1749.8</ele>
        <time>2022-06-12T07:25:37Z</time>
      </trkpt>
      <trkpt lat="44.23196" lon="6.75107">
        <ele>1750.3</ele>
        <time>2022-06-12T07:25:38Z</time>
      </trkpt>
      <trkpt lat="44.23199" lon="6.75106">
        <ele>1750.8</ele>
        <time>2022-06-12T07:25:39Z</time>
      </trkpt>
      <trkpt lat="44.23202" lon="6.75106">
        <ele>1751.2</ele>
        <time>2022-06-12T07:25:40Z</time>
      </trkpt>
      <trkpt lat="44.23205" lon="6.75105">
        <ele>1751.6</ele>
        <time>2022-06-12T07:25:41Z</time>
      </trkpt>
      <trkpt lat="44.23207" lon="6.75104">
        <ele>1752.1</ele>
        <time>2022-06-12T07:25:42Z</time>
      </trkpt>
      <trkpt lat="44.2321" lon="6.75105">
        <ele>1752.3</ele>
        <time>2022-06-12T07:25:43Z</time>
      </trkpt>
      <trkpt lat="44.23213" lon="6.75104">
        <ele>1752.7</ele>
        <time>2022-06-12T07:25:44Z</time>
      </trkpt>
      <trkpt lat="44.23215" lon="6.75104">
        <ele>1753</ele>
        <time>2022-06-12T07:25:45Z</time>
      </trkpt>
      <trkpt lat="44.23218" lon="6.75105">
        <ele>1753.2</ele>
        <time>2022-06-12T07:25:46Z</time>
      </trkpt>
      <trkpt lat="44.2322" lon="6.75105">
        <ele>1753.4</ele>
        <time>2022-06-12T07:25:47Z</time>
      </trkpt>
      <trkpt lat="44.23222" lon="6.75105">
        <ele>1753.5</ele>
        <time>2022-06-12T07:25:48Z</time>
      </trkpt>
      <trkpt lat="44.23224" lon="6.75105">
        <ele>1753.8</ele>
        <time>2022-06-12T07:25:49Z</time>
      </trkpt>
      <trkpt lat="44.23226" lon="6.75105">
        <ele>1754.2</ele>
        <time>2022-06-12T07:25:50Z</time>
      </trkpt>
      <trkpt lat="44.23228" lon="6.75106">
        <ele>1754.6</ele>
        <time>2022-06-12T07:25:51Z</time>
      </trkpt>
      <trkpt lat="44.23231" lon="6.75106">
        <ele>1755</ele>
        <time>2022-06-12T07:25:52Z</time>
      </trkpt>
      <trkpt lat="44.23232" lon="6.75106">
        <ele>1755.3</ele>
        <time>2022-06-12T07:25:53Z</time>
      </trkpt>
      <trkpt lat="44.23234" lon="6.75106">
        <ele>1755.6</ele>
        <time>2022-06-12T07:25:54Z</time>
      </trkpt>
      <trkpt lat="44.23236" lon="6.75106">
        <ele>1755.9</ele>
        <time>2022-06-12T07:25:55Z</time>
      </trkpt>
      <trkpt lat="44.23238" lon="6.75107">
        <ele>1756.2</ele>
        <time>2022-06-12T07:25:56Z</time>
      </trkpt>
      <trkpt lat="44.2324" lon="6.75108">
        <ele>1756.4</ele>
        <time>2022-06-12T07:25:57Z</time>
      </trkpt>
      <trkpt lat="44.23242" lon="6.75109">
        <ele>1756.5</ele>
        <time>2022-06-12T07:25:58Z</time>
      </trkpt>
      <trkpt lat="44.23243" lon="6.75111">
        <ele>1756.5</ele>
        <time>2022-06-12T07:25:59Z</time>
      </trkpt>
      <trkpt lat="44.23245" lon="6.75113">
        <ele>1756.7</ele>
        <time>2022-06-12T07:26:00Z</time>
      </trkpt>
      <trkpt lat="44.23246" lon="6.75115">
        <ele>1756.8</ele>
        <time>2022-06-12T07:26:01Z</time>
      </trkpt>
      <trkpt lat="44.23248" lon="6.75117">
        <ele>1757.1</ele>
        <time>2022-06-12T07:26:02Z</time>
      </trkpt>
      <trkpt lat="44.2325" lon="6.7512">
        <ele>1757.3</ele>
        <time>2022-06-12T07:26:03Z</time>
      </trkpt>
      <trkpt lat="44.23251" lon="6.75123">
        <ele>1757.6</ele>
        <time>2022-06-12T07:26:04Z</time>
      </trkpt>
      <trkpt lat="44.23252" lon="6.75126">
        <ele>1757.8</ele>
        <time>2022-06-12T07:26:05Z</time>
      </trkpt>
      <trkpt lat="44.23253" lon="6.75129">
        <ele>1757.8</ele>
        <time>2022-06-12T07:26:06Z</time>
      </trkpt>
      <trkpt lat="44.23253" lon="6.75132">
        <ele>1757.7</ele>
        <time>2022-06-12T07:26:07Z</time>
      </trkpt>
      <trkpt lat="44.23253" lon="6.75135">
        <ele>1757.7</ele>
        <time>2022-06-12T07:26:08Z</time>
      </trkpt>
      <trkpt lat="44.23254" lon="6.75138">
        <ele>1757.8</ele>
        <time>2022-06-12T07:26:09Z</time>
      </trkpt>
      <trkpt lat="44.23255" lon="6.75141">
        <ele>1757.9</ele>
        <time>2022-06-12T07:26:10Z</time>
      </trkpt>
      <trkpt lat="44.23256" lon="6.75145">
        <ele>1758</ele>
        <time>2022-06-12T07:26:11Z</time>
      </trkpt>
      <trkpt lat="44.23256" lon="6.75148">
        <ele>1758</ele>
        <time>2022-06-12T07:26:12Z</time>
      </trkpt>
      <trkpt lat="44.23257" lon="6.75151">
        <ele>1757.9</ele>
        <time>2022-06-12T07:26:13Z</time>
      </trkpt>
      <trkpt lat="44.23257" lon="6.75154">
        <ele>1757.8</ele>
        <time>2022-06-12T07:26:14Z</time>
      </trkpt>
      <trkpt lat="44.23257" lon="6.75157">
        <ele>1757.7</ele>
        <time>2022-06-12T07:26:15Z</time>
      </trkpt>
      <trkpt lat="44.23257" lon="6.75161">
        <ele>1757.6</ele>
        <time>2022-06-12T07:26:16Z</time>
      </trkpt>
      <trkpt lat="44.23258" lon="6.75165">
        <ele>1757.6</ele>
        <time>2022-06-12T07:26:17Z</time>
      </trkpt>
      <trkpt lat="44.23259" lon="6.75168">
        <ele>1757.6</ele>
        <time>2022-06-12T07:26:18Z</time>
      </trkpt>
      <trkpt lat="44.2326" lon="6.75171">
        <ele>1757.5</ele>
        <time>2022-06-12T07:26:19Z</time>
      </trkpt>
      <trkpt lat="44.23261" lon="6.75175">
        <ele>1757.5</ele>
        <time>2022-06-12T07:26:20Z</time>
      </trkpt>
      <trkpt lat="44.23262" lon="6.75178">
        <ele>1757.5</ele>
        <time>2022-06-12T07:26:21Z</time>
      </trkpt>
      <trkpt lat="44.23263" lon="6.75181">
        <ele>1757.6</ele>
        <time>2022-06-12T07:26:22Z</time>
      </trkpt>
      <trkpt lat="44.23264" lon="6.75183">
        <ele>1757.6</ele>
        <time>2022-06-12T07:26:23Z</time>
      </trkpt>
      <trkpt lat="44.23265" lon="6.75186">
        <ele>1757.8</ele>
        <time>2022-06-12T07:26:24Z</time>
      </trkpt>
      <trkpt lat="44.23267" lon="6.75189">
        <ele>1758</ele>
        <time>2022-06-12T07:26:25Z</time>
      </trkpt>
      <trkpt lat="44.23269" lon="6.75191">
        <ele>1758.3</ele>
        <time>2022-06-12T07:26:26Z</time>
      </trkpt>
      <trkpt lat="44.23271" lon="6.75193">
        <ele>1758.6</ele>
        <time>2022-06-12T07:26:27Z</time>
      </trkpt>
      <trkpt lat="44.23273" lon="6.75195">
        <ele>1759</ele>
        <time>2022-06-12T07:26:28Z</time>
      </trkpt>
      <trkpt lat="44.23275" lon="6.75197">
        <ele>1759.4</ele>
        <time>2022-06-12T07:26:29Z</time>
      </trkpt>
      <trkpt lat="44.23277" lon="6.75198">
        <ele>1759.9</ele>
        <time>2022-06-12T07:26:30Z</time>
      </trkpt>
      <trkpt lat="44.2328" lon="6.752">
        <ele>1760.3</ele>
        <time>2022-06-12T07:26:31Z</time>
      </trkpt>
      <trkpt lat="44.23282" lon="6.75201">
        <ele>1760.7</ele>
        <time>2022-06-12T07:26:32Z</time>
      </trkpt>
      <trkpt lat="44.23284" lon="6.75202">
        <ele>1761</ele>
        <time>2022-06-12T07:26:33Z</time>
      </trkpt>
      <trkpt lat="44.23287" lon="6.75203">
        <ele>1761.4</ele>
        <time>2022-06-12T07:26:34Z</time>
      </trkpt>
      <trkpt lat="44.23289" lon="6.75204">
        <ele>1761.8</ele>
        <time>2022-06-12T07:26:35Z</time>
      </trkpt>
      <trkpt lat="44.23291" lon="6.75205">
        <ele>1762.3</ele>
        <time>2022-06-12T07:26:36Z</time>
      </trkpt>
      <trkpt lat="44.23294" lon="6.75206">
        <ele>1762.6</ele>
        <time>2022-06-12T07:26:37Z</time>
      </trkpt>
      <trkpt lat="44.23296" lon="6.75207">
        <ele>1763</ele>
        <time>2022-06-12T07:26:38Z</time>
      </trkpt>
      <trkpt lat="44.23298" lon="6.75208">
        <ele>1763.4</ele>
        <time>2022-06-12T07:26:39Z</time>
      </trkpt>
      <trkpt lat="44.233" lon="6.75209">
        <ele>1763.8</ele>
        <time>2022-06-12T07:26:40Z</time>
      </trkpt>
      <trkpt lat="44.23302" lon="6.7521">
        <ele>1764</ele>
        <time>2022-06-12T07:26:41Z</time>
      </trkpt>
      <trkpt lat="44.23304" lon="6.75211">
        <ele>1764.4</ele>
        <time>2022-06-12T07:26:42Z</time>
      </trkpt>
      <trkpt lat="44.23307" lon="6.75212">
        <ele>1764.7</ele>
        <time>2022-06-12T07:26:43Z</time>
      </trkpt>
      <trkpt lat="44.23309" lon="6.75214">
        <ele>1764.7</ele>
        <time>2022-06-12T07:26:44Z</time>
      </trkpt>
      <trkpt lat="44.23311" lon="6.75215">
        <ele>1764.7</ele>
        <time>2022-06-12T07:26:45Z</time>
      </trkpt>
      <trkpt lat="44.23314" lon="6.75216">
        <ele>1764.9</ele>
        <time>2022-06-12T07:26:46Z</time>
      </trkpt>
      <trkpt lat="44.23316" lon="6.75217">
        <ele>1764.9</ele>
        <time>2022-06-12T07:26:47Z</time>
      </trkpt>
      <trkpt lat="44.23318" lon="6.75218">
        <ele>1764.9</ele>
        <time>2022-06-12T07:26:48Z</time>
      </trkpt>
      <trkpt lat="44.2332" lon="6.75219">
        <ele>1765</ele>
        <time>2022-06-12T07:26:49Z</time>
      </trkpt>
      <trkpt lat="44.23322" lon="6.7522">
        <ele>1765.1</ele>
        <time>2022-06-12T07:26:50Z</time>
      </trkpt>
      <trkpt lat="44.23325" lon="6.75221">
        <ele>1765.1</ele>
        <time>2022-06-12T07:26:51Z</time>
      </trkpt>
      <trkpt lat="44.23327" lon="6.75222">
        <ele>1765.2</ele>
        <time>2022-06-12T07:26:52Z</time>
      </trkpt>
      <trkpt lat="44.23329" lon="6.75223">
        <ele>1765.3</ele>
        <time>2022-06-12T07:26:53Z</time>
      </trkpt>
      <trkpt lat="44.23331" lon="6.75224">
        <ele>1765.2</ele>
        <time>2022-06-12T07:26:54Z</time>
      </trkpt>
      <trkpt lat="44.23333" lon="6.75224">
        <ele>1765.2</ele>
        <time>2022-06-12T07:26:55Z</time>
      </trkpt>
      <trkpt lat="44.23336" lon="6.75225">
        <ele>1765.2</ele>
        <time>2022-06-12T07:26:56Z</time>
      </trkpt>
      <trkpt lat="44.23338" lon="6.75226">
        <ele>1765.2</ele>
        <time>2022-06-12T07:26:57Z</time>
      </trkpt>
      <trkpt lat="44.2334" lon="6.75227">
        <ele>1765.2</ele>
        <time>2022-06-12T07:26:58Z</time>
      </trkpt>
      <trkpt lat="44.23342" lon="6.75228">
        <ele>1765.1</ele>
        <time>2022-06-12T07:26:59Z</time>
      </trkpt>
      <trkpt lat="44.23345" lon="6.75229">
        <ele>1765.1</ele>
        <time>2022-06-12T07:27:00Z</time>
      </trkpt>
      <trkpt lat="44.23347" lon="6.7523">
        <ele>1765.1</ele>
        <time>2022-06-12T07:27:01Z</time>
      </trkpt>
      <trkpt lat="44.23349" lon="6.75231">
        <ele>1765.1</ele>
        <time>2022-06-12T07:27:02Z</time>
      </trkpt>
      <trkpt lat="44.23351" lon="6.75231">
        <ele>1765.1</ele>
        <time>2022-06-12T07:27:03Z</time>
      </trkpt>
      <trkpt lat="44.23354" lon="6.75232">
        <ele>1765.1</ele>
        <time>2022-06-12T07:27:04Z</time>
      </trkpt>
      <trkpt lat="44.23356" lon="6.75233">
        <ele>1765.2</ele>
        <time>2022-06-12T07:27:05Z</time>
      </trkpt>
      <trkpt lat="44.23358" lon="6.75233">
        <ele>1765.3</ele>
        <time>2022-06-12T07:27:06Z</time>
      </trkpt>
      <trkpt lat="44.23361" lon="6.75234">
        <ele>1765.2</ele>
        <time>2022-06-12T07:27:07Z</time>
      </trkpt>
      <trkpt lat="44.23363" lon="6.75235">
        <ele>1765.2</ele>
        <time>2022-06-12T07:27:08Z</time>
      </trkpt>
      <trkpt lat="44.23365" lon="6.75236">
        <ele>1765.1</ele>
        <time>2022-06-12T07:27:09Z</time>
      </trkpt>
      <trkpt lat="44.23367" lon="6.75237">
        <ele>1764.9</ele>
        <time>2022-06-12T07:27:10Z</time>
      </trkpt>
      <trkpt lat="44.23369" lon="6.75238">
        <ele>1764.9</ele>
        <time>2022-06-12T07:27:11Z</time>
      </trkpt>
      <trkpt lat="44.23372" lon="6.75238">
        <ele>1765</ele>
        <time>2022-06-12T07:27:12Z</time>
      </trkpt>
      <trkpt lat="44.23374" lon="6.75239">
        <ele>1765.2</ele>
        <time>2022-06-12T07:27:13Z</time>
      </trkpt>
      <trkpt lat="44.23376" lon="6.75239">
        <ele>1765.2</ele>
        <time>2022-06-12T07:27:14Z</time>
      </trkpt>
      <trkpt lat="44.23378" lon="6.7524">
        <ele>1765.3</ele>
        <time>2022-06-12T07:27:15Z</time>
      </trkpt>
      <trkpt lat="44.23381" lon="6.7524">
        <ele>1765.4</ele>
        <time>2022-06-12T07:27:16Z</time>
      </trkpt>
      <trkpt lat="44.23383" lon="6.75241">
        <ele>1765.5</ele>
        <time>2022-06-12T07:27:17Z</time>
      </trkpt>
      <trkpt lat="44.23385" lon="6.75241">
        <ele>1765.7</ele>
        <time>2022-06-12T07:27:18Z</time>
      </trkpt>
      <trkpt lat="44.23388" lon="6.75242">
        <ele>1765.8</ele>
        <time>2022-06-12T07:27:19Z</time>
      </trkpt>
      <trkpt lat="44.2339" lon="6.75242">
        <ele>1765.8</ele>
        <time>2022-06-12T07:27:20Z</time>
      </trkpt>
      <trkpt lat="44.23393" lon="6.75243">
        <ele>1765.6</ele>
        <time>2022-06-12T07:27:21Z</time>
      </trkpt>
      <trkpt lat="44.23395" lon="6.75243">
        <ele>1765.5</ele>
        <time>2022-06-12T07:27:22Z</time>
      </trkpt>
      <trkpt lat="44.23398" lon="6.75244">
        <ele>1765.4</ele>
        <time>2022-06-12T07:27:23Z</time>
      </trkpt>
      <trkpt lat="44.23401" lon="6.75244">
        <ele>1765.2</ele>
        <time>2022-06-12T07:27:24Z</time>
      </trkpt>
      <trkpt lat="44.23403" lon="6.75245">
        <ele>1765</ele>
        <time>2022-06-12T07:27:25Z</time>
      </trkpt>
      <trkpt lat="44.23406" lon="6.75245">
        <ele>1764.9</ele>
        <time>2022-06-12T07:27:26Z</time>
      </trkpt>
      <trkpt lat="44.23408" lon="6.75245">
        <ele>1764.9</ele>
        <time>2022-06-12T07:27:27Z</time>
      </trkpt>
      <trkpt lat="44.23411" lon="6.75245">
        <ele>1764.9</ele>
        <time>2022-06-12T07:27:28Z</time>
      </trkpt>
      <trkpt lat="44.23413" lon="6.75245">
        <ele>1764.9</ele>
        <time>2022-06-12T07:27:29Z</time>
      </trkpt>
      <trkpt lat="44.23416" lon="6.75245">
        <ele>1765</ele>
        <time>2022-06-12T07:27:30Z</time>
      </trkpt>
      <trkpt lat="44.23418" lon="6.75245">
        <ele>1765.1</ele>
        <time>2022-06-12T07:27:31Z</time>
      </trkpt>
      <trkpt lat="44.23421" lon="6.75245">
        <ele>1765.1</ele>
        <time>2022-06-12T07:27:32Z</time>
      </trkpt>
      <trkpt lat="44.23423" lon="6.75245">
        <ele>1765</ele>
        <time>2022-06-12T07:27:33Z</time>
      </trkpt>
      <trkpt lat="44.23426" lon="6.75245">
        <ele>1765</ele>
        <time>2022-06-12T07:27:34Z</time>
      </trkpt>
      <trkpt lat="44.23429" lon="6.75245">
        <ele>1765.2</ele>
        <time>2022-06-12T07:27:35Z</time>
      </trkpt>
      <trkpt lat="44.23431" lon="6.75244">
        <ele>1765.3</ele>
        <time>2022-06-12T07:27:36Z</time>
      </trkpt>
      <trkpt lat="44.23434" lon="6.75244">
        <ele>1765.5</ele>
        <time>2022-06-12T07:27:37Z</time>
      </trkpt>
      <trkpt lat="44.23436" lon="6.75244">
        <ele>1765.5</ele>
        <time>2022-06-12T07:27:38Z</time>
      </trkpt>
      <trkpt lat="44.23439" lon="6.75244">
        <ele>1765.5</ele>
        <time>2022-06-12T07:27:39Z</time>
      </trkpt>
      <trkpt lat="44.23441" lon="6.75244">
        <ele>1765.4</ele>
        <time>2022-06-12T07:27:40Z</time>
      </trkpt>
      <trkpt lat="44.23443" lon="6.75245">
        <ele>1765.2</ele>
        <time>2022-06-12T07:27:41Z</time>
      </trkpt>
      <trkpt lat="44.23446" lon="6.75245">
        <ele>1765</ele>
        <time>2022-06-12T07:27:42Z</time>
      </trkpt>
      <trkpt lat="44.23448" lon="6.75245">
        <ele>1764.8</ele>
        <time>2022-06-12T07:27:43Z</time>
      </trkpt>
      <trkpt lat="44.23451" lon="6.75245">
        <ele>1764.7</ele>
        <time>2022-06-12T07:27:44Z</time>
      </trkpt>
      <trkpt lat="44.23453" lon="6.75245">
        <ele>1764.6</ele>
        <time>2022-06-12T07:27:45Z</time>
      </trkpt>
      <trkpt lat="44.23456" lon="6.75245">
        <ele>1764.6</ele>
        <time>2022-06-12T07:27:46Z</time>
      </trkpt>
      <trkpt lat="44.23458" lon="6.75245">
        <ele>1764.5</ele>
        <time>2022-06-12T07:27:47Z</time>
      </trkpt>
      <trkpt lat="44.23461" lon="6.75245">
        <ele>1764.4</ele>
        <time>2022-06-12T07:27:48Z</time>
      </trkpt>
      <trkpt lat="44.23463" lon="6.75244">
        <ele>1764.4</ele>
        <time>2022-06-12T07:27:49Z</time>
      </trkpt>
      <trkpt lat="44.23466" lon="6.75244">
        <ele>1764.4</ele>
        <time>2022-06-12T07:27:50Z</time>
      </trkpt>
      <trkpt lat="44.23468" lon="6.75244">
        <ele>1764.3</ele>
        <time>2022-06-12T07:27:51Z</time>
      </trkpt>
      <trkpt lat="44.23471" lon="6.75243">
        <ele>1764.3</ele>
        <time>2022-06-12T07:27:52Z</time>
      </trkpt>
      <trkpt lat="44.23473" lon="6.75243">
        <ele>1764.3</ele>
        <time>2022-06-12T07:27:53Z</time>
      </trkpt>
      <trkpt lat="44.23476" lon="6.75243">
        <ele>1764.4</ele>
        <time>2022-06-12T07:27:54Z</time>
      </trkpt>
      <trkpt lat="44.23478" lon="6.75242">
        <ele>1764.4</ele>
        <time>2022-06-12T07:27:55Z</time>
      </trkpt>
      <trkpt lat="44.23481" lon="6.75242">
        <ele>1764.3</ele>
        <time>2022-06-12T07:27:56Z</time>
      </trkpt>
      <trkpt lat="44.23483" lon="6.75243">
        <ele>1764.2</ele>
        <time>2022-06-12T07:27:57Z</time>
      </trkpt>
      <trkpt lat="44.23486" lon="6.75243">
        <ele>1764.1</ele>
        <time>2022-06-12T07:27:58Z</time>
      </trkpt>
      <trkpt lat="44.23489" lon="6.75243">
        <ele>1764.1</ele>
        <time>2022-06-12T07:27:59Z</time>
      </trkpt>
      <trkpt lat="44.23492" lon="6.75243">
        <ele>1764</ele>
        <time>2022-06-12T07:28:00Z</time>
      </trkpt>
      <trkpt lat="44.23494" lon="6.75243">
        <ele>1763.9</ele>
        <time>2022-06-12T07:28:01Z</time>
      </trkpt>
      <trkpt lat="44.23497" lon="6.75243">
        <ele>1763.9</ele>
        <time>2022-06-12T07:28:02Z</time>
      </trkpt>
      <trkpt lat="44.235" lon="6.75243">
        <ele>1763.8</ele>
        <time>2022-06-12T07:28:03Z</time>
      </trkpt>
      <trkpt lat="44.23502" lon="6.75243">
        <ele>1763.8</ele>
        <time>2022-06-12T07:28:04Z</time>
      </trkpt>
      <trkpt lat="44.23505" lon="6.75243">
        <ele>1763.9</ele>
        <time>2022-06-12T07:28:05Z</time>
      </trkpt>
      <trkpt lat="44.23508" lon="6.75242">
        <ele>1764.2</ele>
        <time>2022-06-12T07:28:06Z</time>
      </trkpt>
      <trkpt lat="44.2351" lon="6.7524">
        <ele>1764.4</ele>
        <time>2022-06-12T07:28:07Z</time>
      </trkpt>
      <trkpt lat="44.23513" lon="6.75239">
        <ele>1764.8</ele>
        <time>2022-06-12T07:28:08Z</time>
      </trkpt>
      <trkpt lat="44.23516" lon="6.75237">
        <ele>1765.1</ele>
        <time>2022-06-12T07:28:09Z</time>
      </trkpt>
      <trkpt lat="44.23518" lon="6.75234">
        <ele>1765.6</ele>
        <time>2022-06-12T07:28:10Z</time>
      </trkpt>
      <trkpt lat="44.23519" lon="6.75231">
        <ele>1766.1</ele>
        <time>2022-06-12T07:28:11Z</time>
      </trkpt>
      <trkpt lat="44.2352" lon="6.75228">
        <ele>1766.5</ele>
        <time>2022-06-12T07:28:12Z</time>
      </trkpt>
      <trkpt lat="44.23522" lon="6.75225">
        <ele>1767</ele>
        <time>2022-06-12T07:28:13Z</time>
      </trkpt>
      <trkpt lat="44.23523" lon="6.75222">
        <ele>1767.4</ele>
        <time>2022-06-12T07:28:14Z</time>
      </trkpt>
      <trkpt lat="44.23525" lon="6.7522">
        <ele>1767.8</ele>
        <time>2022-06-12T07:28:15Z</time>
      </trkpt>
      <trkpt lat="44.23526" lon="6.75217">
        <ele>1768.2</ele>
        <time>2022-06-12T07:28:16Z</time>
      </trkpt>
      <trkpt lat="44.23528" lon="6.75215">
        <ele>1768.7</ele>
        <time>2022-06-12T07:28:17Z</time>
      </trkpt>
      <trkpt lat="44.2353" lon="6.75212">
        <ele>1769.1</ele>
        <time>2022-06-12T07:28:18Z</time>
      </trkpt>
      <trkpt lat="44.23532" lon="6.7521">
        <ele>1769.6</ele>
        <time>2022-06-12T07:28:19Z</time>
      </trkpt>
      <trkpt lat="44.23534" lon="6.75208">
        <ele>1770.1</ele>
        <time>2022-06-12T07:28:20Z</time>
      </trkpt>
      <trkpt lat="44.23535" lon="6.75205">
        <ele>1770.5</ele>
        <time>2022-06-12T07:28:21Z</time>
      </trkpt>
      <trkpt lat="44.23537" lon="6.75202">
        <ele>1771.1</ele>
        <time>2022-06-12T07:28:22Z</time>
      </trkpt>
      <trkpt lat="44.23538" lon="6.752">
        <ele>1771.6</ele>
        <time>2022-06-12T07:28:23Z</time>
      </trkpt>
      <trkpt lat="44.23539" lon="6.75198">
        <ele>1772</ele>
        <time>2022-06-12T07:28:24Z</time>
      </trkpt>
      <trkpt lat="44.23541" lon="6.75195">
        <ele>1772.4</ele>
        <time>2022-06-12T07:28:25Z</time>
      </trkpt>
      <trkpt lat="44.23543" lon="6.75193">
        <ele>1772.8</ele>
        <time>2022-06-12T07:28:26Z</time>
      </trkpt>
      <trkpt lat="44.23544" lon="6.7519">
        <ele>1773.1</ele>
        <time>2022-06-12T07:28:27Z</time>
      </trkpt>
      <trkpt lat="44.23546" lon="6.75187">
        <ele>1773.6</ele>
        <time>2022-06-12T07:28:28Z</time>
      </trkpt>
      <trkpt lat="44.23548" lon="6.75184">
        <ele>1774</ele>
        <time>2022-06-12T07:28:29Z</time>
      </trkpt>
      <trkpt lat="44.23549" lon="6.75181">
        <ele>1774.6</ele>
        <time>2022-06-12T07:28:30Z</time>
      </trkpt>
      <trkpt lat="44.23551" lon="6.75178">
        <ele>1775.1</ele>
        <time>2022-06-12T07:28:31Z</time>
      </trkpt>
      <trkpt lat="44.23553" lon="6.75175">
        <ele>1775.6</ele>
        <time>2022-06-12T07:28:32Z</time>
      </trkpt>
      <trkpt lat="44.23555" lon="6.75171">
        <ele>1776.3</ele>
        <time>2022-06-12T07:28:33Z</time>
      </trkpt>
      <trkpt lat="44.23556" lon="6.75167">
        <ele>1776.8</ele>
        <time>2022-06-12T07:28:34Z</time>
      </trkpt>
      <trkpt lat="44.23558" lon="6.75164">
        <ele>1777.1</ele>
        <time>2022-06-12T07:28:35Z</time>
      </trkpt>
      <trkpt lat="44.2356" lon="6.75161">
        <ele>1777.1</ele>
        <time>2022-06-12T07:28:36Z</time>
      </trkpt>
      <trkpt lat="44.23562" lon="6.75158">
        <ele>1777.3</ele>
        <time>2022-06-12T07:28:37Z</time>
      </trkpt>
      <trkpt lat="44.23564" lon="6.75155">
        <ele>1777.4</ele>
        <time>2022-06-12T07:28:38Z</time>
      </trkpt>
      <trkpt lat="44.23566" lon="6.75152">
        <ele>1777.6</ele>
        <time>2022-06-12T07:28:39Z</time>
      </trkpt>
      <trkpt lat="44.23568" lon="6.75148">
        <ele>1777.7</ele>
        <time>2022-06-12T07:28:40Z</time>
      </trkpt>
      <trkpt lat="44.2357" lon="6.75145">
        <ele>1777.9</ele>
        <time>2022-06-12T07:28:41Z</time>
      </trkpt>
      <trkpt lat="44.23572" lon="6.75142">
        <ele>1778.2</ele>
        <time>2022-06-12T07:28:42Z</time>
      </trkpt>
      <trkpt lat="44.23574" lon="6.75138">
        <ele>1778.4</ele>
        <time>2022-06-12T07:28:43Z</time>
      </trkpt>
      <trkpt lat="44.23576" lon="6.75135">
        <ele>1778.6</ele>
        <time>2022-06-12T07:28:44Z</time>
      </trkpt>
      <trkpt lat="44.23578" lon="6.75132">
        <ele>1778.9</ele>
        <time>2022-06-12T07:28:45Z</time>
      </trkpt>
      <trkpt lat="44.2358" lon="6.75128">
        <ele>1779.2</ele>
        <time>2022-06-12T07:28:46Z</time>
      </trkpt>
      <trkpt lat="44.23582" lon="6.75125">
        <ele>1779.5</ele>
        <time>2022-06-12T07:28:47Z</time>
      </trkpt>
      <trkpt lat="44.23585" lon="6.75122">
        <ele>1779.8</ele>
        <time>2022-06-12T07:28:48Z</time>
      </trkpt>
      <trkpt lat="44.23587" lon="6.7512">
        <ele>1780.2</ele>
        <time>2022-06-12T07:28:49Z</time>
      </trkpt>
      <trkpt lat="44.2359" lon="6.75117">
        <ele>1780.5</ele>
        <time>2022-06-12T07:28:50Z</time>
      </trkpt>
      <trkpt lat="44.23592" lon="6.75115">
        <ele>1780.9</ele>
        <time>2022-06-12T07:28:51Z</time>
      </trkpt>
      <trkpt lat="44.23595" lon="6.75113">
        <ele>1781.2</ele>
        <time>2022-06-12T07:28:52Z</time>
      </trkpt>
      <trkpt lat="44.23598" lon="6.75111">
        <ele>1781.6</ele>
        <time>2022-06-12T07:28:53Z</time>
      </trkpt>
      <trkpt lat="44.23601" lon="6.7511">
        <ele>1781.9</ele>
        <time>2022-06-12T07:28:54Z</time>
      </trkpt>
      <trkpt lat="44.23604" lon="6.75109">
        <ele>1782.2</ele>
        <time>2022-06-12T07:28:55Z</time>
      </trkpt>
      <trkpt lat="44.23607" lon="6.75108">
        <ele>1782.4</ele>
        <time>2022-06-12T07:28:56Z</time>
      </trkpt>
      <trkpt lat="44.2361" lon="6.75109">
        <ele>1782.5</ele>
        <time>2022-06-12T07:28:57Z</time>
      </trkpt>
      <trkpt lat="44.23613" lon="6.7511">
        <ele>1782.4</ele>
        <time>2022-06-12T07:28:58Z</time>
      </trkpt>
      <trkpt lat="44.23616" lon="6.75111">
        <ele>1782.4</ele>
        <time>2022-06-12T07:28:59Z</time>
      </trkpt>
      <trkpt lat="44.23619" lon="6.75112">
        <ele>1782.4</ele>
        <time>2022-06-12T07:29:00Z</time>
      </trkpt>
      <trkpt lat="44.23622" lon="6.75114">
        <ele>1782.4</ele>
        <time>2022-06-12T07:29:01Z</time>
      </trkpt>
      <trkpt lat="44.23625" lon="6.75115">
        <ele>1782.3</ele>
        <time>2022-06-12T07:29:02Z</time>
      </trkpt>
      <trkpt lat="44.23627" lon="6.75116">
        <ele>1782.3</ele>
        <time>2022-06-12T07:29:03Z</time>
      </trkpt>
      <trkpt lat="44.2363" lon="6.75118">
        <ele>1782.3</ele>
        <time>2022-06-12T07:29:04Z</time>
      </trkpt>
      <trkpt lat="44.23633" lon="6.75119">
        <ele>1782.2</ele>
        <time>2022-06-12T07:29:05Z</time>
      </trkpt>
      <trkpt lat="44.23635" lon="6.7512">
        <ele>1782.1</ele>
        <time>2022-06-12T07:29:06Z</time>
      </trkpt>
      <trkpt lat="44.23637" lon="6.75121">
        <ele>1782.1</ele>
        <time>2022-06-12T07:29:07Z</time>
      </trkpt>
      <trkpt lat="44.23639" lon="6.75122">
        <ele>1782</ele>
        <time>2022-06-12T07:29:08Z</time>
      </trkpt>
      <trkpt lat="44.23642" lon="6.75124">
        <ele>1782</ele>
        <time>2022-06-12T07:29:09Z</time>
      </trkpt>
      <trkpt lat="44.23645" lon="6.75125">
        <ele>1782.1</ele>
        <time>2022-06-12T07:29:10Z</time>
      </trkpt>
      <trkpt lat="44.23648" lon="6.75126">
        <ele>1782.1</ele>
        <time>2022-06-12T07:29:11Z</time>
      </trkpt>
      <trkpt lat="44.2365" lon="6.75128">
        <ele>1782</ele>
        <time>2022-06-12T07:29:12Z</time>
      </trkpt>
      <trkpt lat="44.23653" lon="6.75129">
        <ele>1781.9</ele>
        <time>2022-06-12T07:29:13Z</time>
      </trkpt>
      <trkpt lat="44.23656" lon="6.75131">
        <ele>1781.9</ele>
        <time>2022-06-12T07:29:14Z</time>
      </trkpt>
      <trkpt lat="44.23659" lon="6.75132">
        <ele>1781.9</ele>
        <time>2022-06-12T07:29:15Z</time>
      </trkpt>
      <trkpt lat="44.23662" lon="6.75133">
        <ele>1782</ele>
        <time>2022-06-12T07:29:16Z</time>
      </trkpt>
      <trkpt lat="44.23665" lon="6.75134">
        <ele>1782</ele>
        <time>2022-06-12T07:29:17Z</time>
      </trkpt>
      <trkpt lat="44.23667" lon="6.75135">
        <ele>1782</ele>
        <time>2022-06-12T07:29:18Z</time>
      </trkpt>
      <trkpt lat="44.2367" lon="6.75136">
        <ele>1782.2</ele>
        <time>2022-06-12T07:29:19Z</time>
      </trkpt>
      <trkpt lat="44.23672" lon="6.75137">
        <ele>1782.3</ele>
        <time>2022-06-12T07:29:20Z</time>
      </trkpt>
      <trkpt lat="44.23674" lon="6.75139">
        <ele>1782.3</ele>
        <time>2022-06-12T07:29:21Z</time>
      </trkpt>
      <trkpt lat="44.23677" lon="6.7514">
        <ele>1782.5</ele>
        <time>2022-06-12T07:29:22Z</time>
      </trkpt>
      <trkpt lat="44.23679" lon="6.75141">
        <ele>1782.6</ele>
        <time>2022-06-12T07:29:23Z</time>
      </trkpt>
      <trkpt lat="44.23682" lon="6.75143">
        <ele>1782.8</ele>
        <time>2022-06-12T07:29:24Z</time>
      </trkpt>
      <trkpt lat="44.23684" lon="6.75144">
        <ele>1782.9</ele>
        <time>2022-06-12T07:29:25Z</time>
      </trkpt>
      <trkpt lat="44.23687" lon="6.75145">
        <ele>1783</ele>
        <time>2022-06-12T07:29:26Z</time>
      </trkpt>
      <trkpt lat="44.23689" lon="6.75146">
        <ele>1783.1</ele>
        <time>2022-06-12T07:29:27Z</time>
      </trkpt>
      <trkpt lat="44.23692" lon="6.75147">
        <ele>1783.2</ele>
        <time>2022-06-12T07:29:28Z</time>
      </trkpt>
      <trkpt lat="44.23694" lon="6.75148">
        <ele>1783.3</ele>
        <time>2022-06-12T07:29:29Z</time>
      </trkpt>
      <trkpt lat="44.23697" lon="6.75149">
        <ele>1783.3</ele>
        <time>2022-06-12T07:29:30Z</time>
      </trkpt>
      <trkpt lat="44.237" lon="6.75151">
        <ele>1783.2</ele>
        <time>2022-06-12T07:29:31Z</time>
      </trkpt>
      <trkpt lat="44.23702" lon="6.75151">
        <ele>1783.2</ele>
        <time>2022-06-12T07:29:32Z</time>
      </trkpt>
      <trkpt lat="44.23705" lon="6.75152">
        <ele>1783.3</ele>
        <time>2022-06-12T07:29:33Z</time>
      </trkpt>
      <trkpt lat="44.23707" lon="6.75153">
        <ele>1783.2</ele>
        <time>2022-06-12T07:29:34Z</time>
      </trkpt>
      <trkpt lat="44.2371" lon="6.75155">
        <ele>1783.2</ele>
        <time>2022-06-12T07:29:35Z</time>
      </trkpt>
      <trkpt lat="44.23713" lon="6.75156">
        <ele>1783.1</ele>
        <time>2022-06-12T07:29:36Z</time>
      </trkpt>
      <trkpt lat="44.23715" lon="6.75157">
        <ele>1783.2</ele>
        <time>2022-06-12T07:29:37Z</time>
      </trkpt>
      <trkpt lat="44.23718" lon="6.75157">
        <ele>1783.3</ele>
        <time>2022-06-12T07:29:38Z</time>
      </trkpt>
      <trkpt lat="44.23721" lon="6.75158">
        <ele>1783.5</ele>
        <time>2022-06-12T07:29:39Z</time>
      </trkpt>
      <trkpt lat="44.23724" lon="6.75158">
        <ele>1783.9</ele>
        <time>2022-06-12T07:29:40Z</time>
      </trkpt>
      <trkpt lat="44.23727" lon="6.75158">
        <ele>1784.3</ele>
        <time>2022-06-12T07:29:41Z</time>
      </trkpt>
      <trkpt lat="44.2373" lon="6.75158">
        <ele>1784.6</ele>
        <time>2022-06-12T07:29:42Z</time>
      </trkpt>
      <trkpt lat="44.23733" lon="6.75158">
        <ele>1785</ele>
        <time>2022-06-12T07:29:43Z</time>
      </trkpt>
      <trkpt lat="44.23736" lon="6.75158">
        <ele>1785.2</ele>
        <time>2022-06-12T07:29:44Z</time>
      </trkpt>
      <trkpt lat="44.23738" lon="6.75159">
        <ele>1785.5</ele>
        <time>2022-06-12T07:29:45Z</time>
      </trkpt>
      <trkpt lat="44.23741" lon="6.75159">
        <ele>1785.7</ele>
        <time>2022-06-12T07:29:46Z</time>
      </trkpt>
      <trkpt lat="44.23743" lon="6.7516">
        <ele>1785.9</ele>
        <time>2022-06-12T07:29:47Z</time>
      </trkpt>
      <trkpt lat="44.23746" lon="6.7516">
        <ele>1786.1</ele>
        <time>2022-06-12T07:29:48Z</time>
      </trkpt>
      <trkpt lat="44.23749" lon="6.75161">
        <ele>1786.4</ele>
        <time>2022-06-12T07:29:49Z</time>
      </trkpt>
      <trkpt lat="44.23751" lon="6.75161">
        <ele>1786.5</ele>
        <time>2022-06-12T07:29:50Z</time>
      </trkpt>
      <trkpt lat="44.23754" lon="6.75162">
        <ele>1786.7</ele>
        <time>2022-06-12T07:29:51Z</time>
      </trkpt>
      <trkpt lat="44.23756" lon="6.75162">
        <ele>1786.9</ele>
        <time>2022-06-12T07:29:52Z</time>
      </trkpt>
      <trkpt lat="44.23759" lon="6.75162">
        <ele>1787.2</ele>
        <time>2022-06-12T07:29:53Z</time>
      </trkpt>
      <trkpt lat="44.23762" lon="6.75162">
        <ele>1787.4</ele>
        <time>2022-06-12T07:29:54Z</time>
      </trkpt>
      <trkpt lat="44.23765" lon="6.75162">
        <ele>1787.7</ele>
        <time>2022-06-12T07:29:55Z</time>
      </trkpt>
      <trkpt lat="44.23767" lon="6.75162">
        <ele>1787.9</ele>
        <time>2022-06-12T07:29:56Z</time>
      </trkpt>
      <trkpt lat="44.2377" lon="6.75162">
        <ele>1788.1</ele>
        <time>2022-06-12T07:29:57Z</time>
      </trkpt>
      <trkpt lat="44.23773" lon="6.75162">
        <ele>1788.3</ele>
        <time>2022-06-12T07:29:58Z</time>
      </trkpt>
      <trkpt lat="44.23775" lon="6.75162">
        <ele>1788.5</ele>
        <time>2022-06-12T07:29:59Z</time>
      </trkpt>
      <trkpt lat="44.23778" lon="6.75162">
        <ele>1788.9</ele>
        <time>2022-06-12T07:30:00Z</time>
      </trkpt>
      <trkpt lat="44.2378" lon="6.75161">
        <ele>1789.1</ele>
        <time>2022-06-12T07:30:01Z</time>
      </trkpt>
      <trkpt lat="44.23783" lon="6.7516">
        <ele>1789.4</ele>
        <time>2022-06-12T07:30:02Z</time>
      </trkpt>
      <trkpt lat="44.23786" lon="6.75158">
        <ele>1789.7</ele>
        <time>2022-06-12T07:30:03Z</time>
      </trkpt>
      <trkpt lat="44.23788" lon="6.75157">
        <ele>1790</ele>
        <time>2022-06-12T07:30:04Z</time>
      </trkpt>
      <trkpt lat="44.23791" lon="6.75155">
        <ele>1790.3</ele>
        <time>2022-06-12T07:30:05Z</time>
      </trkpt>
      <trkpt lat="44.23793" lon="6.75154">
        <ele>1790.6</ele>
        <time>2022-06-12T07:30:06Z</time>
      </trkpt>
      <trkpt lat="44.23795" lon="6.75152">
        <ele>1790.9</ele>
        <time>2022-06-12T07:30:07Z</time>
      </trkpt>
      <trkpt lat="44.23797" lon="6.7515">
        <ele>1791.3</ele>
        <time>2022-06-12T07:30:08Z</time>
      </trkpt>
      <trkpt lat="44.238" lon="6.75148">
        <ele>1791.6</ele>
        <time>2022-06-12T07:30:09Z</time>
      </trkpt>
      <trkpt lat="44.23802" lon="6.75146">
        <ele>1791.9</ele>
        <time>2022-06-12T07:30:10Z</time>
      </trkpt>
      <trkpt lat="44.23804" lon="6.75144">
        <ele>1792.3</ele>
        <time>2022-06-12T07:30:11Z</time>
      </trkpt>
      <trkpt lat="44.23807" lon="6.75142">
        <ele>1792.6</ele>
        <time>2022-06-12T07:30:12Z</time>
      </trkpt>
      <trkpt lat="44.23809" lon="6.75139">
        <ele>1793.1</ele>
        <time>2022-06-12T07:30:13Z</time>
      </trkpt>
      <trkpt lat="44.23811" lon="6.75137">
        <ele>1793.4</ele>
        <time>2022-06-12T07:30:14Z</time>
      </trkpt>
      <trkpt lat="44.23813" lon="6.75135">
        <ele>1793.7</ele>
        <time>2022-06-12T07:30:15Z</time>
      </trkpt>
      <trkpt lat="44.23815" lon="6.75132">
        <ele>1794</ele>
        <time>2022-06-12T07:30:16Z</time>
      </trkpt>
      <trkpt lat="44.23817" lon="6.7513">
        <ele>1794.3</ele>
        <time>2022-06-12T07:30:17Z</time>
      </trkpt>
      <trkpt lat="44.23819" lon="6.75127">
        <ele>1794.6</ele>
        <time>2022-06-12T07:30:18Z</time>
      </trkpt>
      <trkpt lat="44.23821" lon="6.75125">
        <ele>1794.8</ele>
        <time>2022-06-12T07:30:19Z</time>
      </trkpt>
      <trkpt lat="44.23823" lon="6.75122">
        <ele>1795</ele>
        <time>2022-06-12T07:30:20Z</time>
      </trkpt>
      <trkpt lat="44.23825" lon="6.7512">
        <ele>1795.3</ele>
        <time>2022-06-12T07:30:21Z</time>
      </trkpt>
      <trkpt lat="44.23827" lon="6.75118">
        <ele>1795.5</ele>
        <time>2022-06-12T07:30:22Z</time>
      </trkpt>
      <trkpt lat="44.2383" lon="6.75116">
        <ele>1795.6</ele>
        <time>2022-06-12T07:30:23Z</time>
      </trkpt>
      <trkpt lat="44.23832" lon="6.75114">
        <ele>1795.8</ele>
        <time>2022-06-12T07:30:24Z</time>
      </trkpt>
      <trkpt lat="44.23834" lon="6.75112">
        <ele>1796</ele>
        <time>2022-06-12T07:30:25Z</time>
      </trkpt>
      <trkpt lat="44.23836" lon="6.7511">
        <ele>1796.4</ele>
        <time>2022-06-12T07:30:26Z</time>
      </trkpt>
      <trkpt lat="44.23839" lon="6.75109">
        <ele>1796.9</ele>
        <time>2022-06-12T07:30:27Z</time>
      </trkpt>
      <trkpt lat="44.23842" lon="6.75108">
        <ele>1797.5</ele>
        <time>2022-06-12T07:30:28Z</time>
      </trkpt>
      <trkpt lat="44.23844" lon="6.75107">
        <ele>1798</ele>
        <time>2022-06-12T07:30:29Z</time>
      </trkpt>
      <trkpt lat="44.23847" lon="6.75105">
        <ele>1798.6</ele>
        <time>2022-06-12T07:30:30Z</time>
      </trkpt>
      <trkpt lat="44.2385" lon="6.75105">
        <ele>1799.1</ele>
        <time>2022-06-12T07:30:31Z</time>
      </trkpt>
      <trkpt lat="44.23852" lon="6.75104">
        <ele>1799.5</ele>
        <time>2022-06-12T07:30:32Z</time>
      </trkpt>
      <trkpt lat="44.23855" lon="6.75105">
        <ele>1799.8</ele>
        <time>2022-06-12T07:30:33Z</time>
      </trkpt>
      <trkpt lat="44.23858" lon="6.75105">
        <ele>1800.1</ele>
        <time>2022-06-12T07:30:34Z</time>
      </trkpt>
      <trkpt lat="44.2386" lon="6.75106">
        <ele>1800.3</ele>
        <time>2022-06-12T07:30:35Z</time>
      </trkpt>
      <trkpt lat="44.23863" lon="6.75107">
        <ele>1800.7</ele>
        <time>2022-06-12T07:30:36Z</time>
      </trkpt>
      <trkpt lat="44.23865" lon="6.75108">
        <ele>1801.2</ele>
        <time>2022-06-12T07:30:37Z</time>
      </trkpt>
      <trkpt lat="44.23868" lon="6.75109">
        <ele>1801.8</ele>
        <time>2022-06-12T07:30:38Z</time>
      </trkpt>
      <trkpt lat="44.2387" lon="6.75111">
        <ele>1802.1</ele>
        <time>2022-06-12T07:30:39Z</time>
      </trkpt>
      <trkpt lat="44.23872" lon="6.75113">
        <ele>1802.6</ele>
        <time>2022-06-12T07:30:40Z</time>
      </trkpt>
      <trkpt lat="44.23874" lon="6.75115">
        <ele>1802.9</ele>
        <time>2022-06-12T07:30:41Z</time>
      </trkpt>
      <trkpt lat="44.23876" lon="6.75117">
        <ele>1803.1</ele>
        <time>2022-06-12T07:30:42Z</time>
      </trkpt>
      <trkpt lat="44.23878" lon="6.7512">
        <ele>1803.3</ele>
        <time>2022-06-12T07:30:43Z</time>
      </trkpt>
      <trkpt lat="44.23881" lon="6.75122">
        <ele>1803.5</ele>
        <time>2022-06-12T07:30:44Z</time>
      </trkpt>
      <trkpt lat="44.23883" lon="6.75124">
        <ele>1803.6</ele>
        <time>2022-06-12T07:30:45Z</time>
      </trkpt>
      <trkpt lat="44.23885" lon="6.75127">
        <ele>1803.6</ele>
        <time>2022-06-12T07:30:46Z</time>
      </trkpt>
      <trkpt lat="44.23886" lon="6.75129">
        <ele>1803.5</ele>
        <time>2022-06-12T07:30:47Z</time>
      </trkpt>
      <trkpt lat="44.23888" lon="6.75132">
        <ele>1803.5</ele>
        <time>2022-06-12T07:30:48Z</time>
      </trkpt>
      <trkpt lat="44.2389" lon="6.75135">
        <ele>1803.4</ele>
        <time>2022-06-12T07:30:49Z</time>
      </trkpt>
      <trkpt lat="44.23892" lon="6.75137">
        <ele>1803.2</ele>
        <time>2022-06-12T07:30:50Z</time>
      </trkpt>
      <trkpt lat="44.23894" lon="6.7514">
        <ele>1803.2</ele>
        <time>2022-06-12T07:30:51Z</time>
      </trkpt>
      <trkpt lat="44.23896" lon="6.75142">
        <ele>1803.3</ele>
        <time>2022-06-12T07:30:52Z</time>
      </trkpt>
      <trkpt lat="44.23898" lon="6.75144">
        <ele>1803.4</ele>
        <time>2022-06-12T07:30:53Z</time>
      </trkpt>
      <trkpt lat="44.239" lon="6.75146">
        <ele>1803.5</ele>
        <time>2022-06-12T07:30:54Z</time>
      </trkpt>
      <trkpt lat="44.23902" lon="6.75149">
        <ele>1803.6</ele>
        <time>2022-06-12T07:30:55Z</time>
      </trkpt>
      <trkpt lat="44.23904" lon="6.75151">
        <ele>1803.8</ele>
        <time>2022-06-12T07:30:56Z</time>
      </trkpt>
      <trkpt lat="44.23906" lon="6.75153">
        <ele>1804</ele>
        <time>2022-06-12T07:30:57Z</time>
      </trkpt>
      <trkpt lat="44.23909" lon="6.75155">
        <ele>1804.2</ele>
        <time>2022-06-12T07:30:58Z</time>
      </trkpt>
      <trkpt lat="44.23911" lon="6.75157">
        <ele>1804.4</ele>
        <time>2022-06-12T07:30:59Z</time>
      </trkpt>
      <trkpt lat="44.23913" lon="6.75159">
        <ele>1804.6</ele>
        <time>2022-06-12T07:31:00Z</time>
      </trkpt>
      <trkpt lat="44.23915" lon="6.7516">
        <ele>1804.9</ele>
        <time>2022-06-12T07:31:01Z</time>
      </trkpt>
      <trkpt lat="44.23917" lon="6.75162">
        <ele>1805</ele>
        <time>2022-06-12T07:31:02Z</time>
      </trkpt>
      <trkpt lat="44.23919" lon="6.75164">
        <ele>1805.1</ele>
        <time>2022-06-12T07:31:03Z</time>
      </trkpt>
      <trkpt lat="44.23922" lon="6.75165">
        <ele>1805.1</ele>
        <time>2022-06-12T07:31:04Z</time>
      </trkpt>
      <trkpt lat="44.23924" lon="6.75166">
        <ele>1805.2</ele>
        <time>2022-06-12T07:31:05Z</time>
      </trkpt>
      <trkpt lat="44.23927" lon="6.75167">
        <ele>1805.4</ele>
        <time>2022-06-12T07:31:06Z</time>
      </trkpt>
      <trkpt lat="44.23929" lon="6.75168">
        <ele>1805.5</ele>
        <time>2022-06-12T07:31:07Z</time>
      </trkpt>
      <trkpt lat="44.23931" lon="6.75169">
        <ele>1805.7</ele>
        <time>2022-06-12T07:31:08Z</time>
      </trkpt>
      <trkpt lat="44.23934" lon="6.7517">
        <ele>1805.8</ele>
        <time>2022-06-12T07:31:09Z</time>
      </trkpt>
      <trkpt lat="44.23936" lon="6.7517">
        <ele>1805.9</ele>
        <time>2022-06-12T07:31:10Z</time>
      </trkpt>
      <trkpt lat="44.23938" lon="6.75171">
        <ele>1806.2</ele>
        <time>2022-06-12T07:31:11Z</time>
      </trkpt>
      <trkpt lat="44.23941" lon="6.75172">
        <ele>1806.3</ele>
        <time>2022-06-12T07:31:12Z</time>
      </trkpt>
      <trkpt lat="44.23943" lon="6.75173">
        <ele>1806.4</ele>
        <time>2022-06-12T07:31:13Z</time>
      </trkpt>
      <trkpt lat="44.23945" lon="6.75174">
        <ele>1806.6</ele>
        <time>2022-06-12T07:31:14Z</time>
      </trkpt>
      <trkpt lat="44.23948" lon="6.75175">
        <ele>1807</ele>
        <time>2022-06-12T07:31:15Z</time>
      </trkpt>
      <trkpt lat="44.2395" lon="6.75176">
        <ele>1807.2</ele>
        <time>2022-06-12T07:31:16Z</time>
      </trkpt>
      <trkpt lat="44.23952" lon="6.75176">
        <ele>1807.6</ele>
        <time>2022-06-12T07:31:17Z</time>
      </trkpt>
      <trkpt lat="44.23954" lon="6.75177">
        <ele>1807.8</ele>
        <time>2022-06-12T07:31:18Z</time>
      </trkpt>
      <trkpt lat="44.23957" lon="6.75178">
        <ele>1808.1</ele>
        <time>2022-06-12T07:31:19Z</time>
      </trkpt>
      <trkpt lat="44.23959" lon="6.75178">
        <ele>1808.5</ele>
        <time>2022-06-12T07:31:20Z</time>
      </trkpt>
      <trkpt lat="44.23962" lon="6.75179">
        <ele>1808.8</ele>
        <time>2022-06-12T07:31:21Z</time>
      </trkpt>
      <trkpt lat="44.23964" lon="6.75179">
        <ele>1809.1</ele>
        <time>2022-06-12T07:31:22Z</time>
      </trkpt>
      <trkpt lat="44.23966" lon="6.7518">
        <ele>1809.3</ele>
        <time>2022-06-12T07:31:23Z</time>
      </trkpt>
      <trkpt lat="44.23968" lon="6.75181">
        <ele>1809.5</ele>
        <time>2022-06-12T07:31:24Z</time>
      </trkpt>
      <trkpt lat="44.2397" lon="6.75182">
        <ele>1809.7</ele>
        <time>2022-06-12T07:31:25Z</time>
      </trkpt>
      <trkpt lat="44.23972" lon="6.75183">
        <ele>1810</ele>
        <time>2022-06-12T07:31:26Z</time>
      </trkpt>
      <trkpt lat="44.23975" lon="6.75183">
        <ele>1810.2</ele>
        <time>2022-06-12T07:31:27Z</time>
      </trkpt>
      <trkpt lat="44.23977" lon="6.75184">
        <ele>1810.4</ele>
        <time>2022-06-12T07:31:28Z</time>
      </trkpt>
      <trkpt lat="44.23979" lon="6.75184">
        <ele>1810.5</ele>
        <time>2022-06-12T07:31:29Z</time>
      </trkpt>
      <trkpt lat="44.23982" lon="6.75184">
        <ele>1810.7</ele>
        <time>2022-06-12T07:31:30Z</time>
      </trkpt>
      <trkpt lat="44.23984" lon="6.75185">
        <ele>1810.9</ele>
        <time>2022-06-12T07:31:31Z</time>
      </trkpt>
      <trkpt lat="44.23987" lon="6.75186">
        <ele>1810.9</ele>
        <time>2022-06-12T07:31:32Z</time>
      </trkpt>
      <trkpt lat="44.23989" lon="6.75186">
        <ele>1811.1</ele>
        <time>2022-06-12T07:31:33Z</time>
      </trkpt>
      <trkpt lat="44.23991" lon="6.75187">
        <ele>1811.2</ele>
        <time>2022-06-12T07:31:34Z</time>
      </trkpt>
      <trkpt lat="44.23994" lon="6.75187">
        <ele>1811.4</ele>
        <time>2022-06-12T07:31:35Z</time>
      </trkpt>
      <trkpt lat="44.23996" lon="6.75187">
        <ele>1811.6</ele>
        <time>2022-06-12T07:31:36Z</time>
      </trkpt>
      <trkpt lat="44.23998" lon="6.75188">
        <ele>1811.7</ele>
        <time>2022-06-12T07:31:37Z</time>
      </trkpt>
      <trkpt lat="44.24" lon="6.75189">
        <ele>1811.7</ele>
        <time>2022-06-12T07:31:38Z</time>
      </trkpt>
      <trkpt lat="44.24003" lon="6.75189">
        <ele>1811.9</ele>
        <time>2022-06-12T07:31:39Z</time>
      </trkpt>
      <trkpt lat="44.24005" lon="6.7519">
        <ele>1812.1</ele>
        <time>2022-06-12T07:31:40Z</time>
      </trkpt>
      <trkpt lat="44.24007" lon="6.75191">
        <ele>1812.4</ele>
        <time>2022-06-12T07:31:41Z</time>
      </trkpt>
      <trkpt lat="44.2401" lon="6.75192">
        <ele>1812.6</ele>
        <time>2022-06-12T07:31:42Z</time>
      </trkpt>
      <trkpt lat="44.24012" lon="6.75192">
        <ele>1812.7</ele>
        <time>2022-06-12T07:31:43Z</time>
      </trkpt>
      <trkpt lat="44.24014" lon="6.75193">
        <ele>1813</ele>
        <time>2022-06-12T07:31:44Z</time>
      </trkpt>
      <trkpt lat="44.24017" lon="6.75194">
        <ele>1813.2</ele>
        <time>2022-06-12T07:31:45Z</time>
      </trkpt>
      <trkpt lat="44.24019" lon="6.75194">
        <ele>1813.5</ele>
        <time>2022-06-12T07:31:46Z</time>
      </trkpt>
      <trkpt lat="44.24021" lon="6.75195">
        <ele>1813.7</ele>
        <time>2022-06-12T07:31:47Z</time>
      </trkpt>
      <trkpt lat="44.24023" lon="6.75195">
        <ele>1814</ele>
        <time>2022-06-12T07:31:48Z</time>
      </trkpt>
      <trkpt lat="44.24026" lon="6.75196">
        <ele>1814.3</ele>
        <time>2022-06-12T07:31:49Z</time>
      </trkpt>
      <trkpt lat="44.24028" lon="6.75197">
        <ele>1814.4</ele>
        <time>2022-06-12T07:31:50Z</time>
      </trkpt>
      <trkpt lat="44.2403" lon="6.75199">
        <ele>1814.7</ele>
        <time>2022-06-12T07:31:51Z</time>
      </trkpt>
      <trkpt lat="44.24032" lon="6.752">
        <ele>1815</ele>
        <time>2022-06-12T07:31:52Z</time>
      </trkpt>
      <trkpt lat="44.24034" lon="6.75201">
        <ele>1815.4</ele>
        <time>2022-06-12T07:31:53Z</time>
      </trkpt>
      <trkpt lat="44.24036" lon="6.75202">
        <ele>1815.7</ele>
        <time>2022-06-12T07:31:54Z</time>
      </trkpt>
      <trkpt lat="44.24038" lon="6.75204">
        <ele>1815.9</ele>
        <time>2022-06-12T07:31:55Z</time>
      </trkpt>
      <trkpt lat="44.2404" lon="6.75205">
        <ele>1816.2</ele>
        <time>2022-06-12T07:31:56Z</time>
      </trkpt>
      <trkpt lat="44.24042" lon="6.75206">
        <ele>1816.5</ele>
        <time>2022-06-12T07:31:57Z</time>
      </trkpt>
      <trkpt lat="44.24044" lon="6.75208">
        <ele>1816.7</ele>
        <time>2022-06-12T07:31:58Z</time>
      </trkpt>
      <trkpt lat="44.24046" lon="6.75209">
        <ele>1816.9</ele>
        <time>2022-06-12T07:31:59Z</time>
      </trkpt>
      <trkpt lat="44.24048" lon="6.75211">
        <ele>1817.1</ele>
        <time>2022-06-12T07:32:00Z</time>
      </trkpt>
      <trkpt lat="44.24049" lon="6.75212">
        <ele>1817.1</ele>
        <time>2022-06-12T07:32:01Z</time>
      </trkpt>
      <trkpt lat="44.24051" lon="6.75214">
        <ele>1817.2</ele>
        <time>2022-06-12T07:32:02Z</time>
      </trkpt>
      <trkpt lat="44.24053" lon="6.75216">
        <ele>1817.2</ele>
        <time>2022-06-12T07:32:03Z</time>
      </trkpt>
      <trkpt lat="44.24055" lon="6.75217">
        <ele>1817.3</ele>
        <time>2022-06-12T07:32:04Z</time>
      </trkpt>
      <trkpt lat="44.24057" lon="6.75219">
        <ele>1817.5</ele>
        <time>2022-06-12T07:32:05Z</time>
      </trkpt>
      <trkpt lat="44.24059" lon="6.7522">
        <ele>1817.6</ele>
        <time>2022-06-12T07:32:06Z</time>
      </trkpt>
      <trkpt lat="44.24061" lon="6.75222">
        <ele>1817.7</ele>
        <time>2022-06-12T07:32:07Z</time>
      </trkpt>
      <trkpt lat="44.24063" lon="6.75223">
        <ele>1818</ele>
        <time>2022-06-12T07:32:08Z</time>
      </trkpt>
      <trkpt lat="44.24065" lon="6.75225">
        <ele>1818.4</ele>
        <time>2022-06-12T07:32:09Z</time>
      </trkpt>
      <trkpt lat="44.24067" lon="6.75226">
        <ele>1818.7</ele>
        <time>2022-06-12T07:32:10Z</time>
      </trkpt>
      <trkpt lat="44.24069" lon="6.75228">
        <ele>1818.9</ele>
        <time>2022-06-12T07:32:11Z</time>
      </trkpt>
      <trkpt lat="44.24071" lon="6.7523">
        <ele>1819.1</ele>
        <time>2022-06-12T07:32:12Z</time>
      </trkpt>
      <trkpt lat="44.24073" lon="6.75231">
        <ele>1819.3</ele>
        <time>2022-06-12T07:32:13Z</time>
      </trkpt>
      <trkpt lat="44.24075" lon="6.75233">
        <ele>1819.6</ele>
        <time>2022-06-12T07:32:14Z</time>
      </trkpt>
      <trkpt lat="44.24077" lon="6.75234">
        <ele>1819.9</ele>
        <time>2022-06-12T07:32:15Z</time>
      </trkpt>
      <trkpt lat="44.24079" lon="6.75235">
        <ele>1820.1</ele>
        <time>2022-06-12T07:32:16Z</time>
      </trkpt>
      <trkpt lat="44.24081" lon="6.75237">
        <ele>1820.3</ele>
        <time>2022-06-12T07:32:17Z</time>
      </trkpt>
      <trkpt lat="44.24083" lon="6.75238">
        <ele>1820.5</ele>
        <time>2022-06-12T07:32:18Z</time>
      </trkpt>
      <trkpt lat="44.24085" lon="6.75239">
        <ele>1820.7</ele>
        <time>2022-06-12T07:32:19Z</time>
      </trkpt>
      <trkpt lat="44.24088" lon="6.7524">
        <ele>1820.7</ele>
        <time>2022-06-12T07:32:20Z</time>
      </trkpt>
      <trkpt lat="44.2409" lon="6.75242">
        <ele>1820.8</ele>
        <time>2022-06-12T07:32:21Z</time>
      </trkpt>
      <trkpt lat="44.24092" lon="6.75243">
        <ele>1821</ele>
        <time>2022-06-12T07:32:22Z</time>
      </trkpt>
      <trkpt lat="44.24094" lon="6.75244">
        <ele>1821</ele>
        <time>2022-06-12T07:32:23Z</time>
      </trkpt>
      <trkpt lat="44.24097" lon="6.75245">
        <ele>1821.2</ele>
        <time>2022-06-12T07:32:24Z</time>
      </trkpt>
      <trkpt lat="44.24099" lon="6.75246">
        <ele>1821.3</ele>
        <time>2022-06-12T07:32:25Z</time>
      </trkpt>
      <trkpt lat="44.24101" lon="6.75246">
        <ele>1821.5</ele>
        <time>2022-06-12T07:32:26Z</time>
      </trkpt>
      <trkpt lat="44.24103" lon="6.75247">
        <ele>1821.6</ele>
        <time>2022-06-12T07:32:27Z</time>
      </trkpt>
      <trkpt lat="44.24106" lon="6.75247">
        <ele>1821.9</ele>
        <time>2022-06-12T07:32:28Z</time>
      </trkpt>
      <trkpt lat="44.24109" lon="6.75248">
        <ele>1822.2</ele>
        <time>2022-06-12T07:32:29Z</time>
      </trkpt>
      <trkpt lat="44.24111" lon="6.75248">
        <ele>1822.5</ele>
        <time>2022-06-12T07:32:30Z</time>
      </trkpt>
      <trkpt lat="44.24114" lon="6.75248">
        <ele>1822.6</ele>
        <time>2022-06-12T07:32:31Z</time>
      </trkpt>
      <trkpt lat="44.24117" lon="6.75248">
        <ele>1822.6</ele>
        <time>2022-06-12T07:32:32Z</time>
      </trkpt>
      <trkpt lat="44.24119" lon="6.75249">
        <ele>1822.7</ele>
        <time>2022-06-12T07:32:33Z</time>
      </trkpt>
      <trkpt lat="44.24122" lon="6.75249">
        <ele>1822.8</ele>
        <time>2022-06-12T07:32:34Z</time>
      </trkpt>
      <trkpt lat="44.24124" lon="6.75249">
        <ele>1822.9</ele>
        <time>2022-06-12T07:32:35Z</time>
      </trkpt>
      <trkpt lat="44.24127" lon="6.75249">
        <ele>1823</ele>
        <time>2022-06-12T07:32:36Z</time>
      </trkpt>
      <trkpt lat="44.24129" lon="6.75248">
        <ele>1823.1</ele>
        <time>2022-06-12T07:32:37Z</time>
      </trkpt>
      <trkpt lat="44.24132" lon="6.75249">
        <ele>1823.2</ele>
        <time>2022-06-12T07:32:38Z</time>
      </trkpt>
      <trkpt lat="44.24134" lon="6.75248">
        <ele>1823.3</ele>
        <time>2022-06-12T07:32:39Z</time>
      </trkpt>
      <trkpt lat="44.24137" lon="6.75248">
        <ele>1823.5</ele>
        <time>2022-06-12T07:32:40Z</time>
      </trkpt>
      <trkpt lat="44.24139" lon="6.75247">
        <ele>1823.8</ele>
        <time>2022-06-12T07:32:41Z</time>
      </trkpt>
      <trkpt lat="44.24141" lon="6.75247">
        <ele>1824.3</ele>
        <time>2022-06-12T07:32:42Z</time>
      </trkpt>
      <trkpt lat="44.24144" lon="6.75246">
        <ele>1824.8</ele>
        <time>2022-06-12T07:32:43Z</time>
      </trkpt>
      <trkpt lat="44.24146" lon="6.75245">
        <ele>1825.2</ele>
        <time>2022-06-12T07:32:44Z</time>
      </trkpt>
      <trkpt lat="44.24148" lon="6.75244">
        <ele>1825.6</ele>
        <time>2022-06-12T07:32:45Z</time>
      </trkpt>
      <trkpt lat="44.24151" lon="6.75244">
        <ele>1826</ele>
        <time>2022-06-12T07:32:46Z</time>
      </trkpt>
      <trkpt lat="44.24153" lon="6.75243">
        <ele>1826.5</ele>
        <time>2022-06-12T07:32:47Z</time>
      </trkpt>
      <trkpt lat="44.24155" lon="6.75243">
        <ele>1826.9</ele>
        <time>2022-06-12T07:32:48Z</time>
      </trkpt>
      <trkpt lat="44.24157" lon="6.75243">
        <ele>1827.1</ele>
        <time>2022-06-12T07:32:49Z</time>
      </trkpt>
      <trkpt lat="44.2416" lon="6.75242">
        <ele>1827.5</ele>
        <time>2022-06-12T07:32:50Z</time>
      </trkpt>
      <trkpt lat="44.24162" lon="6.75242">
        <ele>1827.9</ele>
        <time>2022-06-12T07:32:51Z</time>
      </trkpt>
      <trkpt lat="44.24164" lon="6.75241">
        <ele>1828.3</ele>
        <time>2022-06-12T07:32:52Z</time>
      </trkpt>
      <trkpt lat="44.24167" lon="6.75241">
        <ele>1828.6</ele>
        <time>2022-06-12T07:32:53Z</time>
      </trkpt>
      <trkpt lat="44.24169" lon="6.7524">
        <ele>1829.2</ele>
        <time>2022-06-12T07:32:54Z</time>
      </trkpt>
      <trkpt lat="44.24172" lon="6.7524">
        <ele>1829.7</ele>
        <time>2022-06-12T07:32:55Z</time>
      </trkpt>
      <trkpt lat="44.24174" lon="6.7524">
        <ele>1830.2</ele>
        <time>2022-06-12T07:32:56Z</time>
      </trkpt>
      <trkpt lat="44.24177" lon="6.7524">
        <ele>1830.5</ele>
        <time>2022-06-12T07:32:57Z</time>
      </trkpt>
      <trkpt lat="44.24179" lon="6.75241">
        <ele>1830.8</ele>
        <time>2022-06-12T07:32:58Z</time>
      </trkpt>
      <trkpt lat="44.24181" lon="6.75241">
        <ele>1831</ele>
        <time>2022-06-12T07:32:59Z</time>
      </trkpt>
      <trkpt lat="44.24184" lon="6.75242">
        <ele>1831.3</ele>
        <time>2022-06-12T07:33:00Z</time>
      </trkpt>
      <trkpt lat="44.24186" lon="6.75242">
        <ele>1831.5</ele>
        <time>2022-06-12T07:33:01Z</time>
      </trkpt>
      <trkpt lat="44.24189" lon="6.75243">
        <ele>1831.7</ele>
        <time>2022-06-12T07:33:02Z</time>
      </trkpt>
      <trkpt lat="44.24191" lon="6.75243">
        <ele>1831.9</ele>
        <time>2022-06-12T07:33:03Z</time>
      </trkpt>
      <trkpt lat="44.24193" lon="6.75244">
        <ele>1831.8</ele>
        <time>2022-06-12T07:33:04Z</time>
      </trkpt>
      <trkpt lat="44.24196" lon="6.75246">
        <ele>1831.9</ele>
        <time>2022-06-12T07:33:05Z</time>
      </trkpt>
      <trkpt lat="44.24198" lon="6.75247">
        <ele>1832</ele>
        <time>2022-06-12T07:33:06Z</time>
      </trkpt>
      <trkpt lat="44.242" lon="6.75248">
        <ele>1832.2</ele>
        <time>2022-06-12T07:33:07Z</time>
      </trkpt>
      <trkpt lat="44.24202" lon="6.75249">
        <ele>1832.4</ele>
        <time>2022-06-12T07:33:08Z</time>
      </trkpt>
      <trkpt lat="44.24204" lon="6.75251">
        <ele>1832.7</ele>
        <time>2022-06-12T07:33:09Z</time>
      </trkpt>
      <trkpt lat="44.24206" lon="6.75253">
        <ele>1833.1</ele>
        <time>2022-06-12T07:33:10Z</time>
      </trkpt>
      <trkpt lat="44.24208" lon="6.75254">
        <ele>1833.4</ele>
        <time>2022-06-12T07:33:11Z</time>
      </trkpt>
      <trkpt lat="44.2421" lon="6.75256">
        <ele>1833.6</ele>
        <time>2022-06-12T07:33:12Z</time>
      </trkpt>
      <trkpt lat="44.24211" lon="6.75258">
        <ele>1833.8</ele>
        <time>2022-06-12T07:33:13Z</time>
      </trkpt>
      <trkpt lat="44.24213" lon="6.7526">
        <ele>1833.8</ele>
        <time>2022-06-12T07:33:14Z</time>
      </trkpt>
      <trkpt lat="44.24214" lon="6.75262">
        <ele>1833.9</ele>
        <time>2022-06-12T07:33:15Z</time>
      </trkpt>
      <trkpt lat="44.24216" lon="6.75264">
        <ele>1834</ele>
        <time>2022-06-12T07:33:16Z</time>
      </trkpt>
      <trkpt lat="44.24218" lon="6.75267">
        <ele>1834</ele>
        <time>2022-06-12T07:33:17Z</time>
      </trkpt>
      <trkpt lat="44.24219" lon="6.75269">
        <ele>1833.9</ele>
        <time>2022-06-12T07:33:18Z</time>
      </trkpt>
      <trkpt lat="44.24221" lon="6.75272">
        <ele>1833.8</ele>
        <time>2022-06-12T07:33:19Z</time>
      </trkpt>
      <trkpt lat="44.24222" lon="6.75275">
        <ele>1833.5</ele>
        <time>2022-06-12T07:33:20Z</time>
      </trkpt>
      <trkpt lat="44.24224" lon="6.75278">
        <ele>1833.4</ele>
        <time>2022-06-12T07:33:21Z</time>
      </trkpt>
      <trkpt lat="44.24225" lon="6.75281">
        <ele>1833.7</ele>
        <time>2022-06-12T07:33:22Z</time>
      </trkpt>
      <trkpt lat="44.24226" lon="6.75284">
        <ele>1834</ele>
        <time>2022-06-12T07:33:23Z</time>
      </trkpt>
      <trkpt lat="44.24227" lon="6.75287">
        <ele>1834.2</ele>
        <time>2022-06-12T07:33:24Z</time>
      </trkpt>
      <trkpt lat="44.24228" lon="6.7529">
        <ele>1834.5</ele>
        <time>2022-06-12T07:33:25Z</time>
      </trkpt>
      <trkpt lat="44.24229" lon="6.75294">
        <ele>1834.7</ele>
        <time>2022-06-12T07:33:26Z</time>
      </trkpt>
      <trkpt lat="44.2423" lon="6.75296">
        <ele>1834.8</ele>
        <time>2022-06-12T07:33:27Z</time>
      </trkpt>
      <trkpt lat="44.24231" lon="6.75299">
        <ele>1834.9</ele>
        <time>2022-06-12T07:33:28Z</time>
      </trkpt>
      <trkpt lat="44.24232" lon="6.75303">
        <ele>1835.1</ele>
        <time>2022-06-12T07:33:29Z</time>
      </trkpt>
      <trkpt lat="44.24233" lon="6.75306">
        <ele>1835.2</ele>
        <time>2022-06-12T07:33:30Z</time>
      </trkpt>
      <trkpt lat="44.24234" lon="6.75309">
        <ele>1835.3</ele>
        <time>2022-06-12T07:33:31Z</time>
      </trkpt>
      <trkpt lat="44.24235" lon="6.75312">
        <ele>1835.4</ele>
        <time>2022-06-12T07:33:32Z</time>
      </trkpt>
      <trkpt lat="44.24236" lon="6.75315">
        <ele>1835.6</ele>
        <time>2022-06-12T07:33:33Z</time>
      </trkpt>
      <trkpt lat="44.24237" lon="6.75318">
        <ele>1835.7</ele>
        <time>2022-06-12T07:33:34Z</time>
      </trkpt>
      <trkpt lat="44.24238" lon="6.75321">
        <ele>1835.8</ele>
        <time>2022-06-12T07:33:35Z</time>
      </trkpt>
      <trkpt lat="44.24239" lon="6.75325">
        <ele>1835.9</ele>
        <time>2022-06-12T07:33:36Z</time>
      </trkpt>
      <trkpt lat="44.2424" lon="6.75328">
        <ele>1836</ele>
        <time>2022-06-12T07:33:37Z</time>
      </trkpt>
      <trkpt lat="44.24241" lon="6.75331">
        <ele>1836.1</ele>
        <time>2022-06-12T07:33:38Z</time>
      </trkpt>
      <trkpt lat="44.24242" lon="6.75334">
        <ele>1836.3</ele>
        <time>2022-06-12T07:33:39Z</time>
      </trkpt>
      <trkpt lat="44.24243" lon="6.75337">
        <ele>1836.3</ele>
        <time>2022-06-12T07:33:40Z</time>
      </trkpt>
      <trkpt lat="44.24244" lon="6.75341">
        <ele>1836.5</ele>
        <time>2022-06-12T07:33:41Z</time>
      </trkpt>
      <trkpt lat="44.24245" lon="6.75344">
        <ele>1836.6</ele>
        <time>2022-06-12T07:33:42Z</time>
      </trkpt>
      <trkpt lat="44.24246" lon="6.75347">
        <ele>1836.7</ele>
        <time>2022-06-12T07:33:43Z</time>
      </trkpt>
      <trkpt lat="44.24247" lon="6.7535">
        <ele>1836.8</ele>
        <time>2022-06-12T07:33:44Z</time>
      </trkpt>
      <trkpt lat="44.24248" lon="6.75354">
        <ele>1836.9</ele>
        <time>2022-06-12T07:33:45Z</time>
      </trkpt>
      <trkpt lat="44.24249" lon="6.75357">
        <ele>1837</ele>
        <time>2022-06-12T07:33:46Z</time>
      </trkpt>
      <trkpt lat="44.2425" lon="6.75361">
        <ele>1837</ele>
        <time>2022-06-12T07:33:47Z</time>
      </trkpt>
      <trkpt lat="44.24251" lon="6.75364">
        <ele>1837.1</ele>
        <time>2022-06-12T07:33:48Z</time>
      </trkpt>
      <trkpt lat="44.24252" lon="6.75367">
        <ele>1837.2</ele>
        <time>2022-06-12T07:33:49Z</time>
      </trkpt>
      <trkpt lat="44.24253" lon="6.7537">
        <ele>1837.3</ele>
        <time>2022-06-12T07:33:50Z</time>
      </trkpt>
      <trkpt lat="44.24254" lon="6.75373">
        <ele>1837.4</ele>
        <time>2022-06-12T07:33:51Z</time>
      </trkpt>
      <trkpt lat="44.24255" lon="6.75377">
        <ele>1837.4</ele>
        <time>2022-06-12T07:33:52Z</time>
      </trkpt>
      <trkpt lat="44.24256" lon="6.7538">
        <ele>1837.5</ele>
        <time>2022-06-12T07:33:53Z</time>
      </trkpt>
      <trkpt lat="44.24257" lon="6.75383">
        <ele>1837.5</ele>
        <time>2022-06-12T07:33:54Z</time>
      </trkpt>
      <trkpt lat="44.24258" lon="6.75386">
        <ele>1837.6</ele>
        <time>2022-06-12T07:33:55Z</time>
      </trkpt>
      <trkpt lat="44.2426" lon="6.75389">
        <ele>1837.7</ele>
        <time>2022-06-12T07:33:56Z</time>
      </trkpt>
      <trkpt lat="44.24261" lon="6.75392">
        <ele>1838</ele>
        <time>2022-06-12T07:33:57Z</time>
      </trkpt>
      <trkpt lat="44.24262" lon="6.75396">
        <ele>1838.3</ele>
        <time>2022-06-12T07:33:58Z</time>
      </trkpt>
      <trkpt lat="44.24263" lon="6.75399">
        <ele>1838.6</ele>
        <time>2022-06-12T07:33:59Z</time>
      </trkpt>
      <trkpt lat="44.24264" lon="6.75402">
        <ele>1838.8</ele>
        <time>2022-06-12T07:34:00Z</time>
      </trkpt>
      <trkpt lat="44.24265" lon="6.75405">
        <ele>1839</ele>
        <time>2022-06-12T07:34:01Z</time>
      </trkpt>
      <trkpt lat="44.24266" lon="6.75408">
        <ele>1839.1</ele>
        <time>2022-06-12T07:34:02Z</time>
      </trkpt>
      <trkpt lat="44.24267" lon="6.75411">
        <ele>1839.4</ele>
        <time>2022-06-12T07:34:03Z</time>
      </trkpt>
      <trkpt lat="44.24268" lon="6.75415">
        <ele>1839.6</ele>
        <time>2022-06-12T07:34:04Z</time>
      </trkpt>
      <trkpt lat="44.24269" lon="6.75418">
        <ele>1839.8</ele>
        <time>2022-06-12T07:34:05Z</time>
      </trkpt>
      <trkpt lat="44.2427" lon="6.75421">
        <ele>1840.1</ele>
        <time>2022-06-12T07:34:06Z</time>
      </trkpt>
      <trkpt lat="44.24272" lon="6.75424">
        <ele>1840.4</ele>
        <time>2022-06-12T07:34:07Z</time>
      </trkpt>
      <trkpt lat="44.24272" lon="6.75427">
        <ele>1840.5</ele>
        <time>2022-06-12T07:34:08Z</time>
      </trkpt>
      <trkpt lat="44.24273" lon="6.75431">
        <ele>1840.8</ele>
        <time>2022-06-12T07:34:09Z</time>
      </trkpt>
      <trkpt lat="44.24274" lon="6.75434">
        <ele>1841</ele>
        <time>2022-06-12T07:34:10Z</time>
      </trkpt>
      <trkpt lat="44.24275" lon="6.75437">
        <ele>1841.3</ele>
        <time>2022-06-12T07:34:11Z</time>
      </trkpt>
      <trkpt lat="44.24276" lon="6.75441">
        <ele>1841.6</ele>
        <time>2022-06-12T07:34:12Z</time>
      </trkpt>
      <trkpt lat="44.24277" lon="6.75444">
        <ele>1841.9</ele>
        <time>2022-06-12T07:34:13Z</time>
      </trkpt>
      <trkpt lat="44.24278" lon="6.75447">
        <ele>1842.1</ele>
        <time>2022-06-12T07:34:14Z</time>
      </trkpt>
      <trkpt lat="44.24279" lon="6.7545">
        <ele>1842.4</ele>
        <time>2022-06-12T07:34:15Z</time>
      </trkpt>
      <trkpt lat="44.2428" lon="6.75453">
        <ele>1842.7</ele>
        <time>2022-06-12T07:34:16Z</time>
      </trkpt>
      <trkpt lat="44.24281" lon="6.75456">
        <ele>1842.9</ele>
        <time>2022-06-12T07:34:17Z</time>
      </trkpt>
      <trkpt lat="44.24282" lon="6.75459">
        <ele>1843.2</ele>
        <time>2022-06-12T07:34:18Z</time>
      </trkpt>
      <trkpt lat="44.24283" lon="6.75462">
        <ele>1843.5</ele>
        <time>2022-06-12T07:34:19Z</time>
      </trkpt>
      <trkpt lat="44.24284" lon="6.75466">
        <ele>1843.8</ele>
        <time>2022-06-12T07:34:20Z</time>
      </trkpt>
      <trkpt lat="44.24285" lon="6.75469">
        <ele>1844.1</ele>
        <time>2022-06-12T07:34:21Z</time>
      </trkpt>
      <trkpt lat="44.24286" lon="6.75472">
        <ele>1844.4</ele>
        <time>2022-06-12T07:34:22Z</time>
      </trkpt>
      <trkpt lat="44.24287" lon="6.75475">
        <ele>1844.6</ele>
        <time>2022-06-12T07:34:23Z</time>
      </trkpt>
      <trkpt lat="44.24288" lon="6.75479">
        <ele>1844.7</ele>
        <time>2022-06-12T07:34:24Z</time>
      </trkpt>
      <trkpt lat="44.24289" lon="6.75482">
        <ele>1844.9</ele>
        <time>2022-06-12T07:34:25Z</time>
      </trkpt>
      <trkpt lat="44.2429" lon="6.75485">
        <ele>1845.1</ele>
        <time>2022-06-12T07:34:26Z</time>
      </trkpt>
      <trkpt lat="44.24291" lon="6.75488">
        <ele>1845.3</ele>
        <time>2022-06-12T07:34:27Z</time>
      </trkpt>
      <trkpt lat="44.24292" lon="6.75492">
        <ele>1845.5</ele>
        <time>2022-06-12T07:34:28Z</time>
      </trkpt>
      <trkpt lat="44.24293" lon="6.75495">
        <ele>1845.7</ele>
        <time>2022-06-12T07:34:29Z</time>
      </trkpt>
      <trkpt lat="44.24294" lon="6.75498">
        <ele>1845.9</ele>
        <time>2022-06-12T07:34:30Z</time>
      </trkpt>
      <trkpt lat="44.24295" lon="6.75501">
        <ele>1846.1</ele>
        <time>2022-06-12T07:34:31Z</time>
      </trkpt>
      <trkpt lat="44.24296" lon="6.75505">
        <ele>1846.4</ele>
        <time>2022-06-12T07:34:32Z</time>
      </trkpt>
      <trkpt lat="44.24297" lon="6.75508">
        <ele>1846.7</ele>
        <time>2022-06-12T07:34:33Z</time>
      </trkpt>
      <trkpt lat="44.24298" lon="6.75511">
        <ele>1846.9</ele>
        <time>2022-06-12T07:34:34Z</time>
      </trkpt>
      <trkpt lat="44.24299" lon="6.75514">
        <ele>1847.2</ele>
        <time>2022-06-12T07:34:35Z</time>
      </trkpt>
      <trkpt lat="44.243" lon="6.75517">
        <ele>1847.6</ele>
        <time>2022-06-12T07:34:36Z</time>
      </trkpt>
      <trkpt lat="44.24301" lon="6.7552">
        <ele>1848</ele>
        <time>2022-06-12T07:34:37Z</time>
      </trkpt>
      <trkpt lat="44.24302" lon="6.75523">
        <ele>1848.3</ele>
        <time>2022-06-12T07:34:38Z</time>
      </trkpt>
      <trkpt lat="44.24303" lon="6.75526">
        <ele>1848.5</ele>
        <time>2022-06-12T07:34:39Z</time>
      </trkpt>
      <trkpt lat="44.24304" lon="6.75529">
        <ele>1848.8</ele>
        <time>2022-06-12T07:34:40Z</time>
      </trkpt>
      <trkpt lat="44.24305" lon="6.75533">
        <ele>1849.1</ele>
        <time>2022-06-12T07:34:41Z</time>
      </trkpt>
      <trkpt lat="44.24307" lon="6.75536">
        <ele>1849.5</ele>
        <time>2022-06-12T07:34:42Z</time>
      </trkpt>
      <trkpt lat="44.24308" lon="6.75539">
        <ele>1849.8</ele>
        <time>2022-06-12T07:34:43Z</time>
      </trkpt>
      <trkpt lat="44.24309" lon="6.75542">
        <ele>1850.1</ele>
        <time>2022-06-12T07:34:44Z</time>
      </trkpt>
      <trkpt lat="44.2431" lon="6.75545">
        <ele>1850.5</ele>
        <time>2022-06-12T07:34:45Z</time>
      </trkpt>
      <trkpt lat="44.24311" lon="6.75549">
        <ele>1850.8</ele>
        <time>2022-06-12T07:34:46Z</time>
      </trkpt>
      <trkpt lat="44.24312" lon="6.75552">
        <ele>1851.1</ele>
        <time>2022-06-12T07:34:47Z</time>
      </trkpt>
      <trkpt lat="44.24313" lon="6.75555">
        <ele>1851.4</ele>
        <time>2022-06-12T07:34:48Z</time>
      </trkpt>
      <trkpt lat="44.24314" lon="6.75558">
        <ele>1851.7</ele>
        <time>2022-06-12T07:34:49Z</time>
      </trkpt>
      <trkpt lat="44.24315" lon="6.75562">
        <ele>1852</ele>
        <time>2022-06-12T07:34:50Z</time>
      </trkpt>
      <trkpt lat="44.24316" lon="6.75565">
        <ele>1852.3</ele>
        <time>2022-06-12T07:34:51Z</time>
      </trkpt>
      <trkpt lat="44.24317" lon="6.75568">
        <ele>1852.7</ele>
        <time>2022-06-12T07:34:52Z</time>
      </trkpt>
      <trkpt lat="44.24318" lon="6.75571">
        <ele>1853</ele>
        <time>2022-06-12T07:34:53Z</time>
      </trkpt>
      <trkpt lat="44.24319" lon="6.75574">
        <ele>1853.4</ele>
        <time>2022-06-12T07:34:54Z</time>
      </trkpt>
      <trkpt lat="44.2432" lon="6.75577">
        <ele>1853.8</ele>
        <time>2022-06-12T07:34:55Z</time>
      </trkpt>
      <trkpt lat="44.24321" lon="6.7558">
        <ele>1854.2</ele>
        <time>2022-06-12T07:34:56Z</time>
      </trkpt>
      <trkpt lat="44.24322" lon="6.75583">
        <ele>1854.5</ele>
        <time>2022-06-12T07:34:57Z</time>
      </trkpt>
      <trkpt lat="44.24323" lon="6.75586">
        <ele>1854.9</ele>
        <time>2022-06-12T07:34:58Z</time>
      </trkpt>
      <trkpt lat="44.24324" lon="6.75588">
        <ele>1855.2</ele>
        <time>2022-06-12T07:34:59Z</time>
      </trkpt>
      <trkpt lat="44.24325" lon="6.75592">
        <ele>1855.6</ele>
        <time>2022-06-12T07:35:00Z</time>
      </trkpt>
      <trkpt lat="44.24326" lon="6.75595">
        <ele>1855.9</ele>
        <time>2022-06-12T07:35:01Z</time>
      </trkpt>
      <trkpt lat="44.24327" lon="6.75598">
        <ele>1856.1</ele>
        <time>2022-06-12T07:35:02Z</time>
      </trkpt>
      <trkpt lat="44.24328" lon="6.75601">
        <ele>1856.4</ele>
        <time>2022-06-12T07:35:03Z</time>
      </trkpt>
      <trkpt lat="44.24329" lon="6.75604">
        <ele>1856.7</ele>
        <time>2022-06-12T07:35:04Z</time>
      </trkpt>
      <trkpt lat="44.2433" lon="6.75607">
        <ele>1857</ele>
        <time>2022-06-12T07:35:05Z</time>
      </trkpt>
      <trkpt lat="44.24331" lon="6.7561">
        <ele>1857.3</ele>
        <time>2022-06-12T07:35:06Z</time>
      </trkpt>
      <trkpt lat="44.24332" lon="6.75613">
        <ele>1857.6</ele>
        <time>2022-06-12T07:35:07Z</time>
      </trkpt>
      <trkpt lat="44.24333" lon="6.75616">
        <ele>1857.9</ele>
        <time>2022-06-12T07:35:08Z</time>
      </trkpt>
      <trkpt lat="44.24333" lon="6.75619">
        <ele>1858</ele>
        <time>2022-06-12T07:35:09Z</time>
      </trkpt>
      <trkpt lat="44.24334" lon="6.75622">
        <ele>1858.2</ele>
        <time>2022-06-12T07:35:10Z</time>
      </trkpt>
      <trkpt lat="44.24336" lon="6.75625">
        <ele>1858.4</ele>
        <time>2022-06-12T07:35:11Z</time>
      </trkpt>
      <trkpt lat="44.24337" lon="6.75627">
        <ele>1858.6</ele>
        <time>2022-06-12T07:35:12Z</time>
      </trkpt>
      <trkpt lat="44.24338" lon="6.7563">
        <ele>1858.8</ele>
        <time>2022-06-12T07:35:13Z</time>
      </trkpt>
      <trkpt lat="44.24339" lon="6.75633">
        <ele>1859</ele>
        <time>2022-06-12T07:35:14Z</time>
      </trkpt>
      <trkpt lat="44.2434" lon="6.75636">
        <ele>1859.2</ele>
        <time>2022-06-12T07:35:15Z</time>
      </trkpt>
      <trkpt lat="44.24341" lon="6.75638">
        <ele>1859.3</ele>
        <time>2022-06-12T07:35:16Z</time>
      </trkpt>
      <trkpt lat="44.24342" lon="6.75641">
        <ele>1859.5</ele>
        <time>2022-06-12T07:35:17Z</time>
      </trkpt>
      <trkpt lat="44.24344" lon="6.75644">
        <ele>1859.5</ele>
        <time>2022-06-12T07:35:18Z</time>
      </trkpt>
      <trkpt lat="44.24345" lon="6.75647">
        <ele>1859.5</ele>
        <time>2022-06-12T07:35:19Z</time>
      </trkpt>
      <trkpt lat="44.24347" lon="6.75649">
        <ele>1859.6</ele>
        <time>2022-06-12T07:35:20Z</time>
      </trkpt>
      <trkpt lat="44.24348" lon="6.75652">
        <ele>1859.8</ele>
        <time>2022-06-12T07:35:21Z</time>
      </trkpt>
      <trkpt lat="44.2435" lon="6.75654">
        <ele>1859.9</ele>
        <time>2022-06-12T07:35:22Z</time>
      </trkpt>
      <trkpt lat="44.24351" lon="6.75656">
        <ele>1860</ele>
        <time>2022-06-12T07:35:23Z</time>
      </trkpt>
      <trkpt lat="44.24353" lon="6.75659">
        <ele>1860.1</ele>
        <time>2022-06-12T07:35:24Z</time>
      </trkpt>
      <trkpt lat="44.24355" lon="6.75661">
        <ele>1860.2</ele>
        <time>2022-06-12T07:35:25Z</time>
      </trkpt>
      <trkpt lat="44.24356" lon="6.75663">
        <ele>1860.4</ele>
        <time>2022-06-12T07:35:26Z</time>
      </trkpt>
      <trkpt lat="44.24358" lon="6.75666">
        <ele>1860.5</ele>
        <time>2022-06-12T07:35:27Z</time>
      </trkpt>
      <trkpt lat="44.2436" lon="6.75668">
        <ele>1860.6</ele>
        <time>2022-06-12T07:35:28Z</time>
      </trkpt>
      <trkpt lat="44.24361" lon="6.7567">
        <ele>1860.6</ele>
        <time>2022-06-12T07:35:29Z</time>
      </trkpt>
      <trkpt lat="44.24363" lon="6.75672">
        <ele>1860.7</ele>
        <time>2022-06-12T07:35:30Z</time>
      </trkpt>
      <trkpt lat="44.24364" lon="6.75674">
        <ele>1860.7</ele>
        <time>2022-06-12T07:35:31Z</time>
      </trkpt>
      <trkpt lat="44.24366" lon="6.75676">
        <ele>1860.7</ele>
        <time>2022-06-12T07:35:32Z</time>
      </trkpt>
      <trkpt lat="44.24368" lon="6.75678">
        <ele>1860.8</ele>
        <time>2022-06-12T07:35:33Z</time>
      </trkpt>
      <trkpt lat="44.2437" lon="6.7568">
        <ele>1860.9</ele>
        <time>2022-06-12T07:35:34Z</time>
      </trkpt>
      <trkpt lat="44.24372" lon="6.75682">
        <ele>1861</ele>
        <time>2022-06-12T07:35:35Z</time>
      </trkpt>
      <trkpt lat="44.24374" lon="6.75683">
        <ele>1861.1</ele>
        <time>2022-06-12T07:35:36Z</time>
      </trkpt>
      <trkpt lat="44.24377" lon="6.75685">
        <ele>1861.3</ele>
        <time>2022-06-12T07:35:37Z</time>
      </trkpt>
      <trkpt lat="44.24379" lon="6.75687">
        <ele>1861.4</ele>
        <time>2022-06-12T07:35:38Z</time>
      </trkpt>
      <trkpt lat="44.24381" lon="6.75688">
        <ele>1861.5</ele>
        <time>2022-06-12T07:35:39Z</time>
      </trkpt>
      <trkpt lat="44.24384" lon="6.75689">
        <ele>1861.8</ele>
        <time>2022-06-12T07:35:40Z</time>
      </trkpt>
      <trkpt lat="44.24387" lon="6.7569">
        <ele>1862.1</ele>
        <time>2022-06-12T07:35:41Z</time>
      </trkpt>
      <trkpt lat="44.2439" lon="6.75691">
        <ele>1862.4</ele>
        <time>2022-06-12T07:35:42Z</time>
      </trkpt>
      <trkpt lat="44.24392" lon="6.75692">
        <ele>1862.5</ele>
        <time>2022-06-12T07:35:43Z</time>
      </trkpt>
      <trkpt lat="44.24395" lon="6.75693">
        <ele>1862.6</ele>
        <time>2022-06-12T07:35:44Z</time>
      </trkpt>
      <trkpt lat="44.24398" lon="6.75694">
        <ele>1862.6</ele>
        <time>2022-06-12T07:35:45Z</time>
      </trkpt>
      <trkpt lat="44.244" lon="6.75695">
        <ele>1862.7</ele>
        <time>2022-06-12T07:35:46Z</time>
      </trkpt>
      <trkpt lat="44.24403" lon="6.75696">
        <ele>1862.7</ele>
        <time>2022-06-12T07:35:47Z</time>
      </trkpt>
      <trkpt lat="44.24405" lon="6.75697">
        <ele>1862.8</ele>
        <time>2022-06-12T07:35:48Z</time>
      </trkpt>
      <trkpt lat="44.24407" lon="6.75698">
        <ele>1862.9</ele>
        <time>2022-06-12T07:35:49Z</time>
      </trkpt>
      <trkpt lat="44.2441" lon="6.757">
        <ele>1862.9</ele>
        <time>2022-06-12T07:35:50Z</time>
      </trkpt>
      <trkpt lat="44.24412" lon="6.75701">
        <ele>1863</ele>
        <time>2022-06-12T07:35:51Z</time>
      </trkpt>
      <trkpt lat="44.24414" lon="6.75702">
        <ele>1863</ele>
        <time>2022-06-12T07:35:52Z</time>
      </trkpt>
      <trkpt lat="44.24417" lon="6.75703">
        <ele>1863.1</ele>
        <time>2022-06-12T07:35:53Z</time>
      </trkpt>
      <trkpt lat="44.24419" lon="6.75704">
        <ele>1863.3</ele>
        <time>2022-06-12T07:35:54Z</time>
      </trkpt>
      <trkpt lat="44.24421" lon="6.75704">
        <ele>1863.5</ele>
        <time>2022-06-12T07:35:55Z</time>
      </trkpt>
      <trkpt lat="44.24423" lon="6.75705">
        <ele>1863.6</ele>
        <time>2022-06-12T07:35:56Z</time>
      </trkpt>
      <trkpt lat="44.24426" lon="6.75706">
        <ele>1863.8</ele>
        <time>2022-06-12T07:35:57Z</time>
      </trkpt>
      <trkpt lat="44.24428" lon="6.75706">
        <ele>1864</ele>
        <time>2022-06-12T07:35:58Z</time>
      </trkpt>
      <trkpt lat="44.24431" lon="6.75707">
        <ele>1864.2</ele>
        <time>2022-06-12T07:35:59Z</time>
      </trkpt>
      <trkpt lat="44.24434" lon="6.75708">
        <ele>1864.4</ele>
        <time>2022-06-12T07:36:00Z</time>
      </trkpt>
      <trkpt lat="44.24436" lon="6.75708">
        <ele>1864.6</ele>
        <time>2022-06-12T07:36:01Z</time>
      </trkpt>
      <trkpt lat="44.24439" lon="6.75709">
        <ele>1864.9</ele>
        <time>2022-06-12T07:36:02Z</time>
      </trkpt>
      <trkpt lat="44.24442" lon="6.7571">
        <ele>1865.1</ele>
        <time>2022-06-12T07:36:03Z</time>
      </trkpt>
      <trkpt lat="44.24445" lon="6.7571">
        <ele>1865.3</ele>
        <time>2022-06-12T07:36:04Z</time>
      </trkpt>
      <trkpt lat="44.24447" lon="6.75711">
        <ele>1865.6</ele>
        <time>2022-06-12T07:36:05Z</time>
      </trkpt>
      <trkpt lat="44.2445" lon="6.75712">
        <ele>1865.9</ele>
        <time>2022-06-12T07:36:06Z</time>
      </trkpt>
      <trkpt lat="44.24453" lon="6.75713">
        <ele>1866.2</ele>
        <time>2022-06-12T07:36:07Z</time>
      </trkpt>
      <trkpt lat="44.24455" lon="6.75714">
        <ele>1866.5</ele>
        <time>2022-06-12T07:36:08Z</time>
      </trkpt>
      <trkpt lat="44.24458" lon="6.75715">
        <ele>1866.8</ele>
        <time>2022-06-12T07:36:09Z</time>
      </trkpt>
      <trkpt lat="44.24461" lon="6.75716">
        <ele>1867</ele>
        <time>2022-06-12T07:36:10Z</time>
      </trkpt>
      <trkpt lat="44.24464" lon="6.75717">
        <ele>1867.4</ele>
        <time>2022-06-12T07:36:11Z</time>
      </trkpt>
      <trkpt lat="44.24466" lon="6.75717">
        <ele>1867.7</ele>
        <time>2022-06-12T07:36:12Z</time>
      </trkpt>
      <trkpt lat="44.24469" lon="6.75718">
        <ele>1868</ele>
        <time>2022-06-12T07:36:13Z</time>
      </trkpt>
      <trkpt lat="44.24471" lon="6.75719">
        <ele>1868.3</ele>
        <time>2022-06-12T07:36:14Z</time>
      </trkpt>
      <trkpt lat="44.24474" lon="6.75719">
        <ele>1868.7</ele>
        <time>2022-06-12T07:36:15Z</time>
      </trkpt>
      <trkpt lat="44.24477" lon="6.7572">
        <ele>1869.1</ele>
        <time>2022-06-12T07:36:16Z</time>
      </trkpt>
      <trkpt lat="44.24479" lon="6.75721">
        <ele>1869.6</ele>
        <time>2022-06-12T07:36:17Z</time>
      </trkpt>
      <trkpt lat="44.24482" lon="6.75722">
        <ele>1870.2</ele>
        <time>2022-06-12T07:36:18Z</time>
      </trkpt>
      <trkpt lat="44.24485" lon="6.75721">
        <ele>1870.8</ele>
        <time>2022-06-12T07:36:19Z</time>
      </trkpt>
      <trkpt lat="44.24488" lon="6.7572">
        <ele>1871.6</ele>
        <time>2022-06-12T07:36:20Z</time>
      </trkpt>
      <trkpt lat="44.24491" lon="6.75719">
        <ele>1872.3</ele>
        <time>2022-06-12T07:36:21Z</time>
      </trkpt>
      <trkpt lat="44.24492" lon="6.75716">
        <ele>1872.8</ele>
        <time>2022-06-12T07:36:22Z</time>
      </trkpt>
      <trkpt lat="44.24494" lon="6.75713">
        <ele>1873.3</ele>
        <time>2022-06-12T07:36:23Z</time>
      </trkpt>
      <trkpt lat="44.24494" lon="6.75709">
        <ele>1873.7</ele>
        <time>2022-06-12T07:36:24Z</time>
      </trkpt>
      <trkpt lat="44.24493" lon="6.75706">
        <ele>1873.8</ele>
        <time>2022-06-12T07:36:25Z</time>
      </trkpt>
      <trkpt lat="44.24492" lon="6.75703">
        <ele>1873.8</ele>
        <time>2022-06-12T07:36:26Z</time>
      </trkpt>
      <trkpt lat="44.2449" lon="6.757">
        <ele>1873.7</ele>
        <time>2022-06-12T07:36:27Z</time>
      </trkpt>
      <trkpt lat="44.24487" lon="6.75697">
        <ele>1873.5</ele>
        <time>2022-06-12T07:36:28Z</time>
      </trkpt>
      <trkpt lat="44.24485" lon="6.75695">
        <ele>1873.2</ele>
        <time>2022-06-12T07:36:29Z</time>
      </trkpt>
      <trkpt lat="44.24482" lon="6.75692">
        <ele>1873</ele>
        <time>2022-06-12T07:36:30Z</time>
      </trkpt>
      <trkpt lat="44.24479" lon="6.7569">
        <ele>1872.8</ele>
        <time>2022-06-12T07:36:31Z</time>
      </trkpt>
      <trkpt lat="44.24476" lon="6.75687">
        <ele>1872.4</ele>
        <time>2022-06-12T07:36:32Z</time>
      </trkpt>
      <trkpt lat="44.24473" lon="6.75685">
        <ele>1872.1</ele>
        <time>2022-06-12T07:36:33Z</time>
      </trkpt>
      <trkpt lat="44.2447" lon="6.75683">
        <ele>1871.9</ele>
        <time>2022-06-12T07:36:34Z</time>
      </trkpt>
      <trkpt lat="44.24467" lon="6.75681">
        <ele>1871.7</ele>
        <time>2022-06-12T07:36:35Z</time>
      </trkpt>
      <trkpt lat="44.24465" lon="6.75679">
        <ele>1871.6</ele>
        <time>2022-06-12T07:36:36Z</time>
      </trkpt>
      <trkpt lat="44.24462" lon="6.75677">
        <ele>1871.4</ele>
        <time>2022-06-12T07:36:37Z</time>
      </trkpt>
      <trkpt lat="44.2446" lon="6.75675">
        <ele>1871.4</ele>
        <time>2022-06-12T07:36:38Z</time>
      </trkpt>
      <trkpt lat="44.24458" lon="6.75672">
        <ele>1871.3</ele>
        <time>2022-06-12T07:36:39Z</time>
      </trkpt>
      <trkpt lat="44.24456" lon="6.7567">
        <ele>1871.3</ele>
        <time>2022-06-12T07:36:40Z</time>
      </trkpt>
      <trkpt lat="44.24454" lon="6.75667">
        <ele>1871.3</ele>
        <time>2022-06-12T07:36:41Z</time>
      </trkpt>
      <trkpt lat="44.24452" lon="6.75664">
        <ele>1871.3</ele>
        <time>2022-06-12T07:36:42Z</time>
      </trkpt>
      <trkpt lat="44.2445" lon="6.75661">
        <ele>1871.4</ele>
        <time>2022-06-12T07:36:43Z</time>
      </trkpt>
      <trkpt lat="44.24449" lon="6.75659">
        <ele>1871.5</ele>
        <time>2022-06-12T07:36:44Z</time>
      </trkpt>
      <trkpt lat="44.24447" lon="6.75656">
        <ele>1871.6</ele>
        <time>2022-06-12T07:36:45Z</time>
      </trkpt>
      <trkpt lat="44.24446" lon="6.75652">
        <ele>1871.8</ele>
        <time>2022-06-12T07:36:46Z</time>
      </trkpt>
      <trkpt lat="44.24444" lon="6.75649">
        <ele>1871.9</ele>
        <time>2022-06-12T07:36:47Z</time>
      </trkpt>
      <trkpt lat="44.24443" lon="6.75645">
        <ele>1872.2</ele>
        <time>2022-06-12T07:36:48Z</time>
      </trkpt>
      <trkpt lat="44.24442" lon="6.75642">
        <ele>1872.4</ele>
        <time>2022-06-12T07:36:49Z</time>
      </trkpt>
      <trkpt lat="44.24442" lon="6.75639">
        <ele>1872.7</ele>
        <time>2022-06-12T07:36:50Z</time>
      </trkpt>
      <trkpt lat="44.24441" lon="6.75635">
        <ele>1873</ele>
        <time>2022-06-12T07:36:51Z</time>
      </trkpt>
      <trkpt lat="44.24441" lon="6.75631">
        <ele>1873.4</ele>
        <time>2022-06-12T07:36:52Z</time>
      </trkpt>
      <trkpt lat="44.24442" lon="6.75628">
        <ele>1873.8</ele>
        <time>2022-06-12T07:36:53Z</time>
      </trkpt>
      <trkpt lat="44.24442" lon="6.75625">
        <ele>1874.2</ele>
        <time>2022-06-12T07:36:54Z</time>
      </trkpt>
      <trkpt lat="44.24443" lon="6.75621">
        <ele>1874.8</ele>
        <time>2022-06-12T07:36:55Z</time>
      </trkpt>
      <trkpt lat="44.24445" lon="6.75618">
        <ele>1875.3</ele>
        <time>2022-06-12T07:36:56Z</time>
      </trkpt>
      <trkpt lat="44.24446" lon="6.75614">
        <ele>1876</ele>
        <time>2022-06-12T07:36:57Z</time>
      </trkpt>
      <trkpt lat="44.24448" lon="6.75611">
        <ele>1876.6</ele>
        <time>2022-06-12T07:36:58Z</time>
      </trkpt>
      <trkpt lat="44.24449" lon="6.75608">
        <ele>1876.9</ele>
        <time>2022-06-12T07:36:59Z</time>
      </trkpt>
      <trkpt lat="44.2445" lon="6.75605">
        <ele>1877.3</ele>
        <time>2022-06-12T07:37:00Z</time>
      </trkpt>
      <trkpt lat="44.24452" lon="6.75602">
        <ele>1877.7</ele>
        <time>2022-06-12T07:37:01Z</time>
      </trkpt>
      <trkpt lat="44.24453" lon="6.75599">
        <ele>1878</ele>
        <time>2022-06-12T07:37:02Z</time>
      </trkpt>
      <trkpt lat="44.24455" lon="6.75596">
        <ele>1878.4</ele>
        <time>2022-06-12T07:37:03Z</time>
      </trkpt>
      <trkpt lat="44.24456" lon="6.75593">
        <ele>1878.8</ele>
        <time>2022-06-12T07:37:04Z</time>
      </trkpt>
      <trkpt lat="44.24458" lon="6.75589">
        <ele>1879.2</ele>
        <time>2022-06-12T07:37:05Z</time>
      </trkpt>
      <trkpt lat="44.24459" lon="6.75586">
        <ele>1879.6</ele>
        <time>2022-06-12T07:37:06Z</time>
      </trkpt>
      <trkpt lat="44.24461" lon="6.75583">
        <ele>1880</ele>
        <time>2022-06-12T07:37:07Z</time>
      </trkpt>
      <trkpt lat="44.24462" lon="6.75579">
        <ele>1880.3</ele>
        <time>2022-06-12T07:37:08Z</time>
      </trkpt>
      <trkpt lat="44.24463" lon="6.75576">
        <ele>1880.5</ele>
        <time>2022-06-12T07:37:09Z</time>
      </trkpt>
      <trkpt lat="44.24464" lon="6.75572">
        <ele>1880.8</ele>
        <time>2022-06-12T07:37:10Z</time>
      </trkpt>
      <trkpt lat="44.24465" lon="6.75569">
        <ele>1881.1</ele>
        <time>2022-06-12T07:37:11Z</time>
      </trkpt>
      <trkpt lat="44.24466" lon="6.75565">
        <ele>1881.3</ele>
        <time>2022-06-12T07:37:12Z</time>
      </trkpt>
      <trkpt lat="44.24466" lon="6.75562">
        <ele>1881.5</ele>
        <time>2022-06-12T07:37:13Z</time>
      </trkpt>
      <trkpt lat="44.24466" lon="6.75558">
        <ele>1881.7</ele>
        <time>2022-06-12T07:37:14Z</time>
      </trkpt>
      <trkpt lat="44.24467" lon="6.75554">
        <ele>1881.9</ele>
        <time>2022-06-12T07:37:15Z</time>
      </trkpt>
      <trkpt lat="44.24467" lon="6.7555">
        <ele>1882.1</ele>
        <time>2022-06-12T07:37:16Z</time>
      </trkpt>
      <trkpt lat="44.24467" lon="6.75546">
        <ele>1882.5</ele>
        <time>2022-06-12T07:37:17Z</time>
      </trkpt>
      <trkpt lat="44.24467" lon="6.75543">
        <ele>1882.7</ele>
        <time>2022-06-12T07:37:18Z</time>
      </trkpt>
      <trkpt lat="44.24467" lon="6.75539">
        <ele>1883</ele>
        <time>2022-06-12T07:37:19Z</time>
      </trkpt>
      <trkpt lat="44.24467" lon="6.75535">
        <ele>1883.1</ele>
        <time>2022-06-12T07:37:20Z</time>
      </trkpt>
      <trkpt lat="44.24466" lon="6.75531">
        <ele>1883.2</ele>
        <time>2022-06-12T07:37:21Z</time>
      </trkpt>
      <trkpt lat="44.24465" lon="6.75528">
        <ele>1883.1</ele>
        <time>2022-06-12T07:37:22Z</time>
      </trkpt>
      <trkpt lat="44.24464" lon="6.75524">
        <ele>1883.6</ele>
        <time>2022-06-12T07:37:23Z</time>
      </trkpt>
      <trkpt lat="44.24463" lon="6.75521">
        <ele>1884</ele>
        <time>2022-06-12T07:37:24Z</time>
      </trkpt>
      <trkpt lat="44.24461" lon="6.75517">
        <ele>1884.4</ele>
        <time>2022-06-12T07:37:25Z</time>
      </trkpt>
      <trkpt lat="44.2446" lon="6.75514">
        <ele>1884.7</ele>
        <time>2022-06-12T07:37:26Z</time>
      </trkpt>
      <trkpt lat="44.24459" lon="6.75511">
        <ele>1885</ele>
        <time>2022-06-12T07:37:27Z</time>
      </trkpt>
      <trkpt lat="44.24458" lon="6.75507">
        <ele>1885.3</ele>
        <time>2022-06-12T07:37:28Z</time>
      </trkpt>
      <trkpt lat="44.24456" lon="6.75504">
        <ele>1885.4</ele>
        <time>2022-06-12T07:37:29Z</time>
      </trkpt>
      <trkpt lat="44.24455" lon="6.75501">
        <ele>1885.4</ele>
        <time>2022-06-12T07:37:30Z</time>
      </trkpt>
      <trkpt lat="44.24453" lon="6.75498">
        <ele>1885.8</ele>
        <time>2022-06-12T07:37:31Z</time>
      </trkpt>
      <trkpt lat="44.24452" lon="6.75495">
        <ele>1886.2</ele>
        <time>2022-06-12T07:37:32Z</time>
      </trkpt>
      <trkpt lat="44.2445" lon="6.75491">
        <ele>1886.6</ele>
        <time>2022-06-12T07:37:33Z</time>
      </trkpt>
      <trkpt lat="44.24448" lon="6.75488">
        <ele>1886.9</ele>
        <time>2022-06-12T07:37:34Z</time>
      </trkpt>
      <trkpt lat="44.24447" lon="6.75485">
        <ele>1887.2</ele>
        <time>2022-06-12T07:37:35Z</time>
      </trkpt>
      <trkpt lat="44.24445" lon="6.75482">
        <ele>1887.3</ele>
        <time>2022-06-12T07:37:36Z</time>
      </trkpt>
      <trkpt lat="44.24443" lon="6.75479">
        <ele>1887.5</ele>
        <time>2022-06-12T07:37:37Z</time>
      </trkpt>
      <trkpt lat="44.24441" lon="6.75476">
        <ele>1887.5</ele>
        <time>2022-06-12T07:37:38Z</time>
      </trkpt>
      <trkpt lat="44.2444" lon="6.75473">
        <ele>1887.7</ele>
        <time>2022-06-12T07:37:39Z</time>
      </trkpt>
      <trkpt lat="44.24438" lon="6.7547">
        <ele>1888</ele>
        <time>2022-06-12T07:37:40Z</time>
      </trkpt>
      <trkpt lat="44.24437" lon="6.75466">
        <ele>1888.3</ele>
        <time>2022-06-12T07:37:41Z</time>
      </trkpt>
      <trkpt lat="44.24435" lon="6.75463">
        <ele>1888.4</ele>
        <time>2022-06-12T07:37:42Z</time>
      </trkpt>
      <trkpt lat="44.24433" lon="6.7546">
        <ele>1888.5</ele>
        <time>2022-06-12T07:37:43Z</time>
      </trkpt>
      <trkpt lat="44.24432" lon="6.75457">
        <ele>1888.5</ele>
        <time>2022-06-12T07:37:44Z</time>
      </trkpt>
      <trkpt lat="44.2443" lon="6.75454">
        <ele>1888.5</ele>
        <time>2022-06-12T07:37:45Z</time>
      </trkpt>
      <trkpt lat="44.24428" lon="6.75451">
        <ele>1888.6</ele>
        <time>2022-06-12T07:37:46Z</time>
      </trkpt>
      <trkpt lat="44.24427" lon="6.75448">
        <ele>1888.7</ele>
        <time>2022-06-12T07:37:47Z</time>
      </trkpt>
      <trkpt lat="44.24425" lon="6.75445">
        <ele>1888.7</ele>
        <time>2022-06-12T07:37:48Z</time>
      </trkpt>
      <trkpt lat="44.24423" lon="6.75442">
        <ele>1888.6</ele>
        <time>2022-06-12T07:37:49Z</time>
      </trkpt>
      <trkpt lat="44.24422" lon="6.7544">
        <ele>1888.4</ele>
        <time>2022-06-12T07:37:50Z</time>
      </trkpt>
      <trkpt lat="44.2442" lon="6.75437">
        <ele>1888.3</ele>
        <time>2022-06-12T07:37:51Z</time>
      </trkpt>
      <trkpt lat="44.24419" lon="6.75434">
        <ele>1888.2</ele>
        <time>2022-06-12T07:37:52Z</time>
      </trkpt>
      <trkpt lat="44.24417" lon="6.75431">
        <ele>1888.1</ele>
        <time>2022-06-12T07:37:53Z</time>
      </trkpt>
      <trkpt lat="44.24415" lon="6.75428">
        <ele>1887.8</ele>
        <time>2022-06-12T07:37:54Z</time>
      </trkpt>
      <trkpt lat="44.24414" lon="6.75425">
        <ele>1887.7</ele>
        <time>2022-06-12T07:37:55Z</time>
      </trkpt>
      <trkpt lat="44.24412" lon="6.75422">
        <ele>1887.6</ele>
        <time>2022-06-12T07:37:56Z</time>
      </trkpt>
      <trkpt lat="44.24411" lon="6.75419">
        <ele>1887.6</ele>
        <time>2022-06-12T07:37:57Z</time>
      </trkpt>
      <trkpt lat="44.2441" lon="6.75416">
        <ele>1888</ele>
        <time>2022-06-12T07:37:58Z</time>
      </trkpt>
      <trkpt lat="44.2441" lon="6.75412">
        <ele>1888.9</ele>
        <time>2022-06-12T07:37:59Z</time>
      </trkpt>
      <trkpt lat="44.2441" lon="6.75408">
        <ele>1890</ele>
        <time>2022-06-12T07:38:00Z</time>
      </trkpt>
      <trkpt lat="44.24412" lon="6.75406">
        <ele>1891.6</ele>
        <time>2022-06-12T07:38:01Z</time>
      </trkpt>
      <trkpt lat="44.24415" lon="6.75405">
        <ele>1892.9</ele>
        <time>2022-06-12T07:38:02Z</time>
      </trkpt>
      <trkpt lat="44.24417" lon="6.75407">
        <ele>1893.5</ele>
        <time>2022-06-12T07:38:03Z</time>
      </trkpt>
      <trkpt lat="44.24418" lon="6.75409">
        <ele>1893.6</ele>
        <time>2022-06-12T07:38:04Z</time>
      </trkpt>
      <trkpt lat="44.24419" lon="6.75412">
        <ele>1893.5</ele>
        <time>2022-06-12T07:38:05Z</time>
      </trkpt>
      <trkpt lat="44.24421" lon="6.75416">
        <ele>1893.2</ele>
        <time>2022-06-12T07:38:06Z</time>
      </trkpt>
      <trkpt lat="44.24422" lon="6.75419">
        <ele>1892.9</ele>
        <time>2022-06-12T07:38:07Z</time>
      </trkpt>
      <trkpt lat="44.24423" lon="6.75422">
        <ele>1892.7</ele>
        <time>2022-06-12T07:38:08Z</time>
      </trkpt>
      <trkpt lat="44.24424" lon="6.75426">
        <ele>1892.5</ele>
        <time>2022-06-12T07:38:09Z</time>
      </trkpt>
      <trkpt lat="44.24425" lon="6.75429">
        <ele>1892.5</ele>
        <time>2022-06-12T07:38:10Z</time>
      </trkpt>
      <trkpt lat="44.24426" lon="6.75432">
        <ele>1892.3</ele>
        <time>2022-06-12T07:38:11Z</time>
      </trkpt>
      <trkpt lat="44.24427" lon="6.75435">
        <ele>1892.1</ele>
        <time>2022-06-12T07:38:12Z</time>
      </trkpt>
      <trkpt lat="44.24429" lon="6.75438">
        <ele>1892.1</ele>
        <time>2022-06-12T07:38:13Z</time>
      </trkpt>
      <trkpt lat="44.2443" lon="6.7544">
        <ele>1892.1</ele>
        <time>2022-06-12T07:38:14Z</time>
      </trkpt>
      <trkpt lat="44.24432" lon="6.75443">
        <ele>1892.3</ele>
        <time>2022-06-12T07:38:15Z</time>
      </trkpt>
      <trkpt lat="44.24433" lon="6.75446">
        <ele>1892.4</ele>
        <time>2022-06-12T07:38:16Z</time>
      </trkpt>
      <trkpt lat="44.24435" lon="6.75449">
        <ele>1892.5</ele>
        <time>2022-06-12T07:38:17Z</time>
      </trkpt>
      <trkpt lat="44.24437" lon="6.75451">
        <ele>1892.8</ele>
        <time>2022-06-12T07:38:18Z</time>
      </trkpt>
      <trkpt lat="44.24439" lon="6.75453">
        <ele>1893</ele>
        <time>2022-06-12T07:38:19Z</time>
      </trkpt>
      <trkpt lat="44.24441" lon="6.75456">
        <ele>1893.1</ele>
        <time>2022-06-12T07:38:20Z</time>
      </trkpt>
      <trkpt lat="44.24443" lon="6.75458">
        <ele>1893.2</ele>
        <time>2022-06-12T07:38:21Z</time>
      </trkpt>
      <trkpt lat="44.24444" lon="6.7546">
        <ele>1893.4</ele>
        <time>2022-06-12T07:38:22Z</time>
      </trkpt>
      <trkpt lat="44.24446" lon="6.75462">
        <ele>1893.6</ele>
        <time>2022-06-12T07:38:23Z</time>
      </trkpt>
      <trkpt lat="44.24448" lon="6.75464">
        <ele>1893.9</ele>
        <time>2022-06-12T07:38:24Z</time>
      </trkpt>
      <trkpt lat="44.2445" lon="6.75465">
        <ele>1894.3</ele>
        <time>2022-06-12T07:38:25Z</time>
      </trkpt>
      <trkpt lat="44.24452" lon="6.75467">
        <ele>1894.7</ele>
        <time>2022-06-12T07:38:26Z</time>
      </trkpt>
      <trkpt lat="44.24454" lon="6.75468">
        <ele>1895.2</ele>
        <time>2022-06-12T07:38:27Z</time>
      </trkpt>
      <trkpt lat="44.24456" lon="6.7547">
        <ele>1895.5</ele>
        <time>2022-06-12T07:38:28Z</time>
      </trkpt>
      <trkpt lat="44.24458" lon="6.75472">
        <ele>1895.8</ele>
        <time>2022-06-12T07:38:29Z</time>
      </trkpt>
      <trkpt lat="44.2446" lon="6.75474">
        <ele>1896.1</ele>
        <time>2022-06-12T07:38:30Z</time>
      </trkpt>
      <trkpt lat="44.24462" lon="6.75475">
        <ele>1896.6</ele>
        <time>2022-06-12T07:38:31Z</time>
      </trkpt>
      <trkpt lat="44.24464" lon="6.75477">
        <ele>1897.1</ele>
        <time>2022-06-12T07:38:32Z</time>
      </trkpt>
      <trkpt lat="44.24467" lon="6.75478">
        <ele>1897.5</ele>
        <time>2022-06-12T07:38:33Z</time>
      </trkpt>
      <trkpt lat="44.24469" lon="6.75479">
        <ele>1898</ele>
        <time>2022-06-12T07:38:34Z</time>
      </trkpt>
      <trkpt lat="44.24471" lon="6.75481">
        <ele>1898.5</ele>
        <time>2022-06-12T07:38:35Z</time>
      </trkpt>
      <trkpt lat="44.24473" lon="6.75482">
        <ele>1898.9</ele>
        <time>2022-06-12T07:38:36Z</time>
      </trkpt>
      <trkpt lat="44.24476" lon="6.75483">
        <ele>1899.1</ele>
        <time>2022-06-12T07:38:37Z</time>
      </trkpt>
      <trkpt lat="44.24478" lon="6.75485">
        <ele>1899.4</ele>
        <time>2022-06-12T07:38:38Z</time>
      </trkpt>
      <trkpt lat="44.2448" lon="6.75486">
        <ele>1899.7</ele>
        <time>2022-06-12T07:38:39Z</time>
      </trkpt>
      <trkpt lat="44.24482" lon="6.75487">
        <ele>1899.9</ele>
        <time>2022-06-12T07:38:40Z</time>
      </trkpt>
      <trkpt lat="44.24484" lon="6.75488">
        <ele>1900.1</ele>
        <time>2022-06-12T07:38:41Z</time>
      </trkpt>
      <trkpt lat="44.24486" lon="6.7549">
        <ele>1900.1</ele>
        <time>2022-06-12T07:38:42Z</time>
      </trkpt>
      <trkpt lat="44.24488" lon="6.75491">
        <ele>1900.3</ele>
        <time>2022-06-12T07:38:43Z</time>
      </trkpt>
      <trkpt lat="44.2449" lon="6.75493">
        <ele>1900.4</ele>
        <time>2022-06-12T07:38:44Z</time>
      </trkpt>
      <trkpt lat="44.24492" lon="6.75495">
        <ele>1900.4</ele>
        <time>2022-06-12T07:38:45Z</time>
      </trkpt>
      <trkpt lat="44.24494" lon="6.75496">
        <ele>1900.5</ele>
        <time>2022-06-12T07:38:46Z</time>
      </trkpt>
      <trkpt lat="44.24496" lon="6.75497">
        <ele>1900.7</ele>
        <time>2022-06-12T07:38:47Z</time>
      </trkpt>
      <trkpt lat="44.24498" lon="6.75499">
        <ele>1901</ele>
        <time>2022-06-12T07:38:48Z</time>
      </trkpt>
      <trkpt lat="44.245" lon="6.755">
        <ele>1901.1</ele>
        <time>2022-06-12T07:38:49Z</time>
      </trkpt>
      <trkpt lat="44.24502" lon="6.75502">
        <ele>1901.2</ele>
        <time>2022-06-12T07:38:50Z</time>
      </trkpt>
      <trkpt lat="44.24504" lon="6.75503">
        <ele>1901.3</ele>
        <time>2022-06-12T07:38:51Z</time>
      </trkpt>
      <trkpt lat="44.24506" lon="6.75505">
        <ele>1901.4</ele>
        <time>2022-06-12T07:38:52Z</time>
      </trkpt>
      <trkpt lat="44.24508" lon="6.75506">
        <ele>1901.8</ele>
        <time>2022-06-12T07:38:53Z</time>
      </trkpt>
      <trkpt lat="44.2451" lon="6.75508">
        <ele>1902.2</ele>
        <time>2022-06-12T07:38:54Z</time>
      </trkpt>
      <trkpt lat="44.24513" lon="6.75509">
        <ele>1902.6</ele>
        <time>2022-06-12T07:38:55Z</time>
      </trkpt>
      <trkpt lat="44.24515" lon="6.75511">
        <ele>1902.8</ele>
        <time>2022-06-12T07:38:56Z</time>
      </trkpt>
      <trkpt lat="44.24518" lon="6.75512">
        <ele>1903.1</ele>
        <time>2022-06-12T07:38:57Z</time>
      </trkpt>
      <trkpt lat="44.2452" lon="6.75513">
        <ele>1903.5</ele>
        <time>2022-06-12T07:38:58Z</time>
      </trkpt>
      <trkpt lat="44.24522" lon="6.75515">
        <ele>1903.9</ele>
        <time>2022-06-12T07:38:59Z</time>
      </trkpt>
      <trkpt lat="44.24525" lon="6.75515">
        <ele>1904.4</ele>
        <time>2022-06-12T07:39:00Z</time>
      </trkpt>
      <trkpt lat="44.24527" lon="6.75517">
        <ele>1904.7</ele>
        <time>2022-06-12T07:39:01Z</time>
      </trkpt>
      <trkpt lat="44.24529" lon="6.75518">
        <ele>1904.9</ele>
        <time>2022-06-12T07:39:02Z</time>
      </trkpt>
      <trkpt lat="44.24531" lon="6.7552">
        <ele>1905.1</ele>
        <time>2022-06-12T07:39:03Z</time>
      </trkpt>
      <trkpt lat="44.24533" lon="6.75521">
        <ele>1905.2</ele>
        <time>2022-06-12T07:39:04Z</time>
      </trkpt>
      <trkpt lat="44.24535" lon="6.75523">
        <ele>1905.3</ele>
        <time>2022-06-12T07:39:05Z</time>
      </trkpt>
      <trkpt lat="44.24537" lon="6.75524">
        <ele>1905.2</ele>
        <time>2022-06-12T07:39:06Z</time>
      </trkpt>
      <trkpt lat="44.24539" lon="6.75526">
        <ele>1905.3</ele>
        <time>2022-06-12T07:39:07Z</time>
      </trkpt>
      <trkpt lat="44.24541" lon="6.75528">
        <ele>1905.4</ele>
        <time>2022-06-12T07:39:08Z</time>
      </trkpt>
      <trkpt lat="44.24543" lon="6.75529">
        <ele>1905.7</ele>
        <time>2022-06-12T07:39:09Z</time>
      </trkpt>
      <trkpt lat="44.24546" lon="6.75531">
        <ele>1906.2</ele>
        <time>2022-06-12T07:39:10Z</time>
      </trkpt>
      <trkpt lat="44.24548" lon="6.75532">
        <ele>1906.7</ele>
        <time>2022-06-12T07:39:11Z</time>
      </trkpt>
      <trkpt lat="44.2455" lon="6.75534">
        <ele>1907</ele>
        <time>2022-06-12T07:39:12Z</time>
      </trkpt>
      <trkpt lat="44.24553" lon="6.75535">
        <ele>1907.5</ele>
        <time>2022-06-12T07:39:13Z</time>
      </trkpt>
      <trkpt lat="44.24555" lon="6.75537">
        <ele>1907.7</ele>
        <time>2022-06-12T07:39:14Z</time>
      </trkpt>
      <trkpt lat="44.24556" lon="6.75539">
        <ele>1907.8</ele>
        <time>2022-06-12T07:39:15Z</time>
      </trkpt>
      <trkpt lat="44.24558" lon="6.75541">
        <ele>1907.9</ele>
        <time>2022-06-12T07:39:16Z</time>
      </trkpt>
      <trkpt lat="44.2456" lon="6.75542">
        <ele>1908.2</ele>
        <time>2022-06-12T07:39:17Z</time>
      </trkpt>
      <trkpt lat="44.24562" lon="6.75544">
        <ele>1908.2</ele>
        <time>2022-06-12T07:39:18Z</time>
      </trkpt>
      <trkpt lat="44.24564" lon="6.75546">
        <ele>1908.4</ele>
        <time>2022-06-12T07:39:19Z</time>
      </trkpt>
      <trkpt lat="44.24566" lon="6.75547">
        <ele>1908.5</ele>
        <time>2022-06-12T07:39:20Z</time>
      </trkpt>
      <trkpt lat="44.24568" lon="6.75549">
        <ele>1908.4</ele>
        <time>2022-06-12T07:39:21Z</time>
      </trkpt>
      <trkpt lat="44.2457" lon="6.75551">
        <ele>1908.3</ele>
        <time>2022-06-12T07:39:22Z</time>
      </trkpt>
      <trkpt lat="44.24572" lon="6.75553">
        <ele>1908.3</ele>
        <time>2022-06-12T07:39:23Z</time>
      </trkpt>
      <trkpt lat="44.24574" lon="6.75555">
        <ele>1908.2</ele>
        <time>2022-06-12T07:39:24Z</time>
      </trkpt>
      <trkpt lat="44.24576" lon="6.75556">
        <ele>1908.3</ele>
        <time>2022-06-12T07:39:25Z</time>
      </trkpt>
      <trkpt lat="44.24578" lon="6.75558">
        <ele>1908.5</ele>
        <time>2022-06-12T07:39:26Z</time>
      </trkpt>
      <trkpt lat="44.2458" lon="6.7556">
        <ele>1908.7</ele>
        <time>2022-06-12T07:39:27Z</time>
      </trkpt>
      <trkpt lat="44.24582" lon="6.75562">
        <ele>1908.9</ele>
        <time>2022-06-12T07:39:28Z</time>
      </trkpt>
      <trkpt lat="44.24584" lon="6.75563">
        <ele>1908.9</ele>
        <time>2022-06-12T07:39:29Z</time>
      </trkpt>
      <trkpt lat="44.24585" lon="6.75565">
        <ele>1908.9</ele>
        <time>2022-06-12T07:39:30Z</time>
      </trkpt>
      <trkpt lat="44.24587" lon="6.75566">
        <ele>1908.9</ele>
        <time>2022-06-12T07:39:31Z</time>
      </trkpt>
      <trkpt lat="44.24589" lon="6.75568">
        <ele>1908.8</ele>
        <time>2022-06-12T07:39:32Z</time>
      </trkpt>
      <trkpt lat="44.24591" lon="6.7557">
        <ele>1908.7</ele>
        <time>2022-06-12T07:39:33Z</time>
      </trkpt>
      <trkpt lat="44.24593" lon="6.75572">
        <ele>1908.6</ele>
        <time>2022-06-12T07:39:34Z</time>
      </trkpt>
      <trkpt lat="44.24594" lon="6.75574">
        <ele>1908.5</ele>
        <time>2022-06-12T07:39:35Z</time>
      </trkpt>
      <trkpt lat="44.24596" lon="6.75576">
        <ele>1908.2</ele>
        <time>2022-06-12T07:39:36Z</time>
      </trkpt>
      <trkpt lat="44.24597" lon="6.75578">
        <ele>1908</ele>
        <time>2022-06-12T07:39:37Z</time>
      </trkpt>
      <trkpt lat="44.24599" lon="6.7558">
        <ele>1907.8</ele>
        <time>2022-06-12T07:39:38Z</time>
      </trkpt>
      <trkpt lat="44.246" lon="6.75582">
        <ele>1907.6</ele>
        <time>2022-06-12T07:39:39Z</time>
      </trkpt>
      <trkpt lat="44.24602" lon="6.75583">
        <ele>1907.4</ele>
        <time>2022-06-12T07:39:40Z</time>
      </trkpt>
      <trkpt lat="44.24604" lon="6.75585">
        <ele>1907.2</ele>
        <time>2022-06-12T07:39:41Z</time>
      </trkpt>
      <trkpt lat="44.24605" lon="6.75586">
        <ele>1907.1</ele>
        <time>2022-06-12T07:39:42Z</time>
      </trkpt>
      <trkpt lat="44.24607" lon="6.75588">
        <ele>1906.9</ele>
        <time>2022-06-12T07:39:43Z</time>
      </trkpt>
      <trkpt lat="44.2461" lon="6.7559">
        <ele>1906.7</ele>
        <time>2022-06-12T07:39:44Z</time>
      </trkpt>
      <trkpt lat="44.24612" lon="6.75592">
        <ele>1906.5</ele>
        <time>2022-06-12T07:39:45Z</time>
      </trkpt>
      <trkpt lat="44.24613" lon="6.75594">
        <ele>1906.7</ele>
        <time>2022-06-12T07:39:46Z</time>
      </trkpt>
      <trkpt lat="44.24616" lon="6.75597">
        <ele>1906.9</ele>
        <time>2022-06-12T07:39:47Z</time>
      </trkpt>
      <trkpt lat="44.24618" lon="6.75599">
        <ele>1907.1</ele>
        <time>2022-06-12T07:39:48Z</time>
      </trkpt>
      <trkpt lat="44.2462" lon="6.75601">
        <ele>1907.4</ele>
        <time>2022-06-12T07:39:49Z</time>
      </trkpt>
      <trkpt lat="44.24621" lon="6.75603">
        <ele>1907.7</ele>
        <time>2022-06-12T07:39:50Z</time>
      </trkpt>
      <trkpt lat="44.24623" lon="6.75605">
        <ele>1908.1</ele>
        <time>2022-06-12T07:39:51Z</time>
      </trkpt>
      <trkpt lat="44.24625" lon="6.75607">
        <ele>1908.5</ele>
        <time>2022-06-12T07:39:52Z</time>
      </trkpt>
      <trkpt lat="44.24627" lon="6.75609">
        <ele>1909</ele>
        <time>2022-06-12T07:39:53Z</time>
      </trkpt>
      <trkpt lat="44.2463" lon="6.75611">
        <ele>1909.6</ele>
        <time>2022-06-12T07:39:54Z</time>
      </trkpt>
      <trkpt lat="44.24632" lon="6.75613">
        <ele>1910.4</ele>
        <time>2022-06-12T07:39:55Z</time>
      </trkpt>
      <trkpt lat="44.24635" lon="6.75615">
        <ele>1911.1</ele>
        <time>2022-06-12T07:39:56Z</time>
      </trkpt>
      <trkpt lat="44.24636" lon="6.75616">
        <ele>1911.5</ele>
        <time>2022-06-12T07:39:57Z</time>
      </trkpt>
      <trkpt lat="44.24638" lon="6.75618">
        <ele>1912</ele>
        <time>2022-06-12T07:39:58Z</time>
      </trkpt>
      <trkpt lat="44.24641" lon="6.7562">
        <ele>1912.8</ele>
        <time>2022-06-12T07:39:59Z</time>
      </trkpt>
      <trkpt lat="44.24642" lon="6.75622">
        <ele>1913.4</ele>
        <time>2022-06-12T07:40:00Z</time>
      </trkpt>
      <trkpt lat="44.24644" lon="6.75624">
        <ele>1914.1</ele>
        <time>2022-06-12T07:40:01Z</time>
      </trkpt>
      <trkpt lat="44.24646" lon="6.75626">
        <ele>1914.7</ele>
        <time>2022-06-12T07:40:02Z</time>
      </trkpt>
      <trkpt lat="44.24648" lon="6.75628">
        <ele>1915.2</ele>
        <time>2022-06-12T07:40:03Z</time>
      </trkpt>
      <trkpt lat="44.2465" lon="6.7563">
        <ele>1915.6</ele>
        <time>2022-06-12T07:40:04Z</time>
      </trkpt>
      <trkpt lat="44.24652" lon="6.75632">
        <ele>1916.1</ele>
        <time>2022-06-12T07:40:05Z</time>
      </trkpt>
      <trkpt lat="44.24653" lon="6.75634">
        <ele>1916.5</ele>
        <time>2022-06-12T07:40:06Z</time>
      </trkpt>
      <trkpt lat="44.24655" lon="6.75636">
        <ele>1916.8</ele>
        <time>2022-06-12T07:40:07Z</time>
      </trkpt>
      <trkpt lat="44.24657" lon="6.75638">
        <ele>1917.1</ele>
        <time>2022-06-12T07:40:08Z</time>
      </trkpt>
      <trkpt lat="44.24658" lon="6.75641">
        <ele>1917.5</ele>
        <time>2022-06-12T07:40:09Z</time>
      </trkpt>
      <trkpt lat="44.2466" lon="6.75643">
        <ele>1918.1</ele>
        <time>2022-06-12T07:40:10Z</time>
      </trkpt>
      <trkpt lat="44.24661" lon="6.75646">
        <ele>1918.4</ele>
        <time>2022-06-12T07:40:11Z</time>
      </trkpt>
      <trkpt lat="44.24662" lon="6.75649">
        <ele>1918.7</ele>
        <time>2022-06-12T07:40:12Z</time>
      </trkpt>
      <trkpt lat="44.24663" lon="6.75652">
        <ele>1919</ele>
        <time>2022-06-12T07:40:13Z</time>
      </trkpt>
      <trkpt lat="44.24664" lon="6.75654">
        <ele>1919.2</ele>
        <time>2022-06-12T07:40:14Z</time>
      </trkpt>
      <trkpt lat="44.24665" lon="6.75657">
        <ele>1919.4</ele>
        <time>2022-06-12T07:40:15Z</time>
      </trkpt>
      <trkpt lat="44.24665" lon="6.75661">
        <ele>1919.5</ele>
        <time>2022-06-12T07:40:16Z</time>
      </trkpt>
      <trkpt lat="44.24666" lon="6.75664">
        <ele>1919.6</ele>
        <time>2022-06-12T07:40:17Z</time>
      </trkpt>
      <trkpt lat="44.24666" lon="6.75667">
        <ele>1919.7</ele>
        <time>2022-06-12T07:40:18Z</time>
      </trkpt>
      <trkpt lat="44.24667" lon="6.7567">
        <ele>1920</ele>
        <time>2022-06-12T07:40:19Z</time>
      </trkpt>
      <trkpt lat="44.24667" lon="6.75673">
        <ele>1920</ele>
        <time>2022-06-12T07:40:20Z</time>
      </trkpt>
      <trkpt lat="44.24668" lon="6.75677">
        <ele>1920.2</ele>
        <time>2022-06-12T07:40:21Z</time>
      </trkpt>
      <trkpt lat="44.24667" lon="6.7568">
        <ele>1919.7</ele>
        <time>2022-06-12T07:40:22Z</time>
      </trkpt>
      <trkpt lat="44.24667" lon="6.75683">
        <ele>1919.3</ele>
        <time>2022-06-12T07:40:23Z</time>
      </trkpt>
      <trkpt lat="44.24667" lon="6.75687">
        <ele>1919.5</ele>
        <time>2022-06-12T07:40:24Z</time>
      </trkpt>
      <trkpt lat="44.24667" lon="6.7569">
        <ele>1919.6</ele>
        <time>2022-06-12T07:40:25Z</time>
      </trkpt>
      <trkpt lat="44.24668" lon="6.75694">
        <ele>1919.7</ele>
        <time>2022-06-12T07:40:26Z</time>
      </trkpt>
      <trkpt lat="44.24669" lon="6.75697">
        <ele>1920.2</ele>
        <time>2022-06-12T07:40:27Z</time>
      </trkpt>
      <trkpt lat="44.24669" lon="6.75701">
        <ele>1920.4</ele>
        <time>2022-06-12T07:40:28Z</time>
      </trkpt>
      <trkpt lat="44.24669" lon="6.75704">
        <ele>1920.5</ele>
        <time>2022-06-12T07:40:29Z</time>
      </trkpt>
      <trkpt lat="44.24669" lon="6.75708">
        <ele>1920.6</ele>
        <time>2022-06-12T07:40:30Z</time>
      </trkpt>
      <trkpt lat="44.2467" lon="6.75711">
        <ele>1920.6</ele>
        <time>2022-06-12T07:40:31Z</time>
      </trkpt>
      <trkpt lat="44.2467" lon="6.75715">
        <ele>1920.6</ele>
        <time>2022-06-12T07:40:32Z</time>
      </trkpt>
      <trkpt lat="44.2467" lon="6.75718">
        <ele>1920.9</ele>
        <time>2022-06-12T07:40:33Z</time>
      </trkpt>
      <trkpt lat="44.24671" lon="6.75722">
        <ele>1921.3</ele>
        <time>2022-06-12T07:40:34Z</time>
      </trkpt>
      <trkpt lat="44.24671" lon="6.75726">
        <ele>1921.5</ele>
        <time>2022-06-12T07:40:35Z</time>
      </trkpt>
      <trkpt lat="44.24672" lon="6.75729">
        <ele>1921.8</ele>
        <time>2022-06-12T07:40:36Z</time>
      </trkpt>
      <trkpt lat="44.24672" lon="6.75733">
        <ele>1921.8</ele>
        <time>2022-06-12T07:40:37Z</time>
      </trkpt>
      <trkpt lat="44.24672" lon="6.75736">
        <ele>1922.1</ele>
        <time>2022-06-12T07:40:38Z</time>
      </trkpt>
      <trkpt lat="44.24673" lon="6.7574">
        <ele>1922.4</ele>
        <time>2022-06-12T07:40:39Z</time>
      </trkpt>
      <trkpt lat="44.24673" lon="6.75744">
        <ele>1922.6</ele>
        <time>2022-06-12T07:40:40Z</time>
      </trkpt>
      <trkpt lat="44.24673" lon="6.75747">
        <ele>1922.6</ele>
        <time>2022-06-12T07:40:41Z</time>
      </trkpt>
      <trkpt lat="44.24674" lon="6.75751">
        <ele>1922.9</ele>
        <time>2022-06-12T07:40:42Z</time>
      </trkpt>
      <trkpt lat="44.24674" lon="6.75755">
        <ele>1923.1</ele>
        <time>2022-06-12T07:40:43Z</time>
      </trkpt>
      <trkpt lat="44.24674" lon="6.75759">
        <ele>1923.5</ele>
        <time>2022-06-12T07:40:44Z</time>
      </trkpt>
      <trkpt lat="44.24675" lon="6.75762">
        <ele>1923.9</ele>
        <time>2022-06-12T07:40:45Z</time>
      </trkpt>
      <trkpt lat="44.24676" lon="6.75766">
        <ele>1924.7</ele>
        <time>2022-06-12T07:40:46Z</time>
      </trkpt>
      <trkpt lat="44.24677" lon="6.75769">
        <ele>1925.5</ele>
        <time>2022-06-12T07:40:47Z</time>
      </trkpt>
      <trkpt lat="44.24678" lon="6.75773">
        <ele>1926.3</ele>
        <time>2022-06-12T07:40:48Z</time>
      </trkpt>
      <trkpt lat="44.24679" lon="6.75776">
        <ele>1926.9</ele>
        <time>2022-06-12T07:40:49Z</time>
      </trkpt>
      <trkpt lat="44.2468" lon="6.75779">
        <ele>1927.7</ele>
        <time>2022-06-12T07:40:50Z</time>
      </trkpt>
      <trkpt lat="44.2468" lon="6.75783">
        <ele>1927.9</ele>
        <time>2022-06-12T07:40:51Z</time>
      </trkpt>
      <trkpt lat="44.2468" lon="6.75786">
        <ele>1927.9</ele>
        <time>2022-06-12T07:40:52Z</time>
      </trkpt>
      <trkpt lat="44.24681" lon="6.75789">
        <ele>1928.3</ele>
        <time>2022-06-12T07:40:53Z</time>
      </trkpt>
      <trkpt lat="44.24681" lon="6.75792">
        <ele>1928.7</ele>
        <time>2022-06-12T07:40:54Z</time>
      </trkpt>
      <trkpt lat="44.24682" lon="6.75795">
        <ele>1929</ele>
        <time>2022-06-12T07:40:55Z</time>
      </trkpt>
      <trkpt lat="44.24682" lon="6.75798">
        <ele>1929</ele>
        <time>2022-06-12T07:40:56Z</time>
      </trkpt>
      <trkpt lat="44.24682" lon="6.75802">
        <ele>1929.6</ele>
        <time>2022-06-12T07:40:57Z</time>
      </trkpt>
      <trkpt lat="44.24683" lon="6.75805">
        <ele>1929.8</ele>
        <time>2022-06-12T07:40:58Z</time>
      </trkpt>
      <trkpt lat="44.24683" lon="6.75808">
        <ele>1930.2</ele>
        <time>2022-06-12T07:40:59Z</time>
      </trkpt>
      <trkpt lat="44.24683" lon="6.75811">
        <ele>1930.5</ele>
        <time>2022-06-12T07:41:00Z</time>
      </trkpt>
      <trkpt lat="44.24683" lon="6.75814">
        <ele>1930.9</ele>
        <time>2022-06-12T07:41:01Z</time>
      </trkpt>
      <trkpt lat="44.24684" lon="6.75817">
        <ele>1931.3</ele>
        <time>2022-06-12T07:41:02Z</time>
      </trkpt>
      <trkpt lat="44.24684" lon="6.7582">
        <ele>1931.6</ele>
        <time>2022-06-12T07:41:03Z</time>
      </trkpt>
      <trkpt lat="44.24684" lon="6.75823">
        <ele>1931.8</ele>
        <time>2022-06-12T07:41:04Z</time>
      </trkpt>
      <trkpt lat="44.24684" lon="6.75826">
        <ele>1932.5</ele>
        <time>2022-06-12T07:41:05Z</time>
      </trkpt>
      <trkpt lat="44.24684" lon="6.75829">
        <ele>1932.6</ele>
        <time>2022-06-12T07:41:06Z</time>
      </trkpt>
      <trkpt lat="44.24684" lon="6.75832">
        <ele>1933</ele>
        <time>2022-06-12T07:41:07Z</time>
      </trkpt>
      <trkpt lat="44.24685" lon="6.75835">
        <ele>1933.9</ele>
        <time>2022-06-12T07:41:08Z</time>
      </trkpt>
      <trkpt lat="44.24686" lon="6.75838">
        <ele>1934.7</ele>
        <time>2022-06-12T07:41:09Z</time>
      </trkpt>
      <trkpt lat="44.24686" lon="6.75841">
        <ele>1935.3</ele>
        <time>2022-06-12T07:41:10Z</time>
      </trkpt>
      <trkpt lat="44.24686" lon="6.75844">
        <ele>1935.6</ele>
        <time>2022-06-12T07:41:11Z</time>
      </trkpt>
      <trkpt lat="44.24686" lon="6.75847">
        <ele>1936.1</ele>
        <time>2022-06-12T07:41:12Z</time>
      </trkpt>
      <trkpt lat="44.24687" lon="6.7585">
        <ele>1936.6</ele>
        <time>2022-06-12T07:41:13Z</time>
      </trkpt>
      <trkpt lat="44.24687" lon="6.75853">
        <ele>1937.4</ele>
        <time>2022-06-12T07:41:14Z</time>
      </trkpt>
      <trkpt lat="44.24688" lon="6.75855">
        <ele>1937.9</ele>
        <time>2022-06-12T07:41:15Z</time>
      </trkpt>
      <trkpt lat="44.24688" lon="6.75859">
        <ele>1938.4</ele>
        <time>2022-06-12T07:41:16Z</time>
      </trkpt>
      <trkpt lat="44.24688" lon="6.75862">
        <ele>1938.8</ele>
        <time>2022-06-12T07:41:17Z</time>
      </trkpt>
      <trkpt lat="44.24688" lon="6.75865">
        <ele>1938.5</ele>
        <time>2022-06-12T07:41:18Z</time>
      </trkpt>
      <trkpt lat="44.24688" lon="6.75868">
        <ele>1938.7</ele>
        <time>2022-06-12T07:41:19Z</time>
      </trkpt>
      <trkpt lat="44.24689" lon="6.75872">
        <ele>1939</ele>
        <time>2022-06-12T07:41:20Z</time>
      </trkpt>
      <trkpt lat="44.24689" lon="6.75875">
        <ele>1939.4</ele>
        <time>2022-06-12T07:41:21Z</time>
      </trkpt>
      <trkpt lat="44.24689" lon="6.75878">
        <ele>1939.1</ele>
        <time>2022-06-12T07:41:22Z</time>
      </trkpt>
      <trkpt lat="44.24689" lon="6.75881">
        <ele>1939.4</ele>
        <time>2022-06-12T07:41:23Z</time>
      </trkpt>
      <trkpt lat="44.24689" lon="6.75884">
        <ele>1939.5</ele>
        <time>2022-06-12T07:41:24Z</time>
      </trkpt>
      <trkpt lat="44.24689" lon="6.75887">
        <ele>1939.4</ele>
        <time>2022-06-12T07:41:25Z</time>
      </trkpt>
      <trkpt lat="44.24689" lon="6.75891">
        <ele>1939.2</ele>
        <time>2022-06-12T07:41:26Z</time>
      </trkpt>
      <trkpt lat="44.2469" lon="6.75894">
        <ele>1939.8</ele>
        <time>2022-06-12T07:41:27Z</time>
      </trkpt>
      <trkpt lat="44.24689" lon="6.75897">
        <ele>1939.7</ele>
        <time>2022-06-12T07:41:28Z</time>
      </trkpt>
      <trkpt lat="44.2469" lon="6.759">
        <ele>1940.3</ele>
        <time>2022-06-12T07:41:29Z</time>
      </trkpt>
      <trkpt lat="44.2469" lon="6.75902">
        <ele>1940.8</ele>
        <time>2022-06-12T07:41:30Z</time>
      </trkpt>
      <trkpt lat="44.24691" lon="6.75904">
        <ele>1941.2</ele>
        <time>2022-06-12T07:41:31Z</time>
      </trkpt>
      <trkpt lat="44.24691" lon="6.75908">
        <ele>1941.7</ele>
        <time>2022-06-12T07:41:32Z</time>
      </trkpt>
      <trkpt lat="44.24692" lon="6.75911">
        <ele>1942.2</ele>
        <time>2022-06-12T07:41:33Z</time>
      </trkpt>
      <trkpt lat="44.24692" lon="6.75914">
        <ele>1942.8</ele>
        <time>2022-06-12T07:41:34Z</time>
      </trkpt>
      <trkpt lat="44.24692" lon="6.75917">
        <ele>1943</ele>
        <time>2022-06-12T07:41:35Z</time>
      </trkpt>
      <trkpt lat="44.24693" lon="6.7592">
        <ele>1943.3</ele>
        <time>2022-06-12T07:41:36Z</time>
      </trkpt>
      <trkpt lat="44.24693" lon="6.75924">
        <ele>1943.3</ele>
        <time>2022-06-12T07:41:37Z</time>
      </trkpt>
      <trkpt lat="44.24694" lon="6.75927">
        <ele>1943.6</ele>
        <time>2022-06-12T07:41:38Z</time>
      </trkpt>
      <trkpt lat="44.24694" lon="6.7593">
        <ele>1943.5</ele>
        <time>2022-06-12T07:41:39Z</time>
      </trkpt>
      <trkpt lat="44.24695" lon="6.75933">
        <ele>1943.4</ele>
        <time>2022-06-12T07:41:40Z</time>
      </trkpt>
      <trkpt lat="44.24695" lon="6.75936">
        <ele>1943.3</ele>
        <time>2022-06-12T07:41:41Z</time>
      </trkpt>
      <trkpt lat="44.24695" lon="6.75939">
        <ele>1943.4</ele>
        <time>2022-06-12T07:41:42Z</time>
      </trkpt>
      <trkpt lat="44.24696" lon="6.75942">
        <ele>1943.5</ele>
        <time>2022-06-12T07:41:43Z</time>
      </trkpt>
      <trkpt lat="44.24696" lon="6.75946">
        <ele>1942.8</ele>
        <time>2022-06-12T07:41:44Z</time>
      </trkpt>
      <trkpt lat="44.24696" lon="6.75949">
        <ele>1942.4</ele>
        <time>2022-06-12T07:41:45Z</time>
      </trkpt>
      <trkpt lat="44.24697" lon="6.75952">
        <ele>1942.5</ele>
        <time>2022-06-12T07:41:46Z</time>
      </trkpt>
      <trkpt lat="44.24697" lon="6.75956">
        <ele>1941.9</ele>
        <time>2022-06-12T07:41:47Z</time>
      </trkpt>
      <trkpt lat="44.24697" lon="6.75959">
        <ele>1941.7</ele>
        <time>2022-06-12T07:41:48Z</time>
      </trkpt>
      <trkpt lat="44.24698" lon="6.75962">
        <ele>1941.4</ele>
        <time>2022-06-12T07:41:49Z</time>
      </trkpt>
      <trkpt lat="44.24698" lon="6.75965">
        <ele>1941.1</ele>
        <time>2022-06-12T07:41:50Z</time>
      </trkpt>
      <trkpt lat="44.24699" lon="6.75968">
        <ele>1941.3</ele>
        <time>2022-06-12T07:41:51Z</time>
      </trkpt>
      <trkpt lat="44.247" lon="6.75971">
        <ele>1941.3</ele>
        <time>2022-06-12T07:41:52Z</time>
      </trkpt>
      <trkpt lat="44.24701" lon="6.75974">
        <ele>1941.2</ele>
        <time>2022-06-12T07:41:53Z</time>
      </trkpt>
      <trkpt lat="44.24703" lon="6.75977">
        <ele>1941.3</ele>
        <time>2022-06-12T07:41:54Z</time>
      </trkpt>
      <trkpt lat="44.24704" lon="6.75979">
        <ele>1941.6</ele>
        <time>2022-06-12T07:41:55Z</time>
      </trkpt>
      <trkpt lat="44.24706" lon="6.75981">
        <ele>1942.1</ele>
        <time>2022-06-12T07:41:56Z</time>
      </trkpt>
      <trkpt lat="44.24708" lon="6.75983">
        <ele>1942.3</ele>
        <time>2022-06-12T07:41:57Z</time>
      </trkpt>
      <trkpt lat="44.24709" lon="6.75985">
        <ele>1942.6</ele>
        <time>2022-06-12T07:41:58Z</time>
      </trkpt>
      <trkpt lat="44.24711" lon="6.75987">
        <ele>1943</ele>
        <time>2022-06-12T07:41:59Z</time>
      </trkpt>
      <trkpt lat="44.24713" lon="6.75989">
        <ele>1943.3</ele>
        <time>2022-06-12T07:42:00Z</time>
      </trkpt>
      <trkpt lat="44.24715" lon="6.7599">
        <ele>1943.8</ele>
        <time>2022-06-12T07:42:01Z</time>
      </trkpt>
      <trkpt lat="44.24717" lon="6.75992">
        <ele>1944</ele>
        <time>2022-06-12T07:42:02Z</time>
      </trkpt>
      <trkpt lat="44.24719" lon="6.75994">
        <ele>1944.1</ele>
        <time>2022-06-12T07:42:03Z</time>
      </trkpt>
      <trkpt lat="44.24721" lon="6.75996">
        <ele>1944.2</ele>
        <time>2022-06-12T07:42:04Z</time>
      </trkpt>
      <trkpt lat="44.24723" lon="6.75998">
        <ele>1944.6</ele>
        <time>2022-06-12T07:42:05Z</time>
      </trkpt>
      <trkpt lat="44.24725" lon="6.75999">
        <ele>1945</ele>
        <time>2022-06-12T07:42:06Z</time>
      </trkpt>
      <trkpt lat="44.24727" lon="6.76001">
        <ele>1945.3</ele>
        <time>2022-06-12T07:42:07Z</time>
      </trkpt>
      <trkpt lat="44.24729" lon="6.76002">
        <ele>1945.4</ele>
        <time>2022-06-12T07:42:08Z</time>
      </trkpt>
      <trkpt lat="44.24731" lon="6.76004">
        <ele>1945.5</ele>
        <time>2022-06-12T07:42:09Z</time>
      </trkpt>
      <trkpt lat="44.24733" lon="6.76006">
        <ele>1945.4</ele>
        <time>2022-06-12T07:42:10Z</time>
      </trkpt>
      <trkpt lat="44.24735" lon="6.76008">
        <ele>1945.4</ele>
        <time>2022-06-12T07:42:11Z</time>
      </trkpt>
      <trkpt lat="44.24737" lon="6.7601">
        <ele>1945.5</ele>
        <time>2022-06-12T07:42:12Z</time>
      </trkpt>
      <trkpt lat="44.24739" lon="6.76011">
        <ele>1945.6</ele>
        <time>2022-06-12T07:42:13Z</time>
      </trkpt>
      <trkpt lat="44.24741" lon="6.76013">
        <ele>1945.6</ele>
        <time>2022-06-12T07:42:14Z</time>
      </trkpt>
      <trkpt lat="44.24743" lon="6.76014">
        <ele>1945.7</ele>
        <time>2022-06-12T07:42:15Z</time>
      </trkpt>
      <trkpt lat="44.24745" lon="6.76015">
        <ele>1946</ele>
        <time>2022-06-12T07:42:16Z</time>
      </trkpt>
      <trkpt lat="44.24747" lon="6.76016">
        <ele>1946.3</ele>
        <time>2022-06-12T07:42:17Z</time>
      </trkpt>
      <trkpt lat="44.24749" lon="6.76017">
        <ele>1946.6</ele>
        <time>2022-06-12T07:42:18Z</time>
      </trkpt>
      <trkpt lat="44.24751" lon="6.76018">
        <ele>1946.8</ele>
        <time>2022-06-12T07:42:19Z</time>
      </trkpt>
      <trkpt lat="44.24753" lon="6.7602">
        <ele>1946.6</ele>
        <time>2022-06-12T07:42:20Z</time>
      </trkpt>
      <trkpt lat="44.24755" lon="6.76021">
        <ele>1946.6</ele>
        <time>2022-06-12T07:42:21Z</time>
      </trkpt>
      <trkpt lat="44.24756" lon="6.76022">
        <ele>1946.7</ele>
        <time>2022-06-12T07:42:22Z</time>
      </trkpt>
      <trkpt lat="44.24758" lon="6.76022">
        <ele>1947.1</ele>
        <time>2022-06-12T07:42:23Z</time>
      </trkpt>
      <trkpt lat="44.2476" lon="6.76023">
        <ele>1947.4</ele>
        <time>2022-06-12T07:42:24Z</time>
      </trkpt>
      <trkpt lat="44.24763" lon="6.76024">
        <ele>1947.6</ele>
        <time>2022-06-12T07:42:25Z</time>
      </trkpt>
      <trkpt lat="44.24765" lon="6.76025">
        <ele>1948</ele>
        <time>2022-06-12T07:42:26Z</time>
      </trkpt>
      <trkpt lat="44.24767" lon="6.76026">
        <ele>1947.9</ele>
        <time>2022-06-12T07:42:27Z</time>
      </trkpt>
      <trkpt lat="44.24769" lon="6.76028">
        <ele>1947.8</ele>
        <time>2022-06-12T07:42:28Z</time>
      </trkpt>
      <trkpt lat="44.24771" lon="6.76029">
        <ele>1948.1</ele>
        <time>2022-06-12T07:42:29Z</time>
      </trkpt>
      <trkpt lat="44.24773" lon="6.7603">
        <ele>1948.5</ele>
        <time>2022-06-12T07:42:30Z</time>
      </trkpt>
      <trkpt lat="44.24775" lon="6.76032">
        <ele>1948.8</ele>
        <time>2022-06-12T07:42:31Z</time>
      </trkpt>
      <trkpt lat="44.24778" lon="6.76034">
        <ele>1949.3</ele>
        <time>2022-06-12T07:42:32Z</time>
      </trkpt>
      <trkpt lat="44.2478" lon="6.76036">
        <ele>1950.1</ele>
        <time>2022-06-12T07:42:33Z</time>
      </trkpt>
      <trkpt lat="44.24782" lon="6.76038">
        <ele>1951</ele>
        <time>2022-06-12T07:42:34Z</time>
      </trkpt>
      <trkpt lat="44.24784" lon="6.7604">
        <ele>1951.6</ele>
        <time>2022-06-12T07:42:35Z</time>
      </trkpt>
      <trkpt lat="44.24786" lon="6.76043">
        <ele>1952.2</ele>
        <time>2022-06-12T07:42:36Z</time>
      </trkpt>
      <trkpt lat="44.24787" lon="6.76045">
        <ele>1952.7</ele>
        <time>2022-06-12T07:42:37Z</time>
      </trkpt>
      <trkpt lat="44.24788" lon="6.76047">
        <ele>1953</ele>
        <time>2022-06-12T07:42:38Z</time>
      </trkpt>
      <trkpt lat="44.2479" lon="6.7605">
        <ele>1953.2</ele>
        <time>2022-06-12T07:42:39Z</time>
      </trkpt>
      <trkpt lat="44.24791" lon="6.76052">
        <ele>1953.5</ele>
        <time>2022-06-12T07:42:40Z</time>
      </trkpt>
      <trkpt lat="44.24792" lon="6.76055">
        <ele>1953.2</ele>
        <time>2022-06-12T07:42:41Z</time>
      </trkpt>
      <trkpt lat="44.24793" lon="6.76058">
        <ele>1953.3</ele>
        <time>2022-06-12T07:42:42Z</time>
      </trkpt>
      <trkpt lat="44.24794" lon="6.7606">
        <ele>1953.4</ele>
        <time>2022-06-12T07:42:43Z</time>
      </trkpt>
      <trkpt lat="44.24794" lon="6.76062">
        <ele>1953.3</ele>
        <time>2022-06-12T07:42:44Z</time>
      </trkpt>
      <trkpt lat="44.24795" lon="6.76065">
        <ele>1953.4</ele>
        <time>2022-06-12T07:42:45Z</time>
      </trkpt>
      <trkpt lat="44.24796" lon="6.76067">
        <ele>1953.6</ele>
        <time>2022-06-12T07:42:46Z</time>
      </trkpt>
      <trkpt lat="44.24797" lon="6.76069">
        <ele>1953.7</ele>
        <time>2022-06-12T07:42:47Z</time>
      </trkpt>
      <trkpt lat="44.24798" lon="6.76071">
        <ele>1953.9</ele>
        <time>2022-06-12T07:42:48Z</time>
      </trkpt>
      <trkpt lat="44.248" lon="6.76074">
        <ele>1954.1</ele>
        <time>2022-06-12T07:42:49Z</time>
      </trkpt>
      <trkpt lat="44.24801" lon="6.76077">
        <ele>1954.2</ele>
        <time>2022-06-12T07:42:50Z</time>
      </trkpt>
      <trkpt lat="44.24802" lon="6.7608">
        <ele>1954</ele>
        <time>2022-06-12T07:42:51Z</time>
      </trkpt>
      <trkpt lat="44.24803" lon="6.76083">
        <ele>1953.8</ele>
        <time>2022-06-12T07:42:52Z</time>
      </trkpt>
      <trkpt lat="44.24804" lon="6.76086">
        <ele>1953.9</ele>
        <time>2022-06-12T07:42:53Z</time>
      </trkpt>
      <trkpt lat="44.24805" lon="6.76088">
        <ele>1953.8</ele>
        <time>2022-06-12T07:42:54Z</time>
      </trkpt>
      <trkpt lat="44.24807" lon="6.76091">
        <ele>1953.5</ele>
        <time>2022-06-12T07:42:55Z</time>
      </trkpt>
      <trkpt lat="44.24808" lon="6.76094">
        <ele>1953.3</ele>
        <time>2022-06-12T07:42:56Z</time>
      </trkpt>
      <trkpt lat="44.2481" lon="6.76097">
        <ele>1953</ele>
        <time>2022-06-12T07:42:57Z</time>
      </trkpt>
      <trkpt lat="44.24811" lon="6.761">
        <ele>1952.6</ele>
        <time>2022-06-12T07:42:58Z</time>
      </trkpt>
      <trkpt lat="44.24813" lon="6.76104">
        <ele>1951.9</ele>
        <time>2022-06-12T07:42:59Z</time>
      </trkpt>
      <trkpt lat="44.24814" lon="6.76108">
        <ele>1951.4</ele>
        <time>2022-06-12T07:43:00Z</time>
      </trkpt>
      <trkpt lat="44.24816" lon="6.76111">
        <ele>1950.9</ele>
        <time>2022-06-12T07:43:01Z</time>
      </trkpt>
      <trkpt lat="44.24817" lon="6.76114">
        <ele>1950.9</ele>
        <time>2022-06-12T07:43:02Z</time>
      </trkpt>
      <trkpt lat="44.24818" lon="6.76117">
        <ele>1951</ele>
        <time>2022-06-12T07:43:03Z</time>
      </trkpt>
      <trkpt lat="44.2482" lon="6.7612">
        <ele>1951.2</ele>
        <time>2022-06-12T07:43:04Z</time>
      </trkpt>
      <trkpt lat="44.24821" lon="6.76122">
        <ele>1951.3</ele>
        <time>2022-06-12T07:43:05Z</time>
      </trkpt>
      <trkpt lat="44.24822" lon="6.76125">
        <ele>1951.4</ele>
        <time>2022-06-12T07:43:06Z</time>
      </trkpt>
      <trkpt lat="44.24823" lon="6.76128">
        <ele>1951.5</ele>
        <time>2022-06-12T07:43:07Z</time>
      </trkpt>
      <trkpt lat="44.24825" lon="6.76131">
        <ele>1951.7</ele>
        <time>2022-06-12T07:43:08Z</time>
      </trkpt>
      <trkpt lat="44.24826" lon="6.76135">
        <ele>1951.8</ele>
        <time>2022-06-12T07:43:09Z</time>
      </trkpt>
      <trkpt lat="44.24827" lon="6.76138">
        <ele>1951.9</ele>
        <time>2022-06-12T07:43:10Z</time>
      </trkpt>
      <trkpt lat="44.24828" lon="6.76141">
        <ele>1952.1</ele>
        <time>2022-06-12T07:43:11Z</time>
      </trkpt>
      <trkpt lat="44.24829" lon="6.76144">
        <ele>1952.3</ele>
        <time>2022-06-12T07:43:12Z</time>
      </trkpt>
      <trkpt lat="44.24829" lon="6.76147">
        <ele>1952.5</ele>
        <time>2022-06-12T07:43:13Z</time>
      </trkpt>
      <trkpt lat="44.2483" lon="6.7615">
        <ele>1952.8</ele>
        <time>2022-06-12T07:43:14Z</time>
      </trkpt>
      <trkpt lat="44.24831" lon="6.76153">
        <ele>1953.1</ele>
        <time>2022-06-12T07:43:15Z</time>
      </trkpt>
      <trkpt lat="44.24833" lon="6.76156">
        <ele>1953.4</ele>
        <time>2022-06-12T07:43:16Z</time>
      </trkpt>
      <trkpt lat="44.24834" lon="6.76159">
        <ele>1953.8</ele>
        <time>2022-06-12T07:43:17Z</time>
      </trkpt>
      <trkpt lat="44.24835" lon="6.76161">
        <ele>1954.1</ele>
        <time>2022-06-12T07:43:18Z</time>
      </trkpt>
      <trkpt lat="44.24836" lon="6.76165">
        <ele>1954.3</ele>
        <time>2022-06-12T07:43:19Z</time>
      </trkpt>
      <trkpt lat="44.24837" lon="6.76168">
        <ele>1954.6</ele>
        <time>2022-06-12T07:43:20Z</time>
      </trkpt>
      <trkpt lat="44.24838" lon="6.76171">
        <ele>1954.8</ele>
        <time>2022-06-12T07:43:21Z</time>
      </trkpt>
      <trkpt lat="44.24839" lon="6.76174">
        <ele>1955.2</ele>
        <time>2022-06-12T07:43:22Z</time>
      </trkpt>
      <trkpt lat="44.2484" lon="6.76176">
        <ele>1955.4</ele>
        <time>2022-06-12T07:43:23Z</time>
      </trkpt>
      <trkpt lat="44.24841" lon="6.76179">
        <ele>1955.7</ele>
        <time>2022-06-12T07:43:24Z</time>
      </trkpt>
      <trkpt lat="44.24842" lon="6.76182">
        <ele>1956</ele>
        <time>2022-06-12T07:43:25Z</time>
      </trkpt>
      <trkpt lat="44.24843" lon="6.76186">
        <ele>1956.2</ele>
        <time>2022-06-12T07:43:26Z</time>
      </trkpt>
      <trkpt lat="44.24844" lon="6.76189">
        <ele>1956.5</ele>
        <time>2022-06-12T07:43:27Z</time>
      </trkpt>
      <trkpt lat="44.24845" lon="6.76192">
        <ele>1956.9</ele>
        <time>2022-06-12T07:43:28Z</time>
      </trkpt>
      <trkpt lat="44.24846" lon="6.76195">
        <ele>1957.2</ele>
        <time>2022-06-12T07:43:29Z</time>
      </trkpt>
      <trkpt lat="44.24846" lon="6.76197">
        <ele>1957.4</ele>
        <time>2022-06-12T07:43:30Z</time>
      </trkpt>
      <trkpt lat="44.24847" lon="6.76201">
        <ele>1957.7</ele>
        <time>2022-06-12T07:43:31Z</time>
      </trkpt>
      <trkpt lat="44.24848" lon="6.76204">
        <ele>1957.9</ele>
        <time>2022-06-12T07:43:32Z</time>
      </trkpt>
      <trkpt lat="44.24849" lon="6.76206">
        <ele>1958.3</ele>
        <time>2022-06-12T07:43:33Z</time>
      </trkpt>
      <trkpt lat="44.2485" lon="6.76209">
        <ele>1958.6</ele>
        <time>2022-06-12T07:43:34Z</time>
      </trkpt>
      <trkpt lat="44.24851" lon="6.76212">
        <ele>1959</ele>
        <time>2022-06-12T07:43:35Z</time>
      </trkpt>
      <trkpt lat="44.24852" lon="6.76216">
        <ele>1959.3</ele>
        <time>2022-06-12T07:43:36Z</time>
      </trkpt>
      <trkpt lat="44.24852" lon="6.76219">
        <ele>1959.6</ele>
        <time>2022-06-12T07:43:37Z</time>
      </trkpt>
      <trkpt lat="44.24853" lon="6.76222">
        <ele>1959.8</ele>
        <time>2022-06-12T07:43:38Z</time>
      </trkpt>
      <trkpt lat="44.24853" lon="6.76225">
        <ele>1960</ele>
        <time>2022-06-12T07:43:39Z</time>
      </trkpt>
      <trkpt lat="44.24854" lon="6.76228">
        <ele>1960.2</ele>
        <time>2022-06-12T07:43:40Z</time>
      </trkpt>
      <trkpt lat="44.24855" lon="6.76231">
        <ele>1960.4</ele>
        <time>2022-06-12T07:43:41Z</time>
      </trkpt>
      <trkpt lat="44.24856" lon="6.76234">
        <ele>1960.6</ele>
        <time>2022-06-12T07:43:42Z</time>
      </trkpt>
      <trkpt lat="44.24856" lon="6.76237">
        <ele>1960.7</ele>
        <time>2022-06-12T07:43:43Z</time>
      </trkpt>
      <trkpt lat="44.24857" lon="6.7624">
        <ele>1960.9</ele>
        <time>2022-06-12T07:43:44Z</time>
      </trkpt>
      <trkpt lat="44.24858" lon="6.76243">
        <ele>1961.1</ele>
        <time>2022-06-12T07:43:45Z</time>
      </trkpt>
      <trkpt lat="44.24858" lon="6.76246">
        <ele>1961.2</ele>
        <time>2022-06-12T07:43:46Z</time>
      </trkpt>
      <trkpt lat="44.24859" lon="6.76249">
        <ele>1961.4</ele>
        <time>2022-06-12T07:43:47Z</time>
      </trkpt>
      <trkpt lat="44.24859" lon="6.76252">
        <ele>1961.5</ele>
        <time>2022-06-12T07:43:48Z</time>
      </trkpt>
      <trkpt lat="44.2486" lon="6.76254">
        <ele>1961.8</ele>
        <time>2022-06-12T07:43:49Z</time>
      </trkpt>
      <trkpt lat="44.24861" lon="6.76257">
        <ele>1962.1</ele>
        <time>2022-06-12T07:43:50Z</time>
      </trkpt>
      <trkpt lat="44.24862" lon="6.7626">
        <ele>1962.3</ele>
        <time>2022-06-12T07:43:51Z</time>
      </trkpt>
      <trkpt lat="44.24863" lon="6.76263">
        <ele>1962.5</ele>
        <time>2022-06-12T07:43:52Z</time>
      </trkpt>
      <trkpt lat="44.24863" lon="6.76266">
        <ele>1962.6</ele>
        <time>2022-06-12T07:43:53Z</time>
      </trkpt>
      <trkpt lat="44.24863" lon="6.76269">
        <ele>1962.6</ele>
        <time>2022-06-12T07:43:54Z</time>
      </trkpt>
      <trkpt lat="44.24864" lon="6.76272">
        <ele>1962.7</ele>
        <time>2022-06-12T07:43:55Z</time>
      </trkpt>
      <trkpt lat="44.24864" lon="6.76275">
        <ele>1962.9</ele>
        <time>2022-06-12T07:43:56Z</time>
      </trkpt>
      <trkpt lat="44.24865" lon="6.76278">
        <ele>1963</ele>
        <time>2022-06-12T07:43:57Z</time>
      </trkpt>
      <trkpt lat="44.24866" lon="6.76281">
        <ele>1963.3</ele>
        <time>2022-06-12T07:43:58Z</time>
      </trkpt>
      <trkpt lat="44.24866" lon="6.76283">
        <ele>1963.6</ele>
        <time>2022-06-12T07:43:59Z</time>
      </trkpt>
      <trkpt lat="44.24867" lon="6.76286">
        <ele>1963.9</ele>
        <time>2022-06-12T07:44:00Z</time>
      </trkpt>
      <trkpt lat="44.24868" lon="6.76289">
        <ele>1964.2</ele>
        <time>2022-06-12T07:44:01Z</time>
      </trkpt>
      <trkpt lat="44.24868" lon="6.76292">
        <ele>1964.5</ele>
        <time>2022-06-12T07:44:02Z</time>
      </trkpt>
      <trkpt lat="44.24869" lon="6.76295">
        <ele>1964.8</ele>
        <time>2022-06-12T07:44:03Z</time>
      </trkpt>
      <trkpt lat="44.2487" lon="6.76298">
        <ele>1965.1</ele>
        <time>2022-06-12T07:44:04Z</time>
      </trkpt>
      <trkpt lat="44.24871" lon="6.76301">
        <ele>1965.4</ele>
        <time>2022-06-12T07:44:05Z</time>
      </trkpt>
      <trkpt lat="44.24872" lon="6.76304">
        <ele>1965.7</ele>
        <time>2022-06-12T07:44:06Z</time>
      </trkpt>
      <trkpt lat="44.24873" lon="6.76307">
        <ele>1965.8</ele>
        <time>2022-06-12T07:44:07Z</time>
      </trkpt>
      <trkpt lat="44.24874" lon="6.7631">
        <ele>1965.9</ele>
        <time>2022-06-12T07:44:08Z</time>
      </trkpt>
      <trkpt lat="44.24874" lon="6.76313">
        <ele>1965.9</ele>
        <time>2022-06-12T07:44:09Z</time>
      </trkpt>
      <trkpt lat="44.24875" lon="6.76316">
        <ele>1966</ele>
        <time>2022-06-12T07:44:10Z</time>
      </trkpt>
      <trkpt lat="44.24876" lon="6.76319">
        <ele>1966.1</ele>
        <time>2022-06-12T07:44:11Z</time>
      </trkpt>
      <trkpt lat="44.24877" lon="6.76322">
        <ele>1966.2</ele>
        <time>2022-06-12T07:44:12Z</time>
      </trkpt>
      <trkpt lat="44.24878" lon="6.76325">
        <ele>1966.2</ele>
        <time>2022-06-12T07:44:13Z</time>
      </trkpt>
      <trkpt lat="44.24879" lon="6.76328">
        <ele>1966.2</ele>
        <time>2022-06-12T07:44:14Z</time>
      </trkpt>
      <trkpt lat="44.2488" lon="6.7633">
        <ele>1966.3</ele>
        <time>2022-06-12T07:44:15Z</time>
      </trkpt>
      <trkpt lat="44.24881" lon="6.76333">
        <ele>1966.4</ele>
        <time>2022-06-12T07:44:16Z</time>
      </trkpt>
      <trkpt lat="44.24883" lon="6.76336">
        <ele>1966.5</ele>
        <time>2022-06-12T07:44:17Z</time>
      </trkpt>
      <trkpt lat="44.24884" lon="6.76338">
        <ele>1966.8</ele>
        <time>2022-06-12T07:44:18Z</time>
      </trkpt>
      <trkpt lat="44.24886" lon="6.76341">
        <ele>1967</ele>
        <time>2022-06-12T07:44:19Z</time>
      </trkpt>
      <trkpt lat="44.24887" lon="6.76343">
        <ele>1967.2</ele>
        <time>2022-06-12T07:44:20Z</time>
      </trkpt>
      <trkpt lat="44.24889" lon="6.76346">
        <ele>1967.5</ele>
        <time>2022-06-12T07:44:21Z</time>
      </trkpt>
      <trkpt lat="44.2489" lon="6.76348">
        <ele>1967.8</ele>
        <time>2022-06-12T07:44:22Z</time>
      </trkpt>
      <trkpt lat="44.24892" lon="6.76351">
        <ele>1968</ele>
        <time>2022-06-12T07:44:23Z</time>
      </trkpt>
      <trkpt lat="44.24893" lon="6.76353">
        <ele>1968.4</ele>
        <time>2022-06-12T07:44:24Z</time>
      </trkpt>
      <trkpt lat="44.24895" lon="6.76355">
        <ele>1968.6</ele>
        <time>2022-06-12T07:44:25Z</time>
      </trkpt>
      <trkpt lat="44.24896" lon="6.76357">
        <ele>1968.8</ele>
        <time>2022-06-12T07:44:26Z</time>
      </trkpt>
      <trkpt lat="44.24898" lon="6.76359">
        <ele>1969.1</ele>
        <time>2022-06-12T07:44:27Z</time>
      </trkpt>
      <trkpt lat="44.249" lon="6.76361">
        <ele>1969.4</ele>
        <time>2022-06-12T07:44:28Z</time>
      </trkpt>
      <trkpt lat="44.24902" lon="6.76363">
        <ele>1969.8</ele>
        <time>2022-06-12T07:44:29Z</time>
      </trkpt>
      <trkpt lat="44.24904" lon="6.76365">
        <ele>1969.9</ele>
        <time>2022-06-12T07:44:30Z</time>
      </trkpt>
      <trkpt lat="44.24905" lon="6.76367">
        <ele>1970</ele>
        <time>2022-06-12T07:44:31Z</time>
      </trkpt>
      <trkpt lat="44.24906" lon="6.7637">
        <ele>1970</ele>
        <time>2022-06-12T07:44:32Z</time>
      </trkpt>
      <trkpt lat="44.24907" lon="6.76372">
        <ele>1970.2</ele>
        <time>2022-06-12T07:44:33Z</time>
      </trkpt>
      <trkpt lat="44.24909" lon="6.76375">
        <ele>1970.4</ele>
        <time>2022-06-12T07:44:34Z</time>
      </trkpt>
      <trkpt lat="44.24911" lon="6.76377">
        <ele>1970.6</ele>
        <time>2022-06-12T07:44:35Z</time>
      </trkpt>
      <trkpt lat="44.24912" lon="6.76379">
        <ele>1970.7</ele>
        <time>2022-06-12T07:44:36Z</time>
      </trkpt>
      <trkpt lat="44.24914" lon="6.76381">
        <ele>1970.9</ele>
        <time>2022-06-12T07:44:37Z</time>
      </trkpt>
      <trkpt lat="44.24916" lon="6.76383">
        <ele>1971.2</ele>
        <time>2022-06-12T07:44:38Z</time>
      </trkpt>
      <trkpt lat="44.24917" lon="6.76385">
        <ele>1971.3</ele>
        <time>2022-06-12T07:44:39Z</time>
      </trkpt>
      <trkpt lat="44.24919" lon="6.76387">
        <ele>1971.6</ele>
        <time>2022-06-12T07:44:40Z</time>
      </trkpt>
      <trkpt lat="44.2492" lon="6.7639">
        <ele>1971.9</ele>
        <time>2022-06-12T07:44:41Z</time>
      </trkpt>
      <trkpt lat="44.24922" lon="6.76391">
        <ele>1972.2</ele>
        <time>2022-06-12T07:44:42Z</time>
      </trkpt>
      <trkpt lat="44.24924" lon="6.76393">
        <ele>1972.5</ele>
        <time>2022-06-12T07:44:43Z</time>
      </trkpt>
      <trkpt lat="44.24926" lon="6.76395">
        <ele>1972.8</ele>
        <time>2022-06-12T07:44:44Z</time>
      </trkpt>
      <trkpt lat="44.24927" lon="6.76398">
        <ele>1973</ele>
        <time>2022-06-12T07:44:45Z</time>
      </trkpt>
      <trkpt lat="44.24929" lon="6.764">
        <ele>1973.3</ele>
        <time>2022-06-12T07:44:46Z</time>
      </trkpt>
      <trkpt lat="44.24931" lon="6.76402">
        <ele>1973.5</ele>
        <time>2022-06-12T07:44:47Z</time>
      </trkpt>
      <trkpt lat="44.24932" lon="6.76405">
        <ele>1973.7</ele>
        <time>2022-06-12T07:44:48Z</time>
      </trkpt>
      <trkpt lat="44.24934" lon="6.76407">
        <ele>1973.9</ele>
        <time>2022-06-12T07:44:49Z</time>
      </trkpt>
      <trkpt lat="44.24935" lon="6.7641">
        <ele>1974.1</ele>
        <time>2022-06-12T07:44:50Z</time>
      </trkpt>
      <trkpt lat="44.24936" lon="6.76413">
        <ele>1974.2</ele>
        <time>2022-06-12T07:44:51Z</time>
      </trkpt>
      <trkpt lat="44.24938" lon="6.76415">
        <ele>1974.4</ele>
        <time>2022-06-12T07:44:52Z</time>
      </trkpt>
      <trkpt lat="44.24939" lon="6.76418">
        <ele>1974.6</ele>
        <time>2022-06-12T07:44:53Z</time>
      </trkpt>
      <trkpt lat="44.2494" lon="6.7642">
        <ele>1974.9</ele>
        <time>2022-06-12T07:44:54Z</time>
      </trkpt>
      <trkpt lat="44.24942" lon="6.76423">
        <ele>1975.3</ele>
        <time>2022-06-12T07:44:55Z</time>
      </trkpt>
      <trkpt lat="44.24943" lon="6.76426">
        <ele>1975.6</ele>
        <time>2022-06-12T07:44:56Z</time>
      </trkpt>
      <trkpt lat="44.24944" lon="6.76429">
        <ele>1975.8</ele>
        <time>2022-06-12T07:44:57Z</time>
      </trkpt>
      <trkpt lat="44.24945" lon="6.76432">
        <ele>1976</ele>
        <time>2022-06-12T07:44:58Z</time>
      </trkpt>
      <trkpt lat="44.24945" lon="6.76435">
        <ele>1976.2</ele>
        <time>2022-06-12T07:44:59Z</time>
      </trkpt>
      <trkpt lat="44.24946" lon="6.76438">
        <ele>1976.3</ele>
        <time>2022-06-12T07:45:00Z</time>
      </trkpt>
      <trkpt lat="44.24946" lon="6.76442">
        <ele>1976.5</ele>
        <time>2022-06-12T07:45:01Z</time>
      </trkpt>
      <trkpt lat="44.24946" lon="6.76445">
        <ele>1976.4</ele>
        <time>2022-06-12T07:45:02Z</time>
      </trkpt>
      <trkpt lat="44.24946" lon="6.76448">
        <ele>1976.4</ele>
        <time>2022-06-12T07:45:03Z</time>
      </trkpt>
      <trkpt lat="44.24945" lon="6.76452">
        <ele>1976.2</ele>
        <time>2022-06-12T07:45:04Z</time>
      </trkpt>
      <trkpt lat="44.24944" lon="6.76455">
        <ele>1975.9</ele>
        <time>2022-06-12T07:45:05Z</time>
      </trkpt>
      <trkpt lat="44.24943" lon="6.76458">
        <ele>1975.6</ele>
        <time>2022-06-12T07:45:06Z</time>
      </trkpt>
      <trkpt lat="44.24943" lon="6.76461">
        <ele>1975.5</ele>
        <time>2022-06-12T07:45:07Z</time>
      </trkpt>
      <trkpt lat="44.24942" lon="6.76464">
        <ele>1975.4</ele>
        <time>2022-06-12T07:45:08Z</time>
      </trkpt>
      <trkpt lat="44.24942" lon="6.76467">
        <ele>1975.3</ele>
        <time>2022-06-12T07:45:09Z</time>
      </trkpt>
      <trkpt lat="44.24942" lon="6.7647">
        <ele>1975.3</ele>
        <time>2022-06-12T07:45:10Z</time>
      </trkpt>
      <trkpt lat="44.24942" lon="6.76474">
        <ele>1975.3</ele>
        <time>2022-06-12T07:45:11Z</time>
      </trkpt>
      <trkpt lat="44.24942" lon="6.76477">
        <ele>1975</ele>
        <time>2022-06-12T07:45:12Z</time>
      </trkpt>
      <trkpt lat="44.24941" lon="6.7648">
        <ele>1974.8</ele>
        <time>2022-06-12T07:45:13Z</time>
      </trkpt>
      <trkpt lat="44.24941" lon="6.76483">
        <ele>1974.7</ele>
        <time>2022-06-12T07:45:14Z</time>
      </trkpt>
      <trkpt lat="44.24941" lon="6.76486">
        <ele>1974.6</ele>
        <time>2022-06-12T07:45:15Z</time>
      </trkpt>
      <trkpt lat="44.24941" lon="6.76489">
        <ele>1974.4</ele>
        <time>2022-06-12T07:45:16Z</time>
      </trkpt>
      <trkpt lat="44.24941" lon="6.76491">
        <ele>1974.3</ele>
        <time>2022-06-12T07:45:17Z</time>
      </trkpt>
      <trkpt lat="44.2494" lon="6.76494">
        <ele>1974.1</ele>
        <time>2022-06-12T07:45:18Z</time>
      </trkpt>
      <trkpt lat="44.24941" lon="6.76497">
        <ele>1974.1</ele>
        <time>2022-06-12T07:45:19Z</time>
      </trkpt>
      <trkpt lat="44.24941" lon="6.76501">
        <ele>1974.1</ele>
        <time>2022-06-12T07:45:20Z</time>
      </trkpt>
      <trkpt lat="44.24942" lon="6.76504">
        <ele>1974.3</ele>
        <time>2022-06-12T07:45:21Z</time>
      </trkpt>
      <trkpt lat="44.24942" lon="6.76507">
        <ele>1974.3</ele>
        <time>2022-06-12T07:45:22Z</time>
      </trkpt>
      <trkpt lat="44.24942" lon="6.76511">
        <ele>1974.3</ele>
        <time>2022-06-12T07:45:23Z</time>
      </trkpt>
      <trkpt lat="44.24942" lon="6.76514">
        <ele>1974.3</ele>
        <time>2022-06-12T07:45:24Z</time>
      </trkpt>
      <trkpt lat="44.24943" lon="6.76518">
        <ele>1974.5</ele>
        <time>2022-06-12T07:45:25Z</time>
      </trkpt>
      <trkpt lat="44.24943" lon="6.76522">
        <ele>1974.5</ele>
        <time>2022-06-12T07:45:26Z</time>
      </trkpt>
      <trkpt lat="44.24943" lon="6.76525">
        <ele>1974.5</ele>
        <time>2022-06-12T07:45:27Z</time>
      </trkpt>
      <trkpt lat="44.24943" lon="6.76528">
        <ele>1974.7</ele>
        <time>2022-06-12T07:45:28Z</time>
      </trkpt>
      <trkpt lat="44.24944" lon="6.76532">
        <ele>1974.8</ele>
        <time>2022-06-12T07:45:29Z</time>
      </trkpt>
      <trkpt lat="44.24945" lon="6.76535">
        <ele>1975</ele>
        <time>2022-06-12T07:45:30Z</time>
      </trkpt>
      <trkpt lat="44.24945" lon="6.76539">
        <ele>1975.3</ele>
        <time>2022-06-12T07:45:31Z</time>
      </trkpt>
      <trkpt lat="44.24947" lon="6.76541">
        <ele>1975.6</ele>
        <time>2022-06-12T07:45:32Z</time>
      </trkpt>
      <trkpt lat="44.24948" lon="6.76544">
        <ele>1976</ele>
        <time>2022-06-12T07:45:33Z</time>
      </trkpt>
      <trkpt lat="44.2495" lon="6.76546">
        <ele>1976.6</ele>
        <time>2022-06-12T07:45:34Z</time>
      </trkpt>
      <trkpt lat="44.24951" lon="6.76549">
        <ele>1977.1</ele>
        <time>2022-06-12T07:45:35Z</time>
      </trkpt>
      <trkpt lat="44.24953" lon="6.76551">
        <ele>1977.8</ele>
        <time>2022-06-12T07:45:36Z</time>
      </trkpt>
      <trkpt lat="44.24955" lon="6.76553">
        <ele>1978.4</ele>
        <time>2022-06-12T07:45:37Z</time>
      </trkpt>
      <trkpt lat="44.24958" lon="6.76554">
        <ele>1979.2</ele>
        <time>2022-06-12T07:45:38Z</time>
      </trkpt>
      <trkpt lat="44.24961" lon="6.76555">
        <ele>1980.2</ele>
        <time>2022-06-12T07:45:39Z</time>
      </trkpt>
      <trkpt lat="44.24963" lon="6.76556">
        <ele>1981</ele>
        <time>2022-06-12T07:45:40Z</time>
      </trkpt>
      <trkpt lat="44.24966" lon="6.76556">
        <ele>1981.9</ele>
        <time>2022-06-12T07:45:41Z</time>
      </trkpt>
      <trkpt lat="44.24969" lon="6.76556">
        <ele>1982.8</ele>
        <time>2022-06-12T07:45:42Z</time>
      </trkpt>
      <trkpt lat="44.24971" lon="6.76556">
        <ele>1983.7</ele>
        <time>2022-06-12T07:45:43Z</time>
      </trkpt>
      <trkpt lat="44.24974" lon="6.76556">
        <ele>1984.5</ele>
        <time>2022-06-12T07:45:44Z</time>
      </trkpt>
      <trkpt lat="44.24977" lon="6.76555">
        <ele>1985.2</ele>
        <time>2022-06-12T07:45:45Z</time>
      </trkpt>
      <trkpt lat="44.24979" lon="6.76554">
        <ele>1985.7</ele>
        <time>2022-06-12T07:45:46Z</time>
      </trkpt>
      <trkpt lat="44.2498" lon="6.76552">
        <ele>1986.1</ele>
        <time>2022-06-12T07:45:47Z</time>
      </trkpt>
      <trkpt lat="44.24982" lon="6.7655">
        <ele>1986.5</ele>
        <time>2022-06-12T07:45:48Z</time>
      </trkpt>
      <trkpt lat="44.24984" lon="6.76548">
        <ele>1986.9</ele>
        <time>2022-06-12T07:45:49Z</time>
      </trkpt>
      <trkpt lat="44.24986" lon="6.76545">
        <ele>1987.1</ele>
        <time>2022-06-12T07:45:50Z</time>
      </trkpt>
      <trkpt lat="44.24987" lon="6.76542">
        <ele>1987.1</ele>
        <time>2022-06-12T07:45:51Z</time>
      </trkpt>
      <trkpt lat="44.24988" lon="6.76538">
        <ele>1987.1</ele>
        <time>2022-06-12T07:45:52Z</time>
      </trkpt>
      <trkpt lat="44.24988" lon="6.76534">
        <ele>1987</ele>
        <time>2022-06-12T07:45:53Z</time>
      </trkpt>
      <trkpt lat="44.24989" lon="6.7653">
        <ele>1986.7</ele>
        <time>2022-06-12T07:45:54Z</time>
      </trkpt>
      <trkpt lat="44.24989" lon="6.76527">
        <ele>1986.7</ele>
        <time>2022-06-12T07:45:55Z</time>
      </trkpt>
      <trkpt lat="44.2499" lon="6.76523">
        <ele>1986.7</ele>
        <time>2022-06-12T07:45:56Z</time>
      </trkpt>
      <trkpt lat="44.24991" lon="6.76519">
        <ele>1986.8</ele>
        <time>2022-06-12T07:45:57Z</time>
      </trkpt>
      <trkpt lat="44.24992" lon="6.76516">
        <ele>1986.9</ele>
        <time>2022-06-12T07:45:58Z</time>
      </trkpt>
      <trkpt lat="44.24992" lon="6.76512">
        <ele>1986.9</ele>
        <time>2022-06-12T07:45:59Z</time>
      </trkpt>
      <trkpt lat="44.24993" lon="6.76509">
        <ele>1987</ele>
        <time>2022-06-12T07:46:00Z</time>
      </trkpt>
      <trkpt lat="44.24994" lon="6.76506">
        <ele>1987.1</ele>
        <time>2022-06-12T07:46:01Z</time>
      </trkpt>
      <trkpt lat="44.24995" lon="6.76503">
        <ele>1987.1</ele>
        <time>2022-06-12T07:46:02Z</time>
      </trkpt>
      <trkpt lat="44.24996" lon="6.76499">
        <ele>1987.2</ele>
        <time>2022-06-12T07:46:03Z</time>
      </trkpt>
      <trkpt lat="44.24996" lon="6.76495">
        <ele>1987.5</ele>
        <time>2022-06-12T07:46:04Z</time>
      </trkpt>
      <trkpt lat="44.24997" lon="6.76491">
        <ele>1987.8</ele>
        <time>2022-06-12T07:46:05Z</time>
      </trkpt>
      <trkpt lat="44.24998" lon="6.76487">
        <ele>1988.1</ele>
        <time>2022-06-12T07:46:06Z</time>
      </trkpt>
      <trkpt lat="44.24999" lon="6.76483">
        <ele>1988.3</ele>
        <time>2022-06-12T07:46:07Z</time>
      </trkpt>
      <trkpt lat="44.24999" lon="6.7648">
        <ele>1988.5</ele>
        <time>2022-06-12T07:46:08Z</time>
      </trkpt>
      <trkpt lat="44.25" lon="6.76476">
        <ele>1988.8</ele>
        <time>2022-06-12T07:46:09Z</time>
      </trkpt>
      <trkpt lat="44.25" lon="6.76473">
        <ele>1989</ele>
        <time>2022-06-12T07:46:10Z</time>
      </trkpt>
      <trkpt lat="44.25001" lon="6.76469">
        <ele>1989.2</ele>
        <time>2022-06-12T07:46:11Z</time>
      </trkpt>
      <trkpt lat="44.25001" lon="6.76466">
        <ele>1989.5</ele>
        <time>2022-06-12T07:46:12Z</time>
      </trkpt>
      <trkpt lat="44.25002" lon="6.76462">
        <ele>1989.8</ele>
        <time>2022-06-12T07:46:13Z</time>
      </trkpt>
      <trkpt lat="44.25003" lon="6.76458">
        <ele>1990</ele>
        <time>2022-06-12T07:46:14Z</time>
      </trkpt>
      <trkpt lat="44.25003" lon="6.76453">
        <ele>1990.3</ele>
        <time>2022-06-12T07:46:15Z</time>
      </trkpt>
      <trkpt lat="44.25003" lon="6.7645">
        <ele>1990.5</ele>
        <time>2022-06-12T07:46:16Z</time>
      </trkpt>
      <trkpt lat="44.25004" lon="6.76447">
        <ele>1990.7</ele>
        <time>2022-06-12T07:46:17Z</time>
      </trkpt>
      <trkpt lat="44.25004" lon="6.76443">
        <ele>1990.8</ele>
        <time>2022-06-12T07:46:18Z</time>
      </trkpt>
      <trkpt lat="44.25004" lon="6.7644">
        <ele>1991</ele>
        <time>2022-06-12T07:46:19Z</time>
      </trkpt>
      <trkpt lat="44.25004" lon="6.76437">
        <ele>1991.1</ele>
        <time>2022-06-12T07:46:20Z</time>
      </trkpt>
      <trkpt lat="44.25004" lon="6.76434">
        <ele>1991.2</ele>
        <time>2022-06-12T07:46:21Z</time>
      </trkpt>
      <trkpt lat="44.25004" lon="6.7643">
        <ele>1991.4</ele>
        <time>2022-06-12T07:46:22Z</time>
      </trkpt>
      <trkpt lat="44.25003" lon="6.76427">
        <ele>1991.4</ele>
        <time>2022-06-12T07:46:23Z</time>
      </trkpt>
      <trkpt lat="44.25003" lon="6.76424">
        <ele>1991.4</ele>
        <time>2022-06-12T07:46:24Z</time>
      </trkpt>
      <trkpt lat="44.25003" lon="6.76421">
        <ele>1991.5</ele>
        <time>2022-06-12T07:46:25Z</time>
      </trkpt>
      <trkpt lat="44.25002" lon="6.76418">
        <ele>1991.6</ele>
        <time>2022-06-12T07:46:26Z</time>
      </trkpt>
      <trkpt lat="44.25002" lon="6.76414">
        <ele>1992</ele>
        <time>2022-06-12T07:46:27Z</time>
      </trkpt>
      <trkpt lat="44.25002" lon="6.76411">
        <ele>1992.4</ele>
        <time>2022-06-12T07:46:28Z</time>
      </trkpt>
      <trkpt lat="44.25002" lon="6.76408">
        <ele>1992.8</ele>
        <time>2022-06-12T07:46:29Z</time>
      </trkpt>
      <trkpt lat="44.25002" lon="6.76405">
        <ele>1993.2</ele>
        <time>2022-06-12T07:46:30Z</time>
      </trkpt>
      <trkpt lat="44.25001" lon="6.76401">
        <ele>1993.6</ele>
        <time>2022-06-12T07:46:31Z</time>
      </trkpt>
      <trkpt lat="44.25001" lon="6.76398">
        <ele>1993.9</ele>
        <time>2022-06-12T07:46:32Z</time>
      </trkpt>
      <trkpt lat="44.25001" lon="6.76395">
        <ele>1994.3</ele>
        <time>2022-06-12T07:46:33Z</time>
      </trkpt>
      <trkpt lat="44.25" lon="6.76392">
        <ele>1994.5</ele>
        <time>2022-06-12T07:46:34Z</time>
      </trkpt>
      <trkpt lat="44.24999" lon="6.76389">
        <ele>1994.7</ele>
        <time>2022-06-12T07:46:35Z</time>
      </trkpt>
      <trkpt lat="44.24999" lon="6.76385">
        <ele>1995</ele>
        <time>2022-06-12T07:46:36Z</time>
      </trkpt>
      <trkpt lat="44.24998" lon="6.76382">
        <ele>1995.3</ele>
        <time>2022-06-12T07:46:37Z</time>
      </trkpt>
      <trkpt lat="44.24998" lon="6.76379">
        <ele>1995.6</ele>
        <time>2022-06-12T07:46:38Z</time>
      </trkpt>
      <trkpt lat="44.24997" lon="6.76376">
        <ele>1995.9</ele>
        <time>2022-06-12T07:46:39Z</time>
      </trkpt>
      <trkpt lat="44.24996" lon="6.76373">
        <ele>1996.1</ele>
        <time>2022-06-12T07:46:40Z</time>
      </trkpt>
      <trkpt lat="44.24995" lon="6.7637">
        <ele>1996.2</ele>
        <time>2022-06-12T07:46:41Z</time>
      </trkpt>
      <trkpt lat="44.24995" lon="6.76367">
        <ele>1996.4</ele>
        <time>2022-06-12T07:46:42Z</time>
      </trkpt>
      <trkpt lat="44.24994" lon="6.76364">
        <ele>1996.6</ele>
        <time>2022-06-12T07:46:43Z</time>
      </trkpt>
      <trkpt lat="44.24993" lon="6.76361">
        <ele>1996.7</ele>
        <time>2022-06-12T07:46:44Z</time>
      </trkpt>
      <trkpt lat="44.24992" lon="6.76358">
        <ele>1996.7</ele>
        <time>2022-06-12T07:46:45Z</time>
      </trkpt>
      <trkpt lat="44.24991" lon="6.76356">
        <ele>1996.7</ele>
        <time>2022-06-12T07:46:46Z</time>
      </trkpt>
      <trkpt lat="44.2499" lon="6.76353">
        <ele>1996.8</ele>
        <time>2022-06-12T07:46:47Z</time>
      </trkpt>
      <trkpt lat="44.24989" lon="6.7635">
        <ele>1997</ele>
        <time>2022-06-12T07:46:48Z</time>
      </trkpt>
      <trkpt lat="44.24989" lon="6.76346">
        <ele>1997.2</ele>
        <time>2022-06-12T07:46:49Z</time>
      </trkpt>
      <trkpt lat="44.24988" lon="6.76344">
        <ele>1997.3</ele>
        <time>2022-06-12T07:46:50Z</time>
      </trkpt>
      <trkpt lat="44.24987" lon="6.76341">
        <ele>1997.5</ele>
        <time>2022-06-12T07:46:51Z</time>
      </trkpt>
      <trkpt lat="44.24987" lon="6.76337">
        <ele>1997.6</ele>
        <time>2022-06-12T07:46:52Z</time>
      </trkpt>
      <trkpt lat="44.24986" lon="6.76334">
        <ele>1997.8</ele>
        <time>2022-06-12T07:46:53Z</time>
      </trkpt>
      <trkpt lat="44.24986" lon="6.76331">
        <ele>1998</ele>
        <time>2022-06-12T07:46:54Z</time>
      </trkpt>
      <trkpt lat="44.24985" lon="6.76328">
        <ele>1998.2</ele>
        <time>2022-06-12T07:46:55Z</time>
      </trkpt>
      <trkpt lat="44.24985" lon="6.76325">
        <ele>1998.4</ele>
        <time>2022-06-12T07:46:56Z</time>
      </trkpt>
      <trkpt lat="44.24985" lon="6.76322">
        <ele>1998.8</ele>
        <time>2022-06-12T07:46:57Z</time>
      </trkpt>
      <trkpt lat="44.24985" lon="6.76319">
        <ele>1999.2</ele>
        <time>2022-06-12T07:46:58Z</time>
      </trkpt>
      <trkpt lat="44.24985" lon="6.76315">
        <ele>1999.4</ele>
        <time>2022-06-12T07:46:59Z</time>
      </trkpt>
      <trkpt lat="44.24985" lon="6.76312">
        <ele>1999.9</ele>
        <time>2022-06-12T07:47:00Z</time>
      </trkpt>
      <trkpt lat="44.24985" lon="6.76309">
        <ele>2000.2</ele>
        <time>2022-06-12T07:47:01Z</time>
      </trkpt>
      <trkpt lat="44.24985" lon="6.76306">
        <ele>2000.6</ele>
        <time>2022-06-12T07:47:02Z</time>
      </trkpt>
      <trkpt lat="44.24985" lon="6.76302">
        <ele>2000.8</ele>
        <time>2022-06-12T07:47:03Z</time>
      </trkpt>
      <trkpt lat="44.24985" lon="6.763">
        <ele>2001</ele>
        <time>2022-06-12T07:47:04Z</time>
      </trkpt>
      <trkpt lat="44.24984" lon="6.76297">
        <ele>2001.1</ele>
        <time>2022-06-12T07:47:05Z</time>
      </trkpt>
      <trkpt lat="44.24984" lon="6.76293">
        <ele>2001.3</ele>
        <time>2022-06-12T07:47:06Z</time>
      </trkpt>
      <trkpt lat="44.24984" lon="6.7629">
        <ele>2001.4</ele>
        <time>2022-06-12T07:47:07Z</time>
      </trkpt>
      <trkpt lat="44.24983" lon="6.76287">
        <ele>2001.5</ele>
        <time>2022-06-12T07:47:08Z</time>
      </trkpt>
      <trkpt lat="44.24983" lon="6.76284">
        <ele>2001.8</ele>
        <time>2022-06-12T07:47:09Z</time>
      </trkpt>
      <trkpt lat="44.24983" lon="6.76281">
        <ele>2002</ele>
        <time>2022-06-12T07:47:10Z</time>
      </trkpt>
      <trkpt lat="44.24983" lon="6.76277">
        <ele>2002.2</ele>
        <time>2022-06-12T07:47:11Z</time>
      </trkpt>
      <trkpt lat="44.24983" lon="6.76274">
        <ele>2002.4</ele>
        <time>2022-06-12T07:47:12Z</time>
      </trkpt>
      <trkpt lat="44.24983" lon="6.76271">
        <ele>2002.6</ele>
        <time>2022-06-12T07:47:13Z</time>
      </trkpt>
      <trkpt lat="44.24982" lon="6.76268">
        <ele>2002.8</ele>
        <time>2022-06-12T07:47:14Z</time>
      </trkpt>
      <trkpt lat="44.24982" lon="6.76265">
        <ele>2003</ele>
        <time>2022-06-12T07:47:15Z</time>
      </trkpt>
      <trkpt lat="44.24982" lon="6.76262">
        <ele>2003</ele>
        <time>2022-06-12T07:47:16Z</time>
      </trkpt>
      <trkpt lat="44.24981" lon="6.76259">
        <ele>2003.1</ele>
        <time>2022-06-12T07:47:17Z</time>
      </trkpt>
      <trkpt lat="44.24981" lon="6.76256">
        <ele>2003.1</ele>
        <time>2022-06-12T07:47:18Z</time>
      </trkpt>
      <trkpt lat="44.2498" lon="6.76253">
        <ele>2003.2</ele>
        <time>2022-06-12T07:47:19Z</time>
      </trkpt>
      <trkpt lat="44.2498" lon="6.7625">
        <ele>2003.2</ele>
        <time>2022-06-12T07:47:20Z</time>
      </trkpt>
      <trkpt lat="44.24979" lon="6.76247">
        <ele>2003.3</ele>
        <time>2022-06-12T07:47:21Z</time>
      </trkpt>
      <trkpt lat="44.24979" lon="6.76244">
        <ele>2003.4</ele>
        <time>2022-06-12T07:47:22Z</time>
      </trkpt>
      <trkpt lat="44.24979" lon="6.76241">
        <ele>2003.5</ele>
        <time>2022-06-12T07:47:23Z</time>
      </trkpt>
      <trkpt lat="44.24979" lon="6.76237">
        <ele>2003.7</ele>
        <time>2022-06-12T07:47:24Z</time>
      </trkpt>
      <trkpt lat="44.24979" lon="6.76234">
        <ele>2003.9</ele>
        <time>2022-06-12T07:47:25Z</time>
      </trkpt>
      <trkpt lat="44.24978" lon="6.76231">
        <ele>2003.9</ele>
        <time>2022-06-12T07:47:26Z</time>
      </trkpt>
      <trkpt lat="44.24978" lon="6.76228">
        <ele>2003.9</ele>
        <time>2022-06-12T07:47:27Z</time>
      </trkpt>
      <trkpt lat="44.24977" lon="6.76225">
        <ele>2004</ele>
        <time>2022-06-12T07:47:28Z</time>
      </trkpt>
      <trkpt lat="44.24977" lon="6.76222">
        <ele>2004.1</ele>
        <time>2022-06-12T07:47:29Z</time>
      </trkpt>
      <trkpt lat="44.24977" lon="6.76219">
        <ele>2004.3</ele>
        <time>2022-06-12T07:47:30Z</time>
      </trkpt>
      <trkpt lat="44.24977" lon="6.76216">
        <ele>2004.8</ele>
        <time>2022-06-12T07:47:31Z</time>
      </trkpt>
      <trkpt lat="44.24977" lon="6.76213">
        <ele>2005.2</ele>
        <time>2022-06-12T07:47:32Z</time>
      </trkpt>
      <trkpt lat="44.24976" lon="6.7621">
        <ele>2005.3</ele>
        <time>2022-06-12T07:47:33Z</time>
      </trkpt>
      <trkpt lat="44.24975" lon="6.76207">
        <ele>2005.4</ele>
        <time>2022-06-12T07:47:34Z</time>
      </trkpt>
      <trkpt lat="44.24974" lon="6.76204">
        <ele>2005.5</ele>
        <time>2022-06-12T07:47:35Z</time>
      </trkpt>
      <trkpt lat="44.24974" lon="6.76201">
        <ele>2005.6</ele>
        <time>2022-06-12T07:47:36Z</time>
      </trkpt>
      <trkpt lat="44.24973" lon="6.76197">
        <ele>2005.8</ele>
        <time>2022-06-12T07:47:37Z</time>
      </trkpt>
      <trkpt lat="44.24972" lon="6.76194">
        <ele>2006</ele>
        <time>2022-06-12T07:47:38Z</time>
      </trkpt>
      <trkpt lat="44.24971" lon="6.76191">
        <ele>2006.3</ele>
        <time>2022-06-12T07:47:39Z</time>
      </trkpt>
      <trkpt lat="44.2497" lon="6.76188">
        <ele>2006.5</ele>
        <time>2022-06-12T07:47:40Z</time>
      </trkpt>
      <trkpt lat="44.24969" lon="6.76185">
        <ele>2006.6</ele>
        <time>2022-06-12T07:47:41Z</time>
      </trkpt>
      <trkpt lat="44.24968" lon="6.76182">
        <ele>2006.6</ele>
        <time>2022-06-12T07:47:42Z</time>
      </trkpt>
      <trkpt lat="44.24967" lon="6.76179">
        <ele>2006.5</ele>
        <time>2022-06-12T07:47:43Z</time>
      </trkpt>
      <trkpt lat="44.24966" lon="6.76176">
        <ele>2006.6</ele>
        <time>2022-06-12T07:47:44Z</time>
      </trkpt>
      <trkpt lat="44.24965" lon="6.76173">
        <ele>2006.7</ele>
        <time>2022-06-12T07:47:45Z</time>
      </trkpt>
      <trkpt lat="44.24964" lon="6.7617">
        <ele>2007.1</ele>
        <time>2022-06-12T07:47:46Z</time>
      </trkpt>
      <trkpt lat="44.24963" lon="6.76167">
        <ele>2007.4</ele>
        <time>2022-06-12T07:47:47Z</time>
      </trkpt>
      <trkpt lat="44.24963" lon="6.76164">
        <ele>2007.7</ele>
        <time>2022-06-12T07:47:48Z</time>
      </trkpt>
      <trkpt lat="44.24962" lon="6.76161">
        <ele>2007.9</ele>
        <time>2022-06-12T07:47:49Z</time>
      </trkpt>
      <trkpt lat="44.24961" lon="6.76158">
        <ele>2008.1</ele>
        <time>2022-06-12T07:47:50Z</time>
      </trkpt>
      <trkpt lat="44.2496" lon="6.76155">
        <ele>2008.1</ele>
        <time>2022-06-12T07:47:51Z</time>
      </trkpt>
      <trkpt lat="44.24959" lon="6.76152">
        <ele>2008.3</ele>
        <time>2022-06-12T07:47:52Z</time>
      </trkpt>
      <trkpt lat="44.24958" lon="6.76149">
        <ele>2008.5</ele>
        <time>2022-06-12T07:47:53Z</time>
      </trkpt>
      <trkpt lat="44.24958" lon="6.76146">
        <ele>2008.8</ele>
        <time>2022-06-12T07:47:54Z</time>
      </trkpt>
      <trkpt lat="44.24957" lon="6.76142">
        <ele>2009.3</ele>
        <time>2022-06-12T07:47:55Z</time>
      </trkpt>
      <trkpt lat="44.24957" lon="6.76139">
        <ele>2009.7</ele>
        <time>2022-06-12T07:47:56Z</time>
      </trkpt>
      <trkpt lat="44.24956" lon="6.76136">
        <ele>2010</ele>
        <time>2022-06-12T07:47:57Z</time>
      </trkpt>
      <trkpt lat="44.24956" lon="6.76133">
        <ele>2010.4</ele>
        <time>2022-06-12T07:47:58Z</time>
      </trkpt>
      <trkpt lat="44.24955" lon="6.76129">
        <ele>2010.7</ele>
        <time>2022-06-12T07:47:59Z</time>
      </trkpt>
      <trkpt lat="44.24955" lon="6.76126">
        <ele>2011</ele>
        <time>2022-06-12T07:48:00Z</time>
      </trkpt>
      <trkpt lat="44.24954" lon="6.76123">
        <ele>2011.3</ele>
        <time>2022-06-12T07:48:01Z</time>
      </trkpt>
      <trkpt lat="44.24954" lon="6.7612">
        <ele>2011.7</ele>
        <time>2022-06-12T07:48:02Z</time>
      </trkpt>
      <trkpt lat="44.24954" lon="6.76116">
        <ele>2012.4</ele>
        <time>2022-06-12T07:48:03Z</time>
      </trkpt>
      <trkpt lat="44.24954" lon="6.76113">
        <ele>2013</ele>
        <time>2022-06-12T07:48:04Z</time>
      </trkpt>
      <trkpt lat="44.24954" lon="6.7611">
        <ele>2013.4</ele>
        <time>2022-06-12T07:48:05Z</time>
      </trkpt>
      <trkpt lat="44.24954" lon="6.76107">
        <ele>2013.9</ele>
        <time>2022-06-12T07:48:06Z</time>
      </trkpt>
      <trkpt lat="44.24954" lon="6.76104">
        <ele>2014.3</ele>
        <time>2022-06-12T07:48:07Z</time>
      </trkpt>
      <trkpt lat="44.24954" lon="6.76101">
        <ele>2014.8</ele>
        <time>2022-06-12T07:48:08Z</time>
      </trkpt>
      <trkpt lat="44.24954" lon="6.76097">
        <ele>2015</ele>
        <time>2022-06-12T07:48:09Z</time>
      </trkpt>
      <trkpt lat="44.24954" lon="6.76094">
        <ele>2015.2</ele>
        <time>2022-06-12T07:48:10Z</time>
      </trkpt>
      <trkpt lat="44.24953" lon="6.76091">
        <ele>2015.5</ele>
        <time>2022-06-12T07:48:11Z</time>
      </trkpt>
      <trkpt lat="44.24953" lon="6.76088">
        <ele>2015.8</ele>
        <time>2022-06-12T07:48:12Z</time>
      </trkpt>
      <trkpt lat="44.24953" lon="6.76085">
        <ele>2016.2</ele>
        <time>2022-06-12T07:48:13Z</time>
      </trkpt>
      <trkpt lat="44.24954" lon="6.76082">
        <ele>2016.8</ele>
        <time>2022-06-12T07:48:14Z</time>
      </trkpt>
      <trkpt lat="44.24954" lon="6.76079">
        <ele>2017.3</ele>
        <time>2022-06-12T07:48:15Z</time>
      </trkpt>
      <trkpt lat="44.24954" lon="6.76076">
        <ele>2017.7</ele>
        <time>2022-06-12T07:48:16Z</time>
      </trkpt>
      <trkpt lat="44.24954" lon="6.76073">
        <ele>2018.1</ele>
        <time>2022-06-12T07:48:17Z</time>
      </trkpt>
      <trkpt lat="44.24953" lon="6.7607">
        <ele>2018.4</ele>
        <time>2022-06-12T07:48:18Z</time>
      </trkpt>
      <trkpt lat="44.24953" lon="6.76067">
        <ele>2018.7</ele>
        <time>2022-06-12T07:48:19Z</time>
      </trkpt>
      <trkpt lat="44.24953" lon="6.76064">
        <ele>2018.9</ele>
        <time>2022-06-12T07:48:20Z</time>
      </trkpt>
      <trkpt lat="44.24953" lon="6.76061">
        <ele>2019.2</ele>
        <time>2022-06-12T07:48:21Z</time>
      </trkpt>
      <trkpt lat="44.24952" lon="6.76058">
        <ele>2019.3</ele>
        <time>2022-06-12T07:48:22Z</time>
      </trkpt>
      <trkpt lat="44.24952" lon="6.76055">
        <ele>2019.4</ele>
        <time>2022-06-12T07:48:23Z</time>
      </trkpt>
      <trkpt lat="44.24951" lon="6.76052">
        <ele>2019.4</ele>
        <time>2022-06-12T07:48:24Z</time>
      </trkpt>
      <trkpt lat="44.2495" lon="6.76049">
        <ele>2019.3</ele>
        <time>2022-06-12T07:48:25Z</time>
      </trkpt>
      <trkpt lat="44.24949" lon="6.76046">
        <ele>2019.3</ele>
        <time>2022-06-12T07:48:26Z</time>
      </trkpt>
      <trkpt lat="44.24949" lon="6.76043">
        <ele>2019.4</ele>
        <time>2022-06-12T07:48:27Z</time>
      </trkpt>
      <trkpt lat="44.24948" lon="6.7604">
        <ele>2019.6</ele>
        <time>2022-06-12T07:48:28Z</time>
      </trkpt>
      <trkpt lat="44.24948" lon="6.76037">
        <ele>2019.5</ele>
        <time>2022-06-12T07:48:29Z</time>
      </trkpt>
      <trkpt lat="44.24947" lon="6.76034">
        <ele>2019.6</ele>
        <time>2022-06-12T07:48:30Z</time>
      </trkpt>
      <trkpt lat="44.24947" lon="6.76031">
        <ele>2019.9</ele>
        <time>2022-06-12T07:48:31Z</time>
      </trkpt>
      <trkpt lat="44.24946" lon="6.76028">
        <ele>2020.1</ele>
        <time>2022-06-12T07:48:32Z</time>
      </trkpt>
      <trkpt lat="44.24946" lon="6.76025">
        <ele>2020.4</ele>
        <time>2022-06-12T07:48:33Z</time>
      </trkpt>
      <trkpt lat="44.24945" lon="6.76022">
        <ele>2020.4</ele>
        <time>2022-06-12T07:48:34Z</time>
      </trkpt>
      <trkpt lat="44.24943" lon="6.76019">
        <ele>2020.5</ele>
        <time>2022-06-12T07:48:35Z</time>
      </trkpt>
      <trkpt lat="44.24942" lon="6.76016">
        <ele>2020.7</ele>
        <time>2022-06-12T07:48:36Z</time>
      </trkpt>
      <trkpt lat="44.24941" lon="6.76013">
        <ele>2020.8</ele>
        <time>2022-06-12T07:48:37Z</time>
      </trkpt>
      <trkpt lat="44.24941" lon="6.7601">
        <ele>2021</ele>
        <time>2022-06-12T07:48:38Z</time>
      </trkpt>
      <trkpt lat="44.2494" lon="6.76008">
        <ele>2021.2</ele>
        <time>2022-06-12T07:48:39Z</time>
      </trkpt>
      <trkpt lat="44.24939" lon="6.76005">
        <ele>2021.4</ele>
        <time>2022-06-12T07:48:40Z</time>
      </trkpt>
      <trkpt lat="44.24938" lon="6.76002">
        <ele>2021.5</ele>
        <time>2022-06-12T07:48:41Z</time>
      </trkpt>
      <trkpt lat="44.24937" lon="6.75998">
        <ele>2021.7</ele>
        <time>2022-06-12T07:48:42Z</time>
      </trkpt>
      <trkpt lat="44.24936" lon="6.75996">
        <ele>2022</ele>
        <time>2022-06-12T07:48:43Z</time>
      </trkpt>
      <trkpt lat="44.24935" lon="6.75993">
        <ele>2022.3</ele>
        <time>2022-06-12T07:48:44Z</time>
      </trkpt>
      <trkpt lat="44.24934" lon="6.7599">
        <ele>2022.2</ele>
        <time>2022-06-12T07:48:45Z</time>
      </trkpt>
      <trkpt lat="44.24933" lon="6.75987">
        <ele>2022.3</ele>
        <time>2022-06-12T07:48:46Z</time>
      </trkpt>
      <trkpt lat="44.24932" lon="6.75984">
        <ele>2022.4</ele>
        <time>2022-06-12T07:48:47Z</time>
      </trkpt>
      <trkpt lat="44.2493" lon="6.75981">
        <ele>2022.4</ele>
        <time>2022-06-12T07:48:48Z</time>
      </trkpt>
      <trkpt lat="44.2493" lon="6.75978">
        <ele>2022.6</ele>
        <time>2022-06-12T07:48:49Z</time>
      </trkpt>
      <trkpt lat="44.24928" lon="6.75975">
        <ele>2022.5</ele>
        <time>2022-06-12T07:48:50Z</time>
      </trkpt>
      <trkpt lat="44.24927" lon="6.75972">
        <ele>2022.6</ele>
        <time>2022-06-12T07:48:51Z</time>
      </trkpt>
      <trkpt lat="44.24926" lon="6.7597">
        <ele>2022.8</ele>
        <time>2022-06-12T07:48:52Z</time>
      </trkpt>
      <trkpt lat="44.24925" lon="6.75967">
        <ele>2022.8</ele>
        <time>2022-06-12T07:48:53Z</time>
      </trkpt>
      <trkpt lat="44.24924" lon="6.75964">
        <ele>2022.9</ele>
        <time>2022-06-12T07:48:54Z</time>
      </trkpt>
      <trkpt lat="44.24923" lon="6.75961">
        <ele>2023.3</ele>
        <time>2022-06-12T07:48:55Z</time>
      </trkpt>
      <trkpt lat="44.24923" lon="6.75958">
        <ele>2023.9</ele>
        <time>2022-06-12T07:48:56Z</time>
      </trkpt>
      <trkpt lat="44.24922" lon="6.75955">
        <ele>2024.2</ele>
        <time>2022-06-12T07:48:57Z</time>
      </trkpt>
      <trkpt lat="44.24921" lon="6.75952">
        <ele>2024.5</ele>
        <time>2022-06-12T07:48:58Z</time>
      </trkpt>
      <trkpt lat="44.2492" lon="6.75949">
        <ele>2024.7</ele>
        <time>2022-06-12T07:48:59Z</time>
      </trkpt>
      <trkpt lat="44.24919" lon="6.75946">
        <ele>2024.9</ele>
        <time>2022-06-12T07:49:00Z</time>
      </trkpt>
      <trkpt lat="44.24918" lon="6.75943">
        <ele>2025</ele>
        <time>2022-06-12T07:49:01Z</time>
      </trkpt>
      <trkpt lat="44.24917" lon="6.7594">
        <ele>2025.1</ele>
        <time>2022-06-12T07:49:02Z</time>
      </trkpt>
      <trkpt lat="44.24917" lon="6.75937">
        <ele>2025.2</ele>
        <time>2022-06-12T07:49:03Z</time>
      </trkpt>
      <trkpt lat="44.24916" lon="6.75934">
        <ele>2025.3</ele>
        <time>2022-06-12T07:49:04Z</time>
      </trkpt>
      <trkpt lat="44.24915" lon="6.75931">
        <ele>2025.4</ele>
        <time>2022-06-12T07:49:05Z</time>
      </trkpt>
      <trkpt lat="44.24914" lon="6.75929">
        <ele>2025.5</ele>
        <time>2022-06-12T07:49:06Z</time>
      </trkpt>
      <trkpt lat="44.24914" lon="6.75926">
        <ele>2025.7</ele>
        <time>2022-06-12T07:49:07Z</time>
      </trkpt>
      <trkpt lat="44.24913" lon="6.75923">
        <ele>2025.9</ele>
        <time>2022-06-12T07:49:08Z</time>
      </trkpt>
      <trkpt lat="44.24913" lon="6.75919">
        <ele>2026.2</ele>
        <time>2022-06-12T07:49:09Z</time>
      </trkpt>
      <trkpt lat="44.24913" lon="6.75916">
        <ele>2026.6</ele>
        <time>2022-06-12T07:49:10Z</time>
      </trkpt>
      <trkpt lat="44.24912" lon="6.75913">
        <ele>2026.8</ele>
        <time>2022-06-12T07:49:11Z</time>
      </trkpt>
      <trkpt lat="44.24911" lon="6.7591">
        <ele>2027.1</ele>
        <time>2022-06-12T07:49:12Z</time>
      </trkpt>
      <trkpt lat="44.24911" lon="6.75907">
        <ele>2027.4</ele>
        <time>2022-06-12T07:49:13Z</time>
      </trkpt>
      <trkpt lat="44.2491" lon="6.75905">
        <ele>2027.7</ele>
        <time>2022-06-12T07:49:14Z</time>
      </trkpt>
      <trkpt lat="44.2491" lon="6.75902">
        <ele>2028.1</ele>
        <time>2022-06-12T07:49:15Z</time>
      </trkpt>
      <trkpt lat="44.24909" lon="6.75899">
        <ele>2028.4</ele>
        <time>2022-06-12T07:49:16Z</time>
      </trkpt>
      <trkpt lat="44.24908" lon="6.75896">
        <ele>2028.5</ele>
        <time>2022-06-12T07:49:17Z</time>
      </trkpt>
      <trkpt lat="44.24908" lon="6.75893">
        <ele>2028.9</ele>
        <time>2022-06-12T07:49:18Z</time>
      </trkpt>
      <trkpt lat="44.24907" lon="6.7589">
        <ele>2029.2</ele>
        <time>2022-06-12T07:49:19Z</time>
      </trkpt>
      <trkpt lat="44.24907" lon="6.75887">
        <ele>2029.9</ele>
        <time>2022-06-12T07:49:20Z</time>
      </trkpt>
      <trkpt lat="44.24905" lon="6.75884">
        <ele>2030.4</ele>
        <time>2022-06-12T07:49:21Z</time>
      </trkpt>
      <trkpt lat="44.24904" lon="6.75881">
        <ele>2030.7</ele>
        <time>2022-06-12T07:49:22Z</time>
      </trkpt>
      <trkpt lat="44.24903" lon="6.75879">
        <ele>2031.1</ele>
        <time>2022-06-12T07:49:23Z</time>
      </trkpt>
      <trkpt lat="44.24902" lon="6.75876">
        <ele>2031.7</ele>
        <time>2022-06-12T07:49:24Z</time>
      </trkpt>
      <trkpt lat="44.24901" lon="6.75873">
        <ele>2031.9</ele>
        <time>2022-06-12T07:49:25Z</time>
      </trkpt>
      <trkpt lat="44.249" lon="6.75871">
        <ele>2032</ele>
        <time>2022-06-12T07:49:26Z</time>
      </trkpt>
      <trkpt lat="44.24898" lon="6.75868">
        <ele>2032.3</ele>
        <time>2022-06-12T07:49:27Z</time>
      </trkpt>
      <trkpt lat="44.24897" lon="6.75865">
        <ele>2032.4</ele>
        <time>2022-06-12T07:49:28Z</time>
      </trkpt>
      <trkpt lat="44.24896" lon="6.75863">
        <ele>2032.5</ele>
        <time>2022-06-12T07:49:29Z</time>
      </trkpt>
      <trkpt lat="44.24894" lon="6.75861">
        <ele>2032.4</ele>
        <time>2022-06-12T07:49:30Z</time>
      </trkpt>
      <trkpt lat="44.24893" lon="6.75858">
        <ele>2032.6</ele>
        <time>2022-06-12T07:49:31Z</time>
      </trkpt>
      <trkpt lat="44.24891" lon="6.75856">
        <ele>2032.8</ele>
        <time>2022-06-12T07:49:32Z</time>
      </trkpt>
      <trkpt lat="44.2489" lon="6.75854">
        <ele>2032.7</ele>
        <time>2022-06-12T07:49:33Z</time>
      </trkpt>
      <trkpt lat="44.24888" lon="6.75852">
        <ele>2032.8</ele>
        <time>2022-06-12T07:49:34Z</time>
      </trkpt>
      <trkpt lat="44.24887" lon="6.75849">
        <ele>2033.2</ele>
        <time>2022-06-12T07:49:35Z</time>
      </trkpt>
      <trkpt lat="44.24885" lon="6.75847">
        <ele>2033.5</ele>
        <time>2022-06-12T07:49:36Z</time>
      </trkpt>
      <trkpt lat="44.24883" lon="6.75845">
        <ele>2033.6</ele>
        <time>2022-06-12T07:49:37Z</time>
      </trkpt>
      <trkpt lat="44.24882" lon="6.75843">
        <ele>2034</ele>
        <time>2022-06-12T07:49:38Z</time>
      </trkpt>
      <trkpt lat="44.2488" lon="6.7584">
        <ele>2034.2</ele>
        <time>2022-06-12T07:49:39Z</time>
      </trkpt>
      <trkpt lat="44.24879" lon="6.75838">
        <ele>2034.5</ele>
        <time>2022-06-12T07:49:40Z</time>
      </trkpt>
      <trkpt lat="44.24877" lon="6.75836">
        <ele>2034.7</ele>
        <time>2022-06-12T07:49:41Z</time>
      </trkpt>
      <trkpt lat="44.24875" lon="6.75834">
        <ele>2034.8</ele>
        <time>2022-06-12T07:49:42Z</time>
      </trkpt>
      <trkpt lat="44.24874" lon="6.75831">
        <ele>2035.3</ele>
        <time>2022-06-12T07:49:43Z</time>
      </trkpt>
      <trkpt lat="44.24872" lon="6.75829">
        <ele>2035.6</ele>
        <time>2022-06-12T07:49:44Z</time>
      </trkpt>
      <trkpt lat="44.2487" lon="6.75827">
        <ele>2035.7</ele>
        <time>2022-06-12T07:49:45Z</time>
      </trkpt>
      <trkpt lat="44.24869" lon="6.75825">
        <ele>2035.8</ele>
        <time>2022-06-12T07:49:46Z</time>
      </trkpt>
      <trkpt lat="44.24867" lon="6.75823">
        <ele>2035.7</ele>
        <time>2022-06-12T07:49:47Z</time>
      </trkpt>
      <trkpt lat="44.24865" lon="6.75821">
        <ele>2035.8</ele>
        <time>2022-06-12T07:49:48Z</time>
      </trkpt>
      <trkpt lat="44.24863" lon="6.7582">
        <ele>2035.8</ele>
        <time>2022-06-12T07:49:49Z</time>
      </trkpt>
      <trkpt lat="44.24862" lon="6.75818">
        <ele>2036</ele>
        <time>2022-06-12T07:49:50Z</time>
      </trkpt>
      <trkpt lat="44.2486" lon="6.75816">
        <ele>2036.2</ele>
        <time>2022-06-12T07:49:51Z</time>
      </trkpt>
      <trkpt lat="44.24858" lon="6.75814">
        <ele>2036.6</ele>
        <time>2022-06-12T07:49:52Z</time>
      </trkpt>
      <trkpt lat="44.24856" lon="6.75812">
        <ele>2036.8</ele>
        <time>2022-06-12T07:49:53Z</time>
      </trkpt>
      <trkpt lat="44.24854" lon="6.7581">
        <ele>2037</ele>
        <time>2022-06-12T07:49:54Z</time>
      </trkpt>
      <trkpt lat="44.24852" lon="6.75808">
        <ele>2037.2</ele>
        <time>2022-06-12T07:49:55Z</time>
      </trkpt>
      <trkpt lat="44.24851" lon="6.75806">
        <ele>2037.6</ele>
        <time>2022-06-12T07:49:56Z</time>
      </trkpt>
      <trkpt lat="44.24849" lon="6.75804">
        <ele>2037.8</ele>
        <time>2022-06-12T07:49:57Z</time>
      </trkpt>
      <trkpt lat="44.24847" lon="6.75802">
        <ele>2037.9</ele>
        <time>2022-06-12T07:49:58Z</time>
      </trkpt>
      <trkpt lat="44.24845" lon="6.75799">
        <ele>2038.1</ele>
        <time>2022-06-12T07:49:59Z</time>
      </trkpt>
      <trkpt lat="44.24844" lon="6.75797">
        <ele>2038.4</ele>
        <time>2022-06-12T07:50:00Z</time>
      </trkpt>
      <trkpt lat="44.24842" lon="6.75795">
        <ele>2038.7</ele>
        <time>2022-06-12T07:50:01Z</time>
      </trkpt>
      <trkpt lat="44.24841" lon="6.75792">
        <ele>2039.1</ele>
        <time>2022-06-12T07:50:02Z</time>
      </trkpt>
      <trkpt lat="44.24839" lon="6.7579">
        <ele>2039.5</ele>
        <time>2022-06-12T07:50:03Z</time>
      </trkpt>
      <trkpt lat="44.24838" lon="6.75788">
        <ele>2040</ele>
        <time>2022-06-12T07:50:04Z</time>
      </trkpt>
      <trkpt lat="44.24837" lon="6.75785">
        <ele>2040.6</ele>
        <time>2022-06-12T07:50:05Z</time>
      </trkpt>
      <trkpt lat="44.24836" lon="6.75783">
        <ele>2041.2</ele>
        <time>2022-06-12T07:50:06Z</time>
      </trkpt>
      <trkpt lat="44.24835" lon="6.7578">
        <ele>2041.9</ele>
        <time>2022-06-12T07:50:07Z</time>
      </trkpt>
      <trkpt lat="44.24834" lon="6.75777">
        <ele>2042.6</ele>
        <time>2022-06-12T07:50:08Z</time>
      </trkpt>
      <trkpt lat="44.24834" lon="6.75774">
        <ele>2043.7</ele>
        <time>2022-06-12T07:50:09Z</time>
      </trkpt>
      <trkpt lat="44.24833" lon="6.75771">
        <ele>2044.7</ele>
        <time>2022-06-12T07:50:10Z</time>
      </trkpt>
      <trkpt lat="44.24832" lon="6.75768">
        <ele>2045.6</ele>
        <time>2022-06-12T07:50:11Z</time>
      </trkpt>
      <trkpt lat="44.24831" lon="6.75765">
        <ele>2046.7</ele>
        <time>2022-06-12T07:50:12Z</time>
      </trkpt>
      <trkpt lat="44.24832" lon="6.75763">
        <ele>2047.9</ele>
        <time>2022-06-12T07:50:13Z</time>
      </trkpt>
      <trkpt lat="44.24832" lon="6.75761">
        <ele>2049</ele>
        <time>2022-06-12T07:50:14Z</time>
      </trkpt>
      <trkpt lat="44.24833" lon="6.75758">
        <ele>2050.2</ele>
        <time>2022-06-12T07:50:15Z</time>
      </trkpt>
      <trkpt lat="44.24833" lon="6.75756">
        <ele>2051.3</ele>
        <time>2022-06-12T07:50:16Z</time>
      </trkpt>
      <trkpt lat="44.24834" lon="6.75754">
        <ele>2052.3</ele>
        <time>2022-06-12T07:50:17Z</time>
      </trkpt>
      <trkpt lat="44.24834" lon="6.75752">
        <ele>2053.4</ele>
        <time>2022-06-12T07:50:18Z</time>
      </trkpt>
      <trkpt lat="44.24833" lon="6.75749">
        <ele>2054</ele>
        <time>2022-06-12T07:50:19Z</time>
      </trkpt>
      <trkpt lat="44.24833" lon="6.75749">
        <ele>2054</ele>
        <time>2022-06-12T07:50:20Z</time>
      </trkpt>
      <trkpt lat="44.24833" lon="6.75749">
        <ele>2054</ele>
        <time>2022-06-12T07:50:21Z</time>
      </trkpt>
      <trkpt lat="44.24833" lon="6.75749">
        <ele>2054</ele>
        <time>2022-06-12T07:50:22Z</time>
      </trkpt>
      <trkpt lat="44.24833" lon="6.75749">
        <ele>2054</ele>
        <time>2022-06-12T07:50:23Z</time>
      </trkpt>
      <trkpt lat="44.24833" lon="6.75749">
        <ele>2054</ele>
        <time>2022-06-12T07:50:24Z</time>
      </trkpt>
      <trkpt lat="44.24833" lon="6.75749">
        <ele>2054</ele>
        <time>2022-06-12T07:50:25Z</time>
      </trkpt>
      <trkpt lat="44.24833" lon="6.75749">
        <ele>2054</ele>
        <time>2022-06-12T07:50:26Z</time>
      </trkpt>
      <trkpt lat="44.24833" lon="6.75749">
        <ele>2054</ele>
        <time>2022-06-12T07:50:27Z</time>
      </trkpt>
      <trkpt lat="44.24833" lon="6.75749">
        <ele>2054</ele>
        <time>2022-06-12T07:50:28Z</time>
      </trkpt>
      <trkpt lat="44.24833" lon="6.75749">
        <ele>2054</ele>
        <time>2022-06-12T07:50:29Z</time>
      </trkpt>
      <trkpt lat="44.24833" lon="6.75749">
        <ele>2054</ele>
        <time>2022-06-12T07:50:30Z</time>
      </trkpt>
      <trkpt lat="44.24833" lon="6.75749">
        <ele>2054</ele>
        <time>2022-06-12T07:50:31Z</time>
      </trkpt>
      <trkpt lat="44.24833" lon="6.75749">
        <ele>2054</ele>
        <time>2022-06-12T07:50:32Z</time>
      </trkpt>
      <trkpt lat="44.24833" lon="6.75749">
        <ele>2054</ele>
        <time>2022-06-12T07:50:33Z</time>
      </trkpt>
      <trkpt lat="44.24833" lon="6.75749">
        <ele>2054</ele>
        <time>2022-06-12T07:50:34Z</time>
      </trkpt>
      <trkpt lat="44.24833" lon="6.75749">
        <ele>2054</ele>
        <time>2022-06-12T07:50:35Z</time>
      </trkpt>
      <trkpt lat="44.24833" lon="6.75749">
        <ele>2054</ele>
        <time>2022-06-12T07:50:36Z</time>
      </trkpt>
      <trkpt lat="44.24833" lon="6.75749">
        <ele>2054</ele>
        <time>2022-06-12T07:50:37Z</time>
      </trkpt>
      <trkpt lat="44.24833" lon="6.75749">
        <ele>2054</ele>
        <time>2022-06-12T07:50:38Z</time>
      </trkpt>
      <trkpt lat="44.24833" lon="6.75749">
        <ele>2054</ele>
        <time>2022-06-12T07:50:39Z</time>
      </trkpt>
      <trkpt lat="44.24852" lon="6.75705">
        <ele>2057</ele>
        <time>2022-06-12T07:50:40Z</time>
      </trkpt>
      <trkpt lat="44.24855" lon="6.75697">
        <ele>2054.4</ele>
        <time>2022-06-12T07:50:41Z</time>
      </trkpt>
      <trkpt lat="44.24861" lon="6.75682">
        <ele>2042.1</ele>
        <time>2022-06-12T07:50:42Z</time>
      </trkpt>
      <trkpt lat="44.24863" lon="6.75681">
        <ele>2041.8</ele>
        <time>2022-06-12T07:50:43Z</time>
      </trkpt>
      <trkpt lat="44.24865" lon="6.75679">
        <ele>2040.3</ele>
        <time>2022-06-12T07:50:44Z</time>
      </trkpt>
      <trkpt lat="44.24868" lon="6.75681">
        <ele>2043.6</ele>
        <time>2022-06-12T07:50:45Z</time>
      </trkpt>
      <trkpt lat="44.2487" lon="6.75682">
        <ele>2045.2</ele>
        <time>2022-06-12T07:50:46Z</time>
      </trkpt>
      <trkpt lat="44.24873" lon="6.7568">
        <ele>2044.5</ele>
        <time>2022-06-12T07:50:47Z</time>
      </trkpt>
      <trkpt lat="44.24875" lon="6.75678">
        <ele>2043.5</ele>
        <time>2022-06-12T07:50:48Z</time>
      </trkpt>
      <trkpt lat="44.24877" lon="6.75678">
        <ele>2044.4</ele>
        <time>2022-06-12T07:50:49Z</time>
      </trkpt>
      <trkpt lat="44.2488" lon="6.75677">
        <ele>2044.2</ele>
        <time>2022-06-12T07:50:50Z</time>
      </trkpt>
      <trkpt lat="44.24882" lon="6.75676">
        <ele>2044.1</ele>
        <time>2022-06-12T07:50:51Z</time>
      </trkpt>
      <trkpt lat="44.24884" lon="6.75676">
        <ele>2044.4</ele>
        <time>2022-06-12T07:50:52Z</time>
      </trkpt>
      <trkpt lat="44.24886" lon="6.75675">
        <ele>2044.4</ele>
        <time>2022-06-12T07:50:53Z</time>
      </trkpt>
      <trkpt lat="44.24889" lon="6.75674">
        <ele>2045</ele>
        <time>2022-06-12T07:50:54Z</time>
      </trkpt>
      <trkpt lat="44.24891" lon="6.75674">
        <ele>2045.2</ele>
        <time>2022-06-12T07:50:55Z</time>
      </trkpt>
      <trkpt lat="44.24894" lon="6.75673">
        <ele>2045.4</ele>
        <time>2022-06-12T07:50:56Z</time>
      </trkpt>
      <trkpt lat="44.24896" lon="6.75673">
        <ele>2046</ele>
        <time>2022-06-12T07:50:57Z</time>
      </trkpt>
      <trkpt lat="44.24898" lon="6.75674">
        <ele>2046.8</ele>
        <time>2022-06-12T07:50:58Z</time>
      </trkpt>
      <trkpt lat="44.249" lon="6.75675">
        <ele>2048.2</ele>
        <time>2022-06-12T07:50:59Z</time>
      </trkpt>
      <trkpt lat="44.24902" lon="6.75675">
        <ele>2049.1</ele>
        <time>2022-06-12T07:51:00Z</time>
      </trkpt>
      <trkpt lat="44.24905" lon="6.75675">
        <ele>2049.9</ele>
        <time>2022-06-12T07:51:01Z</time>
      </trkpt>
      <trkpt lat="44.24907" lon="6.75676">
        <ele>2051.1</ele>
        <time>2022-06-12T07:51:02Z</time>
      </trkpt>
      <trkpt lat="44.24909" lon="6.75676">
        <ele>2051.6</ele>
        <time>2022-06-12T07:51:03Z</time>
      </trkpt>
      <trkpt lat="44.24912" lon="6.75677">
        <ele>2052.6</ele>
        <time>2022-06-12T07:51:04Z</time>
      </trkpt>
      <trkpt lat="44.24914" lon="6.75677">
        <ele>2053.5</ele>
        <time>2022-06-12T07:51:05Z</time>
      </trkpt>
      <trkpt lat="44.24916" lon="6.75677">
        <ele>2054.1</ele>
        <time>2022-06-12T07:51:06Z</time>
      </trkpt>
      <trkpt lat="44.24918" lon="6.75676">
        <ele>2053.7</ele>
        <time>2022-06-12T07:51:07Z</time>
      </trkpt>
      <trkpt lat="44.24921" lon="6.75676">
        <ele>2053.7</ele>
        <time>2022-06-12T07:51:08Z</time>
      </trkpt>
      <trkpt lat="44.24923" lon="6.75675">
        <ele>2053.6</ele>
        <time>2022-06-12T07:51:09Z</time>
      </trkpt>
      <trkpt lat="44.24925" lon="6.75674">
        <ele>2053.2</ele>
        <time>2022-06-12T07:51:10Z</time>
      </trkpt>
      <trkpt lat="44.24927" lon="6.75673">
        <ele>2053.3</ele>
        <time>2022-06-12T07:51:11Z</time>
      </trkpt>
      <trkpt lat="44.2493" lon="6.75672">
        <ele>2053.1</ele>
        <time>2022-06-12T07:51:12Z</time>
      </trkpt>
      <trkpt lat="44.24932" lon="6.75672">
        <ele>2053.2</ele>
        <time>2022-06-12T07:51:13Z</time>
      </trkpt>
      <trkpt lat="44.24934" lon="6.75671">
        <ele>2053</ele>
        <time>2022-06-12T07:51:14Z</time>
      </trkpt>
      <trkpt lat="44.24936" lon="6.7567">
        <ele>2053.1</ele>
        <time>2022-06-12T07:51:15Z</time>
      </trkpt>
      <trkpt lat="44.24939" lon="6.75669">
        <ele>2053.1</ele>
        <time>2022-06-12T07:51:16Z</time>
      </trkpt>
      <trkpt lat="44.24941" lon="6.75668">
        <ele>2052.9</ele>
        <time>2022-06-12T07:51:17Z</time>
      </trkpt>
      <trkpt lat="44.24943" lon="6.75667">
        <ele>2052.9</ele>
        <time>2022-06-12T07:51:18Z</time>
      </trkpt>
      <trkpt lat="44.24946" lon="6.75666">
        <ele>2052.8</ele>
        <time>2022-06-12T07:51:19Z</time>
      </trkpt>
      <trkpt lat="44.24948" lon="6.75665">
        <ele>2052.6</ele>
        <time>2022-06-12T07:51:20Z</time>
      </trkpt>
      <trkpt lat="44.2495" lon="6.75664">
        <ele>2052.5</ele>
        <time>2022-06-12T07:51:21Z</time>
      </trkpt>
      <trkpt lat="44.24952" lon="6.75663">
        <ele>2052.4</ele>
        <time>2022-06-12T07:51:22Z</time>
      </trkpt>
      <trkpt lat="44.24954" lon="6.75662">
        <ele>2052.2</ele>
        <time>2022-06-12T07:51:23Z</time>
      </trkpt>
      <trkpt lat="44.24957" lon="6.75661">
        <ele>2052.2</ele>
        <time>2022-06-12T07:51:24Z</time>
      </trkpt>
      <trkpt lat="44.24959" lon="6.75661">
        <ele>2052.5</ele>
        <time>2022-06-12T07:51:25Z</time>
      </trkpt>
      <trkpt lat="44.24961" lon="6.75661">
        <ele>2053.1</ele>
        <time>2022-06-12T07:51:26Z</time>
      </trkpt>
      <trkpt lat="44.24963" lon="6.75661">
        <ele>2053.8</ele>
        <time>2022-06-12T07:51:27Z</time>
      </trkpt>
      <trkpt lat="44.24966" lon="6.75661">
        <ele>2054.4</ele>
        <time>2022-06-12T07:51:28Z</time>
      </trkpt>
      <trkpt lat="44.24968" lon="6.75661">
        <ele>2055.3</ele>
        <time>2022-06-12T07:51:29Z</time>
      </trkpt>
      <trkpt lat="44.2497" lon="6.75661">
        <ele>2055.8</ele>
        <time>2022-06-12T07:51:30Z</time>
      </trkpt>
      <trkpt lat="44.24972" lon="6.75661">
        <ele>2056.5</ele>
        <time>2022-06-12T07:51:31Z</time>
      </trkpt>
      <trkpt lat="44.24974" lon="6.75662">
        <ele>2057.5</ele>
        <time>2022-06-12T07:51:32Z</time>
      </trkpt>
      <trkpt lat="44.24977" lon="6.75662">
        <ele>2058.5</ele>
        <time>2022-06-12T07:51:33Z</time>
      </trkpt>
      <trkpt lat="44.24979" lon="6.75662">
        <ele>2059.2</ele>
        <time>2022-06-12T07:51:34Z</time>
      </trkpt>
      <trkpt lat="44.24981" lon="6.75663">
        <ele>2059.9</ele>
        <time>2022-06-12T07:51:35Z</time>
      </trkpt>
      <trkpt lat="44.24983" lon="6.75663">
        <ele>2060.7</ele>
        <time>2022-06-12T07:51:36Z</time>
      </trkpt>
      <trkpt lat="44.24986" lon="6.75663">
        <ele>2061.5</ele>
        <time>2022-06-12T07:51:37Z</time>
      </trkpt>
      <trkpt lat="44.24988" lon="6.75663">
        <ele>2062.1</ele>
        <time>2022-06-12T07:51:38Z</time>
      </trkpt>
      <trkpt lat="44.2499" lon="6.75662">
        <ele>2062.4</ele>
        <time>2022-06-12T07:51:39Z</time>
      </trkpt>
      <trkpt lat="44.24992" lon="6.75662">
        <ele>2062.8</ele>
        <time>2022-06-12T07:51:40Z</time>
      </trkpt>
      <trkpt lat="44.24994" lon="6.75661">
        <ele>2062.9</ele>
        <time>2022-06-12T07:51:41Z</time>
      </trkpt>
      <trkpt lat="44.24996" lon="6.7566">
        <ele>2063</ele>
        <time>2022-06-12T07:51:42Z</time>
      </trkpt>
      <trkpt lat="44.24998" lon="6.75659">
        <ele>2062.9</ele>
        <time>2022-06-12T07:51:43Z</time>
      </trkpt>
      <trkpt lat="44.25" lon="6.75658">
        <ele>2063</ele>
        <time>2022-06-12T07:51:44Z</time>
      </trkpt>
      <trkpt lat="44.25002" lon="6.75657">
        <ele>2063</ele>
        <time>2022-06-12T07:51:45Z</time>
      </trkpt>
      <trkpt lat="44.25004" lon="6.75656">
        <ele>2063</ele>
        <time>2022-06-12T07:51:46Z</time>
      </trkpt>
      <trkpt lat="44.25006" lon="6.75654">
        <ele>2062.4</ele>
        <time>2022-06-12T07:51:47Z</time>
      </trkpt>
      <trkpt lat="44.25008" lon="6.75652">
        <ele>2061.9</ele>
        <time>2022-06-12T07:51:48Z</time>
      </trkpt>
      <trkpt lat="44.25009" lon="6.7565">
        <ele>2061.3</ele>
        <time>2022-06-12T07:51:49Z</time>
      </trkpt>
      <trkpt lat="44.25011" lon="6.75648">
        <ele>2061.2</ele>
        <time>2022-06-12T07:51:50Z</time>
      </trkpt>
      <trkpt lat="44.25013" lon="6.75647">
        <ele>2060.9</ele>
        <time>2022-06-12T07:51:51Z</time>
      </trkpt>
      <trkpt lat="44.25015" lon="6.75645">
        <ele>2060.5</ele>
        <time>2022-06-12T07:51:52Z</time>
      </trkpt>
      <trkpt lat="44.25017" lon="6.75643">
        <ele>2060.2</ele>
        <time>2022-06-12T07:51:53Z</time>
      </trkpt>
      <trkpt lat="44.25018" lon="6.75641">
        <ele>2059.8</ele>
        <time>2022-06-12T07:51:54Z</time>
      </trkpt>
      <trkpt lat="44.2502" lon="6.75639">
        <ele>2059.5</ele>
        <time>2022-06-12T07:51:55Z</time>
      </trkpt>
      <trkpt lat="44.25022" lon="6.75638">
        <ele>2059.2</ele>
        <time>2022-06-12T07:51:56Z</time>
      </trkpt>
      <trkpt lat="44.25024" lon="6.75636">
        <ele>2058.9</ele>
        <time>2022-06-12T07:51:57Z</time>
      </trkpt>
      <trkpt lat="44.25026" lon="6.75634">
        <ele>2058.7</ele>
        <time>2022-06-12T07:51:58Z</time>
      </trkpt>
      <trkpt lat="44.25028" lon="6.75632">
        <ele>2058.8</ele>
        <time>2022-06-12T07:51:59Z</time>
      </trkpt>
      <trkpt lat="44.2503" lon="6.75631">
        <ele>2059</ele>
        <time>2022-06-12T07:52:00Z</time>
      </trkpt>
      <trkpt lat="44.25032" lon="6.75631">
        <ele>2059.6</ele>
        <time>2022-06-12T07:52:01Z</time>
      </trkpt>
      <trkpt lat="44.25034" lon="6.75629">
        <ele>2059.8</ele>
        <time>2022-06-12T07:52:02Z</time>
      </trkpt>
      <trkpt lat="44.25037" lon="6.75629">
        <ele>2060.5</ele>
        <time>2022-06-12T07:52:03Z</time>
      </trkpt>
      <trkpt lat="44.25039" lon="6.75628">
        <ele>2061</ele>
        <time>2022-06-12T07:52:04Z</time>
      </trkpt>
      <trkpt lat="44.25041" lon="6.75627">
        <ele>2061.4</ele>
        <time>2022-06-12T07:52:05Z</time>
      </trkpt>
      <trkpt lat="44.25044" lon="6.75626">
        <ele>2062</ele>
        <time>2022-06-12T07:52:06Z</time>
      </trkpt>
      <trkpt lat="44.25046" lon="6.75625">
        <ele>2062.5</ele>
        <time>2022-06-12T07:52:07Z</time>
      </trkpt>
      <trkpt lat="44.25048" lon="6.75625">
        <ele>2063.1</ele>
        <time>2022-06-12T07:52:08Z</time>
      </trkpt>
      <trkpt lat="44.2505" lon="6.75624">
        <ele>2063.8</ele>
        <time>2022-06-12T07:52:09Z</time>
      </trkpt>
      <trkpt lat="44.25052" lon="6.75623">
        <ele>2064.3</ele>
        <time>2022-06-12T07:52:10Z</time>
      </trkpt>
      <trkpt lat="44.25055" lon="6.75623">
        <ele>2065.2</ele>
        <time>2022-06-12T07:52:11Z</time>
      </trkpt>
      <trkpt lat="44.25057" lon="6.75623">
        <ele>2066.2</ele>
        <time>2022-06-12T07:52:12Z</time>
      </trkpt>
      <trkpt lat="44.2506" lon="6.75622">
        <ele>2066.8</ele>
        <time>2022-06-12T07:52:13Z</time>
      </trkpt>
      <trkpt lat="44.25062" lon="6.75621">
        <ele>2067.3</ele>
        <time>2022-06-12T07:52:14Z</time>
      </trkpt>
      <trkpt lat="44.25064" lon="6.7562">
        <ele>2067.7</ele>
        <time>2022-06-12T07:52:15Z</time>
      </trkpt>
      <trkpt lat="44.25066" lon="6.75619">
        <ele>2068</ele>
        <time>2022-06-12T07:52:16Z</time>
      </trkpt>
      <trkpt lat="44.25068" lon="6.75617">
        <ele>2068.2</ele>
        <time>2022-06-12T07:52:17Z</time>
      </trkpt>
      <trkpt lat="44.2507" lon="6.75616">
        <ele>2068.4</ele>
        <time>2022-06-12T07:52:18Z</time>
      </trkpt>
      <trkpt lat="44.25073" lon="6.75614">
        <ele>2068.7</ele>
        <time>2022-06-12T07:52:19Z</time>
      </trkpt>
      <trkpt lat="44.25075" lon="6.75613">
        <ele>2069.2</ele>
        <time>2022-06-12T07:52:20Z</time>
      </trkpt>
      <trkpt lat="44.25077" lon="6.75611">
        <ele>2069.3</ele>
        <time>2022-06-12T07:52:21Z</time>
      </trkpt>
      <trkpt lat="44.25079" lon="6.7561">
        <ele>2069.4</ele>
        <time>2022-06-12T07:52:22Z</time>
      </trkpt>
      <trkpt lat="44.25081" lon="6.75608">
        <ele>2069.4</ele>
        <time>2022-06-12T07:52:23Z</time>
      </trkpt>
      <trkpt lat="44.25083" lon="6.75606">
        <ele>2069.3</ele>
        <time>2022-06-12T07:52:24Z</time>
      </trkpt>
      <trkpt lat="44.25085" lon="6.75604">
        <ele>2069.3</ele>
        <time>2022-06-12T07:52:25Z</time>
      </trkpt>
      <trkpt lat="44.25087" lon="6.75603">
        <ele>2069.3</ele>
        <time>2022-06-12T07:52:26Z</time>
      </trkpt>
      <trkpt lat="44.25088" lon="6.756">
        <ele>2069</ele>
        <time>2022-06-12T07:52:27Z</time>
      </trkpt>
      <trkpt lat="44.2509" lon="6.75599">
        <ele>2069</ele>
        <time>2022-06-12T07:52:28Z</time>
      </trkpt>
      <trkpt lat="44.25092" lon="6.75597">
        <ele>2069.1</ele>
        <time>2022-06-12T07:52:29Z</time>
      </trkpt>
      <trkpt lat="44.25094" lon="6.75595">
        <ele>2069</ele>
        <time>2022-06-12T07:52:30Z</time>
      </trkpt>
      <trkpt lat="44.25097" lon="6.75594">
        <ele>2069.3</ele>
        <time>2022-06-12T07:52:31Z</time>
      </trkpt>
      <trkpt lat="44.25099" lon="6.75592">
        <ele>2069.3</ele>
        <time>2022-06-12T07:52:32Z</time>
      </trkpt>
      <trkpt lat="44.25101" lon="6.75591">
        <ele>2069.4</ele>
        <time>2022-06-12T07:52:33Z</time>
      </trkpt>
      <trkpt lat="44.25103" lon="6.75589">
        <ele>2069.2</ele>
        <time>2022-06-12T07:52:34Z</time>
      </trkpt>
      <trkpt lat="44.25106" lon="6.75587">
        <ele>2069.7</ele>
        <time>2022-06-12T07:52:35Z</time>
      </trkpt>
      <trkpt lat="44.25108" lon="6.75587">
        <ele>2070.2</ele>
        <time>2022-06-12T07:52:36Z</time>
      </trkpt>
      <trkpt lat="44.2511" lon="6.75586">
        <ele>2070.6</ele>
        <time>2022-06-12T07:52:37Z</time>
      </trkpt>
      <trkpt lat="44.25111" lon="6.75585">
        <ele>2070.6</ele>
        <time>2022-06-12T07:52:38Z</time>
      </trkpt>
      <trkpt lat="44.25113" lon="6.75584">
        <ele>2071.3</ele>
        <time>2022-06-12T07:52:39Z</time>
      </trkpt>
      <trkpt lat="44.25115" lon="6.75582">
        <ele>2071.2</ele>
        <time>2022-06-12T07:52:40Z</time>
      </trkpt>
      <trkpt lat="44.25117" lon="6.75581">
        <ele>2071.5</ele>
        <time>2022-06-12T07:52:41Z</time>
      </trkpt>
      <trkpt lat="44.2512" lon="6.75579">
        <ele>2071.8</ele>
        <time>2022-06-12T07:52:42Z</time>
      </trkpt>
      <trkpt lat="44.25122" lon="6.75577">
        <ele>2072.1</ele>
        <time>2022-06-12T07:52:43Z</time>
      </trkpt>
      <trkpt lat="44.25125" lon="6.75575">
        <ele>2072.3</ele>
        <time>2022-06-12T07:52:44Z</time>
      </trkpt>
      <trkpt lat="44.25128" lon="6.75572">
        <ele>2072.3</ele>
        <time>2022-06-12T07:52:45Z</time>
      </trkpt>
      <trkpt lat="44.2513" lon="6.7557">
        <ele>2072.6</ele>
        <time>2022-06-12T07:52:46Z</time>
      </trkpt>
      <trkpt lat="44.25132" lon="6.75569">
        <ele>2073.1</ele>
        <time>2022-06-12T07:52:47Z</time>
      </trkpt>
      <trkpt lat="44.25134" lon="6.75567">
        <ele>2073.2</ele>
        <time>2022-06-12T07:52:48Z</time>
      </trkpt>
      <trkpt lat="44.25136" lon="6.75565">
        <ele>2073.3</ele>
        <time>2022-06-12T07:52:49Z</time>
      </trkpt>
      <trkpt lat="44.25138" lon="6.75563">
        <ele>2073.4</ele>
        <time>2022-06-12T07:52:50Z</time>
      </trkpt>
      <trkpt lat="44.2514" lon="6.75561">
        <ele>2073.3</ele>
        <time>2022-06-12T07:52:51Z</time>
      </trkpt>
      <trkpt lat="44.25142" lon="6.75558">
        <ele>2073.2</ele>
        <time>2022-06-12T07:52:52Z</time>
      </trkpt>
      <trkpt lat="44.25143" lon="6.75556">
        <ele>2073.1</ele>
        <time>2022-06-12T07:52:53Z</time>
      </trkpt>
      <trkpt lat="44.25145" lon="6.75554">
        <ele>2073.2</ele>
        <time>2022-06-12T07:52:54Z</time>
      </trkpt>
      <trkpt lat="44.25147" lon="6.75552">
        <ele>2073.3</ele>
        <time>2022-06-12T07:52:55Z</time>
      </trkpt>
      <trkpt lat="44.25148" lon="6.75549">
        <ele>2073.2</ele>
        <time>2022-06-12T07:52:56Z</time>
      </trkpt>
      <trkpt lat="44.2515" lon="6.75547">
        <ele>2073.1</ele>
        <time>2022-06-12T07:52:57Z</time>
      </trkpt>
      <trkpt lat="44.25152" lon="6.75545">
        <ele>2073.3</ele>
        <time>2022-06-12T07:52:58Z</time>
      </trkpt>
      <trkpt lat="44.25154" lon="6.75543">
        <ele>2073.6</ele>
        <time>2022-06-12T07:52:59Z</time>
      </trkpt>
      <trkpt lat="44.25155" lon="6.75541">
        <ele>2073.9</ele>
        <time>2022-06-12T07:53:00Z</time>
      </trkpt>
      <trkpt lat="44.25157" lon="6.75538">
        <ele>2074</ele>
        <time>2022-06-12T07:53:01Z</time>
      </trkpt>
      <trkpt lat="44.25159" lon="6.75536">
        <ele>2074.2</ele>
        <time>2022-06-12T07:53:02Z</time>
      </trkpt>
      <trkpt lat="44.2516" lon="6.75533">
        <ele>2074.3</ele>
        <time>2022-06-12T07:53:03Z</time>
      </trkpt>
      <trkpt lat="44.25162" lon="6.75531">
        <ele>2074.4</ele>
        <time>2022-06-12T07:53:04Z</time>
      </trkpt>
      <trkpt lat="44.25164" lon="6.75529">
        <ele>2074.6</ele>
        <time>2022-06-12T07:53:05Z</time>
      </trkpt>
      <trkpt lat="44.25165" lon="6.75526">
        <ele>2074.8</ele>
        <time>2022-06-12T07:53:06Z</time>
      </trkpt>
      <trkpt lat="44.25167" lon="6.75524">
        <ele>2075.1</ele>
        <time>2022-06-12T07:53:07Z</time>
      </trkpt>
      <trkpt lat="44.25168" lon="6.75521">
        <ele>2075.3</ele>
        <time>2022-06-12T07:53:08Z</time>
      </trkpt>
      <trkpt lat="44.2517" lon="6.75519">
        <ele>2075.6</ele>
        <time>2022-06-12T07:53:09Z</time>
      </trkpt>
      <trkpt lat="44.25171" lon="6.75517">
        <ele>2075.6</ele>
        <time>2022-06-12T07:53:10Z</time>
      </trkpt>
      <trkpt lat="44.25172" lon="6.75514">
        <ele>2075.6</ele>
        <time>2022-06-12T07:53:11Z</time>
      </trkpt>
      <trkpt lat="44.25173" lon="6.75511">
        <ele>2075.4</ele>
        <time>2022-06-12T07:53:12Z</time>
      </trkpt>
      <trkpt lat="44.25174" lon="6.75508">
        <ele>2075.3</ele>
        <time>2022-06-12T07:53:13Z</time>
      </trkpt>
      <trkpt lat="44.25175" lon="6.75505">
        <ele>2075.1</ele>
        <time>2022-06-12T07:53:14Z</time>
      </trkpt>
      <trkpt lat="44.25177" lon="6.75503">
        <ele>2075.1</ele>
        <time>2022-06-12T07:53:15Z</time>
      </trkpt>
      <trkpt lat="44.25178" lon="6.755">
        <ele>2075.1</ele>
        <time>2022-06-12T07:53:16Z</time>
      </trkpt>
      <trkpt lat="44.25179" lon="6.75497">
        <ele>2075.3</ele>
        <time>2022-06-12T07:53:17Z</time>
      </trkpt>
      <trkpt lat="44.2518" lon="6.75495">
        <ele>2075.4</ele>
        <time>2022-06-12T07:53:18Z</time>
      </trkpt>
      <trkpt lat="44.25181" lon="6.75492">
        <ele>2075.5</ele>
        <time>2022-06-12T07:53:19Z</time>
      </trkpt>
      <trkpt lat="44.25183" lon="6.7549">
        <ele>2075.7</ele>
        <time>2022-06-12T07:53:20Z</time>
      </trkpt>
      <trkpt lat="44.25184" lon="6.75487">
        <ele>2076</ele>
        <time>2022-06-12T07:53:21Z</time>
      </trkpt>
      <trkpt lat="44.25185" lon="6.75484">
        <ele>2075.9</ele>
        <time>2022-06-12T07:53:22Z</time>
      </trkpt>
      <trkpt lat="44.25186" lon="6.75481">
        <ele>2075.8</ele>
        <time>2022-06-12T07:53:23Z</time>
      </trkpt>
      <trkpt lat="44.25187" lon="6.75479">
        <ele>2076</ele>
        <time>2022-06-12T07:53:24Z</time>
      </trkpt>
      <trkpt lat="44.25189" lon="6.75476">
        <ele>2076.4</ele>
        <time>2022-06-12T07:53:25Z</time>
      </trkpt>
      <trkpt lat="44.25191" lon="6.75474">
        <ele>2076.8</ele>
        <time>2022-06-12T07:53:26Z</time>
      </trkpt>
      <trkpt lat="44.25193" lon="6.75472">
        <ele>2077.1</ele>
        <time>2022-06-12T07:53:27Z</time>
      </trkpt>
      <trkpt lat="44.25194" lon="6.75471">
        <ele>2077.6</ele>
        <time>2022-06-12T07:53:28Z</time>
      </trkpt>
      <trkpt lat="44.25196" lon="6.75469">
        <ele>2077.8</ele>
        <time>2022-06-12T07:53:29Z</time>
      </trkpt>
      <trkpt lat="44.25198" lon="6.75468">
        <ele>2078</ele>
        <time>2022-06-12T07:53:30Z</time>
      </trkpt>
      <trkpt lat="44.25201" lon="6.75467">
        <ele>2078.4</ele>
        <time>2022-06-12T07:53:31Z</time>
      </trkpt>
      <trkpt lat="44.25203" lon="6.75466">
        <ele>2078.7</ele>
        <time>2022-06-12T07:53:32Z</time>
      </trkpt>
      <trkpt lat="44.25205" lon="6.75465">
        <ele>2079.2</ele>
        <time>2022-06-12T07:53:33Z</time>
      </trkpt>
      <trkpt lat="44.25207" lon="6.75465">
        <ele>2079.5</ele>
        <time>2022-06-12T07:53:34Z</time>
      </trkpt>
      <trkpt lat="44.25209" lon="6.75465">
        <ele>2080.1</ele>
        <time>2022-06-12T07:53:35Z</time>
      </trkpt>
      <trkpt lat="44.25211" lon="6.75465">
        <ele>2080.6</ele>
        <time>2022-06-12T07:53:36Z</time>
      </trkpt>
      <trkpt lat="44.25213" lon="6.75464">
        <ele>2081.1</ele>
        <time>2022-06-12T07:53:37Z</time>
      </trkpt>
      <trkpt lat="44.25215" lon="6.75464">
        <ele>2081.6</ele>
        <time>2022-06-12T07:53:38Z</time>
      </trkpt>
      <trkpt lat="44.25218" lon="6.75464">
        <ele>2082.1</ele>
        <time>2022-06-12T07:53:39Z</time>
      </trkpt>
      <trkpt lat="44.2522" lon="6.75463">
        <ele>2082.4</ele>
        <time>2022-06-12T07:53:40Z</time>
      </trkpt>
      <trkpt lat="44.25222" lon="6.75463">
        <ele>2082.8</ele>
        <time>2022-06-12T07:53:41Z</time>
      </trkpt>
      <trkpt lat="44.25224" lon="6.75462">
        <ele>2083.1</ele>
        <time>2022-06-12T07:53:42Z</time>
      </trkpt>
      <trkpt lat="44.25226" lon="6.75461">
        <ele>2083.4</ele>
        <time>2022-06-12T07:53:43Z</time>
      </trkpt>
      <trkpt lat="44.25228" lon="6.7546">
        <ele>2083.4</ele>
        <time>2022-06-12T07:53:44Z</time>
      </trkpt>
      <trkpt lat="44.2523" lon="6.75458">
        <ele>2083.3</ele>
        <time>2022-06-12T07:53:45Z</time>
      </trkpt>
      <trkpt lat="44.25232" lon="6.75456">
        <ele>2083</ele>
        <time>2022-06-12T07:53:46Z</time>
      </trkpt>
      <trkpt lat="44.25233" lon="6.75454">
        <ele>2082.6</ele>
        <time>2022-06-12T07:53:47Z</time>
      </trkpt>
      <trkpt lat="44.25235" lon="6.75451">
        <ele>2082.1</ele>
        <time>2022-06-12T07:53:48Z</time>
      </trkpt>
      <trkpt lat="44.25236" lon="6.75449">
        <ele>2081.6</ele>
        <time>2022-06-12T07:53:49Z</time>
      </trkpt>
      <trkpt lat="44.25238" lon="6.75447">
        <ele>2081.2</ele>
        <time>2022-06-12T07:53:50Z</time>
      </trkpt>
      <trkpt lat="44.25239" lon="6.75445">
        <ele>2080.7</ele>
        <time>2022-06-12T07:53:51Z</time>
      </trkpt>
      <trkpt lat="44.25241" lon="6.75443">
        <ele>2080.9</ele>
        <time>2022-06-12T07:53:52Z</time>
      </trkpt>
      <trkpt lat="44.25242" lon="6.7544">
        <ele>2081.1</ele>
        <time>2022-06-12T07:53:53Z</time>
      </trkpt>
      <trkpt lat="44.25244" lon="6.75438">
        <ele>2081.4</ele>
        <time>2022-06-12T07:53:54Z</time>
      </trkpt>
      <trkpt lat="44.25245" lon="6.75435">
        <ele>2081.7</ele>
        <time>2022-06-12T07:53:55Z</time>
      </trkpt>
      <trkpt lat="44.25246" lon="6.75433">
        <ele>2082</ele>
        <time>2022-06-12T07:53:56Z</time>
      </trkpt>
      <trkpt lat="44.25248" lon="6.7543">
        <ele>2082.3</ele>
        <time>2022-06-12T07:53:57Z</time>
      </trkpt>
      <trkpt lat="44.25249" lon="6.75427">
        <ele>2082.6</ele>
        <time>2022-06-12T07:53:58Z</time>
      </trkpt>
      <trkpt lat="44.2525" lon="6.75424">
        <ele>2082.9</ele>
        <time>2022-06-12T07:53:59Z</time>
      </trkpt>
      <trkpt lat="44.25251" lon="6.75421">
        <ele>2083.2</ele>
        <time>2022-06-12T07:54:00Z</time>
      </trkpt>
      <trkpt lat="44.25252" lon="6.75419">
        <ele>2083.6</ele>
        <time>2022-06-12T07:54:01Z</time>
      </trkpt>
      <trkpt lat="44.25252" lon="6.75416">
        <ele>2083.9</ele>
        <time>2022-06-12T07:54:02Z</time>
      </trkpt>
      <trkpt lat="44.25253" lon="6.75412">
        <ele>2084.3</ele>
        <time>2022-06-12T07:54:03Z</time>
      </trkpt>
      <trkpt lat="44.25254" lon="6.75409">
        <ele>2084.6</ele>
        <time>2022-06-12T07:54:04Z</time>
      </trkpt>
      <trkpt lat="44.25254" lon="6.75407">
        <ele>2084.7</ele>
        <time>2022-06-12T07:54:05Z</time>
      </trkpt>
      <trkpt lat="44.25255" lon="6.75404">
        <ele>2084.9</ele>
        <time>2022-06-12T07:54:06Z</time>
      </trkpt>
      <trkpt lat="44.25255" lon="6.75401">
        <ele>2085.1</ele>
        <time>2022-06-12T07:54:07Z</time>
      </trkpt>
      <trkpt lat="44.25256" lon="6.75398">
        <ele>2085.4</ele>
        <time>2022-06-12T07:54:08Z</time>
      </trkpt>
      <trkpt lat="44.25256" lon="6.75394">
        <ele>2085.6</ele>
        <time>2022-06-12T07:54:09Z</time>
      </trkpt>
      <trkpt lat="44.25256" lon="6.75391">
        <ele>2085.6</ele>
        <time>2022-06-12T07:54:10Z</time>
      </trkpt>
      <trkpt lat="44.25256" lon="6.75388">
        <ele>2085.6</ele>
        <time>2022-06-12T07:54:11Z</time>
      </trkpt>
      <trkpt lat="44.25255" lon="6.75385">
        <ele>2085.6</ele>
        <time>2022-06-12T07:54:12Z</time>
      </trkpt>
      <trkpt lat="44.25255" lon="6.75381">
        <ele>2085.7</ele>
        <time>2022-06-12T07:54:13Z</time>
      </trkpt>
      <trkpt lat="44.25255" lon="6.75378">
        <ele>2085.7</ele>
        <time>2022-06-12T07:54:14Z</time>
      </trkpt>
      <trkpt lat="44.25254" lon="6.75375">
        <ele>2085.7</ele>
        <time>2022-06-12T07:54:15Z</time>
      </trkpt>
      <trkpt lat="44.25253" lon="6.75372">
        <ele>2085.6</ele>
        <time>2022-06-12T07:54:16Z</time>
      </trkpt>
      <trkpt lat="44.25252" lon="6.75369">
        <ele>2085.3</ele>
        <time>2022-06-12T07:54:17Z</time>
      </trkpt>
      <trkpt lat="44.25251" lon="6.75367">
        <ele>2085.1</ele>
        <time>2022-06-12T07:54:18Z</time>
      </trkpt>
      <trkpt lat="44.2525" lon="6.75364">
        <ele>2084.8</ele>
        <time>2022-06-12T07:54:19Z</time>
      </trkpt>
      <trkpt lat="44.25249" lon="6.75361">
        <ele>2084.5</ele>
        <time>2022-06-12T07:54:20Z</time>
      </trkpt>
      <trkpt lat="44.25248" lon="6.75358">
        <ele>2084.4</ele>
        <time>2022-06-12T07:54:21Z</time>
      </trkpt>
      <trkpt lat="44.25246" lon="6.75356">
        <ele>2084.2</ele>
        <time>2022-06-12T07:54:22Z</time>
      </trkpt>
      <trkpt lat="44.25245" lon="6.75353">
        <ele>2084.1</ele>
        <time>2022-06-12T07:54:23Z</time>
      </trkpt>
      <trkpt lat="44.25244" lon="6.75351">
        <ele>2083.8</ele>
        <time>2022-06-12T07:54:24Z</time>
      </trkpt>
      <trkpt lat="44.25242" lon="6.75348">
        <ele>2083.6</ele>
        <time>2022-06-12T07:54:25Z</time>
      </trkpt>
      <trkpt lat="44.25241" lon="6.75346">
        <ele>2083.4</ele>
        <time>2022-06-12T07:54:26Z</time>
      </trkpt>
      <trkpt lat="44.25239" lon="6.75343">
        <ele>2083.2</ele>
        <time>2022-06-12T07:54:27Z</time>
      </trkpt>
      <trkpt lat="44.25238" lon="6.7534">
        <ele>2083.3</ele>
        <time>2022-06-12T07:54:28Z</time>
      </trkpt>
      <trkpt lat="44.25237" lon="6.75337">
        <ele>2083.3</ele>
        <time>2022-06-12T07:54:29Z</time>
      </trkpt>
      <trkpt lat="44.25236" lon="6.75335">
        <ele>2083.4</ele>
        <time>2022-06-12T07:54:30Z</time>
      </trkpt>
      <trkpt lat="44.25236" lon="6.75331">
        <ele>2083.5</ele>
        <time>2022-06-12T07:54:31Z</time>
      </trkpt>
      <trkpt lat="44.25235" lon="6.75328">
        <ele>2083.6</ele>
        <time>2022-06-12T07:54:32Z</time>
      </trkpt>
      <trkpt lat="44.25234" lon="6.75326">
        <ele>2083.7</ele>
        <time>2022-06-12T07:54:33Z</time>
      </trkpt>
      <trkpt lat="44.25234" lon="6.75322">
        <ele>2083.9</ele>
        <time>2022-06-12T07:54:34Z</time>
      </trkpt>
      <trkpt lat="44.25233" lon="6.7532">
        <ele>2084</ele>
        <time>2022-06-12T07:54:35Z</time>
      </trkpt>
      <trkpt lat="44.25233" lon="6.75316">
        <ele>2084.3</ele>
        <time>2022-06-12T07:54:36Z</time>
      </trkpt>
      <trkpt lat="44.25233" lon="6.75313">
        <ele>2084.7</ele>
        <time>2022-06-12T07:54:37Z</time>
      </trkpt>
      <trkpt lat="44.25233" lon="6.7531">
        <ele>2085.1</ele>
        <time>2022-06-12T07:54:38Z</time>
      </trkpt>
      <trkpt lat="44.25233" lon="6.75307">
        <ele>2085.6</ele>
        <time>2022-06-12T07:54:39Z</time>
      </trkpt>
      <trkpt lat="44.25234" lon="6.75304">
        <ele>2085.9</ele>
        <time>2022-06-12T07:54:40Z</time>
      </trkpt>
      <trkpt lat="44.25234" lon="6.75301">
        <ele>2086.1</ele>
        <time>2022-06-12T07:54:41Z</time>
      </trkpt>
      <trkpt lat="44.25235" lon="6.75298">
        <ele>2086.3</ele>
        <time>2022-06-12T07:54:42Z</time>
      </trkpt>
      <trkpt lat="44.25235" lon="6.75295">
        <ele>2086.6</ele>
        <time>2022-06-12T07:54:43Z</time>
      </trkpt>
      <trkpt lat="44.25236" lon="6.75292">
        <ele>2087.1</ele>
        <time>2022-06-12T07:54:44Z</time>
      </trkpt>
      <trkpt lat="44.25237" lon="6.75289">
        <ele>2087.4</ele>
        <time>2022-06-12T07:54:45Z</time>
      </trkpt>
      <trkpt lat="44.25238" lon="6.75286">
        <ele>2087.9</ele>
        <time>2022-06-12T07:54:46Z</time>
      </trkpt>
      <trkpt lat="44.25239" lon="6.75284">
        <ele>2088.4</ele>
        <time>2022-06-12T07:54:47Z</time>
      </trkpt>
      <trkpt lat="44.25241" lon="6.75281">
        <ele>2088.9</ele>
        <time>2022-06-12T07:54:48Z</time>
      </trkpt>
      <trkpt lat="44.25242" lon="6.75279">
        <ele>2089.5</ele>
        <time>2022-06-12T07:54:49Z</time>
      </trkpt>
      <trkpt lat="44.25243" lon="6.75276">
        <ele>2090</ele>
        <time>2022-06-12T07:54:50Z</time>
      </trkpt>
      <trkpt lat="44.25245" lon="6.75273">
        <ele>2090.5</ele>
        <time>2022-06-12T07:54:51Z</time>
      </trkpt>
      <trkpt lat="44.25246" lon="6.7527">
        <ele>2090.8</ele>
        <time>2022-06-12T07:54:52Z</time>
      </trkpt>
      <trkpt lat="44.25247" lon="6.75268">
        <ele>2091.2</ele>
        <time>2022-06-12T07:54:53Z</time>
      </trkpt>
      <trkpt lat="44.25248" lon="6.75266">
        <ele>2091.7</ele>
        <time>2022-06-12T07:54:54Z</time>
      </trkpt>
      <trkpt lat="44.25249" lon="6.75263">
        <ele>2092.2</ele>
        <time>2022-06-12T07:54:55Z</time>
      </trkpt>
      <trkpt lat="44.25251" lon="6.7526">
        <ele>2092.6</ele>
        <time>2022-06-12T07:54:56Z</time>
      </trkpt>
      <trkpt lat="44.25252" lon="6.75258">
        <ele>2093</ele>
        <time>2022-06-12T07:54:57Z</time>
      </trkpt>
      <trkpt lat="44.25253" lon="6.75255">
        <ele>2093.4</ele>
        <time>2022-06-12T07:54:58Z</time>
      </trkpt>
      <trkpt lat="44.25254" lon="6.75252">
        <ele>2093.7</ele>
        <time>2022-06-12T07:54:59Z</time>
      </trkpt>
      <trkpt lat="44.25254" lon="6.75249">
        <ele>2093.9</ele>
        <time>2022-06-12T07:55:00Z</time>
      </trkpt>
      <trkpt lat="44.25255" lon="6.75246">
        <ele>2094</ele>
        <time>2022-06-12T07:55:01Z</time>
      </trkpt>
      <trkpt lat="44.25256" lon="6.75244">
        <ele>2094.2</ele>
        <time>2022-06-12T07:55:02Z</time>
      </trkpt>
      <trkpt lat="44.25257" lon="6.75241">
        <ele>2094.4</ele>
        <time>2022-06-12T07:55:03Z</time>
      </trkpt>
      <trkpt lat="44.25258" lon="6.75238">
        <ele>2094.7</ele>
        <time>2022-06-12T07:55:04Z</time>
      </trkpt>
      <trkpt lat="44.2526" lon="6.75236">
        <ele>2095.2</ele>
        <time>2022-06-12T07:55:05Z</time>
      </trkpt>
      <trkpt lat="44.25261" lon="6.75234">
        <ele>2095.7</ele>
        <time>2022-06-12T07:55:06Z</time>
      </trkpt>
      <trkpt lat="44.25263" lon="6.75231">
        <ele>2096.2</ele>
        <time>2022-06-12T07:55:07Z</time>
      </trkpt>
      <trkpt lat="44.25264" lon="6.75229">
        <ele>2096.5</ele>
        <time>2022-06-12T07:55:08Z</time>
      </trkpt>
      <trkpt lat="44.25265" lon="6.75226">
        <ele>2096.8</ele>
        <time>2022-06-12T07:55:09Z</time>
      </trkpt>
      <trkpt lat="44.25266" lon="6.75223">
        <ele>2096.9</ele>
        <time>2022-06-12T07:55:10Z</time>
      </trkpt>
      <trkpt lat="44.25267" lon="6.7522">
        <ele>2097</ele>
        <time>2022-06-12T07:55:11Z</time>
      </trkpt>
      <trkpt lat="44.25268" lon="6.75217">
        <ele>2097.2</ele>
        <time>2022-06-12T07:55:12Z</time>
      </trkpt>
      <trkpt lat="44.25269" lon="6.75215">
        <ele>2097.5</ele>
        <time>2022-06-12T07:55:13Z</time>
      </trkpt>
      <trkpt lat="44.2527" lon="6.75212">
        <ele>2097.6</ele>
        <time>2022-06-12T07:55:14Z</time>
      </trkpt>
      <trkpt lat="44.25271" lon="6.7521">
        <ele>2097.7</ele>
        <time>2022-06-12T07:55:15Z</time>
      </trkpt>
      <trkpt lat="44.25273" lon="6.75207">
        <ele>2098.1</ele>
        <time>2022-06-12T07:55:16Z</time>
      </trkpt>
      <trkpt lat="44.25274" lon="6.75205">
        <ele>2098.5</ele>
        <time>2022-06-12T07:55:17Z</time>
      </trkpt>
      <trkpt lat="44.25276" lon="6.75203">
        <ele>2099</ele>
        <time>2022-06-12T07:55:18Z</time>
      </trkpt>
      <trkpt lat="44.25277" lon="6.752">
        <ele>2099.4</ele>
        <time>2022-06-12T07:55:19Z</time>
      </trkpt>
      <trkpt lat="44.25279" lon="6.75198">
        <ele>2099.9</ele>
        <time>2022-06-12T07:55:20Z</time>
      </trkpt>
      <trkpt lat="44.2528" lon="6.75196">
        <ele>2100.5</ele>
        <time>2022-06-12T07:55:21Z</time>
      </trkpt>
      <trkpt lat="44.25282" lon="6.75194">
        <ele>2101</ele>
        <time>2022-06-12T07:55:22Z</time>
      </trkpt>
      <trkpt lat="44.25284" lon="6.75192">
        <ele>2101.3</ele>
        <time>2022-06-12T07:55:23Z</time>
      </trkpt>
      <trkpt lat="44.25285" lon="6.7519">
        <ele>2101.6</ele>
        <time>2022-06-12T07:55:24Z</time>
      </trkpt>
      <trkpt lat="44.25287" lon="6.75188">
        <ele>2101.9</ele>
        <time>2022-06-12T07:55:25Z</time>
      </trkpt>
      <trkpt lat="44.25289" lon="6.75186">
        <ele>2102.2</ele>
        <time>2022-06-12T07:55:26Z</time>
      </trkpt>
      <trkpt lat="44.25291" lon="6.75184">
        <ele>2102.5</ele>
        <time>2022-06-12T07:55:27Z</time>
      </trkpt>
      <trkpt lat="44.25292" lon="6.75182">
        <ele>2102.7</ele>
        <time>2022-06-12T07:55:28Z</time>
      </trkpt>
      <trkpt lat="44.25294" lon="6.7518">
        <ele>2102.9</ele>
        <time>2022-06-12T07:55:29Z</time>
      </trkpt>
      <trkpt lat="44.25296" lon="6.75178">
        <ele>2103.3</ele>
        <time>2022-06-12T07:55:30Z</time>
      </trkpt>
      <trkpt lat="44.25297" lon="6.75176">
        <ele>2103.6</ele>
        <time>2022-06-12T07:55:31Z</time>
      </trkpt>
      <trkpt lat="44.25299" lon="6.75174">
        <ele>2103.9</ele>
        <time>2022-06-12T07:55:32Z</time>
      </trkpt>
      <trkpt lat="44.25301" lon="6.75172">
        <ele>2104.2</ele>
        <time>2022-06-12T07:55:33Z</time>
      </trkpt>
      <trkpt lat="44.25302" lon="6.7517">
        <ele>2104.4</ele>
        <time>2022-06-12T07:55:34Z</time>
      </trkpt>
      <trkpt lat="44.25304" lon="6.75168">
        <ele>2104.6</ele>
        <time>2022-06-12T07:55:35Z</time>
      </trkpt>
      <trkpt lat="44.25306" lon="6.75166">
        <ele>2104.7</ele>
        <time>2022-06-12T07:55:36Z</time>
      </trkpt>
      <trkpt lat="44.25307" lon="6.75164">
        <ele>2104.9</ele>
        <time>2022-06-12T07:55:37Z</time>
      </trkpt>
      <trkpt lat="44.25309" lon="6.75162">
        <ele>2105.3</ele>
        <time>2022-06-12T07:55:38Z</time>
      </trkpt>
      <trkpt lat="44.25311" lon="6.7516">
        <ele>2105.6</ele>
        <time>2022-06-12T07:55:39Z</time>
      </trkpt>
      <trkpt lat="44.25312" lon="6.75158">
        <ele>2106</ele>
        <time>2022-06-12T07:55:40Z</time>
      </trkpt>
      <trkpt lat="44.25314" lon="6.75157">
        <ele>2106.4</ele>
        <time>2022-06-12T07:55:41Z</time>
      </trkpt>
      <trkpt lat="44.25315" lon="6.75155">
        <ele>2106.7</ele>
        <time>2022-06-12T07:55:42Z</time>
      </trkpt>
      <trkpt lat="44.25317" lon="6.75153">
        <ele>2107</ele>
        <time>2022-06-12T07:55:43Z</time>
      </trkpt>
      <trkpt lat="44.25319" lon="6.75151">
        <ele>2107.3</ele>
        <time>2022-06-12T07:55:44Z</time>
      </trkpt>
      <trkpt lat="44.2532" lon="6.75149">
        <ele>2107.7</ele>
        <time>2022-06-12T07:55:45Z</time>
      </trkpt>
      <trkpt lat="44.25322" lon="6.75147">
        <ele>2108.1</ele>
        <time>2022-06-12T07:55:46Z</time>
      </trkpt>
      <trkpt lat="44.25324" lon="6.75145">
        <ele>2108.8</ele>
        <time>2022-06-12T07:55:47Z</time>
      </trkpt>
      <trkpt lat="44.25326" lon="6.75144">
        <ele>2109.5</ele>
        <time>2022-06-12T07:55:48Z</time>
      </trkpt>
      <trkpt lat="44.25328" lon="6.75142">
        <ele>2110.2</ele>
        <time>2022-06-12T07:55:49Z</time>
      </trkpt>
      <trkpt lat="44.25329" lon="6.7514">
        <ele>2110.5</ele>
        <time>2022-06-12T07:55:50Z</time>
      </trkpt>
      <trkpt lat="44.25331" lon="6.75138">
        <ele>2110.9</ele>
        <time>2022-06-12T07:55:51Z</time>
      </trkpt>
      <trkpt lat="44.25332" lon="6.75136">
        <ele>2111.5</ele>
        <time>2022-06-12T07:55:52Z</time>
      </trkpt>
      <trkpt lat="44.25334" lon="6.75134">
        <ele>2111.9</ele>
        <time>2022-06-12T07:55:53Z</time>
      </trkpt>
      <trkpt lat="44.25335" lon="6.75132">
        <ele>2112.1</ele>
        <time>2022-06-12T07:55:54Z</time>
      </trkpt>
      <trkpt lat="44.25336" lon="6.7513">
        <ele>2112</ele>
        <time>2022-06-12T07:55:55Z</time>
      </trkpt>
      <trkpt lat="44.25338" lon="6.75127">
        <ele>2112.2</ele>
        <time>2022-06-12T07:55:56Z</time>
      </trkpt>
      <trkpt lat="44.25339" lon="6.75125">
        <ele>2112.2</ele>
        <time>2022-06-12T07:55:57Z</time>
      </trkpt>
      <trkpt lat="44.2534" lon="6.75123">
        <ele>2112.3</ele>
        <time>2022-06-12T07:55:58Z</time>
      </trkpt>
      <trkpt lat="44.25341" lon="6.7512">
        <ele>2112.1</ele>
        <time>2022-06-12T07:55:59Z</time>
      </trkpt>
      <trkpt lat="44.25342" lon="6.75117">
        <ele>2111.9</ele>
        <time>2022-06-12T07:56:00Z</time>
      </trkpt>
      <trkpt lat="44.25343" lon="6.75114">
        <ele>2111.4</ele>
        <time>2022-06-12T07:56:01Z</time>
      </trkpt>
      <trkpt lat="44.25343" lon="6.75111">
        <ele>2110.6</ele>
        <time>2022-06-12T07:56:02Z</time>
      </trkpt>
      <trkpt lat="44.25344" lon="6.75108">
        <ele>2110.5</ele>
        <time>2022-06-12T07:56:03Z</time>
      </trkpt>
      <trkpt lat="44.25344" lon="6.75105">
        <ele>2110.1</ele>
        <time>2022-06-12T07:56:04Z</time>
      </trkpt>
      <trkpt lat="44.25344" lon="6.75102">
        <ele>2110.1</ele>
        <time>2022-06-12T07:56:05Z</time>
      </trkpt>
      <trkpt lat="44.25345" lon="6.75099">
        <ele>2110</ele>
        <time>2022-06-12T07:56:06Z</time>
      </trkpt>
      <trkpt lat="44.25346" lon="6.75096">
        <ele>2110</ele>
        <time>2022-06-12T07:56:07Z</time>
      </trkpt>
      <trkpt lat="44.25346" lon="6.75093">
        <ele>2110</ele>
        <time>2022-06-12T07:56:08Z</time>
      </trkpt>
      <trkpt lat="44.25347" lon="6.7509">
        <ele>2109.8</ele>
        <time>2022-06-12T07:56:09Z</time>
      </trkpt>
      <trkpt lat="44.25347" lon="6.75087">
        <ele>2109.5</ele>
        <time>2022-06-12T07:56:10Z</time>
      </trkpt>
      <trkpt lat="44.25348" lon="6.75085">
        <ele>2109.3</ele>
        <time>2022-06-12T07:56:11Z</time>
      </trkpt>
      <trkpt lat="44.25348" lon="6.75081">
        <ele>2109.2</ele>
        <time>2022-06-12T07:56:12Z</time>
      </trkpt>
      <trkpt lat="44.25347" lon="6.75078">
        <ele>2109.1</ele>
        <time>2022-06-12T07:56:13Z</time>
      </trkpt>
      <trkpt lat="44.25348" lon="6.75075">
        <ele>2109.3</ele>
        <time>2022-06-12T07:56:14Z</time>
      </trkpt>
      <trkpt lat="44.25348" lon="6.75072">
        <ele>2109.3</ele>
        <time>2022-06-12T07:56:15Z</time>
      </trkpt>
      <trkpt lat="44.25347" lon="6.75068">
        <ele>2109.2</ele>
        <time>2022-06-12T07:56:16Z</time>
      </trkpt>
      <trkpt lat="44.25347" lon="6.75065">
        <ele>2109.1</ele>
        <time>2022-06-12T07:56:17Z</time>
      </trkpt>
      <trkpt lat="44.25346" lon="6.75062">
        <ele>2109</ele>
        <time>2022-06-12T07:56:18Z</time>
      </trkpt>
      <trkpt lat="44.25345" lon="6.75059">
        <ele>2108.6</ele>
        <time>2022-06-12T07:56:19Z</time>
      </trkpt>
      <trkpt lat="44.25344" lon="6.75057">
        <ele>2108.3</ele>
        <time>2022-06-12T07:56:20Z</time>
      </trkpt>
      <trkpt lat="44.25342" lon="6.75054">
        <ele>2108.1</ele>
        <time>2022-06-12T07:56:21Z</time>
      </trkpt>
      <trkpt lat="44.25341" lon="6.75052">
        <ele>2108.1</ele>
        <time>2022-06-12T07:56:22Z</time>
      </trkpt>
      <trkpt lat="44.25339" lon="6.75049">
        <ele>2108</ele>
        <time>2022-06-12T07:56:23Z</time>
      </trkpt>
      <trkpt lat="44.25337" lon="6.75046">
        <ele>2108.1</ele>
        <time>2022-06-12T07:56:24Z</time>
      </trkpt>
      <trkpt lat="44.25335" lon="6.75044">
        <ele>2107.9</ele>
        <time>2022-06-12T07:56:25Z</time>
      </trkpt>
      <trkpt lat="44.25333" lon="6.75042">
        <ele>2107.8</ele>
        <time>2022-06-12T07:56:26Z</time>
      </trkpt>
      <trkpt lat="44.25331" lon="6.7504">
        <ele>2107.7</ele>
        <time>2022-06-12T07:56:27Z</time>
      </trkpt>
      <trkpt lat="44.25329" lon="6.75038">
        <ele>2107.7</ele>
        <time>2022-06-12T07:56:28Z</time>
      </trkpt>
      <trkpt lat="44.25327" lon="6.75036">
        <ele>2107.6</ele>
        <time>2022-06-12T07:56:29Z</time>
      </trkpt>
      <trkpt lat="44.25325" lon="6.75034">
        <ele>2107.4</ele>
        <time>2022-06-12T07:56:30Z</time>
      </trkpt>
      <trkpt lat="44.25323" lon="6.75032">
        <ele>2107.3</ele>
        <time>2022-06-12T07:56:31Z</time>
      </trkpt>
      <trkpt lat="44.25321" lon="6.75031">
        <ele>2107.1</ele>
        <time>2022-06-12T07:56:32Z</time>
      </trkpt>
      <trkpt lat="44.25318" lon="6.75029">
        <ele>2107</ele>
        <time>2022-06-12T07:56:33Z</time>
      </trkpt>
      <trkpt lat="44.25316" lon="6.75027">
        <ele>2106.9</ele>
        <time>2022-06-12T07:56:34Z</time>
      </trkpt>
      <trkpt lat="44.25314" lon="6.75025">
        <ele>2106.8</ele>
        <time>2022-06-12T07:56:35Z</time>
      </trkpt>
      <trkpt lat="44.25312" lon="6.75023">
        <ele>2106.6</ele>
        <time>2022-06-12T07:56:36Z</time>
      </trkpt>
      <trkpt lat="44.2531" lon="6.75021">
        <ele>2106.5</ele>
        <time>2022-06-12T07:56:37Z</time>
      </trkpt>
      <trkpt lat="44.25309" lon="6.75019">
        <ele>2106.4</ele>
        <time>2022-06-12T07:56:38Z</time>
      </trkpt>
      <trkpt lat="44.25307" lon="6.75016">
        <ele>2106.5</ele>
        <time>2022-06-12T07:56:39Z</time>
      </trkpt>
      <trkpt lat="44.25306" lon="6.75014">
        <ele>2106.8</ele>
        <time>2022-06-12T07:56:40Z</time>
      </trkpt>
      <trkpt lat="44.25306" lon="6.75011">
        <ele>2107.2</ele>
        <time>2022-06-12T07:56:41Z</time>
      </trkpt>
      <trkpt lat="44.25305" lon="6.75007">
        <ele>2107.6</ele>
        <time>2022-06-12T07:56:42Z</time>
      </trkpt>
      <trkpt lat="44.25305" lon="6.75004">
        <ele>2108.1</ele>
        <time>2022-06-12T07:56:43Z</time>
      </trkpt>
      <trkpt lat="44.25305" lon="6.75001">
        <ele>2108.8</ele>
        <time>2022-06-12T07:56:44Z</time>
      </trkpt>
      <trkpt lat="44.25306" lon="6.74998">
        <ele>2109.4</ele>
        <time>2022-06-12T07:56:45Z</time>
      </trkpt>
      <trkpt lat="44.25307" lon="6.74995">
        <ele>2110.2</ele>
        <time>2022-06-12T07:56:46Z</time>
      </trkpt>
      <trkpt lat="44.25309" lon="6.74993">
        <ele>2111.2</ele>
        <time>2022-06-12T07:56:47Z</time>
      </trkpt>
      <trkpt lat="44.25311" lon="6.74993">
        <ele>2112</ele>
        <time>2022-06-12T07:56:48Z</time>
      </trkpt>
      <trkpt lat="44.25313" lon="6.74993">
        <ele>2112.8</ele>
        <time>2022-06-12T07:56:49Z</time>
      </trkpt>
      <trkpt lat="44.25315" lon="6.74993">
        <ele>2113.4</ele>
        <time>2022-06-12T07:56:50Z</time>
      </trkpt>
      <trkpt lat="44.25317" lon="6.74995">
        <ele>2113.9</ele>
        <time>2022-06-12T07:56:51Z</time>
      </trkpt>
      <trkpt lat="44.25319" lon="6.74996">
        <ele>2114.4</ele>
        <time>2022-06-12T07:56:52Z</time>
      </trkpt>
      <trkpt lat="44.25322" lon="6.74997">
        <ele>2114.8</ele>
        <time>2022-06-12T07:56:53Z</time>
      </trkpt>
      <trkpt lat="44.25324" lon="6.74999">
        <ele>2115</ele>
        <time>2022-06-12T07:56:54Z</time>
      </trkpt>
      <trkpt lat="44.25326" lon="6.75001">
        <ele>2115.2</ele>
        <time>2022-06-12T07:56:55Z</time>
      </trkpt>
      <trkpt lat="44.25328" lon="6.75003">
        <ele>2115.6</ele>
        <time>2022-06-12T07:56:56Z</time>
      </trkpt>
      <trkpt lat="44.2533" lon="6.75003">
        <ele>2116.1</ele>
        <time>2022-06-12T07:56:57Z</time>
      </trkpt>
      <trkpt lat="44.25332" lon="6.75004">
        <ele>2116.6</ele>
        <time>2022-06-12T07:56:58Z</time>
      </trkpt>
      <trkpt lat="44.25334" lon="6.75005">
        <ele>2116.9</ele>
        <time>2022-06-12T07:56:59Z</time>
      </trkpt>
      <trkpt lat="44.25336" lon="6.75006">
        <ele>2116.9</ele>
        <time>2022-06-12T07:57:00Z</time>
      </trkpt>
      <trkpt lat="44.25339" lon="6.75007">
        <ele>2117.1</ele>
        <time>2022-06-12T07:57:01Z</time>
      </trkpt>
      <trkpt lat="44.25341" lon="6.75007">
        <ele>2117.5</ele>
        <time>2022-06-12T07:57:02Z</time>
      </trkpt>
      <trkpt lat="44.25344" lon="6.75007">
        <ele>2117.8</ele>
        <time>2022-06-12T07:57:03Z</time>
      </trkpt>
      <trkpt lat="44.25347" lon="6.75007">
        <ele>2118.2</ele>
        <time>2022-06-12T07:57:04Z</time>
      </trkpt>
      <trkpt lat="44.25349" lon="6.75007">
        <ele>2118.6</ele>
        <time>2022-06-12T07:57:05Z</time>
      </trkpt>
      <trkpt lat="44.25351" lon="6.75007">
        <ele>2118.9</ele>
        <time>2022-06-12T07:57:06Z</time>
      </trkpt>
      <trkpt lat="44.25354" lon="6.75008">
        <ele>2119.2</ele>
        <time>2022-06-12T07:57:07Z</time>
      </trkpt>
      <trkpt lat="44.25356" lon="6.75008">
        <ele>2119.5</ele>
        <time>2022-06-12T07:57:08Z</time>
      </trkpt>
      <trkpt lat="44.25358" lon="6.75008">
        <ele>2119.8</ele>
        <time>2022-06-12T07:57:09Z</time>
      </trkpt>
      <trkpt lat="44.25361" lon="6.75009">
        <ele>2120</ele>
        <time>2022-06-12T07:57:10Z</time>
      </trkpt>
      <trkpt lat="44.25363" lon="6.75009">
        <ele>2120.7</ele>
        <time>2022-06-12T07:57:11Z</time>
      </trkpt>
      <trkpt lat="44.25365" lon="6.7501">
        <ele>2121.5</ele>
        <time>2022-06-12T07:57:12Z</time>
      </trkpt>
      <trkpt lat="44.25367" lon="6.75011">
        <ele>2122.2</ele>
        <time>2022-06-12T07:57:13Z</time>
      </trkpt>
      <trkpt lat="44.25369" lon="6.75013">
        <ele>2122.7</ele>
        <time>2022-06-12T07:57:14Z</time>
      </trkpt>
      <trkpt lat="44.25371" lon="6.75015">
        <ele>2123.2</ele>
        <time>2022-06-12T07:57:15Z</time>
      </trkpt>
      <trkpt lat="44.25373" lon="6.75017">
        <ele>2123.6</ele>
        <time>2022-06-12T07:57:16Z</time>
      </trkpt>
      <trkpt lat="44.25374" lon="6.75019">
        <ele>2123.9</ele>
        <time>2022-06-12T07:57:17Z</time>
      </trkpt>
      <trkpt lat="44.25376" lon="6.75021">
        <ele>2124.1</ele>
        <time>2022-06-12T07:57:18Z</time>
      </trkpt>
      <trkpt lat="44.25377" lon="6.75023">
        <ele>2124.3</ele>
        <time>2022-06-12T07:57:19Z</time>
      </trkpt>
      <trkpt lat="44.25378" lon="6.75025">
        <ele>2124.2</ele>
        <time>2022-06-12T07:57:20Z</time>
      </trkpt>
      <trkpt lat="44.25378" lon="6.75028">
        <ele>2124</ele>
        <time>2022-06-12T07:57:21Z</time>
      </trkpt>
      <trkpt lat="44.25379" lon="6.75031">
        <ele>2124.2</ele>
        <time>2022-06-12T07:57:22Z</time>
      </trkpt>
      <trkpt lat="44.2538" lon="6.75034">
        <ele>2124.3</ele>
        <time>2022-06-12T07:57:23Z</time>
      </trkpt>
      <trkpt lat="44.25381" lon="6.75037">
        <ele>2124.4</ele>
        <time>2022-06-12T07:57:24Z</time>
      </trkpt>
      <trkpt lat="44.25382" lon="6.7504">
        <ele>2124.6</ele>
        <time>2022-06-12T07:57:25Z</time>
      </trkpt>
      <trkpt lat="44.25383" lon="6.75044">
        <ele>2124.9</ele>
        <time>2022-06-12T07:57:26Z</time>
      </trkpt>
      <trkpt lat="44.25384" lon="6.75047">
        <ele>2125.1</ele>
        <time>2022-06-12T07:57:27Z</time>
      </trkpt>
      <trkpt lat="44.25384" lon="6.7505">
        <ele>2125.3</ele>
        <time>2022-06-12T07:57:28Z</time>
      </trkpt>
      <trkpt lat="44.25385" lon="6.75052">
        <ele>2125.5</ele>
        <time>2022-06-12T07:57:29Z</time>
      </trkpt>
      <trkpt lat="44.25386" lon="6.75055">
        <ele>2125.5</ele>
        <time>2022-06-12T07:57:30Z</time>
      </trkpt>
      <trkpt lat="44.25386" lon="6.75058">
        <ele>2125.8</ele>
        <time>2022-06-12T07:57:31Z</time>
      </trkpt>
      <trkpt lat="44.25386" lon="6.7506">
        <ele>2126</ele>
        <time>2022-06-12T07:57:32Z</time>
      </trkpt>
      <trkpt lat="44.25387" lon="6.75063">
        <ele>2126.3</ele>
        <time>2022-06-12T07:57:33Z</time>
      </trkpt>
      <trkpt lat="44.25387" lon="6.75066">
        <ele>2126.5</ele>
        <time>2022-06-12T07:57:34Z</time>
      </trkpt>
      <trkpt lat="44.25387" lon="6.75069">
        <ele>2126.7</ele>
        <time>2022-06-12T07:57:35Z</time>
      </trkpt>
      <trkpt lat="44.25387" lon="6.75071">
        <ele>2126.5</ele>
        <time>2022-06-12T07:57:36Z</time>
      </trkpt>
      <trkpt lat="44.25386" lon="6.75074">
        <ele>2126.1</ele>
        <time>2022-06-12T07:57:37Z</time>
      </trkpt>
      <trkpt lat="44.25385" lon="6.75078">
        <ele>2126.1</ele>
        <time>2022-06-12T07:57:38Z</time>
      </trkpt>
      <trkpt lat="44.25385" lon="6.75082">
        <ele>2125.9</ele>
        <time>2022-06-12T07:57:39Z</time>
      </trkpt>
      <trkpt lat="44.25384" lon="6.75086">
        <ele>2126</ele>
        <time>2022-06-12T07:57:40Z</time>
      </trkpt>
      <trkpt lat="44.25382" lon="6.75089">
        <ele>2126</ele>
        <time>2022-06-12T07:57:41Z</time>
      </trkpt>
      <trkpt lat="44.25381" lon="6.75093">
        <ele>2126.3</ele>
        <time>2022-06-12T07:57:42Z</time>
      </trkpt>
      <trkpt lat="44.25381" lon="6.75097">
        <ele>2126.7</ele>
        <time>2022-06-12T07:57:43Z</time>
      </trkpt>
      <trkpt lat="44.2538" lon="6.751">
        <ele>2126.8</ele>
        <time>2022-06-12T07:57:44Z</time>
      </trkpt>
      <trkpt lat="44.25379" lon="6.75103">
        <ele>2127.1</ele>
        <time>2022-06-12T07:57:45Z</time>
      </trkpt>
      <trkpt lat="44.25378" lon="6.75106">
        <ele>2127.2</ele>
        <time>2022-06-12T07:57:46Z</time>
      </trkpt>
      <trkpt lat="44.25377" lon="6.7511">
        <ele>2127.4</ele>
        <time>2022-06-12T07:57:47Z</time>
      </trkpt>
      <trkpt lat="44.25376" lon="6.75113">
        <ele>2127.8</ele>
        <time>2022-06-12T07:57:48Z</time>
      </trkpt>
      <trkpt lat="44.25374" lon="6.75116">
        <ele>2128.2</ele>
        <time>2022-06-12T07:57:49Z</time>
      </trkpt>
      <trkpt lat="44.25373" lon="6.75119">
        <ele>2128.7</ele>
        <time>2022-06-12T07:57:50Z</time>
      </trkpt>
      <trkpt lat="44.25371" lon="6.75121">
        <ele>2128.9</ele>
        <time>2022-06-12T07:57:51Z</time>
      </trkpt>
      <trkpt lat="44.2537" lon="6.75124">
        <ele>2129.4</ele>
        <time>2022-06-12T07:57:52Z</time>
      </trkpt>
      <trkpt lat="44.25369" lon="6.75127">
        <ele>2129.8</ele>
        <time>2022-06-12T07:57:53Z</time>
      </trkpt>
      <trkpt lat="44.25367" lon="6.7513">
        <ele>2130.2</ele>
        <time>2022-06-12T07:57:54Z</time>
      </trkpt>
      <trkpt lat="44.25366" lon="6.75133">
        <ele>2130.9</ele>
        <time>2022-06-12T07:57:55Z</time>
      </trkpt>
      <trkpt lat="44.25365" lon="6.75136">
        <ele>2131.5</ele>
        <time>2022-06-12T07:57:56Z</time>
      </trkpt>
      <trkpt lat="44.25364" lon="6.7514">
        <ele>2132.3</ele>
        <time>2022-06-12T07:57:57Z</time>
      </trkpt>
      <trkpt lat="44.25363" lon="6.75143">
        <ele>2132.7</ele>
        <time>2022-06-12T07:57:58Z</time>
      </trkpt>
      <trkpt lat="44.25362" lon="6.75146">
        <ele>2133.3</ele>
        <time>2022-06-12T07:57:59Z</time>
      </trkpt>
      <trkpt lat="44.2536" lon="6.75148">
        <ele>2133.3</ele>
        <time>2022-06-12T07:58:00Z</time>
      </trkpt>
      <trkpt lat="44.25359" lon="6.7515">
        <ele>2133</ele>
        <time>2022-06-12T07:58:01Z</time>
      </trkpt>
      <trkpt lat="44.25357" lon="6.75153">
        <ele>2132.6</ele>
        <time>2022-06-12T07:58:02Z</time>
      </trkpt>
      <trkpt lat="44.25355" lon="6.75155">
        <ele>2132.7</ele>
        <time>2022-06-12T07:58:03Z</time>
      </trkpt>
      <trkpt lat="44.25354" lon="6.75158">
        <ele>2133</ele>
        <time>2022-06-12T07:58:04Z</time>
      </trkpt>
      <trkpt lat="44.25353" lon="6.75161">
        <ele>2133.3</ele>
        <time>2022-06-12T07:58:05Z</time>
      </trkpt>
      <trkpt lat="44.25352" lon="6.75164">
        <ele>2133.6</ele>
        <time>2022-06-12T07:58:06Z</time>
      </trkpt>
      <trkpt lat="44.25352" lon="6.75167">
        <ele>2134.3</ele>
        <time>2022-06-12T07:58:07Z</time>
      </trkpt>
      <trkpt lat="44.25351" lon="6.7517">
        <ele>2134.3</ele>
        <time>2022-06-12T07:58:08Z</time>
      </trkpt>
      <trkpt lat="44.25351" lon="6.75173">
        <ele>2134.3</ele>
        <time>2022-06-12T07:58:09Z</time>
      </trkpt>
      <trkpt lat="44.2535" lon="6.75175">
        <ele>2134.3</ele>
        <time>2022-06-12T07:58:10Z</time>
      </trkpt>
      <trkpt lat="44.2535" lon="6.75178">
        <ele>2134.2</ele>
        <time>2022-06-12T07:58:11Z</time>
      </trkpt>
      <trkpt lat="44.25349" lon="6.75181">
        <ele>2134.4</ele>
        <time>2022-06-12T07:58:12Z</time>
      </trkpt>
      <trkpt lat="44.25349" lon="6.75184">
        <ele>2134.7</ele>
        <time>2022-06-12T07:58:13Z</time>
      </trkpt>
      <trkpt lat="44.25349" lon="6.75187">
        <ele>2135.1</ele>
        <time>2022-06-12T07:58:14Z</time>
      </trkpt>
      <trkpt lat="44.2535" lon="6.7519">
        <ele>2135.5</ele>
        <time>2022-06-12T07:58:15Z</time>
      </trkpt>
      <trkpt lat="44.2535" lon="6.75193">
        <ele>2135.8</ele>
        <time>2022-06-12T07:58:16Z</time>
      </trkpt>
      <trkpt lat="44.2535" lon="6.75196">
        <ele>2136.2</ele>
        <time>2022-06-12T07:58:17Z</time>
      </trkpt>
      <trkpt lat="44.2535" lon="6.75199">
        <ele>2136.3</ele>
        <time>2022-06-12T07:58:18Z</time>
      </trkpt>
      <trkpt lat="44.25351" lon="6.75201">
        <ele>2136.6</ele>
        <time>2022-06-12T07:58:19Z</time>
      </trkpt>
      <trkpt lat="44.25351" lon="6.75204">
        <ele>2136.7</ele>
        <time>2022-06-12T07:58:20Z</time>
      </trkpt>
      <trkpt lat="44.25351" lon="6.75207">
        <ele>2136.8</ele>
        <time>2022-06-12T07:58:21Z</time>
      </trkpt>
      <trkpt lat="44.25351" lon="6.7521">
        <ele>2136.9</ele>
        <time>2022-06-12T07:58:22Z</time>
      </trkpt>
      <trkpt lat="44.25351" lon="6.75213">
        <ele>2137.1</ele>
        <time>2022-06-12T07:58:23Z</time>
      </trkpt>
      <trkpt lat="44.25351" lon="6.75216">
        <ele>2137.3</ele>
        <time>2022-06-12T07:58:24Z</time>
      </trkpt>
      <trkpt lat="44.25352" lon="6.75218">
        <ele>2137.5</ele>
        <time>2022-06-12T07:58:25Z</time>
      </trkpt>
      <trkpt lat="44.25352" lon="6.75221">
        <ele>2137.6</ele>
        <time>2022-06-12T07:58:26Z</time>
      </trkpt>
      <trkpt lat="44.25352" lon="6.75223">
        <ele>2137.7</ele>
        <time>2022-06-12T07:58:27Z</time>
      </trkpt>
      <trkpt lat="44.25352" lon="6.75227">
        <ele>2137.5</ele>
        <time>2022-06-12T07:58:28Z</time>
      </trkpt>
      <trkpt lat="44.25352" lon="6.7523">
        <ele>2137.2</ele>
        <time>2022-06-12T07:58:29Z</time>
      </trkpt>
      <trkpt lat="44.25352" lon="6.75233">
        <ele>2137.2</ele>
        <time>2022-06-12T07:58:30Z</time>
      </trkpt>
      <trkpt lat="44.25352" lon="6.75235">
        <ele>2137.1</ele>
        <time>2022-06-12T07:58:31Z</time>
      </trkpt>
      <trkpt lat="44.25352" lon="6.75238">
        <ele>2137.1</ele>
        <time>2022-06-12T07:58:32Z</time>
      </trkpt>
      <trkpt lat="44.25352" lon="6.75241">
        <ele>2136.9</ele>
        <time>2022-06-12T07:58:33Z</time>
      </trkpt>
      <trkpt lat="44.25352" lon="6.75244">
        <ele>2136.7</ele>
        <time>2022-06-12T07:58:34Z</time>
      </trkpt>
      <trkpt lat="44.25352" lon="6.75247">
        <ele>2136.6</ele>
        <time>2022-06-12T07:58:35Z</time>
      </trkpt>
      <trkpt lat="44.25352" lon="6.75251">
        <ele>2136.5</ele>
        <time>2022-06-12T07:58:36Z</time>
      </trkpt>
      <trkpt lat="44.25353" lon="6.75254">
        <ele>2136.7</ele>
        <time>2022-06-12T07:58:37Z</time>
      </trkpt>
      <trkpt lat="44.25353" lon="6.75258">
        <ele>2136.7</ele>
        <time>2022-06-12T07:58:38Z</time>
      </trkpt>
      <trkpt lat="44.25353" lon="6.75261">
        <ele>2136.8</ele>
        <time>2022-06-12T07:58:39Z</time>
      </trkpt>
      <trkpt lat="44.25354" lon="6.75264">
        <ele>2137</ele>
        <time>2022-06-12T07:58:40Z</time>
      </trkpt>
      <trkpt lat="44.25355" lon="6.75267">
        <ele>2137.2</ele>
        <time>2022-06-12T07:58:41Z</time>
      </trkpt>
      <trkpt lat="44.25355" lon="6.75271">
        <ele>2137.5</ele>
        <time>2022-06-12T07:58:42Z</time>
      </trkpt>
      <trkpt lat="44.25356" lon="6.75274">
        <ele>2137.6</ele>
        <time>2022-06-12T07:58:43Z</time>
      </trkpt>
      <trkpt lat="44.25356" lon="6.75277">
        <ele>2137.7</ele>
        <time>2022-06-12T07:58:44Z</time>
      </trkpt>
      <trkpt lat="44.25356" lon="6.75281">
        <ele>2137.9</ele>
        <time>2022-06-12T07:58:45Z</time>
      </trkpt>
      <trkpt lat="44.25357" lon="6.75284">
        <ele>2138</ele>
        <time>2022-06-12T07:58:46Z</time>
      </trkpt>
      <trkpt lat="44.25357" lon="6.75288">
        <ele>2138</ele>
        <time>2022-06-12T07:58:47Z</time>
      </trkpt>
      <trkpt lat="44.25357" lon="6.75292">
        <ele>2138</ele>
        <time>2022-06-12T07:58:48Z</time>
      </trkpt>
      <trkpt lat="44.25357" lon="6.75295">
        <ele>2138</ele>
        <time>2022-06-12T07:58:49Z</time>
      </trkpt>
      <trkpt lat="44.25357" lon="6.75298">
        <ele>2137.9</ele>
        <time>2022-06-12T07:58:50Z</time>
      </trkpt>
      <trkpt lat="44.25357" lon="6.75301">
        <ele>2137.9</ele>
        <time>2022-06-12T07:58:51Z</time>
      </trkpt>
      <trkpt lat="44.25357" lon="6.75305">
        <ele>2138</ele>
        <time>2022-06-12T07:58:52Z</time>
      </trkpt>
      <trkpt lat="44.25357" lon="6.75307">
        <ele>2138</ele>
        <time>2022-06-12T07:58:53Z</time>
      </trkpt>
      <trkpt lat="44.25357" lon="6.75311">
        <ele>2138.2</ele>
        <time>2022-06-12T07:58:54Z</time>
      </trkpt>
      <trkpt lat="44.25357" lon="6.75314">
        <ele>2138.3</ele>
        <time>2022-06-12T07:58:55Z</time>
      </trkpt>
      <trkpt lat="44.25357" lon="6.75317">
        <ele>2138.4</ele>
        <time>2022-06-12T07:58:56Z</time>
      </trkpt>
      <trkpt lat="44.25358" lon="6.7532">
        <ele>2138.7</ele>
        <time>2022-06-12T07:58:57Z</time>
      </trkpt>
      <trkpt lat="44.25358" lon="6.75323">
        <ele>2139</ele>
        <time>2022-06-12T07:58:58Z</time>
      </trkpt>
      <trkpt lat="44.25358" lon="6.75326">
        <ele>2139.3</ele>
        <time>2022-06-12T07:58:59Z</time>
      </trkpt>
      <trkpt lat="44.25359" lon="6.75328">
        <ele>2139.5</ele>
        <time>2022-06-12T07:59:00Z</time>
      </trkpt>
      <trkpt lat="44.25359" lon="6.75332">
        <ele>2139.9</ele>
        <time>2022-06-12T07:59:01Z</time>
      </trkpt>
      <trkpt lat="44.2536" lon="6.75335">
        <ele>2140.1</ele>
        <time>2022-06-12T07:59:02Z</time>
      </trkpt>
      <trkpt lat="44.25361" lon="6.75339">
        <ele>2140.5</ele>
        <time>2022-06-12T07:59:03Z</time>
      </trkpt>
      <trkpt lat="44.25361" lon="6.75342">
        <ele>2140.8</ele>
        <time>2022-06-12T07:59:04Z</time>
      </trkpt>
      <trkpt lat="44.25362" lon="6.75345">
        <ele>2141</ele>
        <time>2022-06-12T07:59:05Z</time>
      </trkpt>
      <trkpt lat="44.25363" lon="6.75348">
        <ele>2141.3</ele>
        <time>2022-06-12T07:59:06Z</time>
      </trkpt>
      <trkpt lat="44.25364" lon="6.75351">
        <ele>2141.7</ele>
        <time>2022-06-12T07:59:07Z</time>
      </trkpt>
      <trkpt lat="44.25365" lon="6.75354">
        <ele>2142.1</ele>
        <time>2022-06-12T07:59:08Z</time>
      </trkpt>
      <trkpt lat="44.25366" lon="6.75357">
        <ele>2142.5</ele>
        <time>2022-06-12T07:59:09Z</time>
      </trkpt>
      <trkpt lat="44.25367" lon="6.7536">
        <ele>2142.8</ele>
        <time>2022-06-12T07:59:10Z</time>
      </trkpt>
      <trkpt lat="44.25368" lon="6.75363">
        <ele>2143.2</ele>
        <time>2022-06-12T07:59:11Z</time>
      </trkpt>
      <trkpt lat="44.25369" lon="6.75366">
        <ele>2143.5</ele>
        <time>2022-06-12T07:59:12Z</time>
      </trkpt>
      <trkpt lat="44.25369" lon="6.75368">
        <ele>2143.8</ele>
        <time>2022-06-12T07:59:13Z</time>
      </trkpt>
      <trkpt lat="44.2537" lon="6.75371">
        <ele>2144.1</ele>
        <time>2022-06-12T07:59:14Z</time>
      </trkpt>
      <trkpt lat="44.25371" lon="6.75374">
        <ele>2144.3</ele>
        <time>2022-06-12T07:59:15Z</time>
      </trkpt>
      <trkpt lat="44.25372" lon="6.75376">
        <ele>2144.5</ele>
        <time>2022-06-12T07:59:16Z</time>
      </trkpt>
      <trkpt lat="44.25372" lon="6.75379">
        <ele>2144.6</ele>
        <time>2022-06-12T07:59:17Z</time>
      </trkpt>
      <trkpt lat="44.25373" lon="6.75382">
        <ele>2144.7</ele>
        <time>2022-06-12T07:59:18Z</time>
      </trkpt>
      <trkpt lat="44.25373" lon="6.75385">
        <ele>2144.8</ele>
        <time>2022-06-12T07:59:19Z</time>
      </trkpt>
      <trkpt lat="44.25373" lon="6.75388">
        <ele>2144.8</ele>
        <time>2022-06-12T07:59:20Z</time>
      </trkpt>
      <trkpt lat="44.25374" lon="6.75391">
        <ele>2144.8</ele>
        <time>2022-06-12T07:59:21Z</time>
      </trkpt>
      <trkpt lat="44.25374" lon="6.75394">
        <ele>2144.7</ele>
        <time>2022-06-12T07:59:22Z</time>
      </trkpt>
      <trkpt lat="44.25374" lon="6.75397">
        <ele>2144.5</ele>
        <time>2022-06-12T07:59:23Z</time>
      </trkpt>
      <trkpt lat="44.25374" lon="6.75401">
        <ele>2144.5</ele>
        <time>2022-06-12T07:59:24Z</time>
      </trkpt>
      <trkpt lat="44.25374" lon="6.75405">
        <ele>2144.4</ele>
        <time>2022-06-12T07:59:25Z</time>
      </trkpt>
      <trkpt lat="44.25374" lon="6.75408">
        <ele>2144.3</ele>
        <time>2022-06-12T07:59:26Z</time>
      </trkpt>
      <trkpt lat="44.25374" lon="6.75411">
        <ele>2144</ele>
        <time>2022-06-12T07:59:27Z</time>
      </trkpt>
      <trkpt lat="44.25374" lon="6.75415">
        <ele>2143.9</ele>
        <time>2022-06-12T07:59:28Z</time>
      </trkpt>
      <trkpt lat="44.25374" lon="6.75418">
        <ele>2143.7</ele>
        <time>2022-06-12T07:59:29Z</time>
      </trkpt>
      <trkpt lat="44.25373" lon="6.75422">
        <ele>2143.4</ele>
        <time>2022-06-12T07:59:30Z</time>
      </trkpt>
      <trkpt lat="44.25373" lon="6.75425">
        <ele>2143.1</ele>
        <time>2022-06-12T07:59:31Z</time>
      </trkpt>
      <trkpt lat="44.25373" lon="6.75429">
        <ele>2142.9</ele>
        <time>2022-06-12T07:59:32Z</time>
      </trkpt>
      <trkpt lat="44.25373" lon="6.75432">
        <ele>2142.7</ele>
        <time>2022-06-12T07:59:33Z</time>
      </trkpt>
      <trkpt lat="44.25373" lon="6.75436">
        <ele>2142.6</ele>
        <time>2022-06-12T07:59:34Z</time>
      </trkpt>
      <trkpt lat="44.25374" lon="6.75439">
        <ele>2142.6</ele>
        <time>2022-06-12T07:59:35Z</time>
      </trkpt>
      <trkpt lat="44.25375" lon="6.75442">
        <ele>2142.9</ele>
        <time>2022-06-12T07:59:36Z</time>
      </trkpt>
      <trkpt lat="44.25376" lon="6.75444">
        <ele>2143.3</ele>
        <time>2022-06-12T07:59:37Z</time>
      </trkpt>
      <trkpt lat="44.25377" lon="6.75446">
        <ele>2143.7</ele>
        <time>2022-06-12T07:59:38Z</time>
      </trkpt>
      <trkpt lat="44.25379" lon="6.75447">
        <ele>2144.2</ele>
        <time>2022-06-12T07:59:39Z</time>
      </trkpt>
      <trkpt lat="44.25381" lon="6.75448">
        <ele>2145.1</ele>
        <time>2022-06-12T07:59:40Z</time>
      </trkpt>
      <trkpt lat="44.25384" lon="6.75448">
        <ele>2146.3</ele>
        <time>2022-06-12T07:59:41Z</time>
      </trkpt>
      <trkpt lat="44.25386" lon="6.75447">
        <ele>2147.7</ele>
        <time>2022-06-12T07:59:42Z</time>
      </trkpt>
      <trkpt lat="44.25388" lon="6.75445">
        <ele>2149.3</ele>
        <time>2022-06-12T07:59:43Z</time>
      </trkpt>
      <trkpt lat="44.25389" lon="6.75443">
        <ele>2150.2</ele>
        <time>2022-06-12T07:59:44Z</time>
      </trkpt>
      <trkpt lat="44.2539" lon="6.7544">
        <ele>2150.6</ele>
        <time>2022-06-12T07:59:45Z</time>
      </trkpt>
      <trkpt lat="44.25391" lon="6.75437">
        <ele>2151</ele>
        <time>2022-06-12T07:59:46Z</time>
      </trkpt>
      <trkpt lat="44.25392" lon="6.75433">
        <ele>2151.5</ele>
        <time>2022-06-12T07:59:47Z</time>
      </trkpt>
      <trkpt lat="44.25393" lon="6.7543">
        <ele>2151.8</ele>
        <time>2022-06-12T07:59:48Z</time>
      </trkpt>
      <trkpt lat="44.25392" lon="6.75427">
        <ele>2151.9</ele>
        <time>2022-06-12T07:59:49Z</time>
      </trkpt>
      <trkpt lat="44.25392" lon="6.75424">
        <ele>2151.9</ele>
        <time>2022-06-12T07:59:50Z</time>
      </trkpt>
      <trkpt lat="44.25392" lon="6.75421">
        <ele>2151.8</ele>
        <time>2022-06-12T07:59:51Z</time>
      </trkpt>
      <trkpt lat="44.25391" lon="6.75418">
        <ele>2151.8</ele>
        <time>2022-06-12T07:59:52Z</time>
      </trkpt>
      <trkpt lat="44.25391" lon="6.75415">
        <ele>2151.9</ele>
        <time>2022-06-12T07:59:53Z</time>
      </trkpt>
      <trkpt lat="44.25391" lon="6.75412">
        <ele>2151.9</ele>
        <time>2022-06-12T07:59:54Z</time>
      </trkpt>
      <trkpt lat="44.25391" lon="6.75409">
        <ele>2152</ele>
        <time>2022-06-12T07:59:55Z</time>
      </trkpt>
      <trkpt lat="44.25391" lon="6.75406">
        <ele>2152.1</ele>
        <time>2022-06-12T07:59:56Z</time>
      </trkpt>
      <trkpt lat="44.25391" lon="6.75403">
        <ele>2152.2</ele>
        <time>2022-06-12T07:59:57Z</time>
      </trkpt>
      <trkpt lat="44.25391" lon="6.754">
        <ele>2152.3</ele>
        <time>2022-06-12T07:59:58Z</time>
      </trkpt>
      <trkpt lat="44.25391" lon="6.75396">
        <ele>2152.5</ele>
        <time>2022-06-12T07:59:59Z</time>
      </trkpt>
      <trkpt lat="44.25391" lon="6.75393">
        <ele>2152.5</ele>
        <time>2022-06-12T08:00:00Z</time>
      </trkpt>
      <trkpt lat="44.2539" lon="6.7539">
        <ele>2152.5</ele>
        <time>2022-06-12T08:00:01Z</time>
      </trkpt>
      <trkpt lat="44.2539" lon="6.75386">
        <ele>2152.5</ele>
        <time>2022-06-12T08:00:02Z</time>
      </trkpt>
      <trkpt lat="44.25389" lon="6.75383">
        <ele>2152.6</ele>
        <time>2022-06-12T08:00:03Z</time>
      </trkpt>
      <trkpt lat="44.25389" lon="6.7538">
        <ele>2152.6</ele>
        <time>2022-06-12T08:00:04Z</time>
      </trkpt>
      <trkpt lat="44.25389" lon="6.75377">
        <ele>2152.7</ele>
        <time>2022-06-12T08:00:05Z</time>
      </trkpt>
      <trkpt lat="44.25388" lon="6.75373">
        <ele>2152.7</ele>
        <time>2022-06-12T08:00:06Z</time>
      </trkpt>
      <trkpt lat="44.25388" lon="6.7537">
        <ele>2152.8</ele>
        <time>2022-06-12T08:00:07Z</time>
      </trkpt>
      <trkpt lat="44.25388" lon="6.75367">
        <ele>2152.9</ele>
        <time>2022-06-12T08:00:08Z</time>
      </trkpt>
      <trkpt lat="44.25387" lon="6.75364">
        <ele>2152.9</ele>
        <time>2022-06-12T08:00:09Z</time>
      </trkpt>
      <trkpt lat="44.25387" lon="6.75361">
        <ele>2153</ele>
        <time>2022-06-12T08:00:10Z</time>
      </trkpt>
      <trkpt lat="44.25387" lon="6.75358">
        <ele>2152.9</ele>
        <time>2022-06-12T08:00:11Z</time>
      </trkpt>
      <trkpt lat="44.25387" lon="6.75355">
        <ele>2153.1</ele>
        <time>2022-06-12T08:00:12Z</time>
      </trkpt>
      <trkpt lat="44.25387" lon="6.75352">
        <ele>2153.1</ele>
        <time>2022-06-12T08:00:13Z</time>
      </trkpt>
      <trkpt lat="44.25386" lon="6.75349">
        <ele>2153</ele>
        <time>2022-06-12T08:00:14Z</time>
      </trkpt>
      <trkpt lat="44.25386" lon="6.75346">
        <ele>2152.8</ele>
        <time>2022-06-12T08:00:15Z</time>
      </trkpt>
      <trkpt lat="44.25385" lon="6.75343">
        <ele>2152.7</ele>
        <time>2022-06-12T08:00:16Z</time>
      </trkpt>
      <trkpt lat="44.25385" lon="6.7534">
        <ele>2152.7</ele>
        <time>2022-06-12T08:00:17Z</time>
      </trkpt>
      <trkpt lat="44.25385" lon="6.75337">
        <ele>2153</ele>
        <time>2022-06-12T08:00:18Z</time>
      </trkpt>
      <trkpt lat="44.25385" lon="6.75334">
        <ele>2153.2</ele>
        <time>2022-06-12T08:00:19Z</time>
      </trkpt>
      <trkpt lat="44.25386" lon="6.75331">
        <ele>2153.3</ele>
        <time>2022-06-12T08:00:20Z</time>
      </trkpt>
      <trkpt lat="44.25386" lon="6.75328">
        <ele>2153.5</ele>
        <time>2022-06-12T08:00:21Z</time>
      </trkpt>
      <trkpt lat="44.25387" lon="6.75324">
        <ele>2153.6</ele>
        <time>2022-06-12T08:00:22Z</time>
      </trkpt>
      <trkpt lat="44.25388" lon="6.75321">
        <ele>2153.9</ele>
        <time>2022-06-12T08:00:23Z</time>
      </trkpt>
      <trkpt lat="44.25389" lon="6.75319">
        <ele>2154.3</ele>
        <time>2022-06-12T08:00:24Z</time>
      </trkpt>
      <trkpt lat="44.2539" lon="6.75316">
        <ele>2154.9</ele>
        <time>2022-06-12T08:00:25Z</time>
      </trkpt>
      <trkpt lat="44.25391" lon="6.75313">
        <ele>2155.1</ele>
        <time>2022-06-12T08:00:26Z</time>
      </trkpt>
      <trkpt lat="44.25392" lon="6.7531">
        <ele>2155.4</ele>
        <time>2022-06-12T08:00:27Z</time>
      </trkpt>
      <trkpt lat="44.25393" lon="6.75308">
        <ele>2155.7</ele>
        <time>2022-06-12T08:00:28Z</time>
      </trkpt>
      <trkpt lat="44.25395" lon="6.75305">
        <ele>2156.2</ele>
        <time>2022-06-12T08:00:29Z</time>
      </trkpt>
      <trkpt lat="44.25396" lon="6.75303">
        <ele>2156.4</ele>
        <time>2022-06-12T08:00:30Z</time>
      </trkpt>
      <trkpt lat="44.25397" lon="6.753">
        <ele>2156.8</ele>
        <time>2022-06-12T08:00:31Z</time>
      </trkpt>
      <trkpt lat="44.25398" lon="6.75298">
        <ele>2157.1</ele>
        <time>2022-06-12T08:00:32Z</time>
      </trkpt>
      <trkpt lat="44.254" lon="6.75296">
        <ele>2157.4</ele>
        <time>2022-06-12T08:00:33Z</time>
      </trkpt>
      <trkpt lat="44.25401" lon="6.75293">
        <ele>2157.7</ele>
        <time>2022-06-12T08:00:34Z</time>
      </trkpt>
      <trkpt lat="44.25402" lon="6.75291">
        <ele>2157.9</ele>
        <time>2022-06-12T08:00:35Z</time>
      </trkpt>
      <trkpt lat="44.25404" lon="6.75288">
        <ele>2158.2</ele>
        <time>2022-06-12T08:00:36Z</time>
      </trkpt>
      <trkpt lat="44.25405" lon="6.75286">
        <ele>2158.5</ele>
        <time>2022-06-12T08:00:37Z</time>
      </trkpt>
      <trkpt lat="44.25407" lon="6.75284">
        <ele>2158.9</ele>
        <time>2022-06-12T08:00:38Z</time>
      </trkpt>
      <trkpt lat="44.25408" lon="6.75281">
        <ele>2159.1</ele>
        <time>2022-06-12T08:00:39Z</time>
      </trkpt>
      <trkpt lat="44.25409" lon="6.75279">
        <ele>2159.4</ele>
        <time>2022-06-12T08:00:40Z</time>
      </trkpt>
      <trkpt lat="44.25411" lon="6.75277">
        <ele>2159.8</ele>
        <time>2022-06-12T08:00:41Z</time>
      </trkpt>
      <trkpt lat="44.25412" lon="6.75275">
        <ele>2160.1</ele>
        <time>2022-06-12T08:00:42Z</time>
      </trkpt>
      <trkpt lat="44.25414" lon="6.75273">
        <ele>2160.3</ele>
        <time>2022-06-12T08:00:43Z</time>
      </trkpt>
      <trkpt lat="44.25415" lon="6.7527">
        <ele>2160.7</ele>
        <time>2022-06-12T08:00:44Z</time>
      </trkpt>
      <trkpt lat="44.25417" lon="6.75268">
        <ele>2161</ele>
        <time>2022-06-12T08:00:45Z</time>
      </trkpt>
      <trkpt lat="44.25419" lon="6.75266">
        <ele>2161.3</ele>
        <time>2022-06-12T08:00:46Z</time>
      </trkpt>
      <trkpt lat="44.2542" lon="6.75264">
        <ele>2161.7</ele>
        <time>2022-06-12T08:00:47Z</time>
      </trkpt>
      <trkpt lat="44.25422" lon="6.75262">
        <ele>2162.1</ele>
        <time>2022-06-12T08:00:48Z</time>
      </trkpt>
      <trkpt lat="44.25424" lon="6.7526">
        <ele>2162.4</ele>
        <time>2022-06-12T08:00:49Z</time>
      </trkpt>
      <trkpt lat="44.25425" lon="6.75258">
        <ele>2162.7</ele>
        <time>2022-06-12T08:00:50Z</time>
      </trkpt>
      <trkpt lat="44.25427" lon="6.75256">
        <ele>2163</ele>
        <time>2022-06-12T08:00:51Z</time>
      </trkpt>
      <trkpt lat="44.25429" lon="6.75255">
        <ele>2163.5</ele>
        <time>2022-06-12T08:00:52Z</time>
      </trkpt>
      <trkpt lat="44.25431" lon="6.75253">
        <ele>2163.9</ele>
        <time>2022-06-12T08:00:53Z</time>
      </trkpt>
      <trkpt lat="44.25433" lon="6.75251">
        <ele>2164.3</ele>
        <time>2022-06-12T08:00:54Z</time>
      </trkpt>
      <trkpt lat="44.25434" lon="6.7525">
        <ele>2164.7</ele>
        <time>2022-06-12T08:00:55Z</time>
      </trkpt>
      <trkpt lat="44.25436" lon="6.75248">
        <ele>2165</ele>
        <time>2022-06-12T08:00:56Z</time>
      </trkpt>
      <trkpt lat="44.25438" lon="6.75246">
        <ele>2165.2</ele>
        <time>2022-06-12T08:00:57Z</time>
      </trkpt>
      <trkpt lat="44.2544" lon="6.75244">
        <ele>2165.6</ele>
        <time>2022-06-12T08:00:58Z</time>
      </trkpt>
      <trkpt lat="44.25442" lon="6.75242">
        <ele>2166</ele>
        <time>2022-06-12T08:00:59Z</time>
      </trkpt>
      <trkpt lat="44.25443" lon="6.7524">
        <ele>2166.3</ele>
        <time>2022-06-12T08:01:00Z</time>
      </trkpt>
      <trkpt lat="44.25445" lon="6.75239">
        <ele>2166.6</ele>
        <time>2022-06-12T08:01:01Z</time>
      </trkpt>
      <trkpt lat="44.25447" lon="6.75237">
        <ele>2167.1</ele>
        <time>2022-06-12T08:01:02Z</time>
      </trkpt>
      <trkpt lat="44.25449" lon="6.75236">
        <ele>2167.4</ele>
        <time>2022-06-12T08:01:03Z</time>
      </trkpt>
      <trkpt lat="44.25451" lon="6.75234">
        <ele>2167.7</ele>
        <time>2022-06-12T08:01:04Z</time>
      </trkpt>
      <trkpt lat="44.25452" lon="6.75231">
        <ele>2167.8</ele>
        <time>2022-06-12T08:01:05Z</time>
      </trkpt>
      <trkpt lat="44.25454" lon="6.75229">
        <ele>2168</ele>
        <time>2022-06-12T08:01:06Z</time>
      </trkpt>
      <trkpt lat="44.25456" lon="6.75226">
        <ele>2168.2</ele>
        <time>2022-06-12T08:01:07Z</time>
      </trkpt>
      <trkpt lat="44.25457" lon="6.75224">
        <ele>2168.3</ele>
        <time>2022-06-12T08:01:08Z</time>
      </trkpt>
      <trkpt lat="44.25458" lon="6.75221">
        <ele>2168.4</ele>
        <time>2022-06-12T08:01:09Z</time>
      </trkpt>
      <trkpt lat="44.2546" lon="6.75219">
        <ele>2168.6</ele>
        <time>2022-06-12T08:01:10Z</time>
      </trkpt>
      <trkpt lat="44.25461" lon="6.75216">
        <ele>2168.7</ele>
        <time>2022-06-12T08:01:11Z</time>
      </trkpt>
      <trkpt lat="44.25463" lon="6.75214">
        <ele>2168.9</ele>
        <time>2022-06-12T08:01:12Z</time>
      </trkpt>
      <trkpt lat="44.25464" lon="6.75211">
        <ele>2169</ele>
        <time>2022-06-12T08:01:13Z</time>
      </trkpt>
      <trkpt lat="44.25465" lon="6.75209">
        <ele>2169.2</ele>
        <time>2022-06-12T08:01:14Z</time>
      </trkpt>
      <trkpt lat="44.25467" lon="6.75206">
        <ele>2169.4</ele>
        <time>2022-06-12T08:01:15Z</time>
      </trkpt>
      <trkpt lat="44.25468" lon="6.75204">
        <ele>2169.7</ele>
        <time>2022-06-12T08:01:16Z</time>
      </trkpt>
      <trkpt lat="44.2547" lon="6.75202">
        <ele>2169.9</ele>
        <time>2022-06-12T08:01:17Z</time>
      </trkpt>
      <trkpt lat="44.25471" lon="6.75199">
        <ele>2170</ele>
        <time>2022-06-12T08:01:18Z</time>
      </trkpt>
      <trkpt lat="44.25472" lon="6.75196">
        <ele>2170.2</ele>
        <time>2022-06-12T08:01:19Z</time>
      </trkpt>
      <trkpt lat="44.25473" lon="6.75194">
        <ele>2170.4</ele>
        <time>2022-06-12T08:01:20Z</time>
      </trkpt>
      <trkpt lat="44.25475" lon="6.75191">
        <ele>2170.8</ele>
        <time>2022-06-12T08:01:21Z</time>
      </trkpt>
      <trkpt lat="44.25476" lon="6.75189">
        <ele>2171.3</ele>
        <time>2022-06-12T08:01:22Z</time>
      </trkpt>
      <trkpt lat="44.25477" lon="6.75186">
        <ele>2171.7</ele>
        <time>2022-06-12T08:01:23Z</time>
      </trkpt>
      <trkpt lat="44.25478" lon="6.75183">
        <ele>2172.1</ele>
        <time>2022-06-12T08:01:24Z</time>
      </trkpt>
      <trkpt lat="44.25479" lon="6.7518">
        <ele>2172.4</ele>
        <time>2022-06-12T08:01:25Z</time>
      </trkpt>
      <trkpt lat="44.2548" lon="6.75177">
        <ele>2172.7</ele>
        <time>2022-06-12T08:01:26Z</time>
      </trkpt>
      <trkpt lat="44.25481" lon="6.75175">
        <ele>2173.1</ele>
        <time>2022-06-12T08:01:27Z</time>
      </trkpt>
      <trkpt lat="44.25482" lon="6.75172">
        <ele>2173.2</ele>
        <time>2022-06-12T08:01:28Z</time>
      </trkpt>
      <trkpt lat="44.25483" lon="6.75169">
        <ele>2173.4</ele>
        <time>2022-06-12T08:01:29Z</time>
      </trkpt>
      <trkpt lat="44.25483" lon="6.75166">
        <ele>2173.6</ele>
        <time>2022-06-12T08:01:30Z</time>
      </trkpt>
      <trkpt lat="44.25484" lon="6.75163">
        <ele>2174</ele>
        <time>2022-06-12T08:01:31Z</time>
      </trkpt>
      <trkpt lat="44.25484" lon="6.7516">
        <ele>2174.4</ele>
        <time>2022-06-12T08:01:32Z</time>
      </trkpt>
      <trkpt lat="44.25485" lon="6.75157">
        <ele>2174.8</ele>
        <time>2022-06-12T08:01:33Z</time>
      </trkpt>
      <trkpt lat="44.25485" lon="6.75154">
        <ele>2175</ele>
        <time>2022-06-12T08:01:34Z</time>
      </trkpt>
      <trkpt lat="44.25484" lon="6.75151">
        <ele>2175</ele>
        <time>2022-06-12T08:01:35Z</time>
      </trkpt>
      <trkpt lat="44.25484" lon="6.75148">
        <ele>2175</ele>
        <time>2022-06-12T08:01:36Z</time>
      </trkpt>
      <trkpt lat="44.25484" lon="6.75144">
        <ele>2175.1</ele>
        <time>2022-06-12T08:01:37Z</time>
      </trkpt>
      <trkpt lat="44.25484" lon="6.75141">
        <ele>2175.2</ele>
        <time>2022-06-12T08:01:38Z</time>
      </trkpt>
      <trkpt lat="44.25483" lon="6.75138">
        <ele>2175.2</ele>
        <time>2022-06-12T08:01:39Z</time>
      </trkpt>
      <trkpt lat="44.25483" lon="6.75135">
        <ele>2175.2</ele>
        <time>2022-06-12T08:01:40Z</time>
      </trkpt>
      <trkpt lat="44.25482" lon="6.75132">
        <ele>2175.3</ele>
        <time>2022-06-12T08:01:41Z</time>
      </trkpt>
      <trkpt lat="44.25482" lon="6.75129">
        <ele>2175.4</ele>
        <time>2022-06-12T08:01:42Z</time>
      </trkpt>
      <trkpt lat="44.25481" lon="6.75126">
        <ele>2175.4</ele>
        <time>2022-06-12T08:01:43Z</time>
      </trkpt>
      <trkpt lat="44.2548" lon="6.75123">
        <ele>2175.3</ele>
        <time>2022-06-12T08:01:44Z</time>
      </trkpt>
      <trkpt lat="44.2548" lon="6.7512">
        <ele>2175.5</ele>
        <time>2022-06-12T08:01:45Z</time>
      </trkpt>
      <trkpt lat="44.2548" lon="6.75117">
        <ele>2175.8</ele>
        <time>2022-06-12T08:01:46Z</time>
      </trkpt>
      <trkpt lat="44.25479" lon="6.75114">
        <ele>2175.6</ele>
        <time>2022-06-12T08:01:47Z</time>
      </trkpt>
      <trkpt lat="44.25479" lon="6.75111">
        <ele>2175.6</ele>
        <time>2022-06-12T08:01:48Z</time>
      </trkpt>
      <trkpt lat="44.25478" lon="6.75108">
        <ele>2175.7</ele>
        <time>2022-06-12T08:01:49Z</time>
      </trkpt>
      <trkpt lat="44.25477" lon="6.75105">
        <ele>2175.6</ele>
        <time>2022-06-12T08:01:50Z</time>
      </trkpt>
      <trkpt lat="44.25477" lon="6.75101">
        <ele>2175.7</ele>
        <time>2022-06-12T08:01:51Z</time>
      </trkpt>
      <trkpt lat="44.25477" lon="6.75098">
        <ele>2175.9</ele>
        <time>2022-06-12T08:01:52Z</time>
      </trkpt>
      <trkpt lat="44.25476" lon="6.75095">
        <ele>2176.2</ele>
        <time>2022-06-12T08:01:53Z</time>
      </trkpt>
      <trkpt lat="44.25476" lon="6.75092">
        <ele>2176.4</ele>
        <time>2022-06-12T08:01:54Z</time>
      </trkpt>
      <trkpt lat="44.25476" lon="6.75089">
        <ele>2176.5</ele>
        <time>2022-06-12T08:01:55Z</time>
      </trkpt>
      <trkpt lat="44.25475" lon="6.75086">
        <ele>2176.3</ele>
        <time>2022-06-12T08:01:56Z</time>
      </trkpt>
      <trkpt lat="44.25474" lon="6.75083">
        <ele>2176.3</ele>
        <time>2022-06-12T08:01:57Z</time>
      </trkpt>
      <trkpt lat="44.25473" lon="6.7508">
        <ele>2176.2</ele>
        <time>2022-06-12T08:01:58Z</time>
      </trkpt>
      <trkpt lat="44.25473" lon="6.75077">
        <ele>2176.4</ele>
        <time>2022-06-12T08:01:59Z</time>
      </trkpt>
      <trkpt lat="44.25472" lon="6.75074">
        <ele>2176.6</ele>
        <time>2022-06-12T08:02:00Z</time>
      </trkpt>
      <trkpt lat="44.25472" lon="6.75071">
        <ele>2176.9</ele>
        <time>2022-06-12T08:02:01Z</time>
      </trkpt>
      <trkpt lat="44.25471" lon="6.75067">
        <ele>2177.1</ele>
        <time>2022-06-12T08:02:02Z</time>
      </trkpt>
      <trkpt lat="44.2547" lon="6.75064">
        <ele>2177.2</ele>
        <time>2022-06-12T08:02:03Z</time>
      </trkpt>
      <trkpt lat="44.25469" lon="6.75061">
        <ele>2177.2</ele>
        <time>2022-06-12T08:02:04Z</time>
      </trkpt>
      <trkpt lat="44.25469" lon="6.75058">
        <ele>2177.3</ele>
        <time>2022-06-12T08:02:05Z</time>
      </trkpt>
      <trkpt lat="44.25468" lon="6.75055">
        <ele>2177.4</ele>
        <time>2022-06-12T08:02:06Z</time>
      </trkpt>
      <trkpt lat="44.25467" lon="6.75052">
        <ele>2177.8</ele>
        <time>2022-06-12T08:02:07Z</time>
      </trkpt>
      <trkpt lat="44.25466" lon="6.75049">
        <ele>2177.8</ele>
        <time>2022-06-12T08:02:08Z</time>
      </trkpt>
      <trkpt lat="44.25464" lon="6.75046">
        <ele>2177.7</ele>
        <time>2022-06-12T08:02:09Z</time>
      </trkpt>
      <trkpt lat="44.25464" lon="6.75044">
        <ele>2178</ele>
        <time>2022-06-12T08:02:10Z</time>
      </trkpt>
      <trkpt lat="44.25463" lon="6.75041">
        <ele>2178.4</ele>
        <time>2022-06-12T08:02:11Z</time>
      </trkpt>
      <trkpt lat="44.25462" lon="6.75038">
        <ele>2178.5</ele>
        <time>2022-06-12T08:02:12Z</time>
      </trkpt>
      <trkpt lat="44.25461" lon="6.75035">
        <ele>2178.9</ele>
        <time>2022-06-12T08:02:13Z</time>
      </trkpt>
      <trkpt lat="44.2546" lon="6.75032">
        <ele>2179.1</ele>
        <time>2022-06-12T08:02:14Z</time>
      </trkpt>
      <trkpt lat="44.2546" lon="6.75029">
        <ele>2179.5</ele>
        <time>2022-06-12T08:02:15Z</time>
      </trkpt>
      <trkpt lat="44.2546" lon="6.75026">
        <ele>2180.2</ele>
        <time>2022-06-12T08:02:16Z</time>
      </trkpt>
      <trkpt lat="44.25459" lon="6.75023">
        <ele>2180.7</ele>
        <time>2022-06-12T08:02:17Z</time>
      </trkpt>
      <trkpt lat="44.25459" lon="6.7502">
        <ele>2181.2</ele>
        <time>2022-06-12T08:02:18Z</time>
      </trkpt>
      <trkpt lat="44.25459" lon="6.75017">
        <ele>2181.7</ele>
        <time>2022-06-12T08:02:19Z</time>
      </trkpt>
      <trkpt lat="44.25459" lon="6.75014">
        <ele>2181.9</ele>
        <time>2022-06-12T08:02:20Z</time>
      </trkpt>
      <trkpt lat="44.25458" lon="6.7501">
        <ele>2182.1</ele>
        <time>2022-06-12T08:02:21Z</time>
      </trkpt>
      <trkpt lat="44.25457" lon="6.75007">
        <ele>2182</ele>
        <time>2022-06-12T08:02:22Z</time>
      </trkpt>
      <trkpt lat="44.25456" lon="6.75004">
        <ele>2181.9</ele>
        <time>2022-06-12T08:02:23Z</time>
      </trkpt>
      <trkpt lat="44.25455" lon="6.75">
        <ele>2182.2</ele>
        <time>2022-06-12T08:02:24Z</time>
      </trkpt>
      <trkpt lat="44.25455" lon="6.74997">
        <ele>2182.9</ele>
        <time>2022-06-12T08:02:25Z</time>
      </trkpt>
      <trkpt lat="44.25455" lon="6.74993">
        <ele>2183.4</ele>
        <time>2022-06-12T08:02:26Z</time>
      </trkpt>
      <trkpt lat="44.25456" lon="6.74989">
        <ele>2184.5</ele>
        <time>2022-06-12T08:02:27Z</time>
      </trkpt>
      <trkpt lat="44.25455" lon="6.74985">
        <ele>2184.9</ele>
        <time>2022-06-12T08:02:28Z</time>
      </trkpt>
      <trkpt lat="44.25455" lon="6.74982">
        <ele>2185.4</ele>
        <time>2022-06-12T08:02:29Z</time>
      </trkpt>
      <trkpt lat="44.25455" lon="6.74978">
        <ele>2186.2</ele>
        <time>2022-06-12T08:02:30Z</time>
      </trkpt>
      <trkpt lat="44.25456" lon="6.74975">
        <ele>2187.3</ele>
        <time>2022-06-12T08:02:31Z</time>
      </trkpt>
      <trkpt lat="44.25455" lon="6.74971">
        <ele>2187.6</ele>
        <time>2022-06-12T08:02:32Z</time>
      </trkpt>
      <trkpt lat="44.25456" lon="6.74968">
        <ele>2187.9</ele>
        <time>2022-06-12T08:02:33Z</time>
      </trkpt>
      <trkpt lat="44.25455" lon="6.74965">
        <ele>2187.9</ele>
        <time>2022-06-12T08:02:34Z</time>
      </trkpt>
      <trkpt lat="44.25455" lon="6.74962">
        <ele>2187.6</ele>
        <time>2022-06-12T08:02:35Z</time>
      </trkpt>
      <trkpt lat="44.25455" lon="6.74959">
        <ele>2187.7</ele>
        <time>2022-06-12T08:02:36Z</time>
      </trkpt>
      <trkpt lat="44.25455" lon="6.74956">
        <ele>2187.8</ele>
        <time>2022-06-12T08:02:37Z</time>
      </trkpt>
      <trkpt lat="44.25454" lon="6.74953">
        <ele>2187.5</ele>
        <time>2022-06-12T08:02:38Z</time>
      </trkpt>
      <trkpt lat="44.25454" lon="6.7495">
        <ele>2187.2</ele>
        <time>2022-06-12T08:02:39Z</time>
      </trkpt>
      <trkpt lat="44.25454" lon="6.74947">
        <ele>2187.3</ele>
        <time>2022-06-12T08:02:40Z</time>
      </trkpt>
      <trkpt lat="44.25454" lon="6.74944">
        <ele>2187.7</ele>
        <time>2022-06-12T08:02:41Z</time>
      </trkpt>
      <trkpt lat="44.25454" lon="6.74942">
        <ele>2187.6</ele>
        <time>2022-06-12T08:02:42Z</time>
      </trkpt>
      <trkpt lat="44.25454" lon="6.74939">
        <ele>2187.8</ele>
        <time>2022-06-12T08:02:43Z</time>
      </trkpt>
      <trkpt lat="44.25454" lon="6.74936">
        <ele>2187.8</ele>
        <time>2022-06-12T08:02:44Z</time>
      </trkpt>
      <trkpt lat="44.25454" lon="6.74933">
        <ele>2187.9</ele>
        <time>2022-06-12T08:02:45Z</time>
      </trkpt>
      <trkpt lat="44.25454" lon="6.74929">
        <ele>2188</ele>
        <time>2022-06-12T08:02:46Z</time>
      </trkpt>
      <trkpt lat="44.25455" lon="6.74926">
        <ele>2188.8</ele>
        <time>2022-06-12T08:02:47Z</time>
      </trkpt>
      <trkpt lat="44.25455" lon="6.74923">
        <ele>2189.1</ele>
        <time>2022-06-12T08:02:48Z</time>
      </trkpt>
      <trkpt lat="44.25455" lon="6.7492">
        <ele>2189</ele>
        <time>2022-06-12T08:02:49Z</time>
      </trkpt>
      <trkpt lat="44.25455" lon="6.74917">
        <ele>2189</ele>
        <time>2022-06-12T08:02:50Z</time>
      </trkpt>
      <trkpt lat="44.25455" lon="6.74914">
        <ele>2189</ele>
        <time>2022-06-12T08:02:51Z</time>
      </trkpt>
      <trkpt lat="44.25454" lon="6.74911">
        <ele>2189.1</ele>
        <time>2022-06-12T08:02:52Z</time>
      </trkpt>
      <trkpt lat="44.25454" lon="6.74908">
        <ele>2189.3</ele>
        <time>2022-06-12T08:02:53Z</time>
      </trkpt>
      <trkpt lat="44.25454" lon="6.74905">
        <ele>2189.4</ele>
        <time>2022-06-12T08:02:54Z</time>
      </trkpt>
      <trkpt lat="44.25453" lon="6.74902">
        <ele>2189.4</ele>
        <time>2022-06-12T08:02:55Z</time>
      </trkpt>
      <trkpt lat="44.25452" lon="6.74899">
        <ele>2189.3</ele>
        <time>2022-06-12T08:02:56Z</time>
      </trkpt>
      <trkpt lat="44.25452" lon="6.74896">
        <ele>2189.1</ele>
        <time>2022-06-12T08:02:57Z</time>
      </trkpt>
      <trkpt lat="44.25451" lon="6.74893">
        <ele>2189</ele>
        <time>2022-06-12T08:02:58Z</time>
      </trkpt>
      <trkpt lat="44.2545" lon="6.7489">
        <ele>2188.9</ele>
        <time>2022-06-12T08:02:59Z</time>
      </trkpt>
      <trkpt lat="44.25449" lon="6.74887">
        <ele>2189</ele>
        <time>2022-06-12T08:03:00Z</time>
      </trkpt>
      <trkpt lat="44.25448" lon="6.74884">
        <ele>2189</ele>
        <time>2022-06-12T08:03:01Z</time>
      </trkpt>
      <trkpt lat="44.25447" lon="6.74882">
        <ele>2189.2</ele>
        <time>2022-06-12T08:03:02Z</time>
      </trkpt>
      <trkpt lat="44.25446" lon="6.74879">
        <ele>2189.2</ele>
        <time>2022-06-12T08:03:03Z</time>
      </trkpt>
      <trkpt lat="44.25445" lon="6.74877">
        <ele>2189.4</ele>
        <time>2022-06-12T08:03:04Z</time>
      </trkpt>
      <trkpt lat="44.25444" lon="6.74874">
        <ele>2189.7</ele>
        <time>2022-06-12T08:03:05Z</time>
      </trkpt>
      <trkpt lat="44.25444" lon="6.74871">
        <ele>2190.2</ele>
        <time>2022-06-12T08:03:06Z</time>
      </trkpt>
      <trkpt lat="44.25443" lon="6.74868">
        <ele>2190.6</ele>
        <time>2022-06-12T08:03:07Z</time>
      </trkpt>
      <trkpt lat="44.25442" lon="6.74865">
        <ele>2191</ele>
        <time>2022-06-12T08:03:08Z</time>
      </trkpt>
      <trkpt lat="44.25441" lon="6.74862">
        <ele>2191.2</ele>
        <time>2022-06-12T08:03:09Z</time>
      </trkpt>
      <trkpt lat="44.2544" lon="6.74859">
        <ele>2191.5</ele>
        <time>2022-06-12T08:03:10Z</time>
      </trkpt>
      <trkpt lat="44.2544" lon="6.74857">
        <ele>2191.9</ele>
        <time>2022-06-12T08:03:11Z</time>
      </trkpt>
      <trkpt lat="44.25439" lon="6.74854">
        <ele>2192.1</ele>
        <time>2022-06-12T08:03:12Z</time>
      </trkpt>
      <trkpt lat="44.25438" lon="6.74851">
        <ele>2192.2</ele>
        <time>2022-06-12T08:03:13Z</time>
      </trkpt>
      <trkpt lat="44.25436" lon="6.74849">
        <ele>2192.3</ele>
        <time>2022-06-12T08:03:14Z</time>
      </trkpt>
      <trkpt lat="44.25435" lon="6.74846">
        <ele>2192.6</ele>
        <time>2022-06-12T08:03:15Z</time>
      </trkpt>
      <trkpt lat="44.25435" lon="6.74843">
        <ele>2192.8</ele>
        <time>2022-06-12T08:03:16Z</time>
      </trkpt>
      <trkpt lat="44.25433" lon="6.74841">
        <ele>2192.9</ele>
        <time>2022-06-12T08:03:17Z</time>
      </trkpt>
      <trkpt lat="44.25433" lon="6.74838">
        <ele>2193.2</ele>
        <time>2022-06-12T08:03:18Z</time>
      </trkpt>
      <trkpt lat="44.25432" lon="6.74836">
        <ele>2193.5</ele>
        <time>2022-06-12T08:03:19Z</time>
      </trkpt>
      <trkpt lat="44.25431" lon="6.74833">
        <ele>2193.7</ele>
        <time>2022-06-12T08:03:20Z</time>
      </trkpt>
      <trkpt lat="44.2543" lon="6.7483">
        <ele>2194.1</ele>
        <time>2022-06-12T08:03:21Z</time>
      </trkpt>
      <trkpt lat="44.25429" lon="6.74828">
        <ele>2194.4</ele>
        <time>2022-06-12T08:03:22Z</time>
      </trkpt>
      <trkpt lat="44.25428" lon="6.74825">
        <ele>2194.6</ele>
        <time>2022-06-12T08:03:23Z</time>
      </trkpt>
      <trkpt lat="44.25427" lon="6.74822">
        <ele>2194.9</ele>
        <time>2022-06-12T08:03:24Z</time>
      </trkpt>
      <trkpt lat="44.25426" lon="6.7482">
        <ele>2195.3</ele>
        <time>2022-06-12T08:03:25Z</time>
      </trkpt>
      <trkpt lat="44.25425" lon="6.74817">
        <ele>2195.6</ele>
        <time>2022-06-12T08:03:26Z</time>
      </trkpt>
      <trkpt lat="44.25424" lon="6.74814">
        <ele>2195.8</ele>
        <time>2022-06-12T08:03:27Z</time>
      </trkpt>
      <trkpt lat="44.25422" lon="6.74812">
        <ele>2195.9</ele>
        <time>2022-06-12T08:03:28Z</time>
      </trkpt>
      <trkpt lat="44.25421" lon="6.74809">
        <ele>2195.9</ele>
        <time>2022-06-12T08:03:29Z</time>
      </trkpt>
      <trkpt lat="44.2542" lon="6.74807">
        <ele>2196</ele>
        <time>2022-06-12T08:03:30Z</time>
      </trkpt>
      <trkpt lat="44.25418" lon="6.74804">
        <ele>2195.8</ele>
        <time>2022-06-12T08:03:31Z</time>
      </trkpt>
      <trkpt lat="44.25416" lon="6.74802">
        <ele>2195.6</ele>
        <time>2022-06-12T08:03:32Z</time>
      </trkpt>
      <trkpt lat="44.25414" lon="6.748">
        <ele>2195.8</ele>
        <time>2022-06-12T08:03:33Z</time>
      </trkpt>
      <trkpt lat="44.25412" lon="6.74798">
        <ele>2195.9</ele>
        <time>2022-06-12T08:03:34Z</time>
      </trkpt>
      <trkpt lat="44.2541" lon="6.74797">
        <ele>2195.9</ele>
        <time>2022-06-12T08:03:35Z</time>
      </trkpt>
      <trkpt lat="44.25408" lon="6.74795">
        <ele>2196</ele>
        <time>2022-06-12T08:03:36Z</time>
      </trkpt>
      <trkpt lat="44.25406" lon="6.74794">
        <ele>2196</ele>
        <time>2022-06-12T08:03:37Z</time>
      </trkpt>
      <trkpt lat="44.25404" lon="6.74793">
        <ele>2195.9</ele>
        <time>2022-06-12T08:03:38Z</time>
      </trkpt>
      <trkpt lat="44.25402" lon="6.74792">
        <ele>2195.8</ele>
        <time>2022-06-12T08:03:39Z</time>
      </trkpt>
      <trkpt lat="44.25399" lon="6.74791">
        <ele>2195.7</ele>
        <time>2022-06-12T08:03:40Z</time>
      </trkpt>
      <trkpt lat="44.25397" lon="6.7479">
        <ele>2195.6</ele>
        <time>2022-06-12T08:03:41Z</time>
      </trkpt>
      <trkpt lat="44.25394" lon="6.7479">
        <ele>2195.4</ele>
        <time>2022-06-12T08:03:42Z</time>
      </trkpt>
      <trkpt lat="44.25392" lon="6.7479">
        <ele>2195.2</ele>
        <time>2022-06-12T08:03:43Z</time>
      </trkpt>
      <trkpt lat="44.2539" lon="6.74789">
        <ele>2195</ele>
        <time>2022-06-12T08:03:44Z</time>
      </trkpt>
      <trkpt lat="44.25387" lon="6.74789">
        <ele>2195.1</ele>
        <time>2022-06-12T08:03:45Z</time>
      </trkpt>
      <trkpt lat="44.25385" lon="6.74789">
        <ele>2195.4</ele>
        <time>2022-06-12T08:03:46Z</time>
      </trkpt>
      <trkpt lat="44.25383" lon="6.7479">
        <ele>2195.5</ele>
        <time>2022-06-12T08:03:47Z</time>
      </trkpt>
      <trkpt lat="44.2538" lon="6.7479">
        <ele>2195.6</ele>
        <time>2022-06-12T08:03:48Z</time>
      </trkpt>
      <trkpt lat="44.25378" lon="6.74791">
        <ele>2195.7</ele>
        <time>2022-06-12T08:03:49Z</time>
      </trkpt>
      <trkpt lat="44.25376" lon="6.74792">
        <ele>2195.7</ele>
        <time>2022-06-12T08:03:50Z</time>
      </trkpt>
      <trkpt lat="44.25373" lon="6.74793">
        <ele>2195.7</ele>
        <time>2022-06-12T08:03:51Z</time>
      </trkpt>
      <trkpt lat="44.25371" lon="6.74794">
        <ele>2195.6</ele>
        <time>2022-06-12T08:03:52Z</time>
      </trkpt>
      <trkpt lat="44.25369" lon="6.74796">
        <ele>2195.5</ele>
        <time>2022-06-12T08:03:53Z</time>
      </trkpt>
      <trkpt lat="44.25367" lon="6.74798">
        <ele>2195.2</ele>
        <time>2022-06-12T08:03:54Z</time>
      </trkpt>
      <trkpt lat="44.25365" lon="6.74799">
        <ele>2195</ele>
        <time>2022-06-12T08:03:55Z</time>
      </trkpt>
      <trkpt lat="44.25363" lon="6.74801">
        <ele>2194.9</ele>
        <time>2022-06-12T08:03:56Z</time>
      </trkpt>
      <trkpt lat="44.25361" lon="6.74803">
        <ele>2194.6</ele>
        <time>2022-06-12T08:03:57Z</time>
      </trkpt>
      <trkpt lat="44.25359" lon="6.74804">
        <ele>2193.6</ele>
        <time>2022-06-12T08:03:58Z</time>
      </trkpt>
      <trkpt lat="44.25357" lon="6.74805">
        <ele>2192.6</ele>
        <time>2022-06-12T08:03:59Z</time>
      </trkpt>
      <trkpt lat="44.25354" lon="6.74806">
        <ele>2191.6</ele>
        <time>2022-06-12T08:04:00Z</time>
      </trkpt>
      <trkpt lat="44.25352" lon="6.74807">
        <ele>2190.7</ele>
        <time>2022-06-12T08:04:01Z</time>
      </trkpt>
      <trkpt lat="44.2535" lon="6.74807">
        <ele>2189.9</ele>
        <time>2022-06-12T08:04:02Z</time>
      </trkpt>
      <trkpt lat="44.25348" lon="6.74807">
        <ele>2189.3</ele>
        <time>2022-06-12T08:04:03Z</time>
      </trkpt>
      <trkpt lat="44.25346" lon="6.74805">
        <ele>2189.3</ele>
        <time>2022-06-12T08:04:04Z</time>
      </trkpt>
      <trkpt lat="44.25344" lon="6.74803">
        <ele>2189.2</ele>
        <time>2022-06-12T08:04:05Z</time>
      </trkpt>
      <trkpt lat="44.25342" lon="6.74801">
        <ele>2189.3</ele>
        <time>2022-06-12T08:04:06Z</time>
      </trkpt>
      <trkpt lat="44.25341" lon="6.74799">
        <ele>2189.6</ele>
        <time>2022-06-12T08:04:07Z</time>
      </trkpt>
      <trkpt lat="44.25339" lon="6.74797">
        <ele>2189.9</ele>
        <time>2022-06-12T08:04:08Z</time>
      </trkpt>
      <trkpt lat="44.25339" lon="6.74795">
        <ele>2190.4</ele>
        <time>2022-06-12T08:04:09Z</time>
      </trkpt>
      <trkpt lat="44.25338" lon="6.74792">
        <ele>2191.1</ele>
        <time>2022-06-12T08:04:10Z</time>
      </trkpt>
      <trkpt lat="44.25338" lon="6.74789">
        <ele>2191.9</ele>
        <time>2022-06-12T08:04:11Z</time>
      </trkpt>
      <trkpt lat="44.25338" lon="6.74786">
        <ele>2193</ele>
        <time>2022-06-12T08:04:12Z</time>
      </trkpt>
      <trkpt lat="44.25338" lon="6.74783">
        <ele>2194.2</ele>
        <time>2022-06-12T08:04:13Z</time>
      </trkpt>
      <trkpt lat="44.25339" lon="6.7478">
        <ele>2195.4</ele>
        <time>2022-06-12T08:04:14Z</time>
      </trkpt>
      <trkpt lat="44.2534" lon="6.74777">
        <ele>2196.4</ele>
        <time>2022-06-12T08:04:15Z</time>
      </trkpt>
      <trkpt lat="44.25341" lon="6.74774">
        <ele>2197.2</ele>
        <time>2022-06-12T08:04:16Z</time>
      </trkpt>
      <trkpt lat="44.25343" lon="6.74772">
        <ele>2198</ele>
        <time>2022-06-12T08:04:17Z</time>
      </trkpt>
      <trkpt lat="44.25344" lon="6.7477">
        <ele>2198.7</ele>
        <time>2022-06-12T08:04:18Z</time>
      </trkpt>
      <trkpt lat="44.25346" lon="6.74768">
        <ele>2199.5</ele>
        <time>2022-06-12T08:04:19Z</time>
      </trkpt>
      <trkpt lat="44.25348" lon="6.74766">
        <ele>2200.1</ele>
        <time>2022-06-12T08:04:20Z</time>
      </trkpt>
      <trkpt lat="44.25349" lon="6.74765">
        <ele>2200.7</ele>
        <time>2022-06-12T08:04:21Z</time>
      </trkpt>
      <trkpt lat="44.25351" lon="6.74764">
        <ele>2201.2</ele>
        <time>2022-06-12T08:04:22Z</time>
      </trkpt>
      <trkpt lat="44.25353" lon="6.74763">
        <ele>2201.8</ele>
        <time>2022-06-12T08:04:23Z</time>
      </trkpt>
      <trkpt lat="44.25355" lon="6.74761">
        <ele>2202.4</ele>
        <time>2022-06-12T08:04:24Z</time>
      </trkpt>
      <trkpt lat="44.25357" lon="6.7476">
        <ele>2203</ele>
        <time>2022-06-12T08:04:25Z</time>
      </trkpt>
      <trkpt lat="44.25359" lon="6.74759">
        <ele>2203.6</ele>
        <time>2022-06-12T08:04:26Z</time>
      </trkpt>
      <trkpt lat="44.25361" lon="6.74758">
        <ele>2204.2</ele>
        <time>2022-06-12T08:04:27Z</time>
      </trkpt>
      <trkpt lat="44.25363" lon="6.74757">
        <ele>2204.4</ele>
        <time>2022-06-12T08:04:28Z</time>
      </trkpt>
      <trkpt lat="44.25365" lon="6.74755">
        <ele>2204.5</ele>
        <time>2022-06-12T08:04:29Z</time>
      </trkpt>
      <trkpt lat="44.25367" lon="6.74754">
        <ele>2204.5</ele>
        <time>2022-06-12T08:04:30Z</time>
      </trkpt>
      <trkpt lat="44.25369" lon="6.74754">
        <ele>2204.4</ele>
        <time>2022-06-12T08:04:31Z</time>
      </trkpt>
      <trkpt lat="44.25372" lon="6.74752">
        <ele>2204.4</ele>
        <time>2022-06-12T08:04:32Z</time>
      </trkpt>
      <trkpt lat="44.25374" lon="6.74751">
        <ele>2204.4</ele>
        <time>2022-06-12T08:04:33Z</time>
      </trkpt>
      <trkpt lat="44.25376" lon="6.7475">
        <ele>2204.5</ele>
        <time>2022-06-12T08:04:34Z</time>
      </trkpt>
      <trkpt lat="44.25378" lon="6.74748">
        <ele>2204.8</ele>
        <time>2022-06-12T08:04:35Z</time>
      </trkpt>
      <trkpt lat="44.2538" lon="6.74747">
        <ele>2204.9</ele>
        <time>2022-06-12T08:04:36Z</time>
      </trkpt>
      <trkpt lat="44.25383" lon="6.74746">
        <ele>2205</ele>
        <time>2022-06-12T08:04:37Z</time>
      </trkpt>
      <trkpt lat="44.25385" lon="6.74745">
        <ele>2205.1</ele>
        <time>2022-06-12T08:04:38Z</time>
      </trkpt>
      <trkpt lat="44.25387" lon="6.74744">
        <ele>2205.3</ele>
        <time>2022-06-12T08:04:39Z</time>
      </trkpt>
      <trkpt lat="44.2539" lon="6.74742">
        <ele>2205.6</ele>
        <time>2022-06-12T08:04:40Z</time>
      </trkpt>
      <trkpt lat="44.25392" lon="6.74741">
        <ele>2206.2</ele>
        <time>2022-06-12T08:04:41Z</time>
      </trkpt>
      <trkpt lat="44.25395" lon="6.74741">
        <ele>2206.7</ele>
        <time>2022-06-12T08:04:42Z</time>
      </trkpt>
      <trkpt lat="44.25397" lon="6.74741">
        <ele>2207</ele>
        <time>2022-06-12T08:04:43Z</time>
      </trkpt>
      <trkpt lat="44.254" lon="6.74741">
        <ele>2207.3</ele>
        <time>2022-06-12T08:04:44Z</time>
      </trkpt>
      <trkpt lat="44.25402" lon="6.74741">
        <ele>2207.6</ele>
        <time>2022-06-12T08:04:45Z</time>
      </trkpt>
      <trkpt lat="44.25404" lon="6.74741">
        <ele>2207.8</ele>
        <time>2022-06-12T08:04:46Z</time>
      </trkpt>
      <trkpt lat="44.25407" lon="6.74741">
        <ele>2207.9</ele>
        <time>2022-06-12T08:04:47Z</time>
      </trkpt>
      <trkpt lat="44.25409" lon="6.74742">
        <ele>2208</ele>
        <time>2022-06-12T08:04:48Z</time>
      </trkpt>
      <trkpt lat="44.25411" lon="6.74743">
        <ele>2208</ele>
        <time>2022-06-12T08:04:49Z</time>
      </trkpt>
      <trkpt lat="44.25413" lon="6.74744">
        <ele>2207.9</ele>
        <time>2022-06-12T08:04:50Z</time>
      </trkpt>
      <trkpt lat="44.25415" lon="6.74745">
        <ele>2207.7</ele>
        <time>2022-06-12T08:04:51Z</time>
      </trkpt>
      <trkpt lat="44.25417" lon="6.74746">
        <ele>2207.6</ele>
        <time>2022-06-12T08:04:52Z</time>
      </trkpt>
      <trkpt lat="44.25419" lon="6.74747">
        <ele>2207.7</ele>
        <time>2022-06-12T08:04:53Z</time>
      </trkpt>
      <trkpt lat="44.2542" lon="6.74749">
        <ele>2207.9</ele>
        <time>2022-06-12T08:04:54Z</time>
      </trkpt>
      <trkpt lat="44.25422" lon="6.7475">
        <ele>2208.1</ele>
        <time>2022-06-12T08:04:55Z</time>
      </trkpt>
      <trkpt lat="44.25424" lon="6.74752">
        <ele>2208.6</ele>
        <time>2022-06-12T08:04:56Z</time>
      </trkpt>
      <trkpt lat="44.25426" lon="6.74753">
        <ele>2209</ele>
        <time>2022-06-12T08:04:57Z</time>
      </trkpt>
      <trkpt lat="44.25428" lon="6.74756">
        <ele>2209.3</ele>
        <time>2022-06-12T08:04:58Z</time>
      </trkpt>
      <trkpt lat="44.25429" lon="6.74758">
        <ele>2209.3</ele>
        <time>2022-06-12T08:04:59Z</time>
      </trkpt>
      <trkpt lat="44.2543" lon="6.74761">
        <ele>2209.2</ele>
        <time>2022-06-12T08:05:00Z</time>
      </trkpt>
      <trkpt lat="44.25431" lon="6.74763">
        <ele>2209.4</ele>
        <time>2022-06-12T08:05:01Z</time>
      </trkpt>
      <trkpt lat="44.25432" lon="6.74765">
        <ele>2209.5</ele>
        <time>2022-06-12T08:05:02Z</time>
      </trkpt>
      <trkpt lat="44.25434" lon="6.74768">
        <ele>2209.8</ele>
        <time>2022-06-12T08:05:03Z</time>
      </trkpt>
      <trkpt lat="44.25435" lon="6.7477">
        <ele>2209.9</ele>
        <time>2022-06-12T08:05:04Z</time>
      </trkpt>
      <trkpt lat="44.25436" lon="6.74772">
        <ele>2210.1</ele>
        <time>2022-06-12T08:05:05Z</time>
      </trkpt>
      <trkpt lat="44.25438" lon="6.74775">
        <ele>2210.3</ele>
        <time>2022-06-12T08:05:06Z</time>
      </trkpt>
      <trkpt lat="44.25439" lon="6.74777">
        <ele>2210.6</ele>
        <time>2022-06-12T08:05:07Z</time>
      </trkpt>
      <trkpt lat="44.2544" lon="6.74779">
        <ele>2210.6</ele>
        <time>2022-06-12T08:05:08Z</time>
      </trkpt>
      <trkpt lat="44.25442" lon="6.74782">
        <ele>2210.8</ele>
        <time>2022-06-12T08:05:09Z</time>
      </trkpt>
      <trkpt lat="44.25443" lon="6.74784">
        <ele>2211</ele>
        <time>2022-06-12T08:05:10Z</time>
      </trkpt>
      <trkpt lat="44.25445" lon="6.74786">
        <ele>2211.3</ele>
        <time>2022-06-12T08:05:11Z</time>
      </trkpt>
      <trkpt lat="44.25446" lon="6.74788">
        <ele>2211.5</ele>
        <time>2022-06-12T08:05:12Z</time>
      </trkpt>
      <trkpt lat="44.25448" lon="6.74791">
        <ele>2211.6</ele>
        <time>2022-06-12T08:05:13Z</time>
      </trkpt>
      <trkpt lat="44.25449" lon="6.74793">
        <ele>2211.8</ele>
        <time>2022-06-12T08:05:14Z</time>
      </trkpt>
      <trkpt lat="44.25451" lon="6.74795">
        <ele>2211.9</ele>
        <time>2022-06-12T08:05:15Z</time>
      </trkpt>
      <trkpt lat="44.25452" lon="6.74798">
        <ele>2211.9</ele>
        <time>2022-06-12T08:05:16Z</time>
      </trkpt>
      <trkpt lat="44.25453" lon="6.748">
        <ele>2212</ele>
        <time>2022-06-12T08:05:17Z</time>
      </trkpt>
      <trkpt lat="44.25455" lon="6.74802">
        <ele>2212.1</ele>
        <time>2022-06-12T08:05:18Z</time>
      </trkpt>
      <trkpt lat="44.25456" lon="6.74805">
        <ele>2212.2</ele>
        <time>2022-06-12T08:05:19Z</time>
      </trkpt>
      <trkpt lat="44.25458" lon="6.74807">
        <ele>2212.5</ele>
        <time>2022-06-12T08:05:20Z</time>
      </trkpt>
      <trkpt lat="44.25459" lon="6.74809">
        <ele>2212.6</ele>
        <time>2022-06-12T08:05:21Z</time>
      </trkpt>
      <trkpt lat="44.25461" lon="6.74811">
        <ele>2212.9</ele>
        <time>2022-06-12T08:05:22Z</time>
      </trkpt>
      <trkpt lat="44.25462" lon="6.74813">
        <ele>2212.8</ele>
        <time>2022-06-12T08:05:23Z</time>
      </trkpt>
      <trkpt lat="44.25464" lon="6.74816">
        <ele>2212.8</ele>
        <time>2022-06-12T08:05:24Z</time>
      </trkpt>
      <trkpt lat="44.25465" lon="6.74818">
        <ele>2212.8</ele>
        <time>2022-06-12T08:05:25Z</time>
      </trkpt>
      <trkpt lat="44.25466" lon="6.74821">
        <ele>2212.9</ele>
        <time>2022-06-12T08:05:26Z</time>
      </trkpt>
      <trkpt lat="44.25468" lon="6.74823">
        <ele>2213</ele>
        <time>2022-06-12T08:05:27Z</time>
      </trkpt>
      <trkpt lat="44.25469" lon="6.74825">
        <ele>2213.1</ele>
        <time>2022-06-12T08:05:28Z</time>
      </trkpt>
      <trkpt lat="44.2547" lon="6.74828">
        <ele>2213.2</ele>
        <time>2022-06-12T08:05:29Z</time>
      </trkpt>
      <trkpt lat="44.25472" lon="6.7483">
        <ele>2213.3</ele>
        <time>2022-06-12T08:05:30Z</time>
      </trkpt>
      <trkpt lat="44.25473" lon="6.74832">
        <ele>2213.7</ele>
        <time>2022-06-12T08:05:31Z</time>
      </trkpt>
      <trkpt lat="44.25475" lon="6.74834">
        <ele>2214</ele>
        <time>2022-06-12T08:05:32Z</time>
      </trkpt>
      <trkpt lat="44.25476" lon="6.74836">
        <ele>2214.1</ele>
        <time>2022-06-12T08:05:33Z</time>
      </trkpt>
      <trkpt lat="44.25477" lon="6.74839">
        <ele>2214.4</ele>
        <time>2022-06-12T08:05:34Z</time>
      </trkpt>
      <trkpt lat="44.25478" lon="6.74841">
        <ele>2214.7</ele>
        <time>2022-06-12T08:05:35Z</time>
      </trkpt>
      <trkpt lat="44.2548" lon="6.74844">
        <ele>2215.1</ele>
        <time>2022-06-12T08:05:36Z</time>
      </trkpt>
      <trkpt lat="44.25482" lon="6.74846">
        <ele>2215.7</ele>
        <time>2022-06-12T08:05:37Z</time>
      </trkpt>
      <trkpt lat="44.25483" lon="6.74848">
        <ele>2216.1</ele>
        <time>2022-06-12T08:05:38Z</time>
      </trkpt>
      <trkpt lat="44.25484" lon="6.74851">
        <ele>2216.4</ele>
        <time>2022-06-12T08:05:39Z</time>
      </trkpt>
      <trkpt lat="44.25485" lon="6.74854">
        <ele>2216.5</ele>
        <time>2022-06-12T08:05:40Z</time>
      </trkpt>
      <trkpt lat="44.25486" lon="6.74856">
        <ele>2216.8</ele>
        <time>2022-06-12T08:05:41Z</time>
      </trkpt>
      <trkpt lat="44.25488" lon="6.74859">
        <ele>2217.3</ele>
        <time>2022-06-12T08:05:42Z</time>
      </trkpt>
      <trkpt lat="44.25489" lon="6.74861">
        <ele>2217.7</ele>
        <time>2022-06-12T08:05:43Z</time>
      </trkpt>
      <trkpt lat="44.2549" lon="6.74863">
        <ele>2218.2</ele>
        <time>2022-06-12T08:05:44Z</time>
      </trkpt>
      <trkpt lat="44.25492" lon="6.74866">
        <ele>2218.9</ele>
        <time>2022-06-12T08:05:45Z</time>
      </trkpt>
      <trkpt lat="44.25494" lon="6.74868">
        <ele>2219.5</ele>
        <time>2022-06-12T08:05:46Z</time>
      </trkpt>
      <trkpt lat="44.25495" lon="6.7487">
        <ele>2220.5</ele>
        <time>2022-06-12T08:05:47Z</time>
      </trkpt>
      <trkpt lat="44.25497" lon="6.74872">
        <ele>2221.3</ele>
        <time>2022-06-12T08:05:48Z</time>
      </trkpt>
      <trkpt lat="44.25498" lon="6.74874">
        <ele>2221.8</ele>
        <time>2022-06-12T08:05:49Z</time>
      </trkpt>
      <trkpt lat="44.25499" lon="6.74877">
        <ele>2221.9</ele>
        <time>2022-06-12T08:05:50Z</time>
      </trkpt>
      <trkpt lat="44.25499" lon="6.7488">
        <ele>2221.8</ele>
        <time>2022-06-12T08:05:51Z</time>
      </trkpt>
      <trkpt lat="44.25499" lon="6.74883">
        <ele>2221.6</ele>
        <time>2022-06-12T08:05:52Z</time>
      </trkpt>
      <trkpt lat="44.25499" lon="6.74886">
        <ele>2221.4</ele>
        <time>2022-06-12T08:05:53Z</time>
      </trkpt>
      <trkpt lat="44.25499" lon="6.74889">
        <ele>2221.2</ele>
        <time>2022-06-12T08:05:54Z</time>
      </trkpt>
      <trkpt lat="44.25499" lon="6.74892">
        <ele>2221.2</ele>
        <time>2022-06-12T08:05:55Z</time>
      </trkpt>
      <trkpt lat="44.25499" lon="6.74895">
        <ele>2221.3</ele>
        <time>2022-06-12T08:05:56Z</time>
      </trkpt>
      <trkpt lat="44.255" lon="6.74897">
        <ele>2221.8</ele>
        <time>2022-06-12T08:05:57Z</time>
      </trkpt>
      <trkpt lat="44.25501" lon="6.749">
        <ele>2222.3</ele>
        <time>2022-06-12T08:05:58Z</time>
      </trkpt>
      <trkpt lat="44.25502" lon="6.74903">
        <ele>2222.6</ele>
        <time>2022-06-12T08:05:59Z</time>
      </trkpt>
      <trkpt lat="44.25503" lon="6.74906">
        <ele>2223.1</ele>
        <time>2022-06-12T08:06:00Z</time>
      </trkpt>
      <trkpt lat="44.25503" lon="6.74909">
        <ele>2223.2</ele>
        <time>2022-06-12T08:06:01Z</time>
      </trkpt>
      <trkpt lat="44.25504" lon="6.74912">
        <ele>2223.7</ele>
        <time>2022-06-12T08:06:02Z</time>
      </trkpt>
      <trkpt lat="44.25504" lon="6.74915">
        <ele>2223.9</ele>
        <time>2022-06-12T08:06:03Z</time>
      </trkpt>
      <trkpt lat="44.25505" lon="6.74918">
        <ele>2224.2</ele>
        <time>2022-06-12T08:06:04Z</time>
      </trkpt>
      <trkpt lat="44.25505" lon="6.74921">
        <ele>2224.4</ele>
        <time>2022-06-12T08:06:05Z</time>
      </trkpt>
      <trkpt lat="44.25505" lon="6.74924">
        <ele>2224.4</ele>
        <time>2022-06-12T08:06:06Z</time>
      </trkpt>
      <trkpt lat="44.25505" lon="6.74927">
        <ele>2224.5</ele>
        <time>2022-06-12T08:06:07Z</time>
      </trkpt>
      <trkpt lat="44.25506" lon="6.7493">
        <ele>2224.6</ele>
        <time>2022-06-12T08:06:08Z</time>
      </trkpt>
      <trkpt lat="44.25506" lon="6.74933">
        <ele>2224.7</ele>
        <time>2022-06-12T08:06:09Z</time>
      </trkpt>
      <trkpt lat="44.25507" lon="6.74936">
        <ele>2225.1</ele>
        <time>2022-06-12T08:06:10Z</time>
      </trkpt>
      <trkpt lat="44.25507" lon="6.74939">
        <ele>2225.2</ele>
        <time>2022-06-12T08:06:11Z</time>
      </trkpt>
      <trkpt lat="44.25508" lon="6.74942">
        <ele>2225.5</ele>
        <time>2022-06-12T08:06:12Z</time>
      </trkpt>
      <trkpt lat="44.25508" lon="6.74945">
        <ele>2225.7</ele>
        <time>2022-06-12T08:06:13Z</time>
      </trkpt>
      <trkpt lat="44.25509" lon="6.74948">
        <ele>2225.9</ele>
        <time>2022-06-12T08:06:14Z</time>
      </trkpt>
      <trkpt lat="44.25509" lon="6.7495">
        <ele>2225.9</ele>
        <time>2022-06-12T08:06:15Z</time>
      </trkpt>
      <trkpt lat="44.25509" lon="6.74953">
        <ele>2225.9</ele>
        <time>2022-06-12T08:06:16Z</time>
      </trkpt>
      <trkpt lat="44.25509" lon="6.74956">
        <ele>2225.9</ele>
        <time>2022-06-12T08:06:17Z</time>
      </trkpt>
      <trkpt lat="44.2551" lon="6.74959">
        <ele>2225.8</ele>
        <time>2022-06-12T08:06:18Z</time>
      </trkpt>
      <trkpt lat="44.25509" lon="6.74962">
        <ele>2225.5</ele>
        <time>2022-06-12T08:06:19Z</time>
      </trkpt>
      <trkpt lat="44.2551" lon="6.74965">
        <ele>2225.6</ele>
        <time>2022-06-12T08:06:20Z</time>
      </trkpt>
      <trkpt lat="44.25511" lon="6.74968">
        <ele>2225.8</ele>
        <time>2022-06-12T08:06:21Z</time>
      </trkpt>
      <trkpt lat="44.25511" lon="6.7497">
        <ele>2225.9</ele>
        <time>2022-06-12T08:06:22Z</time>
      </trkpt>
      <trkpt lat="44.25512" lon="6.74973">
        <ele>2225.9</ele>
        <time>2022-06-12T08:06:23Z</time>
      </trkpt>
      <trkpt lat="44.25512" lon="6.74976">
        <ele>2225.9</ele>
        <time>2022-06-12T08:06:24Z</time>
      </trkpt>
      <trkpt lat="44.25512" lon="6.74979">
        <ele>2225.7</ele>
        <time>2022-06-12T08:06:25Z</time>
      </trkpt>
      <trkpt lat="44.25513" lon="6.74982">
        <ele>2225.6</ele>
        <time>2022-06-12T08:06:26Z</time>
      </trkpt>
      <trkpt lat="44.25513" lon="6.74985">
        <ele>2225.6</ele>
        <time>2022-06-12T08:06:27Z</time>
      </trkpt>
      <trkpt lat="44.25514" lon="6.74988">
        <ele>2225.5</ele>
        <time>2022-06-12T08:06:28Z</time>
      </trkpt>
      <trkpt lat="44.25515" lon="6.74991">
        <ele>2225.6</ele>
        <time>2022-06-12T08:06:29Z</time>
      </trkpt>
      <trkpt lat="44.25515" lon="6.74994">
        <ele>2225.5</ele>
        <time>2022-06-12T08:06:30Z</time>
      </trkpt>
      <trkpt lat="44.25516" lon="6.74997">
        <ele>2225.5</ele>
        <time>2022-06-12T08:06:31Z</time>
      </trkpt>
      <trkpt lat="44.25516" lon="6.75">
        <ele>2225.4</ele>
        <time>2022-06-12T08:06:32Z</time>
      </trkpt>
      <trkpt lat="44.25517" lon="6.75003">
        <ele>2225.3</ele>
        <time>2022-06-12T08:06:33Z</time>
      </trkpt>
      <trkpt lat="44.25517" lon="6.75006">
        <ele>2225</ele>
        <time>2022-06-12T08:06:34Z</time>
      </trkpt>
      <trkpt lat="44.25517" lon="6.75009">
        <ele>2224.9</ele>
        <time>2022-06-12T08:06:35Z</time>
      </trkpt>
      <trkpt lat="44.25518" lon="6.75012">
        <ele>2224.6</ele>
        <time>2022-06-12T08:06:36Z</time>
      </trkpt>
      <trkpt lat="44.25518" lon="6.75015">
        <ele>2224.5</ele>
        <time>2022-06-12T08:06:37Z</time>
      </trkpt>
      <trkpt lat="44.25519" lon="6.75019">
        <ele>2224.4</ele>
        <time>2022-06-12T08:06:38Z</time>
      </trkpt>
      <trkpt lat="44.2552" lon="6.75021">
        <ele>2224.9</ele>
        <time>2022-06-12T08:06:39Z</time>
      </trkpt>
      <trkpt lat="44.25521" lon="6.75024">
        <ele>2225.1</ele>
        <time>2022-06-12T08:06:40Z</time>
      </trkpt>
      <trkpt lat="44.25522" lon="6.75027">
        <ele>2225.4</ele>
        <time>2022-06-12T08:06:41Z</time>
      </trkpt>
      <trkpt lat="44.25522" lon="6.7503">
        <ele>2225.5</ele>
        <time>2022-06-12T08:06:42Z</time>
      </trkpt>
      <trkpt lat="44.25523" lon="6.75033">
        <ele>2225.5</ele>
        <time>2022-06-12T08:06:43Z</time>
      </trkpt>
      <trkpt lat="44.25524" lon="6.75036">
        <ele>2225.7</ele>
        <time>2022-06-12T08:06:44Z</time>
      </trkpt>
      <trkpt lat="44.25525" lon="6.75038">
        <ele>2225.7</ele>
        <time>2022-06-12T08:06:45Z</time>
      </trkpt>
      <trkpt lat="44.25526" lon="6.7504">
        <ele>2226</ele>
        <time>2022-06-12T08:06:46Z</time>
      </trkpt>
      <trkpt lat="44.25526" lon="6.75043">
        <ele>2226</ele>
        <time>2022-06-12T08:06:47Z</time>
      </trkpt>
      <trkpt lat="44.25527" lon="6.75045">
        <ele>2226.3</ele>
        <time>2022-06-12T08:06:48Z</time>
      </trkpt>
      <trkpt lat="44.25528" lon="6.75048">
        <ele>2226.6</ele>
        <time>2022-06-12T08:06:49Z</time>
      </trkpt>
      <trkpt lat="44.2553" lon="6.75051">
        <ele>2226.9</ele>
        <time>2022-06-12T08:06:50Z</time>
      </trkpt>
      <trkpt lat="44.25531" lon="6.75053">
        <ele>2227.1</ele>
        <time>2022-06-12T08:06:51Z</time>
      </trkpt>
      <trkpt lat="44.25533" lon="6.75056">
        <ele>2227.7</ele>
        <time>2022-06-12T08:06:52Z</time>
      </trkpt>
      <trkpt lat="44.25534" lon="6.75059">
        <ele>2227.7</ele>
        <time>2022-06-12T08:06:53Z</time>
      </trkpt>
      <trkpt lat="44.25535" lon="6.75061">
        <ele>2227.8</ele>
        <time>2022-06-12T08:06:54Z</time>
      </trkpt>
      <trkpt lat="44.25536" lon="6.75064">
        <ele>2227.7</ele>
        <time>2022-06-12T08:06:55Z</time>
      </trkpt>
      <trkpt lat="44.25537" lon="6.75067">
        <ele>2227.7</ele>
        <time>2022-06-12T08:06:56Z</time>
      </trkpt>
      <trkpt lat="44.25538" lon="6.7507">
        <ele>2227.7</ele>
        <time>2022-06-12T08:06:57Z</time>
      </trkpt>
      <trkpt lat="44.25539" lon="6.75073">
        <ele>2227.6</ele>
        <time>2022-06-12T08:06:58Z</time>
      </trkpt>
      <trkpt lat="44.2554" lon="6.75076">
        <ele>2227.3</ele>
        <time>2022-06-12T08:06:59Z</time>
      </trkpt>
      <trkpt lat="44.25541" lon="6.75079">
        <ele>2227.2</ele>
        <time>2022-06-12T08:07:00Z</time>
      </trkpt>
      <trkpt lat="44.25541" lon="6.75082">
        <ele>2227</ele>
        <time>2022-06-12T08:07:01Z</time>
      </trkpt>
      <trkpt lat="44.25542" lon="6.75085">
        <ele>2227.1</ele>
        <time>2022-06-12T08:07:02Z</time>
      </trkpt>
      <trkpt lat="44.25543" lon="6.75088">
        <ele>2227</ele>
        <time>2022-06-12T08:07:03Z</time>
      </trkpt>
      <trkpt lat="44.25543" lon="6.75091">
        <ele>2226.9</ele>
        <time>2022-06-12T08:07:04Z</time>
      </trkpt>
      <trkpt lat="44.25543" lon="6.75094">
        <ele>2226.3</ele>
        <time>2022-06-12T08:07:05Z</time>
      </trkpt>
      <trkpt lat="44.25543" lon="6.75097">
        <ele>2225.9</ele>
        <time>2022-06-12T08:07:06Z</time>
      </trkpt>
      <trkpt lat="44.25543" lon="6.75101">
        <ele>2225.5</ele>
        <time>2022-06-12T08:07:07Z</time>
      </trkpt>
      <trkpt lat="44.25543" lon="6.75104">
        <ele>2225.2</ele>
        <time>2022-06-12T08:07:08Z</time>
      </trkpt>
      <trkpt lat="44.25543" lon="6.75107">
        <ele>2225</ele>
        <time>2022-06-12T08:07:09Z</time>
      </trkpt>
      <trkpt lat="44.25543" lon="6.75111">
        <ele>2224.6</ele>
        <time>2022-06-12T08:07:10Z</time>
      </trkpt>
      <trkpt lat="44.25544" lon="6.75114">
        <ele>2224.4</ele>
        <time>2022-06-12T08:07:11Z</time>
      </trkpt>
      <trkpt lat="44.25544" lon="6.75117">
        <ele>2224.1</ele>
        <time>2022-06-12T08:07:12Z</time>
      </trkpt>
      <trkpt lat="44.25544" lon="6.75121">
        <ele>2223.9</ele>
        <time>2022-06-12T08:07:13Z</time>
      </trkpt>
      <trkpt lat="44.25545" lon="6.75124">
        <ele>2223.9</ele>
        <time>2022-06-12T08:07:14Z</time>
      </trkpt>
      <trkpt lat="44.25546" lon="6.75127">
        <ele>2223.8</ele>
        <time>2022-06-12T08:07:15Z</time>
      </trkpt>
      <trkpt lat="44.25546" lon="6.75129">
        <ele>2223.9</ele>
        <time>2022-06-12T08:07:16Z</time>
      </trkpt>
      <trkpt lat="44.25547" lon="6.75132">
        <ele>2224.1</ele>
        <time>2022-06-12T08:07:17Z</time>
      </trkpt>
      <trkpt lat="44.25549" lon="6.75135">
        <ele>2224.7</ele>
        <time>2022-06-12T08:07:18Z</time>
      </trkpt>
      <trkpt lat="44.2555" lon="6.75138">
        <ele>2225.1</ele>
        <time>2022-06-12T08:07:19Z</time>
      </trkpt>
      <trkpt lat="44.25551" lon="6.7514">
        <ele>2225.7</ele>
        <time>2022-06-12T08:07:20Z</time>
      </trkpt>
      <trkpt lat="44.25553" lon="6.75142">
        <ele>2226.4</ele>
        <time>2022-06-12T08:07:21Z</time>
      </trkpt>
      <trkpt lat="44.25554" lon="6.75144">
        <ele>2227</ele>
        <time>2022-06-12T08:07:22Z</time>
      </trkpt>
      <trkpt lat="44.25556" lon="6.75147">
        <ele>2227.5</ele>
        <time>2022-06-12T08:07:23Z</time>
      </trkpt>
      <trkpt lat="44.25557" lon="6.75149">
        <ele>2227.6</ele>
        <time>2022-06-12T08:07:24Z</time>
      </trkpt>
      <trkpt lat="44.25559" lon="6.75152">
        <ele>2227.7</ele>
        <time>2022-06-12T08:07:25Z</time>
      </trkpt>
      <trkpt lat="44.2556" lon="6.75154">
        <ele>2228</ele>
        <time>2022-06-12T08:07:26Z</time>
      </trkpt>
      <trkpt lat="44.25562" lon="6.75157">
        <ele>2228.3</ele>
        <time>2022-06-12T08:07:27Z</time>
      </trkpt>
      <trkpt lat="44.25564" lon="6.75159">
        <ele>2228.7</ele>
        <time>2022-06-12T08:07:28Z</time>
      </trkpt>
      <trkpt lat="44.25566" lon="6.75162">
        <ele>2229.1</ele>
        <time>2022-06-12T08:07:29Z</time>
      </trkpt>
      <trkpt lat="44.25568" lon="6.75164">
        <ele>2229.6</ele>
        <time>2022-06-12T08:07:30Z</time>
      </trkpt>
      <trkpt lat="44.25569" lon="6.75167">
        <ele>2230</ele>
        <time>2022-06-12T08:07:31Z</time>
      </trkpt>
      <trkpt lat="44.25571" lon="6.75169">
        <ele>2230.5</ele>
        <time>2022-06-12T08:07:32Z</time>
      </trkpt>
      <trkpt lat="44.25573" lon="6.75172">
        <ele>2231.1</ele>
        <time>2022-06-12T08:07:33Z</time>
      </trkpt>
      <trkpt lat="44.25575" lon="6.75174">
        <ele>2231.8</ele>
        <time>2022-06-12T08:07:34Z</time>
      </trkpt>
      <trkpt lat="44.25577" lon="6.75177">
        <ele>2232.5</ele>
        <time>2022-06-12T08:07:35Z</time>
      </trkpt>
      <trkpt lat="44.25579" lon="6.75179">
        <ele>2233.5</ele>
        <time>2022-06-12T08:07:36Z</time>
      </trkpt>
      <trkpt lat="44.25582" lon="6.75181">
        <ele>2234.5</ele>
        <time>2022-06-12T08:07:37Z</time>
      </trkpt>
      <trkpt lat="44.25584" lon="6.75183">
        <ele>2235.4</ele>
        <time>2022-06-12T08:07:38Z</time>
      </trkpt>
      <trkpt lat="44.25586" lon="6.75184">
        <ele>2236.1</ele>
        <time>2022-06-12T08:07:39Z</time>
      </trkpt>
      <trkpt lat="44.25589" lon="6.75184">
        <ele>2236.9</ele>
        <time>2022-06-12T08:07:40Z</time>
      </trkpt>
      <trkpt lat="44.25592" lon="6.75184">
        <ele>2237.9</ele>
        <time>2022-06-12T08:07:41Z</time>
      </trkpt>
      <trkpt lat="44.25594" lon="6.75183">
        <ele>2238.8</ele>
        <time>2022-06-12T08:07:42Z</time>
      </trkpt>
      <trkpt lat="44.25596" lon="6.75182">
        <ele>2239.6</ele>
        <time>2022-06-12T08:07:43Z</time>
      </trkpt>
      <trkpt lat="44.25598" lon="6.7518">
        <ele>2240.3</ele>
        <time>2022-06-12T08:07:44Z</time>
      </trkpt>
      <trkpt lat="44.25599" lon="6.75177">
        <ele>2240.8</ele>
        <time>2022-06-12T08:07:45Z</time>
      </trkpt>
      <trkpt lat="44.256" lon="6.75175">
        <ele>2241.1</ele>
        <time>2022-06-12T08:07:46Z</time>
      </trkpt>
      <trkpt lat="44.25601" lon="6.75172">
        <ele>2241.3</ele>
        <time>2022-06-12T08:07:47Z</time>
      </trkpt>
      <trkpt lat="44.256" lon="6.75169">
        <ele>2241.2</ele>
        <time>2022-06-12T08:07:48Z</time>
      </trkpt>
      <trkpt lat="44.256" lon="6.75166">
        <ele>2241.3</ele>
        <time>2022-06-12T08:07:49Z</time>
      </trkpt>
      <trkpt lat="44.25599" lon="6.75163">
        <ele>2241.3</ele>
        <time>2022-06-12T08:07:50Z</time>
      </trkpt>
      <trkpt lat="44.25597" lon="6.75161">
        <ele>2241.3</ele>
        <time>2022-06-12T08:07:51Z</time>
      </trkpt>
      <trkpt lat="44.25595" lon="6.75159">
        <ele>2241.1</ele>
        <time>2022-06-12T08:07:52Z</time>
      </trkpt>
      <trkpt lat="44.25593" lon="6.75158">
        <ele>2240.8</ele>
        <time>2022-06-12T08:07:53Z</time>
      </trkpt>
      <trkpt lat="44.25591" lon="6.75156">
        <ele>2240.6</ele>
        <time>2022-06-12T08:07:54Z</time>
      </trkpt>
      <trkpt lat="44.25588" lon="6.75155">
        <ele>2240.3</ele>
        <time>2022-06-12T08:07:55Z</time>
      </trkpt>
      <trkpt lat="44.25586" lon="6.75153">
        <ele>2240</ele>
        <time>2022-06-12T08:07:56Z</time>
      </trkpt>
      <trkpt lat="44.25583" lon="6.75152">
        <ele>2239.7</ele>
        <time>2022-06-12T08:07:57Z</time>
      </trkpt>
      <trkpt lat="44.25581" lon="6.7515">
        <ele>2238.7</ele>
        <time>2022-06-12T08:07:58Z</time>
      </trkpt>
      <trkpt lat="44.25578" lon="6.75149">
        <ele>2237.8</ele>
        <time>2022-06-12T08:07:59Z</time>
      </trkpt>
      <trkpt lat="44.25576" lon="6.75147">
        <ele>2237</ele>
        <time>2022-06-12T08:08:00Z</time>
      </trkpt>
      <trkpt lat="44.25573" lon="6.75145">
        <ele>2236.2</ele>
        <time>2022-06-12T08:08:01Z</time>
      </trkpt>
      <trkpt lat="44.25571" lon="6.75143">
        <ele>2235.4</ele>
        <time>2022-06-12T08:08:02Z</time>
      </trkpt>
      <trkpt lat="44.25569" lon="6.7514">
        <ele>2235</ele>
        <time>2022-06-12T08:08:03Z</time>
      </trkpt>
      <trkpt lat="44.25567" lon="6.75137">
        <ele>2234.5</ele>
        <time>2022-06-12T08:08:04Z</time>
      </trkpt>
      <trkpt lat="44.25565" lon="6.75133">
        <ele>2234.4</ele>
        <time>2022-06-12T08:08:05Z</time>
      </trkpt>
      <trkpt lat="44.25564" lon="6.75129">
        <ele>2234.4</ele>
        <time>2022-06-12T08:08:06Z</time>
      </trkpt>
      <trkpt lat="44.25563" lon="6.75126">
        <ele>2234.6</ele>
        <time>2022-06-12T08:08:07Z</time>
      </trkpt>
      <trkpt lat="44.25562" lon="6.75122">
        <ele>2234.8</ele>
        <time>2022-06-12T08:08:08Z</time>
      </trkpt>
      <trkpt lat="44.25561" lon="6.75118">
        <ele>2235.4</ele>
        <time>2022-06-12T08:08:09Z</time>
      </trkpt>
      <trkpt lat="44.25561" lon="6.75114">
        <ele>2235.9</ele>
        <time>2022-06-12T08:08:10Z</time>
      </trkpt>
      <trkpt lat="44.25561" lon="6.7511">
        <ele>2236.3</ele>
        <time>2022-06-12T08:08:11Z</time>
      </trkpt>
      <trkpt lat="44.25561" lon="6.75106">
        <ele>2236.7</ele>
        <time>2022-06-12T08:08:12Z</time>
      </trkpt>
      <trkpt lat="44.25561" lon="6.75103">
        <ele>2237.3</ele>
        <time>2022-06-12T08:08:13Z</time>
      </trkpt>
      <trkpt lat="44.25562" lon="6.75099">
        <ele>2238</ele>
        <time>2022-06-12T08:08:14Z</time>
      </trkpt>
      <trkpt lat="44.25564" lon="6.75096">
        <ele>2239</ele>
        <time>2022-06-12T08:08:15Z</time>
      </trkpt>
      <trkpt lat="44.25565" lon="6.75092">
        <ele>2239.7</ele>
        <time>2022-06-12T08:08:16Z</time>
      </trkpt>
      <trkpt lat="44.25566" lon="6.75089">
        <ele>2240.4</ele>
        <time>2022-06-12T08:08:17Z</time>
      </trkpt>
      <trkpt lat="44.25567" lon="6.75086">
        <ele>2241.1</ele>
        <time>2022-06-12T08:08:18Z</time>
      </trkpt>
      <trkpt lat="44.25568" lon="6.75082">
        <ele>2242</ele>
        <time>2022-06-12T08:08:19Z</time>
      </trkpt>
      <trkpt lat="44.25569" lon="6.75079">
        <ele>2242.8</ele>
        <time>2022-06-12T08:08:20Z</time>
      </trkpt>
      <trkpt lat="44.2557" lon="6.75075">
        <ele>2243.6</ele>
        <time>2022-06-12T08:08:21Z</time>
      </trkpt>
      <trkpt lat="44.25571" lon="6.75072">
        <ele>2244.2</ele>
        <time>2022-06-12T08:08:22Z</time>
      </trkpt>
      <trkpt lat="44.25572" lon="6.75068">
        <ele>2244.7</ele>
        <time>2022-06-12T08:08:23Z</time>
      </trkpt>
      <trkpt lat="44.25573" lon="6.75065">
        <ele>2245.4</ele>
        <time>2022-06-12T08:08:24Z</time>
      </trkpt>
      <trkpt lat="44.25574" lon="6.75061">
        <ele>2245.8</ele>
        <time>2022-06-12T08:08:25Z</time>
      </trkpt>
      <trkpt lat="44.25574" lon="6.75057">
        <ele>2246.2</ele>
        <time>2022-06-12T08:08:26Z</time>
      </trkpt>
      <trkpt lat="44.25575" lon="6.75054">
        <ele>2246.9</ele>
        <time>2022-06-12T08:08:27Z</time>
      </trkpt>
      <trkpt lat="44.25575" lon="6.7505">
        <ele>2247.7</ele>
        <time>2022-06-12T08:08:28Z</time>
      </trkpt>
      <trkpt lat="44.25575" lon="6.75046">
        <ele>2248.5</ele>
        <time>2022-06-12T08:08:29Z</time>
      </trkpt>
      <trkpt lat="44.25575" lon="6.75042">
        <ele>2249.3</ele>
        <time>2022-06-12T08:08:30Z</time>
      </trkpt>
      <trkpt lat="44.25575" lon="6.75039">
        <ele>2249.9</ele>
        <time>2022-06-12T08:08:31Z</time>
      </trkpt>
      <trkpt lat="44.25575" lon="6.75035">
        <ele>2250.6</ele>
        <time>2022-06-12T08:08:32Z</time>
      </trkpt>
      <trkpt lat="44.25575" lon="6.75031">
        <ele>2251.2</ele>
        <time>2022-06-12T08:08:33Z</time>
      </trkpt>
      <trkpt lat="44.25575" lon="6.75027">
        <ele>2252</ele>
        <time>2022-06-12T08:08:34Z</time>
      </trkpt>
      <trkpt lat="44.25574" lon="6.75024">
        <ele>2252.5</ele>
        <time>2022-06-12T08:08:35Z</time>
      </trkpt>
      <trkpt lat="44.25573" lon="6.7502">
        <ele>2253</ele>
        <time>2022-06-12T08:08:36Z</time>
      </trkpt>
      <trkpt lat="44.25572" lon="6.75017">
        <ele>2253.3</ele>
        <time>2022-06-12T08:08:37Z</time>
      </trkpt>
      <trkpt lat="44.25571" lon="6.75014">
        <ele>2253.6</ele>
        <time>2022-06-12T08:08:38Z</time>
      </trkpt>
      <trkpt lat="44.25569" lon="6.75011">
        <ele>2253.7</ele>
        <time>2022-06-12T08:08:39Z</time>
      </trkpt>
      <trkpt lat="44.25569" lon="6.75008">
        <ele>2253.9</ele>
        <time>2022-06-12T08:08:40Z</time>
      </trkpt>
      <trkpt lat="44.25568" lon="6.75004">
        <ele>2254</ele>
        <time>2022-06-12T08:08:41Z</time>
      </trkpt>
      <trkpt lat="44.25566" lon="6.75001">
        <ele>2253.8</ele>
        <time>2022-06-12T08:08:42Z</time>
      </trkpt>
      <trkpt lat="44.25565" lon="6.74998">
        <ele>2253.8</ele>
        <time>2022-06-12T08:08:43Z</time>
      </trkpt>
      <trkpt lat="44.25564" lon="6.74995">
        <ele>2253.8</ele>
        <time>2022-06-12T08:08:44Z</time>
      </trkpt>
      <trkpt lat="44.25562" lon="6.74992">
        <ele>2253.9</ele>
        <time>2022-06-12T08:08:45Z</time>
      </trkpt>
      <trkpt lat="44.25561" lon="6.74989">
        <ele>2254</ele>
        <time>2022-06-12T08:08:46Z</time>
      </trkpt>
      <trkpt lat="44.2556" lon="6.74986">
        <ele>2254.1</ele>
        <time>2022-06-12T08:08:47Z</time>
      </trkpt>
      <trkpt lat="44.25559" lon="6.74983">
        <ele>2254.3</ele>
        <time>2022-06-12T08:08:48Z</time>
      </trkpt>
      <trkpt lat="44.25558" lon="6.7498">
        <ele>2254.5</ele>
        <time>2022-06-12T08:08:49Z</time>
      </trkpt>
      <trkpt lat="44.25557" lon="6.74977">
        <ele>2254.6</ele>
        <time>2022-06-12T08:08:50Z</time>
      </trkpt>
      <trkpt lat="44.25556" lon="6.74974">
        <ele>2254.9</ele>
        <time>2022-06-12T08:08:51Z</time>
      </trkpt>
      <trkpt lat="44.25555" lon="6.74971">
        <ele>2255</ele>
        <time>2022-06-12T08:08:52Z</time>
      </trkpt>
      <trkpt lat="44.25555" lon="6.74967">
        <ele>2255.2</ele>
        <time>2022-06-12T08:08:53Z</time>
      </trkpt>
      <trkpt lat="44.25555" lon="6.74964">
        <ele>2255.3</ele>
        <time>2022-06-12T08:08:54Z</time>
      </trkpt>
      <trkpt lat="44.25555" lon="6.7496">
        <ele>2255.6</ele>
        <time>2022-06-12T08:08:55Z</time>
      </trkpt>
      <trkpt lat="44.25555" lon="6.74957">
        <ele>2256</ele>
        <time>2022-06-12T08:08:56Z</time>
      </trkpt>
      <trkpt lat="44.25555" lon="6.74954">
        <ele>2256.5</ele>
        <time>2022-06-12T08:08:57Z</time>
      </trkpt>
      <trkpt lat="44.25555" lon="6.74951">
        <ele>2256.9</ele>
        <time>2022-06-12T08:08:58Z</time>
      </trkpt>
      <trkpt lat="44.25555" lon="6.74948">
        <ele>2257.5</ele>
        <time>2022-06-12T08:08:59Z</time>
      </trkpt>
      <trkpt lat="44.25556" lon="6.74944">
        <ele>2258</ele>
        <time>2022-06-12T08:09:00Z</time>
      </trkpt>
      <trkpt lat="44.25556" lon="6.74941">
        <ele>2258.3</ele>
        <time>2022-06-12T08:09:01Z</time>
      </trkpt>
      <trkpt lat="44.25556" lon="6.74938">
        <ele>2258.4</ele>
        <time>2022-06-12T08:09:02Z</time>
      </trkpt>
      <trkpt lat="44.25557" lon="6.74935">
        <ele>2258.5</ele>
        <time>2022-06-12T08:09:03Z</time>
      </trkpt>
      <trkpt lat="44.25557" lon="6.74931">
        <ele>2258.8</ele>
        <time>2022-06-12T08:09:04Z</time>
      </trkpt>
      <trkpt lat="44.25557" lon="6.74928">
        <ele>2258.9</ele>
        <time>2022-06-12T08:09:05Z</time>
      </trkpt>
      <trkpt lat="44.25558" lon="6.74925">
        <ele>2259.1</ele>
        <time>2022-06-12T08:09:06Z</time>
      </trkpt>
      <trkpt lat="44.25558" lon="6.74922">
        <ele>2259.3</ele>
        <time>2022-06-12T08:09:07Z</time>
      </trkpt>
      <trkpt lat="44.25558" lon="6.74919">
        <ele>2259.4</ele>
        <time>2022-06-12T08:09:08Z</time>
      </trkpt>
      <trkpt lat="44.25558" lon="6.74916">
        <ele>2259.4</ele>
        <time>2022-06-12T08:09:09Z</time>
      </trkpt>
      <trkpt lat="44.25558" lon="6.74912">
        <ele>2259.4</ele>
        <time>2022-06-12T08:09:10Z</time>
      </trkpt>
      <trkpt lat="44.25559" lon="6.74909">
        <ele>2259.5</ele>
        <time>2022-06-12T08:09:11Z</time>
      </trkpt>
      <trkpt lat="44.25559" lon="6.74906">
        <ele>2259.6</ele>
        <time>2022-06-12T08:09:12Z</time>
      </trkpt>
      <trkpt lat="44.25559" lon="6.74903">
        <ele>2259.9</ele>
        <time>2022-06-12T08:09:13Z</time>
      </trkpt>
      <trkpt lat="44.2556" lon="6.749">
        <ele>2260.2</ele>
        <time>2022-06-12T08:09:14Z</time>
      </trkpt>
      <trkpt lat="44.2556" lon="6.74897">
        <ele>2260.6</ele>
        <time>2022-06-12T08:09:15Z</time>
      </trkpt>
      <trkpt lat="44.25561" lon="6.74894">
        <ele>2260.8</ele>
        <time>2022-06-12T08:09:16Z</time>
      </trkpt>
      <trkpt lat="44.25561" lon="6.74891">
        <ele>2261.2</ele>
        <time>2022-06-12T08:09:17Z</time>
      </trkpt>
      <trkpt lat="44.25562" lon="6.74888">
        <ele>2261.6</ele>
        <time>2022-06-12T08:09:18Z</time>
      </trkpt>
      <trkpt lat="44.25562" lon="6.74885">
        <ele>2262.4</ele>
        <time>2022-06-12T08:09:19Z</time>
      </trkpt>
      <trkpt lat="44.25563" lon="6.74883">
        <ele>2263.1</ele>
        <time>2022-06-12T08:09:20Z</time>
      </trkpt>
      <trkpt lat="44.25564" lon="6.7488">
        <ele>2263.7</ele>
        <time>2022-06-12T08:09:21Z</time>
      </trkpt>
      <trkpt lat="44.25564" lon="6.74877">
        <ele>2264.2</ele>
        <time>2022-06-12T08:09:22Z</time>
      </trkpt>
      <trkpt lat="44.25564" lon="6.74874">
        <ele>2264.6</ele>
        <time>2022-06-12T08:09:23Z</time>
      </trkpt>
      <trkpt lat="44.25564" lon="6.74871">
        <ele>2264.8</ele>
        <time>2022-06-12T08:09:24Z</time>
      </trkpt>
      <trkpt lat="44.25564" lon="6.74868">
        <ele>2265.1</ele>
        <time>2022-06-12T08:09:25Z</time>
      </trkpt>
      <trkpt lat="44.25564" lon="6.74865">
        <ele>2265.4</ele>
        <time>2022-06-12T08:09:26Z</time>
      </trkpt>
      <trkpt lat="44.25564" lon="6.74862">
        <ele>2265.7</ele>
        <time>2022-06-12T08:09:27Z</time>
      </trkpt>
      <trkpt lat="44.25564" lon="6.74858">
        <ele>2265.9</ele>
        <time>2022-06-12T08:09:28Z</time>
      </trkpt>
      <trkpt lat="44.25565" lon="6.74855">
        <ele>2266.1</ele>
        <time>2022-06-12T08:09:29Z</time>
      </trkpt>
      <trkpt lat="44.25565" lon="6.74852">
        <ele>2266.3</ele>
        <time>2022-06-12T08:09:30Z</time>
      </trkpt>
      <trkpt lat="44.25565" lon="6.74849">
        <ele>2266.1</ele>
        <time>2022-06-12T08:09:31Z</time>
      </trkpt>
      <trkpt lat="44.25565" lon="6.74845">
        <ele>2266.1</ele>
        <time>2022-06-12T08:09:32Z</time>
      </trkpt>
      <trkpt lat="44.25565" lon="6.74842">
        <ele>2266.1</ele>
        <time>2022-06-12T08:09:33Z</time>
      </trkpt>
      <trkpt lat="44.25565" lon="6.74839">
        <ele>2266.1</ele>
        <time>2022-06-12T08:09:34Z</time>
      </trkpt>
      <trkpt lat="44.25564" lon="6.74836">
        <ele>2265.7</ele>
        <time>2022-06-12T08:09:35Z</time>
      </trkpt>
      <trkpt lat="44.25564" lon="6.74833">
        <ele>2265.7</ele>
        <time>2022-06-12T08:09:36Z</time>
      </trkpt>
      <trkpt lat="44.25564" lon="6.74829">
        <ele>2265.8</ele>
        <time>2022-06-12T08:09:37Z</time>
      </trkpt>
      <trkpt lat="44.25563" lon="6.74826">
        <ele>2265.8</ele>
        <time>2022-06-12T08:09:38Z</time>
      </trkpt>
      <trkpt lat="44.25563" lon="6.74823">
        <ele>2265.8</ele>
        <time>2022-06-12T08:09:39Z</time>
      </trkpt>
      <trkpt lat="44.25562" lon="6.74821">
        <ele>2265.8</ele>
        <time>2022-06-12T08:09:40Z</time>
      </trkpt>
      <trkpt lat="44.25562" lon="6.74817">
        <ele>2265.9</ele>
        <time>2022-06-12T08:09:41Z</time>
      </trkpt>
      <trkpt lat="44.25561" lon="6.74814">
        <ele>2266</ele>
        <time>2022-06-12T08:09:42Z</time>
      </trkpt>
      <trkpt lat="44.2556" lon="6.74811">
        <ele>2265.7</ele>
        <time>2022-06-12T08:09:43Z</time>
      </trkpt>
      <trkpt lat="44.2556" lon="6.74808">
        <ele>2265.8</ele>
        <time>2022-06-12T08:09:44Z</time>
      </trkpt>
      <trkpt lat="44.25559" lon="6.74805">
        <ele>2265.9</ele>
        <time>2022-06-12T08:09:45Z</time>
      </trkpt>
      <trkpt lat="44.25559" lon="6.74802">
        <ele>2266.2</ele>
        <time>2022-06-12T08:09:46Z</time>
      </trkpt>
      <trkpt lat="44.25558" lon="6.74798">
        <ele>2266.3</ele>
        <time>2022-06-12T08:09:47Z</time>
      </trkpt>
      <trkpt lat="44.25558" lon="6.74795">
        <ele>2266.4</ele>
        <time>2022-06-12T08:09:48Z</time>
      </trkpt>
      <trkpt lat="44.25558" lon="6.74792">
        <ele>2266.6</ele>
        <time>2022-06-12T08:09:49Z</time>
      </trkpt>
      <trkpt lat="44.25557" lon="6.74788">
        <ele>2266.9</ele>
        <time>2022-06-12T08:09:50Z</time>
      </trkpt>
      <trkpt lat="44.25557" lon="6.74785">
        <ele>2267.1</ele>
        <time>2022-06-12T08:09:51Z</time>
      </trkpt>
      <trkpt lat="44.25557" lon="6.74782">
        <ele>2267.2</ele>
        <time>2022-06-12T08:09:52Z</time>
      </trkpt>
      <trkpt lat="44.25556" lon="6.74779">
        <ele>2267.4</ele>
        <time>2022-06-12T08:09:53Z</time>
      </trkpt>
      <trkpt lat="44.25556" lon="6.74776">
        <ele>2267.7</ele>
        <time>2022-06-12T08:09:54Z</time>
      </trkpt>
      <trkpt lat="44.25556" lon="6.74773">
        <ele>2268.1</ele>
        <time>2022-06-12T08:09:55Z</time>
      </trkpt>
      <trkpt lat="44.25556" lon="6.7477">
        <ele>2268.2</ele>
        <time>2022-06-12T08:09:56Z</time>
      </trkpt>
      <trkpt lat="44.25555" lon="6.74766">
        <ele>2268.4</ele>
        <time>2022-06-12T08:09:57Z</time>
      </trkpt>
      <trkpt lat="44.25555" lon="6.74763">
        <ele>2268.6</ele>
        <time>2022-06-12T08:09:58Z</time>
      </trkpt>
      <trkpt lat="44.25555" lon="6.7476">
        <ele>2268.9</ele>
        <time>2022-06-12T08:09:59Z</time>
      </trkpt>
      <trkpt lat="44.25554" lon="6.74756">
        <ele>2269.1</ele>
        <time>2022-06-12T08:10:00Z</time>
      </trkpt>
      <trkpt lat="44.25554" lon="6.74753">
        <ele>2269.4</ele>
        <time>2022-06-12T08:10:01Z</time>
      </trkpt>
      <trkpt lat="44.25553" lon="6.7475">
        <ele>2269.5</ele>
        <time>2022-06-12T08:10:02Z</time>
      </trkpt>
      <trkpt lat="44.25553" lon="6.74747">
        <ele>2269.5</ele>
        <time>2022-06-12T08:10:03Z</time>
      </trkpt>
      <trkpt lat="44.25553" lon="6.74744">
        <ele>2269.5</ele>
        <time>2022-06-12T08:10:04Z</time>
      </trkpt>
      <trkpt lat="44.25553" lon="6.7474">
        <ele>2269.8</ele>
        <time>2022-06-12T08:10:05Z</time>
      </trkpt>
      <trkpt lat="44.25552" lon="6.74737">
        <ele>2269.9</ele>
        <time>2022-06-12T08:10:06Z</time>
      </trkpt>
      <trkpt lat="44.25552" lon="6.74734">
        <ele>2270.2</ele>
        <time>2022-06-12T08:10:07Z</time>
      </trkpt>
      <trkpt lat="44.25552" lon="6.74731">
        <ele>2270.4</ele>
        <time>2022-06-12T08:10:08Z</time>
      </trkpt>
      <trkpt lat="44.25552" lon="6.74727">
        <ele>2270.8</ele>
        <time>2022-06-12T08:10:09Z</time>
      </trkpt>
      <trkpt lat="44.25553" lon="6.74724">
        <ele>2271.2</ele>
        <time>2022-06-12T08:10:10Z</time>
      </trkpt>
      <trkpt lat="44.25553" lon="6.74721">
        <ele>2271.4</ele>
        <time>2022-06-12T08:10:11Z</time>
      </trkpt>
      <trkpt lat="44.25553" lon="6.74718">
        <ele>2271.7</ele>
        <time>2022-06-12T08:10:12Z</time>
      </trkpt>
      <trkpt lat="44.25553" lon="6.74715">
        <ele>2271.9</ele>
        <time>2022-06-12T08:10:13Z</time>
      </trkpt>
      <trkpt lat="44.25554" lon="6.74711">
        <ele>2272.1</ele>
        <time>2022-06-12T08:10:14Z</time>
      </trkpt>
      <trkpt lat="44.25554" lon="6.74708">
        <ele>2272.3</ele>
        <time>2022-06-12T08:10:15Z</time>
      </trkpt>
      <trkpt lat="44.25554" lon="6.74705">
        <ele>2272.5</ele>
        <time>2022-06-12T08:10:16Z</time>
      </trkpt>
      <trkpt lat="44.25555" lon="6.74702">
        <ele>2272.6</ele>
        <time>2022-06-12T08:10:17Z</time>
      </trkpt>
      <trkpt lat="44.25555" lon="6.74699">
        <ele>2272.8</ele>
        <time>2022-06-12T08:10:18Z</time>
      </trkpt>
      <trkpt lat="44.25555" lon="6.74695">
        <ele>2272.9</ele>
        <time>2022-06-12T08:10:19Z</time>
      </trkpt>
      <trkpt lat="44.25556" lon="6.74692">
        <ele>2273</ele>
        <time>2022-06-12T08:10:20Z</time>
      </trkpt>
      <trkpt lat="44.25556" lon="6.74689">
        <ele>2273.1</ele>
        <time>2022-06-12T08:10:21Z</time>
      </trkpt>
      <trkpt lat="44.25556" lon="6.74686">
        <ele>2273.2</ele>
        <time>2022-06-12T08:10:22Z</time>
      </trkpt>
      <trkpt lat="44.25557" lon="6.74683">
        <ele>2273.3</ele>
        <time>2022-06-12T08:10:23Z</time>
      </trkpt>
      <trkpt lat="44.25558" lon="6.7468">
        <ele>2273.5</ele>
        <time>2022-06-12T08:10:24Z</time>
      </trkpt>
      <trkpt lat="44.25558" lon="6.74677">
        <ele>2273.6</ele>
        <time>2022-06-12T08:10:25Z</time>
      </trkpt>
      <trkpt lat="44.25559" lon="6.74674">
        <ele>2273.7</ele>
        <time>2022-06-12T08:10:26Z</time>
      </trkpt>
      <trkpt lat="44.2556" lon="6.74671">
        <ele>2273.8</ele>
        <time>2022-06-12T08:10:27Z</time>
      </trkpt>
      <trkpt lat="44.2556" lon="6.74668">
        <ele>2273.8</ele>
        <time>2022-06-12T08:10:28Z</time>
      </trkpt>
      <trkpt lat="44.2556" lon="6.74665">
        <ele>2274</ele>
        <time>2022-06-12T08:10:29Z</time>
      </trkpt>
      <trkpt lat="44.25561" lon="6.74662">
        <ele>2274.4</ele>
        <time>2022-06-12T08:10:30Z</time>
      </trkpt>
      <trkpt lat="44.25561" lon="6.74658">
        <ele>2274.7</ele>
        <time>2022-06-12T08:10:31Z</time>
      </trkpt>
      <trkpt lat="44.25561" lon="6.74655">
        <ele>2275</ele>
        <time>2022-06-12T08:10:32Z</time>
      </trkpt>
      <trkpt lat="44.25561" lon="6.74652">
        <ele>2275.3</ele>
        <time>2022-06-12T08:10:33Z</time>
      </trkpt>
      <trkpt lat="44.25561" lon="6.74649">
        <ele>2275.6</ele>
        <time>2022-06-12T08:10:34Z</time>
      </trkpt>
      <trkpt lat="44.25561" lon="6.74646">
        <ele>2275.9</ele>
        <time>2022-06-12T08:10:35Z</time>
      </trkpt>
      <trkpt lat="44.25561" lon="6.74643">
        <ele>2276.1</ele>
        <time>2022-06-12T08:10:36Z</time>
      </trkpt>
      <trkpt lat="44.2556" lon="6.7464">
        <ele>2276.3</ele>
        <time>2022-06-12T08:10:37Z</time>
      </trkpt>
      <trkpt lat="44.2556" lon="6.74636">
        <ele>2276.6</ele>
        <time>2022-06-12T08:10:38Z</time>
      </trkpt>
      <trkpt lat="44.25559" lon="6.74633">
        <ele>2277</ele>
        <time>2022-06-12T08:10:39Z</time>
      </trkpt>
      <trkpt lat="44.25559" lon="6.74631">
        <ele>2277.4</ele>
        <time>2022-06-12T08:10:40Z</time>
      </trkpt>
      <trkpt lat="44.25558" lon="6.74627">
        <ele>2277.7</ele>
        <time>2022-06-12T08:10:41Z</time>
      </trkpt>
      <trkpt lat="44.25557" lon="6.74624">
        <ele>2278.2</ele>
        <time>2022-06-12T08:10:42Z</time>
      </trkpt>
      <trkpt lat="44.25557" lon="6.74621">
        <ele>2278.6</ele>
        <time>2022-06-12T08:10:43Z</time>
      </trkpt>
      <trkpt lat="44.25556" lon="6.74618">
        <ele>2279</ele>
        <time>2022-06-12T08:10:44Z</time>
      </trkpt>
      <trkpt lat="44.25556" lon="6.74615">
        <ele>2279.4</ele>
        <time>2022-06-12T08:10:45Z</time>
      </trkpt>
      <trkpt lat="44.25555" lon="6.74613">
        <ele>2279.6</ele>
        <time>2022-06-12T08:10:46Z</time>
      </trkpt>
      <trkpt lat="44.25555" lon="6.7461">
        <ele>2280</ele>
        <time>2022-06-12T08:10:47Z</time>
      </trkpt>
      <trkpt lat="44.25554" lon="6.74607">
        <ele>2280.5</ele>
        <time>2022-06-12T08:10:48Z</time>
      </trkpt>
      <trkpt lat="44.25553" lon="6.74604">
        <ele>2281</ele>
        <time>2022-06-12T08:10:49Z</time>
      </trkpt>
      <trkpt lat="44.25552" lon="6.74601">
        <ele>2281.4</ele>
        <time>2022-06-12T08:10:50Z</time>
      </trkpt>
      <trkpt lat="44.25551" lon="6.74598">
        <ele>2281.6</ele>
        <time>2022-06-12T08:10:51Z</time>
      </trkpt>
      <trkpt lat="44.2555" lon="6.74595">
        <ele>2281.8</ele>
        <time>2022-06-12T08:10:52Z</time>
      </trkpt>
      <trkpt lat="44.25548" lon="6.74593">
        <ele>2282</ele>
        <time>2022-06-12T08:10:53Z</time>
      </trkpt>
      <trkpt lat="44.25546" lon="6.7459">
        <ele>2282.1</ele>
        <time>2022-06-12T08:10:54Z</time>
      </trkpt>
      <trkpt lat="44.25544" lon="6.74587">
        <ele>2282.1</ele>
        <time>2022-06-12T08:10:55Z</time>
      </trkpt>
      <trkpt lat="44.25542" lon="6.74585">
        <ele>2282.1</ele>
        <time>2022-06-12T08:10:56Z</time>
      </trkpt>
      <trkpt lat="44.2554" lon="6.74583">
        <ele>2282.2</ele>
        <time>2022-06-12T08:10:57Z</time>
      </trkpt>
      <trkpt lat="44.25539" lon="6.74581">
        <ele>2282.4</ele>
        <time>2022-06-12T08:10:58Z</time>
      </trkpt>
      <trkpt lat="44.25537" lon="6.74579">
        <ele>2282.6</ele>
        <time>2022-06-12T08:10:59Z</time>
      </trkpt>
      <trkpt lat="44.25535" lon="6.74577">
        <ele>2282.5</ele>
        <time>2022-06-12T08:11:00Z</time>
      </trkpt>
      <trkpt lat="44.25533" lon="6.74576">
        <ele>2282.3</ele>
        <time>2022-06-12T08:11:01Z</time>
      </trkpt>
      <trkpt lat="44.25531" lon="6.74574">
        <ele>2282.1</ele>
        <time>2022-06-12T08:11:02Z</time>
      </trkpt>
      <trkpt lat="44.25528" lon="6.74573">
        <ele>2282</ele>
        <time>2022-06-12T08:11:03Z</time>
      </trkpt>
      <trkpt lat="44.25526" lon="6.74571">
        <ele>2282.1</ele>
        <time>2022-06-12T08:11:04Z</time>
      </trkpt>
      <trkpt lat="44.25525" lon="6.74569">
        <ele>2282.4</ele>
        <time>2022-06-12T08:11:05Z</time>
      </trkpt>
      <trkpt lat="44.25523" lon="6.74567">
        <ele>2282.7</ele>
        <time>2022-06-12T08:11:06Z</time>
      </trkpt>
      <trkpt lat="44.25521" lon="6.74565">
        <ele>2283</ele>
        <time>2022-06-12T08:11:07Z</time>
      </trkpt>
      <trkpt lat="44.25519" lon="6.74563">
        <ele>2283.2</ele>
        <time>2022-06-12T08:11:08Z</time>
      </trkpt>
      <trkpt lat="44.25517" lon="6.74561">
        <ele>2283.3</ele>
        <time>2022-06-12T08:11:09Z</time>
      </trkpt>
      <trkpt lat="44.25515" lon="6.7456">
        <ele>2283.5</ele>
        <time>2022-06-12T08:11:10Z</time>
      </trkpt>
      <trkpt lat="44.25513" lon="6.74558">
        <ele>2283.7</ele>
        <time>2022-06-12T08:11:11Z</time>
      </trkpt>
      <trkpt lat="44.25512" lon="6.74556">
        <ele>2283.7</ele>
        <time>2022-06-12T08:11:12Z</time>
      </trkpt>
      <trkpt lat="44.2551" lon="6.74554">
        <ele>2283.8</ele>
        <time>2022-06-12T08:11:13Z</time>
      </trkpt>
      <trkpt lat="44.25508" lon="6.74553">
        <ele>2283.8</ele>
        <time>2022-06-12T08:11:14Z</time>
      </trkpt>
      <trkpt lat="44.25506" lon="6.74551">
        <ele>2283.8</ele>
        <time>2022-06-12T08:11:15Z</time>
      </trkpt>
      <trkpt lat="44.25505" lon="6.74549">
        <ele>2283.9</ele>
        <time>2022-06-12T08:11:16Z</time>
      </trkpt>
      <trkpt lat="44.25503" lon="6.74547">
        <ele>2283.9</ele>
        <time>2022-06-12T08:11:17Z</time>
      </trkpt>
      <trkpt lat="44.25501" lon="6.74545">
        <ele>2283.8</ele>
        <time>2022-06-12T08:11:18Z</time>
      </trkpt>
      <trkpt lat="44.25499" lon="6.74543">
        <ele>2283.8</ele>
        <time>2022-06-12T08:11:19Z</time>
      </trkpt>
      <trkpt lat="44.25497" lon="6.74542">
        <ele>2283.9</ele>
        <time>2022-06-12T08:11:20Z</time>
      </trkpt>
      <trkpt lat="44.25495" lon="6.7454">
        <ele>2284</ele>
        <time>2022-06-12T08:11:21Z</time>
      </trkpt>
      <trkpt lat="44.25494" lon="6.74538">
        <ele>2284.2</ele>
        <time>2022-06-12T08:11:22Z</time>
      </trkpt>
      <trkpt lat="44.25492" lon="6.74536">
        <ele>2284.5</ele>
        <time>2022-06-12T08:11:23Z</time>
      </trkpt>
      <trkpt lat="44.2549" lon="6.74534">
        <ele>2284.7</ele>
        <time>2022-06-12T08:11:24Z</time>
      </trkpt>
      <trkpt lat="44.25489" lon="6.74532">
        <ele>2284.9</ele>
        <time>2022-06-12T08:11:25Z</time>
      </trkpt>
      <trkpt lat="44.25487" lon="6.7453">
        <ele>2285.2</ele>
        <time>2022-06-12T08:11:26Z</time>
      </trkpt>
      <trkpt lat="44.25486" lon="6.74528">
        <ele>2285.4</ele>
        <time>2022-06-12T08:11:27Z</time>
      </trkpt>
      <trkpt lat="44.25484" lon="6.74526">
        <ele>2285.3</ele>
        <time>2022-06-12T08:11:28Z</time>
      </trkpt>
      <trkpt lat="44.25482" lon="6.74524">
        <ele>2285.3</ele>
        <time>2022-06-12T08:11:29Z</time>
      </trkpt>
      <trkpt lat="44.2548" lon="6.74522">
        <ele>2285.3</ele>
        <time>2022-06-12T08:11:30Z</time>
      </trkpt>
      <trkpt lat="44.25479" lon="6.7452">
        <ele>2285.4</ele>
        <time>2022-06-12T08:11:31Z</time>
      </trkpt>
      <trkpt lat="44.25477" lon="6.74518">
        <ele>2285.5</ele>
        <time>2022-06-12T08:11:32Z</time>
      </trkpt>
      <trkpt lat="44.25476" lon="6.74515">
        <ele>2285.7</ele>
        <time>2022-06-12T08:11:33Z</time>
      </trkpt>
      <trkpt lat="44.25475" lon="6.74513">
        <ele>2286</ele>
        <time>2022-06-12T08:11:34Z</time>
      </trkpt>
      <trkpt lat="44.25474" lon="6.74509">
        <ele>2286.5</ele>
        <time>2022-06-12T08:11:35Z</time>
      </trkpt>
      <trkpt lat="44.25473" lon="6.74506">
        <ele>2287</ele>
        <time>2022-06-12T08:11:36Z</time>
      </trkpt>
      <trkpt lat="44.25473" lon="6.74503">
        <ele>2287.5</ele>
        <time>2022-06-12T08:11:37Z</time>
      </trkpt>
      <trkpt lat="44.25473" lon="6.745">
        <ele>2288.2</ele>
        <time>2022-06-12T08:11:38Z</time>
      </trkpt>
      <trkpt lat="44.25474" lon="6.74496">
        <ele>2289.1</ele>
        <time>2022-06-12T08:11:39Z</time>
      </trkpt>
      <trkpt lat="44.25475" lon="6.74493">
        <ele>2289.9</ele>
        <time>2022-06-12T08:11:40Z</time>
      </trkpt>
      <trkpt lat="44.25477" lon="6.7449">
        <ele>2290.7</ele>
        <time>2022-06-12T08:11:41Z</time>
      </trkpt>
      <trkpt lat="44.2548" lon="6.74488">
        <ele>2291.2</ele>
        <time>2022-06-12T08:11:42Z</time>
      </trkpt>
      <trkpt lat="44.25483" lon="6.74487">
        <ele>2291.6</ele>
        <time>2022-06-12T08:11:43Z</time>
      </trkpt>
      <trkpt lat="44.25486" lon="6.74486">
        <ele>2291.7</ele>
        <time>2022-06-12T08:11:44Z</time>
      </trkpt>
      <trkpt lat="44.25489" lon="6.74487">
        <ele>2291.7</ele>
        <time>2022-06-12T08:11:45Z</time>
      </trkpt>
      <trkpt lat="44.25492" lon="6.74488">
        <ele>2291.6</ele>
        <time>2022-06-12T08:11:46Z</time>
      </trkpt>
      <trkpt lat="44.25495" lon="6.7449">
        <ele>2291.3</ele>
        <time>2022-06-12T08:11:47Z</time>
      </trkpt>
      <trkpt lat="44.25497" lon="6.74494">
        <ele>2290.8</ele>
        <time>2022-06-12T08:11:48Z</time>
      </trkpt>
      <trkpt lat="44.25499" lon="6.74498">
        <ele>2290.2</ele>
        <time>2022-06-12T08:11:49Z</time>
      </trkpt>
      <trkpt lat="44.255" lon="6.74502">
        <ele>2289.9</ele>
        <time>2022-06-12T08:11:50Z</time>
      </trkpt>
      <trkpt lat="44.25501" lon="6.74506">
        <ele>2289.9</ele>
        <time>2022-06-12T08:11:51Z</time>
      </trkpt>
      <trkpt lat="44.25503" lon="6.7451">
        <ele>2290</ele>
        <time>2022-06-12T08:11:52Z</time>
      </trkpt>
      <trkpt lat="44.25504" lon="6.74513">
        <ele>2290.1</ele>
        <time>2022-06-12T08:11:53Z</time>
      </trkpt>
      <trkpt lat="44.25506" lon="6.74517">
        <ele>2290.2</ele>
        <time>2022-06-12T08:11:54Z</time>
      </trkpt>
      <trkpt lat="44.25507" lon="6.7452">
        <ele>2290.3</ele>
        <time>2022-06-12T08:11:55Z</time>
      </trkpt>
      <trkpt lat="44.25509" lon="6.74523">
        <ele>2290.5</ele>
        <time>2022-06-12T08:11:56Z</time>
      </trkpt>
      <trkpt lat="44.25511" lon="6.74527">
        <ele>2290.7</ele>
        <time>2022-06-12T08:11:57Z</time>
      </trkpt>
      <trkpt lat="44.25512" lon="6.74529">
        <ele>2290.8</ele>
        <time>2022-06-12T08:11:58Z</time>
      </trkpt>
      <trkpt lat="44.25514" lon="6.74532">
        <ele>2290.5</ele>
        <time>2022-06-12T08:11:59Z</time>
      </trkpt>
      <trkpt lat="44.25516" lon="6.74535">
        <ele>2290.4</ele>
        <time>2022-06-12T08:12:00Z</time>
      </trkpt>
      <trkpt lat="44.25518" lon="6.74537">
        <ele>2290.3</ele>
        <time>2022-06-12T08:12:01Z</time>
      </trkpt>
      <trkpt lat="44.25521" lon="6.74539">
        <ele>2290.5</ele>
        <time>2022-06-12T08:12:02Z</time>
      </trkpt>
      <trkpt lat="44.25523" lon="6.7454">
        <ele>2290.6</ele>
        <time>2022-06-12T08:12:03Z</time>
      </trkpt>
      <trkpt lat="44.25525" lon="6.74542">
        <ele>2290.7</ele>
        <time>2022-06-12T08:12:04Z</time>
      </trkpt>
      <trkpt lat="44.25527" lon="6.74544">
        <ele>2290.9</ele>
        <time>2022-06-12T08:12:05Z</time>
      </trkpt>
      <trkpt lat="44.25529" lon="6.74545">
        <ele>2291</ele>
        <time>2022-06-12T08:12:06Z</time>
      </trkpt>
      <trkpt lat="44.25531" lon="6.74547">
        <ele>2291.1</ele>
        <time>2022-06-12T08:12:07Z</time>
      </trkpt>
      <trkpt lat="44.25534" lon="6.74548">
        <ele>2291.2</ele>
        <time>2022-06-12T08:12:08Z</time>
      </trkpt>
      <trkpt lat="44.25536" lon="6.7455">
        <ele>2291.5</ele>
        <time>2022-06-12T08:12:09Z</time>
      </trkpt>
      <trkpt lat="44.25538" lon="6.74551">
        <ele>2291.8</ele>
        <time>2022-06-12T08:12:10Z</time>
      </trkpt>
      <trkpt lat="44.2554" lon="6.74552">
        <ele>2292</ele>
        <time>2022-06-12T08:12:11Z</time>
      </trkpt>
      <trkpt lat="44.25543" lon="6.74553">
        <ele>2292.3</ele>
        <time>2022-06-12T08:12:12Z</time>
      </trkpt>
      <trkpt lat="44.25545" lon="6.74555">
        <ele>2292.5</ele>
        <time>2022-06-12T08:12:13Z</time>
      </trkpt>
      <trkpt lat="44.25547" lon="6.74556">
        <ele>2292.7</ele>
        <time>2022-06-12T08:12:14Z</time>
      </trkpt>
      <trkpt lat="44.25549" lon="6.74558">
        <ele>2292.8</ele>
        <time>2022-06-12T08:12:15Z</time>
      </trkpt>
      <trkpt lat="44.25552" lon="6.74559">
        <ele>2293.1</ele>
        <time>2022-06-12T08:12:16Z</time>
      </trkpt>
      <trkpt lat="44.25554" lon="6.7456">
        <ele>2293.4</ele>
        <time>2022-06-12T08:12:17Z</time>
      </trkpt>
      <trkpt lat="44.25556" lon="6.74561">
        <ele>2293.6</ele>
        <time>2022-06-12T08:12:18Z</time>
      </trkpt>
      <trkpt lat="44.25559" lon="6.74562">
        <ele>2293.7</ele>
        <time>2022-06-12T08:12:19Z</time>
      </trkpt>
      <trkpt lat="44.25561" lon="6.74564">
        <ele>2293.7</ele>
        <time>2022-06-12T08:12:20Z</time>
      </trkpt>
      <trkpt lat="44.25563" lon="6.74565">
        <ele>2293.8</ele>
        <time>2022-06-12T08:12:21Z</time>
      </trkpt>
      <trkpt lat="44.25565" lon="6.74566">
        <ele>2294</ele>
        <time>2022-06-12T08:12:22Z</time>
      </trkpt>
      <trkpt lat="44.25567" lon="6.74567">
        <ele>2294.2</ele>
        <time>2022-06-12T08:12:23Z</time>
      </trkpt>
      <trkpt lat="44.25569" lon="6.74568">
        <ele>2294.3</ele>
        <time>2022-06-12T08:12:24Z</time>
      </trkpt>
      <trkpt lat="44.25571" lon="6.74569">
        <ele>2294.5</ele>
        <time>2022-06-12T08:12:25Z</time>
      </trkpt>
      <trkpt lat="44.25574" lon="6.7457">
        <ele>2294.7</ele>
        <time>2022-06-12T08:12:26Z</time>
      </trkpt>
      <trkpt lat="44.25576" lon="6.74571">
        <ele>2295.1</ele>
        <time>2022-06-12T08:12:27Z</time>
      </trkpt>
      <trkpt lat="44.25579" lon="6.74572">
        <ele>2295.5</ele>
        <time>2022-06-12T08:12:28Z</time>
      </trkpt>
      <trkpt lat="44.25581" lon="6.74572">
        <ele>2296</ele>
        <time>2022-06-12T08:12:29Z</time>
      </trkpt>
      <trkpt lat="44.25584" lon="6.74572">
        <ele>2296.5</ele>
        <time>2022-06-12T08:12:30Z</time>
      </trkpt>
      <trkpt lat="44.25587" lon="6.74572">
        <ele>2296.6</ele>
        <time>2022-06-12T08:12:31Z</time>
      </trkpt>
      <trkpt lat="44.25589" lon="6.74572">
        <ele>2296.8</ele>
        <time>2022-06-12T08:12:32Z</time>
      </trkpt>
      <trkpt lat="44.25592" lon="6.74572">
        <ele>2297</ele>
        <time>2022-06-12T08:12:33Z</time>
      </trkpt>
      <trkpt lat="44.25594" lon="6.74571">
        <ele>2297.3</ele>
        <time>2022-06-12T08:12:34Z</time>
      </trkpt>
      <trkpt lat="44.25596" lon="6.7457">
        <ele>2297.5</ele>
        <time>2022-06-12T08:12:35Z</time>
      </trkpt>
      <trkpt lat="44.25599" lon="6.7457">
        <ele>2297.8</ele>
        <time>2022-06-12T08:12:36Z</time>
      </trkpt>
      <trkpt lat="44.25601" lon="6.74569">
        <ele>2298</ele>
        <time>2022-06-12T08:12:37Z</time>
      </trkpt>
      <trkpt lat="44.25603" lon="6.74568">
        <ele>2298.3</ele>
        <time>2022-06-12T08:12:38Z</time>
      </trkpt>
      <trkpt lat="44.25605" lon="6.74567">
        <ele>2298.6</ele>
        <time>2022-06-12T08:12:39Z</time>
      </trkpt>
      <trkpt lat="44.25607" lon="6.74566">
        <ele>2299</ele>
        <time>2022-06-12T08:12:40Z</time>
      </trkpt>
      <trkpt lat="44.25609" lon="6.74564">
        <ele>2299.4</ele>
        <time>2022-06-12T08:12:41Z</time>
      </trkpt>
      <trkpt lat="44.25611" lon="6.74563">
        <ele>2299.8</ele>
        <time>2022-06-12T08:12:42Z</time>
      </trkpt>
      <trkpt lat="44.25613" lon="6.74561">
        <ele>2300.3</ele>
        <time>2022-06-12T08:12:43Z</time>
      </trkpt>
      <trkpt lat="44.25616" lon="6.7456">
        <ele>2300.8</ele>
        <time>2022-06-12T08:12:44Z</time>
      </trkpt>
      <trkpt lat="44.25618" lon="6.74558">
        <ele>2301.3</ele>
        <time>2022-06-12T08:12:45Z</time>
      </trkpt>
      <trkpt lat="44.2562" lon="6.74556">
        <ele>2301.8</ele>
        <time>2022-06-12T08:12:46Z</time>
      </trkpt>
      <trkpt lat="44.25621" lon="6.74555">
        <ele>2302.2</ele>
        <time>2022-06-12T08:12:47Z</time>
      </trkpt>
      <trkpt lat="44.25624" lon="6.74553">
        <ele>2302.6</ele>
        <time>2022-06-12T08:12:48Z</time>
      </trkpt>
      <trkpt lat="44.25625" lon="6.74552">
        <ele>2302.9</ele>
        <time>2022-06-12T08:12:49Z</time>
      </trkpt>
      <trkpt lat="44.25627" lon="6.7455">
        <ele>2303.3</ele>
        <time>2022-06-12T08:12:50Z</time>
      </trkpt>
      <trkpt lat="44.25629" lon="6.74548">
        <ele>2303.7</ele>
        <time>2022-06-12T08:12:51Z</time>
      </trkpt>
      <trkpt lat="44.25631" lon="6.74547">
        <ele>2304</ele>
        <time>2022-06-12T08:12:52Z</time>
      </trkpt>
      <trkpt lat="44.25633" lon="6.74546">
        <ele>2304.2</ele>
        <time>2022-06-12T08:12:53Z</time>
      </trkpt>
      <trkpt lat="44.25635" lon="6.74544">
        <ele>2304.6</ele>
        <time>2022-06-12T08:12:54Z</time>
      </trkpt>
      <trkpt lat="44.25637" lon="6.74542">
        <ele>2304.8</ele>
        <time>2022-06-12T08:12:55Z</time>
      </trkpt>
      <trkpt lat="44.25639" lon="6.74541">
        <ele>2305.1</ele>
        <time>2022-06-12T08:12:56Z</time>
      </trkpt>
      <trkpt lat="44.25641" lon="6.74539">
        <ele>2305.5</ele>
        <time>2022-06-12T08:12:57Z</time>
      </trkpt>
      <trkpt lat="44.25643" lon="6.74537">
        <ele>2305.9</ele>
        <time>2022-06-12T08:12:58Z</time>
      </trkpt>
      <trkpt lat="44.25645" lon="6.74535">
        <ele>2306.2</ele>
        <time>2022-06-12T08:12:59Z</time>
      </trkpt>
      <trkpt lat="44.25647" lon="6.74534">
        <ele>2306.6</ele>
        <time>2022-06-12T08:13:00Z</time>
      </trkpt>
      <trkpt lat="44.25649" lon="6.74532">
        <ele>2306.9</ele>
        <time>2022-06-12T08:13:01Z</time>
      </trkpt>
      <trkpt lat="44.25651" lon="6.7453">
        <ele>2307.2</ele>
        <time>2022-06-12T08:13:02Z</time>
      </trkpt>
      <trkpt lat="44.25653" lon="6.74529">
        <ele>2307.4</ele>
        <time>2022-06-12T08:13:03Z</time>
      </trkpt>
      <trkpt lat="44.25655" lon="6.74527">
        <ele>2307.7</ele>
        <time>2022-06-12T08:13:04Z</time>
      </trkpt>
      <trkpt lat="44.25656" lon="6.74526">
        <ele>2307.9</ele>
        <time>2022-06-12T08:13:05Z</time>
      </trkpt>
      <trkpt lat="44.25658" lon="6.74524">
        <ele>2308</ele>
        <time>2022-06-12T08:13:06Z</time>
      </trkpt>
      <trkpt lat="44.2566" lon="6.74523">
        <ele>2308.2</ele>
        <time>2022-06-12T08:13:07Z</time>
      </trkpt>
      <trkpt lat="44.25662" lon="6.74521">
        <ele>2308.4</ele>
        <time>2022-06-12T08:13:08Z</time>
      </trkpt>
      <trkpt lat="44.25664" lon="6.74519">
        <ele>2308.5</ele>
        <time>2022-06-12T08:13:09Z</time>
      </trkpt>
      <trkpt lat="44.25666" lon="6.74518">
        <ele>2308.6</ele>
        <time>2022-06-12T08:13:10Z</time>
      </trkpt>
      <trkpt lat="44.25668" lon="6.74516">
        <ele>2308.7</ele>
        <time>2022-06-12T08:13:11Z</time>
      </trkpt>
      <trkpt lat="44.2567" lon="6.74514">
        <ele>2308.8</ele>
        <time>2022-06-12T08:13:12Z</time>
      </trkpt>
      <trkpt lat="44.25672" lon="6.74513">
        <ele>2308.9</ele>
        <time>2022-06-12T08:13:13Z</time>
      </trkpt>
      <trkpt lat="44.25675" lon="6.74512">
        <ele>2309</ele>
        <time>2022-06-12T08:13:14Z</time>
      </trkpt>
      <trkpt lat="44.25677" lon="6.74511">
        <ele>2309.1</ele>
        <time>2022-06-12T08:13:15Z</time>
      </trkpt>
      <trkpt lat="44.2568" lon="6.74511">
        <ele>2309.3</ele>
        <time>2022-06-12T08:13:16Z</time>
      </trkpt>
      <trkpt lat="44.25682" lon="6.74511">
        <ele>2309.5</ele>
        <time>2022-06-12T08:13:17Z</time>
      </trkpt>
      <trkpt lat="44.25685" lon="6.74512">
        <ele>2309.7</ele>
        <time>2022-06-12T08:13:18Z</time>
      </trkpt>
      <trkpt lat="44.25687" lon="6.74512">
        <ele>2309.9</ele>
        <time>2022-06-12T08:13:19Z</time>
      </trkpt>
      <trkpt lat="44.25689" lon="6.74513">
        <ele>2310.1</ele>
        <time>2022-06-12T08:13:20Z</time>
      </trkpt>
      <trkpt lat="44.25692" lon="6.74514">
        <ele>2310.3</ele>
        <time>2022-06-12T08:13:21Z</time>
      </trkpt>
      <trkpt lat="44.25694" lon="6.74515">
        <ele>2310.5</ele>
        <time>2022-06-12T08:13:22Z</time>
      </trkpt>
      <trkpt lat="44.25696" lon="6.74516">
        <ele>2310.7</ele>
        <time>2022-06-12T08:13:23Z</time>
      </trkpt>
      <trkpt lat="44.25698" lon="6.74517">
        <ele>2310.9</ele>
        <time>2022-06-12T08:13:24Z</time>
      </trkpt>
      <trkpt lat="44.257" lon="6.74518">
        <ele>2311.1</ele>
        <time>2022-06-12T08:13:25Z</time>
      </trkpt>
      <trkpt lat="44.25703" lon="6.74519">
        <ele>2311.3</ele>
        <time>2022-06-12T08:13:26Z</time>
      </trkpt>
      <trkpt lat="44.25705" lon="6.74521">
        <ele>2311.5</ele>
        <time>2022-06-12T08:13:27Z</time>
      </trkpt>
      <trkpt lat="44.25707" lon="6.74522">
        <ele>2311.7</ele>
        <time>2022-06-12T08:13:28Z</time>
      </trkpt>
      <trkpt lat="44.25709" lon="6.74523">
        <ele>2311.9</ele>
        <time>2022-06-12T08:13:29Z</time>
      </trkpt>
      <trkpt lat="44.25711" lon="6.74524">
        <ele>2312.1</ele>
        <time>2022-06-12T08:13:30Z</time>
      </trkpt>
      <trkpt lat="44.25714" lon="6.74525">
        <ele>2312.3</ele>
        <time>2022-06-12T08:13:31Z</time>
      </trkpt>
      <trkpt lat="44.25716" lon="6.74526">
        <ele>2312.5</ele>
        <time>2022-06-12T08:13:32Z</time>
      </trkpt>
      <trkpt lat="44.25719" lon="6.74527">
        <ele>2312.7</ele>
        <time>2022-06-12T08:13:33Z</time>
      </trkpt>
      <trkpt lat="44.25721" lon="6.74527">
        <ele>2312.9</ele>
        <time>2022-06-12T08:13:34Z</time>
      </trkpt>
      <trkpt lat="44.25724" lon="6.74527">
        <ele>2313.1</ele>
        <time>2022-06-12T08:13:35Z</time>
      </trkpt>
      <trkpt lat="44.25726" lon="6.74528">
        <ele>2313.4</ele>
        <time>2022-06-12T08:13:36Z</time>
      </trkpt>
      <trkpt lat="44.25729" lon="6.74528">
        <ele>2313.7</ele>
        <time>2022-06-12T08:13:37Z</time>
      </trkpt>
      <trkpt lat="44.25731" lon="6.74528">
        <ele>2314</ele>
        <time>2022-06-12T08:13:38Z</time>
      </trkpt>
      <trkpt lat="44.25733" lon="6.74528">
        <ele>2314.2</ele>
        <time>2022-06-12T08:13:39Z</time>
      </trkpt>
      <trkpt lat="44.25736" lon="6.74528">
        <ele>2314.4</ele>
        <time>2022-06-12T08:13:40Z</time>
      </trkpt>
      <trkpt lat="44.25738" lon="6.74528">
        <ele>2314.7</ele>
        <time>2022-06-12T08:13:41Z</time>
      </trkpt>
      <trkpt lat="44.25741" lon="6.74527">
        <ele>2314.9</ele>
        <time>2022-06-12T08:13:42Z</time>
      </trkpt>
      <trkpt lat="44.25743" lon="6.74527">
        <ele>2315.1</ele>
        <time>2022-06-12T08:13:43Z</time>
      </trkpt>
      <trkpt lat="44.25745" lon="6.74527">
        <ele>2315.3</ele>
        <time>2022-06-12T08:13:44Z</time>
      </trkpt>
      <trkpt lat="44.25748" lon="6.74526">
        <ele>2315.5</ele>
        <time>2022-06-12T08:13:45Z</time>
      </trkpt>
      <trkpt lat="44.2575" lon="6.74526">
        <ele>2315.7</ele>
        <time>2022-06-12T08:13:46Z</time>
      </trkpt>
      <trkpt lat="44.25753" lon="6.74525">
        <ele>2315.9</ele>
        <time>2022-06-12T08:13:47Z</time>
      </trkpt>
      <trkpt lat="44.25755" lon="6.74524">
        <ele>2316.1</ele>
        <time>2022-06-12T08:13:48Z</time>
      </trkpt>
      <trkpt lat="44.25757" lon="6.74523">
        <ele>2316.3</ele>
        <time>2022-06-12T08:13:49Z</time>
      </trkpt>
      <trkpt lat="44.2576" lon="6.74522">
        <ele>2316.5</ele>
        <time>2022-06-12T08:13:50Z</time>
      </trkpt>
      <trkpt lat="44.25762" lon="6.74521">
        <ele>2316.7</ele>
        <time>2022-06-12T08:13:51Z</time>
      </trkpt>
      <trkpt lat="44.25765" lon="6.7452">
        <ele>2316.8</ele>
        <time>2022-06-12T08:13:52Z</time>
      </trkpt>
      <trkpt lat="44.25767" lon="6.74519">
        <ele>2316.9</ele>
        <time>2022-06-12T08:13:53Z</time>
      </trkpt>
      <trkpt lat="44.2577" lon="6.74518">
        <ele>2317.1</ele>
        <time>2022-06-12T08:13:54Z</time>
      </trkpt>
      <trkpt lat="44.25772" lon="6.74516">
        <ele>2317.1</ele>
        <time>2022-06-12T08:13:55Z</time>
      </trkpt>
      <trkpt lat="44.25774" lon="6.74515">
        <ele>2317.2</ele>
        <time>2022-06-12T08:13:56Z</time>
      </trkpt>
      <trkpt lat="44.25777" lon="6.74514">
        <ele>2317.3</ele>
        <time>2022-06-12T08:13:57Z</time>
      </trkpt>
      <trkpt lat="44.25779" lon="6.74512">
        <ele>2317.4</ele>
        <time>2022-06-12T08:13:58Z</time>
      </trkpt>
      <trkpt lat="44.25781" lon="6.74511">
        <ele>2317.6</ele>
        <time>2022-06-12T08:13:59Z</time>
      </trkpt>
      <trkpt lat="44.25784" lon="6.7451">
        <ele>2317.8</ele>
        <time>2022-06-12T08:14:00Z</time>
      </trkpt>
      <trkpt lat="44.25786" lon="6.74509">
        <ele>2318</ele>
        <time>2022-06-12T08:14:01Z</time>
      </trkpt>
      <trkpt lat="44.25789" lon="6.74507">
        <ele>2318.2</ele>
        <time>2022-06-12T08:14:02Z</time>
      </trkpt>
      <trkpt lat="44.25791" lon="6.74506">
        <ele>2318.4</ele>
        <time>2022-06-12T08:14:03Z</time>
      </trkpt>
      <trkpt lat="44.25793" lon="6.74504">
        <ele>2318.5</ele>
        <time>2022-06-12T08:14:04Z</time>
      </trkpt>
      <trkpt lat="44.25795" lon="6.74502">
        <ele>2318.4</ele>
        <time>2022-06-12T08:14:05Z</time>
      </trkpt>
      <trkpt lat="44.25797" lon="6.745">
        <ele>2318.4</ele>
        <time>2022-06-12T08:14:06Z</time>
      </trkpt>
      <trkpt lat="44.25799" lon="6.74498">
        <ele>2318.5</ele>
        <time>2022-06-12T08:14:07Z</time>
      </trkpt>
      <trkpt lat="44.25802" lon="6.74496">
        <ele>2318.5</ele>
        <time>2022-06-12T08:14:08Z</time>
      </trkpt>
      <trkpt lat="44.25804" lon="6.74494">
        <ele>2318.6</ele>
        <time>2022-06-12T08:14:09Z</time>
      </trkpt>
      <trkpt lat="44.25806" lon="6.74492">
        <ele>2318.7</ele>
        <time>2022-06-12T08:14:10Z</time>
      </trkpt>
      <trkpt lat="44.25808" lon="6.7449">
        <ele>2318.9</ele>
        <time>2022-06-12T08:14:11Z</time>
      </trkpt>
      <trkpt lat="44.25811" lon="6.74488">
        <ele>2319.1</ele>
        <time>2022-06-12T08:14:12Z</time>
      </trkpt>
      <trkpt lat="44.25813" lon="6.74487">
        <ele>2319.3</ele>
        <time>2022-06-12T08:14:13Z</time>
      </trkpt>
      <trkpt lat="44.25815" lon="6.74485">
        <ele>2319.7</ele>
        <time>2022-06-12T08:14:14Z</time>
      </trkpt>
      <trkpt lat="44.25817" lon="6.74484">
        <ele>2320</ele>
        <time>2022-06-12T08:14:15Z</time>
      </trkpt>
      <trkpt lat="44.25819" lon="6.74482">
        <ele>2320.4</ele>
        <time>2022-06-12T08:14:16Z</time>
      </trkpt>
      <trkpt lat="44.25822" lon="6.7448">
        <ele>2320.7</ele>
        <time>2022-06-12T08:14:17Z</time>
      </trkpt>
      <trkpt lat="44.25824" lon="6.74478">
        <ele>2321</ele>
        <time>2022-06-12T08:14:18Z</time>
      </trkpt>
      <trkpt lat="44.25826" lon="6.74476">
        <ele>2321.3</ele>
        <time>2022-06-12T08:14:19Z</time>
      </trkpt>
      <trkpt lat="44.25828" lon="6.74475">
        <ele>2321.8</ele>
        <time>2022-06-12T08:14:20Z</time>
      </trkpt>
      <trkpt lat="44.2583" lon="6.74473">
        <ele>2322.2</ele>
        <time>2022-06-12T08:14:21Z</time>
      </trkpt>
      <trkpt lat="44.25833" lon="6.7447">
        <ele>2322.3</ele>
        <time>2022-06-12T08:14:22Z</time>
      </trkpt>
      <trkpt lat="44.25835" lon="6.74468">
        <ele>2322.3</ele>
        <time>2022-06-12T08:14:23Z</time>
      </trkpt>
      <trkpt lat="44.25837" lon="6.74466">
        <ele>2322.3</ele>
        <time>2022-06-12T08:14:24Z</time>
      </trkpt>
      <trkpt lat="44.25839" lon="6.74464">
        <ele>2322.3</ele>
        <time>2022-06-12T08:14:25Z</time>
      </trkpt>
      <trkpt lat="44.25841" lon="6.74462">
        <ele>2322.3</ele>
        <time>2022-06-12T08:14:26Z</time>
      </trkpt>
      <trkpt lat="44.25843" lon="6.7446">
        <ele>2322.3</ele>
        <time>2022-06-12T08:14:27Z</time>
      </trkpt>
      <trkpt lat="44.25845" lon="6.74457">
        <ele>2322.4</ele>
        <time>2022-06-12T08:14:28Z</time>
      </trkpt>
      <trkpt lat="44.25847" lon="6.74456">
        <ele>2322.6</ele>
        <time>2022-06-12T08:14:29Z</time>
      </trkpt>
      <trkpt lat="44.2585" lon="6.74454">
        <ele>2322.9</ele>
        <time>2022-06-12T08:14:30Z</time>
      </trkpt>
      <trkpt lat="44.25852" lon="6.74452">
        <ele>2323.2</ele>
        <time>2022-06-12T08:14:31Z</time>
      </trkpt>
      <trkpt lat="44.25854" lon="6.7445">
        <ele>2323.6</ele>
        <time>2022-06-12T08:14:32Z</time>
      </trkpt>
      <trkpt lat="44.25856" lon="6.74448">
        <ele>2324</ele>
        <time>2022-06-12T08:14:33Z</time>
      </trkpt>
      <trkpt lat="44.25859" lon="6.74447">
        <ele>2324.4</ele>
        <time>2022-06-12T08:14:34Z</time>
      </trkpt>
      <trkpt lat="44.2586" lon="6.74445">
        <ele>2324.8</ele>
        <time>2022-06-12T08:14:35Z</time>
      </trkpt>
      <trkpt lat="44.25862" lon="6.74443">
        <ele>2325</ele>
        <time>2022-06-12T08:14:36Z</time>
      </trkpt>
      <trkpt lat="44.25864" lon="6.74441">
        <ele>2325.2</ele>
        <time>2022-06-12T08:14:37Z</time>
      </trkpt>
      <trkpt lat="44.25866" lon="6.74439">
        <ele>2325.3</ele>
        <time>2022-06-12T08:14:38Z</time>
      </trkpt>
      <trkpt lat="44.25868" lon="6.74437">
        <ele>2325.4</ele>
        <time>2022-06-12T08:14:39Z</time>
      </trkpt>
      <trkpt lat="44.2587" lon="6.74435">
        <ele>2325.6</ele>
        <time>2022-06-12T08:14:40Z</time>
      </trkpt>
      <trkpt lat="44.25872" lon="6.74433">
        <ele>2325.7</ele>
        <time>2022-06-12T08:14:41Z</time>
      </trkpt>
      <trkpt lat="44.25875" lon="6.7443">
        <ele>2325.9</ele>
        <time>2022-06-12T08:14:42Z</time>
      </trkpt>
      <trkpt lat="44.25877" lon="6.74428">
        <ele>2326</ele>
        <time>2022-06-12T08:14:43Z</time>
      </trkpt>
      <trkpt lat="44.25879" lon="6.74426">
        <ele>2326.2</ele>
        <time>2022-06-12T08:14:44Z</time>
      </trkpt>
      <trkpt lat="44.25881" lon="6.74424">
        <ele>2326.4</ele>
        <time>2022-06-12T08:14:45Z</time>
      </trkpt>
      <trkpt lat="44.25884" lon="6.74421">
        <ele>2326.5</ele>
        <time>2022-06-12T08:14:46Z</time>
      </trkpt>
      <trkpt lat="44.25886" lon="6.74419">
        <ele>2326.7</ele>
        <time>2022-06-12T08:14:47Z</time>
      </trkpt>
      <trkpt lat="44.25888" lon="6.74417">
        <ele>2326.9</ele>
        <time>2022-06-12T08:14:48Z</time>
      </trkpt>
      <trkpt lat="44.25891" lon="6.74415">
        <ele>2327.1</ele>
        <time>2022-06-12T08:14:49Z</time>
      </trkpt>
      <trkpt lat="44.25893" lon="6.74414">
        <ele>2327.1</ele>
        <time>2022-06-12T08:14:50Z</time>
      </trkpt>
      <trkpt lat="44.25896" lon="6.74412">
        <ele>2327.2</ele>
        <time>2022-06-12T08:14:51Z</time>
      </trkpt>
      <trkpt lat="44.25899" lon="6.7441">
        <ele>2327.3</ele>
        <time>2022-06-12T08:14:52Z</time>
      </trkpt>
      <trkpt lat="44.25901" lon="6.74408">
        <ele>2327.3</ele>
        <time>2022-06-12T08:14:53Z</time>
      </trkpt>
      <trkpt lat="44.25904" lon="6.74407">
        <ele>2327.3</ele>
        <time>2022-06-12T08:14:54Z</time>
      </trkpt>
      <trkpt lat="44.25906" lon="6.74405">
        <ele>2327.4</ele>
        <time>2022-06-12T08:14:55Z</time>
      </trkpt>
      <trkpt lat="44.25908" lon="6.74404">
        <ele>2327.4</ele>
        <time>2022-06-12T08:14:56Z</time>
      </trkpt>
      <trkpt lat="44.2591" lon="6.74402">
        <ele>2327.3</ele>
        <time>2022-06-12T08:14:57Z</time>
      </trkpt>
      <trkpt lat="44.25912" lon="6.744">
        <ele>2327.3</ele>
        <time>2022-06-12T08:14:58Z</time>
      </trkpt>
      <trkpt lat="44.25915" lon="6.74398">
        <ele>2327.3</ele>
        <time>2022-06-12T08:14:59Z</time>
      </trkpt>
      <trkpt lat="44.25916" lon="6.74397">
        <ele>2327.3</ele>
        <time>2022-06-12T08:15:00Z</time>
      </trkpt>
      <trkpt lat="44.25918" lon="6.74397">
        <ele>2327.2</ele>
        <time>2022-06-12T08:15:01Z</time>
      </trkpt>
      <trkpt lat="44.25919" lon="6.74397">
        <ele>2327</ele>
        <time>2022-06-12T08:15:02Z</time>
      </trkpt>
      <trkpt lat="44.25921" lon="6.74396">
        <ele>2326.9</ele>
        <time>2022-06-12T08:15:03Z</time>
      </trkpt>
      <trkpt lat="44.25922" lon="6.74396">
        <ele>2326.7</ele>
        <time>2022-06-12T08:16:10Z</time>
      </trkpt>
      <trkpt lat="44.25924" lon="6.74395">
        <ele>2326.5</ele>
        <time>2022-06-12T08:16:11Z</time>
      </trkpt>
      <trkpt lat="44.25925" lon="6.74395">
        <ele>2326.4</ele>
        <time>2022-06-12T08:16:12Z</time>
      </trkpt>
      <trkpt lat="44.25926" lon="6.74395">
        <ele>2326.2</ele>
        <time>2022-06-12T08:16:13Z</time>
      </trkpt>
      <trkpt lat="44.25928" lon="6.74394">
        <ele>2326.1</ele>
        <time>2022-06-12T08:16:14Z</time>
      </trkpt>
      <trkpt lat="44.25929" lon="6.74394">
        <ele>2325.9</ele>
        <time>2022-06-12T08:16:15Z</time>
      </trkpt>
      <trkpt lat="44.25931" lon="6.74394">
        <ele>2325.7</ele>
        <time>2022-06-12T08:16:16Z</time>
      </trkpt>
      <trkpt lat="44.25932" lon="6.74393">
        <ele>2325.6</ele>
        <time>2022-06-12T08:16:21Z</time>
      </trkpt>
      <trkpt lat="44.25934" lon="6.74393">
        <ele>2325.4</ele>
        <time>2022-06-12T08:16:22Z</time>
      </trkpt>
      <trkpt lat="44.25935" lon="6.74393">
        <ele>2325.2</ele>
        <time>2022-06-12T08:16:23Z</time>
      </trkpt>
      <trkpt lat="44.25936" lon="6.74392">
        <ele>2325.1</ele>
        <time>2022-06-12T08:29:14Z</time>
      </trkpt>
      <trkpt lat="44.25938" lon="6.74392">
        <ele>2324.9</ele>
        <time>2022-06-12T08:29:15Z</time>
      </trkpt>
      <trkpt lat="44.25942" lon="6.7439">
        <ele>2324.3</ele>
        <time>2022-06-12T08:29:16Z</time>
      </trkpt>
      <trkpt lat="44.25947" lon="6.74388">
        <ele>2324.1</ele>
        <time>2022-06-12T08:29:17Z</time>
      </trkpt>
      <trkpt lat="44.25952" lon="6.74386">
        <ele>2324</ele>
        <time>2022-06-12T08:29:18Z</time>
      </trkpt>
      <trkpt lat="44.25958" lon="6.74384">
        <ele>2323.7</ele>
        <time>2022-06-12T08:29:19Z</time>
      </trkpt>
      <trkpt lat="44.25965" lon="6.74381">
        <ele>2323.4</ele>
        <time>2022-06-12T08:29:20Z</time>
      </trkpt>
      <trkpt lat="44.25971" lon="6.74378">
        <ele>2322.9</ele>
        <time>2022-06-12T08:29:21Z</time>
      </trkpt>
      <trkpt lat="44.25978" lon="6.74375">
        <ele>2322.4</ele>
        <time>2022-06-12T08:29:22Z</time>
      </trkpt>
      <trkpt lat="44.25985" lon="6.74373">
        <ele>2321.8</ele>
        <time>2022-06-12T08:29:23Z</time>
      </trkpt>
      <trkpt lat="44.25991" lon="6.7437">
        <ele>2321.3</ele>
        <time>2022-06-12T08:29:24Z</time>
      </trkpt>
      <trkpt lat="44.25997" lon="6.74366">
        <ele>2321</ele>
        <time>2022-06-12T08:29:25Z</time>
      </trkpt>
      <trkpt lat="44.26003" lon="6.74363">
        <ele>2320.4</ele>
        <time>2022-06-12T08:29:26Z</time>
      </trkpt>
      <trkpt lat="44.26009" lon="6.74359">
        <ele>2319.9</ele>
        <time>2022-06-12T08:29:27Z</time>
      </trkpt>
      <trkpt lat="44.26015" lon="6.74354">
        <ele>2319.4</ele>
        <time>2022-06-12T08:29:28Z</time>
      </trkpt>
      <trkpt lat="44.26021" lon="6.74347">
        <ele>2318.8</ele>
        <time>2022-06-12T08:29:29Z</time>
      </trkpt>
      <trkpt lat="44.26027" lon="6.74339">
        <ele>2318</ele>
        <time>2022-06-12T08:29:30Z</time>
      </trkpt>
      <trkpt lat="44.26033" lon="6.74331">
        <ele>2316.7</ele>
        <time>2022-06-12T08:29:31Z</time>
      </trkpt>
      <trkpt lat="44.2604" lon="6.74322">
        <ele>2315.4</ele>
        <time>2022-06-12T08:29:32Z</time>
      </trkpt>
      <trkpt lat="44.26048" lon="6.74313">
        <ele>2314.2</ele>
        <time>2022-06-12T08:29:33Z</time>
      </trkpt>
      <trkpt lat="44.26056" lon="6.74304">
        <ele>2313.1</ele>
        <time>2022-06-12T08:29:34Z</time>
      </trkpt>
      <trkpt lat="44.26065" lon="6.74296">
        <ele>2312.6</ele>
        <time>2022-06-12T08:29:35Z</time>
      </trkpt>
      <trkpt lat="44.26075" lon="6.74288">
        <ele>2312.1</ele>
        <time>2022-06-12T08:29:36Z</time>
      </trkpt>
      <trkpt lat="44.26085" lon="6.74282">
        <ele>2311.4</ele>
        <time>2022-06-12T08:29:37Z</time>
      </trkpt>
      <trkpt lat="44.26095" lon="6.74275">
        <ele>2310.6</ele>
        <time>2022-06-12T08:29:38Z</time>
      </trkpt>
      <trkpt lat="44.26106" lon="6.74269">
        <ele>2309.5</ele>
        <time>2022-06-12T08:29:39Z</time>
      </trkpt>
      <trkpt lat="44.26116" lon="6.74264">
        <ele>2308.6</ele>
        <time>2022-06-12T08:29:40Z</time>
      </trkpt>
      <trkpt lat="44.26125" lon="6.74258">
        <ele>2308</ele>
        <time>2022-06-12T08:29:41Z</time>
      </trkpt>
      <trkpt lat="44.26136" lon="6.74253">
        <ele>2307.3</ele>
        <time>2022-06-12T08:29:42Z</time>
      </trkpt>
      <trkpt lat="44.26146" lon="6.74248">
        <ele>2306.4</ele>
        <time>2022-06-12T08:29:43Z</time>
      </trkpt>
      <trkpt lat="44.26156" lon="6.74245">
        <ele>2305.5</ele>
        <time>2022-06-12T08:29:44Z</time>
      </trkpt>
      <trkpt lat="44.26167" lon="6.74243">
        <ele>2304.6</ele>
        <time>2022-06-12T08:29:45Z</time>
      </trkpt>
      <trkpt lat="44.26178" lon="6.74242">
        <ele>2303.9</ele>
        <time>2022-06-12T08:29:46Z</time>
      </trkpt>
      <trkpt lat="44.26189" lon="6.74243">
        <ele>2303.1</ele>
        <time>2022-06-12T08:29:47Z</time>
      </trkpt>
      <trkpt lat="44.262" lon="6.74245">
        <ele>2302.3</ele>
        <time>2022-06-12T08:29:48Z</time>
      </trkpt>
      <trkpt lat="44.26212" lon="6.74248">
        <ele>2301.5</ele>
        <time>2022-06-12T08:29:49Z</time>
      </trkpt>
      <trkpt lat="44.26224" lon="6.74251">
        <ele>2300.8</ele>
        <time>2022-06-12T08:29:50Z</time>
      </trkpt>
      <trkpt lat="44.26236" lon="6.74253">
        <ele>2299.6</ele>
        <time>2022-06-12T08:29:51Z</time>
      </trkpt>
      <trkpt lat="44.26248" lon="6.74255">
        <ele>2298.5</ele>
        <time>2022-06-12T08:29:52Z</time>
      </trkpt>
      <trkpt lat="44.2626" lon="6.74255">
        <ele>2297.6</ele>
        <time>2022-06-12T08:29:53Z</time>
      </trkpt>
      <trkpt lat="44.26271" lon="6.74255">
        <ele>2296.6</ele>
        <time>2022-06-12T08:29:54Z</time>
      </trkpt>
      <trkpt lat="44.26283" lon="6.74255">
        <ele>2295.6</ele>
        <time>2022-06-12T08:29:55Z</time>
      </trkpt>
      <trkpt lat="44.26294" lon="6.74254">
        <ele>2294.5</ele>
        <time>2022-06-12T08:29:56Z</time>
      </trkpt>
      <trkpt lat="44.26303" lon="6.74254">
        <ele>2293.6</ele>
        <time>2022-06-12T08:29:57Z</time>
      </trkpt>
      <trkpt lat="44.26312" lon="6.74252">
        <ele>2292.3</ele>
        <time>2022-06-12T08:29:58Z</time>
      </trkpt>
      <trkpt lat="44.26319" lon="6.74249">
        <ele>2291.3</ele>
        <time>2022-06-12T08:29:59Z</time>
      </trkpt>
      <trkpt lat="44.26325" lon="6.74243">
        <ele>2290.5</ele>
        <time>2022-06-12T08:30:00Z</time>
      </trkpt>
      <trkpt lat="44.26329" lon="6.74236">
        <ele>2290</ele>
        <time>2022-06-12T08:30:01Z</time>
      </trkpt>
      <trkpt lat="44.26333" lon="6.74229">
        <ele>2289.6</ele>
        <time>2022-06-12T08:30:02Z</time>
      </trkpt>
      <trkpt lat="44.26337" lon="6.74223">
        <ele>2289.5</ele>
        <time>2022-06-12T08:30:03Z</time>
      </trkpt>
      <trkpt lat="44.26341" lon="6.74217">
        <ele>2289.6</ele>
        <time>2022-06-12T08:30:04Z</time>
      </trkpt>
      <trkpt lat="44.26346" lon="6.74213">
        <ele>2289.3</ele>
        <time>2022-06-12T08:30:05Z</time>
      </trkpt>
      <trkpt lat="44.2635" lon="6.7421">
        <ele>2288.8</ele>
        <time>2022-06-12T08:30:06Z</time>
      </trkpt>
      <trkpt lat="44.26356" lon="6.7421">
        <ele>2287.9</ele>
        <time>2022-06-12T08:30:07Z</time>
      </trkpt>
      <trkpt lat="44.2636" lon="6.74213">
        <ele>2286.8</ele>
        <time>2022-06-12T08:30:08Z</time>
      </trkpt>
      <trkpt lat="44.26364" lon="6.74217">
        <ele>2287.2</ele>
        <time>2022-06-12T08:30:09Z</time>
      </trkpt>
      <trkpt lat="44.26367" lon="6.74224">
        <ele>2287.2</ele>
        <time>2022-06-12T08:30:10Z</time>
      </trkpt>
      <trkpt lat="44.26367" lon="6.74232">
        <ele>2286.8</ele>
        <time>2022-06-12T08:30:11Z</time>
      </trkpt>
      <trkpt lat="44.26367" lon="6.7424">
        <ele>2286.2</ele>
        <time>2022-06-12T08:30:12Z</time>
      </trkpt>
      <trkpt lat="44.26367" lon="6.74248">
        <ele>2285.7</ele>
        <time>2022-06-12T08:30:13Z</time>
      </trkpt>
      <trkpt lat="44.26368" lon="6.74256">
        <ele>2285.3</ele>
        <time>2022-06-12T08:30:14Z</time>
      </trkpt>
      <trkpt lat="44.26369" lon="6.74265">
        <ele>2284.8</ele>
        <time>2022-06-12T08:30:15Z</time>
      </trkpt>
      <trkpt lat="44.26371" lon="6.74274">
        <ele>2284.4</ele>
        <time>2022-06-12T08:30:16Z</time>
      </trkpt>
      <trkpt lat="44.26373" lon="6.74282">
        <ele>2284.1</ele>
        <time>2022-06-12T08:30:17Z</time>
      </trkpt>
      <trkpt lat="44.26377" lon="6.74291">
        <ele>2283.7</ele>
        <time>2022-06-12T08:30:18Z</time>
      </trkpt>
      <trkpt lat="44.26381" lon="6.74301">
        <ele>2283.2</ele>
        <time>2022-06-12T08:30:19Z</time>
      </trkpt>
      <trkpt lat="44.26386" lon="6.7431">
        <ele>2282.7</ele>
        <time>2022-06-12T08:30:20Z</time>
      </trkpt>
      <trkpt lat="44.2639" lon="6.74321">
        <ele>2281.9</ele>
        <time>2022-06-12T08:30:21Z</time>
      </trkpt>
      <trkpt lat="44.26395" lon="6.74332">
        <ele>2280.7</ele>
        <time>2022-06-12T08:30:22Z</time>
      </trkpt>
      <trkpt lat="44.26399" lon="6.74344">
        <ele>2279.7</ele>
        <time>2022-06-12T08:30:23Z</time>
      </trkpt>
      <trkpt lat="44.26402" lon="6.74358">
        <ele>2278.7</ele>
        <time>2022-06-12T08:30:24Z</time>
      </trkpt>
      <trkpt lat="44.26404" lon="6.74372">
        <ele>2277.8</ele>
        <time>2022-06-12T08:30:25Z</time>
      </trkpt>
      <trkpt lat="44.26405" lon="6.74387">
        <ele>2276.9</ele>
        <time>2022-06-12T08:30:26Z</time>
      </trkpt>
      <trkpt lat="44.26406" lon="6.74401">
        <ele>2276.3</ele>
        <time>2022-06-12T08:30:27Z</time>
      </trkpt>
      <trkpt lat="44.26407" lon="6.74412">
        <ele>2275.8</ele>
        <time>2022-06-12T08:30:28Z</time>
      </trkpt>
      <trkpt lat="44.2641" lon="6.74422">
        <ele>2275.1</ele>
        <time>2022-06-12T08:30:29Z</time>
      </trkpt>
      <trkpt lat="44.26415" lon="6.74431">
        <ele>2274.3</ele>
        <time>2022-06-12T08:30:30Z</time>
      </trkpt>
      <trkpt lat="44.26422" lon="6.74439">
        <ele>2273.9</ele>
        <time>2022-06-12T08:30:31Z</time>
      </trkpt>
      <trkpt lat="44.26429" lon="6.74446">
        <ele>2273.6</ele>
        <time>2022-06-12T08:30:32Z</time>
      </trkpt>
      <trkpt lat="44.26435" lon="6.74455">
        <ele>2273.4</ele>
        <time>2022-06-12T08:30:33Z</time>
      </trkpt>
      <trkpt lat="44.26439" lon="6.74464">
        <ele>2272.6</ele>
        <time>2022-06-12T08:30:34Z</time>
      </trkpt>
      <trkpt lat="44.2644" lon="6.74474">
        <ele>2271.7</ele>
        <time>2022-06-12T08:30:35Z</time>
      </trkpt>
      <trkpt lat="44.26439" lon="6.74483">
        <ele>2271.9</ele>
        <time>2022-06-12T08:30:36Z</time>
      </trkpt>
      <trkpt lat="44.26436" lon="6.74491">
        <ele>2271.8</ele>
        <time>2022-06-12T08:30:37Z</time>
      </trkpt>
      <trkpt lat="44.26431" lon="6.74496">
        <ele>2271.4</ele>
        <time>2022-06-12T08:30:38Z</time>
      </trkpt>
      <trkpt lat="44.26424" lon="6.74498">
        <ele>2270.8</ele>
        <time>2022-06-12T08:30:39Z</time>
      </trkpt>
      <trkpt lat="44.26418" lon="6.74499">
        <ele>2270.1</ele>
        <time>2022-06-12T08:30:40Z</time>
      </trkpt>
      <trkpt lat="44.26412" lon="6.74499">
        <ele>2269.6</ele>
        <time>2022-06-12T08:30:41Z</time>
      </trkpt>
      <trkpt lat="44.26407" lon="6.74499">
        <ele>2269.3</ele>
        <time>2022-06-12T08:30:42Z</time>
      </trkpt>
      <trkpt lat="44.26404" lon="6.74499">
        <ele>2269.1</ele>
        <time>2022-06-12T08:30:43Z</time>
      </trkpt>
      <trkpt lat="44.26402" lon="6.74499">
        <ele>2268.9</ele>
        <time>2022-06-12T08:30:44Z</time>
      </trkpt>
      <trkpt lat="44.26399" lon="6.74499">
        <ele>2268.7</ele>
        <time>2022-06-12T08:30:45Z</time>
      </trkpt>
      <trkpt lat="44.26397" lon="6.74499">
        <ele>2268.5</ele>
        <time>2022-06-12T08:30:46Z</time>
      </trkpt>
      <trkpt lat="44.26394" lon="6.74499">
        <ele>2268.3</ele>
        <time>2022-06-12T08:30:47Z</time>
      </trkpt>
      <trkpt lat="44.26391" lon="6.74499">
        <ele>2268.2</ele>
        <time>2022-06-12T08:30:48Z</time>
      </trkpt>
      <trkpt lat="44.26389" lon="6.745">
        <ele>2268</ele>
        <time>2022-06-12T08:30:49Z</time>
      </trkpt>
      <trkpt lat="44.26386" lon="6.74501">
        <ele>2267.7</ele>
        <time>2022-06-12T08:30:50Z</time>
      </trkpt>
      <trkpt lat="44.26383" lon="6.74502">
        <ele>2267.2</ele>
        <time>2022-06-12T08:30:51Z</time>
      </trkpt>
      <trkpt lat="44.26379" lon="6.74504">
        <ele>2266.8</ele>
        <time>2022-06-12T08:30:52Z</time>
      </trkpt>
      <trkpt lat="44.26375" lon="6.74507">
        <ele>2266.3</ele>
        <time>2022-06-12T08:30:53Z</time>
      </trkpt>
      <trkpt lat="44.26371" lon="6.7451">
        <ele>2265.7</ele>
        <time>2022-06-12T08:30:54Z</time>
      </trkpt>
      <trkpt lat="44.26367" lon="6.74514">
        <ele>2265.2</ele>
        <time>2022-06-12T08:30:55Z</time>
      </trkpt>
      <trkpt lat="44.26364" lon="6.74519">
        <ele>2264.6</ele>
        <time>2022-06-12T08:30:56Z</time>
      </trkpt>
      <trkpt lat="44.26361" lon="6.74524">
        <ele>2264.2</ele>
        <time>2022-06-12T08:30:57Z</time>
      </trkpt>
      <trkpt lat="44.26359" lon="6.74528">
        <ele>2263.9</ele>
        <time>2022-06-12T08:30:58Z</time>
      </trkpt>
      <trkpt lat="44.26357" lon="6.74532">
        <ele>2263.7</ele>
        <time>2022-06-12T08:30:59Z</time>
      </trkpt>
      <trkpt lat="44.26356" lon="6.74536">
        <ele>2263.5</ele>
        <time>2022-06-12T08:31:00Z</time>
      </trkpt>
      <trkpt lat="44.26355" lon="6.7454">
        <ele>2263.2</ele>
        <time>2022-06-12T08:31:01Z</time>
      </trkpt>
      <trkpt lat="44.26354" lon="6.74545">
        <ele>2263</ele>
        <time>2022-06-12T08:31:02Z</time>
      </trkpt>
      <trkpt lat="44.26354" lon="6.7455">
        <ele>2262.8</ele>
        <time>2022-06-12T08:31:03Z</time>
      </trkpt>
      <trkpt lat="44.26354" lon="6.74556">
        <ele>2262.5</ele>
        <time>2022-06-12T08:31:04Z</time>
      </trkpt>
      <trkpt lat="44.26356" lon="6.74562">
        <ele>2262.2</ele>
        <time>2022-06-12T08:31:05Z</time>
      </trkpt>
      <trkpt lat="44.26358" lon="6.74568">
        <ele>2261.9</ele>
        <time>2022-06-12T08:31:06Z</time>
      </trkpt>
      <trkpt lat="44.26361" lon="6.74574">
        <ele>2261.7</ele>
        <time>2022-06-12T08:31:07Z</time>
      </trkpt>
      <trkpt lat="44.26366" lon="6.7458">
        <ele>2261.6</ele>
        <time>2022-06-12T08:31:08Z</time>
      </trkpt>
      <trkpt lat="44.26371" lon="6.74586">
        <ele>2261.2</ele>
        <time>2022-06-12T08:31:09Z</time>
      </trkpt>
      <trkpt lat="44.26377" lon="6.74592">
        <ele>2260.6</ele>
        <time>2022-06-12T08:31:10Z</time>
      </trkpt>
      <trkpt lat="44.26383" lon="6.74596">
        <ele>2260</ele>
        <time>2022-06-12T08:31:11Z</time>
      </trkpt>
      <trkpt lat="44.2639" lon="6.746">
        <ele>2259.3</ele>
        <time>2022-06-12T08:31:12Z</time>
      </trkpt>
      <trkpt lat="44.26398" lon="6.74604">
        <ele>2258.4</ele>
        <time>2022-06-12T08:31:13Z</time>
      </trkpt>
      <trkpt lat="44.26406" lon="6.74606">
        <ele>2257.7</ele>
        <time>2022-06-12T08:31:14Z</time>
      </trkpt>
      <trkpt lat="44.26414" lon="6.74607">
        <ele>2257.2</ele>
        <time>2022-06-12T08:31:15Z</time>
      </trkpt>
      <trkpt lat="44.26423" lon="6.74608">
        <ele>2256.4</ele>
        <time>2022-06-12T08:31:16Z</time>
      </trkpt>
      <trkpt lat="44.26433" lon="6.74609">
        <ele>2255.5</ele>
        <time>2022-06-12T08:31:17Z</time>
      </trkpt>
      <trkpt lat="44.26442" lon="6.7461">
        <ele>2254.6</ele>
        <time>2022-06-12T08:31:18Z</time>
      </trkpt>
      <trkpt lat="44.26451" lon="6.74611">
        <ele>2253.6</ele>
        <time>2022-06-12T08:31:19Z</time>
      </trkpt>
      <trkpt lat="44.2646" lon="6.74611">
        <ele>2253</ele>
        <time>2022-06-12T08:31:20Z</time>
      </trkpt>
      <trkpt lat="44.2647" lon="6.74609">
        <ele>2252.9</ele>
        <time>2022-06-12T08:31:21Z</time>
      </trkpt>
      <trkpt lat="44.2648" lon="6.74605">
        <ele>2252.5</ele>
        <time>2022-06-12T08:31:22Z</time>
      </trkpt>
      <trkpt lat="44.2649" lon="6.74602">
        <ele>2251.9</ele>
        <time>2022-06-12T08:31:23Z</time>
      </trkpt>
      <trkpt lat="44.26501" lon="6.746">
        <ele>2251.2</ele>
        <time>2022-06-12T08:31:24Z</time>
      </trkpt>
      <trkpt lat="44.26512" lon="6.74598">
        <ele>2250.4</ele>
        <time>2022-06-12T08:31:25Z</time>
      </trkpt>
      <trkpt lat="44.26524" lon="6.74596">
        <ele>2249.8</ele>
        <time>2022-06-12T08:31:26Z</time>
      </trkpt>
      <trkpt lat="44.26535" lon="6.74595">
        <ele>2248.9</ele>
        <time>2022-06-12T08:31:27Z</time>
      </trkpt>
      <trkpt lat="44.26547" lon="6.74594">
        <ele>2247.9</ele>
        <time>2022-06-12T08:31:28Z</time>
      </trkpt>
      <trkpt lat="44.26558" lon="6.74593">
        <ele>2246.8</ele>
        <time>2022-06-12T08:31:29Z</time>
      </trkpt>
      <trkpt lat="44.2657" lon="6.74592">
        <ele>2245.9</ele>
        <time>2022-06-12T08:31:30Z</time>
      </trkpt>
      <trkpt lat="44.26581" lon="6.74594">
        <ele>2244.4</ele>
        <time>2022-06-12T08:31:31Z</time>
      </trkpt>
      <trkpt lat="44.26593" lon="6.74598">
        <ele>2243.3</ele>
        <time>2022-06-12T08:31:32Z</time>
      </trkpt>
      <trkpt lat="44.26604" lon="6.74603">
        <ele>2242.5</ele>
        <time>2022-06-12T08:31:33Z</time>
      </trkpt>
      <trkpt lat="44.26615" lon="6.74606">
        <ele>2241.8</ele>
        <time>2022-06-12T08:31:34Z</time>
      </trkpt>
      <trkpt lat="44.26625" lon="6.74608">
        <ele>2240.9</ele>
        <time>2022-06-12T08:31:35Z</time>
      </trkpt>
      <trkpt lat="44.26634" lon="6.74609">
        <ele>2240</ele>
        <time>2022-06-12T08:31:36Z</time>
      </trkpt>
      <trkpt lat="44.26642" lon="6.7461">
        <ele>2239.1</ele>
        <time>2022-06-12T08:31:37Z</time>
      </trkpt>
      <trkpt lat="44.26649" lon="6.74611">
        <ele>2238.4</ele>
        <time>2022-06-12T08:31:38Z</time>
      </trkpt>
      <trkpt lat="44.26655" lon="6.74611">
        <ele>2237.9</ele>
        <time>2022-06-12T08:31:39Z</time>
      </trkpt>
      <trkpt lat="44.26659" lon="6.74611">
        <ele>2237.7</ele>
        <time>2022-06-12T08:31:40Z</time>
      </trkpt>
      <trkpt lat="44.26664" lon="6.7461">
        <ele>2237.6</ele>
        <time>2022-06-12T08:31:41Z</time>
      </trkpt>
      <trkpt lat="44.26665" lon="6.74609">
        <ele>2237.8</ele>
        <time>2022-06-12T08:31:42Z</time>
      </trkpt>
      <trkpt lat="44.26667" lon="6.74608">
        <ele>2237.9</ele>
        <time>2022-06-12T08:31:43Z</time>
      </trkpt>
      <trkpt lat="44.26668" lon="6.74607">
        <ele>2237.9</ele>
        <time>2022-06-12T08:31:44Z</time>
      </trkpt>
      <trkpt lat="44.2667" lon="6.74606">
        <ele>2237.9</ele>
        <time>2022-06-12T08:31:45Z</time>
      </trkpt>
      <trkpt lat="44.26671" lon="6.74606">
        <ele>2237.9</ele>
        <time>2022-06-12T08:34:15Z</time>
      </trkpt>
      <trkpt lat="44.26673" lon="6.74605">
        <ele>2237.9</ele>
        <time>2022-06-12T08:34:16Z</time>
      </trkpt>
      <trkpt lat="44.26676" lon="6.74603">
        <ele>2237.9</ele>
        <time>2022-06-12T08:34:17Z</time>
      </trkpt>
      <trkpt lat="44.26681" lon="6.746">
        <ele>2237.7</ele>
        <time>2022-06-12T08:34:18Z</time>
      </trkpt>
      <trkpt lat="44.26687" lon="6.74598">
        <ele>2237.1</ele>
        <time>2022-06-12T08:34:19Z</time>
      </trkpt>
      <trkpt lat="44.26693" lon="6.74598">
        <ele>2236.2</ele>
        <time>2022-06-12T08:34:20Z</time>
      </trkpt>
      <trkpt lat="44.267" lon="6.74598">
        <ele>2235.5</ele>
        <time>2022-06-12T08:34:21Z</time>
      </trkpt>
      <trkpt lat="44.26707" lon="6.74599">
        <ele>2234.7</ele>
        <time>2022-06-12T08:34:22Z</time>
      </trkpt>
      <trkpt lat="44.26715" lon="6.74602">
        <ele>2233.8</ele>
        <time>2022-06-12T08:34:23Z</time>
      </trkpt>
      <trkpt lat="44.26723" lon="6.74605">
        <ele>2232.9</ele>
        <time>2022-06-12T08:34:24Z</time>
      </trkpt>
      <trkpt lat="44.26731" lon="6.7461">
        <ele>2232.2</ele>
        <time>2022-06-12T08:34:25Z</time>
      </trkpt>
      <trkpt lat="44.26739" lon="6.74615">
        <ele>2231.6</ele>
        <time>2022-06-12T08:34:26Z</time>
      </trkpt>
      <trkpt lat="44.26748" lon="6.7462">
        <ele>2231</ele>
        <time>2022-06-12T08:34:27Z</time>
      </trkpt>
      <trkpt lat="44.26757" lon="6.74625">
        <ele>2230.3</ele>
        <time>2022-06-12T08:34:28Z</time>
      </trkpt>
      <trkpt lat="44.26765" lon="6.74629">
        <ele>2229.5</ele>
        <time>2022-06-12T08:34:29Z</time>
      </trkpt>
      <trkpt lat="44.26774" lon="6.74632">
        <ele>2228.9</ele>
        <time>2022-06-12T08:34:30Z</time>
      </trkpt>
      <trkpt lat="44.26784" lon="6.74634">
        <ele>2228.1</ele>
        <time>2022-06-12T08:34:31Z</time>
      </trkpt>
      <trkpt lat="44.26794" lon="6.74636">
        <ele>2227.1</ele>
        <time>2022-06-12T08:34:32Z</time>
      </trkpt>
      <trkpt lat="44.26805" lon="6.74637">
        <ele>2226.2</ele>
        <time>2022-06-12T08:34:33Z</time>
      </trkpt>
      <trkpt lat="44.26815" lon="6.74638">
        <ele>2225.1</ele>
        <time>2022-06-12T08:34:34Z</time>
      </trkpt>
      <trkpt lat="44.26825" lon="6.74637">
        <ele>2224.1</ele>
        <time>2022-06-12T08:34:35Z</time>
      </trkpt>
      <trkpt lat="44.26836" lon="6.74636">
        <ele>2223.2</ele>
        <time>2022-06-12T08:34:36Z</time>
      </trkpt>
      <trkpt lat="44.26846" lon="6.74634">
        <ele>2222.6</ele>
        <time>2022-06-12T08:34:37Z</time>
      </trkpt>
      <trkpt lat="44.26857" lon="6.74631">
        <ele>2222.2</ele>
        <time>2022-06-12T08:34:38Z</time>
      </trkpt>
      <trkpt lat="44.26868" lon="6.74628">
        <ele>2221.6</ele>
        <time>2022-06-12T08:34:39Z</time>
      </trkpt>
      <trkpt lat="44.26878" lon="6.74625">
        <ele>2221</ele>
        <time>2022-06-12T08:34:40Z</time>
      </trkpt>
      <trkpt lat="44.26888" lon="6.74622">
        <ele>2220.6</ele>
        <time>2022-06-12T08:34:41Z</time>
      </trkpt>
      <trkpt lat="44.26897" lon="6.74619">
        <ele>2219.7</ele>
        <time>2022-06-12T08:34:42Z</time>
      </trkpt>
      <trkpt lat="44.26906" lon="6.74617">
        <ele>2218.7</ele>
        <time>2022-06-12T08:34:43Z</time>
      </trkpt>
      <trkpt lat="44.26915" lon="6.74617">
        <ele>2217.4</ele>
        <time>2022-06-12T08:34:44Z</time>
      </trkpt>
      <trkpt lat="44.26924" lon="6.7462">
        <ele>2217.2</ele>
        <time>2022-06-12T08:34:45Z</time>
      </trkpt>
      <trkpt lat="44.26932" lon="6.74626">
        <ele>2216.7</ele>
        <time>2022-06-12T08:34:46Z</time>
      </trkpt>
      <trkpt lat="44.26939" lon="6.74634">
        <ele>2215.7</ele>
        <time>2022-06-12T08:34:47Z</time>
      </trkpt>
      <trkpt lat="44.26945" lon="6.74642">
        <ele>2214.5</ele>
        <time>2022-06-12T08:34:48Z</time>
      </trkpt>
      <trkpt lat="44.26952" lon="6.74649">
        <ele>2213.6</ele>
        <time>2022-06-12T08:34:49Z</time>
      </trkpt>
      <trkpt lat="44.2696" lon="6.74655">
        <ele>2212.8</ele>
        <time>2022-06-12T08:34:50Z</time>
      </trkpt>
      <trkpt lat="44.26969" lon="6.7466">
        <ele>2212.5</ele>
        <time>2022-06-12T08:34:51Z</time>
      </trkpt>
      <trkpt lat="44.26978" lon="6.74663">
        <ele>2212.1</ele>
        <time>2022-06-12T08:34:52Z</time>
      </trkpt>
      <trkpt lat="44.26988" lon="6.74665">
        <ele>2211.3</ele>
        <time>2022-06-12T08:34:53Z</time>
      </trkpt>
      <trkpt lat="44.26998" lon="6.74669">
        <ele>2210.4</ele>
        <time>2022-06-12T08:34:54Z</time>
      </trkpt>
      <trkpt lat="44.27007" lon="6.74672">
        <ele>2208.9</ele>
        <time>2022-06-12T08:34:55Z</time>
      </trkpt>
      <trkpt lat="44.27017" lon="6.74675">
        <ele>2207.5</ele>
        <time>2022-06-12T08:34:56Z</time>
      </trkpt>
      <trkpt lat="44.27027" lon="6.74676">
        <ele>2206.7</ele>
        <time>2022-06-12T08:34:57Z</time>
      </trkpt>
      <trkpt lat="44.27037" lon="6.74676">
        <ele>2205.5</ele>
        <time>2022-06-12T08:34:58Z</time>
      </trkpt>
      <trkpt lat="44.27047" lon="6.74674">
        <ele>2204.6</ele>
        <time>2022-06-12T08:34:59Z</time>
      </trkpt>
      <trkpt lat="44.27057" lon="6.74672">
        <ele>2204</ele>
        <time>2022-06-12T08:35:00Z</time>
      </trkpt>
      <trkpt lat="44.27066" lon="6.74667">
        <ele>2203.2</ele>
        <time>2022-06-12T08:35:01Z</time>
      </trkpt>
      <trkpt lat="44.27076" lon="6.74662">
        <ele>2202.8</ele>
        <time>2022-06-12T08:35:02Z</time>
      </trkpt>
      <trkpt lat="44.27085" lon="6.74655">
        <ele>2202.8</ele>
        <time>2022-06-12T08:35:03Z</time>
      </trkpt>
      <trkpt lat="44.27095" lon="6.74647">
        <ele>2202.2</ele>
        <time>2022-06-12T08:35:04Z</time>
      </trkpt>
      <trkpt lat="44.27104" lon="6.7464">
        <ele>2201.2</ele>
        <time>2022-06-12T08:35:05Z</time>
      </trkpt>
      <trkpt lat="44.27113" lon="6.74633">
        <ele>2199.6</ele>
        <time>2022-06-12T08:35:06Z</time>
      </trkpt>
      <trkpt lat="44.27122" lon="6.74626">
        <ele>2198.1</ele>
        <time>2022-06-12T08:35:07Z</time>
      </trkpt>
      <trkpt lat="44.27129" lon="6.74618">
        <ele>2196.7</ele>
        <time>2022-06-12T08:35:08Z</time>
      </trkpt>
      <trkpt lat="44.27136" lon="6.74609">
        <ele>2195.4</ele>
        <time>2022-06-12T08:35:09Z</time>
      </trkpt>
      <trkpt lat="44.27141" lon="6.74598">
        <ele>2194.3</ele>
        <time>2022-06-12T08:35:10Z</time>
      </trkpt>
      <trkpt lat="44.27144" lon="6.74585">
        <ele>2193.8</ele>
        <time>2022-06-12T08:35:11Z</time>
      </trkpt>
      <trkpt lat="44.27146" lon="6.74572">
        <ele>2193.5</ele>
        <time>2022-06-12T08:35:12Z</time>
      </trkpt>
      <trkpt lat="44.27148" lon="6.74559">
        <ele>2193.5</ele>
        <time>2022-06-12T08:35:13Z</time>
      </trkpt>
      <trkpt lat="44.27151" lon="6.74546">
        <ele>2193.1</ele>
        <time>2022-06-12T08:35:14Z</time>
      </trkpt>
      <trkpt lat="44.27156" lon="6.74534">
        <ele>2192.2</ele>
        <time>2022-06-12T08:35:15Z</time>
      </trkpt>
      <trkpt lat="44.27161" lon="6.74523">
        <ele>2192</ele>
        <time>2022-06-12T08:35:16Z</time>
      </trkpt>
      <trkpt lat="44.27169" lon="6.74513">
        <ele>2192</ele>
        <time>2022-06-12T08:35:17Z</time>
      </trkpt>
      <trkpt lat="44.27177" lon="6.74505">
        <ele>2191.1</ele>
        <time>2022-06-12T08:35:18Z</time>
      </trkpt>
      <trkpt lat="44.27187" lon="6.74499">
        <ele>2190.2</ele>
        <time>2022-06-12T08:35:19Z</time>
      </trkpt>
      <trkpt lat="44.27197" lon="6.74494">
        <ele>2189.2</ele>
        <time>2022-06-12T08:35:20Z</time>
      </trkpt>
      <trkpt lat="44.27208" lon="6.74491">
        <ele>2188.3</ele>
        <time>2022-06-12T08:35:21Z</time>
      </trkpt>
      <trkpt lat="44.27219" lon="6.74488">
        <ele>2187.1</ele>
        <time>2022-06-12T08:35:22Z</time>
      </trkpt>
      <trkpt lat="44.27231" lon="6.74486">
        <ele>2186.1</ele>
        <time>2022-06-12T08:35:23Z</time>
      </trkpt>
      <trkpt lat="44.27243" lon="6.74484">
        <ele>2185.1</ele>
        <time>2022-06-12T08:35:24Z</time>
      </trkpt>
      <trkpt lat="44.27255" lon="6.74483">
        <ele>2184.1</ele>
        <time>2022-06-12T08:35:25Z</time>
      </trkpt>
      <trkpt lat="44.27266" lon="6.74483">
        <ele>2183.1</ele>
        <time>2022-06-12T08:35:26Z</time>
      </trkpt>
      <trkpt lat="44.27278" lon="6.74484">
        <ele>2181.7</ele>
        <time>2022-06-12T08:35:27Z</time>
      </trkpt>
      <trkpt lat="44.27288" lon="6.74486">
        <ele>2180.5</ele>
        <time>2022-06-12T08:35:28Z</time>
      </trkpt>
      <trkpt lat="44.27298" lon="6.74489">
        <ele>2179</ele>
        <time>2022-06-12T08:35:29Z</time>
      </trkpt>
      <trkpt lat="44.27307" lon="6.74493">
        <ele>2177.5</ele>
        <time>2022-06-12T08:35:30Z</time>
      </trkpt>
      <trkpt lat="44.27314" lon="6.74497">
        <ele>2175.9</ele>
        <time>2022-06-12T08:35:31Z</time>
      </trkpt>
      <trkpt lat="44.27322" lon="6.74501">
        <ele>2174.8</ele>
        <time>2022-06-12T08:35:32Z</time>
      </trkpt>
      <trkpt lat="44.2733" lon="6.74504">
        <ele>2174.2</ele>
        <time>2022-06-12T08:35:33Z</time>
      </trkpt>
      <trkpt lat="44.27338" lon="6.74507">
        <ele>2173.6</ele>
        <time>2022-06-12T08:35:34Z</time>
      </trkpt>
      <trkpt lat="44.27346" lon="6.74509">
        <ele>2173.2</ele>
        <time>2022-06-12T08:35:35Z</time>
      </trkpt>
      <trkpt lat="44.27355" lon="6.7451">
        <ele>2173</ele>
        <time>2022-06-12T08:35:36Z</time>
      </trkpt>
      <trkpt lat="44.27364" lon="6.74509">
        <ele>2172.8</ele>
        <time>2022-06-12T08:35:37Z</time>
      </trkpt>
      <trkpt lat="44.27373" lon="6.74505">
        <ele>2172.2</ele>
        <time>2022-06-12T08:35:38Z</time>
      </trkpt>
      <trkpt lat="44.27382" lon="6.745">
        <ele>2172</ele>
        <time>2022-06-12T08:35:39Z</time>
      </trkpt>
      <trkpt lat="44.2739" lon="6.74494">
        <ele>2171.8</ele>
        <time>2022-06-12T08:35:40Z</time>
      </trkpt>
      <trkpt lat="44.27398" lon="6.74489">
        <ele>2171.8</ele>
        <time>2022-06-12T08:35:41Z</time>
      </trkpt>
      <trkpt lat="44.27406" lon="6.74484">
        <ele>2172</ele>
        <time>2022-06-12T08:35:42Z</time>
      </trkpt>
      <trkpt lat="44.27413" lon="6.74482">
        <ele>2171.8</ele>
        <time>2022-06-12T08:35:43Z</time>
      </trkpt>
      <trkpt lat="44.27421" lon="6.74482">
        <ele>2172</ele>
        <time>2022-06-12T08:35:44Z</time>
      </trkpt>
      <trkpt lat="44.27428" lon="6.74484">
        <ele>2172.3</ele>
        <time>2022-06-12T08:35:45Z</time>
      </trkpt>
      <trkpt lat="44.27435" lon="6.74487">
        <ele>2171.8</ele>
        <time>2022-06-12T08:35:46Z</time>
      </trkpt>
      <trkpt lat="44.27443" lon="6.7449">
        <ele>2170.6</ele>
        <time>2022-06-12T08:35:47Z</time>
      </trkpt>
      <trkpt lat="44.27451" lon="6.74492">
        <ele>2169</ele>
        <time>2022-06-12T08:35:48Z</time>
      </trkpt>
      <trkpt lat="44.27459" lon="6.74494">
        <ele>2167.7</ele>
        <time>2022-06-12T08:35:49Z</time>
      </trkpt>
      <trkpt lat="44.27468" lon="6.74493">
        <ele>2167.3</ele>
        <time>2022-06-12T08:35:50Z</time>
      </trkpt>
      <trkpt lat="44.27478" lon="6.74491">
        <ele>2167.2</ele>
        <time>2022-06-12T08:35:51Z</time>
      </trkpt>
      <trkpt lat="44.27488" lon="6.74489">
        <ele>2167</ele>
        <time>2022-06-12T08:35:52Z</time>
      </trkpt>
      <trkpt lat="44.27498" lon="6.74488">
        <ele>2165.7</ele>
        <time>2022-06-12T08:35:53Z</time>
      </trkpt>
      <trkpt lat="44.27509" lon="6.7449">
        <ele>2164.7</ele>
        <time>2022-06-12T08:35:54Z</time>
      </trkpt>
      <trkpt lat="44.27521" lon="6.74492">
        <ele>2163.5</ele>
        <time>2022-06-12T08:35:55Z</time>
      </trkpt>
      <trkpt lat="44.27532" lon="6.74493">
        <ele>2162.3</ele>
        <time>2022-06-12T08:35:56Z</time>
      </trkpt>
      <trkpt lat="44.27544" lon="6.74495">
        <ele>2161.2</ele>
        <time>2022-06-12T08:35:57Z</time>
      </trkpt>
      <trkpt lat="44.27556" lon="6.74497">
        <ele>2159.8</ele>
        <time>2022-06-12T08:35:58Z</time>
      </trkpt>
      <trkpt lat="44.27569" lon="6.74499">
        <ele>2157.5</ele>
        <time>2022-06-12T08:35:59Z</time>
      </trkpt>
      <trkpt lat="44.27582" lon="6.74501">
        <ele>2155.9</ele>
        <time>2022-06-12T08:36:00Z</time>
      </trkpt>
      <trkpt lat="44.27594" lon="6.74501">
        <ele>2154.8</ele>
        <time>2022-06-12T08:36:01Z</time>
      </trkpt>
      <trkpt lat="44.27605" lon="6.74502">
        <ele>2153.8</ele>
        <time>2022-06-12T08:36:02Z</time>
      </trkpt>
      <trkpt lat="44.27615" lon="6.74502">
        <ele>2152.7</ele>
        <time>2022-06-12T08:36:03Z</time>
      </trkpt>
      <trkpt lat="44.27625" lon="6.74502">
        <ele>2151.9</ele>
        <time>2022-06-12T08:36:04Z</time>
      </trkpt>
      <trkpt lat="44.27635" lon="6.745">
        <ele>2151.4</ele>
        <time>2022-06-12T08:36:05Z</time>
      </trkpt>
      <trkpt lat="44.27646" lon="6.74497">
        <ele>2150.8</ele>
        <time>2022-06-12T08:36:06Z</time>
      </trkpt>
      <trkpt lat="44.27656" lon="6.74493">
        <ele>2150.1</ele>
        <time>2022-06-12T08:36:07Z</time>
      </trkpt>
      <trkpt lat="44.27666" lon="6.74487">
        <ele>2149.5</ele>
        <time>2022-06-12T08:36:08Z</time>
      </trkpt>
      <trkpt lat="44.27675" lon="6.74481">
        <ele>2148.9</ele>
        <time>2022-06-12T08:36:09Z</time>
      </trkpt>
      <trkpt lat="44.27684" lon="6.74472">
        <ele>2148.2</ele>
        <time>2022-06-12T08:36:10Z</time>
      </trkpt>
      <trkpt lat="44.27692" lon="6.74461">
        <ele>2148.3</ele>
        <time>2022-06-12T08:36:11Z</time>
      </trkpt>
      <trkpt lat="44.277" lon="6.74449">
        <ele>2148.3</ele>
        <time>2022-06-12T08:36:12Z</time>
      </trkpt>
      <trkpt lat="44.27707" lon="6.74437">
        <ele>2148.1</ele>
        <time>2022-06-12T08:36:13Z</time>
      </trkpt>
      <trkpt lat="44.27715" lon="6.74427">
        <ele>2147.4</ele>
        <time>2022-06-12T08:36:14Z</time>
      </trkpt>
      <trkpt lat="44.27721" lon="6.74418">
        <ele>2146.2</ele>
        <time>2022-06-12T08:36:15Z</time>
      </trkpt>
      <trkpt lat="44.27729" lon="6.74412">
        <ele>2145.9</ele>
        <time>2022-06-12T08:36:16Z</time>
      </trkpt>
      <trkpt lat="44.27736" lon="6.74409">
        <ele>2144.6</ele>
        <time>2022-06-12T08:36:17Z</time>
      </trkpt>
      <trkpt lat="44.27745" lon="6.74409">
        <ele>2142.1</ele>
        <time>2022-06-12T08:36:18Z</time>
      </trkpt>
      <trkpt lat="44.27755" lon="6.74412">
        <ele>2139.9</ele>
        <time>2022-06-12T08:36:19Z</time>
      </trkpt>
      <trkpt lat="44.27764" lon="6.74418">
        <ele>2138.5</ele>
        <time>2022-06-12T08:36:20Z</time>
      </trkpt>
      <trkpt lat="44.27772" lon="6.74425">
        <ele>2137.4</ele>
        <time>2022-06-12T08:36:21Z</time>
      </trkpt>
      <trkpt lat="44.27779" lon="6.74433">
        <ele>2137</ele>
        <time>2022-06-12T08:36:22Z</time>
      </trkpt>
      <trkpt lat="44.27784" lon="6.74442">
        <ele>2137.2</ele>
        <time>2022-06-12T08:36:23Z</time>
      </trkpt>
      <trkpt lat="44.27787" lon="6.74452">
        <ele>2137.3</ele>
        <time>2022-06-12T08:36:24Z</time>
      </trkpt>
      <trkpt lat="44.27788" lon="6.74464">
        <ele>2137.4</ele>
        <time>2022-06-12T08:36:25Z</time>
      </trkpt>
      <trkpt lat="44.27787" lon="6.74475">
        <ele>2137.2</ele>
        <time>2022-06-12T08:36:26Z</time>
      </trkpt>
      <trkpt lat="44.27784" lon="6.74487">
        <ele>2136.4</ele>
        <time>2022-06-12T08:36:27Z</time>
      </trkpt>
      <trkpt lat="44.2778" lon="6.74498">
        <ele>2136</ele>
        <time>2022-06-12T08:36:28Z</time>
      </trkpt>
      <trkpt lat="44.27774" lon="6.74508">
        <ele>2134.6</ele>
        <time>2022-06-12T08:36:29Z</time>
      </trkpt>
      <trkpt lat="44.27767" lon="6.74517">
        <ele>2133.1</ele>
        <time>2022-06-12T08:36:30Z</time>
      </trkpt>
      <trkpt lat="44.27759" lon="6.74525">
        <ele>2132.2</ele>
        <time>2022-06-12T08:36:31Z</time>
      </trkpt>
      <trkpt lat="44.2775" lon="6.74532">
        <ele>2131.5</ele>
        <time>2022-06-12T08:36:32Z</time>
      </trkpt>
      <trkpt lat="44.2774" lon="6.74537">
        <ele>2130.7</ele>
        <time>2022-06-12T08:36:33Z</time>
      </trkpt>
      <trkpt lat="44.2773" lon="6.74542">
        <ele>2130</ele>
        <time>2022-06-12T08:36:34Z</time>
      </trkpt>
      <trkpt lat="44.27719" lon="6.74547">
        <ele>2129.5</ele>
        <time>2022-06-12T08:36:35Z</time>
      </trkpt>
      <trkpt lat="44.27709" lon="6.74552">
        <ele>2129.7</ele>
        <time>2022-06-12T08:36:36Z</time>
      </trkpt>
      <trkpt lat="44.27698" lon="6.74558">
        <ele>2129.3</ele>
        <time>2022-06-12T08:36:37Z</time>
      </trkpt>
      <trkpt lat="44.27687" lon="6.74564">
        <ele>2128.8</ele>
        <time>2022-06-12T08:36:38Z</time>
      </trkpt>
      <trkpt lat="44.27677" lon="6.74568">
        <ele>2128.6</ele>
        <time>2022-06-12T08:36:39Z</time>
      </trkpt>
      <trkpt lat="44.27668" lon="6.74572">
        <ele>2128.5</ele>
        <time>2022-06-12T08:36:40Z</time>
      </trkpt>
      <trkpt lat="44.27659" lon="6.74575">
        <ele>2128</ele>
        <time>2022-06-12T08:36:41Z</time>
      </trkpt>
      <trkpt lat="44.27652" lon="6.7458">
        <ele>2127.3</ele>
        <time>2022-06-12T08:36:42Z</time>
      </trkpt>
      <trkpt lat="44.27646" lon="6.74588">
        <ele>2126</ele>
        <time>2022-06-12T08:36:43Z</time>
      </trkpt>
      <trkpt lat="44.27643" lon="6.74596">
        <ele>2124.5</ele>
        <time>2022-06-12T08:36:44Z</time>
      </trkpt>
      <trkpt lat="44.27643" lon="6.74605">
        <ele>2122.8</ele>
        <time>2022-06-12T08:36:45Z</time>
      </trkpt>
      <trkpt lat="44.27646" lon="6.74613">
        <ele>2121.3</ele>
        <time>2022-06-12T08:36:46Z</time>
      </trkpt>
      <trkpt lat="44.27652" lon="6.74617">
        <ele>2120.2</ele>
        <time>2022-06-12T08:36:47Z</time>
      </trkpt>
      <trkpt lat="44.27659" lon="6.74617">
        <ele>2119.6</ele>
        <time>2022-06-12T08:36:48Z</time>
      </trkpt>
      <trkpt lat="44.27667" lon="6.74616">
        <ele>2119.3</ele>
        <time>2022-06-12T08:36:49Z</time>
      </trkpt>
      <trkpt lat="44.27676" lon="6.74613">
        <ele>2119.1</ele>
        <time>2022-06-12T08:36:50Z</time>
      </trkpt>
      <trkpt lat="44.27684" lon="6.74609">
        <ele>2119.1</ele>
        <time>2022-06-12T08:36:51Z</time>
      </trkpt>
      <trkpt lat="44.27693" lon="6.74607">
        <ele>2119</ele>
        <time>2022-06-12T08:36:52Z</time>
      </trkpt>
      <trkpt lat="44.27703" lon="6.74606">
        <ele>2118.9</ele>
        <time>2022-06-12T08:36:53Z</time>
      </trkpt>
      <trkpt lat="44.27712" lon="6.74605">
        <ele>2118.6</ele>
        <time>2022-06-12T08:36:54Z</time>
      </trkpt>
      <trkpt lat="44.27722" lon="6.74607">
        <ele>2117.9</ele>
        <time>2022-06-12T08:36:55Z</time>
      </trkpt>
      <trkpt lat="44.27731" lon="6.74611">
        <ele>2116.7</ele>
        <time>2022-06-12T08:36:56Z</time>
      </trkpt>
      <trkpt lat="44.27741" lon="6.74617">
        <ele>2115.2</ele>
        <time>2022-06-12T08:36:57Z</time>
      </trkpt>
      <trkpt lat="44.27751" lon="6.74623">
        <ele>2113.4</ele>
        <time>2022-06-12T08:36:58Z</time>
      </trkpt>
      <trkpt lat="44.27759" lon="6.7463">
        <ele>2111.7</ele>
        <time>2022-06-12T08:36:59Z</time>
      </trkpt>
      <trkpt lat="44.27768" lon="6.74635">
        <ele>2110.3</ele>
        <time>2022-06-12T08:37:00Z</time>
      </trkpt>
      <trkpt lat="44.27777" lon="6.74638">
        <ele>2109.3</ele>
        <time>2022-06-12T08:37:01Z</time>
      </trkpt>
      <trkpt lat="44.27787" lon="6.74638">
        <ele>2108.5</ele>
        <time>2022-06-12T08:37:02Z</time>
      </trkpt>
      <trkpt lat="44.27797" lon="6.74637">
        <ele>2108</ele>
        <time>2022-06-12T08:37:03Z</time>
      </trkpt>
      <trkpt lat="44.27808" lon="6.74635">
        <ele>2107.4</ele>
        <time>2022-06-12T08:37:04Z</time>
      </trkpt>
      <trkpt lat="44.27819" lon="6.74634">
        <ele>2106.5</ele>
        <time>2022-06-12T08:37:05Z</time>
      </trkpt>
      <trkpt lat="44.2783" lon="6.74632">
        <ele>2105.7</ele>
        <time>2022-06-12T08:37:06Z</time>
      </trkpt>
      <trkpt lat="44.2784" lon="6.74629">
        <ele>2104.7</ele>
        <time>2022-06-12T08:37:07Z</time>
      </trkpt>
      <trkpt lat="44.2785" lon="6.74627">
        <ele>2103.4</ele>
        <time>2022-06-12T08:37:08Z</time>
      </trkpt>
      <trkpt lat="44.2786" lon="6.74626">
        <ele>2102.1</ele>
        <time>2022-06-12T08:37:09Z</time>
      </trkpt>
      <trkpt lat="44.27869" lon="6.74626">
        <ele>2100.3</ele>
        <time>2022-06-12T08:37:10Z</time>
      </trkpt>
      <trkpt lat="44.27877" lon="6.74628">
        <ele>2098.5</ele>
        <time>2022-06-12T08:37:11Z</time>
      </trkpt>
      <trkpt lat="44.27885" lon="6.74629">
        <ele>2096.8</ele>
        <time>2022-06-12T08:37:12Z</time>
      </trkpt>
      <trkpt lat="44.27893" lon="6.74629">
        <ele>2095.2</ele>
        <time>2022-06-12T08:37:13Z</time>
      </trkpt>
      <trkpt lat="44.27901" lon="6.74627">
        <ele>2093.7</ele>
        <time>2022-06-12T08:37:14Z</time>
      </trkpt>
      <trkpt lat="44.27907" lon="6.74623">
        <ele>2092.3</ele>
        <time>2022-06-12T08:37:15Z</time>
      </trkpt>
      <trkpt lat="44.27913" lon="6.74617">
        <ele>2091</ele>
        <time>2022-06-12T08:37:16Z</time>
      </trkpt>
      <trkpt lat="44.27917" lon="6.74608">
        <ele>2090.1</ele>
        <time>2022-06-12T08:37:17Z</time>
      </trkpt>
      <trkpt lat="44.2792" lon="6.74598">
        <ele>2089.7</ele>
        <time>2022-06-12T08:37:18Z</time>
      </trkpt>
      <trkpt lat="44.27922" lon="6.74586">
        <ele>2089.5</ele>
        <time>2022-06-12T08:37:19Z</time>
      </trkpt>
      <trkpt lat="44.27925" lon="6.74574">
        <ele>2089.1</ele>
        <time>2022-06-12T08:37:20Z</time>
      </trkpt>
      <trkpt lat="44.27927" lon="6.74561">
        <ele>2088.8</ele>
        <time>2022-06-12T08:37:21Z</time>
      </trkpt>
      <trkpt lat="44.27928" lon="6.74549">
        <ele>2088.5</ele>
        <time>2022-06-12T08:37:22Z</time>
      </trkpt>
      <trkpt lat="44.27928" lon="6.74537">
        <ele>2089</ele>
        <time>2022-06-12T08:37:23Z</time>
      </trkpt>
      <trkpt lat="44.27927" lon="6.74524">
        <ele>2090.6</ele>
        <time>2022-06-12T08:37:24Z</time>
      </trkpt>
      <trkpt lat="44.27925" lon="6.7451">
        <ele>2092.6</ele>
        <time>2022-06-12T08:37:25Z</time>
      </trkpt>
      <trkpt lat="44.27924" lon="6.74495">
        <ele>2093.6</ele>
        <time>2022-06-12T08:37:26Z</time>
      </trkpt>
      <trkpt lat="44.27924" lon="6.7448">
        <ele>2093.1</ele>
        <time>2022-06-12T08:37:27Z</time>
      </trkpt>
      <trkpt lat="44.27924" lon="6.74466">
        <ele>2091.9</ele>
        <time>2022-06-12T08:37:28Z</time>
      </trkpt>
      <trkpt lat="44.27925" lon="6.74453">
        <ele>2090.5</ele>
        <time>2022-06-12T08:37:29Z</time>
      </trkpt>
      <trkpt lat="44.27924" lon="6.7444">
        <ele>2090.1</ele>
        <time>2022-06-12T08:37:30Z</time>
      </trkpt>
      <trkpt lat="44.2792" lon="6.74428">
        <ele>2090.4</ele>
        <time>2022-06-12T08:37:31Z</time>
      </trkpt>
      <trkpt lat="44.27914" lon="6.74416">
        <ele>2091.4</ele>
        <time>2022-06-12T08:37:32Z</time>
      </trkpt>
      <trkpt lat="44.27908" lon="6.74404">
        <ele>2092.3</ele>
        <time>2022-06-12T08:37:33Z</time>
      </trkpt>
      <trkpt lat="44.27901" lon="6.74392">
        <ele>2093</ele>
        <time>2022-06-12T08:37:34Z</time>
      </trkpt>
      <trkpt lat="44.27895" lon="6.7438">
        <ele>2092.4</ele>
        <time>2022-06-12T08:37:35Z</time>
      </trkpt>
      <trkpt lat="44.27888" lon="6.74368">
        <ele>2091</ele>
        <time>2022-06-12T08:37:36Z</time>
      </trkpt>
      <trkpt lat="44.27882" lon="6.74355">
        <ele>2089.5</ele>
        <time>2022-06-12T08:37:37Z</time>
      </trkpt>
      <trkpt lat="44.27876" lon="6.74343">
        <ele>2088.2</ele>
        <time>2022-06-12T08:37:38Z</time>
      </trkpt>
      <trkpt lat="44.2787" lon="6.74332">
        <ele>2087</ele>
        <time>2022-06-12T08:37:39Z</time>
      </trkpt>
      <trkpt lat="44.27865" lon="6.74319">
        <ele>2086.3</ele>
        <time>2022-06-12T08:37:40Z</time>
      </trkpt>
      <trkpt lat="44.2786" lon="6.74307">
        <ele>2084.9</ele>
        <time>2022-06-12T08:37:41Z</time>
      </trkpt>
      <trkpt lat="44.27857" lon="6.74294">
        <ele>2084.5</ele>
        <time>2022-06-12T08:37:42Z</time>
      </trkpt>
      <trkpt lat="44.27855" lon="6.74282">
        <ele>2083.2</ele>
        <time>2022-06-12T08:37:43Z</time>
      </trkpt>
      <trkpt lat="44.27856" lon="6.74269">
        <ele>2081</ele>
        <time>2022-06-12T08:37:44Z</time>
      </trkpt>
      <trkpt lat="44.27859" lon="6.74257">
        <ele>2077.8</ele>
        <time>2022-06-12T08:37:45Z</time>
      </trkpt>
      <trkpt lat="44.27865" lon="6.74246">
        <ele>2075</ele>
        <time>2022-06-12T08:37:46Z</time>
      </trkpt>
      <trkpt lat="44.27873" lon="6.74237">
        <ele>2073.4</ele>
        <time>2022-06-12T08:37:47Z</time>
      </trkpt>
      <trkpt lat="44.27882" lon="6.74229">
        <ele>2071.9</ele>
        <time>2022-06-12T08:37:48Z</time>
      </trkpt>
      <trkpt lat="44.27891" lon="6.74222">
        <ele>2070.7</ele>
        <time>2022-06-12T08:37:49Z</time>
      </trkpt>
      <trkpt lat="44.27901" lon="6.74214">
        <ele>2070.1</ele>
        <time>2022-06-12T08:37:50Z</time>
      </trkpt>
      <trkpt lat="44.27911" lon="6.74207">
        <ele>2069.4</ele>
        <time>2022-06-12T08:37:51Z</time>
      </trkpt>
      <trkpt lat="44.27922" lon="6.74199">
        <ele>2068.5</ele>
        <time>2022-06-12T08:37:52Z</time>
      </trkpt>
      <trkpt lat="44.27932" lon="6.74191">
        <ele>2067.1</ele>
        <time>2022-06-12T08:37:53Z</time>
      </trkpt>
      <trkpt lat="44.27942" lon="6.74181">
        <ele>2066</ele>
        <time>2022-06-12T08:37:54Z</time>
      </trkpt>
      <trkpt lat="44.27951" lon="6.74171">
        <ele>2065.2</ele>
        <time>2022-06-12T08:37:55Z</time>
      </trkpt>
      <trkpt lat="44.27959" lon="6.74162">
        <ele>2064.4</ele>
        <time>2022-06-12T08:37:56Z</time>
      </trkpt>
      <trkpt lat="44.27966" lon="6.74153">
        <ele>2063.8</ele>
        <time>2022-06-12T08:37:57Z</time>
      </trkpt>
      <trkpt lat="44.27973" lon="6.74144">
        <ele>2063.3</ele>
        <time>2022-06-12T08:37:58Z</time>
      </trkpt>
      <trkpt lat="44.27979" lon="6.74138">
        <ele>2063.1</ele>
        <time>2022-06-12T08:37:59Z</time>
      </trkpt>
      <trkpt lat="44.27986" lon="6.74135">
        <ele>2062.4</ele>
        <time>2022-06-12T08:38:00Z</time>
      </trkpt>
      <trkpt lat="44.27993" lon="6.74135">
        <ele>2061.3</ele>
        <time>2022-06-12T08:38:01Z</time>
      </trkpt>
      <trkpt lat="44.28001" lon="6.74138">
        <ele>2060.1</ele>
        <time>2022-06-12T08:38:02Z</time>
      </trkpt>
      <trkpt lat="44.28008" lon="6.74141">
        <ele>2060.1</ele>
        <time>2022-06-12T08:38:03Z</time>
      </trkpt>
      <trkpt lat="44.28015" lon="6.74145">
        <ele>2060.1</ele>
        <time>2022-06-12T08:38:04Z</time>
      </trkpt>
      <trkpt lat="44.28021" lon="6.74152">
        <ele>2060.1</ele>
        <time>2022-06-12T08:38:05Z</time>
      </trkpt>
      <trkpt lat="44.28026" lon="6.74159">
        <ele>2060.1</ele>
        <time>2022-06-12T08:38:06Z</time>
      </trkpt>
      <trkpt lat="44.28029" lon="6.74168">
        <ele>2060</ele>
        <time>2022-06-12T08:38:07Z</time>
      </trkpt>
      <trkpt lat="44.28031" lon="6.74178">
        <ele>2059.2</ele>
        <time>2022-06-12T08:38:08Z</time>
      </trkpt>
      <trkpt lat="44.28032" lon="6.74188">
        <ele>2058.5</ele>
        <time>2022-06-12T08:38:09Z</time>
      </trkpt>
      <trkpt lat="44.28034" lon="6.74199">
        <ele>2057.7</ele>
        <time>2022-06-12T08:38:10Z</time>
      </trkpt>
      <trkpt lat="44.28036" lon="6.7421">
        <ele>2057</ele>
        <time>2022-06-12T08:38:11Z</time>
      </trkpt>
      <trkpt lat="44.28039" lon="6.74221">
        <ele>2056.5</ele>
        <time>2022-06-12T08:38:12Z</time>
      </trkpt>
      <trkpt lat="44.28044" lon="6.74231">
        <ele>2055.6</ele>
        <time>2022-06-12T08:38:13Z</time>
      </trkpt>
      <trkpt lat="44.28049" lon="6.74241">
        <ele>2054.7</ele>
        <time>2022-06-12T08:38:14Z</time>
      </trkpt>
      <trkpt lat="44.28057" lon="6.74249">
        <ele>2054.4</ele>
        <time>2022-06-12T08:38:15Z</time>
      </trkpt>
      <trkpt lat="44.28066" lon="6.74257">
        <ele>2054.3</ele>
        <time>2022-06-12T08:38:16Z</time>
      </trkpt>
      <trkpt lat="44.28075" lon="6.74264">
        <ele>2054.1</ele>
        <time>2022-06-12T08:38:17Z</time>
      </trkpt>
      <trkpt lat="44.28084" lon="6.7427">
        <ele>2053.7</ele>
        <time>2022-06-12T08:38:18Z</time>
      </trkpt>
      <trkpt lat="44.28092" lon="6.74276">
        <ele>2053</ele>
        <time>2022-06-12T08:38:19Z</time>
      </trkpt>
      <trkpt lat="44.28099" lon="6.74282">
        <ele>2052.2</ele>
        <time>2022-06-12T08:38:20Z</time>
      </trkpt>
      <trkpt lat="44.28104" lon="6.74291">
        <ele>2050.7</ele>
        <time>2022-06-12T08:38:21Z</time>
      </trkpt>
      <trkpt lat="44.28107" lon="6.74302">
        <ele>2048.4</ele>
        <time>2022-06-12T08:38:22Z</time>
      </trkpt>
      <trkpt lat="44.28108" lon="6.74314">
        <ele>2046.5</ele>
        <time>2022-06-12T08:38:23Z</time>
      </trkpt>
      <trkpt lat="44.28108" lon="6.74328">
        <ele>2044.6</ele>
        <time>2022-06-12T08:38:24Z</time>
      </trkpt>
      <trkpt lat="44.28105" lon="6.74341">
        <ele>2042.6</ele>
        <time>2022-06-12T08:38:25Z</time>
      </trkpt>
      <trkpt lat="44.281" lon="6.74354">
        <ele>2041.1</ele>
        <time>2022-06-12T08:38:26Z</time>
      </trkpt>
      <trkpt lat="44.28094" lon="6.74366">
        <ele>2039.5</ele>
        <time>2022-06-12T08:38:27Z</time>
      </trkpt>
      <trkpt lat="44.28088" lon="6.74378">
        <ele>2037.3</ele>
        <time>2022-06-12T08:38:28Z</time>
      </trkpt>
      <trkpt lat="44.28082" lon="6.74391">
        <ele>2035.4</ele>
        <time>2022-06-12T08:38:29Z</time>
      </trkpt>
      <trkpt lat="44.28076" lon="6.74403">
        <ele>2032.1</ele>
        <time>2022-06-12T08:38:30Z</time>
      </trkpt>
      <trkpt lat="44.28071" lon="6.74413">
        <ele>2030.2</ele>
        <time>2022-06-12T08:38:31Z</time>
      </trkpt>
      <trkpt lat="44.28065" lon="6.74422">
        <ele>2029.3</ele>
        <time>2022-06-12T08:38:32Z</time>
      </trkpt>
      <trkpt lat="44.2806" lon="6.74432">
        <ele>2028.4</ele>
        <time>2022-06-12T08:38:33Z</time>
      </trkpt>
      <trkpt lat="44.28055" lon="6.74441">
        <ele>2028</ele>
        <time>2022-06-12T08:38:34Z</time>
      </trkpt>
      <trkpt lat="44.28051" lon="6.7445">
        <ele>2028.1</ele>
        <time>2022-06-12T08:38:35Z</time>
      </trkpt>
      <trkpt lat="44.28046" lon="6.74457">
        <ele>2028.4</ele>
        <time>2022-06-12T08:38:36Z</time>
      </trkpt>
      <trkpt lat="44.28043" lon="6.74464">
        <ele>2028.6</ele>
        <time>2022-06-12T08:38:37Z</time>
      </trkpt>
      <trkpt lat="44.28041" lon="6.7447">
        <ele>2028.7</ele>
        <time>2022-06-12T08:38:38Z</time>
      </trkpt>
      <trkpt lat="44.28039" lon="6.74475">
        <ele>2028.7</ele>
        <time>2022-06-12T08:38:39Z</time>
      </trkpt>
      <trkpt lat="44.28038" lon="6.74479">
        <ele>2028.8</ele>
        <time>2022-06-12T08:38:40Z</time>
      </trkpt>
      <trkpt lat="44.28037" lon="6.74482">
        <ele>2028.8</ele>
        <time>2022-06-12T08:38:41Z</time>
      </trkpt>
      <trkpt lat="44.28036" lon="6.74485">
        <ele>2028.9</ele>
        <time>2022-06-12T08:38:42Z</time>
      </trkpt>
      <trkpt lat="44.28035" lon="6.74487">
        <ele>2029.1</ele>
        <time>2022-06-12T08:38:43Z</time>
      </trkpt>
      <trkpt lat="44.28034" lon="6.74489">
        <ele>2029.4</ele>
        <time>2022-06-12T08:38:44Z</time>
      </trkpt>
      <trkpt lat="44.28033" lon="6.74491">
        <ele>2029.7</ele>
        <time>2022-06-12T08:38:45Z</time>
      </trkpt>
      <trkpt lat="44.28032" lon="6.74493">
        <ele>2029.9</ele>
        <time>2022-06-12T08:38:46Z</time>
      </trkpt>
      <trkpt lat="44.28032" lon="6.74494">
        <ele>2029.9</ele>
        <time>2022-06-12T08:38:47Z</time>
      </trkpt>
      <trkpt lat="44.28032" lon="6.74494">
        <ele>2029.9</ele>
        <time>2022-06-12T08:38:48Z</time>
      </trkpt>
      <trkpt lat="44.28026" lon="6.74505">
        <ele>2031.6</ele>
        <time>2022-06-12T08:39:03Z</time>
      </trkpt>
      <trkpt lat="44.28025" lon="6.74509">
        <ele>2031.9</ele>
        <time>2022-06-12T08:39:04Z</time>
      </trkpt>
      <trkpt lat="44.28024" lon="6.74514">
        <ele>2032.2</ele>
        <time>2022-06-12T08:39:05Z</time>
      </trkpt>
      <trkpt lat="44.28023" lon="6.74518">
        <ele>2032.3</ele>
        <time>2022-06-12T08:39:06Z</time>
      </trkpt>
      <trkpt lat="44.28024" lon="6.7452">
        <ele>2032</ele>
        <time>2022-06-12T08:39:07Z</time>
      </trkpt>
      <trkpt lat="44.28024" lon="6.74522">
        <ele>2031.7</ele>
        <time>2022-06-12T08:39:08Z</time>
      </trkpt>
      <trkpt lat="44.28024" lon="6.74524">
        <ele>2031.8</ele>
        <time>2022-06-12T08:39:09Z</time>
      </trkpt>
      <trkpt lat="44.28024" lon="6.74524">
        <ele>2031.8</ele>
        <time>2022-06-12T08:39:10Z</time>
      </trkpt>
      <trkpt lat="44.28024" lon="6.74525">
        <ele>2031.4</ele>
        <time>2022-06-12T08:39:11Z</time>
      </trkpt>
      <trkpt lat="44.28025" lon="6.74524">
        <ele>2031.1</ele>
        <time>2022-06-12T08:39:12Z</time>
      </trkpt>
      <trkpt lat="44.28025" lon="6.74524">
        <ele>2031.1</ele>
        <time>2022-06-12T08:39:13Z</time>
      </trkpt>
      <trkpt lat="44.28028" lon="6.74528">
        <ele>2028.9</ele>
        <time>2022-06-12T08:40:27Z</time>
      </trkpt>
      <trkpt lat="44.28028" lon="6.7453">
        <ele>2029.7</ele>
        <time>2022-06-12T08:40:28Z</time>
      </trkpt>
      <trkpt lat="44.28029" lon="6.74533">
        <ele>2030.4</ele>
        <time>2022-06-12T08:40:29Z</time>
      </trkpt>
      <trkpt lat="44.2803" lon="6.74535">
        <ele>2030.7</ele>
        <time>2022-06-12T08:40:30Z</time>
      </trkpt>
      <trkpt lat="44.28031" lon="6.74537">
        <ele>2031.1</ele>
        <time>2022-06-12T08:40:31Z</time>
      </trkpt>
      <trkpt lat="44.28033" lon="6.74539">
        <ele>2031.3</ele>
        <time>2022-06-12T08:40:32Z</time>
      </trkpt>
      <trkpt lat="44.28035" lon="6.74541">
        <ele>2031.6</ele>
        <time>2022-06-12T08:40:33Z</time>
      </trkpt>
      <trkpt lat="44.28038" lon="6.74544">
        <ele>2032</ele>
        <time>2022-06-12T08:40:34Z</time>
      </trkpt>
      <trkpt lat="44.28041" lon="6.74546">
        <ele>2032.2</ele>
        <time>2022-06-12T08:40:35Z</time>
      </trkpt>
      <trkpt lat="44.28044" lon="6.74548">
        <ele>2032.2</ele>
        <time>2022-06-12T08:40:36Z</time>
      </trkpt>
      <trkpt lat="44.28049" lon="6.7455">
        <ele>2032</ele>
        <time>2022-06-12T08:40:37Z</time>
      </trkpt>
      <trkpt lat="44.28054" lon="6.74552">
        <ele>2031.6</ele>
        <time>2022-06-12T08:40:38Z</time>
      </trkpt>
      <trkpt lat="44.28059" lon="6.74554">
        <ele>2031.1</ele>
        <time>2022-06-12T08:40:39Z</time>
      </trkpt>
      <trkpt lat="44.28066" lon="6.74556">
        <ele>2030.5</ele>
        <time>2022-06-12T08:40:40Z</time>
      </trkpt>
      <trkpt lat="44.28073" lon="6.74558">
        <ele>2029.7</ele>
        <time>2022-06-12T08:40:41Z</time>
      </trkpt>
      <trkpt lat="44.2808" lon="6.74561">
        <ele>2029.1</ele>
        <time>2022-06-12T08:40:42Z</time>
      </trkpt>
      <trkpt lat="44.28088" lon="6.74565">
        <ele>2029.1</ele>
        <time>2022-06-12T08:40:43Z</time>
      </trkpt>
      <trkpt lat="44.28096" lon="6.74569">
        <ele>2029.2</ele>
        <time>2022-06-12T08:40:44Z</time>
      </trkpt>
      <trkpt lat="44.28105" lon="6.74574">
        <ele>2029.2</ele>
        <time>2022-06-12T08:40:45Z</time>
      </trkpt>
      <trkpt lat="44.28113" lon="6.74579">
        <ele>2029</ele>
        <time>2022-06-12T08:40:46Z</time>
      </trkpt>
      <trkpt lat="44.28123" lon="6.74584">
        <ele>2028.3</ele>
        <time>2022-06-12T08:40:47Z</time>
      </trkpt>
      <trkpt lat="44.28132" lon="6.7459">
        <ele>2027.7</ele>
        <time>2022-06-12T08:40:48Z</time>
      </trkpt>
      <trkpt lat="44.28142" lon="6.74597">
        <ele>2027</ele>
        <time>2022-06-12T08:40:49Z</time>
      </trkpt>
      <trkpt lat="44.28152" lon="6.74603">
        <ele>2026.2</ele>
        <time>2022-06-12T08:40:50Z</time>
      </trkpt>
      <trkpt lat="44.28163" lon="6.74609">
        <ele>2025.2</ele>
        <time>2022-06-12T08:40:51Z</time>
      </trkpt>
      <trkpt lat="44.28174" lon="6.74615">
        <ele>2024.6</ele>
        <time>2022-06-12T08:40:52Z</time>
      </trkpt>
      <trkpt lat="44.28184" lon="6.74619">
        <ele>2023.8</ele>
        <time>2022-06-12T08:40:53Z</time>
      </trkpt>
      <trkpt lat="44.28196" lon="6.74622">
        <ele>2022.5</ele>
        <time>2022-06-12T08:40:54Z</time>
      </trkpt>
      <trkpt lat="44.28208" lon="6.74623">
        <ele>2021.5</ele>
        <time>2022-06-12T08:40:55Z</time>
      </trkpt>
      <trkpt lat="44.28221" lon="6.74622">
        <ele>2019.9</ele>
        <time>2022-06-12T08:40:56Z</time>
      </trkpt>
      <trkpt lat="44.28234" lon="6.74622">
        <ele>2018.5</ele>
        <time>2022-06-12T08:40:57Z</time>
      </trkpt>
      <trkpt lat="44.28247" lon="6.74621">
        <ele>2017.2</ele>
        <time>2022-06-12T08:40:58Z</time>
      </trkpt>
      <trkpt lat="44.28259" lon="6.74621">
        <ele>2016.7</ele>
        <time>2022-06-12T08:40:59Z</time>
      </trkpt>
      <trkpt lat="44.28269" lon="6.74621">
        <ele>2016.5</ele>
        <time>2022-06-12T08:41:00Z</time>
      </trkpt>
      <trkpt lat="44.28279" lon="6.7462">
        <ele>2016.2</ele>
        <time>2022-06-12T08:41:01Z</time>
      </trkpt>
      <trkpt lat="44.28288" lon="6.74618">
        <ele>2015.8</ele>
        <time>2022-06-12T08:41:02Z</time>
      </trkpt>
      <trkpt lat="44.28296" lon="6.74616">
        <ele>2015.1</ele>
        <time>2022-06-12T08:41:03Z</time>
      </trkpt>
      <trkpt lat="44.28304" lon="6.74612">
        <ele>2014.2</ele>
        <time>2022-06-12T08:41:04Z</time>
      </trkpt>
      <trkpt lat="44.28312" lon="6.74607">
        <ele>2013</ele>
        <time>2022-06-12T08:41:05Z</time>
      </trkpt>
      <trkpt lat="44.28319" lon="6.746">
        <ele>2011.5</ele>
        <time>2022-06-12T08:41:06Z</time>
      </trkpt>
      <trkpt lat="44.28326" lon="6.74592">
        <ele>2009.8</ele>
        <time>2022-06-12T08:41:07Z</time>
      </trkpt>
      <trkpt lat="44.28332" lon="6.74583">
        <ele>2007.9</ele>
        <time>2022-06-12T08:41:08Z</time>
      </trkpt>
      <trkpt lat="44.28339" lon="6.74574">
        <ele>2006.1</ele>
        <time>2022-06-12T08:41:09Z</time>
      </trkpt>
      <trkpt lat="44.28345" lon="6.74566">
        <ele>2004.4</ele>
        <time>2022-06-12T08:41:10Z</time>
      </trkpt>
      <trkpt lat="44.28351" lon="6.74557">
        <ele>2003</ele>
        <time>2022-06-12T08:41:11Z</time>
      </trkpt>
      <trkpt lat="44.28358" lon="6.74551">
        <ele>2001.9</ele>
        <time>2022-06-12T08:41:12Z</time>
      </trkpt>
      <trkpt lat="44.28366" lon="6.74547">
        <ele>2000.9</ele>
        <time>2022-06-12T08:41:13Z</time>
      </trkpt>
      <trkpt lat="44.28374" lon="6.74543">
        <ele>1999.9</ele>
        <time>2022-06-12T08:41:14Z</time>
      </trkpt>
      <trkpt lat="44.28381" lon="6.74542">
        <ele>1999.4</ele>
        <time>2022-06-12T08:41:15Z</time>
      </trkpt>
      <trkpt lat="44.28388" lon="6.74543">
        <ele>1999.2</ele>
        <time>2022-06-12T08:41:16Z</time>
      </trkpt>
      <trkpt lat="44.28394" lon="6.74544">
        <ele>1998.8</ele>
        <time>2022-06-12T08:41:17Z</time>
      </trkpt>
      <trkpt lat="44.28401" lon="6.74546">
        <ele>1998.4</ele>
        <time>2022-06-12T08:41:18Z</time>
      </trkpt>
      <trkpt lat="44.28406" lon="6.74549">
        <ele>1998.3</ele>
        <time>2022-06-12T08:41:19Z</time>
      </trkpt>
      <trkpt lat="44.28411" lon="6.74553">
        <ele>1998.4</ele>
        <time>2022-06-12T08:41:20Z</time>
      </trkpt>
      <trkpt lat="44.28415" lon="6.74557">
        <ele>1998.4</ele>
        <time>2022-06-12T08:41:21Z</time>
      </trkpt>
      <trkpt lat="44.28419" lon="6.7456">
        <ele>1998.6</ele>
        <time>2022-06-12T08:41:22Z</time>
      </trkpt>
      <trkpt lat="44.28422" lon="6.74564">
        <ele>1999</ele>
        <time>2022-06-12T08:41:23Z</time>
      </trkpt>
      <trkpt lat="44.28424" lon="6.74567">
        <ele>1999.2</ele>
        <time>2022-06-12T08:41:24Z</time>
      </trkpt>
      <trkpt lat="44.28428" lon="6.74569">
        <ele>1999.1</ele>
        <time>2022-06-12T08:41:25Z</time>
      </trkpt>
      <trkpt lat="44.28431" lon="6.74571">
        <ele>1999</ele>
        <time>2022-06-12T08:41:26Z</time>
      </trkpt>
      <trkpt lat="44.28433" lon="6.74573">
        <ele>1999</ele>
        <time>2022-06-12T08:41:27Z</time>
      </trkpt>
      <trkpt lat="44.28435" lon="6.74575">
        <ele>1999</ele>
        <time>2022-06-12T08:41:28Z</time>
      </trkpt>
      <trkpt lat="44.28438" lon="6.74576">
        <ele>1998.9</ele>
        <time>2022-06-12T08:41:29Z</time>
      </trkpt>
      <trkpt lat="44.28439" lon="6.74577">
        <ele>1998.7</ele>
        <time>2022-06-12T08:41:30Z</time>
      </trkpt>
      <trkpt lat="44.28441" lon="6.74577">
        <ele>1998.4</ele>
        <time>2022-06-12T08:41:31Z</time>
      </trkpt>
      <trkpt lat="44.28444" lon="6.74576">
        <ele>1997.8</ele>
        <time>2022-06-12T08:41:32Z</time>
      </trkpt>
      <trkpt lat="44.28449" lon="6.74578">
        <ele>1997.5</ele>
        <time>2022-06-12T08:41:33Z</time>
      </trkpt>
      <trkpt lat="44.28451" lon="6.7458">
        <ele>1997.5</ele>
        <time>2022-06-12T08:41:34Z</time>
      </trkpt>
      <trkpt lat="44.28453" lon="6.74581">
        <ele>1997.5</ele>
        <time>2022-06-12T08:41:35Z</time>
      </trkpt>
      <trkpt lat="44.28455" lon="6.74583">
        <ele>1997.4</ele>
        <time>2022-06-12T08:41:36Z</time>
      </trkpt>
      <trkpt lat="44.28457" lon="6.74585">
        <ele>1997.5</ele>
        <time>2022-06-12T08:42:38Z</time>
      </trkpt>
      <trkpt lat="44.28459" lon="6.74586">
        <ele>1997.5</ele>
        <time>2022-06-12T08:42:39Z</time>
      </trkpt>
      <trkpt lat="44.28462" lon="6.7459">
        <ele>1997.7</ele>
        <time>2022-06-12T08:42:40Z</time>
      </trkpt>
      <trkpt lat="44.28467" lon="6.74594">
        <ele>1997.7</ele>
        <time>2022-06-12T08:42:41Z</time>
      </trkpt>
      <trkpt lat="44.28471" lon="6.74597">
        <ele>1997.7</ele>
        <time>2022-06-12T08:42:42Z</time>
      </trkpt>
      <trkpt lat="44.28476" lon="6.74601">
        <ele>1997.8</ele>
        <time>2022-06-12T08:42:43Z</time>
      </trkpt>
      <trkpt lat="44.28481" lon="6.74604">
        <ele>1997.8</ele>
        <time>2022-06-12T08:42:44Z</time>
      </trkpt>
      <trkpt lat="44.28487" lon="6.74607">
        <ele>1997.6</ele>
        <time>2022-06-12T08:42:45Z</time>
      </trkpt>
      <trkpt lat="44.28494" lon="6.74608">
        <ele>1997.1</ele>
        <time>2022-06-12T08:42:46Z</time>
      </trkpt>
      <trkpt lat="44.28501" lon="6.74606">
        <ele>1996.1</ele>
        <time>2022-06-12T08:42:47Z</time>
      </trkpt>
      <trkpt lat="44.28507" lon="6.74602">
        <ele>1994.9</ele>
        <time>2022-06-12T08:42:48Z</time>
      </trkpt>
      <trkpt lat="44.28512" lon="6.74595">
        <ele>1993.1</ele>
        <time>2022-06-12T08:42:49Z</time>
      </trkpt>
      <trkpt lat="44.28514" lon="6.74584">
        <ele>1990.7</ele>
        <time>2022-06-12T08:42:50Z</time>
      </trkpt>
      <trkpt lat="44.28514" lon="6.74572">
        <ele>1988.5</ele>
        <time>2022-06-12T08:42:51Z</time>
      </trkpt>
      <trkpt lat="44.28511" lon="6.7456">
        <ele>1986.9</ele>
        <time>2022-06-12T08:42:52Z</time>
      </trkpt>
      <trkpt lat="44.28508" lon="6.74549">
        <ele>1986</ele>
        <time>2022-06-12T08:42:53Z</time>
      </trkpt>
      <trkpt lat="44.28504" lon="6.7454">
        <ele>1985.6</ele>
        <time>2022-06-12T08:42:54Z</time>
      </trkpt>
      <trkpt lat="44.285" lon="6.7453">
        <ele>1985.2</ele>
        <time>2022-06-12T08:42:55Z</time>
      </trkpt>
      <trkpt lat="44.28498" lon="6.74521">
        <ele>1984.8</ele>
        <time>2022-06-12T08:42:56Z</time>
      </trkpt>
      <trkpt lat="44.28497" lon="6.74513">
        <ele>1984.4</ele>
        <time>2022-06-12T08:42:57Z</time>
      </trkpt>
      <trkpt lat="44.28498" lon="6.74503">
        <ele>1983.7</ele>
        <time>2022-06-12T08:42:58Z</time>
      </trkpt>
      <trkpt lat="44.285" lon="6.74494">
        <ele>1982.8</ele>
        <time>2022-06-12T08:42:59Z</time>
      </trkpt>
      <trkpt lat="44.28505" lon="6.74488">
        <ele>1981.1</ele>
        <time>2022-06-12T08:43:00Z</time>
      </trkpt>
      <trkpt lat="44.28511" lon="6.74482">
        <ele>1979.1</ele>
        <time>2022-06-12T08:43:01Z</time>
      </trkpt>
      <trkpt lat="44.28519" lon="6.74477">
        <ele>1976.8</ele>
        <time>2022-06-12T08:43:02Z</time>
      </trkpt>
      <trkpt lat="44.28526" lon="6.74473">
        <ele>1974.4</ele>
        <time>2022-06-12T08:43:03Z</time>
      </trkpt>
      <trkpt lat="44.28534" lon="6.74468">
        <ele>1971.7</ele>
        <time>2022-06-12T08:43:04Z</time>
      </trkpt>
      <trkpt lat="44.28541" lon="6.74461">
        <ele>1969.1</ele>
        <time>2022-06-12T08:43:05Z</time>
      </trkpt>
      <trkpt lat="44.28547" lon="6.74454">
        <ele>1966.9</ele>
        <time>2022-06-12T08:43:06Z</time>
      </trkpt>
      <trkpt lat="44.28551" lon="6.74447">
        <ele>1965.3</ele>
        <time>2022-06-12T08:43:07Z</time>
      </trkpt>
      <trkpt lat="44.28554" lon="6.74439">
        <ele>1964</ele>
        <time>2022-06-12T08:43:08Z</time>
      </trkpt>
      <trkpt lat="44.28556" lon="6.74431">
        <ele>1962.9</ele>
        <time>2022-06-12T08:43:09Z</time>
      </trkpt>
      <trkpt lat="44.28556" lon="6.74424">
        <ele>1962.5</ele>
        <time>2022-06-12T08:43:10Z</time>
      </trkpt>
      <trkpt lat="44.28553" lon="6.74418">
        <ele>1962.6</ele>
        <time>2022-06-12T08:43:11Z</time>
      </trkpt>
      <trkpt lat="44.28549" lon="6.74412">
        <ele>1962.3</ele>
        <time>2022-06-12T08:43:12Z</time>
      </trkpt>
      <trkpt lat="44.28544" lon="6.74406">
        <ele>1961.9</ele>
        <time>2022-06-12T08:43:13Z</time>
      </trkpt>
      <trkpt lat="44.28538" lon="6.74402">
        <ele>1961.9</ele>
        <time>2022-06-12T08:43:14Z</time>
      </trkpt>
      <trkpt lat="44.28531" lon="6.74398">
        <ele>1962.1</ele>
        <time>2022-06-12T08:43:15Z</time>
      </trkpt>
      <trkpt lat="44.28524" lon="6.74395">
        <ele>1962.3</ele>
        <time>2022-06-12T08:43:16Z</time>
      </trkpt>
      <trkpt lat="44.28516" lon="6.74393">
        <ele>1962.9</ele>
        <time>2022-06-12T08:43:17Z</time>
      </trkpt>
      <trkpt lat="44.28508" lon="6.74392">
        <ele>1963.7</ele>
        <time>2022-06-12T08:43:18Z</time>
      </trkpt>
      <trkpt lat="44.28499" lon="6.74392">
        <ele>1965</ele>
        <time>2022-06-12T08:43:19Z</time>
      </trkpt>
      <trkpt lat="44.2849" lon="6.74393">
        <ele>1966.7</ele>
        <time>2022-06-12T08:43:20Z</time>
      </trkpt>
      <trkpt lat="44.2848" lon="6.74393">
        <ele>1968.3</ele>
        <time>2022-06-12T08:43:21Z</time>
      </trkpt>
      <trkpt lat="44.28471" lon="6.74393">
        <ele>1969.6</ele>
        <time>2022-06-12T08:43:22Z</time>
      </trkpt>
      <trkpt lat="44.28461" lon="6.74393">
        <ele>1970.4</ele>
        <time>2022-06-12T08:43:23Z</time>
      </trkpt>
      <trkpt lat="44.2845" lon="6.74393">
        <ele>1971</ele>
        <time>2022-06-12T08:43:24Z</time>
      </trkpt>
      <trkpt lat="44.2844" lon="6.74392">
        <ele>1971</ele>
        <time>2022-06-12T08:43:25Z</time>
      </trkpt>
      <trkpt lat="44.28429" lon="6.74392">
        <ele>1970.5</ele>
        <time>2022-06-12T08:43:26Z</time>
      </trkpt>
      <trkpt lat="44.28418" lon="6.74391">
        <ele>1969.9</ele>
        <time>2022-06-12T08:43:27Z</time>
      </trkpt>
      <trkpt lat="44.28408" lon="6.7439">
        <ele>1969.2</ele>
        <time>2022-06-12T08:43:28Z</time>
      </trkpt>
      <trkpt lat="44.28399" lon="6.74389">
        <ele>1968.4</ele>
        <time>2022-06-12T08:43:29Z</time>
      </trkpt>
      <trkpt lat="44.28392" lon="6.74387">
        <ele>1967.4</ele>
        <time>2022-06-12T08:43:30Z</time>
      </trkpt>
      <trkpt lat="44.28385" lon="6.74385">
        <ele>1966.3</ele>
        <time>2022-06-12T08:43:31Z</time>
      </trkpt>
      <trkpt lat="44.2838" lon="6.74382">
        <ele>1964.7</ele>
        <time>2022-06-12T08:43:32Z</time>
      </trkpt>
      <trkpt lat="44.28375" lon="6.74376">
        <ele>1962.5</ele>
        <time>2022-06-12T08:43:33Z</time>
      </trkpt>
      <trkpt lat="44.28372" lon="6.7437">
        <ele>1959.9</ele>
        <time>2022-06-12T08:43:34Z</time>
      </trkpt>
      <trkpt lat="44.2837" lon="6.74362">
        <ele>1956.7</ele>
        <time>2022-06-12T08:43:35Z</time>
      </trkpt>
      <trkpt lat="44.28368" lon="6.74354">
        <ele>1953.8</ele>
        <time>2022-06-12T08:43:36Z</time>
      </trkpt>
      <trkpt lat="44.28366" lon="6.74345">
        <ele>1950.9</ele>
        <time>2022-06-12T08:43:37Z</time>
      </trkpt>
      <trkpt lat="44.28364" lon="6.74337">
        <ele>1948</ele>
        <time>2022-06-12T08:43:38Z</time>
      </trkpt>
      <trkpt lat="44.28363" lon="6.74328">
        <ele>1948.1</ele>
        <time>2022-06-12T08:43:39Z</time>
      </trkpt>
      <trkpt lat="44.28361" lon="6.74319">
        <ele>1950.2</ele>
        <time>2022-06-12T08:43:40Z</time>
      </trkpt>
      <trkpt lat="44.28359" lon="6.7431">
        <ele>1952.6</ele>
        <time>2022-06-12T08:43:41Z</time>
      </trkpt>
      <trkpt lat="44.28358" lon="6.74302">
        <ele>1955.2</ele>
        <time>2022-06-12T08:43:42Z</time>
      </trkpt>
      <trkpt lat="44.28359" lon="6.74293">
        <ele>1958.2</ele>
        <time>2022-06-12T08:43:43Z</time>
      </trkpt>
      <trkpt lat="44.28361" lon="6.74285">
        <ele>1960.6</ele>
        <time>2022-06-12T08:43:44Z</time>
      </trkpt>
      <trkpt lat="44.28364" lon="6.74277">
        <ele>1962.4</ele>
        <time>2022-06-12T08:43:45Z</time>
      </trkpt>
      <trkpt lat="44.28369" lon="6.7427">
        <ele>1962.7</ele>
        <time>2022-06-12T08:43:46Z</time>
      </trkpt>
      <trkpt lat="44.28374" lon="6.74264">
        <ele>1962.7</ele>
        <time>2022-06-12T08:43:47Z</time>
      </trkpt>
      <trkpt lat="44.2838" lon="6.74259">
        <ele>1962.7</ele>
        <time>2022-06-12T08:43:48Z</time>
      </trkpt>
      <trkpt lat="44.28386" lon="6.74254">
        <ele>1962.7</ele>
        <time>2022-06-12T08:43:49Z</time>
      </trkpt>
      <trkpt lat="44.28392" lon="6.74249">
        <ele>1962.8</ele>
        <time>2022-06-12T08:43:50Z</time>
      </trkpt>
      <trkpt lat="44.28399" lon="6.74245">
        <ele>1962.8</ele>
        <time>2022-06-12T08:43:51Z</time>
      </trkpt>
      <trkpt lat="44.28406" lon="6.74241">
        <ele>1962.6</ele>
        <time>2022-06-12T08:43:52Z</time>
      </trkpt>
      <trkpt lat="44.28413" lon="6.74237">
        <ele>1962.5</ele>
        <time>2022-06-12T08:43:53Z</time>
      </trkpt>
      <trkpt lat="44.2842" lon="6.74233">
        <ele>1962.3</ele>
        <time>2022-06-12T08:43:54Z</time>
      </trkpt>
      <trkpt lat="44.28428" lon="6.74229">
        <ele>1962.2</ele>
        <time>2022-06-12T08:43:55Z</time>
      </trkpt>
      <trkpt lat="44.28436" lon="6.74225">
        <ele>1961.8</ele>
        <time>2022-06-12T08:43:56Z</time>
      </trkpt>
      <trkpt lat="44.28444" lon="6.74222">
        <ele>1961.3</ele>
        <time>2022-06-12T08:43:57Z</time>
      </trkpt>
      <trkpt lat="44.28453" lon="6.74219">
        <ele>1960.8</ele>
        <time>2022-06-12T08:43:58Z</time>
      </trkpt>
      <trkpt lat="44.28461" lon="6.74216">
        <ele>1960.3</ele>
        <time>2022-06-12T08:43:59Z</time>
      </trkpt>
      <trkpt lat="44.2847" lon="6.74213">
        <ele>1960</ele>
        <time>2022-06-12T08:44:00Z</time>
      </trkpt>
      <trkpt lat="44.28479" lon="6.7421">
        <ele>1959.7</ele>
        <time>2022-06-12T08:44:01Z</time>
      </trkpt>
      <trkpt lat="44.28488" lon="6.74206">
        <ele>1959.3</ele>
        <time>2022-06-12T08:44:02Z</time>
      </trkpt>
      <trkpt lat="44.28498" lon="6.74203">
        <ele>1958.5</ele>
        <time>2022-06-12T08:44:03Z</time>
      </trkpt>
      <trkpt lat="44.28508" lon="6.74202">
        <ele>1958.2</ele>
        <time>2022-06-12T08:44:04Z</time>
      </trkpt>
      <trkpt lat="44.28518" lon="6.74202">
        <ele>1957.8</ele>
        <time>2022-06-12T08:44:05Z</time>
      </trkpt>
      <trkpt lat="44.28527" lon="6.74204">
        <ele>1956.9</ele>
        <time>2022-06-12T08:44:06Z</time>
      </trkpt>
      <trkpt lat="44.28537" lon="6.74209">
        <ele>1956.8</ele>
        <time>2022-06-12T08:44:07Z</time>
      </trkpt>
      <trkpt lat="44.28546" lon="6.74213">
        <ele>1956.5</ele>
        <time>2022-06-12T08:44:08Z</time>
      </trkpt>
      <trkpt lat="44.28556" lon="6.74218">
        <ele>1956.1</ele>
        <time>2022-06-12T08:44:09Z</time>
      </trkpt>
      <trkpt lat="44.28566" lon="6.74222">
        <ele>1955.4</ele>
        <time>2022-06-12T08:44:10Z</time>
      </trkpt>
      <trkpt lat="44.28577" lon="6.74226">
        <ele>1954.7</ele>
        <time>2022-06-12T08:44:11Z</time>
      </trkpt>
      <trkpt lat="44.28587" lon="6.74229">
        <ele>1954.1</ele>
        <time>2022-06-12T08:44:12Z</time>
      </trkpt>
      <trkpt lat="44.28598" lon="6.74232">
        <ele>1953.7</ele>
        <time>2022-06-12T08:44:13Z</time>
      </trkpt>
      <trkpt lat="44.28609" lon="6.74234">
        <ele>1953.3</ele>
        <time>2022-06-12T08:44:14Z</time>
      </trkpt>
      <trkpt lat="44.2862" lon="6.74235">
        <ele>1952.7</ele>
        <time>2022-06-12T08:44:15Z</time>
      </trkpt>
      <trkpt lat="44.28631" lon="6.74236">
        <ele>1952.1</ele>
        <time>2022-06-12T08:44:16Z</time>
      </trkpt>
      <trkpt lat="44.28643" lon="6.74237">
        <ele>1951.6</ele>
        <time>2022-06-12T08:44:17Z</time>
      </trkpt>
      <trkpt lat="44.28654" lon="6.74236">
        <ele>1950.9</ele>
        <time>2022-06-12T08:44:18Z</time>
      </trkpt>
      <trkpt lat="44.28666" lon="6.74234">
        <ele>1950.6</ele>
        <time>2022-06-12T08:44:19Z</time>
      </trkpt>
      <trkpt lat="44.28678" lon="6.74232">
        <ele>1950.3</ele>
        <time>2022-06-12T08:44:20Z</time>
      </trkpt>
      <trkpt lat="44.2869" lon="6.74228">
        <ele>1950.1</ele>
        <time>2022-06-12T08:44:21Z</time>
      </trkpt>
      <trkpt lat="44.28701" lon="6.74224">
        <ele>1950.1</ele>
        <time>2022-06-12T08:44:22Z</time>
      </trkpt>
      <trkpt lat="44.28712" lon="6.74221">
        <ele>1950.2</ele>
        <time>2022-06-12T08:44:23Z</time>
      </trkpt>
      <trkpt lat="44.28723" lon="6.74219">
        <ele>1949.8</ele>
        <time>2022-06-12T08:44:24Z</time>
      </trkpt>
      <trkpt lat="44.28734" lon="6.74221">
        <ele>1949.8</ele>
        <time>2022-06-12T08:44:25Z</time>
      </trkpt>
      <trkpt lat="44.28745" lon="6.74225">
        <ele>1949.1</ele>
        <time>2022-06-12T08:44:26Z</time>
      </trkpt>
      <trkpt lat="44.28755" lon="6.7423">
        <ele>1948.1</ele>
        <time>2022-06-12T08:44:27Z</time>
      </trkpt>
      <trkpt lat="44.28765" lon="6.74236">
        <ele>1947.2</ele>
        <time>2022-06-12T08:44:28Z</time>
      </trkpt>
      <trkpt lat="44.28775" lon="6.74243">
        <ele>1946</ele>
        <time>2022-06-12T08:44:29Z</time>
      </trkpt>
      <trkpt lat="44.28785" lon="6.74249">
        <ele>1945.1</ele>
        <time>2022-06-12T08:44:30Z</time>
      </trkpt>
      <trkpt lat="44.28795" lon="6.74255">
        <ele>1944.5</ele>
        <time>2022-06-12T08:44:31Z</time>
      </trkpt>
      <trkpt lat="44.28805" lon="6.74261">
        <ele>1943.9</ele>
        <time>2022-06-12T08:44:32Z</time>
      </trkpt>
      <trkpt lat="44.28815" lon="6.74266">
        <ele>1943.3</ele>
        <time>2022-06-12T08:44:33Z</time>
      </trkpt>
      <trkpt lat="44.28826" lon="6.74272">
        <ele>1942.7</ele>
        <time>2022-06-12T08:44:34Z</time>
      </trkpt>
      <trkpt lat="44.28836" lon="6.74278">
        <ele>1942.2</ele>
        <time>2022-06-12T08:44:35Z</time>
      </trkpt>
      <trkpt lat="44.28846" lon="6.74285">
        <ele>1941.4</ele>
        <time>2022-06-12T08:44:36Z</time>
      </trkpt>
      <trkpt lat="44.28855" lon="6.74291">
        <ele>1940.5</ele>
        <time>2022-06-12T08:44:37Z</time>
      </trkpt>
      <trkpt lat="44.28863" lon="6.74298">
        <ele>1939.5</ele>
        <time>2022-06-12T08:44:38Z</time>
      </trkpt>
      <trkpt lat="44.28871" lon="6.74303">
        <ele>1938.7</ele>
        <time>2022-06-12T08:44:39Z</time>
      </trkpt>
      <trkpt lat="44.28879" lon="6.74308">
        <ele>1938.3</ele>
        <time>2022-06-12T08:44:40Z</time>
      </trkpt>
      <trkpt lat="44.28887" lon="6.74313">
        <ele>1938.2</ele>
        <time>2022-06-12T08:44:41Z</time>
      </trkpt>
      <trkpt lat="44.28895" lon="6.74317">
        <ele>1938.2</ele>
        <time>2022-06-12T08:44:42Z</time>
      </trkpt>
      <trkpt lat="44.28903" lon="6.74322">
        <ele>1938.1</ele>
        <time>2022-06-12T08:44:43Z</time>
      </trkpt>
      <trkpt lat="44.28911" lon="6.74326">
        <ele>1938</ele>
        <time>2022-06-12T08:44:44Z</time>
      </trkpt>
      <trkpt lat="44.2892" lon="6.7433">
        <ele>1937.9</ele>
        <time>2022-06-12T08:44:45Z</time>
      </trkpt>
      <trkpt lat="44.2893" lon="6.74335">
        <ele>1937.6</ele>
        <time>2022-06-12T08:44:46Z</time>
      </trkpt>
      <trkpt lat="44.28939" lon="6.74339">
        <ele>1937.3</ele>
        <time>2022-06-12T08:44:47Z</time>
      </trkpt>
      <trkpt lat="44.28949" lon="6.74344">
        <ele>1937.1</ele>
        <time>2022-06-12T08:44:48Z</time>
      </trkpt>
      <trkpt lat="44.28959" lon="6.74348">
        <ele>1936.8</ele>
        <time>2022-06-12T08:44:49Z</time>
      </trkpt>
      <trkpt lat="44.2897" lon="6.74353">
        <ele>1936.5</ele>
        <time>2022-06-12T08:44:50Z</time>
      </trkpt>
      <trkpt lat="44.2898" lon="6.74358">
        <ele>1936.2</ele>
        <time>2022-06-12T08:44:51Z</time>
      </trkpt>
      <trkpt lat="44.28991" lon="6.74363">
        <ele>1935.7</ele>
        <time>2022-06-12T08:44:52Z</time>
      </trkpt>
      <trkpt lat="44.29001" lon="6.74368">
        <ele>1935</ele>
        <time>2022-06-12T08:44:53Z</time>
      </trkpt>
      <trkpt lat="44.29011" lon="6.74373">
        <ele>1934</ele>
        <time>2022-06-12T08:44:54Z</time>
      </trkpt>
      <trkpt lat="44.29021" lon="6.74378">
        <ele>1933</ele>
        <time>2022-06-12T08:44:55Z</time>
      </trkpt>
      <trkpt lat="44.29032" lon="6.74381">
        <ele>1932.4</ele>
        <time>2022-06-12T08:44:56Z</time>
      </trkpt>
      <trkpt lat="44.29042" lon="6.74384">
        <ele>1931.9</ele>
        <time>2022-06-12T08:44:57Z</time>
      </trkpt>
      <trkpt lat="44.29053" lon="6.74387">
        <ele>1931.6</ele>
        <time>2022-06-12T08:44:58Z</time>
      </trkpt>
      <trkpt lat="44.29064" lon="6.74389">
        <ele>1930.9</ele>
        <time>2022-06-12T08:44:59Z</time>
      </trkpt>
      <trkpt lat="44.29074" lon="6.74392">
        <ele>1930.2</ele>
        <time>2022-06-12T08:45:00Z</time>
      </trkpt>
      <trkpt lat="44.29085" lon="6.74394">
        <ele>1929.7</ele>
        <time>2022-06-12T08:45:01Z</time>
      </trkpt>
      <trkpt lat="44.29095" lon="6.74395">
        <ele>1929.4</ele>
        <time>2022-06-12T08:45:02Z</time>
      </trkpt>
      <trkpt lat="44.29106" lon="6.74395">
        <ele>1929.2</ele>
        <time>2022-06-12T08:45:03Z</time>
      </trkpt>
      <trkpt lat="44.29116" lon="6.74394">
        <ele>1929.2</ele>
        <time>2022-06-12T08:45:04Z</time>
      </trkpt>
      <trkpt lat="44.29126" lon="6.74392">
        <ele>1929</ele>
        <time>2022-06-12T08:45:05Z</time>
      </trkpt>
      <trkpt lat="44.29136" lon="6.7439">
        <ele>1928.8</ele>
        <time>2022-06-12T08:45:06Z</time>
      </trkpt>
      <trkpt lat="44.29146" lon="6.74389">
        <ele>1928.8</ele>
        <time>2022-06-12T08:45:07Z</time>
      </trkpt>
      <trkpt lat="44.29155" lon="6.74388">
        <ele>1928.7</ele>
        <time>2022-06-12T08:45:08Z</time>
      </trkpt>
      <trkpt lat="44.29165" lon="6.74389">
        <ele>1928</ele>
        <time>2022-06-12T08:45:09Z</time>
      </trkpt>
      <trkpt lat="44.29174" lon="6.74391">
        <ele>1928</ele>
        <time>2022-06-12T08:45:10Z</time>
      </trkpt>
      <trkpt lat="44.29183" lon="6.74394">
        <ele>1927.9</ele>
        <time>2022-06-12T08:45:11Z</time>
      </trkpt>
      <trkpt lat="44.29192" lon="6.74398">
        <ele>1927</ele>
        <time>2022-06-12T08:45:12Z</time>
      </trkpt>
      <trkpt lat="44.292" lon="6.74402">
        <ele>1925.8</ele>
        <time>2022-06-12T08:45:13Z</time>
      </trkpt>
      <trkpt lat="44.29207" lon="6.74406">
        <ele>1924.6</ele>
        <time>2022-06-12T08:45:14Z</time>
      </trkpt>
      <trkpt lat="44.29213" lon="6.74409">
        <ele>1923.9</ele>
        <time>2022-06-12T08:45:15Z</time>
      </trkpt>
      <trkpt lat="44.29219" lon="6.7441">
        <ele>1923.8</ele>
        <time>2022-06-12T08:45:16Z</time>
      </trkpt>
      <trkpt lat="44.29223" lon="6.7441">
        <ele>1923.9</ele>
        <time>2022-06-12T08:45:17Z</time>
      </trkpt>
      <trkpt lat="44.29226" lon="6.7441">
        <ele>1923.7</ele>
        <time>2022-06-12T08:45:18Z</time>
      </trkpt>
      <trkpt lat="44.29227" lon="6.74409">
        <ele>1923.5</ele>
        <time>2022-06-12T08:45:19Z</time>
      </trkpt>
      <trkpt lat="44.29228" lon="6.74409">
        <ele>1923.7</ele>
        <time>2022-06-12T08:45:20Z</time>
      </trkpt>
      <trkpt lat="44.29229" lon="6.74409">
        <ele>1923.7</ele>
        <time>2022-06-12T08:45:21Z</time>
      </trkpt>
      <trkpt lat="44.2923" lon="6.74408">
        <ele>1923.6</ele>
        <time>2022-06-12T08:45:22Z</time>
      </trkpt>
      <trkpt lat="44.29231" lon="6.74408">
        <ele>1923.7</ele>
        <time>2022-06-12T08:45:23Z</time>
      </trkpt>
      <trkpt lat="44.29232" lon="6.74407">
        <ele>1923.9</ele>
        <time>2022-06-12T08:45:24Z</time>
      </trkpt>
      <trkpt lat="44.29234" lon="6.74406">
        <ele>1924.3</ele>
        <time>2022-06-12T08:45:25Z</time>
      </trkpt>
      <trkpt lat="44.29236" lon="6.74405">
        <ele>1924.5</ele>
        <time>2022-06-12T08:45:26Z</time>
      </trkpt>
      <trkpt lat="44.29238" lon="6.74404">
        <ele>1924.7</ele>
        <time>2022-06-12T08:45:27Z</time>
      </trkpt>
      <trkpt lat="44.2924" lon="6.74403">
        <ele>1925.1</ele>
        <time>2022-06-12T08:45:28Z</time>
      </trkpt>
      <trkpt lat="44.29243" lon="6.74402">
        <ele>1925.3</ele>
        <time>2022-06-12T08:45:29Z</time>
      </trkpt>
      <trkpt lat="44.29245" lon="6.744">
        <ele>1925.8</ele>
        <time>2022-06-12T08:45:30Z</time>
      </trkpt>
      <trkpt lat="44.29248" lon="6.74399">
        <ele>1926.2</ele>
        <time>2022-06-12T08:45:31Z</time>
      </trkpt>
      <trkpt lat="44.29251" lon="6.74397">
        <ele>1926.6</ele>
        <time>2022-06-12T08:45:32Z</time>
      </trkpt>
      <trkpt lat="44.29255" lon="6.74395">
        <ele>1926.7</ele>
        <time>2022-06-12T08:45:33Z</time>
      </trkpt>
      <trkpt lat="44.29259" lon="6.74393">
        <ele>1926.6</ele>
        <time>2022-06-12T08:45:34Z</time>
      </trkpt>
      <trkpt lat="44.29263" lon="6.74391">
        <ele>1926</ele>
        <time>2022-06-12T08:45:35Z</time>
      </trkpt>
      <trkpt lat="44.29268" lon="6.7439">
        <ele>1925.1</ele>
        <time>2022-06-12T08:45:36Z</time>
      </trkpt>
      <trkpt lat="44.29274" lon="6.74389">
        <ele>1924</ele>
        <time>2022-06-12T08:45:37Z</time>
      </trkpt>
      <trkpt lat="44.29279" lon="6.74389">
        <ele>1922</ele>
        <time>2022-06-12T08:45:38Z</time>
      </trkpt>
      <trkpt lat="44.29285" lon="6.74391">
        <ele>1921.9</ele>
        <time>2022-06-12T08:45:39Z</time>
      </trkpt>
      <trkpt lat="44.29291" lon="6.74393">
        <ele>1921.6</ele>
        <time>2022-06-12T08:45:40Z</time>
      </trkpt>
      <trkpt lat="44.29296" lon="6.74395">
        <ele>1921.2</ele>
        <time>2022-06-12T08:45:41Z</time>
      </trkpt>
      <trkpt lat="44.29302" lon="6.74396">
        <ele>1921.2</ele>
        <time>2022-06-12T08:45:42Z</time>
      </trkpt>
      <trkpt lat="44.29308" lon="6.74397">
        <ele>1921.2</ele>
        <time>2022-06-12T08:45:43Z</time>
      </trkpt>
      <trkpt lat="44.29314" lon="6.74397">
        <ele>1920.9</ele>
        <time>2022-06-12T08:45:44Z</time>
      </trkpt>
      <trkpt lat="44.2932" lon="6.74396">
        <ele>1920.6</ele>
        <time>2022-06-12T08:45:45Z</time>
      </trkpt>
      <trkpt lat="44.29327" lon="6.74396">
        <ele>1920.2</ele>
        <time>2022-06-12T08:45:46Z</time>
      </trkpt>
      <trkpt lat="44.29334" lon="6.74395">
        <ele>1919.9</ele>
        <time>2022-06-12T08:45:47Z</time>
      </trkpt>
      <trkpt lat="44.29342" lon="6.74395">
        <ele>1919.5</ele>
        <time>2022-06-12T08:45:48Z</time>
      </trkpt>
      <trkpt lat="44.29349" lon="6.74393">
        <ele>1919.2</ele>
        <time>2022-06-12T08:45:49Z</time>
      </trkpt>
      <trkpt lat="44.29357" lon="6.74392">
        <ele>1918.9</ele>
        <time>2022-06-12T08:45:50Z</time>
      </trkpt>
      <trkpt lat="44.29365" lon="6.74391">
        <ele>1918.4</ele>
        <time>2022-06-12T08:45:51Z</time>
      </trkpt>
      <trkpt lat="44.29373" lon="6.7439">
        <ele>1917.8</ele>
        <time>2022-06-12T08:45:52Z</time>
      </trkpt>
      <trkpt lat="44.29382" lon="6.74389">
        <ele>1917.2</ele>
        <time>2022-06-12T08:45:53Z</time>
      </trkpt>
      <trkpt lat="44.2939" lon="6.74387">
        <ele>1916.8</ele>
        <time>2022-06-12T08:45:54Z</time>
      </trkpt>
      <trkpt lat="44.29399" lon="6.74385">
        <ele>1916.7</ele>
        <time>2022-06-12T08:45:55Z</time>
      </trkpt>
      <trkpt lat="44.29408" lon="6.74383">
        <ele>1916.6</ele>
        <time>2022-06-12T08:45:56Z</time>
      </trkpt>
      <trkpt lat="44.29417" lon="6.74381">
        <ele>1916.3</ele>
        <time>2022-06-12T08:45:57Z</time>
      </trkpt>
      <trkpt lat="44.29426" lon="6.74379">
        <ele>1916</ele>
        <time>2022-06-12T08:45:58Z</time>
      </trkpt>
      <trkpt lat="44.29435" lon="6.74377">
        <ele>1915.6</ele>
        <time>2022-06-12T08:45:59Z</time>
      </trkpt>
      <trkpt lat="44.29445" lon="6.74375">
        <ele>1915.2</ele>
        <time>2022-06-12T08:46:00Z</time>
      </trkpt>
      <trkpt lat="44.29454" lon="6.74373">
        <ele>1914.9</ele>
        <time>2022-06-12T08:46:01Z</time>
      </trkpt>
      <trkpt lat="44.29464" lon="6.74372">
        <ele>1914.2</ele>
        <time>2022-06-12T08:46:02Z</time>
      </trkpt>
      <trkpt lat="44.29474" lon="6.74372">
        <ele>1913.5</ele>
        <time>2022-06-12T08:46:03Z</time>
      </trkpt>
      <trkpt lat="44.29484" lon="6.74373">
        <ele>1913.2</ele>
        <time>2022-06-12T08:46:04Z</time>
      </trkpt>
      <trkpt lat="44.29494" lon="6.74375">
        <ele>1912.7</ele>
        <time>2022-06-12T08:46:05Z</time>
      </trkpt>
      <trkpt lat="44.29504" lon="6.74377">
        <ele>1912.2</ele>
        <time>2022-06-12T08:46:06Z</time>
      </trkpt>
      <trkpt lat="44.29514" lon="6.74379">
        <ele>1911.9</ele>
        <time>2022-06-12T08:46:07Z</time>
      </trkpt>
      <trkpt lat="44.29524" lon="6.74382">
        <ele>1911.3</ele>
        <time>2022-06-12T08:46:08Z</time>
      </trkpt>
      <trkpt lat="44.29535" lon="6.74385">
        <ele>1910.6</ele>
        <time>2022-06-12T08:46:09Z</time>
      </trkpt>
      <trkpt lat="44.29545" lon="6.74388">
        <ele>1910</ele>
        <time>2022-06-12T08:46:10Z</time>
      </trkpt>
      <trkpt lat="44.29556" lon="6.7439">
        <ele>1909.7</ele>
        <time>2022-06-12T08:46:11Z</time>
      </trkpt>
      <trkpt lat="44.29566" lon="6.7439">
        <ele>1909.2</ele>
        <time>2022-06-12T08:46:12Z</time>
      </trkpt>
      <trkpt lat="44.29577" lon="6.7439">
        <ele>1908.9</ele>
        <time>2022-06-12T08:46:13Z</time>
      </trkpt>
      <trkpt lat="44.29588" lon="6.7439">
        <ele>1908.2</ele>
        <time>2022-06-12T08:46:14Z</time>
      </trkpt>
      <trkpt lat="44.296" lon="6.74389">
        <ele>1907.2</ele>
        <time>2022-06-12T08:46:15Z</time>
      </trkpt>
      <trkpt lat="44.29611" lon="6.74387">
        <ele>1906.7</ele>
        <time>2022-06-12T08:46:16Z</time>
      </trkpt>
      <trkpt lat="44.29622" lon="6.74386">
        <ele>1906.4</ele>
        <time>2022-06-12T08:46:17Z</time>
      </trkpt>
      <trkpt lat="44.29634" lon="6.74384">
        <ele>1906.2</ele>
        <time>2022-06-12T08:46:18Z</time>
      </trkpt>
      <trkpt lat="44.29645" lon="6.74382">
        <ele>1906</ele>
        <time>2022-06-12T08:46:19Z</time>
      </trkpt>
      <trkpt lat="44.29656" lon="6.7438">
        <ele>1905.5</ele>
        <time>2022-06-12T08:46:20Z</time>
      </trkpt>
      <trkpt lat="44.29665" lon="6.74378">
        <ele>1905</ele>
        <time>2022-06-12T08:46:21Z</time>
      </trkpt>
      <trkpt lat="44.29675" lon="6.74378">
        <ele>1905.2</ele>
        <time>2022-06-12T08:46:22Z</time>
      </trkpt>
      <trkpt lat="44.29684" lon="6.74379">
        <ele>1905</ele>
        <time>2022-06-12T08:46:23Z</time>
      </trkpt>
      <trkpt lat="44.29693" lon="6.74381">
        <ele>1904.5</ele>
        <time>2022-06-12T08:46:24Z</time>
      </trkpt>
      <trkpt lat="44.29702" lon="6.74384">
        <ele>1903.9</ele>
        <time>2022-06-12T08:46:25Z</time>
      </trkpt>
      <trkpt lat="44.29712" lon="6.74388">
        <ele>1902.9</ele>
        <time>2022-06-12T08:46:26Z</time>
      </trkpt>
      <trkpt lat="44.29721" lon="6.74393">
        <ele>1901.8</ele>
        <time>2022-06-12T08:46:27Z</time>
      </trkpt>
      <trkpt lat="44.2973" lon="6.74399">
        <ele>1901.2</ele>
        <time>2022-06-12T08:46:28Z</time>
      </trkpt>
      <trkpt lat="44.29739" lon="6.74405">
        <ele>1900.6</ele>
        <time>2022-06-12T08:46:29Z</time>
      </trkpt>
      <trkpt lat="44.29746" lon="6.74411">
        <ele>1899.9</ele>
        <time>2022-06-12T08:46:30Z</time>
      </trkpt>
      <trkpt lat="44.29753" lon="6.74417">
        <ele>1899</ele>
        <time>2022-06-12T08:46:31Z</time>
      </trkpt>
      <trkpt lat="44.2976" lon="6.74422">
        <ele>1898.4</ele>
        <time>2022-06-12T08:46:32Z</time>
      </trkpt>
      <trkpt lat="44.29768" lon="6.74427">
        <ele>1898.1</ele>
        <time>2022-06-12T08:46:33Z</time>
      </trkpt>
      <trkpt lat="44.29776" lon="6.74429">
        <ele>1898.1</ele>
        <time>2022-06-12T08:46:34Z</time>
      </trkpt>
      <trkpt lat="44.29784" lon="6.7443">
        <ele>1897.6</ele>
        <time>2022-06-12T08:46:35Z</time>
      </trkpt>
      <trkpt lat="44.29793" lon="6.7443">
        <ele>1897</ele>
        <time>2022-06-12T08:46:36Z</time>
      </trkpt>
      <trkpt lat="44.29802" lon="6.74429">
        <ele>1896.6</ele>
        <time>2022-06-12T08:46:37Z</time>
      </trkpt>
      <trkpt lat="44.2981" lon="6.74428">
        <ele>1896.1</ele>
        <time>2022-06-12T08:46:38Z</time>
      </trkpt>
      <trkpt lat="44.29819" lon="6.74426">
        <ele>1895.5</ele>
        <time>2022-06-12T08:46:39Z</time>
      </trkpt>
      <trkpt lat="44.29828" lon="6.74424">
        <ele>1894.7</ele>
        <time>2022-06-12T08:46:40Z</time>
      </trkpt>
      <trkpt lat="44.29837" lon="6.74423">
        <ele>1894.2</ele>
        <time>2022-06-12T08:46:41Z</time>
      </trkpt>
      <trkpt lat="44.29846" lon="6.7442">
        <ele>1894.2</ele>
        <time>2022-06-12T08:46:42Z</time>
      </trkpt>
      <trkpt lat="44.29855" lon="6.74416">
        <ele>1894.6</ele>
        <time>2022-06-12T08:46:43Z</time>
      </trkpt>
      <trkpt lat="44.29864" lon="6.74413">
        <ele>1894.7</ele>
        <time>2022-06-12T08:46:44Z</time>
      </trkpt>
      <trkpt lat="44.29874" lon="6.74411">
        <ele>1894.5</ele>
        <time>2022-06-12T08:46:45Z</time>
      </trkpt>
      <trkpt lat="44.29884" lon="6.7441">
        <ele>1893.8</ele>
        <time>2022-06-12T08:46:46Z</time>
      </trkpt>
      <trkpt lat="44.29895" lon="6.74409">
        <ele>1893.3</ele>
        <time>2022-06-12T08:46:47Z</time>
      </trkpt>
      <trkpt lat="44.29905" lon="6.74409">
        <ele>1893.1</ele>
        <time>2022-06-12T08:46:48Z</time>
      </trkpt>
      <trkpt lat="44.29915" lon="6.7441">
        <ele>1892.5</ele>
        <time>2022-06-12T08:46:49Z</time>
      </trkpt>
      <trkpt lat="44.29925" lon="6.74411">
        <ele>1892.7</ele>
        <time>2022-06-12T08:46:50Z</time>
      </trkpt>
      <trkpt lat="44.29935" lon="6.74411">
        <ele>1893.2</ele>
        <time>2022-06-12T08:46:51Z</time>
      </trkpt>
      <trkpt lat="44.29946" lon="6.74412">
        <ele>1893.5</ele>
        <time>2022-06-12T08:46:52Z</time>
      </trkpt>
      <trkpt lat="44.29957" lon="6.74413">
        <ele>1893.2</ele>
        <time>2022-06-12T08:46:53Z</time>
      </trkpt>
      <trkpt lat="44.29968" lon="6.74414">
        <ele>1892.9</ele>
        <time>2022-06-12T08:46:54Z</time>
      </trkpt>
      <trkpt lat="44.29978" lon="6.74415">
        <ele>1892.5</ele>
        <time>2022-06-12T08:46:55Z</time>
      </trkpt>
      <trkpt lat="44.29989" lon="6.74415">
        <ele>1891.9</ele>
        <time>2022-06-12T08:46:56Z</time>
      </trkpt>
      <trkpt lat="44.3" lon="6.74416">
        <ele>1891.4</ele>
        <time>2022-06-12T08:46:57Z</time>
      </trkpt>
      <trkpt lat="44.3001" lon="6.74416">
        <ele>1890.5</ele>
        <time>2022-06-12T08:46:58Z</time>
      </trkpt>
      <trkpt lat="44.30019" lon="6.74416">
        <ele>1889.9</ele>
        <time>2022-06-12T08:46:59Z</time>
      </trkpt>
      <trkpt lat="44.30029" lon="6.74416">
        <ele>1889.2</ele>
        <time>2022-06-12T08:47:00Z</time>
      </trkpt>
      <trkpt lat="44.30039" lon="6.74416">
        <ele>1888.7</ele>
        <time>2022-06-12T08:47:01Z</time>
      </trkpt>
      <trkpt lat="44.3005" lon="6.74418">
        <ele>1888</ele>
        <time>2022-06-12T08:47:02Z</time>
      </trkpt>
      <trkpt lat="44.3006" lon="6.74419">
        <ele>1887.4</ele>
        <time>2022-06-12T08:47:03Z</time>
      </trkpt>
      <trkpt lat="44.3007" lon="6.74422">
        <ele>1886.7</ele>
        <time>2022-06-12T08:47:04Z</time>
      </trkpt>
      <trkpt lat="44.3008" lon="6.74426">
        <ele>1886</ele>
        <time>2022-06-12T08:47:05Z</time>
      </trkpt>
      <trkpt lat="44.30089" lon="6.74429">
        <ele>1885.6</ele>
        <time>2022-06-12T08:47:06Z</time>
      </trkpt>
      <trkpt lat="44.30099" lon="6.74433">
        <ele>1885.4</ele>
        <time>2022-06-12T08:47:07Z</time>
      </trkpt>
      <trkpt lat="44.30109" lon="6.74437">
        <ele>1884.9</ele>
        <time>2022-06-12T08:47:08Z</time>
      </trkpt>
      <trkpt lat="44.30119" lon="6.7444">
        <ele>1884.3</ele>
        <time>2022-06-12T08:47:09Z</time>
      </trkpt>
      <trkpt lat="44.30128" lon="6.74444">
        <ele>1883.7</ele>
        <time>2022-06-12T08:47:10Z</time>
      </trkpt>
      <trkpt lat="44.30138" lon="6.74447">
        <ele>1883.2</ele>
        <time>2022-06-12T08:47:11Z</time>
      </trkpt>
      <trkpt lat="44.30148" lon="6.7445">
        <ele>1882.3</ele>
        <time>2022-06-12T08:47:12Z</time>
      </trkpt>
      <trkpt lat="44.30158" lon="6.74452">
        <ele>1881.4</ele>
        <time>2022-06-12T08:47:13Z</time>
      </trkpt>
      <trkpt lat="44.30168" lon="6.74453">
        <ele>1880.9</ele>
        <time>2022-06-12T08:47:14Z</time>
      </trkpt>
      <trkpt lat="44.30178" lon="6.74453">
        <ele>1880.2</ele>
        <time>2022-06-12T08:47:15Z</time>
      </trkpt>
      <trkpt lat="44.30188" lon="6.74451">
        <ele>1879.7</ele>
        <time>2022-06-12T08:47:16Z</time>
      </trkpt>
      <trkpt lat="44.30199" lon="6.7445">
        <ele>1879.4</ele>
        <time>2022-06-12T08:47:17Z</time>
      </trkpt>
      <trkpt lat="44.30209" lon="6.74449">
        <ele>1878.8</ele>
        <time>2022-06-12T08:47:18Z</time>
      </trkpt>
      <trkpt lat="44.3022" lon="6.74448">
        <ele>1878.4</ele>
        <time>2022-06-12T08:47:19Z</time>
      </trkpt>
      <trkpt lat="44.3023" lon="6.74446">
        <ele>1877.8</ele>
        <time>2022-06-12T08:47:20Z</time>
      </trkpt>
      <trkpt lat="44.3024" lon="6.74443">
        <ele>1877.4</ele>
        <time>2022-06-12T08:47:21Z</time>
      </trkpt>
      <trkpt lat="44.30249" lon="6.7444">
        <ele>1877.3</ele>
        <time>2022-06-12T08:47:22Z</time>
      </trkpt>
      <trkpt lat="44.30259" lon="6.74435">
        <ele>1876.9</ele>
        <time>2022-06-12T08:47:23Z</time>
      </trkpt>
      <trkpt lat="44.30268" lon="6.74429">
        <ele>1876.9</ele>
        <time>2022-06-12T08:47:24Z</time>
      </trkpt>
      <trkpt lat="44.30277" lon="6.74422">
        <ele>1877.3</ele>
        <time>2022-06-12T08:47:25Z</time>
      </trkpt>
      <trkpt lat="44.30287" lon="6.74415">
        <ele>1877.1</ele>
        <time>2022-06-12T08:47:26Z</time>
      </trkpt>
      <trkpt lat="44.30296" lon="6.74409">
        <ele>1876.3</ele>
        <time>2022-06-12T08:47:27Z</time>
      </trkpt>
      <trkpt lat="44.30306" lon="6.74404">
        <ele>1875.2</ele>
        <time>2022-06-12T08:47:28Z</time>
      </trkpt>
      <trkpt lat="44.30315" lon="6.744">
        <ele>1875.6</ele>
        <time>2022-06-12T08:47:29Z</time>
      </trkpt>
      <trkpt lat="44.30323" lon="6.74399">
        <ele>1875.3</ele>
        <time>2022-06-12T08:47:30Z</time>
      </trkpt>
      <trkpt lat="44.30331" lon="6.74401">
        <ele>1874.4</ele>
        <time>2022-06-12T08:47:31Z</time>
      </trkpt>
      <trkpt lat="44.30338" lon="6.74407">
        <ele>1873.5</ele>
        <time>2022-06-12T08:47:32Z</time>
      </trkpt>
      <trkpt lat="44.30344" lon="6.74413">
        <ele>1872.5</ele>
        <time>2022-06-12T08:47:33Z</time>
      </trkpt>
      <trkpt lat="44.30351" lon="6.7442">
        <ele>1871.5</ele>
        <time>2022-06-12T08:47:34Z</time>
      </trkpt>
      <trkpt lat="44.30358" lon="6.74424">
        <ele>1870.5</ele>
        <time>2022-06-12T08:47:35Z</time>
      </trkpt>
      <trkpt lat="44.30366" lon="6.74425">
        <ele>1869.9</ele>
        <time>2022-06-12T08:47:36Z</time>
      </trkpt>
      <trkpt lat="44.30374" lon="6.74424">
        <ele>1869.3</ele>
        <time>2022-06-12T08:47:37Z</time>
      </trkpt>
      <trkpt lat="44.30382" lon="6.74422">
        <ele>1869.2</ele>
        <time>2022-06-12T08:47:38Z</time>
      </trkpt>
      <trkpt lat="44.30391" lon="6.74419">
        <ele>1869.2</ele>
        <time>2022-06-12T08:47:39Z</time>
      </trkpt>
      <trkpt lat="44.30399" lon="6.74417">
        <ele>1868.9</ele>
        <time>2022-06-12T08:47:40Z</time>
      </trkpt>
      <trkpt lat="44.30408" lon="6.74414">
        <ele>1868.5</ele>
        <time>2022-06-12T08:47:41Z</time>
      </trkpt>
      <trkpt lat="44.30417" lon="6.74412">
        <ele>1868.2</ele>
        <time>2022-06-12T08:47:42Z</time>
      </trkpt>
      <trkpt lat="44.30426" lon="6.74409">
        <ele>1867.9</ele>
        <time>2022-06-12T08:47:43Z</time>
      </trkpt>
      <trkpt lat="44.30435" lon="6.74406">
        <ele>1867.4</ele>
        <time>2022-06-12T08:47:44Z</time>
      </trkpt>
      <trkpt lat="44.30444" lon="6.74403">
        <ele>1867.1</ele>
        <time>2022-06-12T08:47:45Z</time>
      </trkpt>
      <trkpt lat="44.30453" lon="6.74398">
        <ele>1866.5</ele>
        <time>2022-06-12T08:47:46Z</time>
      </trkpt>
      <trkpt lat="44.30461" lon="6.74392">
        <ele>1865.8</ele>
        <time>2022-06-12T08:47:47Z</time>
      </trkpt>
      <trkpt lat="44.30469" lon="6.74386">
        <ele>1865</ele>
        <time>2022-06-12T08:47:48Z</time>
      </trkpt>
      <trkpt lat="44.30477" lon="6.74379">
        <ele>1864.2</ele>
        <time>2022-06-12T08:47:49Z</time>
      </trkpt>
      <trkpt lat="44.30485" lon="6.74371">
        <ele>1863.6</ele>
        <time>2022-06-12T08:47:50Z</time>
      </trkpt>
      <trkpt lat="44.30493" lon="6.74363">
        <ele>1863</ele>
        <time>2022-06-12T08:47:51Z</time>
      </trkpt>
      <trkpt lat="44.30501" lon="6.74355">
        <ele>1862.3</ele>
        <time>2022-06-12T08:47:52Z</time>
      </trkpt>
      <trkpt lat="44.30509" lon="6.74346">
        <ele>1862.1</ele>
        <time>2022-06-12T08:47:53Z</time>
      </trkpt>
      <trkpt lat="44.30517" lon="6.74337">
        <ele>1862</ele>
        <time>2022-06-12T08:47:54Z</time>
      </trkpt>
      <trkpt lat="44.30524" lon="6.74326">
        <ele>1861.7</ele>
        <time>2022-06-12T08:47:55Z</time>
      </trkpt>
      <trkpt lat="44.30532" lon="6.74316">
        <ele>1861.3</ele>
        <time>2022-06-12T08:47:56Z</time>
      </trkpt>
      <trkpt lat="44.3054" lon="6.74306">
        <ele>1861.1</ele>
        <time>2022-06-12T08:47:57Z</time>
      </trkpt>
      <trkpt lat="44.30549" lon="6.74297">
        <ele>1860.8</ele>
        <time>2022-06-12T08:47:58Z</time>
      </trkpt>
      <trkpt lat="44.30559" lon="6.74289">
        <ele>1860.5</ele>
        <time>2022-06-12T08:47:59Z</time>
      </trkpt>
      <trkpt lat="44.30569" lon="6.74282">
        <ele>1860.3</ele>
        <time>2022-06-12T08:48:00Z</time>
      </trkpt>
      <trkpt lat="44.30579" lon="6.74276">
        <ele>1860.4</ele>
        <time>2022-06-12T08:48:01Z</time>
      </trkpt>
      <trkpt lat="44.30589" lon="6.74271">
        <ele>1860.1</ele>
        <time>2022-06-12T08:48:02Z</time>
      </trkpt>
      <trkpt lat="44.306" lon="6.74266">
        <ele>1859.6</ele>
        <time>2022-06-12T08:48:03Z</time>
      </trkpt>
      <trkpt lat="44.3061" lon="6.74261">
        <ele>1859</ele>
        <time>2022-06-12T08:48:04Z</time>
      </trkpt>
      <trkpt lat="44.30621" lon="6.74256">
        <ele>1858.3</ele>
        <time>2022-06-12T08:48:05Z</time>
      </trkpt>
      <trkpt lat="44.30632" lon="6.7425">
        <ele>1857.7</ele>
        <time>2022-06-12T08:48:06Z</time>
      </trkpt>
      <trkpt lat="44.30642" lon="6.74245">
        <ele>1857.2</ele>
        <time>2022-06-12T08:48:07Z</time>
      </trkpt>
      <trkpt lat="44.30653" lon="6.74241">
        <ele>1856.4</ele>
        <time>2022-06-12T08:48:08Z</time>
      </trkpt>
      <trkpt lat="44.30664" lon="6.74236">
        <ele>1855.9</ele>
        <time>2022-06-12T08:48:09Z</time>
      </trkpt>
      <trkpt lat="44.30675" lon="6.7423">
        <ele>1855</ele>
        <time>2022-06-12T08:48:10Z</time>
      </trkpt>
      <trkpt lat="44.30686" lon="6.74226">
        <ele>1854</ele>
        <time>2022-06-12T08:48:11Z</time>
      </trkpt>
      <trkpt lat="44.30695" lon="6.74221">
        <ele>1853.2</ele>
        <time>2022-06-12T08:48:12Z</time>
      </trkpt>
      <trkpt lat="44.30703" lon="6.74217">
        <ele>1852.4</ele>
        <time>2022-06-12T08:48:13Z</time>
      </trkpt>
      <trkpt lat="44.30711" lon="6.74211">
        <ele>1852.1</ele>
        <time>2022-06-12T08:48:14Z</time>
      </trkpt>
      <trkpt lat="44.30717" lon="6.74205">
        <ele>1852.4</ele>
        <time>2022-06-12T08:48:15Z</time>
      </trkpt>
      <trkpt lat="44.30724" lon="6.74198">
        <ele>1852.8</ele>
        <time>2022-06-12T08:48:16Z</time>
      </trkpt>
      <trkpt lat="44.30732" lon="6.74192">
        <ele>1852.4</ele>
        <time>2022-06-12T08:48:17Z</time>
      </trkpt>
      <trkpt lat="44.3074" lon="6.74188">
        <ele>1851.6</ele>
        <time>2022-06-12T08:48:18Z</time>
      </trkpt>
      <trkpt lat="44.30748" lon="6.74186">
        <ele>1850.3</ele>
        <time>2022-06-12T08:48:19Z</time>
      </trkpt>
      <trkpt lat="44.30755" lon="6.74186">
        <ele>1849.6</ele>
        <time>2022-06-12T08:48:20Z</time>
      </trkpt>
      <trkpt lat="44.30762" lon="6.74188">
        <ele>1849.1</ele>
        <time>2022-06-12T08:48:21Z</time>
      </trkpt>
      <trkpt lat="44.30768" lon="6.74189">
        <ele>1848.6</ele>
        <time>2022-06-12T08:48:22Z</time>
      </trkpt>
      <trkpt lat="44.30774" lon="6.74189">
        <ele>1848.4</ele>
        <time>2022-06-12T08:48:23Z</time>
      </trkpt>
      <trkpt lat="44.3078" lon="6.74188">
        <ele>1848.1</ele>
        <time>2022-06-12T08:48:24Z</time>
      </trkpt>
      <trkpt lat="44.30786" lon="6.74187">
        <ele>1847.2</ele>
        <time>2022-06-12T08:48:25Z</time>
      </trkpt>
      <trkpt lat="44.30793" lon="6.74187">
        <ele>1846.3</ele>
        <time>2022-06-12T08:48:26Z</time>
      </trkpt>
      <trkpt lat="44.30799" lon="6.74185">
        <ele>1845.7</ele>
        <time>2022-06-12T08:48:27Z</time>
      </trkpt>
      <trkpt lat="44.30805" lon="6.74182">
        <ele>1845.4</ele>
        <time>2022-06-12T08:48:28Z</time>
      </trkpt>
      <trkpt lat="44.3081" lon="6.74177">
        <ele>1844.9</ele>
        <time>2022-06-12T08:48:29Z</time>
      </trkpt>
      <trkpt lat="44.30815" lon="6.7417">
        <ele>1844.7</ele>
        <time>2022-06-12T08:48:30Z</time>
      </trkpt>
      <trkpt lat="44.30819" lon="6.74161">
        <ele>1844.7</ele>
        <time>2022-06-12T08:48:31Z</time>
      </trkpt>
      <trkpt lat="44.3082" lon="6.74151">
        <ele>1844.9</ele>
        <time>2022-06-12T08:48:32Z</time>
      </trkpt>
      <trkpt lat="44.30821" lon="6.7414">
        <ele>1845.4</ele>
        <time>2022-06-12T08:48:33Z</time>
      </trkpt>
      <trkpt lat="44.30823" lon="6.7413">
        <ele>1845.4</ele>
        <time>2022-06-12T08:48:34Z</time>
      </trkpt>
      <trkpt lat="44.30825" lon="6.7412">
        <ele>1845.1</ele>
        <time>2022-06-12T08:48:35Z</time>
      </trkpt>
      <trkpt lat="44.30828" lon="6.7411">
        <ele>1844.6</ele>
        <time>2022-06-12T08:48:36Z</time>
      </trkpt>
      <trkpt lat="44.30832" lon="6.741">
        <ele>1843.9</ele>
        <time>2022-06-12T08:48:37Z</time>
      </trkpt>
      <trkpt lat="44.30836" lon="6.7409">
        <ele>1843</ele>
        <time>2022-06-12T08:48:38Z</time>
      </trkpt>
      <trkpt lat="44.30842" lon="6.7408">
        <ele>1842.1</ele>
        <time>2022-06-12T08:48:39Z</time>
      </trkpt>
      <trkpt lat="44.30849" lon="6.74072">
        <ele>1841.6</ele>
        <time>2022-06-12T08:48:40Z</time>
      </trkpt>
      <trkpt lat="44.30856" lon="6.74064">
        <ele>1840.9</ele>
        <time>2022-06-12T08:48:41Z</time>
      </trkpt>
      <trkpt lat="44.30865" lon="6.74059">
        <ele>1839.6</ele>
        <time>2022-06-12T08:48:42Z</time>
      </trkpt>
      <trkpt lat="44.30874" lon="6.74056">
        <ele>1838.3</ele>
        <time>2022-06-12T08:48:43Z</time>
      </trkpt>
      <trkpt lat="44.30882" lon="6.74051">
        <ele>1837.4</ele>
        <time>2022-06-12T08:48:44Z</time>
      </trkpt>
      <trkpt lat="44.30889" lon="6.74045">
        <ele>1837.2</ele>
        <time>2022-06-12T08:48:45Z</time>
      </trkpt>
      <trkpt lat="44.30896" lon="6.74038">
        <ele>1836.8</ele>
        <time>2022-06-12T08:48:46Z</time>
      </trkpt>
      <trkpt lat="44.30901" lon="6.7403">
        <ele>1837.1</ele>
        <time>2022-06-12T08:48:47Z</time>
      </trkpt>
      <trkpt lat="44.30906" lon="6.74021">
        <ele>1837.8</ele>
        <time>2022-06-12T08:48:48Z</time>
      </trkpt>
      <trkpt lat="44.30911" lon="6.74012">
        <ele>1838.2</ele>
        <time>2022-06-12T08:48:49Z</time>
      </trkpt>
      <trkpt lat="44.30917" lon="6.74004">
        <ele>1838</ele>
        <time>2022-06-12T08:48:50Z</time>
      </trkpt>
      <trkpt lat="44.30924" lon="6.73999">
        <ele>1837.3</ele>
        <time>2022-06-12T08:48:51Z</time>
      </trkpt>
      <trkpt lat="44.30932" lon="6.73994">
        <ele>1836.5</ele>
        <time>2022-06-12T08:48:52Z</time>
      </trkpt>
      <trkpt lat="44.3094" lon="6.73988">
        <ele>1835.9</ele>
        <time>2022-06-12T08:48:53Z</time>
      </trkpt>
      <trkpt lat="44.30947" lon="6.73981">
        <ele>1835.3</ele>
        <time>2022-06-12T08:48:54Z</time>
      </trkpt>
      <trkpt lat="44.30954" lon="6.73974">
        <ele>1834.5</ele>
        <time>2022-06-12T08:48:55Z</time>
      </trkpt>
      <trkpt lat="44.30961" lon="6.73965">
        <ele>1834.2</ele>
        <time>2022-06-12T08:48:56Z</time>
      </trkpt>
      <trkpt lat="44.30968" lon="6.73955">
        <ele>1833.9</ele>
        <time>2022-06-12T08:48:57Z</time>
      </trkpt>
      <trkpt lat="44.30975" lon="6.73944">
        <ele>1833.8</ele>
        <time>2022-06-12T08:48:58Z</time>
      </trkpt>
      <trkpt lat="44.30982" lon="6.73932">
        <ele>1832.7</ele>
        <time>2022-06-12T08:48:59Z</time>
      </trkpt>
      <trkpt lat="44.30988" lon="6.73919">
        <ele>1831.5</ele>
        <time>2022-06-12T08:49:00Z</time>
      </trkpt>
      <trkpt lat="44.30994" lon="6.73905">
        <ele>1830.5</ele>
        <time>2022-06-12T08:49:01Z</time>
      </trkpt>
      <trkpt lat="44.31" lon="6.73891">
        <ele>1829.8</ele>
        <time>2022-06-12T08:49:02Z</time>
      </trkpt>
      <trkpt lat="44.31005" lon="6.73878">
        <ele>1828.5</ele>
        <time>2022-06-12T08:49:03Z</time>
      </trkpt>
      <trkpt lat="44.31009" lon="6.73864">
        <ele>1828.1</ele>
        <time>2022-06-12T08:49:04Z</time>
      </trkpt>
      <trkpt lat="44.31011" lon="6.73849">
        <ele>1827.9</ele>
        <time>2022-06-12T08:49:05Z</time>
      </trkpt>
      <trkpt lat="44.31012" lon="6.73834">
        <ele>1828.4</ele>
        <time>2022-06-12T08:49:06Z</time>
      </trkpt>
      <trkpt lat="44.31013" lon="6.7382">
        <ele>1828.1</ele>
        <time>2022-06-12T08:49:07Z</time>
      </trkpt>
      <trkpt lat="44.31013" lon="6.73806">
        <ele>1827.6</ele>
        <time>2022-06-12T08:49:08Z</time>
      </trkpt>
      <trkpt lat="44.31014" lon="6.73794">
        <ele>1826.7</ele>
        <time>2022-06-12T08:49:09Z</time>
      </trkpt>
      <trkpt lat="44.31017" lon="6.73781">
        <ele>1824.9</ele>
        <time>2022-06-12T08:49:10Z</time>
      </trkpt>
      <trkpt lat="44.31021" lon="6.73769">
        <ele>1823</ele>
        <time>2022-06-12T08:49:11Z</time>
      </trkpt>
      <trkpt lat="44.31026" lon="6.73757">
        <ele>1820.5</ele>
        <time>2022-06-12T08:49:12Z</time>
      </trkpt>
      <trkpt lat="44.31032" lon="6.73744">
        <ele>1818.8</ele>
        <time>2022-06-12T08:49:13Z</time>
      </trkpt>
      <trkpt lat="44.31037" lon="6.73731">
        <ele>1817.7</ele>
        <time>2022-06-12T08:49:14Z</time>
      </trkpt>
      <trkpt lat="44.31042" lon="6.73718">
        <ele>1817</ele>
        <time>2022-06-12T08:49:15Z</time>
      </trkpt>
      <trkpt lat="44.31045" lon="6.73707">
        <ele>1816.6</ele>
        <time>2022-06-12T08:49:16Z</time>
      </trkpt>
      <trkpt lat="44.31048" lon="6.73695">
        <ele>1816.4</ele>
        <time>2022-06-12T08:49:17Z</time>
      </trkpt>
      <trkpt lat="44.31052" lon="6.73685">
        <ele>1816.3</ele>
        <time>2022-06-12T08:49:18Z</time>
      </trkpt>
      <trkpt lat="44.31058" lon="6.73676">
        <ele>1815.7</ele>
        <time>2022-06-12T08:49:19Z</time>
      </trkpt>
      <trkpt lat="44.31066" lon="6.73669">
        <ele>1814.7</ele>
        <time>2022-06-12T08:49:20Z</time>
      </trkpt>
      <trkpt lat="44.31074" lon="6.73663">
        <ele>1813.5</ele>
        <time>2022-06-12T08:49:21Z</time>
      </trkpt>
      <trkpt lat="44.31082" lon="6.73657">
        <ele>1812.4</ele>
        <time>2022-06-12T08:49:22Z</time>
      </trkpt>
      <trkpt lat="44.3109" lon="6.73652">
        <ele>1811.7</ele>
        <time>2022-06-12T08:49:23Z</time>
      </trkpt>
      <trkpt lat="44.31096" lon="6.73647">
        <ele>1811</ele>
        <time>2022-06-12T08:49:24Z</time>
      </trkpt>
      <trkpt lat="44.31102" lon="6.73644">
        <ele>1809.9</ele>
        <time>2022-06-12T08:49:25Z</time>
      </trkpt>
      <trkpt lat="44.31107" lon="6.73645">
        <ele>1808.3</ele>
        <time>2022-06-12T08:49:26Z</time>
      </trkpt>
      <trkpt lat="44.31111" lon="6.7365">
        <ele>1806.5</ele>
        <time>2022-06-12T08:49:27Z</time>
      </trkpt>
      <trkpt lat="44.31113" lon="6.73658">
        <ele>1804.9</ele>
        <time>2022-06-12T08:49:28Z</time>
      </trkpt>
      <trkpt lat="44.3111" lon="6.73666">
        <ele>1804.3</ele>
        <time>2022-06-12T08:49:29Z</time>
      </trkpt>
      <trkpt lat="44.31104" lon="6.73674">
        <ele>1804.3</ele>
        <time>2022-06-12T08:49:30Z</time>
      </trkpt>
      <trkpt lat="44.31098" lon="6.7368">
        <ele>1804.7</ele>
        <time>2022-06-12T08:49:31Z</time>
      </trkpt>
      <trkpt lat="44.31091" lon="6.73687">
        <ele>1805.3</ele>
        <time>2022-06-12T08:49:32Z</time>
      </trkpt>
      <trkpt lat="44.31085" lon="6.73693">
        <ele>1805.9</ele>
        <time>2022-06-12T08:49:33Z</time>
      </trkpt>
      <trkpt lat="44.31079" lon="6.73698">
        <ele>1806.6</ele>
        <time>2022-06-12T08:49:34Z</time>
      </trkpt>
      <trkpt lat="44.31075" lon="6.73704">
        <ele>1806.9</ele>
        <time>2022-06-12T08:49:35Z</time>
      </trkpt>
      <trkpt lat="44.31071" lon="6.73711">
        <ele>1807.1</ele>
        <time>2022-06-12T08:49:36Z</time>
      </trkpt>
      <trkpt lat="44.31069" lon="6.73718">
        <ele>1806.6</ele>
        <time>2022-06-12T08:49:37Z</time>
      </trkpt>
      <trkpt lat="44.31069" lon="6.73726">
        <ele>1805.6</ele>
        <time>2022-06-12T08:49:38Z</time>
      </trkpt>
      <trkpt lat="44.31072" lon="6.73734">
        <ele>1803.9</ele>
        <time>2022-06-12T08:49:39Z</time>
      </trkpt>
      <trkpt lat="44.31077" lon="6.73738">
        <ele>1801.8</ele>
        <time>2022-06-12T08:49:40Z</time>
      </trkpt>
      <trkpt lat="44.31082" lon="6.73739">
        <ele>1800</ele>
        <time>2022-06-12T08:49:41Z</time>
      </trkpt>
      <trkpt lat="44.31088" lon="6.73735">
        <ele>1799.3</ele>
        <time>2022-06-12T08:49:42Z</time>
      </trkpt>
      <trkpt lat="44.31093" lon="6.73729">
        <ele>1799</ele>
        <time>2022-06-12T08:49:43Z</time>
      </trkpt>
      <trkpt lat="44.31098" lon="6.73723">
        <ele>1798.7</ele>
        <time>2022-06-12T08:49:44Z</time>
      </trkpt>
      <trkpt lat="44.31103" lon="6.73716">
        <ele>1798.4</ele>
        <time>2022-06-12T08:49:45Z</time>
      </trkpt>
      <trkpt lat="44.31109" lon="6.73709">
        <ele>1798</ele>
        <time>2022-06-12T08:49:46Z</time>
      </trkpt>
      <trkpt lat="44.31114" lon="6.73702">
        <ele>1797.7</ele>
        <time>2022-06-12T08:49:47Z</time>
      </trkpt>
      <trkpt lat="44.31119" lon="6.73695">
        <ele>1797.4</ele>
        <time>2022-06-12T08:49:48Z</time>
      </trkpt>
      <trkpt lat="44.31124" lon="6.7369">
        <ele>1797.3</ele>
        <time>2022-06-12T08:49:49Z</time>
      </trkpt>
      <trkpt lat="44.3113" lon="6.73688">
        <ele>1796.5</ele>
        <time>2022-06-12T08:49:50Z</time>
      </trkpt>
      <trkpt lat="44.31135" lon="6.73689">
        <ele>1795.3</ele>
        <time>2022-06-12T08:49:51Z</time>
      </trkpt>
      <trkpt lat="44.31138" lon="6.73695">
        <ele>1794</ele>
        <time>2022-06-12T08:49:52Z</time>
      </trkpt>
      <trkpt lat="44.31139" lon="6.73704">
        <ele>1792.9</ele>
        <time>2022-06-12T08:49:53Z</time>
      </trkpt>
      <trkpt lat="44.31138" lon="6.73714">
        <ele>1792</ele>
        <time>2022-06-12T08:49:54Z</time>
      </trkpt>
      <trkpt lat="44.31136" lon="6.73724">
        <ele>1791.3</ele>
        <time>2022-06-12T08:49:55Z</time>
      </trkpt>
      <trkpt lat="44.31134" lon="6.73735">
        <ele>1790.6</ele>
        <time>2022-06-12T08:49:56Z</time>
      </trkpt>
      <trkpt lat="44.31131" lon="6.73747">
        <ele>1789.7</ele>
        <time>2022-06-12T08:49:57Z</time>
      </trkpt>
      <trkpt lat="44.31128" lon="6.7376">
        <ele>1788.8</ele>
        <time>2022-06-12T08:49:58Z</time>
      </trkpt>
      <trkpt lat="44.31125" lon="6.73773">
        <ele>1788</ele>
        <time>2022-06-12T08:49:59Z</time>
      </trkpt>
      <trkpt lat="44.31121" lon="6.73786">
        <ele>1787.3</ele>
        <time>2022-06-12T08:50:00Z</time>
      </trkpt>
      <trkpt lat="44.31116" lon="6.73799">
        <ele>1787.1</ele>
        <time>2022-06-12T08:50:01Z</time>
      </trkpt>
      <trkpt lat="44.3111" lon="6.73812">
        <ele>1787</ele>
        <time>2022-06-12T08:50:02Z</time>
      </trkpt>
      <trkpt lat="44.31103" lon="6.73825">
        <ele>1786.4</ele>
        <time>2022-06-12T08:50:03Z</time>
      </trkpt>
      <trkpt lat="44.31097" lon="6.73837">
        <ele>1786.2</ele>
        <time>2022-06-12T08:50:04Z</time>
      </trkpt>
      <trkpt lat="44.3109" lon="6.73849">
        <ele>1786.5</ele>
        <time>2022-06-12T08:50:05Z</time>
      </trkpt>
      <trkpt lat="44.31084" lon="6.73859">
        <ele>1787.1</ele>
        <time>2022-06-12T08:50:06Z</time>
      </trkpt>
      <trkpt lat="44.31078" lon="6.7387">
        <ele>1788.3</ele>
        <time>2022-06-12T08:50:07Z</time>
      </trkpt>
      <trkpt lat="44.31074" lon="6.7388">
        <ele>1789</ele>
        <time>2022-06-12T08:50:08Z</time>
      </trkpt>
      <trkpt lat="44.31071" lon="6.73892">
        <ele>1788.5</ele>
        <time>2022-06-12T08:50:09Z</time>
      </trkpt>
      <trkpt lat="44.31071" lon="6.73903">
        <ele>1786.8</ele>
        <time>2022-06-12T08:50:10Z</time>
      </trkpt>
      <trkpt lat="44.31072" lon="6.73913">
        <ele>1784.7</ele>
        <time>2022-06-12T08:50:11Z</time>
      </trkpt>
      <trkpt lat="44.31075" lon="6.73922">
        <ele>1782.1</ele>
        <time>2022-06-12T08:50:12Z</time>
      </trkpt>
      <trkpt lat="44.3108" lon="6.73929">
        <ele>1779.3</ele>
        <time>2022-06-12T08:50:13Z</time>
      </trkpt>
      <trkpt lat="44.31085" lon="6.73935">
        <ele>1777.2</ele>
        <time>2022-06-12T08:50:14Z</time>
      </trkpt>
      <trkpt lat="44.31091" lon="6.73941">
        <ele>1776.5</ele>
        <time>2022-06-12T08:50:15Z</time>
      </trkpt>
      <trkpt lat="44.31096" lon="6.73946">
        <ele>1776.4</ele>
        <time>2022-06-12T08:50:16Z</time>
      </trkpt>
      <trkpt lat="44.31101" lon="6.73951">
        <ele>1776.9</ele>
        <time>2022-06-12T08:50:17Z</time>
      </trkpt>
      <trkpt lat="44.31105" lon="6.73956">
        <ele>1777.6</ele>
        <time>2022-06-12T08:50:18Z</time>
      </trkpt>
      <trkpt lat="44.3111" lon="6.73962">
        <ele>1778.7</ele>
        <time>2022-06-12T08:50:19Z</time>
      </trkpt>
      <trkpt lat="44.31115" lon="6.73967">
        <ele>1779.8</ele>
        <time>2022-06-12T08:50:20Z</time>
      </trkpt>
      <trkpt lat="44.31121" lon="6.7397">
        <ele>1780.7</ele>
        <time>2022-06-12T08:50:21Z</time>
      </trkpt>
      <trkpt lat="44.31126" lon="6.73972">
        <ele>1781.6</ele>
        <time>2022-06-12T08:50:22Z</time>
      </trkpt>
      <trkpt lat="44.31131" lon="6.73975">
        <ele>1782.2</ele>
        <time>2022-06-12T08:50:23Z</time>
      </trkpt>
      <trkpt lat="44.31137" lon="6.73977">
        <ele>1782.8</ele>
        <time>2022-06-12T08:50:24Z</time>
      </trkpt>
      <trkpt lat="44.31143" lon="6.73978">
        <ele>1783.1</ele>
        <time>2022-06-12T08:50:25Z</time>
      </trkpt>
      <trkpt lat="44.31149" lon="6.73979">
        <ele>1783.2</ele>
        <time>2022-06-12T08:50:26Z</time>
      </trkpt>
      <trkpt lat="44.31154" lon="6.73978">
        <ele>1783.2</ele>
        <time>2022-06-12T08:50:27Z</time>
      </trkpt>
      <trkpt lat="44.31159" lon="6.73976">
        <ele>1783.2</ele>
        <time>2022-06-12T08:50:28Z</time>
      </trkpt>
      <trkpt lat="44.31164" lon="6.73973">
        <ele>1783.1</ele>
        <time>2022-06-12T08:50:29Z</time>
      </trkpt>
      <trkpt lat="44.31169" lon="6.7397">
        <ele>1783.1</ele>
        <time>2022-06-12T08:50:30Z</time>
      </trkpt>
      <trkpt lat="44.31173" lon="6.73965">
        <ele>1783.3</ele>
        <time>2022-06-12T08:50:31Z</time>
      </trkpt>
      <trkpt lat="44.31177" lon="6.7396">
        <ele>1783.6</ele>
        <time>2022-06-12T08:50:32Z</time>
      </trkpt>
      <trkpt lat="44.31181" lon="6.73954">
        <ele>1783.9</ele>
        <time>2022-06-12T08:50:33Z</time>
      </trkpt>
      <trkpt lat="44.31185" lon="6.73948">
        <ele>1784.3</ele>
        <time>2022-06-12T08:50:34Z</time>
      </trkpt>
      <trkpt lat="44.31188" lon="6.73942">
        <ele>1784.5</ele>
        <time>2022-06-12T08:50:35Z</time>
      </trkpt>
      <trkpt lat="44.3119" lon="6.73935">
        <ele>1784.5</ele>
        <time>2022-06-12T08:50:36Z</time>
      </trkpt>
      <trkpt lat="44.31193" lon="6.73928">
        <ele>1784.5</ele>
        <time>2022-06-12T08:50:37Z</time>
      </trkpt>
      <trkpt lat="44.31196" lon="6.73921">
        <ele>1784.5</ele>
        <time>2022-06-12T08:50:38Z</time>
      </trkpt>
      <trkpt lat="44.31198" lon="6.73914">
        <ele>1784.2</ele>
        <time>2022-06-12T08:50:39Z</time>
      </trkpt>
      <trkpt lat="44.31199" lon="6.73908">
        <ele>1783.8</ele>
        <time>2022-06-12T08:50:40Z</time>
      </trkpt>
      <trkpt lat="44.31201" lon="6.73901">
        <ele>1783.6</ele>
        <time>2022-06-12T08:50:41Z</time>
      </trkpt>
      <trkpt lat="44.31203" lon="6.73895">
        <ele>1783.4</ele>
        <time>2022-06-12T08:50:42Z</time>
      </trkpt>
      <trkpt lat="44.31204" lon="6.73889">
        <ele>1783.1</ele>
        <time>2022-06-12T08:50:43Z</time>
      </trkpt>
      <trkpt lat="44.31205" lon="6.73883">
        <ele>1783</ele>
        <time>2022-06-12T08:50:44Z</time>
      </trkpt>
      <trkpt lat="44.31207" lon="6.73876">
        <ele>1783</ele>
        <time>2022-06-12T08:50:45Z</time>
      </trkpt>
      <trkpt lat="44.31208" lon="6.7387">
        <ele>1782.8</ele>
        <time>2022-06-12T08:50:46Z</time>
      </trkpt>
      <trkpt lat="44.31209" lon="6.73864">
        <ele>1782.7</ele>
        <time>2022-06-12T08:50:47Z</time>
      </trkpt>
      <trkpt lat="44.3121" lon="6.73858">
        <ele>1782.6</ele>
        <time>2022-06-12T08:50:48Z</time>
      </trkpt>
      <trkpt lat="44.31212" lon="6.73851">
        <ele>1782.6</ele>
        <time>2022-06-12T08:50:49Z</time>
      </trkpt>
      <trkpt lat="44.31213" lon="6.73845">
        <ele>1782.6</ele>
        <time>2022-06-12T08:50:50Z</time>
      </trkpt>
      <trkpt lat="44.31215" lon="6.73838">
        <ele>1782.7</ele>
        <time>2022-06-12T08:50:51Z</time>
      </trkpt>
      <trkpt lat="44.31218" lon="6.7383">
        <ele>1782.7</ele>
        <time>2022-06-12T08:50:52Z</time>
      </trkpt>
      <trkpt lat="44.3122" lon="6.73823">
        <ele>1782.3</ele>
        <time>2022-06-12T08:50:53Z</time>
      </trkpt>
      <trkpt lat="44.31223" lon="6.73816">
        <ele>1782.1</ele>
        <time>2022-06-12T08:50:54Z</time>
      </trkpt>
      <trkpt lat="44.31226" lon="6.73808">
        <ele>1782.1</ele>
        <time>2022-06-12T08:50:55Z</time>
      </trkpt>
      <trkpt lat="44.31229" lon="6.738">
        <ele>1781.9</ele>
        <time>2022-06-12T08:50:56Z</time>
      </trkpt>
      <trkpt lat="44.31232" lon="6.73793">
        <ele>1781.7</ele>
        <time>2022-06-12T08:50:57Z</time>
      </trkpt>
      <trkpt lat="44.31236" lon="6.73785">
        <ele>1781.7</ele>
        <time>2022-06-12T08:50:58Z</time>
      </trkpt>
      <trkpt lat="44.31239" lon="6.73777">
        <ele>1781.7</ele>
        <time>2022-06-12T08:50:59Z</time>
      </trkpt>
      <trkpt lat="44.31243" lon="6.73769">
        <ele>1781.8</ele>
        <time>2022-06-12T08:51:00Z</time>
      </trkpt>
      <trkpt lat="44.31247" lon="6.73761">
        <ele>1782.1</ele>
        <time>2022-06-12T08:51:01Z</time>
      </trkpt>
      <trkpt lat="44.3125" lon="6.73753">
        <ele>1782.2</ele>
        <time>2022-06-12T08:51:02Z</time>
      </trkpt>
      <trkpt lat="44.31254" lon="6.73744">
        <ele>1781.7</ele>
        <time>2022-06-12T08:51:03Z</time>
      </trkpt>
      <trkpt lat="44.31258" lon="6.73736">
        <ele>1781.2</ele>
        <time>2022-06-12T08:51:04Z</time>
      </trkpt>
      <trkpt lat="44.31262" lon="6.73728">
        <ele>1780.9</ele>
        <time>2022-06-12T08:51:05Z</time>
      </trkpt>
      <trkpt lat="44.31266" lon="6.73719">
        <ele>1780.5</ele>
        <time>2022-06-12T08:51:06Z</time>
      </trkpt>
      <trkpt lat="44.3127" lon="6.7371">
        <ele>1780</ele>
        <time>2022-06-12T08:51:07Z</time>
      </trkpt>
      <trkpt lat="44.31275" lon="6.73702">
        <ele>1779.5</ele>
        <time>2022-06-12T08:51:08Z</time>
      </trkpt>
      <trkpt lat="44.31279" lon="6.73693">
        <ele>1779.1</ele>
        <time>2022-06-12T08:51:09Z</time>
      </trkpt>
      <trkpt lat="44.31283" lon="6.73684">
        <ele>1778.6</ele>
        <time>2022-06-12T08:51:10Z</time>
      </trkpt>
      <trkpt lat="44.31287" lon="6.73674">
        <ele>1778.1</ele>
        <time>2022-06-12T08:51:11Z</time>
      </trkpt>
      <trkpt lat="44.31291" lon="6.73665">
        <ele>1777.6</ele>
        <time>2022-06-12T08:51:12Z</time>
      </trkpt>
      <trkpt lat="44.31295" lon="6.73656">
        <ele>1777.8</ele>
        <time>2022-06-12T08:51:13Z</time>
      </trkpt>
      <trkpt lat="44.31299" lon="6.73647">
        <ele>1777.9</ele>
        <time>2022-06-12T08:51:14Z</time>
      </trkpt>
      <trkpt lat="44.31303" lon="6.73637">
        <ele>1778</ele>
        <time>2022-06-12T08:51:15Z</time>
      </trkpt>
      <trkpt lat="44.31307" lon="6.73628">
        <ele>1778.1</ele>
        <time>2022-06-12T08:51:16Z</time>
      </trkpt>
      <trkpt lat="44.3131" lon="6.73618">
        <ele>1778.3</ele>
        <time>2022-06-12T08:51:17Z</time>
      </trkpt>
      <trkpt lat="44.31314" lon="6.73609">
        <ele>1778.6</ele>
        <time>2022-06-12T08:51:18Z</time>
      </trkpt>
      <trkpt lat="44.31317" lon="6.73601">
        <ele>1778.7</ele>
        <time>2022-06-12T08:51:19Z</time>
      </trkpt>
      <trkpt lat="44.31321" lon="6.73592">
        <ele>1778.8</ele>
        <time>2022-06-12T08:51:20Z</time>
      </trkpt>
      <trkpt lat="44.31325" lon="6.73584">
        <ele>1778.9</ele>
        <time>2022-06-12T08:51:21Z</time>
      </trkpt>
      <trkpt lat="44.31329" lon="6.73575">
        <ele>1778.7</ele>
        <time>2022-06-12T08:51:22Z</time>
      </trkpt>
      <trkpt lat="44.31332" lon="6.73566">
        <ele>1778.5</ele>
        <time>2022-06-12T08:51:23Z</time>
      </trkpt>
      <trkpt lat="44.31337" lon="6.73558">
        <ele>1778.4</ele>
        <time>2022-06-12T08:51:24Z</time>
      </trkpt>
      <trkpt lat="44.31341" lon="6.73549">
        <ele>1778.9</ele>
        <time>2022-06-12T08:51:25Z</time>
      </trkpt>
      <trkpt lat="44.31346" lon="6.7354">
        <ele>1779.4</ele>
        <time>2022-06-12T08:51:26Z</time>
      </trkpt>
      <trkpt lat="44.3135" lon="6.73532">
        <ele>1779.7</ele>
        <time>2022-06-12T08:51:27Z</time>
      </trkpt>
      <trkpt lat="44.31355" lon="6.73524">
        <ele>1780</ele>
        <time>2022-06-12T08:51:28Z</time>
      </trkpt>
      <trkpt lat="44.3136" lon="6.73515">
        <ele>1780.2</ele>
        <time>2022-06-12T08:51:29Z</time>
      </trkpt>
      <trkpt lat="44.31364" lon="6.73507">
        <ele>1780.3</ele>
        <time>2022-06-12T08:51:30Z</time>
      </trkpt>
      <trkpt lat="44.31369" lon="6.73498">
        <ele>1780.1</ele>
        <time>2022-06-12T08:51:31Z</time>
      </trkpt>
      <trkpt lat="44.31373" lon="6.7349">
        <ele>1779.9</ele>
        <time>2022-06-12T08:51:32Z</time>
      </trkpt>
      <trkpt lat="44.31378" lon="6.73482">
        <ele>1779.8</ele>
        <time>2022-06-12T08:51:33Z</time>
      </trkpt>
      <trkpt lat="44.31382" lon="6.73475">
        <ele>1779.8</ele>
        <time>2022-06-12T08:51:34Z</time>
      </trkpt>
      <trkpt lat="44.31387" lon="6.73467">
        <ele>1779.6</ele>
        <time>2022-06-12T08:51:35Z</time>
      </trkpt>
      <trkpt lat="44.31391" lon="6.73459">
        <ele>1779.5</ele>
        <time>2022-06-12T08:51:36Z</time>
      </trkpt>
      <trkpt lat="44.31395" lon="6.73451">
        <ele>1779.5</ele>
        <time>2022-06-12T08:51:37Z</time>
      </trkpt>
      <trkpt lat="44.31399" lon="6.73443">
        <ele>1779.7</ele>
        <time>2022-06-12T08:51:38Z</time>
      </trkpt>
      <trkpt lat="44.31403" lon="6.73435">
        <ele>1779.8</ele>
        <time>2022-06-12T08:51:39Z</time>
      </trkpt>
      <trkpt lat="44.31407" lon="6.73427">
        <ele>1780</ele>
        <time>2022-06-12T08:51:40Z</time>
      </trkpt>
      <trkpt lat="44.3141" lon="6.73419">
        <ele>1780.2</ele>
        <time>2022-06-12T08:51:41Z</time>
      </trkpt>
      <trkpt lat="44.31414" lon="6.73412">
        <ele>1780.1</ele>
        <time>2022-06-12T08:51:42Z</time>
      </trkpt>
      <trkpt lat="44.31418" lon="6.73405">
        <ele>1779.7</ele>
        <time>2022-06-12T08:51:43Z</time>
      </trkpt>
      <trkpt lat="44.31422" lon="6.73398">
        <ele>1779.1</ele>
        <time>2022-06-12T08:51:44Z</time>
      </trkpt>
      <trkpt lat="44.31427" lon="6.73392">
        <ele>1778.7</ele>
        <time>2022-06-12T08:51:45Z</time>
      </trkpt>
      <trkpt lat="44.31431" lon="6.73385">
        <ele>1778.2</ele>
        <time>2022-06-12T08:51:46Z</time>
      </trkpt>
      <trkpt lat="44.31435" lon="6.73379">
        <ele>1778</ele>
        <time>2022-06-12T08:51:47Z</time>
      </trkpt>
      <trkpt lat="44.3144" lon="6.73373">
        <ele>1777.9</ele>
        <time>2022-06-12T08:51:48Z</time>
      </trkpt>
      <trkpt lat="44.31444" lon="6.73366">
        <ele>1777.8</ele>
        <time>2022-06-12T08:51:49Z</time>
      </trkpt>
      <trkpt lat="44.31449" lon="6.73359">
        <ele>1777.5</ele>
        <time>2022-06-12T08:51:50Z</time>
      </trkpt>
      <trkpt lat="44.31454" lon="6.73352">
        <ele>1777.6</ele>
        <time>2022-06-12T08:51:51Z</time>
      </trkpt>
      <trkpt lat="44.31459" lon="6.73345">
        <ele>1777.9</ele>
        <time>2022-06-12T08:51:52Z</time>
      </trkpt>
      <trkpt lat="44.31464" lon="6.73339">
        <ele>1778.1</ele>
        <time>2022-06-12T08:51:53Z</time>
      </trkpt>
      <trkpt lat="44.3147" lon="6.73332">
        <ele>1778.2</ele>
        <time>2022-06-12T08:51:54Z</time>
      </trkpt>
      <trkpt lat="44.31475" lon="6.73324">
        <ele>1778.1</ele>
        <time>2022-06-12T08:51:55Z</time>
      </trkpt>
      <trkpt lat="44.3148" lon="6.73317">
        <ele>1778</ele>
        <time>2022-06-12T08:51:56Z</time>
      </trkpt>
      <trkpt lat="44.31485" lon="6.73309">
        <ele>1777.8</ele>
        <time>2022-06-12T08:51:57Z</time>
      </trkpt>
      <trkpt lat="44.3149" lon="6.73301">
        <ele>1777.3</ele>
        <time>2022-06-12T08:51:58Z</time>
      </trkpt>
      <trkpt lat="44.31495" lon="6.73293">
        <ele>1777.1</ele>
        <time>2022-06-12T08:51:59Z</time>
      </trkpt>
      <trkpt lat="44.31501" lon="6.73285">
        <ele>1777.1</ele>
        <time>2022-06-12T08:52:00Z</time>
      </trkpt>
      <trkpt lat="44.31506" lon="6.73277">
        <ele>1776.8</ele>
        <time>2022-06-12T08:52:01Z</time>
      </trkpt>
      <trkpt lat="44.31511" lon="6.73268">
        <ele>1776.2</ele>
        <time>2022-06-12T08:52:02Z</time>
      </trkpt>
      <trkpt lat="44.31515" lon="6.73258">
        <ele>1775.5</ele>
        <time>2022-06-12T08:52:03Z</time>
      </trkpt>
      <trkpt lat="44.31519" lon="6.73248">
        <ele>1774.9</ele>
        <time>2022-06-12T08:52:04Z</time>
      </trkpt>
      <trkpt lat="44.31524" lon="6.73238">
        <ele>1774.7</ele>
        <time>2022-06-12T08:52:05Z</time>
      </trkpt>
      <trkpt lat="44.31528" lon="6.73228">
        <ele>1774.7</ele>
        <time>2022-06-12T08:52:06Z</time>
      </trkpt>
      <trkpt lat="44.31532" lon="6.73218">
        <ele>1774.3</ele>
        <time>2022-06-12T08:52:07Z</time>
      </trkpt>
      <trkpt lat="44.31536" lon="6.73208">
        <ele>1773.7</ele>
        <time>2022-06-12T08:52:08Z</time>
      </trkpt>
      <trkpt lat="44.3154" lon="6.73198">
        <ele>1773.2</ele>
        <time>2022-06-12T08:52:09Z</time>
      </trkpt>
      <trkpt lat="44.31545" lon="6.73188">
        <ele>1772.8</ele>
        <time>2022-06-12T08:52:10Z</time>
      </trkpt>
      <trkpt lat="44.31549" lon="6.73178">
        <ele>1772.3</ele>
        <time>2022-06-12T08:52:11Z</time>
      </trkpt>
      <trkpt lat="44.31553" lon="6.73168">
        <ele>1771.8</ele>
        <time>2022-06-12T08:52:12Z</time>
      </trkpt>
      <trkpt lat="44.31558" lon="6.73159">
        <ele>1771.3</ele>
        <time>2022-06-12T08:52:13Z</time>
      </trkpt>
      <trkpt lat="44.31562" lon="6.73149">
        <ele>1771</ele>
        <time>2022-06-12T08:52:14Z</time>
      </trkpt>
      <trkpt lat="44.31567" lon="6.73139">
        <ele>1770.8</ele>
        <time>2022-06-12T08:52:15Z</time>
      </trkpt>
      <trkpt lat="44.31572" lon="6.73129">
        <ele>1770.4</ele>
        <time>2022-06-12T08:52:16Z</time>
      </trkpt>
      <trkpt lat="44.31576" lon="6.73119">
        <ele>1770.2</ele>
        <time>2022-06-12T08:52:17Z</time>
      </trkpt>
      <trkpt lat="44.31581" lon="6.7311">
        <ele>1770.2</ele>
        <time>2022-06-12T08:52:18Z</time>
      </trkpt>
      <trkpt lat="44.31587" lon="6.731">
        <ele>1770.6</ele>
        <time>2022-06-12T08:52:19Z</time>
      </trkpt>
      <trkpt lat="44.31592" lon="6.7309">
        <ele>1770.9</ele>
        <time>2022-06-12T08:52:20Z</time>
      </trkpt>
      <trkpt lat="44.31597" lon="6.73081">
        <ele>1771.3</ele>
        <time>2022-06-12T08:52:21Z</time>
      </trkpt>
      <trkpt lat="44.31602" lon="6.73072">
        <ele>1771.7</ele>
        <time>2022-06-12T08:52:22Z</time>
      </trkpt>
      <trkpt lat="44.31608" lon="6.73063">
        <ele>1772</ele>
        <time>2022-06-12T08:52:23Z</time>
      </trkpt>
      <trkpt lat="44.31614" lon="6.73054">
        <ele>1772.2</ele>
        <time>2022-06-12T08:52:24Z</time>
      </trkpt>
      <trkpt lat="44.3162" lon="6.73045">
        <ele>1772.2</ele>
        <time>2022-06-12T08:52:25Z</time>
      </trkpt>
      <trkpt lat="44.31626" lon="6.73036">
        <ele>1772.2</ele>
        <time>2022-06-12T08:52:26Z</time>
      </trkpt>
      <trkpt lat="44.31633" lon="6.73027">
        <ele>1771.9</ele>
        <time>2022-06-12T08:52:27Z</time>
      </trkpt>
      <trkpt lat="44.31639" lon="6.73018">
        <ele>1771</ele>
        <time>2022-06-12T08:52:28Z</time>
      </trkpt>
      <trkpt lat="44.31646" lon="6.73009">
        <ele>1770.2</ele>
        <time>2022-06-12T08:52:29Z</time>
      </trkpt>
      <trkpt lat="44.31653" lon="6.73">
        <ele>1769.6</ele>
        <time>2022-06-12T08:52:30Z</time>
      </trkpt>
      <trkpt lat="44.3166" lon="6.72991">
        <ele>1768.7</ele>
        <time>2022-06-12T08:52:31Z</time>
      </trkpt>
      <trkpt lat="44.31667" lon="6.72982">
        <ele>1768</ele>
        <time>2022-06-12T08:52:32Z</time>
      </trkpt>
      <trkpt lat="44.31673" lon="6.72972">
        <ele>1767.4</ele>
        <time>2022-06-12T08:52:33Z</time>
      </trkpt>
      <trkpt lat="44.3168" lon="6.72963">
        <ele>1767.3</ele>
        <time>2022-06-12T08:52:34Z</time>
      </trkpt>
      <trkpt lat="44.31687" lon="6.72954">
        <ele>1767.1</ele>
        <time>2022-06-12T08:52:35Z</time>
      </trkpt>
      <trkpt lat="44.31694" lon="6.72945">
        <ele>1766.9</ele>
        <time>2022-06-12T08:52:36Z</time>
      </trkpt>
      <trkpt lat="44.31701" lon="6.72935">
        <ele>1766.8</ele>
        <time>2022-06-12T08:52:37Z</time>
      </trkpt>
      <trkpt lat="44.31707" lon="6.72925">
        <ele>1766.6</ele>
        <time>2022-06-12T08:52:38Z</time>
      </trkpt>
      <trkpt lat="44.31713" lon="6.72915">
        <ele>1766.4</ele>
        <time>2022-06-12T08:52:39Z</time>
      </trkpt>
      <trkpt lat="44.31719" lon="6.72904">
        <ele>1766.3</ele>
        <time>2022-06-12T08:52:40Z</time>
      </trkpt>
      <trkpt lat="44.31723" lon="6.72893">
        <ele>1765.8</ele>
        <time>2022-06-12T08:52:41Z</time>
      </trkpt>
      <trkpt lat="44.31728" lon="6.72882">
        <ele>1765.7</ele>
        <time>2022-06-12T08:52:42Z</time>
      </trkpt>
      <trkpt lat="44.31733" lon="6.72871">
        <ele>1765.5</ele>
        <time>2022-06-12T08:52:43Z</time>
      </trkpt>
      <trkpt lat="44.31738" lon="6.7286">
        <ele>1765.2</ele>
        <time>2022-06-12T08:52:44Z</time>
      </trkpt>
      <trkpt lat="44.31744" lon="6.7285">
        <ele>1764.6</ele>
        <time>2022-06-12T08:52:45Z</time>
      </trkpt>
      <trkpt lat="44.3175" lon="6.7284">
        <ele>1764.2</ele>
        <time>2022-06-12T08:52:46Z</time>
      </trkpt>
      <trkpt lat="44.31756" lon="6.7283">
        <ele>1763.7</ele>
        <time>2022-06-12T08:52:47Z</time>
      </trkpt>
      <trkpt lat="44.31762" lon="6.7282">
        <ele>1763.3</ele>
        <time>2022-06-12T08:52:48Z</time>
      </trkpt>
      <trkpt lat="44.31767" lon="6.7281">
        <ele>1762.9</ele>
        <time>2022-06-12T08:52:49Z</time>
      </trkpt>
      <trkpt lat="44.31772" lon="6.72799">
        <ele>1762.6</ele>
        <time>2022-06-12T08:52:50Z</time>
      </trkpt>
      <trkpt lat="44.31776" lon="6.72787">
        <ele>1762.5</ele>
        <time>2022-06-12T08:52:51Z</time>
      </trkpt>
      <trkpt lat="44.3178" lon="6.72776">
        <ele>1762.5</ele>
        <time>2022-06-12T08:52:52Z</time>
      </trkpt>
      <trkpt lat="44.31783" lon="6.72763">
        <ele>1762.5</ele>
        <time>2022-06-12T08:52:53Z</time>
      </trkpt>
      <trkpt lat="44.31784" lon="6.72751">
        <ele>1761.9</ele>
        <time>2022-06-12T08:52:54Z</time>
      </trkpt>
      <trkpt lat="44.31786" lon="6.72739">
        <ele>1761.6</ele>
        <time>2022-06-12T08:52:55Z</time>
      </trkpt>
      <trkpt lat="44.31788" lon="6.72726">
        <ele>1761.3</ele>
        <time>2022-06-12T08:52:56Z</time>
      </trkpt>
      <trkpt lat="44.3179" lon="6.72714">
        <ele>1761.1</ele>
        <time>2022-06-12T08:52:57Z</time>
      </trkpt>
      <trkpt lat="44.31791" lon="6.72701">
        <ele>1760.8</ele>
        <time>2022-06-12T08:52:58Z</time>
      </trkpt>
      <trkpt lat="44.31793" lon="6.72689">
        <ele>1760.3</ele>
        <time>2022-06-12T08:52:59Z</time>
      </trkpt>
      <trkpt lat="44.31796" lon="6.72677">
        <ele>1759.5</ele>
        <time>2022-06-12T08:53:00Z</time>
      </trkpt>
      <trkpt lat="44.31798" lon="6.72665">
        <ele>1758.7</ele>
        <time>2022-06-12T08:53:01Z</time>
      </trkpt>
      <trkpt lat="44.318" lon="6.72652">
        <ele>1758.4</ele>
        <time>2022-06-12T08:53:02Z</time>
      </trkpt>
      <trkpt lat="44.31803" lon="6.7264">
        <ele>1758.1</ele>
        <time>2022-06-12T08:53:03Z</time>
      </trkpt>
      <trkpt lat="44.31806" lon="6.72628">
        <ele>1757.6</ele>
        <time>2022-06-12T08:53:04Z</time>
      </trkpt>
      <trkpt lat="44.31809" lon="6.72616">
        <ele>1757.4</ele>
        <time>2022-06-12T08:53:05Z</time>
      </trkpt>
      <trkpt lat="44.31813" lon="6.72604">
        <ele>1757</ele>
        <time>2022-06-12T08:53:06Z</time>
      </trkpt>
      <trkpt lat="44.31817" lon="6.72592">
        <ele>1756.6</ele>
        <time>2022-06-12T08:53:07Z</time>
      </trkpt>
      <trkpt lat="44.3182" lon="6.7258">
        <ele>1756.2</ele>
        <time>2022-06-12T08:53:08Z</time>
      </trkpt>
      <trkpt lat="44.31824" lon="6.72568">
        <ele>1756.2</ele>
        <time>2022-06-12T08:53:09Z</time>
      </trkpt>
      <trkpt lat="44.31828" lon="6.72557">
        <ele>1756</ele>
        <time>2022-06-12T08:53:10Z</time>
      </trkpt>
      <trkpt lat="44.31832" lon="6.72546">
        <ele>1755.8</ele>
        <time>2022-06-12T08:53:11Z</time>
      </trkpt>
      <trkpt lat="44.31837" lon="6.72535">
        <ele>1755.6</ele>
        <time>2022-06-12T08:53:12Z</time>
      </trkpt>
      <trkpt lat="44.31841" lon="6.72524">
        <ele>1755.5</ele>
        <time>2022-06-12T08:53:13Z</time>
      </trkpt>
      <trkpt lat="44.31846" lon="6.72513">
        <ele>1755.6</ele>
        <time>2022-06-12T08:53:14Z</time>
      </trkpt>
      <trkpt lat="44.3185" lon="6.72502">
        <ele>1755.4</ele>
        <time>2022-06-12T08:53:15Z</time>
      </trkpt>
      <trkpt lat="44.31854" lon="6.72491">
        <ele>1754.8</ele>
        <time>2022-06-12T08:53:16Z</time>
      </trkpt>
      <trkpt lat="44.31857" lon="6.72479">
        <ele>1753.9</ele>
        <time>2022-06-12T08:53:17Z</time>
      </trkpt>
      <trkpt lat="44.3186" lon="6.72468">
        <ele>1753.3</ele>
        <time>2022-06-12T08:53:18Z</time>
      </trkpt>
      <trkpt lat="44.31863" lon="6.72456">
        <ele>1752.9</ele>
        <time>2022-06-12T08:53:19Z</time>
      </trkpt>
      <trkpt lat="44.31865" lon="6.72444">
        <ele>1752.3</ele>
        <time>2022-06-12T08:53:20Z</time>
      </trkpt>
      <trkpt lat="44.31867" lon="6.72431">
        <ele>1751.1</ele>
        <time>2022-06-12T08:53:21Z</time>
      </trkpt>
      <trkpt lat="44.31869" lon="6.72419">
        <ele>1749.8</ele>
        <time>2022-06-12T08:53:22Z</time>
      </trkpt>
      <trkpt lat="44.31871" lon="6.72406">
        <ele>1749</ele>
        <time>2022-06-12T08:53:23Z</time>
      </trkpt>
      <trkpt lat="44.31872" lon="6.72394">
        <ele>1748.5</ele>
        <time>2022-06-12T08:53:24Z</time>
      </trkpt>
      <trkpt lat="44.31875" lon="6.72382">
        <ele>1748.3</ele>
        <time>2022-06-12T08:53:25Z</time>
      </trkpt>
      <trkpt lat="44.31877" lon="6.72371">
        <ele>1748.5</ele>
        <time>2022-06-12T08:53:26Z</time>
      </trkpt>
      <trkpt lat="44.3188" lon="6.7236">
        <ele>1748.7</ele>
        <time>2022-06-12T08:53:27Z</time>
      </trkpt>
      <trkpt lat="44.31885" lon="6.7235">
        <ele>1749.2</ele>
        <time>2022-06-12T08:53:28Z</time>
      </trkpt>
      <trkpt lat="44.3189" lon="6.7234">
        <ele>1750</ele>
        <time>2022-06-12T08:53:29Z</time>
      </trkpt>
      <trkpt lat="44.31896" lon="6.72332">
        <ele>1751.2</ele>
        <time>2022-06-12T08:53:30Z</time>
      </trkpt>
      <trkpt lat="44.31902" lon="6.72326">
        <ele>1752.1</ele>
        <time>2022-06-12T08:53:31Z</time>
      </trkpt>
      <trkpt lat="44.31909" lon="6.7232">
        <ele>1753.1</ele>
        <time>2022-06-12T08:53:32Z</time>
      </trkpt>
      <trkpt lat="44.31916" lon="6.72315">
        <ele>1754</ele>
        <time>2022-06-12T08:53:33Z</time>
      </trkpt>
      <trkpt lat="44.31922" lon="6.72311">
        <ele>1754.7</ele>
        <time>2022-06-12T08:53:34Z</time>
      </trkpt>
      <trkpt lat="44.31928" lon="6.72306">
        <ele>1755</ele>
        <time>2022-06-12T08:53:35Z</time>
      </trkpt>
      <trkpt lat="44.31934" lon="6.723">
        <ele>1755.2</ele>
        <time>2022-06-12T08:53:36Z</time>
      </trkpt>
      <trkpt lat="44.31938" lon="6.72294">
        <ele>1754.9</ele>
        <time>2022-06-12T08:53:37Z</time>
      </trkpt>
      <trkpt lat="44.31941" lon="6.72285">
        <ele>1753.8</ele>
        <time>2022-06-12T08:53:38Z</time>
      </trkpt>
      <trkpt lat="44.31943" lon="6.72276">
        <ele>1752.5</ele>
        <time>2022-06-12T08:53:39Z</time>
      </trkpt>
      <trkpt lat="44.31944" lon="6.72267">
        <ele>1752.1</ele>
        <time>2022-06-12T08:53:40Z</time>
      </trkpt>
      <trkpt lat="44.31945" lon="6.72258">
        <ele>1751.6</ele>
        <time>2022-06-12T08:53:41Z</time>
      </trkpt>
      <trkpt lat="44.31946" lon="6.72249">
        <ele>1751.3</ele>
        <time>2022-06-12T08:53:42Z</time>
      </trkpt>
      <trkpt lat="44.31947" lon="6.7224">
        <ele>1751.3</ele>
        <time>2022-06-12T08:53:43Z</time>
      </trkpt>
      <trkpt lat="44.31948" lon="6.7223">
        <ele>1751.3</ele>
        <time>2022-06-12T08:53:44Z</time>
      </trkpt>
      <trkpt lat="44.3195" lon="6.72221">
        <ele>1751.5</ele>
        <time>2022-06-12T08:53:45Z</time>
      </trkpt>
      <trkpt lat="44.31951" lon="6.72212">
        <ele>1751.8</ele>
        <time>2022-06-12T08:53:46Z</time>
      </trkpt>
      <trkpt lat="44.31952" lon="6.72203">
        <ele>1752.2</ele>
        <time>2022-06-12T08:53:47Z</time>
      </trkpt>
      <trkpt lat="44.31953" lon="6.72194">
        <ele>1752.6</ele>
        <time>2022-06-12T08:53:48Z</time>
      </trkpt>
      <trkpt lat="44.31953" lon="6.72185">
        <ele>1753.1</ele>
        <time>2022-06-12T08:53:49Z</time>
      </trkpt>
      <trkpt lat="44.31954" lon="6.72176">
        <ele>1753.6</ele>
        <time>2022-06-12T08:53:50Z</time>
      </trkpt>
      <trkpt lat="44.31955" lon="6.72167">
        <ele>1754</ele>
        <time>2022-06-12T08:53:51Z</time>
      </trkpt>
      <trkpt lat="44.31956" lon="6.72158">
        <ele>1754.3</ele>
        <time>2022-06-12T08:53:52Z</time>
      </trkpt>
      <trkpt lat="44.31956" lon="6.7215">
        <ele>1754.6</ele>
        <time>2022-06-12T08:53:53Z</time>
      </trkpt>
      <trkpt lat="44.31957" lon="6.72141">
        <ele>1755</ele>
        <time>2022-06-12T08:53:54Z</time>
      </trkpt>
      <trkpt lat="44.31958" lon="6.72132">
        <ele>1755.3</ele>
        <time>2022-06-12T08:53:55Z</time>
      </trkpt>
      <trkpt lat="44.31959" lon="6.72124">
        <ele>1755.6</ele>
        <time>2022-06-12T08:53:56Z</time>
      </trkpt>
      <trkpt lat="44.31959" lon="6.72115">
        <ele>1755.7</ele>
        <time>2022-06-12T08:53:57Z</time>
      </trkpt>
      <trkpt lat="44.31959" lon="6.72107">
        <ele>1756</ele>
        <time>2022-06-12T08:53:58Z</time>
      </trkpt>
      <trkpt lat="44.31959" lon="6.72098">
        <ele>1756.4</ele>
        <time>2022-06-12T08:53:59Z</time>
      </trkpt>
      <trkpt lat="44.31958" lon="6.7209">
        <ele>1756.6</ele>
        <time>2022-06-12T08:54:00Z</time>
      </trkpt>
      <trkpt lat="44.31957" lon="6.72082">
        <ele>1756.7</ele>
        <time>2022-06-12T08:54:01Z</time>
      </trkpt>
      <trkpt lat="44.31956" lon="6.72074">
        <ele>1756.7</ele>
        <time>2022-06-12T08:54:02Z</time>
      </trkpt>
      <trkpt lat="44.31954" lon="6.72067">
        <ele>1756.7</ele>
        <time>2022-06-12T08:54:03Z</time>
      </trkpt>
      <trkpt lat="44.31953" lon="6.7206">
        <ele>1756.6</ele>
        <time>2022-06-12T08:54:04Z</time>
      </trkpt>
      <trkpt lat="44.31951" lon="6.72053">
        <ele>1756.6</ele>
        <time>2022-06-12T08:54:05Z</time>
      </trkpt>
      <trkpt lat="44.3195" lon="6.72046">
        <ele>1756.6</ele>
        <time>2022-06-12T08:54:06Z</time>
      </trkpt>
      <trkpt lat="44.31948" lon="6.72039">
        <ele>1756.4</ele>
        <time>2022-06-12T08:54:07Z</time>
      </trkpt>
      <trkpt lat="44.31946" lon="6.72033">
        <ele>1756.1</ele>
        <time>2022-06-12T08:54:08Z</time>
      </trkpt>
      <trkpt lat="44.31944" lon="6.72027">
        <ele>1756</ele>
        <time>2022-06-12T08:54:09Z</time>
      </trkpt>
      <trkpt lat="44.31943" lon="6.7202">
        <ele>1755.9</ele>
        <time>2022-06-12T08:54:10Z</time>
      </trkpt>
      <trkpt lat="44.31941" lon="6.72014">
        <ele>1755.9</ele>
        <time>2022-06-12T08:54:11Z</time>
      </trkpt>
      <trkpt lat="44.3194" lon="6.72007">
        <ele>1755.9</ele>
        <time>2022-06-12T08:54:12Z</time>
      </trkpt>
      <trkpt lat="44.31939" lon="6.72">
        <ele>1755.8</ele>
        <time>2022-06-12T08:54:13Z</time>
      </trkpt>
      <trkpt lat="44.31938" lon="6.71993">
        <ele>1755.8</ele>
        <time>2022-06-12T08:54:14Z</time>
      </trkpt>
      <trkpt lat="44.31937" lon="6.71986">
        <ele>1755.9</ele>
        <time>2022-06-12T08:54:15Z</time>
      </trkpt>
      <trkpt lat="44.31936" lon="6.7198">
        <ele>1756</ele>
        <time>2022-06-12T08:54:16Z</time>
      </trkpt>
      <trkpt lat="44.31935" lon="6.71972">
        <ele>1755.9</ele>
        <time>2022-06-12T08:54:17Z</time>
      </trkpt>
      <trkpt lat="44.31934" lon="6.71965">
        <ele>1755.6</ele>
        <time>2022-06-12T08:54:18Z</time>
      </trkpt>
      <trkpt lat="44.31933" lon="6.71958">
        <ele>1755.4</ele>
        <time>2022-06-12T08:54:19Z</time>
      </trkpt>
      <trkpt lat="44.31933" lon="6.71951">
        <ele>1755.4</ele>
        <time>2022-06-12T08:54:20Z</time>
      </trkpt>
      <trkpt lat="44.31933" lon="6.71943">
        <ele>1755.5</ele>
        <time>2022-06-12T08:54:21Z</time>
      </trkpt>
      <trkpt lat="44.31933" lon="6.71936">
        <ele>1755.4</ele>
        <time>2022-06-12T08:54:22Z</time>
      </trkpt>
      <trkpt lat="44.31933" lon="6.71929">
        <ele>1755.6</ele>
        <time>2022-06-12T08:54:23Z</time>
      </trkpt>
      <trkpt lat="44.31934" lon="6.71922">
        <ele>1755.9</ele>
        <time>2022-06-12T08:54:24Z</time>
      </trkpt>
      <trkpt lat="44.31935" lon="6.71916">
        <ele>1756.5</ele>
        <time>2022-06-12T08:54:25Z</time>
      </trkpt>
      <trkpt lat="44.31937" lon="6.71909">
        <ele>1756.8</ele>
        <time>2022-06-12T08:54:26Z</time>
      </trkpt>
      <trkpt lat="44.31939" lon="6.71904">
        <ele>1757.4</ele>
        <time>2022-06-12T08:54:27Z</time>
      </trkpt>
      <trkpt lat="44.3194" lon="6.71898">
        <ele>1757.8</ele>
        <time>2022-06-12T08:54:28Z</time>
      </trkpt>
      <trkpt lat="44.31942" lon="6.71892">
        <ele>1757.9</ele>
        <time>2022-06-12T08:54:29Z</time>
      </trkpt>
      <trkpt lat="44.31943" lon="6.71885">
        <ele>1758.1</ele>
        <time>2022-06-12T08:54:30Z</time>
      </trkpt>
      <trkpt lat="44.31944" lon="6.71878">
        <ele>1758.3</ele>
        <time>2022-06-12T08:54:31Z</time>
      </trkpt>
      <trkpt lat="44.31944" lon="6.7187">
        <ele>1758.1</ele>
        <time>2022-06-12T08:54:32Z</time>
      </trkpt>
      <trkpt lat="44.31944" lon="6.71863">
        <ele>1757.6</ele>
        <time>2022-06-12T08:54:33Z</time>
      </trkpt>
      <trkpt lat="44.31943" lon="6.71856">
        <ele>1757.5</ele>
        <time>2022-06-12T08:54:34Z</time>
      </trkpt>
      <trkpt lat="44.31942" lon="6.71849">
        <ele>1757.4</ele>
        <time>2022-06-12T08:54:35Z</time>
      </trkpt>
      <trkpt lat="44.3194" lon="6.71842">
        <ele>1757.2</ele>
        <time>2022-06-12T08:54:36Z</time>
      </trkpt>
      <trkpt lat="44.31939" lon="6.71835">
        <ele>1756.9</ele>
        <time>2022-06-12T08:54:37Z</time>
      </trkpt>
      <trkpt lat="44.31937" lon="6.71828">
        <ele>1756.6</ele>
        <time>2022-06-12T08:54:38Z</time>
      </trkpt>
      <trkpt lat="44.31936" lon="6.71822">
        <ele>1756.5</ele>
        <time>2022-06-12T08:54:39Z</time>
      </trkpt>
      <trkpt lat="44.31934" lon="6.71815">
        <ele>1756.3</ele>
        <time>2022-06-12T08:54:40Z</time>
      </trkpt>
      <trkpt lat="44.31933" lon="6.71808">
        <ele>1756.3</ele>
        <time>2022-06-12T08:54:41Z</time>
      </trkpt>
      <trkpt lat="44.31932" lon="6.71801">
        <ele>1756.1</ele>
        <time>2022-06-12T08:54:42Z</time>
      </trkpt>
      <trkpt lat="44.31931" lon="6.71793">
        <ele>1755.9</ele>
        <time>2022-06-12T08:54:43Z</time>
      </trkpt>
      <trkpt lat="44.31929" lon="6.71786">
        <ele>1755.6</ele>
        <time>2022-06-12T08:54:44Z</time>
      </trkpt>
      <trkpt lat="44.31928" lon="6.71778">
        <ele>1755.5</ele>
        <time>2022-06-12T08:54:45Z</time>
      </trkpt>
      <trkpt lat="44.31928" lon="6.71771">
        <ele>1755.2</ele>
        <time>2022-06-12T08:54:46Z</time>
      </trkpt>
      <trkpt lat="44.31927" lon="6.71763">
        <ele>1755.1</ele>
        <time>2022-06-12T08:54:47Z</time>
      </trkpt>
      <trkpt lat="44.31927" lon="6.71755">
        <ele>1755</ele>
        <time>2022-06-12T08:54:48Z</time>
      </trkpt>
      <trkpt lat="44.31927" lon="6.71747">
        <ele>1754.9</ele>
        <time>2022-06-12T08:54:49Z</time>
      </trkpt>
      <trkpt lat="44.31927" lon="6.71739">
        <ele>1754.4</ele>
        <time>2022-06-12T08:54:50Z</time>
      </trkpt>
      <trkpt lat="44.31927" lon="6.7173">
        <ele>1754.1</ele>
        <time>2022-06-12T08:54:51Z</time>
      </trkpt>
      <trkpt lat="44.31928" lon="6.71722">
        <ele>1753.9</ele>
        <time>2022-06-12T08:54:52Z</time>
      </trkpt>
      <trkpt lat="44.31929" lon="6.71713">
        <ele>1753.1</ele>
        <time>2022-06-12T08:54:53Z</time>
      </trkpt>
      <trkpt lat="44.3193" lon="6.71705">
        <ele>1752.9</ele>
        <time>2022-06-12T08:54:54Z</time>
      </trkpt>
      <trkpt lat="44.31933" lon="6.71697">
        <ele>1753</ele>
        <time>2022-06-12T08:54:55Z</time>
      </trkpt>
      <trkpt lat="44.31936" lon="6.7169">
        <ele>1753.2</ele>
        <time>2022-06-12T08:54:56Z</time>
      </trkpt>
      <trkpt lat="44.31939" lon="6.71682">
        <ele>1753.2</ele>
        <time>2022-06-12T08:54:57Z</time>
      </trkpt>
      <trkpt lat="44.31943" lon="6.71674">
        <ele>1753.7</ele>
        <time>2022-06-12T08:54:58Z</time>
      </trkpt>
      <trkpt lat="44.31947" lon="6.71667">
        <ele>1754.5</ele>
        <time>2022-06-12T08:54:59Z</time>
      </trkpt>
      <trkpt lat="44.31951" lon="6.71659">
        <ele>1754.4</ele>
        <time>2022-06-12T08:55:00Z</time>
      </trkpt>
      <trkpt lat="44.31956" lon="6.71651">
        <ele>1754.4</ele>
        <time>2022-06-12T08:55:01Z</time>
      </trkpt>
      <trkpt lat="44.3196" lon="6.71642">
        <ele>1754.3</ele>
        <time>2022-06-12T08:55:02Z</time>
      </trkpt>
      <trkpt lat="44.31964" lon="6.71633">
        <ele>1753.8</ele>
        <time>2022-06-12T08:55:03Z</time>
      </trkpt>
      <trkpt lat="44.31967" lon="6.71623">
        <ele>1752.8</ele>
        <time>2022-06-12T08:55:04Z</time>
      </trkpt>
      <trkpt lat="44.31971" lon="6.71613">
        <ele>1751.5</ele>
        <time>2022-06-12T08:55:05Z</time>
      </trkpt>
      <trkpt lat="44.31974" lon="6.71603">
        <ele>1750.6</ele>
        <time>2022-06-12T08:55:06Z</time>
      </trkpt>
      <trkpt lat="44.31977" lon="6.71592">
        <ele>1749.4</ele>
        <time>2022-06-12T08:55:07Z</time>
      </trkpt>
      <trkpt lat="44.3198" lon="6.71581">
        <ele>1748.2</ele>
        <time>2022-06-12T08:55:08Z</time>
      </trkpt>
      <trkpt lat="44.31984" lon="6.71572">
        <ele>1747.3</ele>
        <time>2022-06-12T08:55:09Z</time>
      </trkpt>
      <trkpt lat="44.31989" lon="6.71564">
        <ele>1746.6</ele>
        <time>2022-06-12T08:55:10Z</time>
      </trkpt>
      <trkpt lat="44.31996" lon="6.71559">
        <ele>1746.7</ele>
        <time>2022-06-12T08:55:11Z</time>
      </trkpt>
      <trkpt lat="44.32004" lon="6.71558">
        <ele>1747.1</ele>
        <time>2022-06-12T08:55:12Z</time>
      </trkpt>
      <trkpt lat="44.32011" lon="6.71557">
        <ele>1747</ele>
        <time>2022-06-12T08:55:13Z</time>
      </trkpt>
      <trkpt lat="44.32018" lon="6.71554">
        <ele>1746.4</ele>
        <time>2022-06-12T08:55:14Z</time>
      </trkpt>
      <trkpt lat="44.32023" lon="6.71547">
        <ele>1746</ele>
        <time>2022-06-12T08:55:15Z</time>
      </trkpt>
      <trkpt lat="44.32027" lon="6.71538">
        <ele>1745.6</ele>
        <time>2022-06-12T08:55:16Z</time>
      </trkpt>
      <trkpt lat="44.32029" lon="6.71528">
        <ele>1745.5</ele>
        <time>2022-06-12T08:55:17Z</time>
      </trkpt>
      <trkpt lat="44.32028" lon="6.71518">
        <ele>1745.5</ele>
        <time>2022-06-12T08:55:18Z</time>
      </trkpt>
      <trkpt lat="44.32025" lon="6.71509">
        <ele>1744.9</ele>
        <time>2022-06-12T08:55:19Z</time>
      </trkpt>
      <trkpt lat="44.32021" lon="6.715">
        <ele>1743.1</ele>
        <time>2022-06-12T08:55:20Z</time>
      </trkpt>
      <trkpt lat="44.32016" lon="6.71491">
        <ele>1741.7</ele>
        <time>2022-06-12T08:55:21Z</time>
      </trkpt>
      <trkpt lat="44.32012" lon="6.71481">
        <ele>1741</ele>
        <time>2022-06-12T08:55:22Z</time>
      </trkpt>
      <trkpt lat="44.32011" lon="6.71469">
        <ele>1740.9</ele>
        <time>2022-06-12T08:55:23Z</time>
      </trkpt>
      <trkpt lat="44.32012" lon="6.71457">
        <ele>1740.6</ele>
        <time>2022-06-12T08:55:24Z</time>
      </trkpt>
      <trkpt lat="44.32015" lon="6.71447">
        <ele>1740.8</ele>
        <time>2022-06-12T08:55:25Z</time>
      </trkpt>
      <trkpt lat="44.3202" lon="6.71437">
        <ele>1740.7</ele>
        <time>2022-06-12T08:55:26Z</time>
      </trkpt>
      <trkpt lat="44.32026" lon="6.71427">
        <ele>1740.6</ele>
        <time>2022-06-12T08:55:27Z</time>
      </trkpt>
      <trkpt lat="44.3203" lon="6.71416">
        <ele>1740.5</ele>
        <time>2022-06-12T08:55:28Z</time>
      </trkpt>
      <trkpt lat="44.32034" lon="6.71403">
        <ele>1739.5</ele>
        <time>2022-06-12T08:55:29Z</time>
      </trkpt>
      <trkpt lat="44.32037" lon="6.71391">
        <ele>1738.5</ele>
        <time>2022-06-12T08:55:30Z</time>
      </trkpt>
      <trkpt lat="44.3204" lon="6.71379">
        <ele>1738.7</ele>
        <time>2022-06-12T08:55:31Z</time>
      </trkpt>
      <trkpt lat="44.32043" lon="6.71366">
        <ele>1738.9</ele>
        <time>2022-06-12T08:55:32Z</time>
      </trkpt>
      <trkpt lat="44.32045" lon="6.71353">
        <ele>1738.5</ele>
        <time>2022-06-12T08:55:33Z</time>
      </trkpt>
      <trkpt lat="44.32047" lon="6.7134">
        <ele>1738</ele>
        <time>2022-06-12T08:55:34Z</time>
      </trkpt>
      <trkpt lat="44.32048" lon="6.71326">
        <ele>1737.3</ele>
        <time>2022-06-12T08:55:35Z</time>
      </trkpt>
      <trkpt lat="44.3205" lon="6.71312">
        <ele>1736.5</ele>
        <time>2022-06-12T08:55:36Z</time>
      </trkpt>
      <trkpt lat="44.32053" lon="6.71299">
        <ele>1735.9</ele>
        <time>2022-06-12T08:55:37Z</time>
      </trkpt>
      <trkpt lat="44.32057" lon="6.71285">
        <ele>1735.6</ele>
        <time>2022-06-12T08:55:38Z</time>
      </trkpt>
      <trkpt lat="44.32062" lon="6.71273">
        <ele>1735</ele>
        <time>2022-06-12T08:55:39Z</time>
      </trkpt>
      <trkpt lat="44.32067" lon="6.71262">
        <ele>1734.4</ele>
        <time>2022-06-12T08:55:40Z</time>
      </trkpt>
      <trkpt lat="44.32073" lon="6.71251">
        <ele>1734.2</ele>
        <time>2022-06-12T08:55:41Z</time>
      </trkpt>
      <trkpt lat="44.3208" lon="6.7124">
        <ele>1734.1</ele>
        <time>2022-06-12T08:55:42Z</time>
      </trkpt>
      <trkpt lat="44.32086" lon="6.7123">
        <ele>1733.9</ele>
        <time>2022-06-12T08:55:43Z</time>
      </trkpt>
      <trkpt lat="44.32092" lon="6.7122">
        <ele>1733.9</ele>
        <time>2022-06-12T08:55:44Z</time>
      </trkpt>
      <trkpt lat="44.32098" lon="6.71209">
        <ele>1734.4</ele>
        <time>2022-06-12T08:55:45Z</time>
      </trkpt>
      <trkpt lat="44.32103" lon="6.71198">
        <ele>1734.5</ele>
        <time>2022-06-12T08:55:46Z</time>
      </trkpt>
      <trkpt lat="44.32106" lon="6.71187">
        <ele>1734.2</ele>
        <time>2022-06-12T08:55:47Z</time>
      </trkpt>
      <trkpt lat="44.32107" lon="6.71175">
        <ele>1733.6</ele>
        <time>2022-06-12T08:55:48Z</time>
      </trkpt>
      <trkpt lat="44.32108" lon="6.71164">
        <ele>1732.8</ele>
        <time>2022-06-12T08:55:49Z</time>
      </trkpt>
      <trkpt lat="44.32108" lon="6.71152">
        <ele>1732.3</ele>
        <time>2022-06-12T08:55:50Z</time>
      </trkpt>
      <trkpt lat="44.32108" lon="6.71141">
        <ele>1731.9</ele>
        <time>2022-06-12T08:55:51Z</time>
      </trkpt>
      <trkpt lat="44.3211" lon="6.71131">
        <ele>1732.1</ele>
        <time>2022-06-12T08:55:52Z</time>
      </trkpt>
      <trkpt lat="44.32113" lon="6.71121">
        <ele>1732.9</ele>
        <time>2022-06-12T08:55:53Z</time>
      </trkpt>
      <trkpt lat="44.32116" lon="6.71112">
        <ele>1733.8</ele>
        <time>2022-06-12T08:55:54Z</time>
      </trkpt>
      <trkpt lat="44.3212" lon="6.71104">
        <ele>1734.3</ele>
        <time>2022-06-12T08:55:55Z</time>
      </trkpt>
      <trkpt lat="44.32124" lon="6.71095">
        <ele>1734.6</ele>
        <time>2022-06-12T08:55:56Z</time>
      </trkpt>
      <trkpt lat="44.32128" lon="6.71086">
        <ele>1734.9</ele>
        <time>2022-06-12T08:55:57Z</time>
      </trkpt>
      <trkpt lat="44.32132" lon="6.71077">
        <ele>1735.2</ele>
        <time>2022-06-12T08:55:58Z</time>
      </trkpt>
      <trkpt lat="44.32135" lon="6.71068">
        <ele>1735.3</ele>
        <time>2022-06-12T08:55:59Z</time>
      </trkpt>
      <trkpt lat="44.32139" lon="6.71059">
        <ele>1735.3</ele>
        <time>2022-06-12T08:56:00Z</time>
      </trkpt>
      <trkpt lat="44.32141" lon="6.71049">
        <ele>1735.2</ele>
        <time>2022-06-12T08:56:01Z</time>
      </trkpt>
      <trkpt lat="44.32142" lon="6.71038">
        <ele>1734.9</ele>
        <time>2022-06-12T08:56:02Z</time>
      </trkpt>
      <trkpt lat="44.32143" lon="6.71028">
        <ele>1734.6</ele>
        <time>2022-06-12T08:56:03Z</time>
      </trkpt>
      <trkpt lat="44.32144" lon="6.71018">
        <ele>1734.6</ele>
        <time>2022-06-12T08:56:04Z</time>
      </trkpt>
      <trkpt lat="44.32145" lon="6.71008">
        <ele>1734.4</ele>
        <time>2022-06-12T08:56:05Z</time>
      </trkpt>
      <trkpt lat="44.32145" lon="6.70999">
        <ele>1734.1</ele>
        <time>2022-06-12T08:56:06Z</time>
      </trkpt>
      <trkpt lat="44.32147" lon="6.70989">
        <ele>1733.4</ele>
        <time>2022-06-12T08:56:07Z</time>
      </trkpt>
      <trkpt lat="44.3215" lon="6.7098">
        <ele>1733.1</ele>
        <time>2022-06-12T08:56:08Z</time>
      </trkpt>
      <trkpt lat="44.32154" lon="6.70971">
        <ele>1733.1</ele>
        <time>2022-06-12T08:56:09Z</time>
      </trkpt>
      <trkpt lat="44.3216" lon="6.70965">
        <ele>1733.1</ele>
        <time>2022-06-12T08:56:10Z</time>
      </trkpt>
      <trkpt lat="44.32166" lon="6.7096">
        <ele>1733.7</ele>
        <time>2022-06-12T08:56:11Z</time>
      </trkpt>
      <trkpt lat="44.32172" lon="6.70956">
        <ele>1735</ele>
        <time>2022-06-12T08:56:12Z</time>
      </trkpt>
      <trkpt lat="44.32178" lon="6.70952">
        <ele>1736</ele>
        <time>2022-06-12T08:56:13Z</time>
      </trkpt>
      <trkpt lat="44.32184" lon="6.70947">
        <ele>1736.8</ele>
        <time>2022-06-12T08:56:14Z</time>
      </trkpt>
      <trkpt lat="44.32189" lon="6.70941">
        <ele>1737</ele>
        <time>2022-06-12T08:56:15Z</time>
      </trkpt>
      <trkpt lat="44.32192" lon="6.70933">
        <ele>1736.1</ele>
        <time>2022-06-12T08:56:16Z</time>
      </trkpt>
      <trkpt lat="44.32193" lon="6.70924">
        <ele>1734.3</ele>
        <time>2022-06-12T08:56:17Z</time>
      </trkpt>
      <trkpt lat="44.32193" lon="6.70915">
        <ele>1732.2</ele>
        <time>2022-06-12T08:56:18Z</time>
      </trkpt>
      <trkpt lat="44.3219" lon="6.70907">
        <ele>1731.3</ele>
        <time>2022-06-12T08:56:19Z</time>
      </trkpt>
      <trkpt lat="44.32186" lon="6.709">
        <ele>1729.7</ele>
        <time>2022-06-12T08:56:20Z</time>
      </trkpt>
      <trkpt lat="44.32181" lon="6.70894">
        <ele>1727.6</ele>
        <time>2022-06-12T08:56:21Z</time>
      </trkpt>
      <trkpt lat="44.32175" lon="6.70888">
        <ele>1725.6</ele>
        <time>2022-06-12T08:56:22Z</time>
      </trkpt>
      <trkpt lat="44.3217" lon="6.70881">
        <ele>1724.8</ele>
        <time>2022-06-12T08:56:23Z</time>
      </trkpt>
      <trkpt lat="44.32165" lon="6.70872">
        <ele>1724.3</ele>
        <time>2022-06-12T08:56:24Z</time>
      </trkpt>
      <trkpt lat="44.32162" lon="6.70862">
        <ele>1724.7</ele>
        <time>2022-06-12T08:56:25Z</time>
      </trkpt>
      <trkpt lat="44.3216" lon="6.70849">
        <ele>1725.9</ele>
        <time>2022-06-12T08:56:26Z</time>
      </trkpt>
      <trkpt lat="44.3216" lon="6.70837">
        <ele>1727.3</ele>
        <time>2022-06-12T08:56:27Z</time>
      </trkpt>
      <trkpt lat="44.32159" lon="6.70825">
        <ele>1727.8</ele>
        <time>2022-06-12T08:56:28Z</time>
      </trkpt>
      <trkpt lat="44.32157" lon="6.70812">
        <ele>1727.5</ele>
        <time>2022-06-12T08:56:29Z</time>
      </trkpt>
      <trkpt lat="44.32154" lon="6.708">
        <ele>1726.8</ele>
        <time>2022-06-12T08:56:30Z</time>
      </trkpt>
      <trkpt lat="44.3215" lon="6.70787">
        <ele>1726.2</ele>
        <time>2022-06-12T08:56:31Z</time>
      </trkpt>
      <trkpt lat="44.32145" lon="6.70775">
        <ele>1725.2</ele>
        <time>2022-06-12T08:56:32Z</time>
      </trkpt>
      <trkpt lat="44.32141" lon="6.70763">
        <ele>1724</ele>
        <time>2022-06-12T08:56:33Z</time>
      </trkpt>
      <trkpt lat="44.32138" lon="6.70749">
        <ele>1723.1</ele>
        <time>2022-06-12T08:56:34Z</time>
      </trkpt>
      <trkpt lat="44.32136" lon="6.70735">
        <ele>1722.9</ele>
        <time>2022-06-12T08:56:35Z</time>
      </trkpt>
      <trkpt lat="44.32135" lon="6.7072">
        <ele>1722.8</ele>
        <time>2022-06-12T08:56:36Z</time>
      </trkpt>
      <trkpt lat="44.32134" lon="6.70705">
        <ele>1721.6</ele>
        <time>2022-06-12T08:56:37Z</time>
      </trkpt>
      <trkpt lat="44.32134" lon="6.7069">
        <ele>1720.7</ele>
        <time>2022-06-12T08:56:38Z</time>
      </trkpt>
      <trkpt lat="44.32134" lon="6.70674">
        <ele>1719.6</ele>
        <time>2022-06-12T08:56:39Z</time>
      </trkpt>
      <trkpt lat="44.32134" lon="6.70658">
        <ele>1719.1</ele>
        <time>2022-06-12T08:56:40Z</time>
      </trkpt>
      <trkpt lat="44.32135" lon="6.70642">
        <ele>1718.6</ele>
        <time>2022-06-12T08:56:41Z</time>
      </trkpt>
      <trkpt lat="44.32136" lon="6.70625">
        <ele>1717.6</ele>
        <time>2022-06-12T08:56:42Z</time>
      </trkpt>
      <trkpt lat="44.32137" lon="6.70609">
        <ele>1716.4</ele>
        <time>2022-06-12T08:56:43Z</time>
      </trkpt>
      <trkpt lat="44.32137" lon="6.70592">
        <ele>1715.5</ele>
        <time>2022-06-12T08:56:44Z</time>
      </trkpt>
      <trkpt lat="44.32138" lon="6.70576">
        <ele>1714.7</ele>
        <time>2022-06-12T08:56:45Z</time>
      </trkpt>
      <trkpt lat="44.32138" lon="6.70559">
        <ele>1713.8</ele>
        <time>2022-06-12T08:56:46Z</time>
      </trkpt>
      <trkpt lat="44.32139" lon="6.70544">
        <ele>1713.1</ele>
        <time>2022-06-12T08:56:47Z</time>
      </trkpt>
      <trkpt lat="44.32139" lon="6.70529">
        <ele>1711.9</ele>
        <time>2022-06-12T08:56:48Z</time>
      </trkpt>
      <trkpt lat="44.32137" lon="6.70515">
        <ele>1710.7</ele>
        <time>2022-06-12T08:56:49Z</time>
      </trkpt>
      <trkpt lat="44.32135" lon="6.70501">
        <ele>1709.4</ele>
        <time>2022-06-12T08:56:50Z</time>
      </trkpt>
      <trkpt lat="44.32135" lon="6.70486">
        <ele>1708.3</ele>
        <time>2022-06-12T08:56:51Z</time>
      </trkpt>
      <trkpt lat="44.32136" lon="6.70472">
        <ele>1707.9</ele>
        <time>2022-06-12T08:56:52Z</time>
      </trkpt>
      <trkpt lat="44.32139" lon="6.70457">
        <ele>1706.7</ele>
        <time>2022-06-12T08:56:53Z</time>
      </trkpt>
      <trkpt lat="44.32141" lon="6.70442">
        <ele>1705.3</ele>
        <time>2022-06-12T08:56:54Z</time>
      </trkpt>
      <trkpt lat="44.32143" lon="6.70428">
        <ele>1704.1</ele>
        <time>2022-06-12T08:56:55Z</time>
      </trkpt>
      <trkpt lat="44.32147" lon="6.70415">
        <ele>1703.2</ele>
        <time>2022-06-12T08:56:56Z</time>
      </trkpt>
      <trkpt lat="44.32151" lon="6.70404">
        <ele>1702.8</ele>
        <time>2022-06-12T08:56:57Z</time>
      </trkpt>
      <trkpt lat="44.32158" lon="6.70396">
        <ele>1703</ele>
        <time>2022-06-12T08:56:58Z</time>
      </trkpt>
      <trkpt lat="44.32166" lon="6.7039">
        <ele>1704</ele>
        <time>2022-06-12T08:56:59Z</time>
      </trkpt>
      <trkpt lat="44.32174" lon="6.70385">
        <ele>1704.8</ele>
        <time>2022-06-12T08:57:00Z</time>
      </trkpt>
      <trkpt lat="44.32181" lon="6.70379">
        <ele>1705.1</ele>
        <time>2022-06-12T08:57:01Z</time>
      </trkpt>
      <trkpt lat="44.32186" lon="6.70371">
        <ele>1704.5</ele>
        <time>2022-06-12T08:57:02Z</time>
      </trkpt>
      <trkpt lat="44.3219" lon="6.70361">
        <ele>1702.7</ele>
        <time>2022-06-12T08:57:03Z</time>
      </trkpt>
      <trkpt lat="44.32192" lon="6.70349">
        <ele>1701.2</ele>
        <time>2022-06-12T08:57:04Z</time>
      </trkpt>
      <trkpt lat="44.32194" lon="6.70337">
        <ele>1699.5</ele>
        <time>2022-06-12T08:57:05Z</time>
      </trkpt>
      <trkpt lat="44.32197" lon="6.70325">
        <ele>1699</ele>
        <time>2022-06-12T08:57:06Z</time>
      </trkpt>
      <trkpt lat="44.322" lon="6.70312">
        <ele>1699.2</ele>
        <time>2022-06-12T08:57:07Z</time>
      </trkpt>
      <trkpt lat="44.32203" lon="6.703">
        <ele>1699.4</ele>
        <time>2022-06-12T08:57:08Z</time>
      </trkpt>
      <trkpt lat="44.32205" lon="6.70286">
        <ele>1699.2</ele>
        <time>2022-06-12T08:57:09Z</time>
      </trkpt>
      <trkpt lat="44.32206" lon="6.70272">
        <ele>1698.6</ele>
        <time>2022-06-12T08:57:10Z</time>
      </trkpt>
      <trkpt lat="44.32206" lon="6.70258">
        <ele>1698</ele>
        <time>2022-06-12T08:57:11Z</time>
      </trkpt>
      <trkpt lat="44.32205" lon="6.70243">
        <ele>1697.3</ele>
        <time>2022-06-12T08:57:12Z</time>
      </trkpt>
      <trkpt lat="44.32204" lon="6.70229">
        <ele>1696.7</ele>
        <time>2022-06-12T08:57:13Z</time>
      </trkpt>
      <trkpt lat="44.32203" lon="6.70214">
        <ele>1696</ele>
        <time>2022-06-12T08:57:14Z</time>
      </trkpt>
      <trkpt lat="44.32203" lon="6.702">
        <ele>1695.5</ele>
        <time>2022-06-12T08:57:15Z</time>
      </trkpt>
      <trkpt lat="44.32202" lon="6.70186">
        <ele>1695</ele>
        <time>2022-06-12T08:57:16Z</time>
      </trkpt>
      <trkpt lat="44.322" lon="6.70172">
        <ele>1694</ele>
        <time>2022-06-12T08:57:17Z</time>
      </trkpt>
      <trkpt lat="44.32198" lon="6.70159">
        <ele>1692.9</ele>
        <time>2022-06-12T08:57:18Z</time>
      </trkpt>
      <trkpt lat="44.32195" lon="6.70146">
        <ele>1692</ele>
        <time>2022-06-12T08:57:19Z</time>
      </trkpt>
      <trkpt lat="44.32192" lon="6.70133">
        <ele>1691.4</ele>
        <time>2022-06-12T08:57:20Z</time>
      </trkpt>
      <trkpt lat="44.32189" lon="6.70119">
        <ele>1691.2</ele>
        <time>2022-06-12T08:57:21Z</time>
      </trkpt>
      <trkpt lat="44.32186" lon="6.70106">
        <ele>1690.7</ele>
        <time>2022-06-12T08:57:22Z</time>
      </trkpt>
      <trkpt lat="44.32182" lon="6.70093">
        <ele>1689.9</ele>
        <time>2022-06-12T08:57:23Z</time>
      </trkpt>
      <trkpt lat="44.32178" lon="6.70079">
        <ele>1689</ele>
        <time>2022-06-12T08:57:24Z</time>
      </trkpt>
      <trkpt lat="44.32175" lon="6.70066">
        <ele>1688.6</ele>
        <time>2022-06-12T08:57:25Z</time>
      </trkpt>
      <trkpt lat="44.32172" lon="6.70052">
        <ele>1688.4</ele>
        <time>2022-06-12T08:57:26Z</time>
      </trkpt>
      <trkpt lat="44.3217" lon="6.70038">
        <ele>1688</ele>
        <time>2022-06-12T08:57:27Z</time>
      </trkpt>
      <trkpt lat="44.32167" lon="6.70025">
        <ele>1687.4</ele>
        <time>2022-06-12T08:57:28Z</time>
      </trkpt>
      <trkpt lat="44.32163" lon="6.70012">
        <ele>1687.1</ele>
        <time>2022-06-12T08:57:29Z</time>
      </trkpt>
      <trkpt lat="44.32159" lon="6.69999">
        <ele>1686.5</ele>
        <time>2022-06-12T08:57:30Z</time>
      </trkpt>
      <trkpt lat="44.32156" lon="6.69986">
        <ele>1686.1</ele>
        <time>2022-06-12T08:57:31Z</time>
      </trkpt>
      <trkpt lat="44.32154" lon="6.69972">
        <ele>1686.3</ele>
        <time>2022-06-12T08:57:32Z</time>
      </trkpt>
      <trkpt lat="44.32152" lon="6.69959">
        <ele>1686.6</ele>
        <time>2022-06-12T08:57:33Z</time>
      </trkpt>
      <trkpt lat="44.3215" lon="6.69945">
        <ele>1686.8</ele>
        <time>2022-06-12T08:57:34Z</time>
      </trkpt>
      <trkpt lat="44.32148" lon="6.69932">
        <ele>1686.7</ele>
        <time>2022-06-12T08:57:35Z</time>
      </trkpt>
      <trkpt lat="44.32145" lon="6.69919">
        <ele>1686.3</ele>
        <time>2022-06-12T08:57:36Z</time>
      </trkpt>
      <trkpt lat="44.32142" lon="6.69906">
        <ele>1686.1</ele>
        <time>2022-06-12T08:57:37Z</time>
      </trkpt>
      <trkpt lat="44.32139" lon="6.69893">
        <ele>1685.5</ele>
        <time>2022-06-12T08:57:38Z</time>
      </trkpt>
      <trkpt lat="44.32136" lon="6.69881">
        <ele>1685</ele>
        <time>2022-06-12T08:57:39Z</time>
      </trkpt>
      <trkpt lat="44.32133" lon="6.69867">
        <ele>1684.8</ele>
        <time>2022-06-12T08:57:40Z</time>
      </trkpt>
      <trkpt lat="44.3213" lon="6.69854">
        <ele>1684.7</ele>
        <time>2022-06-12T08:57:41Z</time>
      </trkpt>
      <trkpt lat="44.32128" lon="6.69841">
        <ele>1684.4</ele>
        <time>2022-06-12T08:57:42Z</time>
      </trkpt>
      <trkpt lat="44.32126" lon="6.69827">
        <ele>1683.9</ele>
        <time>2022-06-12T08:57:43Z</time>
      </trkpt>
      <trkpt lat="44.32124" lon="6.69814">
        <ele>1682.9</ele>
        <time>2022-06-12T08:57:44Z</time>
      </trkpt>
      <trkpt lat="44.32122" lon="6.698">
        <ele>1681.9</ele>
        <time>2022-06-12T08:57:45Z</time>
      </trkpt>
      <trkpt lat="44.32119" lon="6.69787">
        <ele>1680.8</ele>
        <time>2022-06-12T08:57:46Z</time>
      </trkpt>
      <trkpt lat="44.32117" lon="6.69773">
        <ele>1679.8</ele>
        <time>2022-06-12T08:57:47Z</time>
      </trkpt>
      <trkpt lat="44.32114" lon="6.6976">
        <ele>1679.2</ele>
        <time>2022-06-12T08:57:48Z</time>
      </trkpt>
      <trkpt lat="44.32112" lon="6.69747">
        <ele>1678.4</ele>
        <time>2022-06-12T08:57:49Z</time>
      </trkpt>
      <trkpt lat="44.32109" lon="6.69733">
        <ele>1677.4</ele>
        <time>2022-06-12T08:57:50Z</time>
      </trkpt>
      <trkpt lat="44.32106" lon="6.6972">
        <ele>1676.4</ele>
        <time>2022-06-12T08:57:51Z</time>
      </trkpt>
      <trkpt lat="44.32101" lon="6.69708">
        <ele>1675.3</ele>
        <time>2022-06-12T08:57:52Z</time>
      </trkpt>
      <trkpt lat="44.32096" lon="6.69697">
        <ele>1673.3</ele>
        <time>2022-06-12T08:57:53Z</time>
      </trkpt>
      <trkpt lat="44.32089" lon="6.69687">
        <ele>1671</ele>
        <time>2022-06-12T08:57:54Z</time>
      </trkpt>
      <trkpt lat="44.32082" lon="6.69678">
        <ele>1668.6</ele>
        <time>2022-06-12T08:57:55Z</time>
      </trkpt>
      <trkpt lat="44.32074" lon="6.69668">
        <ele>1666.6</ele>
        <time>2022-06-12T08:57:56Z</time>
      </trkpt>
      <trkpt lat="44.32068" lon="6.69657">
        <ele>1665.1</ele>
        <time>2022-06-12T08:57:57Z</time>
      </trkpt>
      <trkpt lat="44.32063" lon="6.69645">
        <ele>1664.7</ele>
        <time>2022-06-12T08:57:58Z</time>
      </trkpt>
      <trkpt lat="44.3206" lon="6.69632">
        <ele>1665.3</ele>
        <time>2022-06-12T08:57:59Z</time>
      </trkpt>
      <trkpt lat="44.32057" lon="6.69618">
        <ele>1666.5</ele>
        <time>2022-06-12T08:58:00Z</time>
      </trkpt>
      <trkpt lat="44.32055" lon="6.69604">
        <ele>1668</ele>
        <time>2022-06-12T08:58:01Z</time>
      </trkpt>
      <trkpt lat="44.32051" lon="6.69591">
        <ele>1669.4</ele>
        <time>2022-06-12T08:58:02Z</time>
      </trkpt>
      <trkpt lat="44.32047" lon="6.69578">
        <ele>1670.7</ele>
        <time>2022-06-12T08:58:03Z</time>
      </trkpt>
      <trkpt lat="44.32041" lon="6.69567">
        <ele>1671.1</ele>
        <time>2022-06-12T08:58:04Z</time>
      </trkpt>
      <trkpt lat="44.32034" lon="6.69558">
        <ele>1670.3</ele>
        <time>2022-06-12T08:58:05Z</time>
      </trkpt>
      <trkpt lat="44.32026" lon="6.69549">
        <ele>1669.3</ele>
        <time>2022-06-12T08:58:06Z</time>
      </trkpt>
      <trkpt lat="44.32018" lon="6.6954">
        <ele>1668.5</ele>
        <time>2022-06-12T08:58:07Z</time>
      </trkpt>
      <trkpt lat="44.32009" lon="6.69532">
        <ele>1667.8</ele>
        <time>2022-06-12T08:58:08Z</time>
      </trkpt>
      <trkpt lat="44.32001" lon="6.69523">
        <ele>1667.5</ele>
        <time>2022-06-12T08:58:09Z</time>
      </trkpt>
      <trkpt lat="44.31993" lon="6.69515">
        <ele>1666.9</ele>
        <time>2022-06-12T08:58:10Z</time>
      </trkpt>
      <trkpt lat="44.31984" lon="6.69508">
        <ele>1666.1</ele>
        <time>2022-06-12T08:58:11Z</time>
      </trkpt>
      <trkpt lat="44.31977" lon="6.69499">
        <ele>1665.4</ele>
        <time>2022-06-12T08:58:12Z</time>
      </trkpt>
      <trkpt lat="44.3197" lon="6.6949">
        <ele>1664.3</ele>
        <time>2022-06-12T08:58:13Z</time>
      </trkpt>
      <trkpt lat="44.31963" lon="6.6948">
        <ele>1663.5</ele>
        <time>2022-06-12T08:58:14Z</time>
      </trkpt>
      <trkpt lat="44.31957" lon="6.69469">
        <ele>1663</ele>
        <time>2022-06-12T08:58:15Z</time>
      </trkpt>
      <trkpt lat="44.31952" lon="6.69457">
        <ele>1662.4</ele>
        <time>2022-06-12T08:58:16Z</time>
      </trkpt>
      <trkpt lat="44.31947" lon="6.69445">
        <ele>1662.4</ele>
        <time>2022-06-12T08:58:17Z</time>
      </trkpt>
      <trkpt lat="44.31944" lon="6.69433">
        <ele>1662.1</ele>
        <time>2022-06-12T08:58:18Z</time>
      </trkpt>
      <trkpt lat="44.3194" lon="6.6942">
        <ele>1662</ele>
        <time>2022-06-12T08:58:19Z</time>
      </trkpt>
      <trkpt lat="44.31938" lon="6.69407">
        <ele>1661.8</ele>
        <time>2022-06-12T08:58:20Z</time>
      </trkpt>
      <trkpt lat="44.31936" lon="6.69393">
        <ele>1661.8</ele>
        <time>2022-06-12T08:58:21Z</time>
      </trkpt>
      <trkpt lat="44.31934" lon="6.6938">
        <ele>1662.1</ele>
        <time>2022-06-12T08:58:22Z</time>
      </trkpt>
      <trkpt lat="44.31931" lon="6.69367">
        <ele>1662.1</ele>
        <time>2022-06-12T08:58:23Z</time>
      </trkpt>
      <trkpt lat="44.31927" lon="6.69355">
        <ele>1661.2</ele>
        <time>2022-06-12T08:58:24Z</time>
      </trkpt>
      <trkpt lat="44.31922" lon="6.69343">
        <ele>1659.8</ele>
        <time>2022-06-12T08:58:25Z</time>
      </trkpt>
      <trkpt lat="44.31916" lon="6.69333">
        <ele>1657.9</ele>
        <time>2022-06-12T08:58:26Z</time>
      </trkpt>
      <trkpt lat="44.3191" lon="6.69324">
        <ele>1656.3</ele>
        <time>2022-06-12T08:58:27Z</time>
      </trkpt>
      <trkpt lat="44.31903" lon="6.69315">
        <ele>1654.9</ele>
        <time>2022-06-12T08:58:28Z</time>
      </trkpt>
      <trkpt lat="44.31898" lon="6.69306">
        <ele>1654.1</ele>
        <time>2022-06-12T08:58:29Z</time>
      </trkpt>
      <trkpt lat="44.31893" lon="6.69295">
        <ele>1653.6</ele>
        <time>2022-06-12T08:58:30Z</time>
      </trkpt>
      <trkpt lat="44.31889" lon="6.69284">
        <ele>1653.3</ele>
        <time>2022-06-12T08:58:31Z</time>
      </trkpt>
      <trkpt lat="44.31886" lon="6.69272">
        <ele>1653</ele>
        <time>2022-06-12T08:58:32Z</time>
      </trkpt>
      <trkpt lat="44.31883" lon="6.6926">
        <ele>1652.5</ele>
        <time>2022-06-12T08:58:33Z</time>
      </trkpt>
      <trkpt lat="44.31882" lon="6.69249">
        <ele>1652.4</ele>
        <time>2022-06-12T08:58:34Z</time>
      </trkpt>
      <trkpt lat="44.31881" lon="6.69236">
        <ele>1652.3</ele>
        <time>2022-06-12T08:58:35Z</time>
      </trkpt>
      <trkpt lat="44.3188" lon="6.69224">
        <ele>1652.4</ele>
        <time>2022-06-12T08:58:36Z</time>
      </trkpt>
      <trkpt lat="44.3188" lon="6.69212">
        <ele>1652.7</ele>
        <time>2022-06-12T08:58:37Z</time>
      </trkpt>
      <trkpt lat="44.3188" lon="6.69201">
        <ele>1653.1</ele>
        <time>2022-06-12T08:58:38Z</time>
      </trkpt>
      <trkpt lat="44.31881" lon="6.6919">
        <ele>1653.4</ele>
        <time>2022-06-12T08:58:39Z</time>
      </trkpt>
      <trkpt lat="44.31882" lon="6.69179">
        <ele>1653.1</ele>
        <time>2022-06-12T08:58:40Z</time>
      </trkpt>
      <trkpt lat="44.31883" lon="6.69168">
        <ele>1653.1</ele>
        <time>2022-06-12T08:58:41Z</time>
      </trkpt>
      <trkpt lat="44.31884" lon="6.69159">
        <ele>1653.1</ele>
        <time>2022-06-12T08:58:42Z</time>
      </trkpt>
      <trkpt lat="44.31885" lon="6.69149">
        <ele>1652.9</ele>
        <time>2022-06-12T08:58:43Z</time>
      </trkpt>
      <trkpt lat="44.31887" lon="6.69139">
        <ele>1652.9</ele>
        <time>2022-06-12T08:58:44Z</time>
      </trkpt>
      <trkpt lat="44.31888" lon="6.6913">
        <ele>1652.3</ele>
        <time>2022-06-12T08:58:45Z</time>
      </trkpt>
      <trkpt lat="44.3189" lon="6.69122">
        <ele>1652.1</ele>
        <time>2022-06-12T08:58:46Z</time>
      </trkpt>
      <trkpt lat="44.31893" lon="6.69114">
        <ele>1652.4</ele>
        <time>2022-06-12T08:58:47Z</time>
      </trkpt>
      <trkpt lat="44.31896" lon="6.69106">
        <ele>1652.8</ele>
        <time>2022-06-12T08:58:48Z</time>
      </trkpt>
      <trkpt lat="44.319" lon="6.69099">
        <ele>1653.6</ele>
        <time>2022-06-12T08:58:49Z</time>
      </trkpt>
      <trkpt lat="44.31905" lon="6.69093">
        <ele>1654.8</ele>
        <time>2022-06-12T08:58:50Z</time>
      </trkpt>
      <trkpt lat="44.31909" lon="6.69087">
        <ele>1656.1</ele>
        <time>2022-06-12T08:58:51Z</time>
      </trkpt>
      <trkpt lat="44.31914" lon="6.6908">
        <ele>1657.4</ele>
        <time>2022-06-12T08:58:52Z</time>
      </trkpt>
      <trkpt lat="44.31918" lon="6.69072">
        <ele>1657.8</ele>
        <time>2022-06-12T08:58:53Z</time>
      </trkpt>
      <trkpt lat="44.31921" lon="6.69062">
        <ele>1657.1</ele>
        <time>2022-06-12T08:58:54Z</time>
      </trkpt>
      <trkpt lat="44.31922" lon="6.69052">
        <ele>1655.7</ele>
        <time>2022-06-12T08:58:55Z</time>
      </trkpt>
      <trkpt lat="44.31923" lon="6.69042">
        <ele>1654.8</ele>
        <time>2022-06-12T08:58:56Z</time>
      </trkpt>
      <trkpt lat="44.31923" lon="6.69032">
        <ele>1653.9</ele>
        <time>2022-06-12T08:58:57Z</time>
      </trkpt>
      <trkpt lat="44.31924" lon="6.69021">
        <ele>1653.4</ele>
        <time>2022-06-12T08:58:58Z</time>
      </trkpt>
      <trkpt lat="44.31926" lon="6.69011">
        <ele>1653.6</ele>
        <time>2022-06-12T08:58:59Z</time>
      </trkpt>
      <trkpt lat="44.31928" lon="6.69001">
        <ele>1654.1</ele>
        <time>2022-06-12T08:59:00Z</time>
      </trkpt>
      <trkpt lat="44.3193" lon="6.68992">
        <ele>1654.4</ele>
        <time>2022-06-12T08:59:01Z</time>
      </trkpt>
      <trkpt lat="44.31933" lon="6.68982">
        <ele>1655.1</ele>
        <time>2022-06-12T08:59:02Z</time>
      </trkpt>
      <trkpt lat="44.31935" lon="6.68973">
        <ele>1655.7</ele>
        <time>2022-06-12T08:59:03Z</time>
      </trkpt>
      <trkpt lat="44.31937" lon="6.68964">
        <ele>1656.2</ele>
        <time>2022-06-12T08:59:04Z</time>
      </trkpt>
      <trkpt lat="44.31939" lon="6.68954">
        <ele>1656.2</ele>
        <time>2022-06-12T08:59:05Z</time>
      </trkpt>
      <trkpt lat="44.31941" lon="6.68945">
        <ele>1656.1</ele>
        <time>2022-06-12T08:59:06Z</time>
      </trkpt>
      <trkpt lat="44.31942" lon="6.68936">
        <ele>1656.1</ele>
        <time>2022-06-12T08:59:07Z</time>
      </trkpt>
      <trkpt lat="44.31944" lon="6.68928">
        <ele>1656</ele>
        <time>2022-06-12T08:59:08Z</time>
      </trkpt>
      <trkpt lat="44.31946" lon="6.68919">
        <ele>1656.1</ele>
        <time>2022-06-12T08:59:09Z</time>
      </trkpt>
      <trkpt lat="44.31947" lon="6.68911">
        <ele>1656.7</ele>
        <time>2022-06-12T08:59:10Z</time>
      </trkpt>
      <trkpt lat="44.31947" lon="6.68902">
        <ele>1656.8</ele>
        <time>2022-06-12T08:59:11Z</time>
      </trkpt>
      <trkpt lat="44.31947" lon="6.68894">
        <ele>1656.4</ele>
        <time>2022-06-12T08:59:12Z</time>
      </trkpt>
      <trkpt lat="44.31945" lon="6.68884">
        <ele>1656.1</ele>
        <time>2022-06-12T08:59:13Z</time>
      </trkpt>
      <trkpt lat="44.31943" lon="6.68875">
        <ele>1656.3</ele>
        <time>2022-06-12T08:59:14Z</time>
      </trkpt>
      <trkpt lat="44.31941" lon="6.68867">
        <ele>1655.8</ele>
        <time>2022-06-12T08:59:15Z</time>
      </trkpt>
      <trkpt lat="44.31938" lon="6.6886">
        <ele>1654.9</ele>
        <time>2022-06-12T08:59:16Z</time>
      </trkpt>
      <trkpt lat="44.31935" lon="6.68852">
        <ele>1654.5</ele>
        <time>2022-06-12T08:59:17Z</time>
      </trkpt>
      <trkpt lat="44.31932" lon="6.68845">
        <ele>1654.4</ele>
        <time>2022-06-12T08:59:18Z</time>
      </trkpt>
      <trkpt lat="44.31929" lon="6.68837">
        <ele>1654.4</ele>
        <time>2022-06-12T08:59:19Z</time>
      </trkpt>
      <trkpt lat="44.31927" lon="6.68829">
        <ele>1654.6</ele>
        <time>2022-06-12T08:59:20Z</time>
      </trkpt>
      <trkpt lat="44.31925" lon="6.68821">
        <ele>1654.5</ele>
        <time>2022-06-12T08:59:21Z</time>
      </trkpt>
      <trkpt lat="44.31922" lon="6.68813">
        <ele>1654.4</ele>
        <time>2022-06-12T08:59:22Z</time>
      </trkpt>
      <trkpt lat="44.31919" lon="6.68804">
        <ele>1654.4</ele>
        <time>2022-06-12T08:59:23Z</time>
      </trkpt>
      <trkpt lat="44.31917" lon="6.68796">
        <ele>1654.8</ele>
        <time>2022-06-12T08:59:24Z</time>
      </trkpt>
      <trkpt lat="44.31915" lon="6.68788">
        <ele>1655.7</ele>
        <time>2022-06-12T08:59:25Z</time>
      </trkpt>
      <trkpt lat="44.31912" lon="6.6878">
        <ele>1656.3</ele>
        <time>2022-06-12T08:59:26Z</time>
      </trkpt>
      <trkpt lat="44.3191" lon="6.68772">
        <ele>1656.9</ele>
        <time>2022-06-12T08:59:27Z</time>
      </trkpt>
      <trkpt lat="44.31907" lon="6.68764">
        <ele>1657.1</ele>
        <time>2022-06-12T08:59:28Z</time>
      </trkpt>
      <trkpt lat="44.31904" lon="6.68757">
        <ele>1657.2</ele>
        <time>2022-06-12T08:59:29Z</time>
      </trkpt>
      <trkpt lat="44.31901" lon="6.6875">
        <ele>1656.8</ele>
        <time>2022-06-12T08:59:30Z</time>
      </trkpt>
      <trkpt lat="44.31897" lon="6.68742">
        <ele>1656.5</ele>
        <time>2022-06-12T08:59:31Z</time>
      </trkpt>
      <trkpt lat="44.31894" lon="6.68735">
        <ele>1656.1</ele>
        <time>2022-06-12T08:59:32Z</time>
      </trkpt>
      <trkpt lat="44.3189" lon="6.68728">
        <ele>1655.8</ele>
        <time>2022-06-12T08:59:33Z</time>
      </trkpt>
      <trkpt lat="44.31886" lon="6.6872">
        <ele>1655.8</ele>
        <time>2022-06-12T08:59:34Z</time>
      </trkpt>
      <trkpt lat="44.31882" lon="6.68713">
        <ele>1655.9</ele>
        <time>2022-06-12T08:59:35Z</time>
      </trkpt>
      <trkpt lat="44.31879" lon="6.68706">
        <ele>1656.2</ele>
        <time>2022-06-12T08:59:36Z</time>
      </trkpt>
      <trkpt lat="44.31876" lon="6.687">
        <ele>1656.2</ele>
        <time>2022-06-12T08:59:37Z</time>
      </trkpt>
      <trkpt lat="44.31873" lon="6.68693">
        <ele>1655.8</ele>
        <time>2022-06-12T08:59:38Z</time>
      </trkpt>
      <trkpt lat="44.3187" lon="6.68687">
        <ele>1655.3</ele>
        <time>2022-06-12T08:59:39Z</time>
      </trkpt>
      <trkpt lat="44.31868" lon="6.6868">
        <ele>1655.1</ele>
        <time>2022-06-12T08:59:40Z</time>
      </trkpt>
      <trkpt lat="44.31865" lon="6.68672">
        <ele>1655.1</ele>
        <time>2022-06-12T08:59:41Z</time>
      </trkpt>
      <trkpt lat="44.31863" lon="6.68665">
        <ele>1655.2</ele>
        <time>2022-06-12T08:59:42Z</time>
      </trkpt>
      <trkpt lat="44.31861" lon="6.68657">
        <ele>1654.9</ele>
        <time>2022-06-12T08:59:43Z</time>
      </trkpt>
      <trkpt lat="44.31859" lon="6.68649">
        <ele>1655</ele>
        <time>2022-06-12T08:59:44Z</time>
      </trkpt>
      <trkpt lat="44.31857" lon="6.68641">
        <ele>1655.6</ele>
        <time>2022-06-12T08:59:45Z</time>
      </trkpt>
      <trkpt lat="44.31856" lon="6.68632">
        <ele>1655.8</ele>
        <time>2022-06-12T08:59:46Z</time>
      </trkpt>
      <trkpt lat="44.31856" lon="6.68623">
        <ele>1655.9</ele>
        <time>2022-06-12T08:59:47Z</time>
      </trkpt>
      <trkpt lat="44.31856" lon="6.68613">
        <ele>1656.6</ele>
        <time>2022-06-12T08:59:48Z</time>
      </trkpt>
      <trkpt lat="44.31856" lon="6.68604">
        <ele>1656.3</ele>
        <time>2022-06-12T08:59:49Z</time>
      </trkpt>
      <trkpt lat="44.31857" lon="6.68595">
        <ele>1655.6</ele>
        <time>2022-06-12T08:59:50Z</time>
      </trkpt>
      <trkpt lat="44.31858" lon="6.68586">
        <ele>1655.2</ele>
        <time>2022-06-12T08:59:51Z</time>
      </trkpt>
      <trkpt lat="44.31859" lon="6.68578">
        <ele>1655</ele>
        <time>2022-06-12T08:59:52Z</time>
      </trkpt>
      <trkpt lat="44.3186" lon="6.68569">
        <ele>1654.9</ele>
        <time>2022-06-12T08:59:53Z</time>
      </trkpt>
      <trkpt lat="44.31861" lon="6.68561">
        <ele>1654.6</ele>
        <time>2022-06-12T08:59:54Z</time>
      </trkpt>
      <trkpt lat="44.31862" lon="6.68552">
        <ele>1654.7</ele>
        <time>2022-06-12T08:59:55Z</time>
      </trkpt>
      <trkpt lat="44.31863" lon="6.68544">
        <ele>1655.3</ele>
        <time>2022-06-12T08:59:56Z</time>
      </trkpt>
      <trkpt lat="44.31865" lon="6.68535">
        <ele>1656.4</ele>
        <time>2022-06-12T08:59:57Z</time>
      </trkpt>
      <trkpt lat="44.31866" lon="6.68527">
        <ele>1657.2</ele>
        <time>2022-06-12T08:59:58Z</time>
      </trkpt>
      <trkpt lat="44.31868" lon="6.68518">
        <ele>1657.5</ele>
        <time>2022-06-12T08:59:59Z</time>
      </trkpt>
      <trkpt lat="44.31869" lon="6.6851">
        <ele>1657.6</ele>
        <time>2022-06-12T09:00:00Z</time>
      </trkpt>
      <trkpt lat="44.3187" lon="6.68501">
        <ele>1657.1</ele>
        <time>2022-06-12T09:00:01Z</time>
      </trkpt>
      <trkpt lat="44.3187" lon="6.68493">
        <ele>1656.2</ele>
        <time>2022-06-12T09:00:02Z</time>
      </trkpt>
      <trkpt lat="44.31869" lon="6.68484">
        <ele>1655.2</ele>
        <time>2022-06-12T09:00:03Z</time>
      </trkpt>
      <trkpt lat="44.31869" lon="6.68476">
        <ele>1654.2</ele>
        <time>2022-06-12T09:00:04Z</time>
      </trkpt>
      <trkpt lat="44.31868" lon="6.68468">
        <ele>1653.2</ele>
        <time>2022-06-12T09:00:05Z</time>
      </trkpt>
      <trkpt lat="44.31868" lon="6.68459">
        <ele>1652.1</ele>
        <time>2022-06-12T09:00:06Z</time>
      </trkpt>
      <trkpt lat="44.31866" lon="6.6845">
        <ele>1650.8</ele>
        <time>2022-06-12T09:00:07Z</time>
      </trkpt>
      <trkpt lat="44.31866" lon="6.68441">
        <ele>1650.2</ele>
        <time>2022-06-12T09:00:08Z</time>
      </trkpt>
      <trkpt lat="44.31866" lon="6.68432">
        <ele>1650.2</ele>
        <time>2022-06-12T09:00:09Z</time>
      </trkpt>
      <trkpt lat="44.31867" lon="6.68424">
        <ele>1650.6</ele>
        <time>2022-06-12T09:00:10Z</time>
      </trkpt>
      <trkpt lat="44.31868" lon="6.68415">
        <ele>1651</ele>
        <time>2022-06-12T09:00:11Z</time>
      </trkpt>
      <trkpt lat="44.3187" lon="6.68406">
        <ele>1650.8</ele>
        <time>2022-06-12T09:00:12Z</time>
      </trkpt>
      <trkpt lat="44.31871" lon="6.68397">
        <ele>1650.4</ele>
        <time>2022-06-12T09:00:13Z</time>
      </trkpt>
      <trkpt lat="44.31872" lon="6.68387">
        <ele>1650.1</ele>
        <time>2022-06-12T09:00:14Z</time>
      </trkpt>
      <trkpt lat="44.31874" lon="6.68377">
        <ele>1650.3</ele>
        <time>2022-06-12T09:00:15Z</time>
      </trkpt>
      <trkpt lat="44.31875" lon="6.68367">
        <ele>1650.4</ele>
        <time>2022-06-12T09:00:16Z</time>
      </trkpt>
      <trkpt lat="44.31877" lon="6.68357">
        <ele>1650.6</ele>
        <time>2022-06-12T09:00:17Z</time>
      </trkpt>
      <trkpt lat="44.31879" lon="6.68346">
        <ele>1650.7</ele>
        <time>2022-06-12T09:00:18Z</time>
      </trkpt>
      <trkpt lat="44.31881" lon="6.68334">
        <ele>1650.5</ele>
        <time>2022-06-12T09:00:19Z</time>
      </trkpt>
      <trkpt lat="44.31883" lon="6.68323">
        <ele>1649.9</ele>
        <time>2022-06-12T09:00:20Z</time>
      </trkpt>
      <trkpt lat="44.31886" lon="6.68311">
        <ele>1649.4</ele>
        <time>2022-06-12T09:00:21Z</time>
      </trkpt>
      <trkpt lat="44.31888" lon="6.68298">
        <ele>1648.6</ele>
        <time>2022-06-12T09:00:22Z</time>
      </trkpt>
      <trkpt lat="44.31891" lon="6.68285">
        <ele>1647.8</ele>
        <time>2022-06-12T09:00:23Z</time>
      </trkpt>
      <trkpt lat="44.31893" lon="6.68271">
        <ele>1646.6</ele>
        <time>2022-06-12T09:00:24Z</time>
      </trkpt>
      <trkpt lat="44.31895" lon="6.68257">
        <ele>1645.1</ele>
        <time>2022-06-12T09:00:25Z</time>
      </trkpt>
      <trkpt lat="44.31897" lon="6.68242">
        <ele>1644.2</ele>
        <time>2022-06-12T09:00:26Z</time>
      </trkpt>
      <trkpt lat="44.31899" lon="6.68228">
        <ele>1643.8</ele>
        <time>2022-06-12T09:00:27Z</time>
      </trkpt>
      <trkpt lat="44.31902" lon="6.68213">
        <ele>1643.9</ele>
        <time>2022-06-12T09:00:28Z</time>
      </trkpt>
      <trkpt lat="44.31904" lon="6.68198">
        <ele>1643.8</ele>
        <time>2022-06-12T09:00:29Z</time>
      </trkpt>
      <trkpt lat="44.31906" lon="6.68183">
        <ele>1643.3</ele>
        <time>2022-06-12T09:00:30Z</time>
      </trkpt>
      <trkpt lat="44.31907" lon="6.68167">
        <ele>1642.2</ele>
        <time>2022-06-12T09:00:31Z</time>
      </trkpt>
      <trkpt lat="44.31908" lon="6.6815">
        <ele>1640.6</ele>
        <time>2022-06-12T09:00:32Z</time>
      </trkpt>
      <trkpt lat="44.31907" lon="6.68134">
        <ele>1638.9</ele>
        <time>2022-06-12T09:00:33Z</time>
      </trkpt>
      <trkpt lat="44.31906" lon="6.68119">
        <ele>1637.5</ele>
        <time>2022-06-12T09:00:34Z</time>
      </trkpt>
      <trkpt lat="44.31905" lon="6.68105">
        <ele>1636.5</ele>
        <time>2022-06-12T09:00:35Z</time>
      </trkpt>
      <trkpt lat="44.31904" lon="6.68093">
        <ele>1636.2</ele>
        <time>2022-06-12T09:00:36Z</time>
      </trkpt>
      <trkpt lat="44.31906" lon="6.68081">
        <ele>1636.3</ele>
        <time>2022-06-12T09:00:37Z</time>
      </trkpt>
      <trkpt lat="44.3191" lon="6.68071">
        <ele>1635.9</ele>
        <time>2022-06-12T09:00:38Z</time>
      </trkpt>
      <trkpt lat="44.31916" lon="6.68062">
        <ele>1635.9</ele>
        <time>2022-06-12T09:00:39Z</time>
      </trkpt>
      <trkpt lat="44.31923" lon="6.68054">
        <ele>1635.8</ele>
        <time>2022-06-12T09:00:40Z</time>
      </trkpt>
      <trkpt lat="44.3193" lon="6.68048">
        <ele>1635.4</ele>
        <time>2022-06-12T09:00:41Z</time>
      </trkpt>
      <trkpt lat="44.31939" lon="6.68043">
        <ele>1635.3</ele>
        <time>2022-06-12T09:00:42Z</time>
      </trkpt>
      <trkpt lat="44.31946" lon="6.68037">
        <ele>1634.5</ele>
        <time>2022-06-12T09:00:43Z</time>
      </trkpt>
      <trkpt lat="44.31952" lon="6.68028">
        <ele>1632.8</ele>
        <time>2022-06-12T09:00:44Z</time>
      </trkpt>
      <trkpt lat="44.31956" lon="6.68017">
        <ele>1632.5</ele>
        <time>2022-06-12T09:00:45Z</time>
      </trkpt>
      <trkpt lat="44.31958" lon="6.68005">
        <ele>1631.8</ele>
        <time>2022-06-12T09:00:46Z</time>
      </trkpt>
      <trkpt lat="44.31957" lon="6.67993">
        <ele>1631.6</ele>
        <time>2022-06-12T09:00:47Z</time>
      </trkpt>
      <trkpt lat="44.31955" lon="6.67981">
        <ele>1631.8</ele>
        <time>2022-06-12T09:00:48Z</time>
      </trkpt>
      <trkpt lat="44.31953" lon="6.67969">
        <ele>1632.1</ele>
        <time>2022-06-12T09:00:49Z</time>
      </trkpt>
      <trkpt lat="44.31952" lon="6.67957">
        <ele>1632.5</ele>
        <time>2022-06-12T09:00:50Z</time>
      </trkpt>
      <trkpt lat="44.31953" lon="6.67946">
        <ele>1633.4</ele>
        <time>2022-06-12T09:00:51Z</time>
      </trkpt>
      <trkpt lat="44.31956" lon="6.67936">
        <ele>1633.4</ele>
        <time>2022-06-12T09:00:52Z</time>
      </trkpt>
      <trkpt lat="44.31959" lon="6.67926">
        <ele>1633.7</ele>
        <time>2022-06-12T09:00:53Z</time>
      </trkpt>
      <trkpt lat="44.31963" lon="6.67917">
        <ele>1634.2</ele>
        <time>2022-06-12T09:00:54Z</time>
      </trkpt>
      <trkpt lat="44.31967" lon="6.67909">
        <ele>1633.9</ele>
        <time>2022-06-12T09:00:55Z</time>
      </trkpt>
      <trkpt lat="44.31971" lon="6.679">
        <ele>1633.7</ele>
        <time>2022-06-12T09:00:56Z</time>
      </trkpt>
      <trkpt lat="44.31975" lon="6.67892">
        <ele>1633.7</ele>
        <time>2022-06-12T09:00:57Z</time>
      </trkpt>
      <trkpt lat="44.31979" lon="6.67885">
        <ele>1633.5</ele>
        <time>2022-06-12T09:00:58Z</time>
      </trkpt>
      <trkpt lat="44.31984" lon="6.67878">
        <ele>1633.1</ele>
        <time>2022-06-12T09:00:59Z</time>
      </trkpt>
      <trkpt lat="44.31989" lon="6.67872">
        <ele>1633.1</ele>
        <time>2022-06-12T09:01:00Z</time>
      </trkpt>
      <trkpt lat="44.31995" lon="6.67864">
        <ele>1632.9</ele>
        <time>2022-06-12T09:01:01Z</time>
      </trkpt>
      <trkpt lat="44.32001" lon="6.67857">
        <ele>1632.6</ele>
        <time>2022-06-12T09:01:02Z</time>
      </trkpt>
      <trkpt lat="44.32006" lon="6.67848">
        <ele>1631.8</ele>
        <time>2022-06-12T09:01:03Z</time>
      </trkpt>
      <trkpt lat="44.32011" lon="6.6784">
        <ele>1630.8</ele>
        <time>2022-06-12T09:01:04Z</time>
      </trkpt>
      <trkpt lat="44.32017" lon="6.67831">
        <ele>1629.6</ele>
        <time>2022-06-12T09:01:05Z</time>
      </trkpt>
      <trkpt lat="44.32022" lon="6.67821">
        <ele>1628.5</ele>
        <time>2022-06-12T09:01:06Z</time>
      </trkpt>
      <trkpt lat="44.32026" lon="6.6781">
        <ele>1626.9</ele>
        <time>2022-06-12T09:01:07Z</time>
      </trkpt>
      <trkpt lat="44.32032" lon="6.678">
        <ele>1626.4</ele>
        <time>2022-06-12T09:01:08Z</time>
      </trkpt>
      <trkpt lat="44.32036" lon="6.67789">
        <ele>1626</ele>
        <time>2022-06-12T09:01:09Z</time>
      </trkpt>
      <trkpt lat="44.3204" lon="6.67776">
        <ele>1625.4</ele>
        <time>2022-06-12T09:01:10Z</time>
      </trkpt>
      <trkpt lat="44.32042" lon="6.67763">
        <ele>1624.7</ele>
        <time>2022-06-12T09:01:11Z</time>
      </trkpt>
      <trkpt lat="44.32043" lon="6.67749">
        <ele>1622.9</ele>
        <time>2022-06-12T09:01:12Z</time>
      </trkpt>
      <trkpt lat="44.32042" lon="6.67735">
        <ele>1621.9</ele>
        <time>2022-06-12T09:01:13Z</time>
      </trkpt>
      <trkpt lat="44.32041" lon="6.6772">
        <ele>1620.8</ele>
        <time>2022-06-12T09:01:14Z</time>
      </trkpt>
      <trkpt lat="44.3204" lon="6.67705">
        <ele>1620</ele>
        <time>2022-06-12T09:01:15Z</time>
      </trkpt>
      <trkpt lat="44.3204" lon="6.67691">
        <ele>1619</ele>
        <time>2022-06-12T09:01:16Z</time>
      </trkpt>
      <trkpt lat="44.3204" lon="6.67676">
        <ele>1617.3</ele>
        <time>2022-06-12T09:01:17Z</time>
      </trkpt>
      <trkpt lat="44.3204" lon="6.67661">
        <ele>1615.9</ele>
        <time>2022-06-12T09:01:18Z</time>
      </trkpt>
      <trkpt lat="44.3204" lon="6.67646">
        <ele>1614.6</ele>
        <time>2022-06-12T09:01:19Z</time>
      </trkpt>
      <trkpt lat="44.3204" lon="6.67632">
        <ele>1613.5</ele>
        <time>2022-06-12T09:01:20Z</time>
      </trkpt>
      <trkpt lat="44.32041" lon="6.67617">
        <ele>1612.7</ele>
        <time>2022-06-12T09:01:21Z</time>
      </trkpt>
      <trkpt lat="44.32043" lon="6.67603">
        <ele>1612.5</ele>
        <time>2022-06-12T09:01:22Z</time>
      </trkpt>
      <trkpt lat="44.32045" lon="6.67589">
        <ele>1612.6</ele>
        <time>2022-06-12T09:01:23Z</time>
      </trkpt>
      <trkpt lat="44.32048" lon="6.67576">
        <ele>1612.7</ele>
        <time>2022-06-12T09:01:24Z</time>
      </trkpt>
      <trkpt lat="44.32051" lon="6.67563">
        <ele>1613.1</ele>
        <time>2022-06-12T09:01:25Z</time>
      </trkpt>
      <trkpt lat="44.32054" lon="6.6755">
        <ele>1613.6</ele>
        <time>2022-06-12T09:01:26Z</time>
      </trkpt>
      <trkpt lat="44.32058" lon="6.67538">
        <ele>1614.2</ele>
        <time>2022-06-12T09:01:27Z</time>
      </trkpt>
      <trkpt lat="44.32062" lon="6.67526">
        <ele>1614.7</ele>
        <time>2022-06-12T09:01:28Z</time>
      </trkpt>
      <trkpt lat="44.32067" lon="6.67516">
        <ele>1614.9</ele>
        <time>2022-06-12T09:01:29Z</time>
      </trkpt>
      <trkpt lat="44.32073" lon="6.67506">
        <ele>1615.8</ele>
        <time>2022-06-12T09:01:30Z</time>
      </trkpt>
      <trkpt lat="44.32079" lon="6.67497">
        <ele>1617</ele>
        <time>2022-06-12T09:01:31Z</time>
      </trkpt>
      <trkpt lat="44.32085" lon="6.67489">
        <ele>1617.7</ele>
        <time>2022-06-12T09:01:32Z</time>
      </trkpt>
      <trkpt lat="44.32091" lon="6.67482">
        <ele>1618.6</ele>
        <time>2022-06-12T09:01:33Z</time>
      </trkpt>
      <trkpt lat="44.32097" lon="6.67474">
        <ele>1619.5</ele>
        <time>2022-06-12T09:01:34Z</time>
      </trkpt>
      <trkpt lat="44.32103" lon="6.67466">
        <ele>1620.1</ele>
        <time>2022-06-12T09:01:35Z</time>
      </trkpt>
      <trkpt lat="44.32109" lon="6.67457">
        <ele>1620.4</ele>
        <time>2022-06-12T09:01:36Z</time>
      </trkpt>
      <trkpt lat="44.32114" lon="6.67448">
        <ele>1620.6</ele>
        <time>2022-06-12T09:01:37Z</time>
      </trkpt>
      <trkpt lat="44.32119" lon="6.67439">
        <ele>1620.2</ele>
        <time>2022-06-12T09:01:38Z</time>
      </trkpt>
      <trkpt lat="44.32122" lon="6.67427">
        <ele>1619</ele>
        <time>2022-06-12T09:01:39Z</time>
      </trkpt>
      <trkpt lat="44.32125" lon="6.67415">
        <ele>1617.1</ele>
        <time>2022-06-12T09:01:40Z</time>
      </trkpt>
      <trkpt lat="44.32127" lon="6.67402">
        <ele>1616.3</ele>
        <time>2022-06-12T09:01:41Z</time>
      </trkpt>
      <trkpt lat="44.32129" lon="6.67389">
        <ele>1615.4</ele>
        <time>2022-06-12T09:01:42Z</time>
      </trkpt>
      <trkpt lat="44.32131" lon="6.67376">
        <ele>1614.9</ele>
        <time>2022-06-12T09:01:43Z</time>
      </trkpt>
      <trkpt lat="44.32133" lon="6.67362">
        <ele>1614.5</ele>
        <time>2022-06-12T09:01:44Z</time>
      </trkpt>
      <trkpt lat="44.32135" lon="6.67349">
        <ele>1614</ele>
        <time>2022-06-12T09:01:45Z</time>
      </trkpt>
      <trkpt lat="44.32138" lon="6.67336">
        <ele>1613.7</ele>
        <time>2022-06-12T09:01:46Z</time>
      </trkpt>
      <trkpt lat="44.32141" lon="6.67323">
        <ele>1613.6</ele>
        <time>2022-06-12T09:01:47Z</time>
      </trkpt>
      <trkpt lat="44.32143" lon="6.6731">
        <ele>1613.4</ele>
        <time>2022-06-12T09:01:48Z</time>
      </trkpt>
      <trkpt lat="44.32145" lon="6.67296">
        <ele>1612.9</ele>
        <time>2022-06-12T09:01:49Z</time>
      </trkpt>
      <trkpt lat="44.32146" lon="6.67282">
        <ele>1612.4</ele>
        <time>2022-06-12T09:01:50Z</time>
      </trkpt>
      <trkpt lat="44.32147" lon="6.67268">
        <ele>1611.8</ele>
        <time>2022-06-12T09:01:51Z</time>
      </trkpt>
      <trkpt lat="44.32148" lon="6.67255">
        <ele>1611.2</ele>
        <time>2022-06-12T09:01:52Z</time>
      </trkpt>
      <trkpt lat="44.3215" lon="6.67241">
        <ele>1610.9</ele>
        <time>2022-06-12T09:01:53Z</time>
      </trkpt>
      <trkpt lat="44.32151" lon="6.67227">
        <ele>1610.5</ele>
        <time>2022-06-12T09:01:54Z</time>
      </trkpt>
      <trkpt lat="44.32153" lon="6.67214">
        <ele>1610.4</ele>
        <time>2022-06-12T09:01:55Z</time>
      </trkpt>
      <trkpt lat="44.32155" lon="6.672">
        <ele>1610.3</ele>
        <time>2022-06-12T09:01:56Z</time>
      </trkpt>
      <trkpt lat="44.32157" lon="6.67186">
        <ele>1610.1</ele>
        <time>2022-06-12T09:01:57Z</time>
      </trkpt>
      <trkpt lat="44.32159" lon="6.67172">
        <ele>1609.8</ele>
        <time>2022-06-12T09:01:58Z</time>
      </trkpt>
      <trkpt lat="44.32161" lon="6.67158">
        <ele>1609.5</ele>
        <time>2022-06-12T09:01:59Z</time>
      </trkpt>
      <trkpt lat="44.32161" lon="6.67144">
        <ele>1609</ele>
        <time>2022-06-12T09:02:00Z</time>
      </trkpt>
      <trkpt lat="44.3216" lon="6.67131">
        <ele>1608.2</ele>
        <time>2022-06-12T09:02:01Z</time>
      </trkpt>
      <trkpt lat="44.32158" lon="6.67117">
        <ele>1606.7</ele>
        <time>2022-06-12T09:02:02Z</time>
      </trkpt>
      <trkpt lat="44.32154" lon="6.67104">
        <ele>1605</ele>
        <time>2022-06-12T09:02:03Z</time>
      </trkpt>
      <trkpt lat="44.32151" lon="6.6709">
        <ele>1603.7</ele>
        <time>2022-06-12T09:02:04Z</time>
      </trkpt>
      <trkpt lat="44.32148" lon="6.67076">
        <ele>1602.8</ele>
        <time>2022-06-12T09:02:05Z</time>
      </trkpt>
      <trkpt lat="44.32147" lon="6.67061">
        <ele>1602.4</ele>
        <time>2022-06-12T09:02:06Z</time>
      </trkpt>
      <trkpt lat="44.32146" lon="6.67047">
        <ele>1601.8</ele>
        <time>2022-06-12T09:02:07Z</time>
      </trkpt>
      <trkpt lat="44.32147" lon="6.67032">
        <ele>1601.1</ele>
        <time>2022-06-12T09:02:08Z</time>
      </trkpt>
      <trkpt lat="44.32149" lon="6.67016">
        <ele>1599.8</ele>
        <time>2022-06-12T09:02:09Z</time>
      </trkpt>
      <trkpt lat="44.32152" lon="6.67001">
        <ele>1598.5</ele>
        <time>2022-06-12T09:02:10Z</time>
      </trkpt>
      <trkpt lat="44.32154" lon="6.66986">
        <ele>1596.1</ele>
        <time>2022-06-12T09:02:11Z</time>
      </trkpt>
      <trkpt lat="44.32157" lon="6.66973">
        <ele>1594.2</ele>
        <time>2022-06-12T09:02:12Z</time>
      </trkpt>
      <trkpt lat="44.3216" lon="6.66959">
        <ele>1591.8</ele>
        <time>2022-06-12T09:02:13Z</time>
      </trkpt>
      <trkpt lat="44.32164" lon="6.66945">
        <ele>1590.5</ele>
        <time>2022-06-12T09:02:14Z</time>
      </trkpt>
      <trkpt lat="44.32169" lon="6.66932">
        <ele>1589</ele>
        <time>2022-06-12T09:02:15Z</time>
      </trkpt>
      <trkpt lat="44.32174" lon="6.66919">
        <ele>1588.6</ele>
        <time>2022-06-12T09:02:16Z</time>
      </trkpt>
      <trkpt lat="44.3218" lon="6.66907">
        <ele>1588.4</ele>
        <time>2022-06-12T09:02:17Z</time>
      </trkpt>
      <trkpt lat="44.32186" lon="6.66895">
        <ele>1589</ele>
        <time>2022-06-12T09:02:18Z</time>
      </trkpt>
      <trkpt lat="44.32194" lon="6.66886">
        <ele>1591</ele>
        <time>2022-06-12T09:02:19Z</time>
      </trkpt>
      <trkpt lat="44.32203" lon="6.66877">
        <ele>1591.1</ele>
        <time>2022-06-12T09:02:20Z</time>
      </trkpt>
      <trkpt lat="44.32211" lon="6.66869">
        <ele>1591.6</ele>
        <time>2022-06-12T09:02:21Z</time>
      </trkpt>
      <trkpt lat="44.32219" lon="6.6686">
        <ele>1591.9</ele>
        <time>2022-06-12T09:02:22Z</time>
      </trkpt>
      <trkpt lat="44.32226" lon="6.6685">
        <ele>1591</ele>
        <time>2022-06-12T09:02:23Z</time>
      </trkpt>
      <trkpt lat="44.32232" lon="6.66839">
        <ele>1589.3</ele>
        <time>2022-06-12T09:02:24Z</time>
      </trkpt>
      <trkpt lat="44.32237" lon="6.66828">
        <ele>1587.5</ele>
        <time>2022-06-12T09:02:25Z</time>
      </trkpt>
      <trkpt lat="44.32243" lon="6.6682">
        <ele>1586</ele>
        <time>2022-06-12T09:02:26Z</time>
      </trkpt>
      <trkpt lat="44.3225" lon="6.66813">
        <ele>1586.2</ele>
        <time>2022-06-12T09:02:27Z</time>
      </trkpt>
      <trkpt lat="44.32257" lon="6.66808">
        <ele>1586.7</ele>
        <time>2022-06-12T09:02:28Z</time>
      </trkpt>
      <trkpt lat="44.32265" lon="6.66803">
        <ele>1587.2</ele>
        <time>2022-06-12T09:02:29Z</time>
      </trkpt>
      <trkpt lat="44.32272" lon="6.66797">
        <ele>1587.3</ele>
        <time>2022-06-12T09:02:30Z</time>
      </trkpt>
      <trkpt lat="44.3228" lon="6.66792">
        <ele>1586.4</ele>
        <time>2022-06-12T09:02:31Z</time>
      </trkpt>
      <trkpt lat="44.32288" lon="6.66788">
        <ele>1584.5</ele>
        <time>2022-06-12T09:02:32Z</time>
      </trkpt>
      <trkpt lat="44.32295" lon="6.66786">
        <ele>1583.8</ele>
        <time>2022-06-12T09:02:33Z</time>
      </trkpt>
      <trkpt lat="44.32301" lon="6.66786">
        <ele>1584.2</ele>
        <time>2022-06-12T09:02:34Z</time>
      </trkpt>
      <trkpt lat="44.32306" lon="6.66787">
        <ele>1584.9</ele>
        <time>2022-06-12T09:02:35Z</time>
      </trkpt>
      <trkpt lat="44.32311" lon="6.66787">
        <ele>1585.4</ele>
        <time>2022-06-12T09:02:36Z</time>
      </trkpt>
      <trkpt lat="44.32316" lon="6.66785">
        <ele>1585.2</ele>
        <time>2022-06-12T09:02:37Z</time>
      </trkpt>
      <trkpt lat="44.3232" lon="6.66783">
        <ele>1584.4</ele>
        <time>2022-06-12T09:02:38Z</time>
      </trkpt>
      <trkpt lat="44.32324" lon="6.66779">
        <ele>1583.1</ele>
        <time>2022-06-12T09:02:39Z</time>
      </trkpt>
      <trkpt lat="44.32327" lon="6.66774">
        <ele>1581.9</ele>
        <time>2022-06-12T09:02:40Z</time>
      </trkpt>
      <trkpt lat="44.32331" lon="6.66769">
        <ele>1580.7</ele>
        <time>2022-06-12T09:02:41Z</time>
      </trkpt>
      <trkpt lat="44.32334" lon="6.66764">
        <ele>1579.9</ele>
        <time>2022-06-12T09:02:42Z</time>
      </trkpt>
      <trkpt lat="44.32338" lon="6.66759">
        <ele>1580.1</ele>
        <time>2022-06-12T09:02:43Z</time>
      </trkpt>
      <trkpt lat="44.32341" lon="6.66753">
        <ele>1580.1</ele>
        <time>2022-06-12T09:02:44Z</time>
      </trkpt>
      <trkpt lat="44.32342" lon="6.66751">
        <ele>1579.9</ele>
        <time>2022-06-12T09:02:45Z</time>
      </trkpt>
      <trkpt lat="44.32343" lon="6.66749">
        <ele>1579.8</ele>
        <time>2022-06-12T09:02:46Z</time>
      </trkpt>
      <trkpt lat="44.32344" lon="6.66747">
        <ele>1580</ele>
        <time>2022-06-12T09:02:47Z</time>
      </trkpt>
      <trkpt lat="44.32345" lon="6.66745">
        <ele>1580.2</ele>
        <time>2022-06-12T09:02:48Z</time>
      </trkpt>
      <trkpt lat="44.32345" lon="6.66742">
        <ele>1580.3</ele>
        <time>2022-06-12T09:03:31Z</time>
      </trkpt>
      <trkpt lat="44.32346" lon="6.6674">
        <ele>1580.6</ele>
        <time>2022-06-12T09:03:32Z</time>
      </trkpt>
      <trkpt lat="44.32348" lon="6.66735">
        <ele>1580.9</ele>
        <time>2022-06-12T09:03:33Z</time>
      </trkpt>
      <trkpt lat="44.3235" lon="6.66729">
        <ele>1580.9</ele>
        <time>2022-06-12T09:03:34Z</time>
      </trkpt>
      <trkpt lat="44.32351" lon="6.66721">
        <ele>1580.7</ele>
        <time>2022-06-12T09:03:35Z</time>
      </trkpt>
      <trkpt lat="44.32352" lon="6.66713">
        <ele>1580.8</ele>
        <time>2022-06-12T09:03:36Z</time>
      </trkpt>
      <trkpt lat="44.32352" lon="6.66705">
        <ele>1580.6</ele>
        <time>2022-06-12T09:03:37Z</time>
      </trkpt>
      <trkpt lat="44.32352" lon="6.66696">
        <ele>1580</ele>
        <time>2022-06-12T09:03:38Z</time>
      </trkpt>
      <trkpt lat="44.32352" lon="6.66687">
        <ele>1580</ele>
        <time>2022-06-12T09:03:39Z</time>
      </trkpt>
      <trkpt lat="44.32352" lon="6.66678">
        <ele>1580.4</ele>
        <time>2022-06-12T09:03:40Z</time>
      </trkpt>
      <trkpt lat="44.32352" lon="6.66669">
        <ele>1580.1</ele>
        <time>2022-06-12T09:03:41Z</time>
      </trkpt>
      <trkpt lat="44.32351" lon="6.66659">
        <ele>1579.5</ele>
        <time>2022-06-12T09:03:42Z</time>
      </trkpt>
      <trkpt lat="44.32349" lon="6.66649">
        <ele>1578.8</ele>
        <time>2022-06-12T09:03:43Z</time>
      </trkpt>
      <trkpt lat="44.32348" lon="6.66639">
        <ele>1577.8</ele>
        <time>2022-06-12T09:03:44Z</time>
      </trkpt>
      <trkpt lat="44.32345" lon="6.6663">
        <ele>1576.9</ele>
        <time>2022-06-12T09:03:45Z</time>
      </trkpt>
      <trkpt lat="44.32342" lon="6.66621">
        <ele>1575.6</ele>
        <time>2022-06-12T09:03:46Z</time>
      </trkpt>
      <trkpt lat="44.32338" lon="6.66611">
        <ele>1574.7</ele>
        <time>2022-06-12T09:03:47Z</time>
      </trkpt>
      <trkpt lat="44.32336" lon="6.66601">
        <ele>1574.1</ele>
        <time>2022-06-12T09:03:48Z</time>
      </trkpt>
      <trkpt lat="44.32335" lon="6.6659">
        <ele>1574.5</ele>
        <time>2022-06-12T09:03:49Z</time>
      </trkpt>
      <trkpt lat="44.32335" lon="6.66579">
        <ele>1574.9</ele>
        <time>2022-06-12T09:03:50Z</time>
      </trkpt>
      <trkpt lat="44.32336" lon="6.66567">
        <ele>1574.6</ele>
        <time>2022-06-12T09:03:51Z</time>
      </trkpt>
      <trkpt lat="44.32337" lon="6.66556">
        <ele>1574.5</ele>
        <time>2022-06-12T09:03:52Z</time>
      </trkpt>
      <trkpt lat="44.32338" lon="6.66544">
        <ele>1573.9</ele>
        <time>2022-06-12T09:03:53Z</time>
      </trkpt>
      <trkpt lat="44.32339" lon="6.66532">
        <ele>1573.7</ele>
        <time>2022-06-12T09:03:54Z</time>
      </trkpt>
      <trkpt lat="44.3234" lon="6.6652">
        <ele>1573.9</ele>
        <time>2022-06-12T09:03:55Z</time>
      </trkpt>
      <trkpt lat="44.32341" lon="6.66507">
        <ele>1574.1</ele>
        <time>2022-06-12T09:03:56Z</time>
      </trkpt>
      <trkpt lat="44.32342" lon="6.66494">
        <ele>1573.9</ele>
        <time>2022-06-12T09:03:57Z</time>
      </trkpt>
      <trkpt lat="44.32343" lon="6.66481">
        <ele>1573.1</ele>
        <time>2022-06-12T09:03:58Z</time>
      </trkpt>
      <trkpt lat="44.32345" lon="6.66468">
        <ele>1572.6</ele>
        <time>2022-06-12T09:03:59Z</time>
      </trkpt>
      <trkpt lat="44.32348" lon="6.66456">
        <ele>1572.4</ele>
        <time>2022-06-12T09:04:00Z</time>
      </trkpt>
      <trkpt lat="44.32351" lon="6.66445">
        <ele>1572.2</ele>
        <time>2022-06-12T09:04:01Z</time>
      </trkpt>
      <trkpt lat="44.32355" lon="6.66436">
        <ele>1572.4</ele>
        <time>2022-06-12T09:04:02Z</time>
      </trkpt>
      <trkpt lat="44.32358" lon="6.66428">
        <ele>1572.4</ele>
        <time>2022-06-12T09:04:03Z</time>
      </trkpt>
      <trkpt lat="44.32359" lon="6.66421">
        <ele>1571.8</ele>
        <time>2022-06-12T09:04:04Z</time>
      </trkpt>
      <trkpt lat="44.32357" lon="6.66415">
        <ele>1569.9</ele>
        <time>2022-06-12T09:04:05Z</time>
      </trkpt>
      <trkpt lat="44.32352" lon="6.66413">
        <ele>1567.5</ele>
        <time>2022-06-12T09:04:06Z</time>
      </trkpt>
      <trkpt lat="44.32347" lon="6.66416">
        <ele>1565.7</ele>
        <time>2022-06-12T09:04:07Z</time>
      </trkpt>
      <trkpt lat="44.32343" lon="6.66423">
        <ele>1565</ele>
        <time>2022-06-12T09:04:08Z</time>
      </trkpt>
      <trkpt lat="44.3234" lon="6.66432">
        <ele>1564.9</ele>
        <time>2022-06-12T09:04:09Z</time>
      </trkpt>
      <trkpt lat="44.32338" lon="6.66441">
        <ele>1565</ele>
        <time>2022-06-12T09:04:10Z</time>
      </trkpt>
      <trkpt lat="44.32336" lon="6.6645">
        <ele>1565</ele>
        <time>2022-06-12T09:04:11Z</time>
      </trkpt>
      <trkpt lat="44.32334" lon="6.66459">
        <ele>1564.5</ele>
        <time>2022-06-12T09:04:12Z</time>
      </trkpt>
      <trkpt lat="44.32332" lon="6.66468">
        <ele>1564</ele>
        <time>2022-06-12T09:04:13Z</time>
      </trkpt>
      <trkpt lat="44.3233" lon="6.66478">
        <ele>1563.9</ele>
        <time>2022-06-12T09:04:14Z</time>
      </trkpt>
      <trkpt lat="44.32328" lon="6.66488">
        <ele>1564</ele>
        <time>2022-06-12T09:04:15Z</time>
      </trkpt>
      <trkpt lat="44.32326" lon="6.66498">
        <ele>1564</ele>
        <time>2022-06-12T09:04:16Z</time>
      </trkpt>
      <trkpt lat="44.32324" lon="6.66508">
        <ele>1563.4</ele>
        <time>2022-06-12T09:04:17Z</time>
      </trkpt>
      <trkpt lat="44.32321" lon="6.66519">
        <ele>1562.5</ele>
        <time>2022-06-12T09:04:18Z</time>
      </trkpt>
      <trkpt lat="44.3232" lon="6.6653">
        <ele>1562.2</ele>
        <time>2022-06-12T09:04:19Z</time>
      </trkpt>
      <trkpt lat="44.32318" lon="6.66541">
        <ele>1562.4</ele>
        <time>2022-06-12T09:04:20Z</time>
      </trkpt>
      <trkpt lat="44.32317" lon="6.66553">
        <ele>1562.7</ele>
        <time>2022-06-12T09:04:21Z</time>
      </trkpt>
      <trkpt lat="44.32316" lon="6.66565">
        <ele>1562.9</ele>
        <time>2022-06-12T09:04:22Z</time>
      </trkpt>
      <trkpt lat="44.32316" lon="6.66576">
        <ele>1563.4</ele>
        <time>2022-06-12T09:04:23Z</time>
      </trkpt>
      <trkpt lat="44.32315" lon="6.66586">
        <ele>1563.6</ele>
        <time>2022-06-12T09:04:24Z</time>
      </trkpt>
      <trkpt lat="44.32315" lon="6.66593">
        <ele>1563.2</ele>
        <time>2022-06-12T09:04:25Z</time>
      </trkpt>
      <trkpt lat="44.32312" lon="6.66598">
        <ele>1561.6</ele>
        <time>2022-06-12T09:04:26Z</time>
      </trkpt>
      <trkpt lat="44.32307" lon="6.66597">
        <ele>1559.2</ele>
        <time>2022-06-12T09:04:27Z</time>
      </trkpt>
      <trkpt lat="44.32304" lon="6.66592">
        <ele>1557.4</ele>
        <time>2022-06-12T09:04:28Z</time>
      </trkpt>
      <trkpt lat="44.32303" lon="6.66584">
        <ele>1556.6</ele>
        <time>2022-06-12T09:04:29Z</time>
      </trkpt>
      <trkpt lat="44.32304" lon="6.66576">
        <ele>1556.8</ele>
        <time>2022-06-12T09:04:30Z</time>
      </trkpt>
      <trkpt lat="44.32305" lon="6.66568">
        <ele>1557.3</ele>
        <time>2022-06-12T09:04:31Z</time>
      </trkpt>
      <trkpt lat="44.32307" lon="6.66559">
        <ele>1557.9</ele>
        <time>2022-06-12T09:04:32Z</time>
      </trkpt>
      <trkpt lat="44.32309" lon="6.6655">
        <ele>1558.2</ele>
        <time>2022-06-12T09:04:33Z</time>
      </trkpt>
      <trkpt lat="44.3231" lon="6.66541">
        <ele>1558.3</ele>
        <time>2022-06-12T09:04:34Z</time>
      </trkpt>
      <trkpt lat="44.32311" lon="6.66531">
        <ele>1558.1</ele>
        <time>2022-06-12T09:04:35Z</time>
      </trkpt>
      <trkpt lat="44.32312" lon="6.6652">
        <ele>1558.1</ele>
        <time>2022-06-12T09:04:36Z</time>
      </trkpt>
      <trkpt lat="44.32313" lon="6.66509">
        <ele>1558.1</ele>
        <time>2022-06-12T09:04:37Z</time>
      </trkpt>
      <trkpt lat="44.32314" lon="6.66497">
        <ele>1557.8</ele>
        <time>2022-06-12T09:04:38Z</time>
      </trkpt>
      <trkpt lat="44.32314" lon="6.66486">
        <ele>1556.7</ele>
        <time>2022-06-12T09:04:39Z</time>
      </trkpt>
      <trkpt lat="44.32315" lon="6.66474">
        <ele>1555.8</ele>
        <time>2022-06-12T09:04:40Z</time>
      </trkpt>
      <trkpt lat="44.32315" lon="6.66462">
        <ele>1555.3</ele>
        <time>2022-06-12T09:04:41Z</time>
      </trkpt>
      <trkpt lat="44.32315" lon="6.66449">
        <ele>1554.5</ele>
        <time>2022-06-12T09:04:42Z</time>
      </trkpt>
      <trkpt lat="44.32314" lon="6.66436">
        <ele>1553.5</ele>
        <time>2022-06-12T09:04:43Z</time>
      </trkpt>
      <trkpt lat="44.32313" lon="6.66423">
        <ele>1552.4</ele>
        <time>2022-06-12T09:04:44Z</time>
      </trkpt>
      <trkpt lat="44.32313" lon="6.6641">
        <ele>1551.2</ele>
        <time>2022-06-12T09:04:45Z</time>
      </trkpt>
      <trkpt lat="44.32312" lon="6.66397">
        <ele>1549.7</ele>
        <time>2022-06-12T09:04:46Z</time>
      </trkpt>
      <trkpt lat="44.32311" lon="6.66383">
        <ele>1548.3</ele>
        <time>2022-06-12T09:04:47Z</time>
      </trkpt>
      <trkpt lat="44.3231" lon="6.66369">
        <ele>1547</ele>
        <time>2022-06-12T09:04:48Z</time>
      </trkpt>
      <trkpt lat="44.32309" lon="6.66355">
        <ele>1546.4</ele>
        <time>2022-06-12T09:04:49Z</time>
      </trkpt>
      <trkpt lat="44.32309" lon="6.6634">
        <ele>1546.7</ele>
        <time>2022-06-12T09:04:50Z</time>
      </trkpt>
      <trkpt lat="44.32308" lon="6.66326">
        <ele>1546.9</ele>
        <time>2022-06-12T09:04:51Z</time>
      </trkpt>
      <trkpt lat="44.32305" lon="6.66312">
        <ele>1546.6</ele>
        <time>2022-06-12T09:04:52Z</time>
      </trkpt>
      <trkpt lat="44.32301" lon="6.66297">
        <ele>1546.1</ele>
        <time>2022-06-12T09:04:53Z</time>
      </trkpt>
      <trkpt lat="44.32297" lon="6.66283">
        <ele>1545.8</ele>
        <time>2022-06-12T09:04:54Z</time>
      </trkpt>
      <trkpt lat="44.32294" lon="6.66268">
        <ele>1545.1</ele>
        <time>2022-06-12T09:04:55Z</time>
      </trkpt>
      <trkpt lat="44.32292" lon="6.66253">
        <ele>1544.5</ele>
        <time>2022-06-12T09:04:56Z</time>
      </trkpt>
      <trkpt lat="44.32292" lon="6.66236">
        <ele>1544</ele>
        <time>2022-06-12T09:04:57Z</time>
      </trkpt>
      <trkpt lat="44.32291" lon="6.6622">
        <ele>1543.3</ele>
        <time>2022-06-12T09:04:58Z</time>
      </trkpt>
      <trkpt lat="44.32289" lon="6.66204">
        <ele>1542.2</ele>
        <time>2022-06-12T09:04:59Z</time>
      </trkpt>
      <trkpt lat="44.32285" lon="6.66189">
        <ele>1540.7</ele>
        <time>2022-06-12T09:05:00Z</time>
      </trkpt>
      <trkpt lat="44.32279" lon="6.66174">
        <ele>1539.8</ele>
        <time>2022-06-12T09:05:01Z</time>
      </trkpt>
      <trkpt lat="44.32274" lon="6.66159">
        <ele>1539</ele>
        <time>2022-06-12T09:05:02Z</time>
      </trkpt>
      <trkpt lat="44.32271" lon="6.66143">
        <ele>1538.6</ele>
        <time>2022-06-12T09:05:03Z</time>
      </trkpt>
      <trkpt lat="44.32269" lon="6.66127">
        <ele>1538.1</ele>
        <time>2022-06-12T09:05:04Z</time>
      </trkpt>
      <trkpt lat="44.32269" lon="6.66112">
        <ele>1538.2</ele>
        <time>2022-06-12T09:05:05Z</time>
      </trkpt>
      <trkpt lat="44.32271" lon="6.66097">
        <ele>1538</ele>
        <time>2022-06-12T09:05:06Z</time>
      </trkpt>
      <trkpt lat="44.32274" lon="6.66083">
        <ele>1538.3</ele>
        <time>2022-06-12T09:05:07Z</time>
      </trkpt>
      <trkpt lat="44.32276" lon="6.66071">
        <ele>1538.1</ele>
        <time>2022-06-12T09:05:08Z</time>
      </trkpt>
      <trkpt lat="44.32278" lon="6.6606">
        <ele>1537.6</ele>
        <time>2022-06-12T09:05:09Z</time>
      </trkpt>
      <trkpt lat="44.32278" lon="6.6605">
        <ele>1536.6</ele>
        <time>2022-06-12T09:05:10Z</time>
      </trkpt>
      <trkpt lat="44.32276" lon="6.66041">
        <ele>1535.6</ele>
        <time>2022-06-12T09:05:11Z</time>
      </trkpt>
      <trkpt lat="44.32273" lon="6.66034">
        <ele>1534.7</ele>
        <time>2022-06-12T09:05:12Z</time>
      </trkpt>
      <trkpt lat="44.32268" lon="6.66029">
        <ele>1534</ele>
        <time>2022-06-12T09:05:13Z</time>
      </trkpt>
      <trkpt lat="44.32262" lon="6.6603">
        <ele>1533.2</ele>
        <time>2022-06-12T09:05:14Z</time>
      </trkpt>
      <trkpt lat="44.32256" lon="6.66034">
        <ele>1532.1</ele>
        <time>2022-06-12T09:05:15Z</time>
      </trkpt>
      <trkpt lat="44.32249" lon="6.66038">
        <ele>1530.4</ele>
        <time>2022-06-12T09:05:16Z</time>
      </trkpt>
      <trkpt lat="44.32242" lon="6.6604">
        <ele>1528.3</ele>
        <time>2022-06-12T09:05:17Z</time>
      </trkpt>
      <trkpt lat="44.32234" lon="6.66039">
        <ele>1526.5</ele>
        <time>2022-06-12T09:05:18Z</time>
      </trkpt>
      <trkpt lat="44.32227" lon="6.66036">
        <ele>1525.2</ele>
        <time>2022-06-12T09:05:19Z</time>
      </trkpt>
      <trkpt lat="44.32219" lon="6.6603">
        <ele>1524.7</ele>
        <time>2022-06-12T09:05:20Z</time>
      </trkpt>
      <trkpt lat="44.32212" lon="6.66022">
        <ele>1524.4</ele>
        <time>2022-06-12T09:05:21Z</time>
      </trkpt>
      <trkpt lat="44.32205" lon="6.66012">
        <ele>1524.4</ele>
        <time>2022-06-12T09:05:22Z</time>
      </trkpt>
      <trkpt lat="44.32199" lon="6.66002">
        <ele>1524.7</ele>
        <time>2022-06-12T09:05:23Z</time>
      </trkpt>
      <trkpt lat="44.32192" lon="6.65991">
        <ele>1524.3</ele>
        <time>2022-06-12T09:05:24Z</time>
      </trkpt>
      <trkpt lat="44.32186" lon="6.6598">
        <ele>1523.7</ele>
        <time>2022-06-12T09:05:25Z</time>
      </trkpt>
      <trkpt lat="44.3218" lon="6.65969">
        <ele>1523</ele>
        <time>2022-06-12T09:05:26Z</time>
      </trkpt>
      <trkpt lat="44.32173" lon="6.65957">
        <ele>1522.3</ele>
        <time>2022-06-12T09:05:27Z</time>
      </trkpt>
      <trkpt lat="44.32165" lon="6.65945">
        <ele>1521.5</ele>
        <time>2022-06-12T09:05:28Z</time>
      </trkpt>
      <trkpt lat="44.32157" lon="6.65933">
        <ele>1521.2</ele>
        <time>2022-06-12T09:05:29Z</time>
      </trkpt>
      <trkpt lat="44.32149" lon="6.65921">
        <ele>1521</ele>
        <time>2022-06-12T09:05:30Z</time>
      </trkpt>
      <trkpt lat="44.32141" lon="6.6591">
        <ele>1520.5</ele>
        <time>2022-06-12T09:05:31Z</time>
      </trkpt>
      <trkpt lat="44.32132" lon="6.65898">
        <ele>1518.9</ele>
        <time>2022-06-12T09:05:32Z</time>
      </trkpt>
      <trkpt lat="44.32123" lon="6.65886">
        <ele>1517.1</ele>
        <time>2022-06-12T09:05:33Z</time>
      </trkpt>
      <trkpt lat="44.32114" lon="6.65875">
        <ele>1515.4</ele>
        <time>2022-06-12T09:05:34Z</time>
      </trkpt>
      <trkpt lat="44.32105" lon="6.65863">
        <ele>1514.6</ele>
        <time>2022-06-12T09:05:35Z</time>
      </trkpt>
      <trkpt lat="44.32096" lon="6.6585">
        <ele>1513.1</ele>
        <time>2022-06-12T09:05:36Z</time>
      </trkpt>
      <trkpt lat="44.32088" lon="6.65836">
        <ele>1511.6</ele>
        <time>2022-06-12T09:05:37Z</time>
      </trkpt>
      <trkpt lat="44.32081" lon="6.65821">
        <ele>1510</ele>
        <time>2022-06-12T09:05:38Z</time>
      </trkpt>
      <trkpt lat="44.32074" lon="6.65805">
        <ele>1508.2</ele>
        <time>2022-06-12T09:05:39Z</time>
      </trkpt>
      <trkpt lat="44.32067" lon="6.65791">
        <ele>1507</ele>
        <time>2022-06-12T09:05:40Z</time>
      </trkpt>
      <trkpt lat="44.32062" lon="6.65776">
        <ele>1506.2</ele>
        <time>2022-06-12T09:05:41Z</time>
      </trkpt>
      <trkpt lat="44.32058" lon="6.65761">
        <ele>1506.7</ele>
        <time>2022-06-12T09:05:42Z</time>
      </trkpt>
      <trkpt lat="44.32055" lon="6.65746">
        <ele>1507.4</ele>
        <time>2022-06-12T09:05:43Z</time>
      </trkpt>
      <trkpt lat="44.32052" lon="6.65732">
        <ele>1508</ele>
        <time>2022-06-12T09:05:44Z</time>
      </trkpt>
      <trkpt lat="44.32046" lon="6.6572">
        <ele>1507.7</ele>
        <time>2022-06-12T09:05:45Z</time>
      </trkpt>
      <trkpt lat="44.32039" lon="6.65708">
        <ele>1507.8</ele>
        <time>2022-06-12T09:05:46Z</time>
      </trkpt>
      <trkpt lat="44.32031" lon="6.65698">
        <ele>1506.5</ele>
        <time>2022-06-12T09:05:47Z</time>
      </trkpt>
      <trkpt lat="44.32021" lon="6.65688">
        <ele>1505.6</ele>
        <time>2022-06-12T09:05:48Z</time>
      </trkpt>
      <trkpt lat="44.32012" lon="6.6568">
        <ele>1504.8</ele>
        <time>2022-06-12T09:05:49Z</time>
      </trkpt>
      <trkpt lat="44.32004" lon="6.65672">
        <ele>1503.7</ele>
        <time>2022-06-12T09:05:50Z</time>
      </trkpt>
      <trkpt lat="44.31997" lon="6.65666">
        <ele>1502.3</ele>
        <time>2022-06-12T09:05:51Z</time>
      </trkpt>
      <trkpt lat="44.3199" lon="6.6566">
        <ele>1500</ele>
        <time>2022-06-12T09:05:52Z</time>
      </trkpt>
      <trkpt lat="44.31985" lon="6.65657">
        <ele>1497.5</ele>
        <time>2022-06-12T09:05:53Z</time>
      </trkpt>
      <trkpt lat="44.3198" lon="6.65655">
        <ele>1494.9</ele>
        <time>2022-06-12T09:05:54Z</time>
      </trkpt>
      <trkpt lat="44.31976" lon="6.65653">
        <ele>1492.9</ele>
        <time>2022-06-12T09:05:55Z</time>
      </trkpt>
      <trkpt lat="44.31973" lon="6.6565">
        <ele>1492.3</ele>
        <time>2022-06-12T09:05:56Z</time>
      </trkpt>
      <trkpt lat="44.31971" lon="6.65648">
        <ele>1491.9</ele>
        <time>2022-06-12T09:05:57Z</time>
      </trkpt>
      <trkpt lat="44.31971" lon="6.65646">
        <ele>1491.8</ele>
        <time>2022-06-12T09:05:58Z</time>
      </trkpt>
      <trkpt lat="44.3197" lon="6.65646">
        <ele>1491.9</ele>
        <time>2022-06-12T09:05:59Z</time>
      </trkpt>
      <trkpt lat="44.3197" lon="6.65644">
        <ele>1492.2</ele>
        <time>2022-06-12T09:06:00Z</time>
      </trkpt>
      <trkpt lat="44.3197" lon="6.65642">
        <ele>1492.7</ele>
        <time>2022-06-12T09:06:01Z</time>
      </trkpt>
      <trkpt lat="44.3197" lon="6.65639">
        <ele>1493.5</ele>
        <time>2022-06-12T09:06:02Z</time>
      </trkpt>
      <trkpt lat="44.3197" lon="6.65636">
        <ele>1494</ele>
        <time>2022-06-12T09:06:03Z</time>
      </trkpt>
      <trkpt lat="44.3197" lon="6.65631">
        <ele>1494.5</ele>
        <time>2022-06-12T09:06:04Z</time>
      </trkpt>
      <trkpt lat="44.3197" lon="6.65625">
        <ele>1494.7</ele>
        <time>2022-06-12T09:06:05Z</time>
      </trkpt>
      <trkpt lat="44.31969" lon="6.65619">
        <ele>1494.7</ele>
        <time>2022-06-12T09:06:06Z</time>
      </trkpt>
      <trkpt lat="44.31968" lon="6.65612">
        <ele>1494.8</ele>
        <time>2022-06-12T09:06:07Z</time>
      </trkpt>
      <trkpt lat="44.31967" lon="6.65605">
        <ele>1494.1</ele>
        <time>2022-06-12T09:06:08Z</time>
      </trkpt>
      <trkpt lat="44.31967" lon="6.65596">
        <ele>1493.4</ele>
        <time>2022-06-12T09:06:09Z</time>
      </trkpt>
      <trkpt lat="44.31967" lon="6.65586">
        <ele>1492.9</ele>
        <time>2022-06-12T09:06:10Z</time>
      </trkpt>
      <trkpt lat="44.31967" lon="6.65576">
        <ele>1492.5</ele>
        <time>2022-06-12T09:06:11Z</time>
      </trkpt>
      <trkpt lat="44.31967" lon="6.65565">
        <ele>1491.8</ele>
        <time>2022-06-12T09:06:12Z</time>
      </trkpt>
      <trkpt lat="44.31965" lon="6.65554">
        <ele>1490.5</ele>
        <time>2022-06-12T09:06:13Z</time>
      </trkpt>
      <trkpt lat="44.31963" lon="6.65543">
        <ele>1489.6</ele>
        <time>2022-06-12T09:06:14Z</time>
      </trkpt>
      <trkpt lat="44.31962" lon="6.65531">
        <ele>1489.4</ele>
        <time>2022-06-12T09:06:15Z</time>
      </trkpt>
      <trkpt lat="44.31962" lon="6.65517">
        <ele>1489.5</ele>
        <time>2022-06-12T09:06:16Z</time>
      </trkpt>
      <trkpt lat="44.31961" lon="6.65504">
        <ele>1489.6</ele>
        <time>2022-06-12T09:06:17Z</time>
      </trkpt>
      <trkpt lat="44.31962" lon="6.65489">
        <ele>1489.1</ele>
        <time>2022-06-12T09:06:18Z</time>
      </trkpt>
      <trkpt lat="44.31962" lon="6.65475">
        <ele>1488.5</ele>
        <time>2022-06-12T09:06:19Z</time>
      </trkpt>
      <trkpt lat="44.31963" lon="6.65459">
        <ele>1487.6</ele>
        <time>2022-06-12T09:06:20Z</time>
      </trkpt>
      <trkpt lat="44.31963" lon="6.65444">
        <ele>1486.7</ele>
        <time>2022-06-12T09:06:21Z</time>
      </trkpt>
      <trkpt lat="44.31964" lon="6.65428">
        <ele>1485.2</ele>
        <time>2022-06-12T09:06:22Z</time>
      </trkpt>
      <trkpt lat="44.31964" lon="6.65413">
        <ele>1483.8</ele>
        <time>2022-06-12T09:06:23Z</time>
      </trkpt>
      <trkpt lat="44.31964" lon="6.65397">
        <ele>1482.7</ele>
        <time>2022-06-12T09:06:24Z</time>
      </trkpt>
      <trkpt lat="44.31965" lon="6.65382">
        <ele>1481.7</ele>
        <time>2022-06-12T09:06:25Z</time>
      </trkpt>
      <trkpt lat="44.31966" lon="6.65367">
        <ele>1480.6</ele>
        <time>2022-06-12T09:06:26Z</time>
      </trkpt>
      <trkpt lat="44.31967" lon="6.65351">
        <ele>1479.9</ele>
        <time>2022-06-12T09:06:27Z</time>
      </trkpt>
      <trkpt lat="44.31968" lon="6.65336">
        <ele>1479.6</ele>
        <time>2022-06-12T09:06:28Z</time>
      </trkpt>
      <trkpt lat="44.31969" lon="6.65321">
        <ele>1479.4</ele>
        <time>2022-06-12T09:06:29Z</time>
      </trkpt>
      <trkpt lat="44.3197" lon="6.65305">
        <ele>1479.1</ele>
        <time>2022-06-12T09:06:30Z</time>
      </trkpt>
      <trkpt lat="44.31971" lon="6.6529">
        <ele>1479.3</ele>
        <time>2022-06-12T09:06:31Z</time>
      </trkpt>
      <trkpt lat="44.31971" lon="6.65274">
        <ele>1479.9</ele>
        <time>2022-06-12T09:06:32Z</time>
      </trkpt>
      <trkpt lat="44.31972" lon="6.65258">
        <ele>1481.1</ele>
        <time>2022-06-12T09:06:33Z</time>
      </trkpt>
      <trkpt lat="44.31971" lon="6.65242">
        <ele>1482.1</ele>
        <time>2022-06-12T09:06:34Z</time>
      </trkpt>
      <trkpt lat="44.31968" lon="6.65226">
        <ele>1482.2</ele>
        <time>2022-06-12T09:06:35Z</time>
      </trkpt>
      <trkpt lat="44.31964" lon="6.65212">
        <ele>1481.4</ele>
        <time>2022-06-12T09:06:36Z</time>
      </trkpt>
      <trkpt lat="44.3196" lon="6.65198">
        <ele>1480.4</ele>
        <time>2022-06-12T09:06:37Z</time>
      </trkpt>
      <trkpt lat="44.31956" lon="6.65184">
        <ele>1479.7</ele>
        <time>2022-06-12T09:06:38Z</time>
      </trkpt>
      <trkpt lat="44.31953" lon="6.65169">
        <ele>1479.4</ele>
        <time>2022-06-12T09:06:39Z</time>
      </trkpt>
      <trkpt lat="44.3195" lon="6.65155">
        <ele>1479</ele>
        <time>2022-06-12T09:06:40Z</time>
      </trkpt>
      <trkpt lat="44.31947" lon="6.65141">
        <ele>1478.4</ele>
        <time>2022-06-12T09:06:41Z</time>
      </trkpt>
      <trkpt lat="44.31944" lon="6.65127">
        <ele>1477.4</ele>
        <time>2022-06-12T09:06:42Z</time>
      </trkpt>
      <trkpt lat="44.31941" lon="6.65113">
        <ele>1476.3</ele>
        <time>2022-06-12T09:06:43Z</time>
      </trkpt>
      <trkpt lat="44.31938" lon="6.65099">
        <ele>1476.5</ele>
        <time>2022-06-12T09:06:44Z</time>
      </trkpt>
      <trkpt lat="44.31936" lon="6.65084">
        <ele>1477.1</ele>
        <time>2022-06-12T09:06:45Z</time>
      </trkpt>
      <trkpt lat="44.31935" lon="6.65071">
        <ele>1477.9</ele>
        <time>2022-06-12T09:06:46Z</time>
      </trkpt>
      <trkpt lat="44.31934" lon="6.65057">
        <ele>1479</ele>
        <time>2022-06-12T09:06:47Z</time>
      </trkpt>
      <trkpt lat="44.31934" lon="6.65044">
        <ele>1478.4</ele>
        <time>2022-06-12T09:06:48Z</time>
      </trkpt>
      <trkpt lat="44.31933" lon="6.65031">
        <ele>1477.5</ele>
        <time>2022-06-12T09:06:49Z</time>
      </trkpt>
      <trkpt lat="44.31932" lon="6.65018">
        <ele>1477.3</ele>
        <time>2022-06-12T09:06:50Z</time>
      </trkpt>
      <trkpt lat="44.31931" lon="6.65006">
        <ele>1477.5</ele>
        <time>2022-06-12T09:06:51Z</time>
      </trkpt>
      <trkpt lat="44.31931" lon="6.64994">
        <ele>1478.1</ele>
        <time>2022-06-12T09:06:52Z</time>
      </trkpt>
      <trkpt lat="44.31931" lon="6.64981">
        <ele>1478.7</ele>
        <time>2022-06-12T09:06:53Z</time>
      </trkpt>
      <trkpt lat="44.31931" lon="6.64969">
        <ele>1479.8</ele>
        <time>2022-06-12T09:06:54Z</time>
      </trkpt>
      <trkpt lat="44.31931" lon="6.64958">
        <ele>1482</ele>
        <time>2022-06-12T09:06:55Z</time>
      </trkpt>
      <trkpt lat="44.31931" lon="6.64949">
        <ele>1484.1</ele>
        <time>2022-06-12T09:06:56Z</time>
      </trkpt>
      <trkpt lat="44.31931" lon="6.64944">
        <ele>1485.3</ele>
        <time>2022-06-12T09:06:57Z</time>
      </trkpt>
      <trkpt lat="44.31932" lon="6.6494">
        <ele>1486.5</ele>
        <time>2022-06-12T09:06:58Z</time>
      </trkpt>
      <trkpt lat="44.31931" lon="6.64938">
        <ele>1486.3</ele>
        <time>2022-06-12T09:06:59Z</time>
      </trkpt>
      <trkpt lat="44.31931" lon="6.64938">
        <ele>1486.3</ele>
        <time>2022-06-12T09:07:00Z</time>
      </trkpt>
      <trkpt lat="44.31929" lon="6.6493">
        <ele>1482.4</ele>
        <time>2022-06-12T09:07:05Z</time>
      </trkpt>
      <trkpt lat="44.31928" lon="6.64926">
        <ele>1481.8</ele>
        <time>2022-06-12T09:07:06Z</time>
      </trkpt>
      <trkpt lat="44.31927" lon="6.64921">
        <ele>1480.9</ele>
        <time>2022-06-12T09:07:07Z</time>
      </trkpt>
      <trkpt lat="44.31927" lon="6.64915">
        <ele>1480.6</ele>
        <time>2022-06-12T09:07:08Z</time>
      </trkpt>
      <trkpt lat="44.31927" lon="6.64908">
        <ele>1480.1</ele>
        <time>2022-06-12T09:07:09Z</time>
      </trkpt>
      <trkpt lat="44.31927" lon="6.64901">
        <ele>1480.2</ele>
        <time>2022-06-12T09:07:10Z</time>
      </trkpt>
      <trkpt lat="44.31927" lon="6.64893">
        <ele>1481.3</ele>
        <time>2022-06-12T09:07:11Z</time>
      </trkpt>
      <trkpt lat="44.31928" lon="6.64885">
        <ele>1482.5</ele>
        <time>2022-06-12T09:07:12Z</time>
      </trkpt>
      <trkpt lat="44.31928" lon="6.64876">
        <ele>1482.5</ele>
        <time>2022-06-12T09:07:13Z</time>
      </trkpt>
      <trkpt lat="44.31928" lon="6.64867">
        <ele>1481.9</ele>
        <time>2022-06-12T09:07:14Z</time>
      </trkpt>
      <trkpt lat="44.31927" lon="6.64858">
        <ele>1480.4</ele>
        <time>2022-06-12T09:07:15Z</time>
      </trkpt>
      <trkpt lat="44.31926" lon="6.64848">
        <ele>1478.8</ele>
        <time>2022-06-12T09:07:16Z</time>
      </trkpt>
      <trkpt lat="44.31925" lon="6.64838">
        <ele>1478.3</ele>
        <time>2022-06-12T09:07:17Z</time>
      </trkpt>
      <trkpt lat="44.31925" lon="6.64828">
        <ele>1478.2</ele>
        <time>2022-06-12T09:07:18Z</time>
      </trkpt>
      <trkpt lat="44.31925" lon="6.64818">
        <ele>1478.2</ele>
        <time>2022-06-12T09:07:19Z</time>
      </trkpt>
      <trkpt lat="44.31925" lon="6.64808">
        <ele>1477.7</ele>
        <time>2022-06-12T09:07:20Z</time>
      </trkpt>
      <trkpt lat="44.31923" lon="6.64797">
        <ele>1476.4</ele>
        <time>2022-06-12T09:07:21Z</time>
      </trkpt>
      <trkpt lat="44.31921" lon="6.64787">
        <ele>1474.9</ele>
        <time>2022-06-12T09:07:22Z</time>
      </trkpt>
      <trkpt lat="44.31919" lon="6.64777">
        <ele>1473.3</ele>
        <time>2022-06-12T09:07:23Z</time>
      </trkpt>
      <trkpt lat="44.31918" lon="6.64766">
        <ele>1472.2</ele>
        <time>2022-06-12T09:07:24Z</time>
      </trkpt>
      <trkpt lat="44.31916" lon="6.64756">
        <ele>1471.6</ele>
        <time>2022-06-12T09:07:25Z</time>
      </trkpt>
      <trkpt lat="44.31914" lon="6.64745">
        <ele>1471.2</ele>
        <time>2022-06-12T09:07:26Z</time>
      </trkpt>
      <trkpt lat="44.31912" lon="6.64735">
        <ele>1470.6</ele>
        <time>2022-06-12T09:07:27Z</time>
      </trkpt>
      <trkpt lat="44.3191" lon="6.64724">
        <ele>1470.1</ele>
        <time>2022-06-12T09:07:28Z</time>
      </trkpt>
      <trkpt lat="44.31909" lon="6.64713">
        <ele>1470</ele>
        <time>2022-06-12T09:07:29Z</time>
      </trkpt>
      <trkpt lat="44.31907" lon="6.64702">
        <ele>1470.2</ele>
        <time>2022-06-12T09:07:30Z</time>
      </trkpt>
      <trkpt lat="44.31906" lon="6.64691">
        <ele>1470.3</ele>
        <time>2022-06-12T09:07:31Z</time>
      </trkpt>
      <trkpt lat="44.31904" lon="6.64679">
        <ele>1470.3</ele>
        <time>2022-06-12T09:07:32Z</time>
      </trkpt>
      <trkpt lat="44.31904" lon="6.64667">
        <ele>1471.1</ele>
        <time>2022-06-12T09:07:33Z</time>
      </trkpt>
      <trkpt lat="44.31903" lon="6.64654">
        <ele>1471.2</ele>
        <time>2022-06-12T09:07:34Z</time>
      </trkpt>
      <trkpt lat="44.31903" lon="6.64642">
        <ele>1471.6</ele>
        <time>2022-06-12T09:07:35Z</time>
      </trkpt>
      <trkpt lat="44.31903" lon="6.64629">
        <ele>1471.2</ele>
        <time>2022-06-12T09:07:36Z</time>
      </trkpt>
      <trkpt lat="44.31903" lon="6.64617">
        <ele>1470.7</ele>
        <time>2022-06-12T09:07:37Z</time>
      </trkpt>
      <trkpt lat="44.31903" lon="6.64604">
        <ele>1469.9</ele>
        <time>2022-06-12T09:07:38Z</time>
      </trkpt>
      <trkpt lat="44.31903" lon="6.64591">
        <ele>1469.2</ele>
        <time>2022-06-12T09:07:39Z</time>
      </trkpt>
      <trkpt lat="44.31903" lon="6.64578">
        <ele>1468.5</ele>
        <time>2022-06-12T09:07:40Z</time>
      </trkpt>
      <trkpt lat="44.31903" lon="6.64565">
        <ele>1467.7</ele>
        <time>2022-06-12T09:07:41Z</time>
      </trkpt>
      <trkpt lat="44.31903" lon="6.64552">
        <ele>1467</ele>
        <time>2022-06-12T09:07:42Z</time>
      </trkpt>
      <trkpt lat="44.31903" lon="6.64539">
        <ele>1466.2</ele>
        <time>2022-06-12T09:07:43Z</time>
      </trkpt>
      <trkpt lat="44.31902" lon="6.64525">
        <ele>1465.1</ele>
        <time>2022-06-12T09:07:44Z</time>
      </trkpt>
      <trkpt lat="44.31901" lon="6.64511">
        <ele>1464.2</ele>
        <time>2022-06-12T09:07:45Z</time>
      </trkpt>
      <trkpt lat="44.319" lon="6.64497">
        <ele>1463.5</ele>
        <time>2022-06-12T09:07:46Z</time>
      </trkpt>
      <trkpt lat="44.31898" lon="6.64483">
        <ele>1463.4</ele>
        <time>2022-06-12T09:07:47Z</time>
      </trkpt>
      <trkpt lat="44.31896" lon="6.64469">
        <ele>1463</ele>
        <time>2022-06-12T09:07:48Z</time>
      </trkpt>
      <trkpt lat="44.31893" lon="6.64456">
        <ele>1462.5</ele>
        <time>2022-06-12T09:07:49Z</time>
      </trkpt>
      <trkpt lat="44.31889" lon="6.64443">
        <ele>1461.3</ele>
        <time>2022-06-12T09:07:50Z</time>
      </trkpt>
      <trkpt lat="44.31884" lon="6.6443">
        <ele>1459.3</ele>
        <time>2022-06-12T09:07:51Z</time>
      </trkpt>
      <trkpt lat="44.31879" lon="6.64419">
        <ele>1456.9</ele>
        <time>2022-06-12T09:07:52Z</time>
      </trkpt>
      <trkpt lat="44.31874" lon="6.64409">
        <ele>1454.3</ele>
        <time>2022-06-12T09:07:53Z</time>
      </trkpt>
      <trkpt lat="44.3187" lon="6.64397">
        <ele>1452.7</ele>
        <time>2022-06-12T09:07:54Z</time>
      </trkpt>
      <trkpt lat="44.31869" lon="6.64384">
        <ele>1452.6</ele>
        <time>2022-06-12T09:07:55Z</time>
      </trkpt>
      <trkpt lat="44.31868" lon="6.64371">
        <ele>1452.8</ele>
        <time>2022-06-12T09:07:56Z</time>
      </trkpt>
      <trkpt lat="44.31864" lon="6.64357">
        <ele>1452</ele>
        <time>2022-06-12T09:07:57Z</time>
      </trkpt>
      <trkpt lat="44.31859" lon="6.64345">
        <ele>1451.3</ele>
        <time>2022-06-12T09:07:58Z</time>
      </trkpt>
      <trkpt lat="44.31854" lon="6.64333">
        <ele>1450.7</ele>
        <time>2022-06-12T09:07:59Z</time>
      </trkpt>
      <trkpt lat="44.31851" lon="6.6432">
        <ele>1450.9</ele>
        <time>2022-06-12T09:08:00Z</time>
      </trkpt>
      <trkpt lat="44.31848" lon="6.64306">
        <ele>1451.4</ele>
        <time>2022-06-12T09:08:01Z</time>
      </trkpt>
      <trkpt lat="44.31846" lon="6.64292">
        <ele>1451.8</ele>
        <time>2022-06-12T09:08:02Z</time>
      </trkpt>
      <trkpt lat="44.31844" lon="6.64279">
        <ele>1451.9</ele>
        <time>2022-06-12T09:08:03Z</time>
      </trkpt>
      <trkpt lat="44.31842" lon="6.64264">
        <ele>1451.4</ele>
        <time>2022-06-12T09:08:04Z</time>
      </trkpt>
      <trkpt lat="44.3184" lon="6.6425">
        <ele>1451</ele>
        <time>2022-06-12T09:08:05Z</time>
      </trkpt>
      <trkpt lat="44.31839" lon="6.64236">
        <ele>1450.4</ele>
        <time>2022-06-12T09:08:06Z</time>
      </trkpt>
      <trkpt lat="44.31839" lon="6.64222">
        <ele>1450.3</ele>
        <time>2022-06-12T09:08:07Z</time>
      </trkpt>
      <trkpt lat="44.31839" lon="6.64208">
        <ele>1451</ele>
        <time>2022-06-12T09:08:08Z</time>
      </trkpt>
      <trkpt lat="44.31839" lon="6.64194">
        <ele>1451.5</ele>
        <time>2022-06-12T09:08:09Z</time>
      </trkpt>
      <trkpt lat="44.31839" lon="6.64179">
        <ele>1451.4</ele>
        <time>2022-06-12T09:08:10Z</time>
      </trkpt>
      <trkpt lat="44.31839" lon="6.64164">
        <ele>1451.3</ele>
        <time>2022-06-12T09:08:11Z</time>
      </trkpt>
      <trkpt lat="44.3184" lon="6.64149">
        <ele>1450.4</ele>
        <time>2022-06-12T09:08:12Z</time>
      </trkpt>
      <trkpt lat="44.31841" lon="6.64134">
        <ele>1449.9</ele>
        <time>2022-06-12T09:08:13Z</time>
      </trkpt>
      <trkpt lat="44.31842" lon="6.64119">
        <ele>1450.3</ele>
        <time>2022-06-12T09:08:14Z</time>
      </trkpt>
      <trkpt lat="44.31844" lon="6.64104">
        <ele>1450.6</ele>
        <time>2022-06-12T09:08:15Z</time>
      </trkpt>
      <trkpt lat="44.31846" lon="6.64089">
        <ele>1450.6</ele>
        <time>2022-06-12T09:08:16Z</time>
      </trkpt>
      <trkpt lat="44.31846" lon="6.64073">
        <ele>1450.8</ele>
        <time>2022-06-12T09:08:17Z</time>
      </trkpt>
      <trkpt lat="44.31845" lon="6.64058">
        <ele>1450.5</ele>
        <time>2022-06-12T09:08:18Z</time>
      </trkpt>
      <trkpt lat="44.31843" lon="6.64043">
        <ele>1450.7</ele>
        <time>2022-06-12T09:08:19Z</time>
      </trkpt>
      <trkpt lat="44.31841" lon="6.64028">
        <ele>1450.1</ele>
        <time>2022-06-12T09:08:20Z</time>
      </trkpt>
      <trkpt lat="44.31839" lon="6.64013">
        <ele>1447.4</ele>
        <time>2022-06-12T09:08:21Z</time>
      </trkpt>
      <trkpt lat="44.31837" lon="6.63998">
        <ele>1444.7</ele>
        <time>2022-06-12T09:08:22Z</time>
      </trkpt>
      <trkpt lat="44.31835" lon="6.63983">
        <ele>1445</ele>
        <time>2022-06-12T09:08:23Z</time>
      </trkpt>
      <trkpt lat="44.31833" lon="6.63969">
        <ele>1445.1</ele>
        <time>2022-06-12T09:08:24Z</time>
      </trkpt>
      <trkpt lat="44.31832" lon="6.63955">
        <ele>1445.5</ele>
        <time>2022-06-12T09:08:25Z</time>
      </trkpt>
      <trkpt lat="44.31831" lon="6.63941">
        <ele>1445.7</ele>
        <time>2022-06-12T09:08:26Z</time>
      </trkpt>
      <trkpt lat="44.3183" lon="6.63926">
        <ele>1444.9</ele>
        <time>2022-06-12T09:08:27Z</time>
      </trkpt>
      <trkpt lat="44.31828" lon="6.63912">
        <ele>1444.4</ele>
        <time>2022-06-12T09:08:28Z</time>
      </trkpt>
      <trkpt lat="44.31827" lon="6.63897">
        <ele>1444.2</ele>
        <time>2022-06-12T09:08:29Z</time>
      </trkpt>
      <trkpt lat="44.31826" lon="6.63883">
        <ele>1444.7</ele>
        <time>2022-06-12T09:08:30Z</time>
      </trkpt>
      <trkpt lat="44.31825" lon="6.63868">
        <ele>1445.5</ele>
        <time>2022-06-12T09:08:31Z</time>
      </trkpt>
      <trkpt lat="44.31825" lon="6.63853">
        <ele>1445.6</ele>
        <time>2022-06-12T09:08:32Z</time>
      </trkpt>
      <trkpt lat="44.31825" lon="6.63839">
        <ele>1444.6</ele>
        <time>2022-06-12T09:08:33Z</time>
      </trkpt>
      <trkpt lat="44.31825" lon="6.63824">
        <ele>1443.5</ele>
        <time>2022-06-12T09:08:34Z</time>
      </trkpt>
      <trkpt lat="44.31824" lon="6.63809">
        <ele>1442</ele>
        <time>2022-06-12T09:08:35Z</time>
      </trkpt>
      <trkpt lat="44.31823" lon="6.63794">
        <ele>1440.6</ele>
        <time>2022-06-12T09:08:36Z</time>
      </trkpt>
      <trkpt lat="44.31823" lon="6.63779">
        <ele>1439.5</ele>
        <time>2022-06-12T09:08:37Z</time>
      </trkpt>
      <trkpt lat="44.31822" lon="6.63764">
        <ele>1438.7</ele>
        <time>2022-06-12T09:08:38Z</time>
      </trkpt>
      <trkpt lat="44.31821" lon="6.63748">
        <ele>1437</ele>
        <time>2022-06-12T09:08:39Z</time>
      </trkpt>
      <trkpt lat="44.3182" lon="6.63733">
        <ele>1435</ele>
        <time>2022-06-12T09:08:40Z</time>
      </trkpt>
      <trkpt lat="44.31819" lon="6.63717">
        <ele>1433.3</ele>
        <time>2022-06-12T09:08:41Z</time>
      </trkpt>
      <trkpt lat="44.31819" lon="6.63703">
        <ele>1432.3</ele>
        <time>2022-06-12T09:08:42Z</time>
      </trkpt>
      <trkpt lat="44.31821" lon="6.63688">
        <ele>1433.3</ele>
        <time>2022-06-12T09:08:43Z</time>
      </trkpt>
      <trkpt lat="44.31824" lon="6.63673">
        <ele>1435.4</ele>
        <time>2022-06-12T09:08:44Z</time>
      </trkpt>
      <trkpt lat="44.31826" lon="6.63658">
        <ele>1436.7</ele>
        <time>2022-06-12T09:08:45Z</time>
      </trkpt>
      <trkpt lat="44.31827" lon="6.63643">
        <ele>1437.4</ele>
        <time>2022-06-12T09:08:46Z</time>
      </trkpt>
      <trkpt lat="44.31828" lon="6.63628">
        <ele>1437.1</ele>
        <time>2022-06-12T09:08:47Z</time>
      </trkpt>
      <trkpt lat="44.31829" lon="6.63613">
        <ele>1436.1</ele>
        <time>2022-06-12T09:08:48Z</time>
      </trkpt>
      <trkpt lat="44.31829" lon="6.63598">
        <ele>1435.1</ele>
        <time>2022-06-12T09:08:49Z</time>
      </trkpt>
      <trkpt lat="44.3183" lon="6.63583">
        <ele>1433.9</ele>
        <time>2022-06-12T09:08:50Z</time>
      </trkpt>
      <trkpt lat="44.31831" lon="6.63569">
        <ele>1433.6</ele>
        <time>2022-06-12T09:08:51Z</time>
      </trkpt>
      <trkpt lat="44.31831" lon="6.63555">
        <ele>1433.1</ele>
        <time>2022-06-12T09:08:52Z</time>
      </trkpt>
      <trkpt lat="44.31831" lon="6.6354">
        <ele>1433.3</ele>
        <time>2022-06-12T09:08:53Z</time>
      </trkpt>
      <trkpt lat="44.31832" lon="6.63526">
        <ele>1433.3</ele>
        <time>2022-06-12T09:08:54Z</time>
      </trkpt>
      <trkpt lat="44.31833" lon="6.63512">
        <ele>1432.6</ele>
        <time>2022-06-12T09:08:55Z</time>
      </trkpt>
      <trkpt lat="44.31833" lon="6.63498">
        <ele>1431.7</ele>
        <time>2022-06-12T09:08:56Z</time>
      </trkpt>
      <trkpt lat="44.31834" lon="6.63485">
        <ele>1430.6</ele>
        <time>2022-06-12T09:08:57Z</time>
      </trkpt>
      <trkpt lat="44.31836" lon="6.63473">
        <ele>1430.4</ele>
        <time>2022-06-12T09:08:58Z</time>
      </trkpt>
      <trkpt lat="44.31839" lon="6.6346">
        <ele>1431.3</ele>
        <time>2022-06-12T09:08:59Z</time>
      </trkpt>
      <trkpt lat="44.31843" lon="6.63448">
        <ele>1432.7</ele>
        <time>2022-06-12T09:09:00Z</time>
      </trkpt>
      <trkpt lat="44.31847" lon="6.63437">
        <ele>1434.6</ele>
        <time>2022-06-12T09:09:01Z</time>
      </trkpt>
      <trkpt lat="44.31852" lon="6.63425">
        <ele>1436.4</ele>
        <time>2022-06-12T09:09:02Z</time>
      </trkpt>
      <trkpt lat="44.31856" lon="6.63414">
        <ele>1437.6</ele>
        <time>2022-06-12T09:09:03Z</time>
      </trkpt>
      <trkpt lat="44.3186" lon="6.63402">
        <ele>1436.6</ele>
        <time>2022-06-12T09:09:04Z</time>
      </trkpt>
      <trkpt lat="44.31863" lon="6.63389">
        <ele>1434.9</ele>
        <time>2022-06-12T09:09:05Z</time>
      </trkpt>
      <trkpt lat="44.31863" lon="6.63376">
        <ele>1431.1</ele>
        <time>2022-06-12T09:09:06Z</time>
      </trkpt>
      <trkpt lat="44.31862" lon="6.63363">
        <ele>1425.7</ele>
        <time>2022-06-12T09:09:07Z</time>
      </trkpt>
      <trkpt lat="44.31861" lon="6.63351">
        <ele>1423.9</ele>
        <time>2022-06-12T09:09:08Z</time>
      </trkpt>
      <trkpt lat="44.3186" lon="6.63339">
        <ele>1423.2</ele>
        <time>2022-06-12T09:09:09Z</time>
      </trkpt>
      <trkpt lat="44.31859" lon="6.63327">
        <ele>1423.2</ele>
        <time>2022-06-12T09:09:10Z</time>
      </trkpt>
      <trkpt lat="44.31859" lon="6.63315">
        <ele>1423.7</ele>
        <time>2022-06-12T09:09:11Z</time>
      </trkpt>
      <trkpt lat="44.31858" lon="6.63302">
        <ele>1423.6</ele>
        <time>2022-06-12T09:09:12Z</time>
      </trkpt>
      <trkpt lat="44.31858" lon="6.63289">
        <ele>1422</ele>
        <time>2022-06-12T09:09:13Z</time>
      </trkpt>
      <trkpt lat="44.31858" lon="6.63275">
        <ele>1420.6</ele>
        <time>2022-06-12T09:09:14Z</time>
      </trkpt>
      <trkpt lat="44.3186" lon="6.63262">
        <ele>1420.3</ele>
        <time>2022-06-12T09:09:15Z</time>
      </trkpt>
      <trkpt lat="44.31862" lon="6.63249">
        <ele>1420.8</ele>
        <time>2022-06-12T09:09:16Z</time>
      </trkpt>
      <trkpt lat="44.31864" lon="6.63236">
        <ele>1420.3</ele>
        <time>2022-06-12T09:09:17Z</time>
      </trkpt>
      <trkpt lat="44.31866" lon="6.63222">
        <ele>1419.2</ele>
        <time>2022-06-12T09:09:18Z</time>
      </trkpt>
      <trkpt lat="44.31868" lon="6.63208">
        <ele>1417.6</ele>
        <time>2022-06-12T09:09:19Z</time>
      </trkpt>
      <trkpt lat="44.31869" lon="6.63194">
        <ele>1415.7</ele>
        <time>2022-06-12T09:09:20Z</time>
      </trkpt>
      <trkpt lat="44.3187" lon="6.6318">
        <ele>1414.5</ele>
        <time>2022-06-12T09:09:21Z</time>
      </trkpt>
      <trkpt lat="44.31872" lon="6.63165">
        <ele>1414.2</ele>
        <time>2022-06-12T09:09:22Z</time>
      </trkpt>
      <trkpt lat="44.31874" lon="6.63151">
        <ele>1415.8</ele>
        <time>2022-06-12T09:09:23Z</time>
      </trkpt>
      <trkpt lat="44.31877" lon="6.63137">
        <ele>1417.5</ele>
        <time>2022-06-12T09:09:24Z</time>
      </trkpt>
      <trkpt lat="44.31879" lon="6.63123">
        <ele>1418.4</ele>
        <time>2022-06-12T09:09:25Z</time>
      </trkpt>
      <trkpt lat="44.31877" lon="6.63108">
        <ele>1416.4</ele>
        <time>2022-06-12T09:09:26Z</time>
      </trkpt>
      <trkpt lat="44.31874" lon="6.63093">
        <ele>1412.6</ele>
        <time>2022-06-12T09:09:27Z</time>
      </trkpt>
      <trkpt lat="44.3187" lon="6.6308">
        <ele>1409.1</ele>
        <time>2022-06-12T09:09:28Z</time>
      </trkpt>
      <trkpt lat="44.31867" lon="6.63065">
        <ele>1406.9</ele>
        <time>2022-06-12T09:09:29Z</time>
      </trkpt>
      <trkpt lat="44.31865" lon="6.63049">
        <ele>1405.2</ele>
        <time>2022-06-12T09:09:30Z</time>
      </trkpt>
      <trkpt lat="44.31863" lon="6.63035">
        <ele>1403.1</ele>
        <time>2022-06-12T09:09:31Z</time>
      </trkpt>
      <trkpt lat="44.3186" lon="6.63021">
        <ele>1400.9</ele>
        <time>2022-06-12T09:09:32Z</time>
      </trkpt>
      <trkpt lat="44.31859" lon="6.63011">
        <ele>1399.4</ele>
        <time>2022-06-12T09:09:33Z</time>
      </trkpt>
      <trkpt lat="44.31859" lon="6.63001">
        <ele>1398.5</ele>
        <time>2022-06-12T09:09:34Z</time>
      </trkpt>
      <trkpt lat="44.31861" lon="6.62991">
        <ele>1397.6</ele>
        <time>2022-06-12T09:09:35Z</time>
      </trkpt>
      <trkpt lat="44.31865" lon="6.62981">
        <ele>1398.9</ele>
        <time>2022-06-12T09:09:36Z</time>
      </trkpt>
      <trkpt lat="44.31869" lon="6.62971">
        <ele>1400.9</ele>
        <time>2022-06-12T09:09:37Z</time>
      </trkpt>
      <trkpt lat="44.31873" lon="6.62961">
        <ele>1401.6</ele>
        <time>2022-06-12T09:09:38Z</time>
      </trkpt>
      <trkpt lat="44.31877" lon="6.6295">
        <ele>1401.7</ele>
        <time>2022-06-12T09:09:39Z</time>
      </trkpt>
      <trkpt lat="44.31879" lon="6.62938">
        <ele>1401</ele>
        <time>2022-06-12T09:09:40Z</time>
      </trkpt>
      <trkpt lat="44.31882" lon="6.62926">
        <ele>1400.2</ele>
        <time>2022-06-12T09:09:41Z</time>
      </trkpt>
      <trkpt lat="44.31886" lon="6.62915">
        <ele>1399.8</ele>
        <time>2022-06-12T09:09:42Z</time>
      </trkpt>
      <trkpt lat="44.3189" lon="6.62903">
        <ele>1399</ele>
        <time>2022-06-12T09:09:43Z</time>
      </trkpt>
      <trkpt lat="44.31893" lon="6.62891">
        <ele>1398.1</ele>
        <time>2022-06-12T09:09:44Z</time>
      </trkpt>
      <trkpt lat="44.31896" lon="6.62879">
        <ele>1396.9</ele>
        <time>2022-06-12T09:09:45Z</time>
      </trkpt>
      <trkpt lat="44.31898" lon="6.62866">
        <ele>1395.3</ele>
        <time>2022-06-12T09:09:46Z</time>
      </trkpt>
      <trkpt lat="44.31901" lon="6.62853">
        <ele>1394</ele>
        <time>2022-06-12T09:09:47Z</time>
      </trkpt>
      <trkpt lat="44.31904" lon="6.6284">
        <ele>1392.5</ele>
        <time>2022-06-12T09:09:48Z</time>
      </trkpt>
      <trkpt lat="44.31906" lon="6.62826">
        <ele>1390.8</ele>
        <time>2022-06-12T09:09:49Z</time>
      </trkpt>
      <trkpt lat="44.3191" lon="6.62813">
        <ele>1389.5</ele>
        <time>2022-06-12T09:09:50Z</time>
      </trkpt>
      <trkpt lat="44.31914" lon="6.62801">
        <ele>1388.6</ele>
        <time>2022-06-12T09:09:51Z</time>
      </trkpt>
      <trkpt lat="44.31919" lon="6.62788">
        <ele>1388.5</ele>
        <time>2022-06-12T09:09:52Z</time>
      </trkpt>
      <trkpt lat="44.31925" lon="6.62777">
        <ele>1389</ele>
        <time>2022-06-12T09:09:53Z</time>
      </trkpt>
      <trkpt lat="44.31932" lon="6.62766">
        <ele>1389.7</ele>
        <time>2022-06-12T09:09:54Z</time>
      </trkpt>
      <trkpt lat="44.3194" lon="6.62755">
        <ele>1390.1</ele>
        <time>2022-06-12T09:09:55Z</time>
      </trkpt>
      <trkpt lat="44.31947" lon="6.62743">
        <ele>1390.6</ele>
        <time>2022-06-12T09:09:56Z</time>
      </trkpt>
      <trkpt lat="44.31955" lon="6.62732">
        <ele>1391.4</ele>
        <time>2022-06-12T09:09:57Z</time>
      </trkpt>
      <trkpt lat="44.31963" lon="6.62721">
        <ele>1392.3</ele>
        <time>2022-06-12T09:09:58Z</time>
      </trkpt>
      <trkpt lat="44.31971" lon="6.6271">
        <ele>1393.3</ele>
        <time>2022-06-12T09:09:59Z</time>
      </trkpt>
      <trkpt lat="44.31978" lon="6.627">
        <ele>1394.9</ele>
        <time>2022-06-12T09:10:00Z</time>
      </trkpt>
      <trkpt lat="44.31982" lon="6.62688">
        <ele>1394.9</ele>
        <time>2022-06-12T09:10:01Z</time>
      </trkpt>
      <trkpt lat="44.31985" lon="6.62674">
        <ele>1392.9</ele>
        <time>2022-06-12T09:10:02Z</time>
      </trkpt>
      <trkpt lat="44.31987" lon="6.62661">
        <ele>1391.3</ele>
        <time>2022-06-12T09:10:03Z</time>
      </trkpt>
      <trkpt lat="44.31992" lon="6.62649">
        <ele>1391.2</ele>
        <time>2022-06-12T09:10:04Z</time>
      </trkpt>
      <trkpt lat="44.31997" lon="6.62639">
        <ele>1392.3</ele>
        <time>2022-06-12T09:10:05Z</time>
      </trkpt>
      <trkpt lat="44.32003" lon="6.6263">
        <ele>1394.1</ele>
        <time>2022-06-12T09:10:06Z</time>
      </trkpt>
      <trkpt lat="44.32008" lon="6.62622">
        <ele>1396.8</ele>
        <time>2022-06-12T09:10:07Z</time>
      </trkpt>
      <trkpt lat="44.32012" lon="6.62614">
        <ele>1398.7</ele>
        <time>2022-06-12T09:10:08Z</time>
      </trkpt>
      <trkpt lat="44.32014" lon="6.62606">
        <ele>1398.2</ele>
        <time>2022-06-12T09:10:09Z</time>
      </trkpt>
      <trkpt lat="44.32014" lon="6.62596">
        <ele>1396.7</ele>
        <time>2022-06-12T09:10:10Z</time>
      </trkpt>
      <trkpt lat="44.32015" lon="6.62586">
        <ele>1394.9</ele>
        <time>2022-06-12T09:10:11Z</time>
      </trkpt>
      <trkpt lat="44.32015" lon="6.62576">
        <ele>1393.3</ele>
        <time>2022-06-12T09:10:12Z</time>
      </trkpt>
      <trkpt lat="44.32016" lon="6.62566">
        <ele>1392.6</ele>
        <time>2022-06-12T09:10:13Z</time>
      </trkpt>
      <trkpt lat="44.32017" lon="6.62555">
        <ele>1392.2</ele>
        <time>2022-06-12T09:10:14Z</time>
      </trkpt>
      <trkpt lat="44.32019" lon="6.62542">
        <ele>1389.4</ele>
        <time>2022-06-12T09:10:15Z</time>
      </trkpt>
      <trkpt lat="44.3202" lon="6.6253">
        <ele>1386.5</ele>
        <time>2022-06-12T09:10:16Z</time>
      </trkpt>
      <trkpt lat="44.32022" lon="6.62518">
        <ele>1384.1</ele>
        <time>2022-06-12T09:10:17Z</time>
      </trkpt>
      <trkpt lat="44.32024" lon="6.62506">
        <ele>1382.4</ele>
        <time>2022-06-12T09:10:18Z</time>
      </trkpt>
      <trkpt lat="44.32028" lon="6.62496">
        <ele>1381.8</ele>
        <time>2022-06-12T09:10:19Z</time>
      </trkpt>
      <trkpt lat="44.32031" lon="6.62485">
        <ele>1381.3</ele>
        <time>2022-06-12T09:10:20Z</time>
      </trkpt>
      <trkpt lat="44.32032" lon="6.62472">
        <ele>1378.1</ele>
        <time>2022-06-12T09:10:21Z</time>
      </trkpt>
      <trkpt lat="44.3203" lon="6.62458">
        <ele>1376.7</ele>
        <time>2022-06-12T09:10:22Z</time>
      </trkpt>
      <trkpt lat="44.32028" lon="6.62445">
        <ele>1374.8</ele>
        <time>2022-06-12T09:10:23Z</time>
      </trkpt>
      <trkpt lat="44.32025" lon="6.62432">
        <ele>1376.6</ele>
        <time>2022-06-12T09:10:24Z</time>
      </trkpt>
      <trkpt lat="44.32022" lon="6.62419">
        <ele>1377.7</ele>
        <time>2022-06-12T09:10:25Z</time>
      </trkpt>
      <trkpt lat="44.32019" lon="6.62407">
        <ele>1377.4</ele>
        <time>2022-06-12T09:10:26Z</time>
      </trkpt>
      <trkpt lat="44.32015" lon="6.62395">
        <ele>1376.6</ele>
        <time>2022-06-12T09:10:27Z</time>
      </trkpt>
      <trkpt lat="44.32012" lon="6.62383">
        <ele>1374.5</ele>
        <time>2022-06-12T09:10:28Z</time>
      </trkpt>
      <trkpt lat="44.32008" lon="6.62372">
        <ele>1371.1</ele>
        <time>2022-06-12T09:10:29Z</time>
      </trkpt>
      <trkpt lat="44.32004" lon="6.62362">
        <ele>1367.6</ele>
        <time>2022-06-12T09:10:30Z</time>
      </trkpt>
      <trkpt lat="44.32002" lon="6.62353">
        <ele>1364.3</ele>
        <time>2022-06-12T09:10:31Z</time>
      </trkpt>
      <trkpt lat="44.32" lon="6.62344">
        <ele>1362.1</ele>
        <time>2022-06-12T09:10:32Z</time>
      </trkpt>
      <trkpt lat="44.31999" lon="6.62335">
        <ele>1361.6</ele>
        <time>2022-06-12T09:10:33Z</time>
      </trkpt>
      <trkpt lat="44.32002" lon="6.62327">
        <ele>1362.9</ele>
        <time>2022-06-12T09:10:34Z</time>
      </trkpt>
      <trkpt lat="44.32006" lon="6.62318">
        <ele>1365.4</ele>
        <time>2022-06-12T09:10:35Z</time>
      </trkpt>
      <trkpt lat="44.32009" lon="6.62309">
        <ele>1367.5</ele>
        <time>2022-06-12T09:10:36Z</time>
      </trkpt>
      <trkpt lat="44.32013" lon="6.62298">
        <ele>1368.7</ele>
        <time>2022-06-12T09:10:37Z</time>
      </trkpt>
      <trkpt lat="44.32015" lon="6.62287">
        <ele>1368.3</ele>
        <time>2022-06-12T09:10:38Z</time>
      </trkpt>
      <trkpt lat="44.32016" lon="6.62274">
        <ele>1367</ele>
        <time>2022-06-12T09:10:39Z</time>
      </trkpt>
      <trkpt lat="44.32017" lon="6.62261">
        <ele>1365.5</ele>
        <time>2022-06-12T09:10:40Z</time>
      </trkpt>
      <trkpt lat="44.32018" lon="6.62248">
        <ele>1364.5</ele>
        <time>2022-06-12T09:10:41Z</time>
      </trkpt>
      <trkpt lat="44.3202" lon="6.62235">
        <ele>1364.4</ele>
        <time>2022-06-12T09:10:42Z</time>
      </trkpt>
      <trkpt lat="44.32022" lon="6.62222">
        <ele>1364.5</ele>
        <time>2022-06-12T09:10:43Z</time>
      </trkpt>
      <trkpt lat="44.32024" lon="6.62208">
        <ele>1364.7</ele>
        <time>2022-06-12T09:10:44Z</time>
      </trkpt>
      <trkpt lat="44.32026" lon="6.62194">
        <ele>1364.6</ele>
        <time>2022-06-12T09:10:45Z</time>
      </trkpt>
      <trkpt lat="44.32028" lon="6.62181">
        <ele>1362.4</ele>
        <time>2022-06-12T09:10:46Z</time>
      </trkpt>
      <trkpt lat="44.32031" lon="6.62167">
        <ele>1361</ele>
        <time>2022-06-12T09:10:47Z</time>
      </trkpt>
      <trkpt lat="44.32034" lon="6.62152">
        <ele>1360.9</ele>
        <time>2022-06-12T09:10:48Z</time>
      </trkpt>
      <trkpt lat="44.32036" lon="6.62137">
        <ele>1360</ele>
        <time>2022-06-12T09:10:49Z</time>
      </trkpt>
      <trkpt lat="44.32037" lon="6.62122">
        <ele>1359.2</ele>
        <time>2022-06-12T09:10:50Z</time>
      </trkpt>
      <trkpt lat="44.32037" lon="6.62106">
        <ele>1358.5</ele>
        <time>2022-06-12T09:10:51Z</time>
      </trkpt>
      <trkpt lat="44.32038" lon="6.6209">
        <ele>1358.7</ele>
        <time>2022-06-12T09:10:52Z</time>
      </trkpt>
      <trkpt lat="44.32038" lon="6.62074">
        <ele>1358.2</ele>
        <time>2022-06-12T09:10:53Z</time>
      </trkpt>
      <trkpt lat="44.32038" lon="6.62058">
        <ele>1357.5</ele>
        <time>2022-06-12T09:10:54Z</time>
      </trkpt>
      <trkpt lat="44.32038" lon="6.62041">
        <ele>1358.7</ele>
        <time>2022-06-12T09:10:55Z</time>
      </trkpt>
      <trkpt lat="44.32039" lon="6.62025">
        <ele>1359.7</ele>
        <time>2022-06-12T09:10:56Z</time>
      </trkpt>
      <trkpt lat="44.32039" lon="6.6201">
        <ele>1358.1</ele>
        <time>2022-06-12T09:10:57Z</time>
      </trkpt>
      <trkpt lat="44.3204" lon="6.61996">
        <ele>1357.4</ele>
        <time>2022-06-12T09:10:58Z</time>
      </trkpt>
      <trkpt lat="44.32043" lon="6.61981">
        <ele>1357.6</ele>
        <time>2022-06-12T09:10:59Z</time>
      </trkpt>
      <trkpt lat="44.32046" lon="6.61967">
        <ele>1358.7</ele>
        <time>2022-06-12T09:11:00Z</time>
      </trkpt>
      <trkpt lat="44.32048" lon="6.61953">
        <ele>1358.1</ele>
        <time>2022-06-12T09:11:01Z</time>
      </trkpt>
      <trkpt lat="44.32051" lon="6.61938">
        <ele>1355.8</ele>
        <time>2022-06-12T09:11:02Z</time>
      </trkpt>
      <trkpt lat="44.32053" lon="6.61923">
        <ele>1351.7</ele>
        <time>2022-06-12T09:11:03Z</time>
      </trkpt>
      <trkpt lat="44.32056" lon="6.61909">
        <ele>1347.7</ele>
        <time>2022-06-12T09:11:04Z</time>
      </trkpt>
      <trkpt lat="44.32059" lon="6.61895">
        <ele>1346.3</ele>
        <time>2022-06-12T09:11:05Z</time>
      </trkpt>
      <trkpt lat="44.32063" lon="6.61882">
        <ele>1344.6</ele>
        <time>2022-06-12T09:11:06Z</time>
      </trkpt>
      <trkpt lat="44.32067" lon="6.61869">
        <ele>1342.5</ele>
        <time>2022-06-12T09:11:07Z</time>
      </trkpt>
      <trkpt lat="44.32072" lon="6.61858">
        <ele>1342.3</ele>
        <time>2022-06-12T09:11:08Z</time>
      </trkpt>
      <trkpt lat="44.32079" lon="6.6185">
        <ele>1345.6</ele>
        <time>2022-06-12T09:11:09Z</time>
      </trkpt>
      <trkpt lat="44.32087" lon="6.61842">
        <ele>1348.4</ele>
        <time>2022-06-12T09:11:10Z</time>
      </trkpt>
      <trkpt lat="44.32094" lon="6.61833">
        <ele>1351</ele>
        <time>2022-06-12T09:11:11Z</time>
      </trkpt>
      <trkpt lat="44.32101" lon="6.61823">
        <ele>1351.8</ele>
        <time>2022-06-12T09:11:12Z</time>
      </trkpt>
      <trkpt lat="44.32107" lon="6.61812">
        <ele>1350.4</ele>
        <time>2022-06-12T09:11:13Z</time>
      </trkpt>
      <trkpt lat="44.32112" lon="6.61801">
        <ele>1348.4</ele>
        <time>2022-06-12T09:11:14Z</time>
      </trkpt>
      <trkpt lat="44.32118" lon="6.61791">
        <ele>1346.5</ele>
        <time>2022-06-12T09:11:15Z</time>
      </trkpt>
      <trkpt lat="44.32123" lon="6.6178">
        <ele>1343.1</ele>
        <time>2022-06-12T09:11:16Z</time>
      </trkpt>
      <trkpt lat="44.32128" lon="6.61769">
        <ele>1340.9</ele>
        <time>2022-06-12T09:11:17Z</time>
      </trkpt>
      <trkpt lat="44.32136" lon="6.6176">
        <ele>1340.8</ele>
        <time>2022-06-12T09:11:18Z</time>
      </trkpt>
      <trkpt lat="44.32145" lon="6.61754">
        <ele>1342.1</ele>
        <time>2022-06-12T09:11:19Z</time>
      </trkpt>
      <trkpt lat="44.32153" lon="6.61747">
        <ele>1342.2</ele>
        <time>2022-06-12T09:11:20Z</time>
      </trkpt>
      <trkpt lat="44.32162" lon="6.6174">
        <ele>1341.5</ele>
        <time>2022-06-12T09:11:21Z</time>
      </trkpt>
      <trkpt lat="44.32171" lon="6.61733">
        <ele>1340.5</ele>
        <time>2022-06-12T09:11:22Z</time>
      </trkpt>
      <trkpt lat="44.3218" lon="6.61725">
        <ele>1338.8</ele>
        <time>2022-06-12T09:11:23Z</time>
      </trkpt>
      <trkpt lat="44.32188" lon="6.61716">
        <ele>1337.5</ele>
        <time>2022-06-12T09:11:24Z</time>
      </trkpt>
      <trkpt lat="44.32197" lon="6.61707">
        <ele>1336.1</ele>
        <time>2022-06-12T09:11:25Z</time>
      </trkpt>
      <trkpt lat="44.32205" lon="6.61698">
        <ele>1334.7</ele>
        <time>2022-06-12T09:11:26Z</time>
      </trkpt>
      <trkpt lat="44.32213" lon="6.61691">
        <ele>1334.4</ele>
        <time>2022-06-12T09:11:27Z</time>
      </trkpt>
      <trkpt lat="44.32221" lon="6.61684">
        <ele>1334.4</ele>
        <time>2022-06-12T09:11:28Z</time>
      </trkpt>
      <trkpt lat="44.32228" lon="6.61677">
        <ele>1334.6</ele>
        <time>2022-06-12T09:11:29Z</time>
      </trkpt>
      <trkpt lat="44.32234" lon="6.6167">
        <ele>1334.8</ele>
        <time>2022-06-12T09:11:30Z</time>
      </trkpt>
      <trkpt lat="44.32238" lon="6.61663">
        <ele>1333.9</ele>
        <time>2022-06-12T09:11:31Z</time>
      </trkpt>
      <trkpt lat="44.32241" lon="6.61652">
        <ele>1330.5</ele>
        <time>2022-06-12T09:11:32Z</time>
      </trkpt>
      <trkpt lat="44.3224" lon="6.6164">
        <ele>1325.1</ele>
        <time>2022-06-12T09:11:33Z</time>
      </trkpt>
      <trkpt lat="44.32239" lon="6.61629">
        <ele>1321.5</ele>
        <time>2022-06-12T09:11:34Z</time>
      </trkpt>
      <trkpt lat="44.32238" lon="6.61618">
        <ele>1318.4</ele>
        <time>2022-06-12T09:11:35Z</time>
      </trkpt>
      <trkpt lat="44.32236" lon="6.61607">
        <ele>1316.7</ele>
        <time>2022-06-12T09:11:36Z</time>
      </trkpt>
      <trkpt lat="44.32234" lon="6.61596">
        <ele>1317.8</ele>
        <time>2022-06-12T09:11:37Z</time>
      </trkpt>
      <trkpt lat="44.32232" lon="6.61584">
        <ele>1319.8</ele>
        <time>2022-06-12T09:11:38Z</time>
      </trkpt>
      <trkpt lat="44.3223" lon="6.61573">
        <ele>1324.1</ele>
        <time>2022-06-12T09:11:39Z</time>
      </trkpt>
      <trkpt lat="44.3223" lon="6.61563">
        <ele>1328</ele>
        <time>2022-06-12T09:11:40Z</time>
      </trkpt>
      <trkpt lat="44.32233" lon="6.61553">
        <ele>1330</ele>
        <time>2022-06-12T09:11:41Z</time>
      </trkpt>
      <trkpt lat="44.32237" lon="6.61544">
        <ele>1330.9</ele>
        <time>2022-06-12T09:11:42Z</time>
      </trkpt>
      <trkpt lat="44.32242" lon="6.61536">
        <ele>1330.3</ele>
        <time>2022-06-12T09:11:43Z</time>
      </trkpt>
      <trkpt lat="44.32247" lon="6.61527">
        <ele>1328.5</ele>
        <time>2022-06-12T09:11:44Z</time>
      </trkpt>
      <trkpt lat="44.32253" lon="6.6152">
        <ele>1326.5</ele>
        <time>2022-06-12T09:11:45Z</time>
      </trkpt>
      <trkpt lat="44.32259" lon="6.61514">
        <ele>1326.8</ele>
        <time>2022-06-12T09:11:46Z</time>
      </trkpt>
      <trkpt lat="44.32267" lon="6.61509">
        <ele>1326.5</ele>
        <time>2022-06-12T09:11:47Z</time>
      </trkpt>
      <trkpt lat="44.32275" lon="6.61505">
        <ele>1326.1</ele>
        <time>2022-06-12T09:11:48Z</time>
      </trkpt>
      <trkpt lat="44.32283" lon="6.61502">
        <ele>1325.5</ele>
        <time>2022-06-12T09:11:49Z</time>
      </trkpt>
      <trkpt lat="44.32291" lon="6.61499">
        <ele>1325</ele>
        <time>2022-06-12T09:11:50Z</time>
      </trkpt>
      <trkpt lat="44.32299" lon="6.61497">
        <ele>1324.5</ele>
        <time>2022-06-12T09:11:51Z</time>
      </trkpt>
      <trkpt lat="44.32308" lon="6.61494">
        <ele>1324.1</ele>
        <time>2022-06-12T09:11:52Z</time>
      </trkpt>
      <trkpt lat="44.32317" lon="6.61491">
        <ele>1322.8</ele>
        <time>2022-06-12T09:11:53Z</time>
      </trkpt>
      <trkpt lat="44.32326" lon="6.61488">
        <ele>1322.1</ele>
        <time>2022-06-12T09:11:54Z</time>
      </trkpt>
      <trkpt lat="44.32335" lon="6.61484">
        <ele>1320.8</ele>
        <time>2022-06-12T09:11:55Z</time>
      </trkpt>
      <trkpt lat="44.32343" lon="6.61479">
        <ele>1319.9</ele>
        <time>2022-06-12T09:11:56Z</time>
      </trkpt>
      <trkpt lat="44.32352" lon="6.61472">
        <ele>1318.9</ele>
        <time>2022-06-12T09:11:57Z</time>
      </trkpt>
      <trkpt lat="44.32361" lon="6.61466">
        <ele>1318.6</ele>
        <time>2022-06-12T09:11:58Z</time>
      </trkpt>
      <trkpt lat="44.32369" lon="6.61459">
        <ele>1318.4</ele>
        <time>2022-06-12T09:11:59Z</time>
      </trkpt>
      <trkpt lat="44.32377" lon="6.61452">
        <ele>1318</ele>
        <time>2022-06-12T09:12:00Z</time>
      </trkpt>
      <trkpt lat="44.32385" lon="6.61443">
        <ele>1317.5</ele>
        <time>2022-06-12T09:12:01Z</time>
      </trkpt>
      <trkpt lat="44.32394" lon="6.61435">
        <ele>1318.7</ele>
        <time>2022-06-12T09:12:02Z</time>
      </trkpt>
      <trkpt lat="44.32401" lon="6.61426">
        <ele>1319.8</ele>
        <time>2022-06-12T09:12:03Z</time>
      </trkpt>
      <trkpt lat="44.32409" lon="6.61417">
        <ele>1320.1</ele>
        <time>2022-06-12T09:12:04Z</time>
      </trkpt>
      <trkpt lat="44.32417" lon="6.61409">
        <ele>1322</ele>
        <time>2022-06-12T09:12:05Z</time>
      </trkpt>
      <trkpt lat="44.32425" lon="6.61401">
        <ele>1324</ele>
        <time>2022-06-12T09:12:06Z</time>
      </trkpt>
      <trkpt lat="44.32434" lon="6.61395">
        <ele>1323.5</ele>
        <time>2022-06-12T09:12:07Z</time>
      </trkpt>
      <trkpt lat="44.32444" lon="6.61391">
        <ele>1321</ele>
        <time>2022-06-12T09:12:08Z</time>
      </trkpt>
      <trkpt lat="44.32454" lon="6.61389">
        <ele>1317.9</ele>
        <time>2022-06-12T09:12:09Z</time>
      </trkpt>
      <trkpt lat="44.32464" lon="6.61388">
        <ele>1314.7</ele>
        <time>2022-06-12T09:12:10Z</time>
      </trkpt>
      <trkpt lat="44.32475" lon="6.61388">
        <ele>1310.5</ele>
        <time>2022-06-12T09:12:11Z</time>
      </trkpt>
      <trkpt lat="44.32485" lon="6.61387">
        <ele>1307.8</ele>
        <time>2022-06-12T09:12:12Z</time>
      </trkpt>
      <trkpt lat="44.32496" lon="6.61387">
        <ele>1305</ele>
        <time>2022-06-12T09:12:13Z</time>
      </trkpt>
      <trkpt lat="44.32507" lon="6.61386">
        <ele>1302.8</ele>
        <time>2022-06-12T09:12:14Z</time>
      </trkpt>
      <trkpt lat="44.32518" lon="6.61385">
        <ele>1300.7</ele>
        <time>2022-06-12T09:12:15Z</time>
      </trkpt>
      <trkpt lat="44.32528" lon="6.61385">
        <ele>1298.3</ele>
        <time>2022-06-12T09:12:16Z</time>
      </trkpt>
      <trkpt lat="44.32538" lon="6.61384">
        <ele>1297.1</ele>
        <time>2022-06-12T09:12:17Z</time>
      </trkpt>
      <trkpt lat="44.32549" lon="6.61384">
        <ele>1295.9</ele>
        <time>2022-06-12T09:12:18Z</time>
      </trkpt>
      <trkpt lat="44.32559" lon="6.61383">
        <ele>1294.9</ele>
        <time>2022-06-12T09:12:19Z</time>
      </trkpt>
      <trkpt lat="44.32569" lon="6.61382">
        <ele>1294.8</ele>
        <time>2022-06-12T09:12:20Z</time>
      </trkpt>
      <trkpt lat="44.32579" lon="6.61379">
        <ele>1294.5</ele>
        <time>2022-06-12T09:12:21Z</time>
      </trkpt>
      <trkpt lat="44.32588" lon="6.61373">
        <ele>1294.4</ele>
        <time>2022-06-12T09:12:22Z</time>
      </trkpt>
      <trkpt lat="44.32597" lon="6.61367">
        <ele>1294.1</ele>
        <time>2022-06-12T09:12:23Z</time>
      </trkpt>
      <trkpt lat="44.32604" lon="6.61358">
        <ele>1294.7</ele>
        <time>2022-06-12T09:12:24Z</time>
      </trkpt>
      <trkpt lat="44.3261" lon="6.61351">
        <ele>1297</ele>
        <time>2022-06-12T09:12:25Z</time>
      </trkpt>
      <trkpt lat="44.32617" lon="6.61347">
        <ele>1297.2</ele>
        <time>2022-06-12T09:12:26Z</time>
      </trkpt>
      <trkpt lat="44.32624" lon="6.61348">
        <ele>1295.9</ele>
        <time>2022-06-12T09:12:27Z</time>
      </trkpt>
      <trkpt lat="44.32631" lon="6.61352">
        <ele>1294.1</ele>
        <time>2022-06-12T09:12:28Z</time>
      </trkpt>
      <trkpt lat="44.32638" lon="6.61356">
        <ele>1292.8</ele>
        <time>2022-06-12T09:12:29Z</time>
      </trkpt>
      <trkpt lat="44.32645" lon="6.6136">
        <ele>1292.3</ele>
        <time>2022-06-12T09:12:30Z</time>
      </trkpt>
      <trkpt lat="44.32652" lon="6.61364">
        <ele>1293.5</ele>
        <time>2022-06-12T09:12:31Z</time>
      </trkpt>
      <trkpt lat="44.32659" lon="6.61369">
        <ele>1295.4</ele>
        <time>2022-06-12T09:12:32Z</time>
      </trkpt>
      <trkpt lat="44.32666" lon="6.61372">
        <ele>1297.1</ele>
        <time>2022-06-12T09:12:33Z</time>
      </trkpt>
      <trkpt lat="44.32674" lon="6.61374">
        <ele>1298.9</ele>
        <time>2022-06-12T09:12:34Z</time>
      </trkpt>
      <trkpt lat="44.32682" lon="6.61377">
        <ele>1300.5</ele>
        <time>2022-06-12T09:12:35Z</time>
      </trkpt>
      <trkpt lat="44.3269" lon="6.61378">
        <ele>1302</ele>
        <time>2022-06-12T09:12:36Z</time>
      </trkpt>
      <trkpt lat="44.327" lon="6.61379">
        <ele>1304.1</ele>
        <time>2022-06-12T09:12:37Z</time>
      </trkpt>
      <trkpt lat="44.32709" lon="6.61378">
        <ele>1306.2</ele>
        <time>2022-06-12T09:12:38Z</time>
      </trkpt>
      <trkpt lat="44.32718" lon="6.61376">
        <ele>1307.3</ele>
        <time>2022-06-12T09:12:39Z</time>
      </trkpt>
      <trkpt lat="44.32727" lon="6.61372">
        <ele>1307.9</ele>
        <time>2022-06-12T09:12:40Z</time>
      </trkpt>
      <trkpt lat="44.32736" lon="6.61368">
        <ele>1308.3</ele>
        <time>2022-06-12T09:12:41Z</time>
      </trkpt>
      <trkpt lat="44.32744" lon="6.61362">
        <ele>1307.5</ele>
        <time>2022-06-12T09:12:42Z</time>
      </trkpt>
      <trkpt lat="44.32752" lon="6.61355">
        <ele>1305.9</ele>
        <time>2022-06-12T09:12:43Z</time>
      </trkpt>
      <trkpt lat="44.32761" lon="6.61348">
        <ele>1302.7</ele>
        <time>2022-06-12T09:12:44Z</time>
      </trkpt>
      <trkpt lat="44.3277" lon="6.61342">
        <ele>1299.9</ele>
        <time>2022-06-12T09:12:45Z</time>
      </trkpt>
      <trkpt lat="44.3278" lon="6.61336">
        <ele>1297.4</ele>
        <time>2022-06-12T09:12:46Z</time>
      </trkpt>
      <trkpt lat="44.32789" lon="6.61332">
        <ele>1295.3</ele>
        <time>2022-06-12T09:12:47Z</time>
      </trkpt>
      <trkpt lat="44.32797" lon="6.61332">
        <ele>1294.8</ele>
        <time>2022-06-12T09:12:48Z</time>
      </trkpt>
      <trkpt lat="44.32806" lon="6.61334">
        <ele>1295.1</ele>
        <time>2022-06-12T09:12:49Z</time>
      </trkpt>
      <trkpt lat="44.32814" lon="6.61338">
        <ele>1297.2</ele>
        <time>2022-06-12T09:12:50Z</time>
      </trkpt>
      <trkpt lat="44.32822" lon="6.61343">
        <ele>1299.5</ele>
        <time>2022-06-12T09:12:51Z</time>
      </trkpt>
      <trkpt lat="44.32831" lon="6.61347">
        <ele>1300.9</ele>
        <time>2022-06-12T09:12:52Z</time>
      </trkpt>
      <trkpt lat="44.3284" lon="6.61349">
        <ele>1301.3</ele>
        <time>2022-06-12T09:12:53Z</time>
      </trkpt>
      <trkpt lat="44.3285" lon="6.61349">
        <ele>1300.6</ele>
        <time>2022-06-12T09:12:54Z</time>
      </trkpt>
      <trkpt lat="44.32859" lon="6.61348">
        <ele>1299.2</ele>
        <time>2022-06-12T09:12:55Z</time>
      </trkpt>
      <trkpt lat="44.32869" lon="6.61347">
        <ele>1297.1</ele>
        <time>2022-06-12T09:12:56Z</time>
      </trkpt>
      <trkpt lat="44.32878" lon="6.61346">
        <ele>1295.1</ele>
        <time>2022-06-12T09:12:57Z</time>
      </trkpt>
      <trkpt lat="44.32888" lon="6.61345">
        <ele>1293.2</ele>
        <time>2022-06-12T09:12:58Z</time>
      </trkpt>
      <trkpt lat="44.32898" lon="6.61346">
        <ele>1292.2</ele>
        <time>2022-06-12T09:12:59Z</time>
      </trkpt>
      <trkpt lat="44.32908" lon="6.61347">
        <ele>1291.6</ele>
        <time>2022-06-12T09:13:00Z</time>
      </trkpt>
      <trkpt lat="44.32917" lon="6.6135">
        <ele>1291.4</ele>
        <time>2022-06-12T09:13:01Z</time>
      </trkpt>
      <trkpt lat="44.32927" lon="6.61353">
        <ele>1291</ele>
        <time>2022-06-12T09:13:02Z</time>
      </trkpt>
      <trkpt lat="44.32937" lon="6.61357">
        <ele>1290.6</ele>
        <time>2022-06-12T09:13:03Z</time>
      </trkpt>
      <trkpt lat="44.32947" lon="6.61363">
        <ele>1290.4</ele>
        <time>2022-06-12T09:13:04Z</time>
      </trkpt>
      <trkpt lat="44.32956" lon="6.61369">
        <ele>1292.1</ele>
        <time>2022-06-12T09:13:05Z</time>
      </trkpt>
      <trkpt lat="44.32965" lon="6.61377">
        <ele>1294.2</ele>
        <time>2022-06-12T09:13:06Z</time>
      </trkpt>
      <trkpt lat="44.32974" lon="6.61384">
        <ele>1296</ele>
        <time>2022-06-12T09:13:07Z</time>
      </trkpt>
      <trkpt lat="44.32984" lon="6.6139">
        <ele>1296.7</ele>
        <time>2022-06-12T09:13:08Z</time>
      </trkpt>
      <trkpt lat="44.32995" lon="6.61394">
        <ele>1296.5</ele>
        <time>2022-06-12T09:13:09Z</time>
      </trkpt>
      <trkpt lat="44.33005" lon="6.61397">
        <ele>1295.3</ele>
        <time>2022-06-12T09:13:10Z</time>
      </trkpt>
      <trkpt lat="44.33016" lon="6.61402">
        <ele>1294.7</ele>
        <time>2022-06-12T09:13:11Z</time>
      </trkpt>
      <trkpt lat="44.33025" lon="6.61409">
        <ele>1295.6</ele>
        <time>2022-06-12T09:13:12Z</time>
      </trkpt>
      <trkpt lat="44.33034" lon="6.61419">
        <ele>1298.6</ele>
        <time>2022-06-12T09:13:13Z</time>
      </trkpt>
      <trkpt lat="44.33043" lon="6.61428">
        <ele>1302.7</ele>
        <time>2022-06-12T09:13:14Z</time>
      </trkpt>
      <trkpt lat="44.33052" lon="6.61434">
        <ele>1304</ele>
        <time>2022-06-12T09:13:15Z</time>
      </trkpt>
      <trkpt lat="44.33063" lon="6.61436">
        <ele>1304.4</ele>
        <time>2022-06-12T09:13:16Z</time>
      </trkpt>
      <trkpt lat="44.33074" lon="6.61438">
        <ele>1305.3</ele>
        <time>2022-06-12T09:13:17Z</time>
      </trkpt>
      <trkpt lat="44.33084" lon="6.61438">
        <ele>1305.9</ele>
        <time>2022-06-12T09:13:18Z</time>
      </trkpt>
      <trkpt lat="44.33096" lon="6.61439">
        <ele>1308.8</ele>
        <time>2022-06-12T09:13:19Z</time>
      </trkpt>
      <trkpt lat="44.33107" lon="6.6144">
        <ele>1311.7</ele>
        <time>2022-06-12T09:13:20Z</time>
      </trkpt>
      <trkpt lat="44.33117" lon="6.61439">
        <ele>1313.7</ele>
        <time>2022-06-12T09:13:21Z</time>
      </trkpt>
      <trkpt lat="44.33127" lon="6.61436">
        <ele>1313.8</ele>
        <time>2022-06-12T09:13:22Z</time>
      </trkpt>
      <trkpt lat="44.33137" lon="6.6143">
        <ele>1310.8</ele>
        <time>2022-06-12T09:13:23Z</time>
      </trkpt>
      <trkpt lat="44.33145" lon="6.61421">
        <ele>1304</ele>
        <time>2022-06-12T09:13:24Z</time>
      </trkpt>
      <trkpt lat="44.33153" lon="6.61413">
        <ele>1298.3</ele>
        <time>2022-06-12T09:13:25Z</time>
      </trkpt>
      <trkpt lat="44.33161" lon="6.61404">
        <ele>1293.6</ele>
        <time>2022-06-12T09:13:26Z</time>
      </trkpt>
      <trkpt lat="44.3317" lon="6.61396">
        <ele>1288.5</ele>
        <time>2022-06-12T09:13:27Z</time>
      </trkpt>
      <trkpt lat="44.33178" lon="6.61389">
        <ele>1283</ele>
        <time>2022-06-12T09:13:28Z</time>
      </trkpt>
      <trkpt lat="44.33188" lon="6.61383">
        <ele>1281.1</ele>
        <time>2022-06-12T09:13:29Z</time>
      </trkpt>
      <trkpt lat="44.33197" lon="6.6138">
        <ele>1279.5</ele>
        <time>2022-06-12T09:13:30Z</time>
      </trkpt>
      <trkpt lat="44.33206" lon="6.6138">
        <ele>1278.6</ele>
        <time>2022-06-12T09:13:31Z</time>
      </trkpt>
      <trkpt lat="44.33215" lon="6.61382">
        <ele>1278.5</ele>
        <time>2022-06-12T09:13:32Z</time>
      </trkpt>
      <trkpt lat="44.33224" lon="6.61385">
        <ele>1278.4</ele>
        <time>2022-06-12T09:13:33Z</time>
      </trkpt>
      <trkpt lat="44.33234" lon="6.61388">
        <ele>1277.8</ele>
        <time>2022-06-12T09:13:34Z</time>
      </trkpt>
      <trkpt lat="44.33243" lon="6.61392">
        <ele>1278.7</ele>
        <time>2022-06-12T09:13:35Z</time>
      </trkpt>
      <trkpt lat="44.33252" lon="6.61395">
        <ele>1279.9</ele>
        <time>2022-06-12T09:13:36Z</time>
      </trkpt>
      <trkpt lat="44.33261" lon="6.61398">
        <ele>1280.7</ele>
        <time>2022-06-12T09:13:37Z</time>
      </trkpt>
      <trkpt lat="44.33271" lon="6.61401">
        <ele>1280.9</ele>
        <time>2022-06-12T09:13:38Z</time>
      </trkpt>
      <trkpt lat="44.3328" lon="6.61403">
        <ele>1280.6</ele>
        <time>2022-06-12T09:13:39Z</time>
      </trkpt>
      <trkpt lat="44.3329" lon="6.61406">
        <ele>1280.4</ele>
        <time>2022-06-12T09:13:40Z</time>
      </trkpt>
      <trkpt lat="44.33299" lon="6.6141">
        <ele>1279.5</ele>
        <time>2022-06-12T09:13:41Z</time>
      </trkpt>
      <trkpt lat="44.33309" lon="6.61413">
        <ele>1277.8</ele>
        <time>2022-06-12T09:13:42Z</time>
      </trkpt>
      <trkpt lat="44.33317" lon="6.61419">
        <ele>1276.5</ele>
        <time>2022-06-12T09:13:43Z</time>
      </trkpt>
      <trkpt lat="44.33324" lon="6.61425">
        <ele>1277.2</ele>
        <time>2022-06-12T09:13:44Z</time>
      </trkpt>
      <trkpt lat="44.3333" lon="6.61433">
        <ele>1277.6</ele>
        <time>2022-06-12T09:13:45Z</time>
      </trkpt>
      <trkpt lat="44.33337" lon="6.6144">
        <ele>1277.4</ele>
        <time>2022-06-12T09:13:46Z</time>
      </trkpt>
      <trkpt lat="44.33344" lon="6.61442">
        <ele>1274.6</ele>
        <time>2022-06-12T09:13:47Z</time>
      </trkpt>
      <trkpt lat="44.33352" lon="6.61442">
        <ele>1270.7</ele>
        <time>2022-06-12T09:13:48Z</time>
      </trkpt>
      <trkpt lat="44.33361" lon="6.61443">
        <ele>1266.4</ele>
        <time>2022-06-12T09:13:49Z</time>
      </trkpt>
      <trkpt lat="44.33368" lon="6.61448">
        <ele>1266.7</ele>
        <time>2022-06-12T09:13:50Z</time>
      </trkpt>
      <trkpt lat="44.33373" lon="6.61456">
        <ele>1268</ele>
        <time>2022-06-12T09:13:51Z</time>
      </trkpt>
      <trkpt lat="44.33378" lon="6.61464">
        <ele>1268.1</ele>
        <time>2022-06-12T09:13:52Z</time>
      </trkpt>
      <trkpt lat="44.33385" lon="6.6147">
        <ele>1266.5</ele>
        <time>2022-06-12T09:13:53Z</time>
      </trkpt>
      <trkpt lat="44.33393" lon="6.61473">
        <ele>1264.6</ele>
        <time>2022-06-12T09:13:54Z</time>
      </trkpt>
      <trkpt lat="44.33402" lon="6.61474">
        <ele>1263.5</ele>
        <time>2022-06-12T09:13:55Z</time>
      </trkpt>
      <trkpt lat="44.3341" lon="6.61474">
        <ele>1262.2</ele>
        <time>2022-06-12T09:13:56Z</time>
      </trkpt>
      <trkpt lat="44.33419" lon="6.61475">
        <ele>1261.6</ele>
        <time>2022-06-12T09:13:57Z</time>
      </trkpt>
      <trkpt lat="44.33428" lon="6.61476">
        <ele>1263.2</ele>
        <time>2022-06-12T09:13:58Z</time>
      </trkpt>
      <trkpt lat="44.33437" lon="6.61479">
        <ele>1264</ele>
        <time>2022-06-12T09:13:59Z</time>
      </trkpt>
      <trkpt lat="44.33445" lon="6.61484">
        <ele>1263.8</ele>
        <time>2022-06-12T09:14:00Z</time>
      </trkpt>
      <trkpt lat="44.33454" lon="6.6149">
        <ele>1263.7</ele>
        <time>2022-06-12T09:14:01Z</time>
      </trkpt>
      <trkpt lat="44.33461" lon="6.61496">
        <ele>1262.7</ele>
        <time>2022-06-12T09:14:02Z</time>
      </trkpt>
      <trkpt lat="44.33468" lon="6.61503">
        <ele>1262</ele>
        <time>2022-06-12T09:14:03Z</time>
      </trkpt>
      <trkpt lat="44.33476" lon="6.61509">
        <ele>1262.1</ele>
        <time>2022-06-12T09:14:04Z</time>
      </trkpt>
      <trkpt lat="44.33484" lon="6.61515">
        <ele>1262.3</ele>
        <time>2022-06-12T09:14:05Z</time>
      </trkpt>
      <trkpt lat="44.33492" lon="6.61521">
        <ele>1262.1</ele>
        <time>2022-06-12T09:14:06Z</time>
      </trkpt>
      <trkpt lat="44.335" lon="6.61528">
        <ele>1261.1</ele>
        <time>2022-06-12T09:14:07Z</time>
      </trkpt>
      <trkpt lat="44.33508" lon="6.61534">
        <ele>1263.1</ele>
        <time>2022-06-12T09:14:08Z</time>
      </trkpt>
      <trkpt lat="44.33517" lon="6.61541">
        <ele>1263.6</ele>
        <time>2022-06-12T09:14:09Z</time>
      </trkpt>
      <trkpt lat="44.33525" lon="6.61547">
        <ele>1262.8</ele>
        <time>2022-06-12T09:14:10Z</time>
      </trkpt>
      <trkpt lat="44.33534" lon="6.61553">
        <ele>1262.9</ele>
        <time>2022-06-12T09:14:11Z</time>
      </trkpt>
      <trkpt lat="44.33544" lon="6.61559">
        <ele>1264.3</ele>
        <time>2022-06-12T09:14:12Z</time>
      </trkpt>
      <trkpt lat="44.33553" lon="6.61565">
        <ele>1264.8</ele>
        <time>2022-06-12T09:14:13Z</time>
      </trkpt>
      <trkpt lat="44.33562" lon="6.61573">
        <ele>1263.3</ele>
        <time>2022-06-12T09:14:14Z</time>
      </trkpt>
      <trkpt lat="44.3357" lon="6.61582">
        <ele>1260.5</ele>
        <time>2022-06-12T09:14:15Z</time>
      </trkpt>
      <trkpt lat="44.33577" lon="6.61592">
        <ele>1259.4</ele>
        <time>2022-06-12T09:14:16Z</time>
      </trkpt>
      <trkpt lat="44.33584" lon="6.61603">
        <ele>1256.7</ele>
        <time>2022-06-12T09:14:17Z</time>
      </trkpt>
      <trkpt lat="44.33593" lon="6.61613">
        <ele>1255.4</ele>
        <time>2022-06-12T09:14:18Z</time>
      </trkpt>
      <trkpt lat="44.33601" lon="6.61621">
        <ele>1256.7</ele>
        <time>2022-06-12T09:14:19Z</time>
      </trkpt>
      <trkpt lat="44.3361" lon="6.61625">
        <ele>1256.6</ele>
        <time>2022-06-12T09:14:20Z</time>
      </trkpt>
      <trkpt lat="44.33621" lon="6.61625">
        <ele>1256.9</ele>
        <time>2022-06-12T09:14:21Z</time>
      </trkpt>
      <trkpt lat="44.33631" lon="6.61623">
        <ele>1257.6</ele>
        <time>2022-06-12T09:14:22Z</time>
      </trkpt>
      <trkpt lat="44.33642" lon="6.61621">
        <ele>1258.7</ele>
        <time>2022-06-12T09:14:23Z</time>
      </trkpt>
      <trkpt lat="44.33653" lon="6.61621">
        <ele>1259.6</ele>
        <time>2022-06-12T09:14:24Z</time>
      </trkpt>
      <trkpt lat="44.33663" lon="6.6162">
        <ele>1260.4</ele>
        <time>2022-06-12T09:14:25Z</time>
      </trkpt>
      <trkpt lat="44.33674" lon="6.61621">
        <ele>1260.9</ele>
        <time>2022-06-12T09:14:26Z</time>
      </trkpt>
      <trkpt lat="44.33684" lon="6.61624">
        <ele>1260.2</ele>
        <time>2022-06-12T09:14:27Z</time>
      </trkpt>
      <trkpt lat="44.33693" lon="6.6163">
        <ele>1258.3</ele>
        <time>2022-06-12T09:14:28Z</time>
      </trkpt>
      <trkpt lat="44.33702" lon="6.61635">
        <ele>1256.4</ele>
        <time>2022-06-12T09:14:29Z</time>
      </trkpt>
      <trkpt lat="44.33712" lon="6.61639">
        <ele>1254.8</ele>
        <time>2022-06-12T09:14:30Z</time>
      </trkpt>
      <trkpt lat="44.33721" lon="6.61641">
        <ele>1255.4</ele>
        <time>2022-06-12T09:14:31Z</time>
      </trkpt>
      <trkpt lat="44.33731" lon="6.61643">
        <ele>1256.2</ele>
        <time>2022-06-12T09:14:32Z</time>
      </trkpt>
      <trkpt lat="44.3374" lon="6.61643">
        <ele>1256.7</ele>
        <time>2022-06-12T09:14:33Z</time>
      </trkpt>
      <trkpt lat="44.33749" lon="6.61643">
        <ele>1257.2</ele>
        <time>2022-06-12T09:14:34Z</time>
      </trkpt>
      <trkpt lat="44.33758" lon="6.61643">
        <ele>1257.2</ele>
        <time>2022-06-12T09:14:35Z</time>
      </trkpt>
      <trkpt lat="44.33766" lon="6.61643">
        <ele>1257.1</ele>
        <time>2022-06-12T09:14:36Z</time>
      </trkpt>
      <trkpt lat="44.33775" lon="6.61644">
        <ele>1257</ele>
        <time>2022-06-12T09:14:37Z</time>
      </trkpt>
      <trkpt lat="44.33783" lon="6.61644">
        <ele>1256.6</ele>
        <time>2022-06-12T09:14:38Z</time>
      </trkpt>
      <trkpt lat="44.33792" lon="6.61644">
        <ele>1256.1</ele>
        <time>2022-06-12T09:14:39Z</time>
      </trkpt>
      <trkpt lat="44.338" lon="6.61643">
        <ele>1255.5</ele>
        <time>2022-06-12T09:14:40Z</time>
      </trkpt>
      <trkpt lat="44.33809" lon="6.61642">
        <ele>1255.4</ele>
        <time>2022-06-12T09:14:41Z</time>
      </trkpt>
      <trkpt lat="44.33819" lon="6.61643">
        <ele>1255.5</ele>
        <time>2022-06-12T09:14:42Z</time>
      </trkpt>
      <trkpt lat="44.33829" lon="6.61645">
        <ele>1254.8</ele>
        <time>2022-06-12T09:14:43Z</time>
      </trkpt>
      <trkpt lat="44.33838" lon="6.61646">
        <ele>1255.2</ele>
        <time>2022-06-12T09:14:44Z</time>
      </trkpt>
      <trkpt lat="44.33847" lon="6.61649">
        <ele>1256.3</ele>
        <time>2022-06-12T09:14:45Z</time>
      </trkpt>
      <trkpt lat="44.33856" lon="6.61653">
        <ele>1256.8</ele>
        <time>2022-06-12T09:14:46Z</time>
      </trkpt>
      <trkpt lat="44.33864" lon="6.61658">
        <ele>1257.5</ele>
        <time>2022-06-12T09:14:47Z</time>
      </trkpt>
      <trkpt lat="44.33872" lon="6.61664">
        <ele>1259.1</ele>
        <time>2022-06-12T09:14:48Z</time>
      </trkpt>
      <trkpt lat="44.33876" lon="6.61674">
        <ele>1258.2</ele>
        <time>2022-06-12T09:14:49Z</time>
      </trkpt>
      <trkpt lat="44.33877" lon="6.61685">
        <ele>1255.4</ele>
        <time>2022-06-12T09:14:50Z</time>
      </trkpt>
      <trkpt lat="44.33877" lon="6.61697">
        <ele>1252.2</ele>
        <time>2022-06-12T09:14:51Z</time>
      </trkpt>
      <trkpt lat="44.33879" lon="6.61708">
        <ele>1250.6</ele>
        <time>2022-06-12T09:14:52Z</time>
      </trkpt>
      <trkpt lat="44.33882" lon="6.61718">
        <ele>1249.4</ele>
        <time>2022-06-12T09:14:53Z</time>
      </trkpt>
      <trkpt lat="44.33887" lon="6.61727">
        <ele>1249</ele>
        <time>2022-06-12T09:14:54Z</time>
      </trkpt>
      <trkpt lat="44.33893" lon="6.61734">
        <ele>1249.7</ele>
        <time>2022-06-12T09:14:55Z</time>
      </trkpt>
      <trkpt lat="44.339" lon="6.61741">
        <ele>1250.3</ele>
        <time>2022-06-12T09:14:56Z</time>
      </trkpt>
      <trkpt lat="44.33907" lon="6.61747">
        <ele>1250.6</ele>
        <time>2022-06-12T09:14:57Z</time>
      </trkpt>
      <trkpt lat="44.33914" lon="6.61752">
        <ele>1251</ele>
        <time>2022-06-12T09:14:58Z</time>
      </trkpt>
      <trkpt lat="44.33922" lon="6.61757">
        <ele>1250.8</ele>
        <time>2022-06-12T09:14:59Z</time>
      </trkpt>
      <trkpt lat="44.3393" lon="6.6176">
        <ele>1250</ele>
        <time>2022-06-12T09:15:00Z</time>
      </trkpt>
      <trkpt lat="44.33938" lon="6.61762">
        <ele>1249.2</ele>
        <time>2022-06-12T09:15:01Z</time>
      </trkpt>
      <trkpt lat="44.33947" lon="6.61765">
        <ele>1248.5</ele>
        <time>2022-06-12T09:15:02Z</time>
      </trkpt>
      <trkpt lat="44.33955" lon="6.61767">
        <ele>1248.6</ele>
        <time>2022-06-12T09:15:03Z</time>
      </trkpt>
      <trkpt lat="44.33963" lon="6.61769">
        <ele>1248.3</ele>
        <time>2022-06-12T09:15:04Z</time>
      </trkpt>
      <trkpt lat="44.33971" lon="6.61771">
        <ele>1247.8</ele>
        <time>2022-06-12T09:15:05Z</time>
      </trkpt>
      <trkpt lat="44.33979" lon="6.61775">
        <ele>1247.9</ele>
        <time>2022-06-12T09:15:06Z</time>
      </trkpt>
      <trkpt lat="44.33986" lon="6.61779">
        <ele>1247.9</ele>
        <time>2022-06-12T09:15:07Z</time>
      </trkpt>
      <trkpt lat="44.33994" lon="6.61784">
        <ele>1249.1</ele>
        <time>2022-06-12T09:15:08Z</time>
      </trkpt>
      <trkpt lat="44.34002" lon="6.61789">
        <ele>1250</ele>
        <time>2022-06-12T09:15:09Z</time>
      </trkpt>
      <trkpt lat="44.34009" lon="6.61794">
        <ele>1251.1</ele>
        <time>2022-06-12T09:15:10Z</time>
      </trkpt>
      <trkpt lat="44.34016" lon="6.618">
        <ele>1251</ele>
        <time>2022-06-12T09:15:11Z</time>
      </trkpt>
      <trkpt lat="44.34023" lon="6.61806">
        <ele>1249.8</ele>
        <time>2022-06-12T09:15:12Z</time>
      </trkpt>
      <trkpt lat="44.3403" lon="6.61813">
        <ele>1250.6</ele>
        <time>2022-06-12T09:15:13Z</time>
      </trkpt>
      <trkpt lat="44.34036" lon="6.6182">
        <ele>1253.1</ele>
        <time>2022-06-12T09:15:14Z</time>
      </trkpt>
      <trkpt lat="44.34042" lon="6.61828">
        <ele>1254</ele>
        <time>2022-06-12T09:15:15Z</time>
      </trkpt>
      <trkpt lat="44.34047" lon="6.61837">
        <ele>1253.7</ele>
        <time>2022-06-12T09:15:16Z</time>
      </trkpt>
      <trkpt lat="44.34052" lon="6.61846">
        <ele>1252.7</ele>
        <time>2022-06-12T09:15:17Z</time>
      </trkpt>
      <trkpt lat="44.34057" lon="6.61855">
        <ele>1251.3</ele>
        <time>2022-06-12T09:15:18Z</time>
      </trkpt>
      <trkpt lat="44.34062" lon="6.61864">
        <ele>1250.4</ele>
        <time>2022-06-12T09:15:19Z</time>
      </trkpt>
      <trkpt lat="44.34065" lon="6.61874">
        <ele>1248.2</ele>
        <time>2022-06-12T09:15:20Z</time>
      </trkpt>
      <trkpt lat="44.34068" lon="6.61884">
        <ele>1244.8</ele>
        <time>2022-06-12T09:15:21Z</time>
      </trkpt>
      <trkpt lat="44.34071" lon="6.61894">
        <ele>1242.2</ele>
        <time>2022-06-12T09:15:22Z</time>
      </trkpt>
      <trkpt lat="44.34075" lon="6.61903">
        <ele>1240.4</ele>
        <time>2022-06-12T09:15:23Z</time>
      </trkpt>
      <trkpt lat="44.3408" lon="6.61911">
        <ele>1237.6</ele>
        <time>2022-06-12T09:15:24Z</time>
      </trkpt>
      <trkpt lat="44.34086" lon="6.61917">
        <ele>1236.1</ele>
        <time>2022-06-12T09:15:25Z</time>
      </trkpt>
      <trkpt lat="44.34093" lon="6.61922">
        <ele>1238</ele>
        <time>2022-06-12T09:15:26Z</time>
      </trkpt>
      <trkpt lat="44.341" lon="6.61925">
        <ele>1239.8</ele>
        <time>2022-06-12T09:15:27Z</time>
      </trkpt>
      <trkpt lat="44.34108" lon="6.61927">
        <ele>1241.5</ele>
        <time>2022-06-12T09:15:28Z</time>
      </trkpt>
      <trkpt lat="44.34116" lon="6.61928">
        <ele>1242.6</ele>
        <time>2022-06-12T09:15:29Z</time>
      </trkpt>
      <trkpt lat="44.34123" lon="6.61928">
        <ele>1243.5</ele>
        <time>2022-06-12T09:15:30Z</time>
      </trkpt>
      <trkpt lat="44.34131" lon="6.61928">
        <ele>1244.6</ele>
        <time>2022-06-12T09:15:31Z</time>
      </trkpt>
      <trkpt lat="44.34139" lon="6.61928">
        <ele>1245.8</ele>
        <time>2022-06-12T09:15:32Z</time>
      </trkpt>
      <trkpt lat="44.34147" lon="6.61927">
        <ele>1246</ele>
        <time>2022-06-12T09:15:33Z</time>
      </trkpt>
      <trkpt lat="44.34155" lon="6.61926">
        <ele>1246.3</ele>
        <time>2022-06-12T09:15:34Z</time>
      </trkpt>
      <trkpt lat="44.34163" lon="6.61924">
        <ele>1246.8</ele>
        <time>2022-06-12T09:15:35Z</time>
      </trkpt>
      <trkpt lat="44.34171" lon="6.61923">
        <ele>1246.5</ele>
        <time>2022-06-12T09:15:36Z</time>
      </trkpt>
      <trkpt lat="44.34179" lon="6.61922">
        <ele>1245.4</ele>
        <time>2022-06-12T09:15:37Z</time>
      </trkpt>
      <trkpt lat="44.34187" lon="6.6192">
        <ele>1244.7</ele>
        <time>2022-06-12T09:15:38Z</time>
      </trkpt>
      <trkpt lat="44.34195" lon="6.61918">
        <ele>1244.4</ele>
        <time>2022-06-12T09:15:39Z</time>
      </trkpt>
      <trkpt lat="44.34203" lon="6.61915">
        <ele>1244.8</ele>
        <time>2022-06-12T09:15:40Z</time>
      </trkpt>
      <trkpt lat="44.34211" lon="6.61912">
        <ele>1245.4</ele>
        <time>2022-06-12T09:15:41Z</time>
      </trkpt>
      <trkpt lat="44.34218" lon="6.6191">
        <ele>1246</ele>
        <time>2022-06-12T09:15:42Z</time>
      </trkpt>
      <trkpt lat="44.34226" lon="6.61907">
        <ele>1246.2</ele>
        <time>2022-06-12T09:15:43Z</time>
      </trkpt>
      <trkpt lat="44.34234" lon="6.61905">
        <ele>1246.3</ele>
        <time>2022-06-12T09:15:44Z</time>
      </trkpt>
      <trkpt lat="44.34242" lon="6.61904">
        <ele>1245.3</ele>
        <time>2022-06-12T09:15:45Z</time>
      </trkpt>
      <trkpt lat="44.34251" lon="6.61906">
        <ele>1243.5</ele>
        <time>2022-06-12T09:15:46Z</time>
      </trkpt>
      <trkpt lat="44.34258" lon="6.61907">
        <ele>1244</ele>
        <time>2022-06-12T09:15:47Z</time>
      </trkpt>
      <trkpt lat="44.34266" lon="6.61909">
        <ele>1244</ele>
        <time>2022-06-12T09:15:48Z</time>
      </trkpt>
      <trkpt lat="44.34274" lon="6.61911">
        <ele>1243.7</ele>
        <time>2022-06-12T09:15:49Z</time>
      </trkpt>
      <trkpt lat="44.34281" lon="6.61914">
        <ele>1243.3</ele>
        <time>2022-06-12T09:15:50Z</time>
      </trkpt>
      <trkpt lat="44.34289" lon="6.61918">
        <ele>1243.3</ele>
        <time>2022-06-12T09:15:51Z</time>
      </trkpt>
      <trkpt lat="44.34296" lon="6.61921">
        <ele>1243.4</ele>
        <time>2022-06-12T09:15:52Z</time>
      </trkpt>
      <trkpt lat="44.34304" lon="6.61924">
        <ele>1243</ele>
        <time>2022-06-12T09:15:53Z</time>
      </trkpt>
      <trkpt lat="44.34311" lon="6.61929">
        <ele>1242.4</ele>
        <time>2022-06-12T09:15:54Z</time>
      </trkpt>
      <trkpt lat="44.34317" lon="6.61935">
        <ele>1241.3</ele>
        <time>2022-06-12T09:15:55Z</time>
      </trkpt>
      <trkpt lat="44.34323" lon="6.61942">
        <ele>1239.5</ele>
        <time>2022-06-12T09:15:56Z</time>
      </trkpt>
      <trkpt lat="44.34329" lon="6.61948">
        <ele>1238.6</ele>
        <time>2022-06-12T09:15:57Z</time>
      </trkpt>
      <trkpt lat="44.34336" lon="6.61953">
        <ele>1237.7</ele>
        <time>2022-06-12T09:15:58Z</time>
      </trkpt>
      <trkpt lat="44.34343" lon="6.61957">
        <ele>1237.1</ele>
        <time>2022-06-12T09:15:59Z</time>
      </trkpt>
      <trkpt lat="44.34351" lon="6.61959">
        <ele>1237.7</ele>
        <time>2022-06-12T09:16:00Z</time>
      </trkpt>
      <trkpt lat="44.3436" lon="6.61962">
        <ele>1238.9</ele>
        <time>2022-06-12T09:16:01Z</time>
      </trkpt>
      <trkpt lat="44.34368" lon="6.61963">
        <ele>1238.6</ele>
        <time>2022-06-12T09:16:02Z</time>
      </trkpt>
      <trkpt lat="44.34376" lon="6.61965">
        <ele>1238.3</ele>
        <time>2022-06-12T09:16:03Z</time>
      </trkpt>
      <trkpt lat="44.34385" lon="6.61966">
        <ele>1238.3</ele>
        <time>2022-06-12T09:16:04Z</time>
      </trkpt>
      <trkpt lat="44.34393" lon="6.61968">
        <ele>1238.2</ele>
        <time>2022-06-12T09:16:05Z</time>
      </trkpt>
      <trkpt lat="44.34401" lon="6.61969">
        <ele>1237.9</ele>
        <time>2022-06-12T09:16:06Z</time>
      </trkpt>
      <trkpt lat="44.3441" lon="6.61971">
        <ele>1237.4</ele>
        <time>2022-06-12T09:16:07Z</time>
      </trkpt>
      <trkpt lat="44.34419" lon="6.61972">
        <ele>1236.9</ele>
        <time>2022-06-12T09:16:08Z</time>
      </trkpt>
      <trkpt lat="44.34427" lon="6.61973">
        <ele>1236.1</ele>
        <time>2022-06-12T09:16:09Z</time>
      </trkpt>
      <trkpt lat="44.34435" lon="6.61973">
        <ele>1235.5</ele>
        <time>2022-06-12T09:16:10Z</time>
      </trkpt>
      <trkpt lat="44.34443" lon="6.61973">
        <ele>1235</ele>
        <time>2022-06-12T09:16:11Z</time>
      </trkpt>
      <trkpt lat="44.34451" lon="6.61972">
        <ele>1235.1</ele>
        <time>2022-06-12T09:16:12Z</time>
      </trkpt>
      <trkpt lat="44.34459" lon="6.61972">
        <ele>1235.3</ele>
        <time>2022-06-12T09:16:13Z</time>
      </trkpt>
      <trkpt lat="44.34467" lon="6.61971">
        <ele>1235.6</ele>
        <time>2022-06-12T09:16:14Z</time>
      </trkpt>
      <trkpt lat="44.34475" lon="6.6197">
        <ele>1236.3</ele>
        <time>2022-06-12T09:16:15Z</time>
      </trkpt>
      <trkpt lat="44.34483" lon="6.6197">
        <ele>1236.7</ele>
        <time>2022-06-12T09:16:16Z</time>
      </trkpt>
      <trkpt lat="44.34491" lon="6.61972">
        <ele>1236</ele>
        <time>2022-06-12T09:16:17Z</time>
      </trkpt>
      <trkpt lat="44.34499" lon="6.61975">
        <ele>1234.7</ele>
        <time>2022-06-12T09:16:18Z</time>
      </trkpt>
      <trkpt lat="44.34506" lon="6.6198">
        <ele>1233.2</ele>
        <time>2022-06-12T09:16:19Z</time>
      </trkpt>
      <trkpt lat="44.34514" lon="6.61982">
        <ele>1232.6</ele>
        <time>2022-06-12T09:16:20Z</time>
      </trkpt>
      <trkpt lat="44.34522" lon="6.61983">
        <ele>1232.6</ele>
        <time>2022-06-12T09:16:21Z</time>
      </trkpt>
      <trkpt lat="44.3453" lon="6.61983">
        <ele>1233</ele>
        <time>2022-06-12T09:16:22Z</time>
      </trkpt>
      <trkpt lat="44.34537" lon="6.61983">
        <ele>1233.2</ele>
        <time>2022-06-12T09:16:23Z</time>
      </trkpt>
      <trkpt lat="44.34545" lon="6.61985">
        <ele>1232.8</ele>
        <time>2022-06-12T09:16:24Z</time>
      </trkpt>
      <trkpt lat="44.34552" lon="6.61987">
        <ele>1232.1</ele>
        <time>2022-06-12T09:16:25Z</time>
      </trkpt>
      <trkpt lat="44.3456" lon="6.61989">
        <ele>1231.5</ele>
        <time>2022-06-12T09:16:26Z</time>
      </trkpt>
      <trkpt lat="44.34568" lon="6.61991">
        <ele>1231.5</ele>
        <time>2022-06-12T09:16:27Z</time>
      </trkpt>
      <trkpt lat="44.34576" lon="6.61992">
        <ele>1231.6</ele>
        <time>2022-06-12T09:16:28Z</time>
      </trkpt>
      <trkpt lat="44.34584" lon="6.61993">
        <ele>1231.8</ele>
        <time>2022-06-12T09:16:29Z</time>
      </trkpt>
      <trkpt lat="44.34592" lon="6.61995">
        <ele>1231.2</ele>
        <time>2022-06-12T09:16:30Z</time>
      </trkpt>
      <trkpt lat="44.34599" lon="6.61999">
        <ele>1230.3</ele>
        <time>2022-06-12T09:16:31Z</time>
      </trkpt>
      <trkpt lat="44.34606" lon="6.62003">
        <ele>1229.5</ele>
        <time>2022-06-12T09:16:32Z</time>
      </trkpt>
      <trkpt lat="44.34614" lon="6.62006">
        <ele>1228.7</ele>
        <time>2022-06-12T09:16:33Z</time>
      </trkpt>
      <trkpt lat="44.34622" lon="6.62008">
        <ele>1227.7</ele>
        <time>2022-06-12T09:16:34Z</time>
      </trkpt>
      <trkpt lat="44.3463" lon="6.6201">
        <ele>1226.5</ele>
        <time>2022-06-12T09:16:35Z</time>
      </trkpt>
      <trkpt lat="44.34638" lon="6.62013">
        <ele>1225.5</ele>
        <time>2022-06-12T09:16:36Z</time>
      </trkpt>
      <trkpt lat="44.34646" lon="6.62014">
        <ele>1224.5</ele>
        <time>2022-06-12T09:16:37Z</time>
      </trkpt>
      <trkpt lat="44.34653" lon="6.62014">
        <ele>1223.6</ele>
        <time>2022-06-12T09:16:38Z</time>
      </trkpt>
      <trkpt lat="44.34661" lon="6.62013">
        <ele>1223.4</ele>
        <time>2022-06-12T09:16:39Z</time>
      </trkpt>
      <trkpt lat="44.34669" lon="6.6201">
        <ele>1223.5</ele>
        <time>2022-06-12T09:16:40Z</time>
      </trkpt>
      <trkpt lat="44.34677" lon="6.62008">
        <ele>1223.4</ele>
        <time>2022-06-12T09:16:41Z</time>
      </trkpt>
      <trkpt lat="44.34685" lon="6.62005">
        <ele>1223.4</ele>
        <time>2022-06-12T09:16:42Z</time>
      </trkpt>
      <trkpt lat="44.34693" lon="6.62002">
        <ele>1223.7</ele>
        <time>2022-06-12T09:16:43Z</time>
      </trkpt>
      <trkpt lat="44.34701" lon="6.61998">
        <ele>1224.1</ele>
        <time>2022-06-12T09:16:44Z</time>
      </trkpt>
      <trkpt lat="44.34709" lon="6.61995">
        <ele>1224.8</ele>
        <time>2022-06-12T09:16:45Z</time>
      </trkpt>
      <trkpt lat="44.34717" lon="6.61991">
        <ele>1225.2</ele>
        <time>2022-06-12T09:16:46Z</time>
      </trkpt>
      <trkpt lat="44.34725" lon="6.61988">
        <ele>1225.5</ele>
        <time>2022-06-12T09:16:47Z</time>
      </trkpt>
      <trkpt lat="44.34734" lon="6.61986">
        <ele>1225.3</ele>
        <time>2022-06-12T09:16:48Z</time>
      </trkpt>
      <trkpt lat="44.34743" lon="6.61984">
        <ele>1224.9</ele>
        <time>2022-06-12T09:16:49Z</time>
      </trkpt>
      <trkpt lat="44.34752" lon="6.61982">
        <ele>1224.3</ele>
        <time>2022-06-12T09:16:50Z</time>
      </trkpt>
      <trkpt lat="44.34761" lon="6.6198">
        <ele>1223.8</ele>
        <time>2022-06-12T09:16:51Z</time>
      </trkpt>
      <trkpt lat="44.3477" lon="6.61979">
        <ele>1223.1</ele>
        <time>2022-06-12T09:16:52Z</time>
      </trkpt>
      <trkpt lat="44.34779" lon="6.61977">
        <ele>1222.4</ele>
        <time>2022-06-12T09:16:53Z</time>
      </trkpt>
      <trkpt lat="44.34788" lon="6.61976">
        <ele>1221.8</ele>
        <time>2022-06-12T09:16:54Z</time>
      </trkpt>
      <trkpt lat="44.34798" lon="6.61974">
        <ele>1221.3</ele>
        <time>2022-06-12T09:16:55Z</time>
      </trkpt>
      <trkpt lat="44.34807" lon="6.61974">
        <ele>1220.4</ele>
        <time>2022-06-12T09:16:56Z</time>
      </trkpt>
      <trkpt lat="44.34817" lon="6.61972">
        <ele>1219.5</ele>
        <time>2022-06-12T09:16:57Z</time>
      </trkpt>
      <trkpt lat="44.34826" lon="6.61971">
        <ele>1218.7</ele>
        <time>2022-06-12T09:16:58Z</time>
      </trkpt>
      <trkpt lat="44.34835" lon="6.61968">
        <ele>1218</ele>
        <time>2022-06-12T09:16:59Z</time>
      </trkpt>
      <trkpt lat="44.34844" lon="6.61966">
        <ele>1217.5</ele>
        <time>2022-06-12T09:17:00Z</time>
      </trkpt>
      <trkpt lat="44.34854" lon="6.61963">
        <ele>1217.2</ele>
        <time>2022-06-12T09:17:01Z</time>
      </trkpt>
      <trkpt lat="44.34863" lon="6.61958">
        <ele>1217.3</ele>
        <time>2022-06-12T09:17:02Z</time>
      </trkpt>
      <trkpt lat="44.34872" lon="6.61954">
        <ele>1217.4</ele>
        <time>2022-06-12T09:17:03Z</time>
      </trkpt>
      <trkpt lat="44.34881" lon="6.61949">
        <ele>1217.2</ele>
        <time>2022-06-12T09:17:04Z</time>
      </trkpt>
      <trkpt lat="44.34891" lon="6.61945">
        <ele>1216.7</ele>
        <time>2022-06-12T09:17:05Z</time>
      </trkpt>
      <trkpt lat="44.34901" lon="6.61941">
        <ele>1217</ele>
        <time>2022-06-12T09:17:06Z</time>
      </trkpt>
      <trkpt lat="44.34911" lon="6.61937">
        <ele>1217.5</ele>
        <time>2022-06-12T09:17:07Z</time>
      </trkpt>
      <trkpt lat="44.34921" lon="6.61934">
        <ele>1218.2</ele>
        <time>2022-06-12T09:17:08Z</time>
      </trkpt>
      <trkpt lat="44.34931" lon="6.61931">
        <ele>1219.3</ele>
        <time>2022-06-12T09:17:09Z</time>
      </trkpt>
      <trkpt lat="44.34941" lon="6.61929">
        <ele>1220.1</ele>
        <time>2022-06-12T09:17:10Z</time>
      </trkpt>
      <trkpt lat="44.34952" lon="6.61928">
        <ele>1221.2</ele>
        <time>2022-06-12T09:17:11Z</time>
      </trkpt>
      <trkpt lat="44.34962" lon="6.61926">
        <ele>1222.4</ele>
        <time>2022-06-12T09:17:12Z</time>
      </trkpt>
      <trkpt lat="44.34972" lon="6.61925">
        <ele>1223.3</ele>
        <time>2022-06-12T09:17:13Z</time>
      </trkpt>
      <trkpt lat="44.34982" lon="6.61925">
        <ele>1223.5</ele>
        <time>2022-06-12T09:17:14Z</time>
      </trkpt>
      <trkpt lat="44.34991" lon="6.61927">
        <ele>1223.5</ele>
        <time>2022-06-12T09:17:15Z</time>
      </trkpt>
      <trkpt lat="44.35" lon="6.61928">
        <ele>1223.4</ele>
        <time>2022-06-12T09:17:16Z</time>
      </trkpt>
      <trkpt lat="44.35008" lon="6.61929">
        <ele>1222.7</ele>
        <time>2022-06-12T09:17:17Z</time>
      </trkpt>
      <trkpt lat="44.35017" lon="6.61932">
        <ele>1221.9</ele>
        <time>2022-06-12T09:17:18Z</time>
      </trkpt>
      <trkpt lat="44.35026" lon="6.61935">
        <ele>1220.9</ele>
        <time>2022-06-12T09:17:19Z</time>
      </trkpt>
      <trkpt lat="44.35034" lon="6.61938">
        <ele>1219.7</ele>
        <time>2022-06-12T09:17:20Z</time>
      </trkpt>
      <trkpt lat="44.35041" lon="6.61943">
        <ele>1218.4</ele>
        <time>2022-06-12T09:17:21Z</time>
      </trkpt>
      <trkpt lat="44.35049" lon="6.61948">
        <ele>1217.3</ele>
        <time>2022-06-12T09:17:22Z</time>
      </trkpt>
      <trkpt lat="44.35056" lon="6.61954">
        <ele>1216.4</ele>
        <time>2022-06-12T09:17:23Z</time>
      </trkpt>
      <trkpt lat="44.35063" lon="6.61959">
        <ele>1215.8</ele>
        <time>2022-06-12T09:17:24Z</time>
      </trkpt>
      <trkpt lat="44.35069" lon="6.61966">
        <ele>1215.4</ele>
        <time>2022-06-12T09:17:25Z</time>
      </trkpt>
      <trkpt lat="44.35075" lon="6.61972">
        <ele>1215</ele>
        <time>2022-06-12T09:17:26Z</time>
      </trkpt>
      <trkpt lat="44.35081" lon="6.61979">
        <ele>1215.1</ele>
        <time>2022-06-12T09:17:27Z</time>
      </trkpt>
      <trkpt lat="44.35088" lon="6.61985">
        <ele>1215.4</ele>
        <time>2022-06-12T09:17:28Z</time>
      </trkpt>
      <trkpt lat="44.35095" lon="6.61992">
        <ele>1215.9</ele>
        <time>2022-06-12T09:17:29Z</time>
      </trkpt>
      <trkpt lat="44.35101" lon="6.61998">
        <ele>1216.4</ele>
        <time>2022-06-12T09:17:30Z</time>
      </trkpt>
      <trkpt lat="44.35108" lon="6.62004">
        <ele>1216.9</ele>
        <time>2022-06-12T09:17:31Z</time>
      </trkpt>
      <trkpt lat="44.35116" lon="6.62009">
        <ele>1217.3</ele>
        <time>2022-06-12T09:17:32Z</time>
      </trkpt>
      <trkpt lat="44.35123" lon="6.62012">
        <ele>1217.7</ele>
        <time>2022-06-12T09:17:33Z</time>
      </trkpt>
      <trkpt lat="44.35132" lon="6.62014">
        <ele>1218.3</ele>
        <time>2022-06-12T09:17:34Z</time>
      </trkpt>
      <trkpt lat="44.3514" lon="6.62014">
        <ele>1219</ele>
        <time>2022-06-12T09:17:35Z</time>
      </trkpt>
      <trkpt lat="44.35148" lon="6.62015">
        <ele>1219.7</ele>
        <time>2022-06-12T09:17:36Z</time>
      </trkpt>
      <trkpt lat="44.35157" lon="6.62015">
        <ele>1220.4</ele>
        <time>2022-06-12T09:17:37Z</time>
      </trkpt>
      <trkpt lat="44.35165" lon="6.62016">
        <ele>1220.7</ele>
        <time>2022-06-12T09:17:38Z</time>
      </trkpt>
      <trkpt lat="44.35173" lon="6.62018">
        <ele>1220.9</ele>
        <time>2022-06-12T09:17:39Z</time>
      </trkpt>
      <trkpt lat="44.35182" lon="6.6202">
        <ele>1220.9</ele>
        <time>2022-06-12T09:17:40Z</time>
      </trkpt>
      <trkpt lat="44.3519" lon="6.62023">
        <ele>1220.4</ele>
        <time>2022-06-12T09:17:41Z</time>
      </trkpt>
      <trkpt lat="44.35198" lon="6.62026">
        <ele>1220.2</ele>
        <time>2022-06-12T09:17:42Z</time>
      </trkpt>
      <trkpt lat="44.35206" lon="6.62029">
        <ele>1220.3</ele>
        <time>2022-06-12T09:17:43Z</time>
      </trkpt>
      <trkpt lat="44.35213" lon="6.62032">
        <ele>1220.4</ele>
        <time>2022-06-12T09:17:44Z</time>
      </trkpt>
      <trkpt lat="44.35221" lon="6.62036">
        <ele>1220.3</ele>
        <time>2022-06-12T09:17:45Z</time>
      </trkpt>
      <trkpt lat="44.35228" lon="6.6204">
        <ele>1220.2</ele>
        <time>2022-06-12T09:17:46Z</time>
      </trkpt>
      <trkpt lat="44.35234" lon="6.62045">
        <ele>1219.7</ele>
        <time>2022-06-12T09:17:47Z</time>
      </trkpt>
      <trkpt lat="44.35241" lon="6.62051">
        <ele>1218.8</ele>
        <time>2022-06-12T09:17:48Z</time>
      </trkpt>
      <trkpt lat="44.35247" lon="6.62058">
        <ele>1217.9</ele>
        <time>2022-06-12T09:17:49Z</time>
      </trkpt>
      <trkpt lat="44.35252" lon="6.62065">
        <ele>1217</ele>
        <time>2022-06-12T09:17:50Z</time>
      </trkpt>
      <trkpt lat="44.35258" lon="6.62073">
        <ele>1216.2</ele>
        <time>2022-06-12T09:17:51Z</time>
      </trkpt>
      <trkpt lat="44.35263" lon="6.62081">
        <ele>1215.4</ele>
        <time>2022-06-12T09:17:52Z</time>
      </trkpt>
      <trkpt lat="44.35269" lon="6.62089">
        <ele>1215</ele>
        <time>2022-06-12T09:17:53Z</time>
      </trkpt>
      <trkpt lat="44.35274" lon="6.62096">
        <ele>1214.7</ele>
        <time>2022-06-12T09:17:54Z</time>
      </trkpt>
      <trkpt lat="44.3528" lon="6.62103">
        <ele>1214.2</ele>
        <time>2022-06-12T09:17:55Z</time>
      </trkpt>
      <trkpt lat="44.35286" lon="6.62109">
        <ele>1213.8</ele>
        <time>2022-06-12T09:17:56Z</time>
      </trkpt>
      <trkpt lat="44.35292" lon="6.62114">
        <ele>1213.6</ele>
        <time>2022-06-12T09:17:57Z</time>
      </trkpt>
      <trkpt lat="44.35299" lon="6.62119">
        <ele>1213.5</ele>
        <time>2022-06-12T09:17:58Z</time>
      </trkpt>
      <trkpt lat="44.35306" lon="6.62123">
        <ele>1213.5</ele>
        <time>2022-06-12T09:17:59Z</time>
      </trkpt>
      <trkpt lat="44.35313" lon="6.62126">
        <ele>1213.8</ele>
        <time>2022-06-12T09:18:00Z</time>
      </trkpt>
      <trkpt lat="44.35321" lon="6.62129">
        <ele>1214.2</ele>
        <time>2022-06-12T09:18:01Z</time>
      </trkpt>
      <trkpt lat="44.35329" lon="6.62131">
        <ele>1214.8</ele>
        <time>2022-06-12T09:18:02Z</time>
      </trkpt>
      <trkpt lat="44.35337" lon="6.62133">
        <ele>1215.2</ele>
        <time>2022-06-12T09:18:03Z</time>
      </trkpt>
      <trkpt lat="44.35345" lon="6.62135">
        <ele>1215.8</ele>
        <time>2022-06-12T09:18:04Z</time>
      </trkpt>
      <trkpt lat="44.35352" lon="6.62138">
        <ele>1216.2</ele>
        <time>2022-06-12T09:18:05Z</time>
      </trkpt>
      <trkpt lat="44.3536" lon="6.6214">
        <ele>1216.5</ele>
        <time>2022-06-12T09:18:06Z</time>
      </trkpt>
      <trkpt lat="44.35367" lon="6.62142">
        <ele>1217.3</ele>
        <time>2022-06-12T09:18:07Z</time>
      </trkpt>
      <trkpt lat="44.35375" lon="6.62144">
        <ele>1218.3</ele>
        <time>2022-06-12T09:18:08Z</time>
      </trkpt>
      <trkpt lat="44.35383" lon="6.62146">
        <ele>1219.2</ele>
        <time>2022-06-12T09:18:09Z</time>
      </trkpt>
      <trkpt lat="44.35391" lon="6.62148">
        <ele>1219.9</ele>
        <time>2022-06-12T09:18:10Z</time>
      </trkpt>
      <trkpt lat="44.35398" lon="6.6215">
        <ele>1220.3</ele>
        <time>2022-06-12T09:18:11Z</time>
      </trkpt>
      <trkpt lat="44.35406" lon="6.62153">
        <ele>1220.8</ele>
        <time>2022-06-12T09:18:12Z</time>
      </trkpt>
      <trkpt lat="44.35413" lon="6.62156">
        <ele>1221.1</ele>
        <time>2022-06-12T09:18:13Z</time>
      </trkpt>
      <trkpt lat="44.35421" lon="6.62159">
        <ele>1221.2</ele>
        <time>2022-06-12T09:18:14Z</time>
      </trkpt>
      <trkpt lat="44.35428" lon="6.62163">
        <ele>1221.1</ele>
        <time>2022-06-12T09:18:15Z</time>
      </trkpt>
      <trkpt lat="44.35435" lon="6.62168">
        <ele>1220.3</ele>
        <time>2022-06-12T09:18:16Z</time>
      </trkpt>
      <trkpt lat="44.35441" lon="6.62174">
        <ele>1219.3</ele>
        <time>2022-06-12T09:18:17Z</time>
      </trkpt>
      <trkpt lat="44.35447" lon="6.6218">
        <ele>1217.9</ele>
        <time>2022-06-12T09:18:18Z</time>
      </trkpt>
      <trkpt lat="44.35453" lon="6.62187">
        <ele>1216.2</ele>
        <time>2022-06-12T09:18:19Z</time>
      </trkpt>
      <trkpt lat="44.35458" lon="6.62194">
        <ele>1214.3</ele>
        <time>2022-06-12T09:18:20Z</time>
      </trkpt>
      <trkpt lat="44.35463" lon="6.62201">
        <ele>1212.8</ele>
        <time>2022-06-12T09:18:21Z</time>
      </trkpt>
      <trkpt lat="44.35469" lon="6.62208">
        <ele>1211.1</ele>
        <time>2022-06-12T09:18:22Z</time>
      </trkpt>
      <trkpt lat="44.35474" lon="6.62215">
        <ele>1209.1</ele>
        <time>2022-06-12T09:18:23Z</time>
      </trkpt>
      <trkpt lat="44.3548" lon="6.62222">
        <ele>1207.5</ele>
        <time>2022-06-12T09:18:24Z</time>
      </trkpt>
      <trkpt lat="44.35487" lon="6.62228">
        <ele>1206.7</ele>
        <time>2022-06-12T09:18:25Z</time>
      </trkpt>
      <trkpt lat="44.35494" lon="6.62232">
        <ele>1206.6</ele>
        <time>2022-06-12T09:18:26Z</time>
      </trkpt>
      <trkpt lat="44.35502" lon="6.62235">
        <ele>1206.8</ele>
        <time>2022-06-12T09:18:27Z</time>
      </trkpt>
      <trkpt lat="44.35511" lon="6.62236">
        <ele>1207.1</ele>
        <time>2022-06-12T09:18:28Z</time>
      </trkpt>
      <trkpt lat="44.35519" lon="6.62237">
        <ele>1207.7</ele>
        <time>2022-06-12T09:18:29Z</time>
      </trkpt>
      <trkpt lat="44.35528" lon="6.62238">
        <ele>1208.3</ele>
        <time>2022-06-12T09:18:30Z</time>
      </trkpt>
      <trkpt lat="44.35537" lon="6.62239">
        <ele>1208.9</ele>
        <time>2022-06-12T09:18:31Z</time>
      </trkpt>
      <trkpt lat="44.35546" lon="6.62241">
        <ele>1209.3</ele>
        <time>2022-06-12T09:18:32Z</time>
      </trkpt>
      <trkpt lat="44.35555" lon="6.62242">
        <ele>1209.7</ele>
        <time>2022-06-12T09:18:33Z</time>
      </trkpt>
      <trkpt lat="44.35565" lon="6.62244">
        <ele>1210.2</ele>
        <time>2022-06-12T09:18:34Z</time>
      </trkpt>
      <trkpt lat="44.35574" lon="6.62247">
        <ele>1210.4</ele>
        <time>2022-06-12T09:18:35Z</time>
      </trkpt>
      <trkpt lat="44.35584" lon="6.6225">
        <ele>1210.2</ele>
        <time>2022-06-12T09:18:36Z</time>
      </trkpt>
      <trkpt lat="44.35593" lon="6.62254">
        <ele>1209.8</ele>
        <time>2022-06-12T09:18:37Z</time>
      </trkpt>
      <trkpt lat="44.35601" lon="6.6226">
        <ele>1208.7</ele>
        <time>2022-06-12T09:18:38Z</time>
      </trkpt>
      <trkpt lat="44.3561" lon="6.62267">
        <ele>1207.3</ele>
        <time>2022-06-12T09:18:39Z</time>
      </trkpt>
      <trkpt lat="44.35618" lon="6.62273">
        <ele>1206</ele>
        <time>2022-06-12T09:18:40Z</time>
      </trkpt>
      <trkpt lat="44.35627" lon="6.6228">
        <ele>1204.8</ele>
        <time>2022-06-12T09:18:41Z</time>
      </trkpt>
      <trkpt lat="44.35637" lon="6.62286">
        <ele>1204.2</ele>
        <time>2022-06-12T09:18:42Z</time>
      </trkpt>
      <trkpt lat="44.35646" lon="6.62291">
        <ele>1203.5</ele>
        <time>2022-06-12T09:18:43Z</time>
      </trkpt>
      <trkpt lat="44.35656" lon="6.62296">
        <ele>1203.1</ele>
        <time>2022-06-12T09:18:44Z</time>
      </trkpt>
      <trkpt lat="44.35666" lon="6.62299">
        <ele>1203</ele>
        <time>2022-06-12T09:18:45Z</time>
      </trkpt>
      <trkpt lat="44.35677" lon="6.62303">
        <ele>1202.7</ele>
        <time>2022-06-12T09:18:46Z</time>
      </trkpt>
      <trkpt lat="44.35688" lon="6.62307">
        <ele>1202.3</ele>
        <time>2022-06-12T09:18:47Z</time>
      </trkpt>
      <trkpt lat="44.35698" lon="6.62311">
        <ele>1202.2</ele>
        <time>2022-06-12T09:18:48Z</time>
      </trkpt>
      <trkpt lat="44.35709" lon="6.62315">
        <ele>1202.2</ele>
        <time>2022-06-12T09:18:49Z</time>
      </trkpt>
      <trkpt lat="44.35719" lon="6.62321">
        <ele>1201.9</ele>
        <time>2022-06-12T09:18:50Z</time>
      </trkpt>
      <trkpt lat="44.35729" lon="6.62327">
        <ele>1201.3</ele>
        <time>2022-06-12T09:18:51Z</time>
      </trkpt>
      <trkpt lat="44.35739" lon="6.62333">
        <ele>1200.9</ele>
        <time>2022-06-12T09:18:52Z</time>
      </trkpt>
      <trkpt lat="44.35749" lon="6.6234">
        <ele>1200.7</ele>
        <time>2022-06-12T09:18:53Z</time>
      </trkpt>
      <trkpt lat="44.35759" lon="6.62347">
        <ele>1200.5</ele>
        <time>2022-06-12T09:18:54Z</time>
      </trkpt>
      <trkpt lat="44.35769" lon="6.62353">
        <ele>1200</ele>
        <time>2022-06-12T09:18:55Z</time>
      </trkpt>
      <trkpt lat="44.3578" lon="6.6236">
        <ele>1199.5</ele>
        <time>2022-06-12T09:18:56Z</time>
      </trkpt>
      <trkpt lat="44.3579" lon="6.62366">
        <ele>1198.7</ele>
        <time>2022-06-12T09:18:57Z</time>
      </trkpt>
      <trkpt lat="44.358" lon="6.62374">
        <ele>1197.5</ele>
        <time>2022-06-12T09:18:58Z</time>
      </trkpt>
      <trkpt lat="44.35809" lon="6.62381">
        <ele>1196.1</ele>
        <time>2022-06-12T09:18:59Z</time>
      </trkpt>
      <trkpt lat="44.35819" lon="6.62388">
        <ele>1194.7</ele>
        <time>2022-06-12T09:19:00Z</time>
      </trkpt>
      <trkpt lat="44.35829" lon="6.62395">
        <ele>1193.4</ele>
        <time>2022-06-12T09:19:01Z</time>
      </trkpt>
      <trkpt lat="44.35839" lon="6.62401">
        <ele>1192.3</ele>
        <time>2022-06-12T09:19:02Z</time>
      </trkpt>
      <trkpt lat="44.3585" lon="6.62406">
        <ele>1191.5</ele>
        <time>2022-06-12T09:19:03Z</time>
      </trkpt>
      <trkpt lat="44.3586" lon="6.6241">
        <ele>1190.8</ele>
        <time>2022-06-12T09:19:04Z</time>
      </trkpt>
      <trkpt lat="44.35871" lon="6.62414">
        <ele>1190.1</ele>
        <time>2022-06-12T09:19:05Z</time>
      </trkpt>
      <trkpt lat="44.35881" lon="6.62418">
        <ele>1189.4</ele>
        <time>2022-06-12T09:19:06Z</time>
      </trkpt>
      <trkpt lat="44.35892" lon="6.62422">
        <ele>1188.8</ele>
        <time>2022-06-12T09:19:07Z</time>
      </trkpt>
      <trkpt lat="44.35902" lon="6.62426">
        <ele>1188.5</ele>
        <time>2022-06-12T09:19:08Z</time>
      </trkpt>
      <trkpt lat="44.35912" lon="6.6243">
        <ele>1187.9</ele>
        <time>2022-06-12T09:19:09Z</time>
      </trkpt>
      <trkpt lat="44.35922" lon="6.62436">
        <ele>1187</ele>
        <time>2022-06-12T09:19:10Z</time>
      </trkpt>
      <trkpt lat="44.35932" lon="6.62442">
        <ele>1185.8</ele>
        <time>2022-06-12T09:19:11Z</time>
      </trkpt>
      <trkpt lat="44.35941" lon="6.6245">
        <ele>1184.8</ele>
        <time>2022-06-12T09:19:12Z</time>
      </trkpt>
      <trkpt lat="44.35951" lon="6.62457">
        <ele>1184</ele>
        <time>2022-06-12T09:19:13Z</time>
      </trkpt>
      <trkpt lat="44.35961" lon="6.62462">
        <ele>1183.2</ele>
        <time>2022-06-12T09:19:14Z</time>
      </trkpt>
      <trkpt lat="44.35971" lon="6.62466">
        <ele>1182.5</ele>
        <time>2022-06-12T09:19:15Z</time>
      </trkpt>
      <trkpt lat="44.35981" lon="6.6247">
        <ele>1181.6</ele>
        <time>2022-06-12T09:19:16Z</time>
      </trkpt>
      <trkpt lat="44.35992" lon="6.62473">
        <ele>1180.9</ele>
        <time>2022-06-12T09:19:17Z</time>
      </trkpt>
      <trkpt lat="44.36002" lon="6.62477">
        <ele>1180.6</ele>
        <time>2022-06-12T09:19:18Z</time>
      </trkpt>
      <trkpt lat="44.36013" lon="6.6248">
        <ele>1180.3</ele>
        <time>2022-06-12T09:19:19Z</time>
      </trkpt>
      <trkpt lat="44.36022" lon="6.62485">
        <ele>1179.7</ele>
        <time>2022-06-12T09:19:20Z</time>
      </trkpt>
      <trkpt lat="44.36031" lon="6.62492">
        <ele>1178.4</ele>
        <time>2022-06-12T09:19:21Z</time>
      </trkpt>
      <trkpt lat="44.3604" lon="6.625">
        <ele>1177</ele>
        <time>2022-06-12T09:19:22Z</time>
      </trkpt>
      <trkpt lat="44.36047" lon="6.6251">
        <ele>1176.5</ele>
        <time>2022-06-12T09:19:23Z</time>
      </trkpt>
      <trkpt lat="44.36054" lon="6.62518">
        <ele>1175.8</ele>
        <time>2022-06-12T09:19:24Z</time>
      </trkpt>
      <trkpt lat="44.36061" lon="6.62527">
        <ele>1174.9</ele>
        <time>2022-06-12T09:19:25Z</time>
      </trkpt>
      <trkpt lat="44.36067" lon="6.62535">
        <ele>1174.7</ele>
        <time>2022-06-12T09:19:26Z</time>
      </trkpt>
      <trkpt lat="44.36073" lon="6.62544">
        <ele>1174.6</ele>
        <time>2022-06-12T09:19:27Z</time>
      </trkpt>
      <trkpt lat="44.36078" lon="6.62553">
        <ele>1174.4</ele>
        <time>2022-06-12T09:19:28Z</time>
      </trkpt>
      <trkpt lat="44.36083" lon="6.62563">
        <ele>1174.3</ele>
        <time>2022-06-12T09:19:29Z</time>
      </trkpt>
      <trkpt lat="44.36088" lon="6.62572">
        <ele>1174.5</ele>
        <time>2022-06-12T09:19:30Z</time>
      </trkpt>
      <trkpt lat="44.36093" lon="6.62582">
        <ele>1174.6</ele>
        <time>2022-06-12T09:19:31Z</time>
      </trkpt>
      <trkpt lat="44.36098" lon="6.62591">
        <ele>1174.7</ele>
        <time>2022-06-12T09:19:32Z</time>
      </trkpt>
      <trkpt lat="44.36102" lon="6.62601">
        <ele>1174.7</ele>
        <time>2022-06-12T09:19:33Z</time>
      </trkpt>
      <trkpt lat="44.36107" lon="6.6261">
        <ele>1174.5</ele>
        <time>2022-06-12T09:19:34Z</time>
      </trkpt>
      <trkpt lat="44.36111" lon="6.6262">
        <ele>1174.6</ele>
        <time>2022-06-12T09:19:35Z</time>
      </trkpt>
      <trkpt lat="44.36115" lon="6.62629">
        <ele>1175</ele>
        <time>2022-06-12T09:19:36Z</time>
      </trkpt>
      <trkpt lat="44.3612" lon="6.62638">
        <ele>1175</ele>
        <time>2022-06-12T09:19:37Z</time>
      </trkpt>
      <trkpt lat="44.36125" lon="6.62647">
        <ele>1175.1</ele>
        <time>2022-06-12T09:19:38Z</time>
      </trkpt>
      <trkpt lat="44.36131" lon="6.62655">
        <ele>1175</ele>
        <time>2022-06-12T09:19:39Z</time>
      </trkpt>
      <trkpt lat="44.36137" lon="6.62663">
        <ele>1174.9</ele>
        <time>2022-06-12T09:19:40Z</time>
      </trkpt>
      <trkpt lat="44.36144" lon="6.62669">
        <ele>1174.7</ele>
        <time>2022-06-12T09:19:41Z</time>
      </trkpt>
      <trkpt lat="44.36151" lon="6.62675">
        <ele>1174.4</ele>
        <time>2022-06-12T09:19:42Z</time>
      </trkpt>
      <trkpt lat="44.36159" lon="6.62681">
        <ele>1174.2</ele>
        <time>2022-06-12T09:19:43Z</time>
      </trkpt>
      <trkpt lat="44.36167" lon="6.62686">
        <ele>1174.1</ele>
        <time>2022-06-12T09:19:44Z</time>
      </trkpt>
      <trkpt lat="44.36175" lon="6.62691">
        <ele>1174.1</ele>
        <time>2022-06-12T09:19:45Z</time>
      </trkpt>
      <trkpt lat="44.36184" lon="6.62695">
        <ele>1173.8</ele>
        <time>2022-06-12T09:19:46Z</time>
      </trkpt>
      <trkpt lat="44.36192" lon="6.62699">
        <ele>1173.4</ele>
        <time>2022-06-12T09:19:47Z</time>
      </trkpt>
      <trkpt lat="44.36201" lon="6.62703">
        <ele>1173.1</ele>
        <time>2022-06-12T09:19:48Z</time>
      </trkpt>
      <trkpt lat="44.3621" lon="6.62707">
        <ele>1172.9</ele>
        <time>2022-06-12T09:19:49Z</time>
      </trkpt>
      <trkpt lat="44.36219" lon="6.6271">
        <ele>1172.7</ele>
        <time>2022-06-12T09:19:50Z</time>
      </trkpt>
      <trkpt lat="44.36228" lon="6.62714">
        <ele>1172.7</ele>
        <time>2022-06-12T09:19:51Z</time>
      </trkpt>
      <trkpt lat="44.36236" lon="6.62719">
        <ele>1172.8</ele>
        <time>2022-06-12T09:19:52Z</time>
      </trkpt>
      <trkpt lat="44.36245" lon="6.62723">
        <ele>1173</ele>
        <time>2022-06-12T09:19:53Z</time>
      </trkpt>
      <trkpt lat="44.36254" lon="6.62727">
        <ele>1172.8</ele>
        <time>2022-06-12T09:19:54Z</time>
      </trkpt>
      <trkpt lat="44.36262" lon="6.62732">
        <ele>1172.4</ele>
        <time>2022-06-12T09:19:55Z</time>
      </trkpt>
      <trkpt lat="44.36271" lon="6.62736">
        <ele>1172.3</ele>
        <time>2022-06-12T09:19:56Z</time>
      </trkpt>
      <trkpt lat="44.3628" lon="6.62741">
        <ele>1172.2</ele>
        <time>2022-06-12T09:19:57Z</time>
      </trkpt>
      <trkpt lat="44.36289" lon="6.62745">
        <ele>1171.9</ele>
        <time>2022-06-12T09:19:58Z</time>
      </trkpt>
      <trkpt lat="44.36298" lon="6.62748">
        <ele>1171.5</ele>
        <time>2022-06-12T09:19:59Z</time>
      </trkpt>
      <trkpt lat="44.36306" lon="6.62752">
        <ele>1171.1</ele>
        <time>2022-06-12T09:20:00Z</time>
      </trkpt>
      <trkpt lat="44.36315" lon="6.62755">
        <ele>1171.1</ele>
        <time>2022-06-12T09:20:01Z</time>
      </trkpt>
      <trkpt lat="44.36324" lon="6.62757">
        <ele>1170.9</ele>
        <time>2022-06-12T09:20:02Z</time>
      </trkpt>
      <trkpt lat="44.36333" lon="6.6276">
        <ele>1170.8</ele>
        <time>2022-06-12T09:20:03Z</time>
      </trkpt>
      <trkpt lat="44.36342" lon="6.62763">
        <ele>1170.3</ele>
        <time>2022-06-12T09:20:04Z</time>
      </trkpt>
      <trkpt lat="44.3635" lon="6.62765">
        <ele>1169.9</ele>
        <time>2022-06-12T09:20:05Z</time>
      </trkpt>
      <trkpt lat="44.36358" lon="6.62767">
        <ele>1169.4</ele>
        <time>2022-06-12T09:20:06Z</time>
      </trkpt>
      <trkpt lat="44.36367" lon="6.62769">
        <ele>1169</ele>
        <time>2022-06-12T09:20:07Z</time>
      </trkpt>
      <trkpt lat="44.36375" lon="6.6277">
        <ele>1168.6</ele>
        <time>2022-06-12T09:20:08Z</time>
      </trkpt>
      <trkpt lat="44.36384" lon="6.62772">
        <ele>1168.1</ele>
        <time>2022-06-12T09:20:09Z</time>
      </trkpt>
      <trkpt lat="44.36393" lon="6.62774">
        <ele>1167.6</ele>
        <time>2022-06-12T09:20:10Z</time>
      </trkpt>
      <trkpt lat="44.36401" lon="6.62776">
        <ele>1167</ele>
        <time>2022-06-12T09:20:11Z</time>
      </trkpt>
      <trkpt lat="44.3641" lon="6.62777">
        <ele>1166.4</ele>
        <time>2022-06-12T09:20:12Z</time>
      </trkpt>
      <trkpt lat="44.3642" lon="6.62776">
        <ele>1165.8</ele>
        <time>2022-06-12T09:20:13Z</time>
      </trkpt>
      <trkpt lat="44.36429" lon="6.62776">
        <ele>1165.5</ele>
        <time>2022-06-12T09:20:14Z</time>
      </trkpt>
      <trkpt lat="44.36439" lon="6.62777">
        <ele>1165.2</ele>
        <time>2022-06-12T09:20:15Z</time>
      </trkpt>
      <trkpt lat="44.36448" lon="6.62777">
        <ele>1164.8</ele>
        <time>2022-06-12T09:20:16Z</time>
      </trkpt>
      <trkpt lat="44.36458" lon="6.62778">
        <ele>1164.5</ele>
        <time>2022-06-12T09:20:17Z</time>
      </trkpt>
      <trkpt lat="44.36468" lon="6.62778">
        <ele>1164.2</ele>
        <time>2022-06-12T09:20:18Z</time>
      </trkpt>
      <trkpt lat="44.36478" lon="6.62779">
        <ele>1163.6</ele>
        <time>2022-06-12T09:20:19Z</time>
      </trkpt>
      <trkpt lat="44.36487" lon="6.6278">
        <ele>1163</ele>
        <time>2022-06-12T09:20:20Z</time>
      </trkpt>
      <trkpt lat="44.36497" lon="6.6278">
        <ele>1162.3</ele>
        <time>2022-06-12T09:20:21Z</time>
      </trkpt>
      <trkpt lat="44.36507" lon="6.62781">
        <ele>1161.8</ele>
        <time>2022-06-12T09:20:22Z</time>
      </trkpt>
      <trkpt lat="44.36517" lon="6.62782">
        <ele>1161.5</ele>
        <time>2022-06-12T09:20:23Z</time>
      </trkpt>
      <trkpt lat="44.36526" lon="6.62782">
        <ele>1161.2</ele>
        <time>2022-06-12T09:20:24Z</time>
      </trkpt>
      <trkpt lat="44.36536" lon="6.62783">
        <ele>1160.8</ele>
        <time>2022-06-12T09:20:25Z</time>
      </trkpt>
      <trkpt lat="44.36546" lon="6.62783">
        <ele>1160.4</ele>
        <time>2022-06-12T09:20:26Z</time>
      </trkpt>
      <trkpt lat="44.36555" lon="6.62783">
        <ele>1160</ele>
        <time>2022-06-12T09:20:27Z</time>
      </trkpt>
      <trkpt lat="44.36564" lon="6.62783">
        <ele>1159.7</ele>
        <time>2022-06-12T09:20:28Z</time>
      </trkpt>
      <trkpt lat="44.36573" lon="6.62783">
        <ele>1159.4</ele>
        <time>2022-06-12T09:20:29Z</time>
      </trkpt>
      <trkpt lat="44.36582" lon="6.62783">
        <ele>1159.1</ele>
        <time>2022-06-12T09:20:30Z</time>
      </trkpt>
      <trkpt lat="44.36591" lon="6.62784">
        <ele>1159</ele>
        <time>2022-06-12T09:20:31Z</time>
      </trkpt>
      <trkpt lat="44.366" lon="6.62784">
        <ele>1159</ele>
        <time>2022-06-12T09:20:32Z</time>
      </trkpt>
      <trkpt lat="44.36609" lon="6.62784">
        <ele>1159</ele>
        <time>2022-06-12T09:20:33Z</time>
      </trkpt>
      <trkpt lat="44.36619" lon="6.62785">
        <ele>1158.8</ele>
        <time>2022-06-12T09:20:34Z</time>
      </trkpt>
      <trkpt lat="44.36628" lon="6.62785">
        <ele>1158.6</ele>
        <time>2022-06-12T09:20:35Z</time>
      </trkpt>
      <trkpt lat="44.36637" lon="6.62785">
        <ele>1158.3</ele>
        <time>2022-06-12T09:20:36Z</time>
      </trkpt>
      <trkpt lat="44.36646" lon="6.62785">
        <ele>1158.2</ele>
        <time>2022-06-12T09:20:37Z</time>
      </trkpt>
      <trkpt lat="44.36655" lon="6.62786">
        <ele>1158.1</ele>
        <time>2022-06-12T09:20:38Z</time>
      </trkpt>
      <trkpt lat="44.36663" lon="6.62786">
        <ele>1158</ele>
        <time>2022-06-12T09:20:39Z</time>
      </trkpt>
      <trkpt lat="44.36672" lon="6.62787">
        <ele>1157.9</ele>
        <time>2022-06-12T09:20:40Z</time>
      </trkpt>
      <trkpt lat="44.36681" lon="6.62787">
        <ele>1157.7</ele>
        <time>2022-06-12T09:20:41Z</time>
      </trkpt>
      <trkpt lat="44.3669" lon="6.62787">
        <ele>1157.4</ele>
        <time>2022-06-12T09:20:42Z</time>
      </trkpt>
      <trkpt lat="44.36699" lon="6.62787">
        <ele>1157.3</ele>
        <time>2022-06-12T09:20:43Z</time>
      </trkpt>
      <trkpt lat="44.36707" lon="6.62787">
        <ele>1157.3</ele>
        <time>2022-06-12T09:20:44Z</time>
      </trkpt>
      <trkpt lat="44.36716" lon="6.62787">
        <ele>1157.3</ele>
        <time>2022-06-12T09:20:45Z</time>
      </trkpt>
      <trkpt lat="44.36725" lon="6.62787">
        <ele>1157.3</ele>
        <time>2022-06-12T09:20:46Z</time>
      </trkpt>
      <trkpt lat="44.36734" lon="6.62788">
        <ele>1157.4</ele>
        <time>2022-06-12T09:20:47Z</time>
      </trkpt>
      <trkpt lat="44.36744" lon="6.62788">
        <ele>1157.4</ele>
        <time>2022-06-12T09:20:48Z</time>
      </trkpt>
      <trkpt lat="44.36753" lon="6.62788">
        <ele>1157.3</ele>
        <time>2022-06-12T09:20:49Z</time>
      </trkpt>
      <trkpt lat="44.36763" lon="6.62788">
        <ele>1156.9</ele>
        <time>2022-06-12T09:20:50Z</time>
      </trkpt>
      <trkpt lat="44.36772" lon="6.62789">
        <ele>1156.6</ele>
        <time>2022-06-12T09:20:51Z</time>
      </trkpt>
      <trkpt lat="44.36782" lon="6.62789">
        <ele>1156.3</ele>
        <time>2022-06-12T09:20:52Z</time>
      </trkpt>
      <trkpt lat="44.36792" lon="6.6279">
        <ele>1155.9</ele>
        <time>2022-06-12T09:20:53Z</time>
      </trkpt>
      <trkpt lat="44.36801" lon="6.62791">
        <ele>1155.6</ele>
        <time>2022-06-12T09:20:54Z</time>
      </trkpt>
      <trkpt lat="44.36811" lon="6.62791">
        <ele>1155.3</ele>
        <time>2022-06-12T09:20:55Z</time>
      </trkpt>
      <trkpt lat="44.3682" lon="6.62791">
        <ele>1154.9</ele>
        <time>2022-06-12T09:20:56Z</time>
      </trkpt>
      <trkpt lat="44.3683" lon="6.62791">
        <ele>1154.6</ele>
        <time>2022-06-12T09:20:57Z</time>
      </trkpt>
      <trkpt lat="44.3684" lon="6.62791">
        <ele>1154.4</ele>
        <time>2022-06-12T09:20:58Z</time>
      </trkpt>
      <trkpt lat="44.3685" lon="6.62791">
        <ele>1154.2</ele>
        <time>2022-06-12T09:20:59Z</time>
      </trkpt>
      <trkpt lat="44.3686" lon="6.62791">
        <ele>1154</ele>
        <time>2022-06-12T09:21:00Z</time>
      </trkpt>
      <trkpt lat="44.3687" lon="6.62791">
        <ele>1153.7</ele>
        <time>2022-06-12T09:21:01Z</time>
      </trkpt>
      <trkpt lat="44.36879" lon="6.62791">
        <ele>1153.4</ele>
        <time>2022-06-12T09:21:02Z</time>
      </trkpt>
      <trkpt lat="44.36889" lon="6.62792">
        <ele>1153</ele>
        <time>2022-06-12T09:21:03Z</time>
      </trkpt>
      <trkpt lat="44.36898" lon="6.62791">
        <ele>1152.8</ele>
        <time>2022-06-12T09:21:04Z</time>
      </trkpt>
      <trkpt lat="44.36907" lon="6.62791">
        <ele>1152.7</ele>
        <time>2022-06-12T09:21:05Z</time>
      </trkpt>
      <trkpt lat="44.36916" lon="6.62791">
        <ele>1152.5</ele>
        <time>2022-06-12T09:21:06Z</time>
      </trkpt>
      <trkpt lat="44.36925" lon="6.6279">
        <ele>1152.3</ele>
        <time>2022-06-12T09:21:07Z</time>
      </trkpt>
      <trkpt lat="44.36934" lon="6.6279">
        <ele>1152.2</ele>
        <time>2022-06-12T09:21:08Z</time>
      </trkpt>
      <trkpt lat="44.36943" lon="6.62789">
        <ele>1152</ele>
        <time>2022-06-12T09:21:09Z</time>
      </trkpt>
      <trkpt lat="44.36952" lon="6.62788">
        <ele>1151.7</ele>
        <time>2022-06-12T09:21:10Z</time>
      </trkpt>
      <trkpt lat="44.36961" lon="6.62788">
        <ele>1151.4</ele>
        <time>2022-06-12T09:21:11Z</time>
      </trkpt>
      <trkpt lat="44.36969" lon="6.62787">
        <ele>1151.1</ele>
        <time>2022-06-12T09:21:12Z</time>
      </trkpt>
      <trkpt lat="44.36977" lon="6.62787">
        <ele>1151</ele>
        <time>2022-06-12T09:21:13Z</time>
      </trkpt>
      <trkpt lat="44.36986" lon="6.62787">
        <ele>1151</ele>
        <time>2022-06-12T09:21:14Z</time>
      </trkpt>
      <trkpt lat="44.36994" lon="6.62787">
        <ele>1151</ele>
        <time>2022-06-12T09:21:15Z</time>
      </trkpt>
      <trkpt lat="44.37002" lon="6.62787">
        <ele>1150.9</ele>
        <time>2022-06-12T09:21:16Z</time>
      </trkpt>
      <trkpt lat="44.37011" lon="6.62787">
        <ele>1150.6</ele>
        <time>2022-06-12T09:21:17Z</time>
      </trkpt>
      <trkpt lat="44.37019" lon="6.62787">
        <ele>1150.3</ele>
        <time>2022-06-12T09:21:18Z</time>
      </trkpt>
      <trkpt lat="44.37028" lon="6.62786">
        <ele>1150</ele>
        <time>2022-06-12T09:21:19Z</time>
      </trkpt>
      <trkpt lat="44.37036" lon="6.62786">
        <ele>1149.7</ele>
        <time>2022-06-12T09:21:20Z</time>
      </trkpt>
      <trkpt lat="44.37045" lon="6.62786">
        <ele>1149.4</ele>
        <time>2022-06-12T09:21:21Z</time>
      </trkpt>
      <trkpt lat="44.37054" lon="6.62786">
        <ele>1149.1</ele>
        <time>2022-06-12T09:21:22Z</time>
      </trkpt>
      <trkpt lat="44.37063" lon="6.62786">
        <ele>1148.8</ele>
        <time>2022-06-12T09:21:23Z</time>
      </trkpt>
      <trkpt lat="44.37071" lon="6.62786">
        <ele>1148.6</ele>
        <time>2022-06-12T09:21:24Z</time>
      </trkpt>
      <trkpt lat="44.3708" lon="6.62785">
        <ele>1148.3</ele>
        <time>2022-06-12T09:21:25Z</time>
      </trkpt>
      <trkpt lat="44.37089" lon="6.62785">
        <ele>1148.2</ele>
        <time>2022-06-12T09:21:26Z</time>
      </trkpt>
      <trkpt lat="44.37098" lon="6.62785">
        <ele>1148.1</ele>
        <time>2022-06-12T09:21:27Z</time>
      </trkpt>
      <trkpt lat="44.37107" lon="6.62784">
        <ele>1148</ele>
        <time>2022-06-12T09:21:28Z</time>
      </trkpt>
      <trkpt lat="44.37116" lon="6.62784">
        <ele>1148</ele>
        <time>2022-06-12T09:21:29Z</time>
      </trkpt>
      <trkpt lat="44.37125" lon="6.62784">
        <ele>1148</ele>
        <time>2022-06-12T09:21:30Z</time>
      </trkpt>
      <trkpt lat="44.37133" lon="6.62783">
        <ele>1148</ele>
        <time>2022-06-12T09:21:31Z</time>
      </trkpt>
      <trkpt lat="44.37142" lon="6.62783">
        <ele>1148</ele>
        <time>2022-06-12T09:21:32Z</time>
      </trkpt>
      <trkpt lat="44.3715" lon="6.62782">
        <ele>1148</ele>
        <time>2022-06-12T09:21:33Z</time>
      </trkpt>
      <trkpt lat="44.37158" lon="6.62782">
        <ele>1148</ele>
        <time>2022-06-12T09:21:34Z</time>
      </trkpt>
      <trkpt lat="44.37167" lon="6.62782">
        <ele>1148</ele>
        <time>2022-06-12T09:21:35Z</time>
      </trkpt>
      <trkpt lat="44.37175" lon="6.62781">
        <ele>1147.7</ele>
        <time>2022-06-12T09:21:36Z</time>
      </trkpt>
      <trkpt lat="44.37184" lon="6.62781">
        <ele>1147.5</ele>
        <time>2022-06-12T09:21:37Z</time>
      </trkpt>
      <trkpt lat="44.37192" lon="6.6278">
        <ele>1147.2</ele>
        <time>2022-06-12T09:21:38Z</time>
      </trkpt>
      <trkpt lat="44.372" lon="6.6278">
        <ele>1147.1</ele>
        <time>2022-06-12T09:21:39Z</time>
      </trkpt>
      <trkpt lat="44.37208" lon="6.6278">
        <ele>1147</ele>
        <time>2022-06-12T09:21:40Z</time>
      </trkpt>
      <trkpt lat="44.37216" lon="6.62779">
        <ele>1147</ele>
        <time>2022-06-12T09:21:41Z</time>
      </trkpt>
      <trkpt lat="44.37224" lon="6.62779">
        <ele>1147</ele>
        <time>2022-06-12T09:21:42Z</time>
      </trkpt>
      <trkpt lat="44.37233" lon="6.62779">
        <ele>1147</ele>
        <time>2022-06-12T09:21:43Z</time>
      </trkpt>
      <trkpt lat="44.37241" lon="6.62779">
        <ele>1147</ele>
        <time>2022-06-12T09:21:44Z</time>
      </trkpt>
      <trkpt lat="44.37249" lon="6.62779">
        <ele>1147</ele>
        <time>2022-06-12T09:21:45Z</time>
      </trkpt>
      <trkpt lat="44.37258" lon="6.62778">
        <ele>1146.7</ele>
        <time>2022-06-12T09:21:46Z</time>
      </trkpt>
      <trkpt lat="44.37267" lon="6.62778">
        <ele>1146.4</ele>
        <time>2022-06-12T09:21:47Z</time>
      </trkpt>
      <trkpt lat="44.37276" lon="6.62778">
        <ele>1146.1</ele>
        <time>2022-06-12T09:21:48Z</time>
      </trkpt>
      <trkpt lat="44.37285" lon="6.62778">
        <ele>1145.8</ele>
        <time>2022-06-12T09:21:49Z</time>
      </trkpt>
      <trkpt lat="44.37294" lon="6.62778">
        <ele>1145.4</ele>
        <time>2022-06-12T09:21:50Z</time>
      </trkpt>
      <trkpt lat="44.37303" lon="6.62778">
        <ele>1145.1</ele>
        <time>2022-06-12T09:21:51Z</time>
      </trkpt>
      <trkpt lat="44.37312" lon="6.62778">
        <ele>1144.8</ele>
        <time>2022-06-12T09:21:52Z</time>
      </trkpt>
      <trkpt lat="44.37321" lon="6.62777">
        <ele>1144.4</ele>
        <time>2022-06-12T09:21:53Z</time>
      </trkpt>
      <trkpt lat="44.37331" lon="6.62777">
        <ele>1144.1</ele>
        <time>2022-06-12T09:21:54Z</time>
      </trkpt>
      <trkpt lat="44.3734" lon="6.62777">
        <ele>1143.8</ele>
        <time>2022-06-12T09:21:55Z</time>
      </trkpt>
      <trkpt lat="44.37349" lon="6.62777">
        <ele>1143.4</ele>
        <time>2022-06-12T09:21:56Z</time>
      </trkpt>
      <trkpt lat="44.37358" lon="6.62777">
        <ele>1143.1</ele>
        <time>2022-06-12T09:21:57Z</time>
      </trkpt>
      <trkpt lat="44.37367" lon="6.62777">
        <ele>1143</ele>
        <time>2022-06-12T09:21:58Z</time>
      </trkpt>
      <trkpt lat="44.37377" lon="6.62777">
        <ele>1143</ele>
        <time>2022-06-12T09:21:59Z</time>
      </trkpt>
      <trkpt lat="44.37386" lon="6.62777">
        <ele>1143</ele>
        <time>2022-06-12T09:22:00Z</time>
      </trkpt>
      <trkpt lat="44.37395" lon="6.62776">
        <ele>1142.7</ele>
        <time>2022-06-12T09:22:01Z</time>
      </trkpt>
      <trkpt lat="44.37405" lon="6.62776">
        <ele>1142.4</ele>
        <time>2022-06-12T09:22:02Z</time>
      </trkpt>
      <trkpt lat="44.37414" lon="6.62776">
        <ele>1142.1</ele>
        <time>2022-06-12T09:22:03Z</time>
      </trkpt>
      <trkpt lat="44.37423" lon="6.62776">
        <ele>1142</ele>
        <time>2022-06-12T09:22:04Z</time>
      </trkpt>
      <trkpt lat="44.37432" lon="6.62776">
        <ele>1142</ele>
        <time>2022-06-12T09:22:05Z</time>
      </trkpt>
      <trkpt lat="44.37441" lon="6.62776">
        <ele>1142</ele>
        <time>2022-06-12T09:22:06Z</time>
      </trkpt>
      <trkpt lat="44.3745" lon="6.62776">
        <ele>1141.8</ele>
        <time>2022-06-12T09:22:07Z</time>
      </trkpt>
      <trkpt lat="44.37458" lon="6.62776">
        <ele>1141.5</ele>
        <time>2022-06-12T09:22:08Z</time>
      </trkpt>
      <trkpt lat="44.37467" lon="6.62775">
        <ele>1141.2</ele>
        <time>2022-06-12T09:22:09Z</time>
      </trkpt>
      <trkpt lat="44.37475" lon="6.62775">
        <ele>1141</ele>
        <time>2022-06-12T09:22:10Z</time>
      </trkpt>
      <trkpt lat="44.37483" lon="6.62774">
        <ele>1141</ele>
        <time>2022-06-12T09:22:11Z</time>
      </trkpt>
      <trkpt lat="44.37491" lon="6.62774">
        <ele>1140.9</ele>
        <time>2022-06-12T09:22:12Z</time>
      </trkpt>
      <trkpt lat="44.37499" lon="6.62774">
        <ele>1140.9</ele>
        <time>2022-06-12T09:22:13Z</time>
      </trkpt>
      <trkpt lat="44.37506" lon="6.62774">
        <ele>1140.9</ele>
        <time>2022-06-12T09:22:14Z</time>
      </trkpt>
      <trkpt lat="44.37513" lon="6.62773">
        <ele>1140.8</ele>
        <time>2022-06-12T09:22:15Z</time>
      </trkpt>
      <trkpt lat="44.3752" lon="6.62772">
        <ele>1140.8</ele>
        <time>2022-06-12T09:22:16Z</time>
      </trkpt>
      <trkpt lat="44.37527" lon="6.62772">
        <ele>1140.8</ele>
        <time>2022-06-12T09:22:17Z</time>
      </trkpt>
      <trkpt lat="44.37534" lon="6.62771">
        <ele>1140.7</ele>
        <time>2022-06-12T09:22:18Z</time>
      </trkpt>
      <trkpt lat="44.37541" lon="6.62771">
        <ele>1140.6</ele>
        <time>2022-06-12T09:22:19Z</time>
      </trkpt>
      <trkpt lat="44.37547" lon="6.62771">
        <ele>1140.6</ele>
        <time>2022-06-12T09:22:20Z</time>
      </trkpt>
      <trkpt lat="44.37554" lon="6.6277">
        <ele>1140.5</ele>
        <time>2022-06-12T09:22:21Z</time>
      </trkpt>
      <trkpt lat="44.3756" lon="6.6277">
        <ele>1140.3</ele>
        <time>2022-06-12T09:22:22Z</time>
      </trkpt>
      <trkpt lat="44.37566" lon="6.6277">
        <ele>1140.2</ele>
        <time>2022-06-12T09:22:23Z</time>
      </trkpt>
      <trkpt lat="44.37573" lon="6.62772">
        <ele>1140.1</ele>
        <time>2022-06-12T09:22:24Z</time>
      </trkpt>
      <trkpt lat="44.3758" lon="6.62774">
        <ele>1140</ele>
        <time>2022-06-12T09:22:25Z</time>
      </trkpt>
      <trkpt lat="44.37588" lon="6.62776">
        <ele>1139.8</ele>
        <time>2022-06-12T09:22:26Z</time>
      </trkpt>
      <trkpt lat="44.37596" lon="6.62778">
        <ele>1139.6</ele>
        <time>2022-06-12T09:22:27Z</time>
      </trkpt>
      <trkpt lat="44.37604" lon="6.6278">
        <ele>1139.4</ele>
        <time>2022-06-12T09:22:28Z</time>
      </trkpt>
      <trkpt lat="44.37612" lon="6.62781">
        <ele>1139.2</ele>
        <time>2022-06-12T09:22:29Z</time>
      </trkpt>
      <trkpt lat="44.3762" lon="6.62783">
        <ele>1139.3</ele>
        <time>2022-06-12T09:22:30Z</time>
      </trkpt>
      <trkpt lat="44.37628" lon="6.62786">
        <ele>1139.4</ele>
        <time>2022-06-12T09:22:31Z</time>
      </trkpt>
      <trkpt lat="44.37637" lon="6.62788">
        <ele>1139.4</ele>
        <time>2022-06-12T09:22:32Z</time>
      </trkpt>
      <trkpt lat="44.37645" lon="6.62791">
        <ele>1139.1</ele>
        <time>2022-06-12T09:22:33Z</time>
      </trkpt>
      <trkpt lat="44.37653" lon="6.62793">
        <ele>1138.8</ele>
        <time>2022-06-12T09:22:34Z</time>
      </trkpt>
      <trkpt lat="44.37662" lon="6.62796">
        <ele>1138.3</ele>
        <time>2022-06-12T09:22:35Z</time>
      </trkpt>
      <trkpt lat="44.3767" lon="6.62798">
        <ele>1137.9</ele>
        <time>2022-06-12T09:22:36Z</time>
      </trkpt>
      <trkpt lat="44.37678" lon="6.628">
        <ele>1137.6</ele>
        <time>2022-06-12T09:22:37Z</time>
      </trkpt>
      <trkpt lat="44.37686" lon="6.62803">
        <ele>1137.3</ele>
        <time>2022-06-12T09:22:38Z</time>
      </trkpt>
      <trkpt lat="44.37694" lon="6.62805">
        <ele>1137</ele>
        <time>2022-06-12T09:22:39Z</time>
      </trkpt>
      <trkpt lat="44.37702" lon="6.62807">
        <ele>1136.8</ele>
        <time>2022-06-12T09:22:40Z</time>
      </trkpt>
      <trkpt lat="44.3771" lon="6.62809">
        <ele>1136.6</ele>
        <time>2022-06-12T09:22:41Z</time>
      </trkpt>
      <trkpt lat="44.37718" lon="6.62811">
        <ele>1136.3</ele>
        <time>2022-06-12T09:22:42Z</time>
      </trkpt>
      <trkpt lat="44.37726" lon="6.62813">
        <ele>1136.2</ele>
        <time>2022-06-12T09:22:43Z</time>
      </trkpt>
      <trkpt lat="44.37735" lon="6.62815">
        <ele>1136.2</ele>
        <time>2022-06-12T09:22:44Z</time>
      </trkpt>
      <trkpt lat="44.37743" lon="6.62817">
        <ele>1136.1</ele>
        <time>2022-06-12T09:22:45Z</time>
      </trkpt>
      <trkpt lat="44.37751" lon="6.62819">
        <ele>1136</ele>
        <time>2022-06-12T09:22:46Z</time>
      </trkpt>
      <trkpt lat="44.37759" lon="6.62821">
        <ele>1135.7</ele>
        <time>2022-06-12T09:22:47Z</time>
      </trkpt>
      <trkpt lat="44.37767" lon="6.62823">
        <ele>1135.4</ele>
        <time>2022-06-12T09:22:48Z</time>
      </trkpt>
      <trkpt lat="44.37775" lon="6.62826">
        <ele>1135.1</ele>
        <time>2022-06-12T09:22:49Z</time>
      </trkpt>
      <trkpt lat="44.37784" lon="6.62828">
        <ele>1134.8</ele>
        <time>2022-06-12T09:22:50Z</time>
      </trkpt>
      <trkpt lat="44.37792" lon="6.62831">
        <ele>1134.5</ele>
        <time>2022-06-12T09:22:51Z</time>
      </trkpt>
      <trkpt lat="44.378" lon="6.62833">
        <ele>1134.2</ele>
        <time>2022-06-12T09:22:52Z</time>
      </trkpt>
      <trkpt lat="44.37808" lon="6.62835">
        <ele>1133.9</ele>
        <time>2022-06-12T09:22:53Z</time>
      </trkpt>
      <trkpt lat="44.37816" lon="6.62837">
        <ele>1133.7</ele>
        <time>2022-06-12T09:22:54Z</time>
      </trkpt>
      <trkpt lat="44.37824" lon="6.62839">
        <ele>1133.5</ele>
        <time>2022-06-12T09:22:55Z</time>
      </trkpt>
      <trkpt lat="44.37832" lon="6.62841">
        <ele>1133.3</ele>
        <time>2022-06-12T09:22:56Z</time>
      </trkpt>
      <trkpt lat="44.3784" lon="6.62843">
        <ele>1133.3</ele>
        <time>2022-06-12T09:22:57Z</time>
      </trkpt>
      <trkpt lat="44.37848" lon="6.62845">
        <ele>1133.2</ele>
        <time>2022-06-12T09:22:58Z</time>
      </trkpt>
      <trkpt lat="44.37856" lon="6.62848">
        <ele>1133.1</ele>
        <time>2022-06-12T09:22:59Z</time>
      </trkpt>
      <trkpt lat="44.37863" lon="6.6285">
        <ele>1132.9</ele>
        <time>2022-06-12T09:23:00Z</time>
      </trkpt>
      <trkpt lat="44.37871" lon="6.62853">
        <ele>1132.7</ele>
        <time>2022-06-12T09:23:01Z</time>
      </trkpt>
      <trkpt lat="44.37878" lon="6.62856">
        <ele>1132.4</ele>
        <time>2022-06-12T09:23:02Z</time>
      </trkpt>
      <trkpt lat="44.37885" lon="6.62858">
        <ele>1132.1</ele>
        <time>2022-06-12T09:23:03Z</time>
      </trkpt>
      <trkpt lat="44.37892" lon="6.62861">
        <ele>1132</ele>
        <time>2022-06-12T09:23:04Z</time>
      </trkpt>
      <trkpt lat="44.37899" lon="6.62864">
        <ele>1132.1</ele>
        <time>2022-06-12T09:23:05Z</time>
      </trkpt>
      <trkpt lat="44.37907" lon="6.62868">
        <ele>1132.1</ele>
        <time>2022-06-12T09:23:06Z</time>
      </trkpt>
      <trkpt lat="44.37914" lon="6.62871">
        <ele>1132</ele>
        <time>2022-06-12T09:23:07Z</time>
      </trkpt>
      <trkpt lat="44.37921" lon="6.62874">
        <ele>1131.9</ele>
        <time>2022-06-12T09:23:08Z</time>
      </trkpt>
      <trkpt lat="44.37928" lon="6.62878">
        <ele>1131.6</ele>
        <time>2022-06-12T09:23:09Z</time>
      </trkpt>
      <trkpt lat="44.37935" lon="6.62881">
        <ele>1131.4</ele>
        <time>2022-06-12T09:23:10Z</time>
      </trkpt>
      <trkpt lat="44.37941" lon="6.62884">
        <ele>1131.1</ele>
        <time>2022-06-12T09:23:11Z</time>
      </trkpt>
      <trkpt lat="44.37948" lon="6.62888">
        <ele>1131</ele>
        <time>2022-06-12T09:23:12Z</time>
      </trkpt>
      <trkpt lat="44.37955" lon="6.62892">
        <ele>1131.1</ele>
        <time>2022-06-12T09:23:13Z</time>
      </trkpt>
      <trkpt lat="44.37961" lon="6.62896">
        <ele>1131.1</ele>
        <time>2022-06-12T09:23:14Z</time>
      </trkpt>
      <trkpt lat="44.37968" lon="6.62899">
        <ele>1131.1</ele>
        <time>2022-06-12T09:23:15Z</time>
      </trkpt>
      <trkpt lat="44.37975" lon="6.62903">
        <ele>1130.9</ele>
        <time>2022-06-12T09:23:16Z</time>
      </trkpt>
      <trkpt lat="44.37981" lon="6.62906">
        <ele>1130.7</ele>
        <time>2022-06-12T09:23:17Z</time>
      </trkpt>
      <trkpt lat="44.37988" lon="6.6291">
        <ele>1130.4</ele>
        <time>2022-06-12T09:23:18Z</time>
      </trkpt>
      <trkpt lat="44.37995" lon="6.62914">
        <ele>1130.2</ele>
        <time>2022-06-12T09:23:19Z</time>
      </trkpt>
      <trkpt lat="44.38001" lon="6.62918">
        <ele>1130</ele>
        <time>2022-06-12T09:23:20Z</time>
      </trkpt>
      <trkpt lat="44.38008" lon="6.62921">
        <ele>1129.7</ele>
        <time>2022-06-12T09:23:21Z</time>
      </trkpt>
      <trkpt lat="44.38015" lon="6.62925">
        <ele>1129.5</ele>
        <time>2022-06-12T09:23:22Z</time>
      </trkpt>
      <trkpt lat="44.38022" lon="6.62928">
        <ele>1129.2</ele>
        <time>2022-06-12T09:23:23Z</time>
      </trkpt>
      <trkpt lat="44.38029" lon="6.62932">
        <ele>1129</ele>
        <time>2022-06-12T09:23:24Z</time>
      </trkpt>
      <trkpt lat="44.38036" lon="6.62936">
        <ele>1128.7</ele>
        <time>2022-06-12T09:23:25Z</time>
      </trkpt>
      <trkpt lat="44.38043" lon="6.6294">
        <ele>1128.5</ele>
        <time>2022-06-12T09:23:26Z</time>
      </trkpt>
      <trkpt lat="44.3805" lon="6.62944">
        <ele>1128.2</ele>
        <time>2022-06-12T09:23:27Z</time>
      </trkpt>
      <trkpt lat="44.38057" lon="6.62949">
        <ele>1128</ele>
        <time>2022-06-12T09:23:28Z</time>
      </trkpt>
      <trkpt lat="44.38064" lon="6.62954">
        <ele>1127.7</ele>
        <time>2022-06-12T09:23:29Z</time>
      </trkpt>
      <trkpt lat="44.38071" lon="6.6296">
        <ele>1127.5</ele>
        <time>2022-06-12T09:23:30Z</time>
      </trkpt>
      <trkpt lat="44.38078" lon="6.62966">
        <ele>1127.2</ele>
        <time>2022-06-12T09:23:31Z</time>
      </trkpt>
      <trkpt lat="44.38085" lon="6.62973">
        <ele>1126.9</ele>
        <time>2022-06-12T09:23:32Z</time>
      </trkpt>
      <trkpt lat="44.38092" lon="6.6298">
        <ele>1126.5</ele>
        <time>2022-06-12T09:23:33Z</time>
      </trkpt>
      <trkpt lat="44.38098" lon="6.62988">
        <ele>1126.2</ele>
        <time>2022-06-12T09:23:34Z</time>
      </trkpt>
      <trkpt lat="44.38105" lon="6.62996">
        <ele>1126</ele>
        <time>2022-06-12T09:23:35Z</time>
      </trkpt>
      <trkpt lat="44.38112" lon="6.63004">
        <ele>1125.9</ele>
        <time>2022-06-12T09:23:36Z</time>
      </trkpt>
      <trkpt lat="44.38118" lon="6.63011">
        <ele>1125.4</ele>
        <time>2022-06-12T09:23:37Z</time>
      </trkpt>
      <trkpt lat="44.38125" lon="6.63019">
        <ele>1125.2</ele>
        <time>2022-06-12T09:23:38Z</time>
      </trkpt>
      <trkpt lat="44.38131" lon="6.63027">
        <ele>1125</ele>
        <time>2022-06-12T09:23:39Z</time>
      </trkpt>
      <trkpt lat="44.38138" lon="6.63035">
        <ele>1125</ele>
        <time>2022-06-12T09:23:40Z</time>
      </trkpt>
      <trkpt lat="44.38145" lon="6.63042">
        <ele>1124.8</ele>
        <time>2022-06-12T09:23:41Z</time>
      </trkpt>
      <trkpt lat="44.38152" lon="6.6305">
        <ele>1124.5</ele>
        <time>2022-06-12T09:23:42Z</time>
      </trkpt>
      <trkpt lat="44.38158" lon="6.63057">
        <ele>1124.3</ele>
        <time>2022-06-12T09:23:43Z</time>
      </trkpt>
      <trkpt lat="44.38165" lon="6.63065">
        <ele>1124.1</ele>
        <time>2022-06-12T09:23:44Z</time>
      </trkpt>
      <trkpt lat="44.38171" lon="6.63073">
        <ele>1124</ele>
        <time>2022-06-12T09:23:45Z</time>
      </trkpt>
      <trkpt lat="44.38177" lon="6.63082">
        <ele>1124</ele>
        <time>2022-06-12T09:23:46Z</time>
      </trkpt>
      <trkpt lat="44.38183" lon="6.6309">
        <ele>1124</ele>
        <time>2022-06-12T09:23:47Z</time>
      </trkpt>
      <trkpt lat="44.38189" lon="6.63098">
        <ele>1124</ele>
        <time>2022-06-12T09:23:48Z</time>
      </trkpt>
      <trkpt lat="44.38194" lon="6.63107">
        <ele>1124</ele>
        <time>2022-06-12T09:23:49Z</time>
      </trkpt>
      <trkpt lat="44.38199" lon="6.63115">
        <ele>1123.7</ele>
        <time>2022-06-12T09:23:50Z</time>
      </trkpt>
      <trkpt lat="44.38203" lon="6.63124">
        <ele>1123.4</ele>
        <time>2022-06-12T09:23:51Z</time>
      </trkpt>
      <trkpt lat="44.38207" lon="6.63133">
        <ele>1123.1</ele>
        <time>2022-06-12T09:23:52Z</time>
      </trkpt>
      <trkpt lat="44.38211" lon="6.63143">
        <ele>1123</ele>
        <time>2022-06-12T09:23:53Z</time>
      </trkpt>
      <trkpt lat="44.38214" lon="6.63152">
        <ele>1123</ele>
        <time>2022-06-12T09:23:54Z</time>
      </trkpt>
      <trkpt lat="44.38217" lon="6.63162">
        <ele>1123</ele>
        <time>2022-06-12T09:23:55Z</time>
      </trkpt>
      <trkpt lat="44.38219" lon="6.63172">
        <ele>1123</ele>
        <time>2022-06-12T09:23:56Z</time>
      </trkpt>
      <trkpt lat="44.38222" lon="6.63182">
        <ele>1123</ele>
        <time>2022-06-12T09:23:57Z</time>
      </trkpt>
      <trkpt lat="44.38225" lon="6.63192">
        <ele>1123</ele>
        <time>2022-06-12T09:23:58Z</time>
      </trkpt>
      <trkpt lat="44.38228" lon="6.63202">
        <ele>1122.7</ele>
        <time>2022-06-12T09:23:59Z</time>
      </trkpt>
      <trkpt lat="44.38231" lon="6.63212">
        <ele>1122.4</ele>
        <time>2022-06-12T09:24:00Z</time>
      </trkpt>
      <trkpt lat="44.38233" lon="6.63222">
        <ele>1122</ele>
        <time>2022-06-12T09:24:01Z</time>
      </trkpt>
      <trkpt lat="44.38236" lon="6.63232">
        <ele>1122</ele>
        <time>2022-06-12T09:24:02Z</time>
      </trkpt>
      <trkpt lat="44.38239" lon="6.63242">
        <ele>1122</ele>
        <time>2022-06-12T09:24:03Z</time>
      </trkpt>
      <trkpt lat="44.38242" lon="6.63252">
        <ele>1122</ele>
        <time>2022-06-12T09:24:04Z</time>
      </trkpt>
      <trkpt lat="44.38245" lon="6.63261">
        <ele>1122.1</ele>
        <time>2022-06-12T09:24:05Z</time>
      </trkpt>
      <trkpt lat="44.38248" lon="6.63271">
        <ele>1122.1</ele>
        <time>2022-06-12T09:24:06Z</time>
      </trkpt>
      <trkpt lat="44.38251" lon="6.6328">
        <ele>1122</ele>
        <time>2022-06-12T09:24:07Z</time>
      </trkpt>
      <trkpt lat="44.38253" lon="6.6329">
        <ele>1122</ele>
        <time>2022-06-12T09:24:08Z</time>
      </trkpt>
      <trkpt lat="44.38256" lon="6.633">
        <ele>1122</ele>
        <time>2022-06-12T09:24:09Z</time>
      </trkpt>
      <trkpt lat="44.38259" lon="6.63309">
        <ele>1122</ele>
        <time>2022-06-12T09:24:10Z</time>
      </trkpt>
      <trkpt lat="44.38262" lon="6.63319">
        <ele>1122</ele>
        <time>2022-06-12T09:24:11Z</time>
      </trkpt>
      <trkpt lat="44.38264" lon="6.63329">
        <ele>1122</ele>
        <time>2022-06-12T09:24:12Z</time>
      </trkpt>
      <trkpt lat="44.38267" lon="6.63338">
        <ele>1122</ele>
        <time>2022-06-12T09:24:13Z</time>
      </trkpt>
      <trkpt lat="44.3827" lon="6.63348">
        <ele>1122</ele>
        <time>2022-06-12T09:24:14Z</time>
      </trkpt>
      <trkpt lat="44.38273" lon="6.63358">
        <ele>1122</ele>
        <time>2022-06-12T09:24:15Z</time>
      </trkpt>
      <trkpt lat="44.38275" lon="6.63367">
        <ele>1122</ele>
        <time>2022-06-12T09:24:16Z</time>
      </trkpt>
      <trkpt lat="44.38277" lon="6.63377">
        <ele>1122</ele>
        <time>2022-06-12T09:24:17Z</time>
      </trkpt>
      <trkpt lat="44.38279" lon="6.63386">
        <ele>1122</ele>
        <time>2022-06-12T09:24:18Z</time>
      </trkpt>
      <trkpt lat="44.38281" lon="6.63396">
        <ele>1122</ele>
        <time>2022-06-12T09:24:19Z</time>
      </trkpt>
      <trkpt lat="44.38282" lon="6.63406">
        <ele>1122</ele>
        <time>2022-06-12T09:24:20Z</time>
      </trkpt>
      <trkpt lat="44.38284" lon="6.63416">
        <ele>1122</ele>
        <time>2022-06-12T09:24:21Z</time>
      </trkpt>
      <trkpt lat="44.38284" lon="6.63425">
        <ele>1122</ele>
        <time>2022-06-12T09:24:22Z</time>
      </trkpt>
      <trkpt lat="44.38285" lon="6.63435">
        <ele>1122</ele>
        <time>2022-06-12T09:24:23Z</time>
      </trkpt>
      <trkpt lat="44.38286" lon="6.63444">
        <ele>1122</ele>
        <time>2022-06-12T09:24:24Z</time>
      </trkpt>
      <trkpt lat="44.38287" lon="6.63454">
        <ele>1122.3</ele>
        <time>2022-06-12T09:24:25Z</time>
      </trkpt>
      <trkpt lat="44.38288" lon="6.63463">
        <ele>1122.7</ele>
        <time>2022-06-12T09:24:26Z</time>
      </trkpt>
      <trkpt lat="44.38288" lon="6.63473">
        <ele>1123</ele>
        <time>2022-06-12T09:24:27Z</time>
      </trkpt>
      <trkpt lat="44.38288" lon="6.63482">
        <ele>1123</ele>
        <time>2022-06-12T09:24:28Z</time>
      </trkpt>
      <trkpt lat="44.38288" lon="6.63491">
        <ele>1123</ele>
        <time>2022-06-12T09:24:29Z</time>
      </trkpt>
      <trkpt lat="44.38288" lon="6.635">
        <ele>1123</ele>
        <time>2022-06-12T09:24:30Z</time>
      </trkpt>
      <trkpt lat="44.38288" lon="6.63509">
        <ele>1123</ele>
        <time>2022-06-12T09:24:31Z</time>
      </trkpt>
      <trkpt lat="44.38289" lon="6.63518">
        <ele>1123</ele>
        <time>2022-06-12T09:24:32Z</time>
      </trkpt>
      <trkpt lat="44.38289" lon="6.63527">
        <ele>1123</ele>
        <time>2022-06-12T09:24:33Z</time>
      </trkpt>
      <trkpt lat="44.3829" lon="6.63536">
        <ele>1123.2</ele>
        <time>2022-06-12T09:24:34Z</time>
      </trkpt>
      <trkpt lat="44.38291" lon="6.63545">
        <ele>1123.3</ele>
        <time>2022-06-12T09:24:35Z</time>
      </trkpt>
      <trkpt lat="44.38291" lon="6.63554">
        <ele>1123.5</ele>
        <time>2022-06-12T09:24:36Z</time>
      </trkpt>
      <trkpt lat="44.38292" lon="6.63563">
        <ele>1123.6</ele>
        <time>2022-06-12T09:24:37Z</time>
      </trkpt>
      <trkpt lat="44.38292" lon="6.63573">
        <ele>1123.8</ele>
        <time>2022-06-12T09:24:38Z</time>
      </trkpt>
      <trkpt lat="44.38292" lon="6.63582">
        <ele>1124</ele>
        <time>2022-06-12T09:24:39Z</time>
      </trkpt>
      <trkpt lat="44.38292" lon="6.63592">
        <ele>1124.1</ele>
        <time>2022-06-12T09:24:40Z</time>
      </trkpt>
      <trkpt lat="44.38293" lon="6.63601">
        <ele>1124.3</ele>
        <time>2022-06-12T09:24:41Z</time>
      </trkpt>
      <trkpt lat="44.38293" lon="6.6361">
        <ele>1124.4</ele>
        <time>2022-06-12T09:24:42Z</time>
      </trkpt>
      <trkpt lat="44.38293" lon="6.63619">
        <ele>1124.7</ele>
        <time>2022-06-12T09:24:43Z</time>
      </trkpt>
      <trkpt lat="44.38294" lon="6.63629">
        <ele>1125</ele>
        <time>2022-06-12T09:24:44Z</time>
      </trkpt>
      <trkpt lat="44.38294" lon="6.63638">
        <ele>1125.4</ele>
        <time>2022-06-12T09:24:45Z</time>
      </trkpt>
      <trkpt lat="44.38295" lon="6.63647">
        <ele>1125.4</ele>
        <time>2022-06-12T09:24:46Z</time>
      </trkpt>
      <trkpt lat="44.38295" lon="6.63657">
        <ele>1125.4</ele>
        <time>2022-06-12T09:24:47Z</time>
      </trkpt>
      <trkpt lat="44.38296" lon="6.63666">
        <ele>1125.3</ele>
        <time>2022-06-12T09:24:48Z</time>
      </trkpt>
      <trkpt lat="44.38297" lon="6.63675">
        <ele>1125.3</ele>
        <time>2022-06-12T09:24:49Z</time>
      </trkpt>
      <trkpt lat="44.38298" lon="6.63684">
        <ele>1125.3</ele>
        <time>2022-06-12T09:24:50Z</time>
      </trkpt>
      <trkpt lat="44.38299" lon="6.63693">
        <ele>1125.3</ele>
        <time>2022-06-12T09:24:51Z</time>
      </trkpt>
      <trkpt lat="44.383" lon="6.63702">
        <ele>1125.1</ele>
        <time>2022-06-12T09:24:52Z</time>
      </trkpt>
      <trkpt lat="44.38301" lon="6.63712">
        <ele>1125.1</ele>
        <time>2022-06-12T09:24:53Z</time>
      </trkpt>
      <trkpt lat="44.38302" lon="6.63721">
        <ele>1125</ele>
        <time>2022-06-12T09:24:54Z</time>
      </trkpt>
      <trkpt lat="44.38304" lon="6.63729">
        <ele>1125</ele>
        <time>2022-06-12T09:24:55Z</time>
      </trkpt>
      <trkpt lat="44.38305" lon="6.63738">
        <ele>1125</ele>
        <time>2022-06-12T09:24:56Z</time>
      </trkpt>
      <trkpt lat="44.38307" lon="6.63748">
        <ele>1125</ele>
        <time>2022-06-12T09:24:57Z</time>
      </trkpt>
      <trkpt lat="44.38308" lon="6.63757">
        <ele>1125</ele>
        <time>2022-06-12T09:24:58Z</time>
      </trkpt>
      <trkpt lat="44.38309" lon="6.63767">
        <ele>1125</ele>
        <time>2022-06-12T09:24:59Z</time>
      </trkpt>
      <trkpt lat="44.3831" lon="6.63776">
        <ele>1125</ele>
        <time>2022-06-12T09:25:00Z</time>
      </trkpt>
      <trkpt lat="44.38311" lon="6.63785">
        <ele>1125</ele>
        <time>2022-06-12T09:25:01Z</time>
      </trkpt>
      <trkpt lat="44.38312" lon="6.63794">
        <ele>1125</ele>
        <time>2022-06-12T09:25:02Z</time>
      </trkpt>
      <trkpt lat="44.38314" lon="6.63803">
        <ele>1125</ele>
        <time>2022-06-12T09:25:03Z</time>
      </trkpt>
      <trkpt lat="44.38314" lon="6.63812">
        <ele>1125</ele>
        <time>2022-06-12T09:25:04Z</time>
      </trkpt>
      <trkpt lat="44.38315" lon="6.63821">
        <ele>1125</ele>
        <time>2022-06-12T09:25:05Z</time>
      </trkpt>
      <trkpt lat="44.38316" lon="6.6383">
        <ele>1125</ele>
        <time>2022-06-12T09:25:06Z</time>
      </trkpt>
      <trkpt lat="44.38317" lon="6.63839">
        <ele>1125</ele>
        <time>2022-06-12T09:25:07Z</time>
      </trkpt>
      <trkpt lat="44.38318" lon="6.63848">
        <ele>1125</ele>
        <time>2022-06-12T09:25:08Z</time>
      </trkpt>
      <trkpt lat="44.38319" lon="6.63858">
        <ele>1125</ele>
        <time>2022-06-12T09:25:09Z</time>
      </trkpt>
      <trkpt lat="44.3832" lon="6.63867">
        <ele>1125.1</ele>
        <time>2022-06-12T09:25:10Z</time>
      </trkpt>
      <trkpt lat="44.38322" lon="6.63876">
        <ele>1125.2</ele>
        <time>2022-06-12T09:25:11Z</time>
      </trkpt>
      <trkpt lat="44.38323" lon="6.63885">
        <ele>1125.3</ele>
        <time>2022-06-12T09:25:12Z</time>
      </trkpt>
      <trkpt lat="44.38325" lon="6.63894">
        <ele>1125.3</ele>
        <time>2022-06-12T09:25:13Z</time>
      </trkpt>
      <trkpt lat="44.38327" lon="6.63903">
        <ele>1125.2</ele>
        <time>2022-06-12T09:25:14Z</time>
      </trkpt>
      <trkpt lat="44.38329" lon="6.63913">
        <ele>1125.2</ele>
        <time>2022-06-12T09:25:15Z</time>
      </trkpt>
      <trkpt lat="44.38331" lon="6.63922">
        <ele>1125.1</ele>
        <time>2022-06-12T09:25:16Z</time>
      </trkpt>
      <trkpt lat="44.38332" lon="6.63931">
        <ele>1125</ele>
        <time>2022-06-12T09:25:17Z</time>
      </trkpt>
      <trkpt lat="44.38334" lon="6.63941">
        <ele>1125</ele>
        <time>2022-06-12T09:25:18Z</time>
      </trkpt>
      <trkpt lat="44.38336" lon="6.6395">
        <ele>1125</ele>
        <time>2022-06-12T09:25:19Z</time>
      </trkpt>
      <trkpt lat="44.38338" lon="6.63959">
        <ele>1125.1</ele>
        <time>2022-06-12T09:25:20Z</time>
      </trkpt>
      <trkpt lat="44.3834" lon="6.63968">
        <ele>1125.2</ele>
        <time>2022-06-12T09:25:21Z</time>
      </trkpt>
      <trkpt lat="44.38341" lon="6.63977">
        <ele>1125.4</ele>
        <time>2022-06-12T09:25:22Z</time>
      </trkpt>
      <trkpt lat="44.38343" lon="6.63986">
        <ele>1125.7</ele>
        <time>2022-06-12T09:25:23Z</time>
      </trkpt>
      <trkpt lat="44.38345" lon="6.63995">
        <ele>1125.9</ele>
        <time>2022-06-12T09:25:24Z</time>
      </trkpt>
      <trkpt lat="44.38346" lon="6.64005">
        <ele>1126</ele>
        <time>2022-06-12T09:25:25Z</time>
      </trkpt>
      <trkpt lat="44.38348" lon="6.64014">
        <ele>1126</ele>
        <time>2022-06-12T09:25:26Z</time>
      </trkpt>
      <trkpt lat="44.3835" lon="6.64023">
        <ele>1126</ele>
        <time>2022-06-12T09:25:27Z</time>
      </trkpt>
      <trkpt lat="44.38351" lon="6.64032">
        <ele>1126</ele>
        <time>2022-06-12T09:25:28Z</time>
      </trkpt>
      <trkpt lat="44.38353" lon="6.64041">
        <ele>1126</ele>
        <time>2022-06-12T09:25:29Z</time>
      </trkpt>
      <trkpt lat="44.38354" lon="6.6405">
        <ele>1126</ele>
        <time>2022-06-12T09:25:30Z</time>
      </trkpt>
      <trkpt lat="44.38356" lon="6.6406">
        <ele>1126</ele>
        <time>2022-06-12T09:25:31Z</time>
      </trkpt>
      <trkpt lat="44.38357" lon="6.64069">
        <ele>1126</ele>
        <time>2022-06-12T09:25:32Z</time>
      </trkpt>
      <trkpt lat="44.38359" lon="6.64078">
        <ele>1126</ele>
        <time>2022-06-12T09:25:33Z</time>
      </trkpt>
      <trkpt lat="44.3836" lon="6.64087">
        <ele>1126.1</ele>
        <time>2022-06-12T09:25:34Z</time>
      </trkpt>
      <trkpt lat="44.38362" lon="6.64096">
        <ele>1126.5</ele>
        <time>2022-06-12T09:25:35Z</time>
      </trkpt>
      <trkpt lat="44.38363" lon="6.64106">
        <ele>1126.8</ele>
        <time>2022-06-12T09:25:36Z</time>
      </trkpt>
      <trkpt lat="44.38364" lon="6.64115">
        <ele>1127</ele>
        <time>2022-06-12T09:25:37Z</time>
      </trkpt>
      <trkpt lat="44.38365" lon="6.64124">
        <ele>1127</ele>
        <time>2022-06-12T09:25:38Z</time>
      </trkpt>
      <trkpt lat="44.38367" lon="6.64133">
        <ele>1127</ele>
        <time>2022-06-12T09:25:39Z</time>
      </trkpt>
      <trkpt lat="44.38368" lon="6.64142">
        <ele>1127</ele>
        <time>2022-06-12T09:25:40Z</time>
      </trkpt>
      <trkpt lat="44.38369" lon="6.64151">
        <ele>1127</ele>
        <time>2022-06-12T09:25:41Z</time>
      </trkpt>
      <trkpt lat="44.3837" lon="6.64161">
        <ele>1127</ele>
        <time>2022-06-12T09:25:42Z</time>
      </trkpt>
      <trkpt lat="44.38371" lon="6.6417">
        <ele>1127</ele>
        <time>2022-06-12T09:25:43Z</time>
      </trkpt>
      <trkpt lat="44.38372" lon="6.64179">
        <ele>1127</ele>
        <time>2022-06-12T09:25:44Z</time>
      </trkpt>
      <trkpt lat="44.38374" lon="6.64188">
        <ele>1127</ele>
        <time>2022-06-12T09:25:45Z</time>
      </trkpt>
      <trkpt lat="44.38375" lon="6.64197">
        <ele>1127</ele>
        <time>2022-06-12T09:25:46Z</time>
      </trkpt>
      <trkpt lat="44.38376" lon="6.64206">
        <ele>1127.2</ele>
        <time>2022-06-12T09:25:47Z</time>
      </trkpt>
      <trkpt lat="44.38377" lon="6.64215">
        <ele>1127.4</ele>
        <time>2022-06-12T09:25:48Z</time>
      </trkpt>
      <trkpt lat="44.38378" lon="6.64224">
        <ele>1127.6</ele>
        <time>2022-06-12T09:25:49Z</time>
      </trkpt>
      <trkpt lat="44.3838" lon="6.64233">
        <ele>1127.8</ele>
        <time>2022-06-12T09:25:50Z</time>
      </trkpt>
      <trkpt lat="44.38381" lon="6.64242">
        <ele>1127.9</ele>
        <time>2022-06-12T09:25:51Z</time>
      </trkpt>
      <trkpt lat="44.38382" lon="6.64251">
        <ele>1128</ele>
        <time>2022-06-12T09:25:52Z</time>
      </trkpt>
      <trkpt lat="44.38383" lon="6.6426">
        <ele>1128</ele>
        <time>2022-06-12T09:25:53Z</time>
      </trkpt>
      <trkpt lat="44.38383" lon="6.64269">
        <ele>1128</ele>
        <time>2022-06-12T09:25:54Z</time>
      </trkpt>
      <trkpt lat="44.38384" lon="6.64278">
        <ele>1128</ele>
        <time>2022-06-12T09:25:55Z</time>
      </trkpt>
      <trkpt lat="44.38385" lon="6.64287">
        <ele>1128</ele>
        <time>2022-06-12T09:25:56Z</time>
      </trkpt>
      <trkpt lat="44.38387" lon="6.64295">
        <ele>1128</ele>
        <time>2022-06-12T09:25:57Z</time>
      </trkpt>
      <trkpt lat="44.38388" lon="6.64304">
        <ele>1128</ele>
        <time>2022-06-12T09:25:58Z</time>
      </trkpt>
      <trkpt lat="44.38389" lon="6.64313">
        <ele>1128</ele>
        <time>2022-06-12T09:25:59Z</time>
      </trkpt>
      <trkpt lat="44.3839" lon="6.64321">
        <ele>1128</ele>
        <time>2022-06-12T09:26:00Z</time>
      </trkpt>
      <trkpt lat="44.38392" lon="6.64329">
        <ele>1128.1</ele>
        <time>2022-06-12T09:26:01Z</time>
      </trkpt>
      <trkpt lat="44.38393" lon="6.64338">
        <ele>1128.1</ele>
        <time>2022-06-12T09:26:02Z</time>
      </trkpt>
      <trkpt lat="44.38394" lon="6.64346">
        <ele>1128.2</ele>
        <time>2022-06-12T09:26:03Z</time>
      </trkpt>
      <trkpt lat="44.38396" lon="6.64354">
        <ele>1128.2</ele>
        <time>2022-06-12T09:26:04Z</time>
      </trkpt>
      <trkpt lat="44.38397" lon="6.64363">
        <ele>1128.3</ele>
        <time>2022-06-12T09:26:05Z</time>
      </trkpt>
      <trkpt lat="44.38399" lon="6.64371">
        <ele>1128.3</ele>
        <time>2022-06-12T09:26:06Z</time>
      </trkpt>
      <trkpt lat="44.384" lon="6.64379">
        <ele>1128.4</ele>
        <time>2022-06-12T09:26:07Z</time>
      </trkpt>
      <trkpt lat="44.38401" lon="6.64387">
        <ele>1128.4</ele>
        <time>2022-06-12T09:26:08Z</time>
      </trkpt>
      <trkpt lat="44.38402" lon="6.64396">
        <ele>1128.5</ele>
        <time>2022-06-12T09:26:09Z</time>
      </trkpt>
      <trkpt lat="44.38404" lon="6.64404">
        <ele>1128.5</ele>
        <time>2022-06-12T09:26:10Z</time>
      </trkpt>
      <trkpt lat="44.38405" lon="6.64411">
        <ele>1128.6</ele>
        <time>2022-06-12T09:26:11Z</time>
      </trkpt>
      <trkpt lat="44.38406" lon="6.64419">
        <ele>1128.6</ele>
        <time>2022-06-12T09:26:12Z</time>
      </trkpt>
      <trkpt lat="44.38407" lon="6.64428">
        <ele>1128.6</ele>
        <time>2022-06-12T09:26:13Z</time>
      </trkpt>
      <trkpt lat="44.38408" lon="6.64435">
        <ele>1128.7</ele>
        <time>2022-06-12T09:26:14Z</time>
      </trkpt>
      <trkpt lat="44.38409" lon="6.64444">
        <ele>1128.7</ele>
        <time>2022-06-12T09:26:15Z</time>
      </trkpt>
      <trkpt lat="44.38411" lon="6.64452">
        <ele>1128.8</ele>
        <time>2022-06-12T09:26:16Z</time>
      </trkpt>
      <trkpt lat="44.38412" lon="6.6446">
        <ele>1128.9</ele>
        <time>2022-06-12T09:26:17Z</time>
      </trkpt>
      <trkpt lat="44.38414" lon="6.64469">
        <ele>1129</ele>
        <time>2022-06-12T09:26:18Z</time>
      </trkpt>
      <trkpt lat="44.38415" lon="6.64477">
        <ele>1129.2</ele>
        <time>2022-06-12T09:26:19Z</time>
      </trkpt>
      <trkpt lat="44.38417" lon="6.64486">
        <ele>1129.5</ele>
        <time>2022-06-12T09:26:20Z</time>
      </trkpt>
      <trkpt lat="44.38419" lon="6.64494">
        <ele>1129.8</ele>
        <time>2022-06-12T09:26:21Z</time>
      </trkpt>
      <trkpt lat="44.38421" lon="6.64503">
        <ele>1130</ele>
        <time>2022-06-12T09:26:22Z</time>
      </trkpt>
      <trkpt lat="44.38422" lon="6.64511">
        <ele>1130.1</ele>
        <time>2022-06-12T09:26:23Z</time>
      </trkpt>
      <trkpt lat="44.38423" lon="6.64519">
        <ele>1130.2</ele>
        <time>2022-06-12T09:26:24Z</time>
      </trkpt>
      <trkpt lat="44.38424" lon="6.64528">
        <ele>1130.3</ele>
        <time>2022-06-12T09:26:25Z</time>
      </trkpt>
      <trkpt lat="44.38425" lon="6.64536">
        <ele>1130.3</ele>
        <time>2022-06-12T09:26:26Z</time>
      </trkpt>
      <trkpt lat="44.38425" lon="6.64543">
        <ele>1130.3</ele>
        <time>2022-06-12T09:26:27Z</time>
      </trkpt>
      <trkpt lat="44.38426" lon="6.64551">
        <ele>1130.3</ele>
        <time>2022-06-12T09:26:28Z</time>
      </trkpt>
      <trkpt lat="44.38427" lon="6.64559">
        <ele>1130.4</ele>
        <time>2022-06-12T09:26:29Z</time>
      </trkpt>
      <trkpt lat="44.38427" lon="6.64567">
        <ele>1130.4</ele>
        <time>2022-06-12T09:26:30Z</time>
      </trkpt>
      <trkpt lat="44.38428" lon="6.64575">
        <ele>1130.4</ele>
        <time>2022-06-12T09:26:31Z</time>
      </trkpt>
      <trkpt lat="44.38429" lon="6.64582">
        <ele>1130.5</ele>
        <time>2022-06-12T09:26:32Z</time>
      </trkpt>
      <trkpt lat="44.3843" lon="6.6459">
        <ele>1130.5</ele>
        <time>2022-06-12T09:26:33Z</time>
      </trkpt>
      <trkpt lat="44.38431" lon="6.64598">
        <ele>1130.5</ele>
        <time>2022-06-12T09:26:34Z</time>
      </trkpt>
      <trkpt lat="44.38432" lon="6.64606">
        <ele>1130.6</ele>
        <time>2022-06-12T09:26:35Z</time>
      </trkpt>
      <trkpt lat="44.38433" lon="6.64613">
        <ele>1130.7</ele>
        <time>2022-06-12T09:26:36Z</time>
      </trkpt>
      <trkpt lat="44.38433" lon="6.64622">
        <ele>1131</ele>
        <time>2022-06-12T09:26:37Z</time>
      </trkpt>
      <trkpt lat="44.38434" lon="6.6463">
        <ele>1131.3</ele>
        <time>2022-06-12T09:26:38Z</time>
      </trkpt>
      <trkpt lat="44.38436" lon="6.64638">
        <ele>1131.6</ele>
        <time>2022-06-12T09:26:39Z</time>
      </trkpt>
      <trkpt lat="44.38437" lon="6.64646">
        <ele>1131.7</ele>
        <time>2022-06-12T09:26:40Z</time>
      </trkpt>
      <trkpt lat="44.38438" lon="6.64654">
        <ele>1131.8</ele>
        <time>2022-06-12T09:26:41Z</time>
      </trkpt>
      <trkpt lat="44.38439" lon="6.64662">
        <ele>1131.8</ele>
        <time>2022-06-12T09:26:42Z</time>
      </trkpt>
      <trkpt lat="44.3844" lon="6.6467">
        <ele>1131.9</ele>
        <time>2022-06-12T09:26:43Z</time>
      </trkpt>
      <trkpt lat="44.38441" lon="6.64678">
        <ele>1131.9</ele>
        <time>2022-06-12T09:26:44Z</time>
      </trkpt>
      <trkpt lat="44.38442" lon="6.64686">
        <ele>1131.9</ele>
        <time>2022-06-12T09:26:45Z</time>
      </trkpt>
      <trkpt lat="44.38443" lon="6.64694">
        <ele>1132</ele>
        <time>2022-06-12T09:26:46Z</time>
      </trkpt>
      <trkpt lat="44.38445" lon="6.64702">
        <ele>1132</ele>
        <time>2022-06-12T09:26:47Z</time>
      </trkpt>
      <trkpt lat="44.38446" lon="6.6471">
        <ele>1132</ele>
        <time>2022-06-12T09:26:48Z</time>
      </trkpt>
      <trkpt lat="44.38447" lon="6.64718">
        <ele>1132.1</ele>
        <time>2022-06-12T09:26:49Z</time>
      </trkpt>
      <trkpt lat="44.38447" lon="6.64725">
        <ele>1132.1</ele>
        <time>2022-06-12T09:26:50Z</time>
      </trkpt>
      <trkpt lat="44.38448" lon="6.64733">
        <ele>1132.2</ele>
        <time>2022-06-12T09:26:51Z</time>
      </trkpt>
      <trkpt lat="44.38448" lon="6.64741">
        <ele>1132.2</ele>
        <time>2022-06-12T09:26:52Z</time>
      </trkpt>
      <trkpt lat="44.38448" lon="6.64748">
        <ele>1132.2</ele>
        <time>2022-06-12T09:26:53Z</time>
      </trkpt>
      <trkpt lat="44.38448" lon="6.64756">
        <ele>1132.4</ele>
        <time>2022-06-12T09:26:54Z</time>
      </trkpt>
      <trkpt lat="44.38447" lon="6.64763">
        <ele>1132.6</ele>
        <time>2022-06-12T09:26:55Z</time>
      </trkpt>
      <trkpt lat="44.38446" lon="6.64771">
        <ele>1132.8</ele>
        <time>2022-06-12T09:26:56Z</time>
      </trkpt>
      <trkpt lat="44.38445" lon="6.64778">
        <ele>1133</ele>
        <time>2022-06-12T09:26:57Z</time>
      </trkpt>
      <trkpt lat="44.38444" lon="6.64785">
        <ele>1133.2</ele>
        <time>2022-06-12T09:26:58Z</time>
      </trkpt>
      <trkpt lat="44.38442" lon="6.64791">
        <ele>1133.4</ele>
        <time>2022-06-12T09:26:59Z</time>
      </trkpt>
      <trkpt lat="44.38441" lon="6.64798">
        <ele>1133.7</ele>
        <time>2022-06-12T09:27:00Z</time>
      </trkpt>
      <trkpt lat="44.38441" lon="6.64804">
        <ele>1133.9</ele>
        <time>2022-06-12T09:27:01Z</time>
      </trkpt>
      <trkpt lat="44.3844" lon="6.6481">
        <ele>1134.1</ele>
        <time>2022-06-12T09:27:02Z</time>
      </trkpt>
      <trkpt lat="44.38439" lon="6.64816">
        <ele>1134.3</ele>
        <time>2022-06-12T09:27:03Z</time>
      </trkpt>
      <trkpt lat="44.3844" lon="6.64821">
        <ele>1134.5</ele>
        <time>2022-06-12T09:27:04Z</time>
      </trkpt>
      <trkpt lat="44.3844" lon="6.64827">
        <ele>1134.7</ele>
        <time>2022-06-12T09:27:05Z</time>
      </trkpt>
      <trkpt lat="44.38442" lon="6.64833">
        <ele>1134.9</ele>
        <time>2022-06-12T09:27:06Z</time>
      </trkpt>
      <trkpt lat="44.38444" lon="6.64838">
        <ele>1135</ele>
        <time>2022-06-12T09:27:07Z</time>
      </trkpt>
      <trkpt lat="44.38447" lon="6.64843">
        <ele>1134.5</ele>
        <time>2022-06-12T09:27:08Z</time>
      </trkpt>
      <trkpt lat="44.3845" lon="6.64848">
        <ele>1133.8</ele>
        <time>2022-06-12T09:27:09Z</time>
      </trkpt>
      <trkpt lat="44.38454" lon="6.64851">
        <ele>1133</ele>
        <time>2022-06-12T09:27:10Z</time>
      </trkpt>
      <trkpt lat="44.38459" lon="6.64854">
        <ele>1132.1</ele>
        <time>2022-06-12T09:27:11Z</time>
      </trkpt>
      <trkpt lat="44.38463" lon="6.64857">
        <ele>1131.1</ele>
        <time>2022-06-12T09:27:12Z</time>
      </trkpt>
      <trkpt lat="44.38467" lon="6.64859">
        <ele>1130.2</ele>
        <time>2022-06-12T09:27:13Z</time>
      </trkpt>
      <trkpt lat="44.38471" lon="6.64862">
        <ele>1129.2</ele>
        <time>2022-06-12T09:27:14Z</time>
      </trkpt>
      <trkpt lat="44.38476" lon="6.64864">
        <ele>1129.6</ele>
        <time>2022-06-12T09:27:15Z</time>
      </trkpt>
      <trkpt lat="44.3848" lon="6.64868">
        <ele>1130.4</ele>
        <time>2022-06-12T09:27:16Z</time>
      </trkpt>
      <trkpt lat="44.38484" lon="6.64871">
        <ele>1131.3</ele>
        <time>2022-06-12T09:27:17Z</time>
      </trkpt>
      <trkpt lat="44.38489" lon="6.64876">
        <ele>1132.3</ele>
        <time>2022-06-12T09:27:18Z</time>
      </trkpt>
      <trkpt lat="44.38494" lon="6.64881">
        <ele>1133.4</ele>
        <time>2022-06-12T09:27:19Z</time>
      </trkpt>
      <trkpt lat="44.38499" lon="6.64886">
        <ele>1134.6</ele>
        <time>2022-06-12T09:27:20Z</time>
      </trkpt>
      <trkpt lat="44.38503" lon="6.64892">
        <ele>1134.9</ele>
        <time>2022-06-12T09:27:21Z</time>
      </trkpt>
      <trkpt lat="44.38508" lon="6.64898">
        <ele>1134.7</ele>
        <time>2022-06-12T09:27:22Z</time>
      </trkpt>
      <trkpt lat="44.38512" lon="6.64906">
        <ele>1134.6</ele>
        <time>2022-06-12T09:27:23Z</time>
      </trkpt>
      <trkpt lat="44.38516" lon="6.64914">
        <ele>1134.4</ele>
        <time>2022-06-12T09:27:24Z</time>
      </trkpt>
      <trkpt lat="44.3852" lon="6.64922">
        <ele>1134.2</ele>
        <time>2022-06-12T09:27:25Z</time>
      </trkpt>
      <trkpt lat="44.38524" lon="6.6493">
        <ele>1133.7</ele>
        <time>2022-06-12T09:27:26Z</time>
      </trkpt>
      <trkpt lat="44.38528" lon="6.64938">
        <ele>1133.2</ele>
        <time>2022-06-12T09:27:27Z</time>
      </trkpt>
      <trkpt lat="44.38532" lon="6.64946">
        <ele>1132.9</ele>
        <time>2022-06-12T09:27:28Z</time>
      </trkpt>
      <trkpt lat="44.38536" lon="6.64954">
        <ele>1132.7</ele>
        <time>2022-06-12T09:27:29Z</time>
      </trkpt>
      <trkpt lat="44.3854" lon="6.64963">
        <ele>1132.6</ele>
        <time>2022-06-12T09:27:30Z</time>
      </trkpt>
      <trkpt lat="44.38543" lon="6.64971">
        <ele>1132.4</ele>
        <time>2022-06-12T09:27:31Z</time>
      </trkpt>
      <trkpt lat="44.38547" lon="6.64979">
        <ele>1132.3</ele>
        <time>2022-06-12T09:27:32Z</time>
      </trkpt>
      <trkpt lat="44.38551" lon="6.64987">
        <ele>1132.2</ele>
        <time>2022-06-12T09:27:33Z</time>
      </trkpt>
      <trkpt lat="44.38554" lon="6.64995">
        <ele>1132.1</ele>
        <time>2022-06-12T09:27:34Z</time>
      </trkpt>
      <trkpt lat="44.38557" lon="6.65003">
        <ele>1132</ele>
        <time>2022-06-12T09:27:35Z</time>
      </trkpt>
      <trkpt lat="44.38561" lon="6.65011">
        <ele>1132</ele>
        <time>2022-06-12T09:27:36Z</time>
      </trkpt>
      <trkpt lat="44.38563" lon="6.65019">
        <ele>1132</ele>
        <time>2022-06-12T09:27:37Z</time>
      </trkpt>
      <trkpt lat="44.38567" lon="6.65027">
        <ele>1132</ele>
        <time>2022-06-12T09:27:38Z</time>
      </trkpt>
      <trkpt lat="44.3857" lon="6.65035">
        <ele>1132.1</ele>
        <time>2022-06-12T09:27:39Z</time>
      </trkpt>
      <trkpt lat="44.38572" lon="6.65044">
        <ele>1132.2</ele>
        <time>2022-06-12T09:27:40Z</time>
      </trkpt>
      <trkpt lat="44.38574" lon="6.65052">
        <ele>1132.3</ele>
        <time>2022-06-12T09:27:41Z</time>
      </trkpt>
      <trkpt lat="44.38577" lon="6.65061">
        <ele>1132.2</ele>
        <time>2022-06-12T09:27:42Z</time>
      </trkpt>
      <trkpt lat="44.38578" lon="6.65069">
        <ele>1132.2</ele>
        <time>2022-06-12T09:27:43Z</time>
      </trkpt>
      <trkpt lat="44.3858" lon="6.65077">
        <ele>1132.1</ele>
        <time>2022-06-12T09:27:44Z</time>
      </trkpt>
      <trkpt lat="44.38581" lon="6.65085">
        <ele>1132.1</ele>
        <time>2022-06-12T09:27:45Z</time>
      </trkpt>
      <trkpt lat="44.38583" lon="6.65092">
        <ele>1132.3</ele>
        <time>2022-06-12T09:27:46Z</time>
      </trkpt>
      <trkpt lat="44.38585" lon="6.651">
        <ele>1132.6</ele>
        <time>2022-06-12T09:27:47Z</time>
      </trkpt>
      <trkpt lat="44.38586" lon="6.65107">
        <ele>1132.8</ele>
        <time>2022-06-12T09:27:48Z</time>
      </trkpt>
      <trkpt lat="44.38588" lon="6.65114">
        <ele>1132.9</ele>
        <time>2022-06-12T09:27:49Z</time>
      </trkpt>
      <trkpt lat="44.38589" lon="6.65122">
        <ele>1132.9</ele>
        <time>2022-06-12T09:27:50Z</time>
      </trkpt>
      <trkpt lat="44.3859" lon="6.65129">
        <ele>1132.9</ele>
        <time>2022-06-12T09:27:51Z</time>
      </trkpt>
      <trkpt lat="44.38591" lon="6.65136">
        <ele>1133</ele>
        <time>2022-06-12T09:27:52Z</time>
      </trkpt>
      <trkpt lat="44.38592" lon="6.65143">
        <ele>1133</ele>
        <time>2022-06-12T09:27:53Z</time>
      </trkpt>
      <trkpt lat="44.38593" lon="6.65149">
        <ele>1133</ele>
        <time>2022-06-12T09:27:54Z</time>
      </trkpt>
      <trkpt lat="44.38595" lon="6.65156">
        <ele>1133</ele>
        <time>2022-06-12T09:27:55Z</time>
      </trkpt>
      <trkpt lat="44.38597" lon="6.65161">
        <ele>1133</ele>
        <time>2022-06-12T09:27:56Z</time>
      </trkpt>
      <trkpt lat="44.38599" lon="6.65167">
        <ele>1133</ele>
        <time>2022-06-12T09:27:57Z</time>
      </trkpt>
      <trkpt lat="44.386" lon="6.65173">
        <ele>1133</ele>
        <time>2022-06-12T09:27:58Z</time>
      </trkpt>
      <trkpt lat="44.38602" lon="6.65178">
        <ele>1133</ele>
        <time>2022-06-12T09:27:59Z</time>
      </trkpt>
      <trkpt lat="44.38603" lon="6.65184">
        <ele>1133</ele>
        <time>2022-06-12T09:28:00Z</time>
      </trkpt>
      <trkpt lat="44.38604" lon="6.6519">
        <ele>1133</ele>
        <time>2022-06-12T09:28:01Z</time>
      </trkpt>
      <trkpt lat="44.38605" lon="6.65195">
        <ele>1133</ele>
        <time>2022-06-12T09:28:02Z</time>
      </trkpt>
      <trkpt lat="44.38606" lon="6.652">
        <ele>1133.2</ele>
        <time>2022-06-12T09:28:03Z</time>
      </trkpt>
      <trkpt lat="44.38607" lon="6.65205">
        <ele>1133.4</ele>
        <time>2022-06-12T09:28:04Z</time>
      </trkpt>
      <trkpt lat="44.38608" lon="6.6521">
        <ele>1133.6</ele>
        <time>2022-06-12T09:28:05Z</time>
      </trkpt>
      <trkpt lat="44.38609" lon="6.65214">
        <ele>1133.7</ele>
        <time>2022-06-12T09:28:06Z</time>
      </trkpt>
      <trkpt lat="44.3861" lon="6.65219">
        <ele>1133.9</ele>
        <time>2022-06-12T09:28:07Z</time>
      </trkpt>
      <trkpt lat="44.3861" lon="6.65223">
        <ele>1134</ele>
        <time>2022-06-12T09:28:08Z</time>
      </trkpt>
      <trkpt lat="44.38611" lon="6.65227">
        <ele>1134</ele>
        <time>2022-06-12T09:28:09Z</time>
      </trkpt>
      <trkpt lat="44.38611" lon="6.65231">
        <ele>1134</ele>
        <time>2022-06-12T09:28:10Z</time>
      </trkpt>
      <trkpt lat="44.38612" lon="6.65235">
        <ele>1134</ele>
        <time>2022-06-12T09:28:11Z</time>
      </trkpt>
      <trkpt lat="44.38612" lon="6.65239">
        <ele>1134</ele>
        <time>2022-06-12T09:28:12Z</time>
      </trkpt>
      <trkpt lat="44.38612" lon="6.65241">
        <ele>1134</ele>
        <time>2022-06-12T09:28:13Z</time>
      </trkpt>
      <trkpt lat="44.38612" lon="6.65244">
        <ele>1134</ele>
        <time>2022-06-12T09:28:14Z</time>
      </trkpt>
      <trkpt lat="44.38613" lon="6.65246">
        <ele>1134</ele>
        <time>2022-06-12T09:28:15Z</time>
      </trkpt>
      <trkpt lat="44.38614" lon="6.65247">
        <ele>1134</ele>
        <time>2022-06-12T09:28:16Z</time>
      </trkpt>
      <trkpt lat="44.38615" lon="6.65248">
        <ele>1134</ele>
        <time>2022-06-12T09:28:17Z</time>
      </trkpt>
      <trkpt lat="44.38616" lon="6.65248">
        <ele>1134</ele>
        <time>2022-06-12T09:28:18Z</time>
      </trkpt>
      <trkpt lat="44.38617" lon="6.65248">
        <ele>1134</ele>
        <time>2022-06-12T09:28:19Z</time>
      </trkpt>
      <trkpt lat="44.38617" lon="6.65248">
        <ele>1134</ele>
        <time>2022-06-12T09:28:20Z</time>
      </trkpt>
      <trkpt lat="44.38612" lon="6.65247">
        <ele>1134</ele>
        <time>2022-06-12T09:46:09Z</time>
      </trkpt>
      <trkpt lat="44.3861" lon="6.65248">
        <ele>1134</ele>
        <time>2022-06-12T09:46:10Z</time>
      </trkpt>
      <trkpt lat="44.38608" lon="6.6525">
        <ele>1134</ele>
        <time>2022-06-12T09:46:11Z</time>
      </trkpt>
      <trkpt lat="44.38606" lon="6.65251">
        <ele>1134</ele>
        <time>2022-06-12T09:46:12Z</time>
      </trkpt>
      <trkpt lat="44.38603" lon="6.65252">
        <ele>1134</ele>
        <time>2022-06-12T09:46:13Z</time>
      </trkpt>
      <trkpt lat="44.38599" lon="6.65252">
        <ele>1134</ele>
        <time>2022-06-12T09:46:14Z</time>
      </trkpt>
      <trkpt lat="44.38596" lon="6.65253">
        <ele>1134</ele>
        <time>2022-06-12T09:46:15Z</time>
      </trkpt>
      <trkpt lat="44.38592" lon="6.65253">
        <ele>1134</ele>
        <time>2022-06-12T09:46:16Z</time>
      </trkpt>
      <trkpt lat="44.38588" lon="6.65254">
        <ele>1134</ele>
        <time>2022-06-12T09:46:17Z</time>
      </trkpt>
      <trkpt lat="44.38584" lon="6.65255">
        <ele>1134</ele>
        <time>2022-06-12T09:46:18Z</time>
      </trkpt>
      <trkpt lat="44.3858" lon="6.65256">
        <ele>1134</ele>
        <time>2022-06-12T09:46:19Z</time>
      </trkpt>
      <trkpt lat="44.38576" lon="6.65256">
        <ele>1134.1</ele>
        <time>2022-06-12T09:46:20Z</time>
      </trkpt>
      <trkpt lat="44.38572" lon="6.65257">
        <ele>1134.1</ele>
        <time>2022-06-12T09:46:21Z</time>
      </trkpt>
      <trkpt lat="44.38568" lon="6.65257">
        <ele>1134.1</ele>
        <time>2022-06-12T09:46:22Z</time>
      </trkpt>
      <trkpt lat="44.38563" lon="6.65257">
        <ele>1134.2</ele>
        <time>2022-06-12T09:46:23Z</time>
      </trkpt>
      <trkpt lat="44.38559" lon="6.65257">
        <ele>1134.2</ele>
        <time>2022-06-12T09:46:24Z</time>
      </trkpt>
      <trkpt lat="44.38555" lon="6.65258">
        <ele>1134.3</ele>
        <time>2022-06-12T09:46:25Z</time>
      </trkpt>
      <trkpt lat="44.38551" lon="6.65258">
        <ele>1134.4</ele>
        <time>2022-06-12T09:46:26Z</time>
      </trkpt>
      <trkpt lat="44.38547" lon="6.65258">
        <ele>1134.5</ele>
        <time>2022-06-12T09:46:27Z</time>
      </trkpt>
      <trkpt lat="44.38543" lon="6.65259">
        <ele>1134.6</ele>
        <time>2022-06-12T09:46:28Z</time>
      </trkpt>
      <trkpt lat="44.38538" lon="6.65259">
        <ele>1134.7</ele>
        <time>2022-06-12T09:46:29Z</time>
      </trkpt>
      <trkpt lat="44.38534" lon="6.65259">
        <ele>1134.8</ele>
        <time>2022-06-12T09:46:30Z</time>
      </trkpt>
      <trkpt lat="44.3853" lon="6.6526">
        <ele>1134.9</ele>
        <time>2022-06-12T09:46:31Z</time>
      </trkpt>
      <trkpt lat="44.38526" lon="6.65262">
        <ele>1135</ele>
        <time>2022-06-12T09:46:32Z</time>
      </trkpt>
      <trkpt lat="44.38522" lon="6.65263">
        <ele>1135</ele>
        <time>2022-06-12T09:46:33Z</time>
      </trkpt>
      <trkpt lat="44.38518" lon="6.65265">
        <ele>1135</ele>
        <time>2022-06-12T09:46:34Z</time>
      </trkpt>
      <trkpt lat="44.38515" lon="6.65269">
        <ele>1135</ele>
        <time>2022-06-12T09:46:35Z</time>
      </trkpt>
      <trkpt lat="44.38511" lon="6.65272">
        <ele>1135</ele>
        <time>2022-06-12T09:46:36Z</time>
      </trkpt>
      <trkpt lat="44.38508" lon="6.65276">
        <ele>1135</ele>
        <time>2022-06-12T09:46:37Z</time>
      </trkpt>
      <trkpt lat="44.38506" lon="6.65281">
        <ele>1135.1</ele>
        <time>2022-06-12T09:46:38Z</time>
      </trkpt>
      <trkpt lat="44.38505" lon="6.65287">
        <ele>1135.3</ele>
        <time>2022-06-12T09:46:39Z</time>
      </trkpt>
      <trkpt lat="44.38504" lon="6.65293">
        <ele>1135.5</ele>
        <time>2022-06-12T09:46:40Z</time>
      </trkpt>
      <trkpt lat="44.38504" lon="6.65299">
        <ele>1135.7</ele>
        <time>2022-06-12T09:46:41Z</time>
      </trkpt>
      <trkpt lat="44.38504" lon="6.65306">
        <ele>1135.9</ele>
        <time>2022-06-12T09:46:42Z</time>
      </trkpt>
      <trkpt lat="44.38503" lon="6.65312">
        <ele>1135.9</ele>
        <time>2022-06-12T09:46:43Z</time>
      </trkpt>
      <trkpt lat="44.38504" lon="6.65319">
        <ele>1135.9</ele>
        <time>2022-06-12T09:46:44Z</time>
      </trkpt>
      <trkpt lat="44.38504" lon="6.65326">
        <ele>1135.9</ele>
        <time>2022-06-12T09:46:45Z</time>
      </trkpt>
      <trkpt lat="44.38505" lon="6.65332">
        <ele>1135.8</ele>
        <time>2022-06-12T09:46:46Z</time>
      </trkpt>
      <trkpt lat="44.38505" lon="6.65339">
        <ele>1135.9</ele>
        <time>2022-06-12T09:46:47Z</time>
      </trkpt>
      <trkpt lat="44.38506" lon="6.65346">
        <ele>1135.9</ele>
        <time>2022-06-12T09:46:48Z</time>
      </trkpt>
      <trkpt lat="44.38506" lon="6.65353">
        <ele>1135.9</ele>
        <time>2022-06-12T09:46:49Z</time>
      </trkpt>
      <trkpt lat="44.38507" lon="6.6536">
        <ele>1136</ele>
        <time>2022-06-12T09:46:50Z</time>
      </trkpt>
      <trkpt lat="44.38507" lon="6.65366">
        <ele>1136</ele>
        <time>2022-06-12T09:46:51Z</time>
      </trkpt>
      <trkpt lat="44.38508" lon="6.65373">
        <ele>1136</ele>
        <time>2022-06-12T09:46:52Z</time>
      </trkpt>
      <trkpt lat="44.38509" lon="6.65379">
        <ele>1136</ele>
        <time>2022-06-12T09:46:53Z</time>
      </trkpt>
      <trkpt lat="44.3851" lon="6.65385">
        <ele>1136</ele>
        <time>2022-06-12T09:46:54Z</time>
      </trkpt>
      <trkpt lat="44.3851" lon="6.65391">
        <ele>1136</ele>
        <time>2022-06-12T09:46:55Z</time>
      </trkpt>
      <trkpt lat="44.38511" lon="6.65397">
        <ele>1136</ele>
        <time>2022-06-12T09:46:56Z</time>
      </trkpt>
      <trkpt lat="44.38511" lon="6.65403">
        <ele>1136</ele>
        <time>2022-06-12T09:46:57Z</time>
      </trkpt>
      <trkpt lat="44.38511" lon="6.65409">
        <ele>1136</ele>
        <time>2022-06-12T09:46:58Z</time>
      </trkpt>
      <trkpt lat="44.38511" lon="6.65414">
        <ele>1136</ele>
        <time>2022-06-12T09:46:59Z</time>
      </trkpt>
      <trkpt lat="44.38512" lon="6.65419">
        <ele>1136</ele>
        <time>2022-06-12T09:47:00Z</time>
      </trkpt>
      <trkpt lat="44.38512" lon="6.65425">
        <ele>1136</ele>
        <time>2022-06-12T09:47:01Z</time>
      </trkpt>
      <trkpt lat="44.38513" lon="6.6543">
        <ele>1136</ele>
        <time>2022-06-12T09:47:02Z</time>
      </trkpt>
      <trkpt lat="44.38513" lon="6.65435">
        <ele>1136</ele>
        <time>2022-06-12T09:47:03Z</time>
      </trkpt>
      <trkpt lat="44.38514" lon="6.6544">
        <ele>1136</ele>
        <time>2022-06-12T09:47:04Z</time>
      </trkpt>
      <trkpt lat="44.38515" lon="6.65446">
        <ele>1136</ele>
        <time>2022-06-12T09:47:05Z</time>
      </trkpt>
      <trkpt lat="44.38516" lon="6.65453">
        <ele>1136.1</ele>
        <time>2022-06-12T09:47:06Z</time>
      </trkpt>
      <trkpt lat="44.38516" lon="6.6546">
        <ele>1136.2</ele>
        <time>2022-06-12T09:47:07Z</time>
      </trkpt>
      <trkpt lat="44.38516" lon="6.65466">
        <ele>1136.3</ele>
        <time>2022-06-12T09:47:08Z</time>
      </trkpt>
      <trkpt lat="44.38516" lon="6.65473">
        <ele>1136.4</ele>
        <time>2022-06-12T09:47:09Z</time>
      </trkpt>
      <trkpt lat="44.38516" lon="6.6548">
        <ele>1136.4</ele>
        <time>2022-06-12T09:47:10Z</time>
      </trkpt>
      <trkpt lat="44.38516" lon="6.65487">
        <ele>1136.4</ele>
        <time>2022-06-12T09:47:11Z</time>
      </trkpt>
      <trkpt lat="44.38516" lon="6.65494">
        <ele>1136.4</ele>
        <time>2022-06-12T09:47:12Z</time>
      </trkpt>
      <trkpt lat="44.38516" lon="6.65501">
        <ele>1136.5</ele>
        <time>2022-06-12T09:47:13Z</time>
      </trkpt>
      <trkpt lat="44.38516" lon="6.65508">
        <ele>1136.6</ele>
        <time>2022-06-12T09:47:14Z</time>
      </trkpt>
      <trkpt lat="44.38516" lon="6.65515">
        <ele>1136.7</ele>
        <time>2022-06-12T09:47:15Z</time>
      </trkpt>
      <trkpt lat="44.38516" lon="6.65521">
        <ele>1136.9</ele>
        <time>2022-06-12T09:47:16Z</time>
      </trkpt>
      <trkpt lat="44.38516" lon="6.65527">
        <ele>1137</ele>
        <time>2022-06-12T09:47:17Z</time>
      </trkpt>
      <trkpt lat="44.38516" lon="6.65533">
        <ele>1137</ele>
        <time>2022-06-12T09:47:18Z</time>
      </trkpt>
      <trkpt lat="44.38516" lon="6.6554">
        <ele>1137</ele>
        <time>2022-06-12T09:47:19Z</time>
      </trkpt>
      <trkpt lat="44.38515" lon="6.65546">
        <ele>1137</ele>
        <time>2022-06-12T09:47:20Z</time>
      </trkpt>
      <trkpt lat="44.38515" lon="6.65553">
        <ele>1137</ele>
        <time>2022-06-12T09:47:21Z</time>
      </trkpt>
      <trkpt lat="44.38515" lon="6.65561">
        <ele>1137</ele>
        <time>2022-06-12T09:47:22Z</time>
      </trkpt>
      <trkpt lat="44.38515" lon="6.65568">
        <ele>1137</ele>
        <time>2022-06-12T09:47:23Z</time>
      </trkpt>
      <trkpt lat="44.38515" lon="6.65575">
        <ele>1137</ele>
        <time>2022-06-12T09:47:24Z</time>
      </trkpt>
      <trkpt lat="44.38515" lon="6.65582">
        <ele>1137</ele>
        <time>2022-06-12T09:47:25Z</time>
      </trkpt>
      <trkpt lat="44.38515" lon="6.6559">
        <ele>1137</ele>
        <time>2022-06-12T09:47:26Z</time>
      </trkpt>
      <trkpt lat="44.38515" lon="6.65597">
        <ele>1137</ele>
        <time>2022-06-12T09:47:27Z</time>
      </trkpt>
      <trkpt lat="44.38515" lon="6.65604">
        <ele>1137</ele>
        <time>2022-06-12T09:47:28Z</time>
      </trkpt>
      <trkpt lat="44.38515" lon="6.65611">
        <ele>1137</ele>
        <time>2022-06-12T09:47:29Z</time>
      </trkpt>
      <trkpt lat="44.38515" lon="6.65619">
        <ele>1137.3</ele>
        <time>2022-06-12T09:47:30Z</time>
      </trkpt>
      <trkpt lat="44.38515" lon="6.65626">
        <ele>1137.5</ele>
        <time>2022-06-12T09:47:31Z</time>
      </trkpt>
      <trkpt lat="44.38515" lon="6.65634">
        <ele>1137.8</ele>
        <time>2022-06-12T09:47:32Z</time>
      </trkpt>
      <trkpt lat="44.38515" lon="6.65641">
        <ele>1138</ele>
        <time>2022-06-12T09:47:33Z</time>
      </trkpt>
      <trkpt lat="44.38515" lon="6.65648">
        <ele>1138</ele>
        <time>2022-06-12T09:47:34Z</time>
      </trkpt>
      <trkpt lat="44.38515" lon="6.65656">
        <ele>1138</ele>
        <time>2022-06-12T09:47:35Z</time>
      </trkpt>
      <trkpt lat="44.38515" lon="6.65663">
        <ele>1138</ele>
        <time>2022-06-12T09:47:36Z</time>
      </trkpt>
      <trkpt lat="44.38514" lon="6.65671">
        <ele>1138</ele>
        <time>2022-06-12T09:47:37Z</time>
      </trkpt>
      <trkpt lat="44.38514" lon="6.65678">
        <ele>1138</ele>
        <time>2022-06-12T09:47:38Z</time>
      </trkpt>
      <trkpt lat="44.38514" lon="6.65685">
        <ele>1138</ele>
        <time>2022-06-12T09:47:39Z</time>
      </trkpt>
      <trkpt lat="44.38514" lon="6.65692">
        <ele>1138</ele>
        <time>2022-06-12T09:47:40Z</time>
      </trkpt>
      <trkpt lat="44.38514" lon="6.65699">
        <ele>1138</ele>
        <time>2022-06-12T09:47:41Z</time>
      </trkpt>
      <trkpt lat="44.38514" lon="6.65706">
        <ele>1138</ele>
        <time>2022-06-12T09:47:42Z</time>
      </trkpt>
      <trkpt lat="44.38513" lon="6.65713">
        <ele>1138</ele>
        <time>2022-06-12T09:47:43Z</time>
      </trkpt>
      <trkpt lat="44.38513" lon="6.6572">
        <ele>1138</ele>
        <time>2022-06-12T09:47:44Z</time>
      </trkpt>
      <trkpt lat="44.38513" lon="6.65727">
        <ele>1138.1</ele>
        <time>2022-06-12T09:47:45Z</time>
      </trkpt>
      <trkpt lat="44.38512" lon="6.65733">
        <ele>1138.2</ele>
        <time>2022-06-12T09:47:46Z</time>
      </trkpt>
      <trkpt lat="44.38512" lon="6.65739">
        <ele>1138.3</ele>
        <time>2022-06-12T09:47:47Z</time>
      </trkpt>
      <trkpt lat="44.38512" lon="6.65745">
        <ele>1138.5</ele>
        <time>2022-06-12T09:47:48Z</time>
      </trkpt>
      <trkpt lat="44.38512" lon="6.6575">
        <ele>1138.6</ele>
        <time>2022-06-12T09:47:49Z</time>
      </trkpt>
      <trkpt lat="44.38512" lon="6.65756">
        <ele>1138.7</ele>
        <time>2022-06-12T09:47:50Z</time>
      </trkpt>
      <trkpt lat="44.38512" lon="6.65761">
        <ele>1138.7</ele>
        <time>2022-06-12T09:47:51Z</time>
      </trkpt>
      <trkpt lat="44.38512" lon="6.65767">
        <ele>1138.8</ele>
        <time>2022-06-12T09:47:52Z</time>
      </trkpt>
      <trkpt lat="44.38512" lon="6.65773">
        <ele>1138.9</ele>
        <time>2022-06-12T09:47:53Z</time>
      </trkpt>
      <trkpt lat="44.38512" lon="6.65779">
        <ele>1139</ele>
        <time>2022-06-12T09:47:54Z</time>
      </trkpt>
      <trkpt lat="44.38512" lon="6.65786">
        <ele>1139</ele>
        <time>2022-06-12T09:47:55Z</time>
      </trkpt>
      <trkpt lat="44.38512" lon="6.65792">
        <ele>1139</ele>
        <time>2022-06-12T09:47:56Z</time>
      </trkpt>
      <trkpt lat="44.38512" lon="6.65799">
        <ele>1139</ele>
        <time>2022-06-12T09:47:57Z</time>
      </trkpt>
      <trkpt lat="44.38512" lon="6.65806">
        <ele>1139</ele>
        <time>2022-06-12T09:47:58Z</time>
      </trkpt>
      <trkpt lat="44.38512" lon="6.65813">
        <ele>1139</ele>
        <time>2022-06-12T09:47:59Z</time>
      </trkpt>
      <trkpt lat="44.38512" lon="6.6582">
        <ele>1139</ele>
        <time>2022-06-12T09:48:00Z</time>
      </trkpt>
      <trkpt lat="44.38511" lon="6.65826">
        <ele>1139</ele>
        <time>2022-06-12T09:48:01Z</time>
      </trkpt>
      <trkpt lat="44.38511" lon="6.65833">
        <ele>1139</ele>
        <time>2022-06-12T09:48:02Z</time>
      </trkpt>
      <trkpt lat="44.3851" lon="6.6584">
        <ele>1139</ele>
        <time>2022-06-12T09:48:03Z</time>
      </trkpt>
      <trkpt lat="44.3851" lon="6.65846">
        <ele>1139</ele>
        <time>2022-06-12T09:48:04Z</time>
      </trkpt>
      <trkpt lat="44.3851" lon="6.65853">
        <ele>1139</ele>
        <time>2022-06-12T09:48:05Z</time>
      </trkpt>
      <trkpt lat="44.3851" lon="6.6586">
        <ele>1139</ele>
        <time>2022-06-12T09:48:06Z</time>
      </trkpt>
      <trkpt lat="44.38509" lon="6.65867">
        <ele>1139</ele>
        <time>2022-06-12T09:48:07Z</time>
      </trkpt>
      <trkpt lat="44.38508" lon="6.65874">
        <ele>1139</ele>
        <time>2022-06-12T09:48:08Z</time>
      </trkpt>
      <trkpt lat="44.38508" lon="6.65881">
        <ele>1139</ele>
        <time>2022-06-12T09:48:09Z</time>
      </trkpt>
      <trkpt lat="44.38508" lon="6.65889">
        <ele>1139</ele>
        <time>2022-06-12T09:48:10Z</time>
      </trkpt>
      <trkpt lat="44.38508" lon="6.65895">
        <ele>1139</ele>
        <time>2022-06-12T09:48:11Z</time>
      </trkpt>
      <trkpt lat="44.38508" lon="6.65902">
        <ele>1139</ele>
        <time>2022-06-12T09:48:12Z</time>
      </trkpt>
      <trkpt lat="44.38508" lon="6.65909">
        <ele>1139</ele>
        <time>2022-06-12T09:48:13Z</time>
      </trkpt>
      <trkpt lat="44.38507" lon="6.65916">
        <ele>1139</ele>
        <time>2022-06-12T09:48:14Z</time>
      </trkpt>
      <trkpt lat="44.38507" lon="6.65923">
        <ele>1139.2</ele>
        <time>2022-06-12T09:48:15Z</time>
      </trkpt>
      <trkpt lat="44.38507" lon="6.6593">
        <ele>1139.5</ele>
        <time>2022-06-12T09:48:16Z</time>
      </trkpt>
      <trkpt lat="44.38507" lon="6.65937">
        <ele>1139.7</ele>
        <time>2022-06-12T09:48:17Z</time>
      </trkpt>
      <trkpt lat="44.38507" lon="6.65944">
        <ele>1140</ele>
        <time>2022-06-12T09:48:18Z</time>
      </trkpt>
      <trkpt lat="44.38507" lon="6.65951">
        <ele>1140</ele>
        <time>2022-06-12T09:48:19Z</time>
      </trkpt>
      <trkpt lat="44.38507" lon="6.65958">
        <ele>1140</ele>
        <time>2022-06-12T09:48:20Z</time>
      </trkpt>
      <trkpt lat="44.38506" lon="6.65965">
        <ele>1140</ele>
        <time>2022-06-12T09:48:21Z</time>
      </trkpt>
      <trkpt lat="44.38506" lon="6.65972">
        <ele>1140</ele>
        <time>2022-06-12T09:48:22Z</time>
      </trkpt>
      <trkpt lat="44.38505" lon="6.65978">
        <ele>1140</ele>
        <time>2022-06-12T09:48:23Z</time>
      </trkpt>
      <trkpt lat="44.38505" lon="6.65984">
        <ele>1140</ele>
        <time>2022-06-12T09:48:24Z</time>
      </trkpt>
      <trkpt lat="44.38504" lon="6.6599">
        <ele>1140</ele>
        <time>2022-06-12T09:48:25Z</time>
      </trkpt>
      <trkpt lat="44.38504" lon="6.65996">
        <ele>1140</ele>
        <time>2022-06-12T09:48:26Z</time>
      </trkpt>
      <trkpt lat="44.38503" lon="6.66002">
        <ele>1140</ele>
        <time>2022-06-12T09:48:27Z</time>
      </trkpt>
      <trkpt lat="44.38503" lon="6.66009">
        <ele>1140</ele>
        <time>2022-06-12T09:48:28Z</time>
      </trkpt>
      <trkpt lat="44.38503" lon="6.66015">
        <ele>1140</ele>
        <time>2022-06-12T09:48:29Z</time>
      </trkpt>
      <trkpt lat="44.38503" lon="6.66022">
        <ele>1140</ele>
        <time>2022-06-12T09:48:30Z</time>
      </trkpt>
      <trkpt lat="44.38503" lon="6.66029">
        <ele>1140</ele>
        <time>2022-06-12T09:48:31Z</time>
      </trkpt>
      <trkpt lat="44.38502" lon="6.66036">
        <ele>1140.3</ele>
        <time>2022-06-12T09:48:32Z</time>
      </trkpt>
      <trkpt lat="44.38502" lon="6.66042">
        <ele>1140.5</ele>
        <time>2022-06-12T09:48:33Z</time>
      </trkpt>
      <trkpt lat="44.38502" lon="6.66049">
        <ele>1140.7</ele>
        <time>2022-06-12T09:48:34Z</time>
      </trkpt>
      <trkpt lat="44.38502" lon="6.66055">
        <ele>1140.9</ele>
        <time>2022-06-12T09:48:35Z</time>
      </trkpt>
      <trkpt lat="44.385" lon="6.6606">
        <ele>1141</ele>
        <time>2022-06-12T09:48:36Z</time>
      </trkpt>
      <trkpt lat="44.38498" lon="6.66063">
        <ele>1140.8</ele>
        <time>2022-06-12T09:48:37Z</time>
      </trkpt>
      <trkpt lat="44.38496" lon="6.66065">
        <ele>1140.7</ele>
        <time>2022-06-12T09:48:38Z</time>
      </trkpt>
      <trkpt lat="44.38495" lon="6.66068">
        <ele>1140.6</ele>
        <time>2022-06-12T09:48:39Z</time>
      </trkpt>
      <trkpt lat="44.38494" lon="6.6607">
        <ele>1140.5</ele>
        <time>2022-06-12T09:48:40Z</time>
      </trkpt>
      <trkpt lat="44.38494" lon="6.66072">
        <ele>1140.4</ele>
        <time>2022-06-12T09:48:41Z</time>
      </trkpt>
      <trkpt lat="44.38493" lon="6.66075">
        <ele>1140.3</ele>
        <time>2022-06-12T09:48:42Z</time>
      </trkpt>
      <trkpt lat="44.38492" lon="6.66078">
        <ele>1140.2</ele>
        <time>2022-06-12T09:48:43Z</time>
      </trkpt>
      <trkpt lat="44.38493" lon="6.66083">
        <ele>1140.2</ele>
        <time>2022-06-12T09:48:44Z</time>
      </trkpt>
      <trkpt lat="44.38494" lon="6.66087">
        <ele>1140.2</ele>
        <time>2022-06-12T09:48:45Z</time>
      </trkpt>
      <trkpt lat="44.38497" lon="6.66092">
        <ele>1140.1</ele>
        <time>2022-06-12T09:48:46Z</time>
      </trkpt>
      <trkpt lat="44.38499" lon="6.66098">
        <ele>1140</ele>
        <time>2022-06-12T09:48:47Z</time>
      </trkpt>
      <trkpt lat="44.38502" lon="6.66103">
        <ele>1139.7</ele>
        <time>2022-06-12T09:48:48Z</time>
      </trkpt>
      <trkpt lat="44.38506" lon="6.66109">
        <ele>1139.5</ele>
        <time>2022-06-12T09:48:49Z</time>
      </trkpt>
      <trkpt lat="44.38509" lon="6.66115">
        <ele>1139.5</ele>
        <time>2022-06-12T09:48:50Z</time>
      </trkpt>
      <trkpt lat="44.38512" lon="6.66121">
        <ele>1139.7</ele>
        <time>2022-06-12T09:48:51Z</time>
      </trkpt>
      <trkpt lat="44.38516" lon="6.66127">
        <ele>1139.9</ele>
        <time>2022-06-12T09:48:52Z</time>
      </trkpt>
      <trkpt lat="44.38519" lon="6.66134">
        <ele>1140.1</ele>
        <time>2022-06-12T09:48:53Z</time>
      </trkpt>
      <trkpt lat="44.38522" lon="6.6614">
        <ele>1140.4</ele>
        <time>2022-06-12T09:48:54Z</time>
      </trkpt>
      <trkpt lat="44.38526" lon="6.66147">
        <ele>1140.3</ele>
        <time>2022-06-12T09:48:55Z</time>
      </trkpt>
      <trkpt lat="44.38529" lon="6.66153">
        <ele>1140</ele>
        <time>2022-06-12T09:48:56Z</time>
      </trkpt>
      <trkpt lat="44.38533" lon="6.66159">
        <ele>1139.8</ele>
        <time>2022-06-12T09:48:57Z</time>
      </trkpt>
      <trkpt lat="44.38536" lon="6.66165">
        <ele>1139.7</ele>
        <time>2022-06-12T09:48:58Z</time>
      </trkpt>
      <trkpt lat="44.3854" lon="6.66172">
        <ele>1139.9</ele>
        <time>2022-06-12T09:48:59Z</time>
      </trkpt>
      <trkpt lat="44.38544" lon="6.66179">
        <ele>1140.1</ele>
        <time>2022-06-12T09:49:00Z</time>
      </trkpt>
      <trkpt lat="44.38547" lon="6.66185">
        <ele>1140.4</ele>
        <time>2022-06-12T09:49:01Z</time>
      </trkpt>
      <trkpt lat="44.38551" lon="6.66192">
        <ele>1140.6</ele>
        <time>2022-06-12T09:49:02Z</time>
      </trkpt>
      <trkpt lat="44.38554" lon="6.66198">
        <ele>1140.7</ele>
        <time>2022-06-12T09:49:03Z</time>
      </trkpt>
      <trkpt lat="44.38558" lon="6.66205">
        <ele>1140.4</ele>
        <time>2022-06-12T09:49:04Z</time>
      </trkpt>
      <trkpt lat="44.38562" lon="6.66211">
        <ele>1140.3</ele>
        <time>2022-06-12T09:49:05Z</time>
      </trkpt>
      <trkpt lat="44.38566" lon="6.66217">
        <ele>1140.4</ele>
        <time>2022-06-12T09:49:06Z</time>
      </trkpt>
      <trkpt lat="44.38571" lon="6.66224">
        <ele>1140.6</ele>
        <time>2022-06-12T09:49:07Z</time>
      </trkpt>
      <trkpt lat="44.38575" lon="6.6623">
        <ele>1140.8</ele>
        <time>2022-06-12T09:49:08Z</time>
      </trkpt>
      <trkpt lat="44.38579" lon="6.66237">
        <ele>1140.7</ele>
        <time>2022-06-12T09:49:09Z</time>
      </trkpt>
      <trkpt lat="44.38584" lon="6.66243">
        <ele>1140.5</ele>
        <time>2022-06-12T09:49:10Z</time>
      </trkpt>
      <trkpt lat="44.38588" lon="6.6625">
        <ele>1140.5</ele>
        <time>2022-06-12T09:49:11Z</time>
      </trkpt>
      <trkpt lat="44.38592" lon="6.66256">
        <ele>1140.7</ele>
        <time>2022-06-12T09:49:12Z</time>
      </trkpt>
      <trkpt lat="44.38596" lon="6.66263">
        <ele>1140.9</ele>
        <time>2022-06-12T09:49:13Z</time>
      </trkpt>
      <trkpt lat="44.38601" lon="6.66269">
        <ele>1141.2</ele>
        <time>2022-06-12T09:49:14Z</time>
      </trkpt>
      <trkpt lat="44.38605" lon="6.66276">
        <ele>1141.4</ele>
        <time>2022-06-12T09:49:15Z</time>
      </trkpt>
      <trkpt lat="44.38609" lon="6.66283">
        <ele>1141.5</ele>
        <time>2022-06-12T09:49:16Z</time>
      </trkpt>
      <trkpt lat="44.38614" lon="6.66289">
        <ele>1141.3</ele>
        <time>2022-06-12T09:49:17Z</time>
      </trkpt>
      <trkpt lat="44.38618" lon="6.66296">
        <ele>1141.2</ele>
        <time>2022-06-12T09:49:18Z</time>
      </trkpt>
      <trkpt lat="44.38622" lon="6.66303">
        <ele>1141.3</ele>
        <time>2022-06-12T09:49:19Z</time>
      </trkpt>
      <trkpt lat="44.38627" lon="6.6631">
        <ele>1141.4</ele>
        <time>2022-06-12T09:49:20Z</time>
      </trkpt>
      <trkpt lat="44.38631" lon="6.66316">
        <ele>1141.4</ele>
        <time>2022-06-12T09:49:21Z</time>
      </trkpt>
      <trkpt lat="44.38635" lon="6.66323">
        <ele>1141.4</ele>
        <time>2022-06-12T09:49:22Z</time>
      </trkpt>
      <trkpt lat="44.3864" lon="6.6633">
        <ele>1141.3</ele>
        <time>2022-06-12T09:49:23Z</time>
      </trkpt>
      <trkpt lat="44.38644" lon="6.66336">
        <ele>1141.3</ele>
        <time>2022-06-12T09:49:24Z</time>
      </trkpt>
      <trkpt lat="44.38648" lon="6.66343">
        <ele>1141.4</ele>
        <time>2022-06-12T09:49:25Z</time>
      </trkpt>
      <trkpt lat="44.38653" lon="6.6635">
        <ele>1141.6</ele>
        <time>2022-06-12T09:49:26Z</time>
      </trkpt>
      <trkpt lat="44.38657" lon="6.66356">
        <ele>1141.8</ele>
        <time>2022-06-12T09:49:27Z</time>
      </trkpt>
      <trkpt lat="44.38661" lon="6.66363">
        <ele>1142.1</ele>
        <time>2022-06-12T09:49:28Z</time>
      </trkpt>
      <trkpt lat="44.38666" lon="6.6637">
        <ele>1142</ele>
        <time>2022-06-12T09:49:29Z</time>
      </trkpt>
      <trkpt lat="44.38671" lon="6.66377">
        <ele>1141.7</ele>
        <time>2022-06-12T09:49:30Z</time>
      </trkpt>
      <trkpt lat="44.38675" lon="6.66383">
        <ele>1141.6</ele>
        <time>2022-06-12T09:49:31Z</time>
      </trkpt>
      <trkpt lat="44.38679" lon="6.6639">
        <ele>1141.8</ele>
        <time>2022-06-12T09:49:32Z</time>
      </trkpt>
      <trkpt lat="44.38684" lon="6.66397">
        <ele>1142.1</ele>
        <time>2022-06-12T09:49:33Z</time>
      </trkpt>
      <trkpt lat="44.38688" lon="6.66404">
        <ele>1142.2</ele>
        <time>2022-06-12T09:49:34Z</time>
      </trkpt>
      <trkpt lat="44.38693" lon="6.66411">
        <ele>1142.3</ele>
        <time>2022-06-12T09:49:35Z</time>
      </trkpt>
      <trkpt lat="44.38697" lon="6.66418">
        <ele>1142.1</ele>
        <time>2022-06-12T09:49:36Z</time>
      </trkpt>
      <trkpt lat="44.38701" lon="6.66424">
        <ele>1142.1</ele>
        <time>2022-06-12T09:49:37Z</time>
      </trkpt>
      <trkpt lat="44.38706" lon="6.66431">
        <ele>1142.2</ele>
        <time>2022-06-12T09:49:38Z</time>
      </trkpt>
      <trkpt lat="44.38711" lon="6.66438">
        <ele>1142.5</ele>
        <time>2022-06-12T09:49:39Z</time>
      </trkpt>
      <trkpt lat="44.38715" lon="6.66445">
        <ele>1143</ele>
        <time>2022-06-12T09:49:40Z</time>
      </trkpt>
      <trkpt lat="44.38719" lon="6.66451">
        <ele>1142.9</ele>
        <time>2022-06-12T09:49:41Z</time>
      </trkpt>
      <trkpt lat="44.38724" lon="6.66458">
        <ele>1142.6</ele>
        <time>2022-06-12T09:49:42Z</time>
      </trkpt>
      <trkpt lat="44.38728" lon="6.66465">
        <ele>1142.3</ele>
        <time>2022-06-12T09:49:43Z</time>
      </trkpt>
      <trkpt lat="44.38733" lon="6.66471">
        <ele>1142.2</ele>
        <time>2022-06-12T09:49:44Z</time>
      </trkpt>
      <trkpt lat="44.38737" lon="6.66478">
        <ele>1142.4</ele>
        <time>2022-06-12T09:49:45Z</time>
      </trkpt>
      <trkpt lat="44.38741" lon="6.66485">
        <ele>1142.6</ele>
        <time>2022-06-12T09:49:46Z</time>
      </trkpt>
      <trkpt lat="44.38746" lon="6.66492">
        <ele>1142.9</ele>
        <time>2022-06-12T09:49:47Z</time>
      </trkpt>
      <trkpt lat="44.38751" lon="6.66498">
        <ele>1143.1</ele>
        <time>2022-06-12T09:49:48Z</time>
      </trkpt>
      <trkpt lat="44.38755" lon="6.66505">
        <ele>1143.1</ele>
        <time>2022-06-12T09:49:49Z</time>
      </trkpt>
      <trkpt lat="44.3876" lon="6.66512">
        <ele>1143.1</ele>
        <time>2022-06-12T09:49:50Z</time>
      </trkpt>
      <trkpt lat="44.38764" lon="6.66519">
        <ele>1143.4</ele>
        <time>2022-06-12T09:49:51Z</time>
      </trkpt>
      <trkpt lat="44.38769" lon="6.66525">
        <ele>1143.8</ele>
        <time>2022-06-12T09:49:52Z</time>
      </trkpt>
      <trkpt lat="44.38773" lon="6.66532">
        <ele>1144.1</ele>
        <time>2022-06-12T09:49:53Z</time>
      </trkpt>
      <trkpt lat="44.38778" lon="6.66538">
        <ele>1144.3</ele>
        <time>2022-06-12T09:49:54Z</time>
      </trkpt>
      <trkpt lat="44.38782" lon="6.66545">
        <ele>1144.1</ele>
        <time>2022-06-12T09:49:55Z</time>
      </trkpt>
      <trkpt lat="44.38787" lon="6.66551">
        <ele>1144.2</ele>
        <time>2022-06-12T09:49:56Z</time>
      </trkpt>
      <trkpt lat="44.38791" lon="6.66557">
        <ele>1144.3</ele>
        <time>2022-06-12T09:49:57Z</time>
      </trkpt>
      <trkpt lat="44.38796" lon="6.66564">
        <ele>1144.5</ele>
        <time>2022-06-12T09:49:58Z</time>
      </trkpt>
      <trkpt lat="44.388" lon="6.6657">
        <ele>1144.7</ele>
        <time>2022-06-12T09:49:59Z</time>
      </trkpt>
      <trkpt lat="44.38804" lon="6.66577">
        <ele>1145</ele>
        <time>2022-06-12T09:50:00Z</time>
      </trkpt>
      <trkpt lat="44.38808" lon="6.66583">
        <ele>1145.1</ele>
        <time>2022-06-12T09:50:01Z</time>
      </trkpt>
      <trkpt lat="44.38813" lon="6.6659">
        <ele>1144.9</ele>
        <time>2022-06-12T09:50:02Z</time>
      </trkpt>
      <trkpt lat="44.38817" lon="6.66597">
        <ele>1144.9</ele>
        <time>2022-06-12T09:50:03Z</time>
      </trkpt>
      <trkpt lat="44.38821" lon="6.66603">
        <ele>1144.9</ele>
        <time>2022-06-12T09:50:04Z</time>
      </trkpt>
      <trkpt lat="44.38826" lon="6.6661">
        <ele>1145.2</ele>
        <time>2022-06-12T09:50:05Z</time>
      </trkpt>
      <trkpt lat="44.3883" lon="6.66616">
        <ele>1145.4</ele>
        <time>2022-06-12T09:50:06Z</time>
      </trkpt>
      <trkpt lat="44.38834" lon="6.66623">
        <ele>1145.6</ele>
        <time>2022-06-12T09:50:07Z</time>
      </trkpt>
      <trkpt lat="44.38838" lon="6.6663">
        <ele>1145.5</ele>
        <time>2022-06-12T09:50:08Z</time>
      </trkpt>
      <trkpt lat="44.38843" lon="6.66636">
        <ele>1145.4</ele>
        <time>2022-06-12T09:50:09Z</time>
      </trkpt>
      <trkpt lat="44.38847" lon="6.66643">
        <ele>1145.4</ele>
        <time>2022-06-12T09:50:10Z</time>
      </trkpt>
      <trkpt lat="44.38852" lon="6.66649">
        <ele>1145.4</ele>
        <time>2022-06-12T09:50:11Z</time>
      </trkpt>
      <trkpt lat="44.38856" lon="6.66655">
        <ele>1145.6</ele>
        <time>2022-06-12T09:50:12Z</time>
      </trkpt>
      <trkpt lat="44.38859" lon="6.66661">
        <ele>1145.8</ele>
        <time>2022-06-12T09:50:13Z</time>
      </trkpt>
      <trkpt lat="44.38863" lon="6.66667">
        <ele>1146</ele>
        <time>2022-06-12T09:50:14Z</time>
      </trkpt>
      <trkpt lat="44.38867" lon="6.66673">
        <ele>1145.7</ele>
        <time>2022-06-12T09:50:15Z</time>
      </trkpt>
      <trkpt lat="44.38871" lon="6.66679">
        <ele>1145.4</ele>
        <time>2022-06-12T09:50:16Z</time>
      </trkpt>
      <trkpt lat="44.38875" lon="6.66685">
        <ele>1145.3</ele>
        <time>2022-06-12T09:50:17Z</time>
      </trkpt>
      <trkpt lat="44.38878" lon="6.66691">
        <ele>1145.3</ele>
        <time>2022-06-12T09:50:18Z</time>
      </trkpt>
      <trkpt lat="44.38883" lon="6.66697">
        <ele>1145.5</ele>
        <time>2022-06-12T09:50:19Z</time>
      </trkpt>
      <trkpt lat="44.38887" lon="6.66703">
        <ele>1145.5</ele>
        <time>2022-06-12T09:50:20Z</time>
      </trkpt>
      <trkpt lat="44.38891" lon="6.66709">
        <ele>1145.5</ele>
        <time>2022-06-12T09:50:21Z</time>
      </trkpt>
      <trkpt lat="44.38895" lon="6.66715">
        <ele>1145.6</ele>
        <time>2022-06-12T09:50:22Z</time>
      </trkpt>
      <trkpt lat="44.38899" lon="6.66721">
        <ele>1145.7</ele>
        <time>2022-06-12T09:50:23Z</time>
      </trkpt>
      <trkpt lat="44.38903" lon="6.66727">
        <ele>1145.8</ele>
        <time>2022-06-12T09:50:24Z</time>
      </trkpt>
      <trkpt lat="44.38907" lon="6.66733">
        <ele>1145.9</ele>
        <time>2022-06-12T09:50:25Z</time>
      </trkpt>
      <trkpt lat="44.3891" lon="6.66739">
        <ele>1145.9</ele>
        <time>2022-06-12T09:50:26Z</time>
      </trkpt>
      <trkpt lat="44.38914" lon="6.66744">
        <ele>1146</ele>
        <time>2022-06-12T09:50:27Z</time>
      </trkpt>
      <trkpt lat="44.38919" lon="6.66749">
        <ele>1146.1</ele>
        <time>2022-06-12T09:50:28Z</time>
      </trkpt>
      <trkpt lat="44.38923" lon="6.66753">
        <ele>1146.1</ele>
        <time>2022-06-12T09:50:29Z</time>
      </trkpt>
      <trkpt lat="44.38927" lon="6.66757">
        <ele>1146.2</ele>
        <time>2022-06-12T09:50:30Z</time>
      </trkpt>
      <trkpt lat="44.38931" lon="6.66761">
        <ele>1146.3</ele>
        <time>2022-06-12T09:50:31Z</time>
      </trkpt>
      <trkpt lat="44.38934" lon="6.66765">
        <ele>1146.4</ele>
        <time>2022-06-12T09:50:32Z</time>
      </trkpt>
      <trkpt lat="44.38938" lon="6.66768">
        <ele>1146.6</ele>
        <time>2022-06-12T09:50:33Z</time>
      </trkpt>
      <trkpt lat="44.38942" lon="6.66771">
        <ele>1146.8</ele>
        <time>2022-06-12T09:50:34Z</time>
      </trkpt>
      <trkpt lat="44.38945" lon="6.66774">
        <ele>1147</ele>
        <time>2022-06-12T09:50:35Z</time>
      </trkpt>
      <trkpt lat="44.38948" lon="6.66778">
        <ele>1147.1</ele>
        <time>2022-06-12T09:50:36Z</time>
      </trkpt>
      <trkpt lat="44.3895" lon="6.66781">
        <ele>1147.1</ele>
        <time>2022-06-12T09:50:37Z</time>
      </trkpt>
      <trkpt lat="44.38953" lon="6.66785">
        <ele>1147.1</ele>
        <time>2022-06-12T09:50:38Z</time>
      </trkpt>
      <trkpt lat="44.38956" lon="6.66787">
        <ele>1147.2</ele>
        <time>2022-06-12T09:50:39Z</time>
      </trkpt>
      <trkpt lat="44.3896" lon="6.66789">
        <ele>1147.4</ele>
        <time>2022-06-12T09:50:40Z</time>
      </trkpt>
      <trkpt lat="44.38965" lon="6.6679">
        <ele>1147.6</ele>
        <time>2022-06-12T09:50:41Z</time>
      </trkpt>
      <trkpt lat="44.3897" lon="6.66791">
        <ele>1147.9</ele>
        <time>2022-06-12T09:50:42Z</time>
      </trkpt>
      <trkpt lat="44.38975" lon="6.66793">
        <ele>1148.1</ele>
        <time>2022-06-12T09:50:43Z</time>
      </trkpt>
      <trkpt lat="44.38979" lon="6.66794">
        <ele>1148.4</ele>
        <time>2022-06-12T09:50:44Z</time>
      </trkpt>
      <trkpt lat="44.38984" lon="6.66796">
        <ele>1148.7</ele>
        <time>2022-06-12T09:50:45Z</time>
      </trkpt>
      <trkpt lat="44.38988" lon="6.66799">
        <ele>1149</ele>
        <time>2022-06-12T09:50:46Z</time>
      </trkpt>
      <trkpt lat="44.38992" lon="6.66804">
        <ele>1149.3</ele>
        <time>2022-06-12T09:50:47Z</time>
      </trkpt>
      <trkpt lat="44.38994" lon="6.66809">
        <ele>1149.6</ele>
        <time>2022-06-12T09:50:48Z</time>
      </trkpt>
      <trkpt lat="44.38996" lon="6.66815">
        <ele>1149.7</ele>
        <time>2022-06-12T09:50:49Z</time>
      </trkpt>
      <trkpt lat="44.38997" lon="6.66822">
        <ele>1149.8</ele>
        <time>2022-06-12T09:50:50Z</time>
      </trkpt>
      <trkpt lat="44.38999" lon="6.66828">
        <ele>1149.9</ele>
        <time>2022-06-12T09:50:51Z</time>
      </trkpt>
      <trkpt lat="44.39001" lon="6.66835">
        <ele>1150</ele>
        <time>2022-06-12T09:50:52Z</time>
      </trkpt>
      <trkpt lat="44.39003" lon="6.66841">
        <ele>1149.9</ele>
        <time>2022-06-12T09:50:53Z</time>
      </trkpt>
      <trkpt lat="44.39004" lon="6.66848">
        <ele>1149.8</ele>
        <time>2022-06-12T09:50:54Z</time>
      </trkpt>
      <trkpt lat="44.39006" lon="6.66854">
        <ele>1149.7</ele>
        <time>2022-06-12T09:50:55Z</time>
      </trkpt>
      <trkpt lat="44.39008" lon="6.66861">
        <ele>1149.5</ele>
        <time>2022-06-12T09:50:56Z</time>
      </trkpt>
      <trkpt lat="44.39009" lon="6.66868">
        <ele>1149.5</ele>
        <time>2022-06-12T09:50:57Z</time>
      </trkpt>
      <trkpt lat="44.39011" lon="6.66874">
        <ele>1149.5</ele>
        <time>2022-06-12T09:50:58Z</time>
      </trkpt>
      <trkpt lat="44.39013" lon="6.66881">
        <ele>1149.6</ele>
        <time>2022-06-12T09:50:59Z</time>
      </trkpt>
      <trkpt lat="44.39015" lon="6.66888">
        <ele>1149.6</ele>
        <time>2022-06-12T09:51:00Z</time>
      </trkpt>
      <trkpt lat="44.39017" lon="6.66895">
        <ele>1149.7</ele>
        <time>2022-06-12T09:51:01Z</time>
      </trkpt>
      <trkpt lat="44.39019" lon="6.66902">
        <ele>1149.7</ele>
        <time>2022-06-12T09:51:02Z</time>
      </trkpt>
      <trkpt lat="44.3902" lon="6.66909">
        <ele>1149.6</ele>
        <time>2022-06-12T09:51:03Z</time>
      </trkpt>
      <trkpt lat="44.39022" lon="6.66916">
        <ele>1149.6</ele>
        <time>2022-06-12T09:51:04Z</time>
      </trkpt>
      <trkpt lat="44.39023" lon="6.66923">
        <ele>1149.7</ele>
        <time>2022-06-12T09:51:05Z</time>
      </trkpt>
      <trkpt lat="44.39025" lon="6.66929">
        <ele>1149.8</ele>
        <time>2022-06-12T09:51:06Z</time>
      </trkpt>
      <trkpt lat="44.39026" lon="6.66936">
        <ele>1149.9</ele>
        <time>2022-06-12T09:51:07Z</time>
      </trkpt>
      <trkpt lat="44.39028" lon="6.66942">
        <ele>1150.1</ele>
        <time>2022-06-12T09:51:08Z</time>
      </trkpt>
      <trkpt lat="44.3903" lon="6.66948">
        <ele>1150.3</ele>
        <time>2022-06-12T09:51:09Z</time>
      </trkpt>
      <trkpt lat="44.39033" lon="6.66954">
        <ele>1150.4</ele>
        <time>2022-06-12T09:51:10Z</time>
      </trkpt>
      <trkpt lat="44.39035" lon="6.6696">
        <ele>1150.6</ele>
        <time>2022-06-12T09:51:11Z</time>
      </trkpt>
      <trkpt lat="44.39037" lon="6.66966">
        <ele>1150.7</ele>
        <time>2022-06-12T09:51:12Z</time>
      </trkpt>
      <trkpt lat="44.3904" lon="6.66972">
        <ele>1150.9</ele>
        <time>2022-06-12T09:51:13Z</time>
      </trkpt>
      <trkpt lat="44.39043" lon="6.66977">
        <ele>1150.9</ele>
        <time>2022-06-12T09:51:14Z</time>
      </trkpt>
      <trkpt lat="44.39047" lon="6.66982">
        <ele>1151</ele>
        <time>2022-06-12T09:51:15Z</time>
      </trkpt>
      <trkpt lat="44.3905" lon="6.66987">
        <ele>1151.1</ele>
        <time>2022-06-12T09:51:16Z</time>
      </trkpt>
      <trkpt lat="44.39054" lon="6.66991">
        <ele>1151.2</ele>
        <time>2022-06-12T09:51:17Z</time>
      </trkpt>
      <trkpt lat="44.39059" lon="6.66996">
        <ele>1151.5</ele>
        <time>2022-06-12T09:51:18Z</time>
      </trkpt>
      <trkpt lat="44.39063" lon="6.67">
        <ele>1151.8</ele>
        <time>2022-06-12T09:51:19Z</time>
      </trkpt>
      <trkpt lat="44.39068" lon="6.67003">
        <ele>1152.2</ele>
        <time>2022-06-12T09:51:20Z</time>
      </trkpt>
      <trkpt lat="44.39073" lon="6.67007">
        <ele>1152.5</ele>
        <time>2022-06-12T09:51:21Z</time>
      </trkpt>
      <trkpt lat="44.39078" lon="6.67012">
        <ele>1152.7</ele>
        <time>2022-06-12T09:51:22Z</time>
      </trkpt>
      <trkpt lat="44.39083" lon="6.67016">
        <ele>1152.8</ele>
        <time>2022-06-12T09:51:23Z</time>
      </trkpt>
      <trkpt lat="44.39088" lon="6.67021">
        <ele>1152.8</ele>
        <time>2022-06-12T09:51:24Z</time>
      </trkpt>
      <trkpt lat="44.39092" lon="6.67027">
        <ele>1152.7</ele>
        <time>2022-06-12T09:51:25Z</time>
      </trkpt>
      <trkpt lat="44.39097" lon="6.67033">
        <ele>1152.9</ele>
        <time>2022-06-12T09:51:26Z</time>
      </trkpt>
      <trkpt lat="44.39101" lon="6.67039">
        <ele>1153</ele>
        <time>2022-06-12T09:51:27Z</time>
      </trkpt>
      <trkpt lat="44.39105" lon="6.67045">
        <ele>1153.1</ele>
        <time>2022-06-12T09:51:28Z</time>
      </trkpt>
      <trkpt lat="44.3911" lon="6.67052">
        <ele>1153.1</ele>
        <time>2022-06-12T09:51:29Z</time>
      </trkpt>
      <trkpt lat="44.39113" lon="6.67059">
        <ele>1153.2</ele>
        <time>2022-06-12T09:51:30Z</time>
      </trkpt>
      <trkpt lat="44.39117" lon="6.67066">
        <ele>1153.4</ele>
        <time>2022-06-12T09:51:31Z</time>
      </trkpt>
      <trkpt lat="44.3912" lon="6.67074">
        <ele>1153.6</ele>
        <time>2022-06-12T09:51:32Z</time>
      </trkpt>
      <trkpt lat="44.39123" lon="6.67082">
        <ele>1153.9</ele>
        <time>2022-06-12T09:51:33Z</time>
      </trkpt>
      <trkpt lat="44.39125" lon="6.67089">
        <ele>1153.9</ele>
        <time>2022-06-12T09:51:34Z</time>
      </trkpt>
      <trkpt lat="44.39127" lon="6.67097">
        <ele>1153.9</ele>
        <time>2022-06-12T09:51:35Z</time>
      </trkpt>
      <trkpt lat="44.39129" lon="6.67105">
        <ele>1153.8</ele>
        <time>2022-06-12T09:51:36Z</time>
      </trkpt>
      <trkpt lat="44.39131" lon="6.67113">
        <ele>1153.7</ele>
        <time>2022-06-12T09:51:37Z</time>
      </trkpt>
      <trkpt lat="44.39131" lon="6.67121">
        <ele>1153.6</ele>
        <time>2022-06-12T09:51:38Z</time>
      </trkpt>
      <trkpt lat="44.39132" lon="6.67128">
        <ele>1153.6</ele>
        <time>2022-06-12T09:51:39Z</time>
      </trkpt>
      <trkpt lat="44.39133" lon="6.67136">
        <ele>1153.6</ele>
        <time>2022-06-12T09:51:40Z</time>
      </trkpt>
      <trkpt lat="44.39133" lon="6.67144">
        <ele>1153.6</ele>
        <time>2022-06-12T09:51:41Z</time>
      </trkpt>
      <trkpt lat="44.39133" lon="6.67151">
        <ele>1153.6</ele>
        <time>2022-06-12T09:51:42Z</time>
      </trkpt>
      <trkpt lat="44.39133" lon="6.67159">
        <ele>1153.6</ele>
        <time>2022-06-12T09:51:43Z</time>
      </trkpt>
      <trkpt lat="44.39134" lon="6.67167">
        <ele>1153.6</ele>
        <time>2022-06-12T09:51:44Z</time>
      </trkpt>
      <trkpt lat="44.39134" lon="6.67174">
        <ele>1153.9</ele>
        <time>2022-06-12T09:51:45Z</time>
      </trkpt>
      <trkpt lat="44.39134" lon="6.67181">
        <ele>1154.2</ele>
        <time>2022-06-12T09:51:46Z</time>
      </trkpt>
      <trkpt lat="44.39134" lon="6.67189">
        <ele>1154.4</ele>
        <time>2022-06-12T09:51:47Z</time>
      </trkpt>
      <trkpt lat="44.39134" lon="6.67196">
        <ele>1154.7</ele>
        <time>2022-06-12T09:51:48Z</time>
      </trkpt>
      <trkpt lat="44.39134" lon="6.67203">
        <ele>1154.7</ele>
        <time>2022-06-12T09:51:49Z</time>
      </trkpt>
      <trkpt lat="44.39135" lon="6.6721">
        <ele>1154.8</ele>
        <time>2022-06-12T09:51:50Z</time>
      </trkpt>
      <trkpt lat="44.39135" lon="6.67217">
        <ele>1154.8</ele>
        <time>2022-06-12T09:51:51Z</time>
      </trkpt>
      <trkpt lat="44.39135" lon="6.67225">
        <ele>1154.9</ele>
        <time>2022-06-12T09:51:52Z</time>
      </trkpt>
      <trkpt lat="44.39135" lon="6.67232">
        <ele>1155.2</ele>
        <time>2022-06-12T09:51:53Z</time>
      </trkpt>
      <trkpt lat="44.39136" lon="6.6724">
        <ele>1155.5</ele>
        <time>2022-06-12T09:51:54Z</time>
      </trkpt>
      <trkpt lat="44.39136" lon="6.67247">
        <ele>1155.8</ele>
        <time>2022-06-12T09:51:55Z</time>
      </trkpt>
      <trkpt lat="44.39136" lon="6.67255">
        <ele>1156</ele>
        <time>2022-06-12T09:51:56Z</time>
      </trkpt>
      <trkpt lat="44.39136" lon="6.67262">
        <ele>1156.3</ele>
        <time>2022-06-12T09:51:57Z</time>
      </trkpt>
      <trkpt lat="44.39136" lon="6.6727">
        <ele>1156.6</ele>
        <time>2022-06-12T09:51:58Z</time>
      </trkpt>
      <trkpt lat="44.39136" lon="6.67277">
        <ele>1156.9</ele>
        <time>2022-06-12T09:51:59Z</time>
      </trkpt>
      <trkpt lat="44.39136" lon="6.67285">
        <ele>1157.4</ele>
        <time>2022-06-12T09:52:00Z</time>
      </trkpt>
      <trkpt lat="44.39136" lon="6.67292">
        <ele>1157.9</ele>
        <time>2022-06-12T09:52:01Z</time>
      </trkpt>
      <trkpt lat="44.39136" lon="6.673">
        <ele>1158.4</ele>
        <time>2022-06-12T09:52:02Z</time>
      </trkpt>
      <trkpt lat="44.39135" lon="6.67307">
        <ele>1158.7</ele>
        <time>2022-06-12T09:52:03Z</time>
      </trkpt>
      <trkpt lat="44.39136" lon="6.67315">
        <ele>1158.8</ele>
        <time>2022-06-12T09:52:04Z</time>
      </trkpt>
      <trkpt lat="44.39136" lon="6.67323">
        <ele>1158.8</ele>
        <time>2022-06-12T09:52:05Z</time>
      </trkpt>
      <trkpt lat="44.39136" lon="6.6733">
        <ele>1158.9</ele>
        <time>2022-06-12T09:52:06Z</time>
      </trkpt>
      <trkpt lat="44.39136" lon="6.67338">
        <ele>1158.9</ele>
        <time>2022-06-12T09:52:07Z</time>
      </trkpt>
      <trkpt lat="44.39136" lon="6.67346">
        <ele>1158.8</ele>
        <time>2022-06-12T09:52:08Z</time>
      </trkpt>
      <trkpt lat="44.39136" lon="6.67354">
        <ele>1158.8</ele>
        <time>2022-06-12T09:52:09Z</time>
      </trkpt>
      <trkpt lat="44.39136" lon="6.67362">
        <ele>1158.8</ele>
        <time>2022-06-12T09:52:10Z</time>
      </trkpt>
      <trkpt lat="44.39136" lon="6.6737">
        <ele>1158.8</ele>
        <time>2022-06-12T09:52:11Z</time>
      </trkpt>
      <trkpt lat="44.39137" lon="6.67378">
        <ele>1158.8</ele>
        <time>2022-06-12T09:52:12Z</time>
      </trkpt>
      <trkpt lat="44.39137" lon="6.67385">
        <ele>1158.8</ele>
        <time>2022-06-12T09:52:13Z</time>
      </trkpt>
      <trkpt lat="44.39137" lon="6.67393">
        <ele>1158.8</ele>
        <time>2022-06-12T09:52:14Z</time>
      </trkpt>
      <trkpt lat="44.39137" lon="6.67401">
        <ele>1158.8</ele>
        <time>2022-06-12T09:52:15Z</time>
      </trkpt>
      <trkpt lat="44.39137" lon="6.67409">
        <ele>1158.8</ele>
        <time>2022-06-12T09:52:16Z</time>
      </trkpt>
      <trkpt lat="44.39137" lon="6.67417">
        <ele>1158.8</ele>
        <time>2022-06-12T09:52:17Z</time>
      </trkpt>
      <trkpt lat="44.39137" lon="6.67424">
        <ele>1159.1</ele>
        <time>2022-06-12T09:52:18Z</time>
      </trkpt>
      <trkpt lat="44.39137" lon="6.67432">
        <ele>1159.3</ele>
        <time>2022-06-12T09:52:19Z</time>
      </trkpt>
      <trkpt lat="44.39137" lon="6.67439">
        <ele>1159.6</ele>
        <time>2022-06-12T09:52:20Z</time>
      </trkpt>
      <trkpt lat="44.39137" lon="6.67447">
        <ele>1159.7</ele>
        <time>2022-06-12T09:52:21Z</time>
      </trkpt>
      <trkpt lat="44.39138" lon="6.67454">
        <ele>1159.5</ele>
        <time>2022-06-12T09:52:22Z</time>
      </trkpt>
      <trkpt lat="44.39138" lon="6.67462">
        <ele>1159.2</ele>
        <time>2022-06-12T09:52:23Z</time>
      </trkpt>
      <trkpt lat="44.39138" lon="6.67469">
        <ele>1159</ele>
        <time>2022-06-12T09:52:24Z</time>
      </trkpt>
      <trkpt lat="44.39138" lon="6.67476">
        <ele>1158.9</ele>
        <time>2022-06-12T09:52:25Z</time>
      </trkpt>
      <trkpt lat="44.39138" lon="6.67483">
        <ele>1158.9</ele>
        <time>2022-06-12T09:52:26Z</time>
      </trkpt>
      <trkpt lat="44.39138" lon="6.67491">
        <ele>1158.9</ele>
        <time>2022-06-12T09:52:27Z</time>
      </trkpt>
      <trkpt lat="44.39139" lon="6.67499">
        <ele>1159</ele>
        <time>2022-06-12T09:52:28Z</time>
      </trkpt>
      <trkpt lat="44.39139" lon="6.67507">
        <ele>1159.2</ele>
        <time>2022-06-12T09:52:29Z</time>
      </trkpt>
      <trkpt lat="44.39139" lon="6.67514">
        <ele>1159.5</ele>
        <time>2022-06-12T09:52:30Z</time>
      </trkpt>
      <trkpt lat="44.39139" lon="6.67522">
        <ele>1159.8</ele>
        <time>2022-06-12T09:52:31Z</time>
      </trkpt>
      <trkpt lat="44.39139" lon="6.67529">
        <ele>1160</ele>
        <time>2022-06-12T09:52:32Z</time>
      </trkpt>
      <trkpt lat="44.39139" lon="6.67537">
        <ele>1160</ele>
        <time>2022-06-12T09:52:33Z</time>
      </trkpt>
      <trkpt lat="44.39139" lon="6.67545">
        <ele>1160</ele>
        <time>2022-06-12T09:52:34Z</time>
      </trkpt>
      <trkpt lat="44.39139" lon="6.67552">
        <ele>1160</ele>
        <time>2022-06-12T09:52:35Z</time>
      </trkpt>
      <trkpt lat="44.39139" lon="6.6756">
        <ele>1160</ele>
        <time>2022-06-12T09:52:36Z</time>
      </trkpt>
      <trkpt lat="44.39139" lon="6.67567">
        <ele>1160</ele>
        <time>2022-06-12T09:52:37Z</time>
      </trkpt>
      <trkpt lat="44.3914" lon="6.67574">
        <ele>1160</ele>
        <time>2022-06-12T09:52:38Z</time>
      </trkpt>
      <trkpt lat="44.39139" lon="6.67582">
        <ele>1160</ele>
        <time>2022-06-12T09:52:39Z</time>
      </trkpt>
      <trkpt lat="44.39139" lon="6.6759">
        <ele>1160.2</ele>
        <time>2022-06-12T09:52:40Z</time>
      </trkpt>
      <trkpt lat="44.39139" lon="6.67597">
        <ele>1160.5</ele>
        <time>2022-06-12T09:52:41Z</time>
      </trkpt>
      <trkpt lat="44.39139" lon="6.67605">
        <ele>1160.8</ele>
        <time>2022-06-12T09:52:42Z</time>
      </trkpt>
      <trkpt lat="44.39139" lon="6.67612">
        <ele>1161</ele>
        <time>2022-06-12T09:52:43Z</time>
      </trkpt>
      <trkpt lat="44.39139" lon="6.6762">
        <ele>1161</ele>
        <time>2022-06-12T09:52:44Z</time>
      </trkpt>
      <trkpt lat="44.3914" lon="6.67627">
        <ele>1161</ele>
        <time>2022-06-12T09:52:45Z</time>
      </trkpt>
      <trkpt lat="44.3914" lon="6.67634">
        <ele>1161.1</ele>
        <time>2022-06-12T09:52:46Z</time>
      </trkpt>
      <trkpt lat="44.3914" lon="6.67642">
        <ele>1161.1</ele>
        <time>2022-06-12T09:52:47Z</time>
      </trkpt>
      <trkpt lat="44.3914" lon="6.6765">
        <ele>1161.1</ele>
        <time>2022-06-12T09:52:48Z</time>
      </trkpt>
      <trkpt lat="44.3914" lon="6.67658">
        <ele>1161.1</ele>
        <time>2022-06-12T09:52:49Z</time>
      </trkpt>
      <trkpt lat="44.3914" lon="6.67666">
        <ele>1161.2</ele>
        <time>2022-06-12T09:52:50Z</time>
      </trkpt>
      <trkpt lat="44.39141" lon="6.67673">
        <ele>1161.2</ele>
        <time>2022-06-12T09:52:51Z</time>
      </trkpt>
      <trkpt lat="44.39141" lon="6.67681">
        <ele>1161.2</ele>
        <time>2022-06-12T09:52:52Z</time>
      </trkpt>
      <trkpt lat="44.39141" lon="6.67689">
        <ele>1161.2</ele>
        <time>2022-06-12T09:52:53Z</time>
      </trkpt>
      <trkpt lat="44.39141" lon="6.67696">
        <ele>1161.2</ele>
        <time>2022-06-12T09:52:54Z</time>
      </trkpt>
      <trkpt lat="44.39141" lon="6.67704">
        <ele>1161.3</ele>
        <time>2022-06-12T09:52:55Z</time>
      </trkpt>
      <trkpt lat="44.39141" lon="6.67711">
        <ele>1161.3</ele>
        <time>2022-06-12T09:52:56Z</time>
      </trkpt>
      <trkpt lat="44.39142" lon="6.67719">
        <ele>1161.4</ele>
        <time>2022-06-12T09:52:57Z</time>
      </trkpt>
      <trkpt lat="44.39142" lon="6.67727">
        <ele>1161.6</ele>
        <time>2022-06-12T09:52:58Z</time>
      </trkpt>
      <trkpt lat="44.39142" lon="6.67734">
        <ele>1161.9</ele>
        <time>2022-06-12T09:52:59Z</time>
      </trkpt>
      <trkpt lat="44.39143" lon="6.67742">
        <ele>1162.1</ele>
        <time>2022-06-12T09:53:00Z</time>
      </trkpt>
      <trkpt lat="44.39143" lon="6.67749">
        <ele>1162.4</ele>
        <time>2022-06-12T09:53:01Z</time>
      </trkpt>
      <trkpt lat="44.39143" lon="6.67757">
        <ele>1162.4</ele>
        <time>2022-06-12T09:53:02Z</time>
      </trkpt>
      <trkpt lat="44.39143" lon="6.67765">
        <ele>1162.5</ele>
        <time>2022-06-12T09:53:03Z</time>
      </trkpt>
      <trkpt lat="44.39144" lon="6.67772">
        <ele>1162.5</ele>
        <time>2022-06-12T09:53:04Z</time>
      </trkpt>
      <trkpt lat="44.39144" lon="6.6778">
        <ele>1162.5</ele>
        <time>2022-06-12T09:53:05Z</time>
      </trkpt>
      <trkpt lat="44.39144" lon="6.67788">
        <ele>1162.6</ele>
        <time>2022-06-12T09:53:06Z</time>
      </trkpt>
      <trkpt lat="44.39144" lon="6.67796">
        <ele>1162.6</ele>
        <time>2022-06-12T09:53:07Z</time>
      </trkpt>
      <trkpt lat="44.39145" lon="6.67804">
        <ele>1162.6</ele>
        <time>2022-06-12T09:53:08Z</time>
      </trkpt>
      <trkpt lat="44.39145" lon="6.67812">
        <ele>1162.9</ele>
        <time>2022-06-12T09:53:09Z</time>
      </trkpt>
      <trkpt lat="44.39145" lon="6.67819">
        <ele>1163.2</ele>
        <time>2022-06-12T09:53:10Z</time>
      </trkpt>
      <trkpt lat="44.39146" lon="6.67827">
        <ele>1163.5</ele>
        <time>2022-06-12T09:53:11Z</time>
      </trkpt>
      <trkpt lat="44.39146" lon="6.67835">
        <ele>1163.7</ele>
        <time>2022-06-12T09:53:12Z</time>
      </trkpt>
      <trkpt lat="44.39146" lon="6.67842">
        <ele>1163.7</ele>
        <time>2022-06-12T09:53:13Z</time>
      </trkpt>
      <trkpt lat="44.39146" lon="6.6785">
        <ele>1163.8</ele>
        <time>2022-06-12T09:53:14Z</time>
      </trkpt>
      <trkpt lat="44.39147" lon="6.67858">
        <ele>1163.8</ele>
        <time>2022-06-12T09:53:15Z</time>
      </trkpt>
      <trkpt lat="44.39147" lon="6.67865">
        <ele>1164</ele>
        <time>2022-06-12T09:53:16Z</time>
      </trkpt>
      <trkpt lat="44.39147" lon="6.67873">
        <ele>1164.2</ele>
        <time>2022-06-12T09:53:17Z</time>
      </trkpt>
      <trkpt lat="44.39148" lon="6.67881">
        <ele>1164.4</ele>
        <time>2022-06-12T09:53:18Z</time>
      </trkpt>
      <trkpt lat="44.39148" lon="6.67889">
        <ele>1164.6</ele>
        <time>2022-06-12T09:53:19Z</time>
      </trkpt>
      <trkpt lat="44.39148" lon="6.67896">
        <ele>1164.7</ele>
        <time>2022-06-12T09:53:20Z</time>
      </trkpt>
      <trkpt lat="44.39148" lon="6.67904">
        <ele>1164.8</ele>
        <time>2022-06-12T09:53:21Z</time>
      </trkpt>
      <trkpt lat="44.39148" lon="6.67912">
        <ele>1165</ele>
        <time>2022-06-12T09:53:22Z</time>
      </trkpt>
      <trkpt lat="44.39148" lon="6.67919">
        <ele>1165.1</ele>
        <time>2022-06-12T09:53:23Z</time>
      </trkpt>
      <trkpt lat="44.39149" lon="6.67927">
        <ele>1165.4</ele>
        <time>2022-06-12T09:53:24Z</time>
      </trkpt>
      <trkpt lat="44.39149" lon="6.67935">
        <ele>1165.7</ele>
        <time>2022-06-12T09:53:25Z</time>
      </trkpt>
      <trkpt lat="44.39149" lon="6.67942">
        <ele>1166</ele>
        <time>2022-06-12T09:53:26Z</time>
      </trkpt>
      <trkpt lat="44.39149" lon="6.6795">
        <ele>1166.2</ele>
        <time>2022-06-12T09:53:27Z</time>
      </trkpt>
      <trkpt lat="44.3915" lon="6.67957">
        <ele>1166.4</ele>
        <time>2022-06-12T09:53:28Z</time>
      </trkpt>
      <trkpt lat="44.3915" lon="6.67965">
        <ele>1166.6</ele>
        <time>2022-06-12T09:53:29Z</time>
      </trkpt>
      <trkpt lat="44.3915" lon="6.67973">
        <ele>1166.8</ele>
        <time>2022-06-12T09:53:30Z</time>
      </trkpt>
      <trkpt lat="44.3915" lon="6.6798">
        <ele>1166.8</ele>
        <time>2022-06-12T09:53:31Z</time>
      </trkpt>
      <trkpt lat="44.3915" lon="6.67988">
        <ele>1166.8</ele>
        <time>2022-06-12T09:53:32Z</time>
      </trkpt>
      <trkpt lat="44.39151" lon="6.67996">
        <ele>1166.8</ele>
        <time>2022-06-12T09:53:33Z</time>
      </trkpt>
      <trkpt lat="44.39151" lon="6.68003">
        <ele>1166.9</ele>
        <time>2022-06-12T09:53:34Z</time>
      </trkpt>
      <trkpt lat="44.39151" lon="6.68011">
        <ele>1167</ele>
        <time>2022-06-12T09:53:35Z</time>
      </trkpt>
      <trkpt lat="44.39151" lon="6.68019">
        <ele>1167.2</ele>
        <time>2022-06-12T09:53:36Z</time>
      </trkpt>
      <trkpt lat="44.39152" lon="6.68027">
        <ele>1167.3</ele>
        <time>2022-06-12T09:53:37Z</time>
      </trkpt>
      <trkpt lat="44.39152" lon="6.68035">
        <ele>1167.4</ele>
        <time>2022-06-12T09:53:38Z</time>
      </trkpt>
      <trkpt lat="44.39152" lon="6.68043">
        <ele>1167.4</ele>
        <time>2022-06-12T09:53:39Z</time>
      </trkpt>
      <trkpt lat="44.39152" lon="6.68051">
        <ele>1167.4</ele>
        <time>2022-06-12T09:53:40Z</time>
      </trkpt>
      <trkpt lat="44.39152" lon="6.68059">
        <ele>1167.4</ele>
        <time>2022-06-12T09:53:41Z</time>
      </trkpt>
      <trkpt lat="44.39152" lon="6.68067">
        <ele>1167.4</ele>
        <time>2022-06-12T09:53:42Z</time>
      </trkpt>
      <trkpt lat="44.39152" lon="6.68075">
        <ele>1167.4</ele>
        <time>2022-06-12T09:53:43Z</time>
      </trkpt>
      <trkpt lat="44.39153" lon="6.68082">
        <ele>1167.5</ele>
        <time>2022-06-12T09:53:44Z</time>
      </trkpt>
      <trkpt lat="44.39153" lon="6.6809">
        <ele>1167.5</ele>
        <time>2022-06-12T09:53:45Z</time>
      </trkpt>
      <trkpt lat="44.39153" lon="6.68098">
        <ele>1167.6</ele>
        <time>2022-06-12T09:53:46Z</time>
      </trkpt>
      <trkpt lat="44.39154" lon="6.68106">
        <ele>1167.6</ele>
        <time>2022-06-12T09:53:47Z</time>
      </trkpt>
      <trkpt lat="44.39154" lon="6.68114">
        <ele>1167.6</ele>
        <time>2022-06-12T09:53:48Z</time>
      </trkpt>
      <trkpt lat="44.39154" lon="6.68122">
        <ele>1167.6</ele>
        <time>2022-06-12T09:53:49Z</time>
      </trkpt>
      <trkpt lat="44.39155" lon="6.6813">
        <ele>1167.7</ele>
        <time>2022-06-12T09:53:50Z</time>
      </trkpt>
      <trkpt lat="44.39155" lon="6.68138">
        <ele>1167.7</ele>
        <time>2022-06-12T09:53:51Z</time>
      </trkpt>
      <trkpt lat="44.39155" lon="6.68146">
        <ele>1167.7</ele>
        <time>2022-06-12T09:53:52Z</time>
      </trkpt>
      <trkpt lat="44.39155" lon="6.68154">
        <ele>1167.7</ele>
        <time>2022-06-12T09:53:53Z</time>
      </trkpt>
      <trkpt lat="44.39155" lon="6.68162">
        <ele>1167.7</ele>
        <time>2022-06-12T09:53:54Z</time>
      </trkpt>
      <trkpt lat="44.39155" lon="6.68171">
        <ele>1167.6</ele>
        <time>2022-06-12T09:53:55Z</time>
      </trkpt>
      <trkpt lat="44.39155" lon="6.68179">
        <ele>1167.5</ele>
        <time>2022-06-12T09:53:56Z</time>
      </trkpt>
      <trkpt lat="44.39155" lon="6.68187">
        <ele>1167.3</ele>
        <time>2022-06-12T09:53:57Z</time>
      </trkpt>
      <trkpt lat="44.39155" lon="6.68195">
        <ele>1167.2</ele>
        <time>2022-06-12T09:53:58Z</time>
      </trkpt>
      <trkpt lat="44.39155" lon="6.68204">
        <ele>1167</ele>
        <time>2022-06-12T09:53:59Z</time>
      </trkpt>
      <trkpt lat="44.39156" lon="6.68212">
        <ele>1166.9</ele>
        <time>2022-06-12T09:54:00Z</time>
      </trkpt>
      <trkpt lat="44.39156" lon="6.6822">
        <ele>1166.9</ele>
        <time>2022-06-12T09:54:01Z</time>
      </trkpt>
      <trkpt lat="44.39156" lon="6.68229">
        <ele>1166.9</ele>
        <time>2022-06-12T09:54:02Z</time>
      </trkpt>
      <trkpt lat="44.39157" lon="6.68237">
        <ele>1166.9</ele>
        <time>2022-06-12T09:54:03Z</time>
      </trkpt>
      <trkpt lat="44.39157" lon="6.68246">
        <ele>1166.9</ele>
        <time>2022-06-12T09:54:04Z</time>
      </trkpt>
      <trkpt lat="44.39157" lon="6.68254">
        <ele>1167</ele>
        <time>2022-06-12T09:54:05Z</time>
      </trkpt>
      <trkpt lat="44.39158" lon="6.68263">
        <ele>1167</ele>
        <time>2022-06-12T09:54:06Z</time>
      </trkpt>
      <trkpt lat="44.39158" lon="6.68271">
        <ele>1167.1</ele>
        <time>2022-06-12T09:54:07Z</time>
      </trkpt>
      <trkpt lat="44.39159" lon="6.6828">
        <ele>1167.1</ele>
        <time>2022-06-12T09:54:08Z</time>
      </trkpt>
      <trkpt lat="44.39159" lon="6.68288">
        <ele>1167.2</ele>
        <time>2022-06-12T09:54:09Z</time>
      </trkpt>
      <trkpt lat="44.3916" lon="6.68296">
        <ele>1167.3</ele>
        <time>2022-06-12T09:54:10Z</time>
      </trkpt>
      <trkpt lat="44.39161" lon="6.68304">
        <ele>1167.4</ele>
        <time>2022-06-12T09:54:11Z</time>
      </trkpt>
      <trkpt lat="44.39162" lon="6.68313">
        <ele>1167.5</ele>
        <time>2022-06-12T09:54:12Z</time>
      </trkpt>
      <trkpt lat="44.39164" lon="6.68321">
        <ele>1167.7</ele>
        <time>2022-06-12T09:54:13Z</time>
      </trkpt>
      <trkpt lat="44.39165" lon="6.68329">
        <ele>1167.9</ele>
        <time>2022-06-12T09:54:14Z</time>
      </trkpt>
      <trkpt lat="44.39167" lon="6.68337">
        <ele>1167.9</ele>
        <time>2022-06-12T09:54:15Z</time>
      </trkpt>
      <trkpt lat="44.39169" lon="6.68345">
        <ele>1167.8</ele>
        <time>2022-06-12T09:54:16Z</time>
      </trkpt>
      <trkpt lat="44.39171" lon="6.68353">
        <ele>1167.8</ele>
        <time>2022-06-12T09:54:17Z</time>
      </trkpt>
      <trkpt lat="44.39173" lon="6.68361">
        <ele>1167.7</ele>
        <time>2022-06-12T09:54:18Z</time>
      </trkpt>
      <trkpt lat="44.39176" lon="6.68369">
        <ele>1167.9</ele>
        <time>2022-06-12T09:54:19Z</time>
      </trkpt>
      <trkpt lat="44.39178" lon="6.68377">
        <ele>1168</ele>
        <time>2022-06-12T09:54:20Z</time>
      </trkpt>
      <trkpt lat="44.3918" lon="6.68385">
        <ele>1168</ele>
        <time>2022-06-12T09:54:21Z</time>
      </trkpt>
      <trkpt lat="44.39182" lon="6.68393">
        <ele>1168</ele>
        <time>2022-06-12T09:54:22Z</time>
      </trkpt>
      <trkpt lat="44.39184" lon="6.68401">
        <ele>1167.8</ele>
        <time>2022-06-12T09:54:23Z</time>
      </trkpt>
      <trkpt lat="44.39186" lon="6.68409">
        <ele>1167.7</ele>
        <time>2022-06-12T09:54:24Z</time>
      </trkpt>
      <trkpt lat="44.39189" lon="6.68417">
        <ele>1167.6</ele>
        <time>2022-06-12T09:54:25Z</time>
      </trkpt>
      <trkpt lat="44.39191" lon="6.68425">
        <ele>1167.7</ele>
        <time>2022-06-12T09:54:26Z</time>
      </trkpt>
      <trkpt lat="44.39193" lon="6.68433">
        <ele>1167.9</ele>
        <time>2022-06-12T09:54:27Z</time>
      </trkpt>
      <trkpt lat="44.39195" lon="6.68442">
        <ele>1168.1</ele>
        <time>2022-06-12T09:54:28Z</time>
      </trkpt>
      <trkpt lat="44.39198" lon="6.6845">
        <ele>1168.1</ele>
        <time>2022-06-12T09:54:29Z</time>
      </trkpt>
      <trkpt lat="44.392" lon="6.68458">
        <ele>1168</ele>
        <time>2022-06-12T09:54:30Z</time>
      </trkpt>
      <trkpt lat="44.39202" lon="6.68467">
        <ele>1168</ele>
        <time>2022-06-12T09:54:31Z</time>
      </trkpt>
      <trkpt lat="44.39205" lon="6.68475">
        <ele>1168.1</ele>
        <time>2022-06-12T09:54:32Z</time>
      </trkpt>
      <trkpt lat="44.39207" lon="6.68483">
        <ele>1168.2</ele>
        <time>2022-06-12T09:54:33Z</time>
      </trkpt>
      <trkpt lat="44.39209" lon="6.68491">
        <ele>1168.2</ele>
        <time>2022-06-12T09:54:34Z</time>
      </trkpt>
      <trkpt lat="44.39211" lon="6.685">
        <ele>1168.2</ele>
        <time>2022-06-12T09:54:35Z</time>
      </trkpt>
      <trkpt lat="44.39214" lon="6.68508">
        <ele>1168.3</ele>
        <time>2022-06-12T09:54:36Z</time>
      </trkpt>
      <trkpt lat="44.39216" lon="6.68516">
        <ele>1168.4</ele>
        <time>2022-06-12T09:54:37Z</time>
      </trkpt>
      <trkpt lat="44.39218" lon="6.68525">
        <ele>1168.6</ele>
        <time>2022-06-12T09:54:38Z</time>
      </trkpt>
      <trkpt lat="44.39221" lon="6.68533">
        <ele>1168.6</ele>
        <time>2022-06-12T09:54:39Z</time>
      </trkpt>
      <trkpt lat="44.39223" lon="6.68541">
        <ele>1168.6</ele>
        <time>2022-06-12T09:54:40Z</time>
      </trkpt>
      <trkpt lat="44.39225" lon="6.6855">
        <ele>1168.5</ele>
        <time>2022-06-12T09:54:41Z</time>
      </trkpt>
      <trkpt lat="44.39228" lon="6.68559">
        <ele>1168.6</ele>
        <time>2022-06-12T09:54:42Z</time>
      </trkpt>
      <trkpt lat="44.3923" lon="6.68567">
        <ele>1168.7</ele>
        <time>2022-06-12T09:54:43Z</time>
      </trkpt>
      <trkpt lat="44.39233" lon="6.68576">
        <ele>1168.8</ele>
        <time>2022-06-12T09:54:44Z</time>
      </trkpt>
      <trkpt lat="44.39235" lon="6.68585">
        <ele>1168.9</ele>
        <time>2022-06-12T09:54:45Z</time>
      </trkpt>
      <trkpt lat="44.39237" lon="6.68594">
        <ele>1169.1</ele>
        <time>2022-06-12T09:54:46Z</time>
      </trkpt>
      <trkpt lat="44.3924" lon="6.68602">
        <ele>1169.4</ele>
        <time>2022-06-12T09:54:47Z</time>
      </trkpt>
      <trkpt lat="44.39242" lon="6.68611">
        <ele>1169.9</ele>
        <time>2022-06-12T09:54:48Z</time>
      </trkpt>
      <trkpt lat="44.39245" lon="6.68619">
        <ele>1169.8</ele>
        <time>2022-06-12T09:54:49Z</time>
      </trkpt>
      <trkpt lat="44.39248" lon="6.68627">
        <ele>1169.6</ele>
        <time>2022-06-12T09:54:50Z</time>
      </trkpt>
      <trkpt lat="44.39251" lon="6.68635">
        <ele>1169.4</ele>
        <time>2022-06-12T09:54:51Z</time>
      </trkpt>
      <trkpt lat="44.39255" lon="6.68643">
        <ele>1169.4</ele>
        <time>2022-06-12T09:54:52Z</time>
      </trkpt>
      <trkpt lat="44.39259" lon="6.6865">
        <ele>1169.4</ele>
        <time>2022-06-12T09:54:53Z</time>
      </trkpt>
      <trkpt lat="44.39263" lon="6.68658">
        <ele>1169.4</ele>
        <time>2022-06-12T09:54:54Z</time>
      </trkpt>
      <trkpt lat="44.39267" lon="6.68666">
        <ele>1169.3</ele>
        <time>2022-06-12T09:54:55Z</time>
      </trkpt>
      <trkpt lat="44.39271" lon="6.68673">
        <ele>1169.2</ele>
        <time>2022-06-12T09:54:56Z</time>
      </trkpt>
      <trkpt lat="44.39276" lon="6.6868">
        <ele>1169.3</ele>
        <time>2022-06-12T09:54:57Z</time>
      </trkpt>
      <trkpt lat="44.3928" lon="6.68688">
        <ele>1169.4</ele>
        <time>2022-06-12T09:54:58Z</time>
      </trkpt>
      <trkpt lat="44.39284" lon="6.68695">
        <ele>1169.4</ele>
        <time>2022-06-12T09:54:59Z</time>
      </trkpt>
      <trkpt lat="44.39289" lon="6.68703">
        <ele>1169.5</ele>
        <time>2022-06-12T09:55:00Z</time>
      </trkpt>
      <trkpt lat="44.39293" lon="6.6871">
        <ele>1169.5</ele>
        <time>2022-06-12T09:55:01Z</time>
      </trkpt>
      <trkpt lat="44.39298" lon="6.68718">
        <ele>1169.6</ele>
        <time>2022-06-12T09:55:02Z</time>
      </trkpt>
      <trkpt lat="44.39302" lon="6.68725">
        <ele>1169.7</ele>
        <time>2022-06-12T09:55:03Z</time>
      </trkpt>
      <trkpt lat="44.39307" lon="6.68732">
        <ele>1169.7</ele>
        <time>2022-06-12T09:55:04Z</time>
      </trkpt>
      <trkpt lat="44.39311" lon="6.6874">
        <ele>1169.8</ele>
        <time>2022-06-12T09:55:05Z</time>
      </trkpt>
      <trkpt lat="44.39315" lon="6.68747">
        <ele>1169.8</ele>
        <time>2022-06-12T09:55:06Z</time>
      </trkpt>
      <trkpt lat="44.3932" lon="6.68754">
        <ele>1169.9</ele>
        <time>2022-06-12T09:55:07Z</time>
      </trkpt>
      <trkpt lat="44.39324" lon="6.68762">
        <ele>1170.2</ele>
        <time>2022-06-12T09:55:08Z</time>
      </trkpt>
      <trkpt lat="44.39329" lon="6.68769">
        <ele>1170.5</ele>
        <time>2022-06-12T09:55:09Z</time>
      </trkpt>
      <trkpt lat="44.39333" lon="6.68776">
        <ele>1171</ele>
        <time>2022-06-12T09:55:10Z</time>
      </trkpt>
      <trkpt lat="44.39338" lon="6.68783">
        <ele>1171.1</ele>
        <time>2022-06-12T09:55:11Z</time>
      </trkpt>
      <trkpt lat="44.39342" lon="6.68791">
        <ele>1171.2</ele>
        <time>2022-06-12T09:55:12Z</time>
      </trkpt>
      <trkpt lat="44.39346" lon="6.68798">
        <ele>1171.2</ele>
        <time>2022-06-12T09:55:13Z</time>
      </trkpt>
      <trkpt lat="44.39351" lon="6.68805">
        <ele>1171.3</ele>
        <time>2022-06-12T09:55:14Z</time>
      </trkpt>
      <trkpt lat="44.39355" lon="6.68812">
        <ele>1171.3</ele>
        <time>2022-06-12T09:55:15Z</time>
      </trkpt>
      <trkpt lat="44.3936" lon="6.6882">
        <ele>1171.4</ele>
        <time>2022-06-12T09:55:16Z</time>
      </trkpt>
      <trkpt lat="44.39364" lon="6.68827">
        <ele>1171.5</ele>
        <time>2022-06-12T09:55:17Z</time>
      </trkpt>
      <trkpt lat="44.39368" lon="6.68834">
        <ele>1171.5</ele>
        <time>2022-06-12T09:55:18Z</time>
      </trkpt>
      <trkpt lat="44.39373" lon="6.68841">
        <ele>1171.3</ele>
        <time>2022-06-12T09:55:19Z</time>
      </trkpt>
      <trkpt lat="44.39377" lon="6.68849">
        <ele>1171.1</ele>
        <time>2022-06-12T09:55:20Z</time>
      </trkpt>
      <trkpt lat="44.39382" lon="6.68856">
        <ele>1170.9</ele>
        <time>2022-06-12T09:55:21Z</time>
      </trkpt>
      <trkpt lat="44.39386" lon="6.68863">
        <ele>1170.7</ele>
        <time>2022-06-12T09:55:22Z</time>
      </trkpt>
      <trkpt lat="44.3939" lon="6.6887">
        <ele>1170.8</ele>
        <time>2022-06-12T09:55:23Z</time>
      </trkpt>
      <trkpt lat="44.39395" lon="6.68878">
        <ele>1170.8</ele>
        <time>2022-06-12T09:55:24Z</time>
      </trkpt>
      <trkpt lat="44.394" lon="6.68885">
        <ele>1170.9</ele>
        <time>2022-06-12T09:55:25Z</time>
      </trkpt>
      <trkpt lat="44.39404" lon="6.68892">
        <ele>1170.9</ele>
        <time>2022-06-12T09:55:26Z</time>
      </trkpt>
      <trkpt lat="44.39409" lon="6.68899">
        <ele>1170.8</ele>
        <time>2022-06-12T09:55:27Z</time>
      </trkpt>
      <trkpt lat="44.39413" lon="6.68907">
        <ele>1170.5</ele>
        <time>2022-06-12T09:55:28Z</time>
      </trkpt>
      <trkpt lat="44.39417" lon="6.68914">
        <ele>1170.2</ele>
        <time>2022-06-12T09:55:29Z</time>
      </trkpt>
      <trkpt lat="44.39422" lon="6.68921">
        <ele>1170</ele>
        <time>2022-06-12T09:55:30Z</time>
      </trkpt>
      <trkpt lat="44.39426" lon="6.68928">
        <ele>1169.9</ele>
        <time>2022-06-12T09:55:31Z</time>
      </trkpt>
      <trkpt lat="44.3943" lon="6.68935">
        <ele>1169.8</ele>
        <time>2022-06-12T09:55:32Z</time>
      </trkpt>
      <trkpt lat="44.39434" lon="6.68942">
        <ele>1169.7</ele>
        <time>2022-06-12T09:55:33Z</time>
      </trkpt>
      <trkpt lat="44.39438" lon="6.68948">
        <ele>1169.6</ele>
        <time>2022-06-12T09:55:34Z</time>
      </trkpt>
      <trkpt lat="44.39443" lon="6.68955">
        <ele>1169.6</ele>
        <time>2022-06-12T09:55:35Z</time>
      </trkpt>
      <trkpt lat="44.39448" lon="6.68961">
        <ele>1169.6</ele>
        <time>2022-06-12T09:55:36Z</time>
      </trkpt>
      <trkpt lat="44.39453" lon="6.68968">
        <ele>1169.7</ele>
        <time>2022-06-12T09:55:37Z</time>
      </trkpt>
      <trkpt lat="44.39457" lon="6.68974">
        <ele>1169.8</ele>
        <time>2022-06-12T09:55:38Z</time>
      </trkpt>
      <trkpt lat="44.39462" lon="6.68981">
        <ele>1169.7</ele>
        <time>2022-06-12T09:55:39Z</time>
      </trkpt>
      <trkpt lat="44.39467" lon="6.68986">
        <ele>1169.6</ele>
        <time>2022-06-12T09:55:40Z</time>
      </trkpt>
      <trkpt lat="44.39473" lon="6.68993">
        <ele>1169.6</ele>
        <time>2022-06-12T09:55:41Z</time>
      </trkpt>
      <trkpt lat="44.39478" lon="6.68999">
        <ele>1169.7</ele>
        <time>2022-06-12T09:55:42Z</time>
      </trkpt>
      <trkpt lat="44.39483" lon="6.69005">
        <ele>1169.9</ele>
        <time>2022-06-12T09:55:43Z</time>
      </trkpt>
      <trkpt lat="44.39488" lon="6.69011">
        <ele>1170.3</ele>
        <time>2022-06-12T09:55:44Z</time>
      </trkpt>
      <trkpt lat="44.39493" lon="6.69017">
        <ele>1170.6</ele>
        <time>2022-06-12T09:55:45Z</time>
      </trkpt>
      <trkpt lat="44.39498" lon="6.69023">
        <ele>1171</ele>
        <time>2022-06-12T09:55:46Z</time>
      </trkpt>
      <trkpt lat="44.39503" lon="6.6903">
        <ele>1171</ele>
        <time>2022-06-12T09:55:47Z</time>
      </trkpt>
      <trkpt lat="44.39509" lon="6.69036">
        <ele>1170.8</ele>
        <time>2022-06-12T09:55:48Z</time>
      </trkpt>
      <trkpt lat="44.39514" lon="6.69042">
        <ele>1170.7</ele>
        <time>2022-06-12T09:55:49Z</time>
      </trkpt>
      <trkpt lat="44.39519" lon="6.69048">
        <ele>1170.7</ele>
        <time>2022-06-12T09:55:50Z</time>
      </trkpt>
      <trkpt lat="44.39524" lon="6.69054">
        <ele>1170.8</ele>
        <time>2022-06-12T09:55:51Z</time>
      </trkpt>
      <trkpt lat="44.39529" lon="6.6906">
        <ele>1171</ele>
        <time>2022-06-12T09:55:52Z</time>
      </trkpt>
      <trkpt lat="44.39535" lon="6.69066">
        <ele>1171.1</ele>
        <time>2022-06-12T09:55:53Z</time>
      </trkpt>
      <trkpt lat="44.3954" lon="6.69072">
        <ele>1171.3</ele>
        <time>2022-06-12T09:55:54Z</time>
      </trkpt>
      <trkpt lat="44.39545" lon="6.69077">
        <ele>1171.5</ele>
        <time>2022-06-12T09:55:55Z</time>
      </trkpt>
      <trkpt lat="44.3955" lon="6.69083">
        <ele>1171.6</ele>
        <time>2022-06-12T09:55:56Z</time>
      </trkpt>
      <trkpt lat="44.39555" lon="6.69089">
        <ele>1171.8</ele>
        <time>2022-06-12T09:55:57Z</time>
      </trkpt>
      <trkpt lat="44.39561" lon="6.69094">
        <ele>1172</ele>
        <time>2022-06-12T09:55:58Z</time>
      </trkpt>
      <trkpt lat="44.39566" lon="6.69099">
        <ele>1172.1</ele>
        <time>2022-06-12T09:55:59Z</time>
      </trkpt>
      <trkpt lat="44.39571" lon="6.69105">
        <ele>1172.3</ele>
        <time>2022-06-12T09:56:00Z</time>
      </trkpt>
      <trkpt lat="44.39576" lon="6.6911">
        <ele>1172.5</ele>
        <time>2022-06-12T09:56:01Z</time>
      </trkpt>
      <trkpt lat="44.39582" lon="6.69115">
        <ele>1172.6</ele>
        <time>2022-06-12T09:56:02Z</time>
      </trkpt>
      <trkpt lat="44.39587" lon="6.6912">
        <ele>1172.6</ele>
        <time>2022-06-12T09:56:03Z</time>
      </trkpt>
      <trkpt lat="44.39592" lon="6.69125">
        <ele>1172.6</ele>
        <time>2022-06-12T09:56:04Z</time>
      </trkpt>
      <trkpt lat="44.39598" lon="6.6913">
        <ele>1172.9</ele>
        <time>2022-06-12T09:56:05Z</time>
      </trkpt>
      <trkpt lat="44.39603" lon="6.69135">
        <ele>1173.2</ele>
        <time>2022-06-12T09:56:06Z</time>
      </trkpt>
      <trkpt lat="44.39608" lon="6.6914">
        <ele>1173.7</ele>
        <time>2022-06-12T09:56:07Z</time>
      </trkpt>
      <trkpt lat="44.39614" lon="6.69144">
        <ele>1173.7</ele>
        <time>2022-06-12T09:56:08Z</time>
      </trkpt>
      <trkpt lat="44.39619" lon="6.69149">
        <ele>1173.7</ele>
        <time>2022-06-12T09:56:09Z</time>
      </trkpt>
      <trkpt lat="44.39624" lon="6.69153">
        <ele>1173.7</ele>
        <time>2022-06-12T09:56:10Z</time>
      </trkpt>
      <trkpt lat="44.3963" lon="6.69158">
        <ele>1173.8</ele>
        <time>2022-06-12T09:56:11Z</time>
      </trkpt>
      <trkpt lat="44.39635" lon="6.69162">
        <ele>1173.9</ele>
        <time>2022-06-12T09:56:12Z</time>
      </trkpt>
      <trkpt lat="44.3964" lon="6.69167">
        <ele>1174.1</ele>
        <time>2022-06-12T09:56:13Z</time>
      </trkpt>
      <trkpt lat="44.39645" lon="6.69171">
        <ele>1174.3</ele>
        <time>2022-06-12T09:56:14Z</time>
      </trkpt>
      <trkpt lat="44.39651" lon="6.69175">
        <ele>1174.5</ele>
        <time>2022-06-12T09:56:15Z</time>
      </trkpt>
      <trkpt lat="44.39656" lon="6.6918">
        <ele>1174.7</ele>
        <time>2022-06-12T09:56:16Z</time>
      </trkpt>
      <trkpt lat="44.39661" lon="6.69184">
        <ele>1174.9</ele>
        <time>2022-06-12T09:56:17Z</time>
      </trkpt>
      <trkpt lat="44.39666" lon="6.69188">
        <ele>1175.1</ele>
        <time>2022-06-12T09:56:18Z</time>
      </trkpt>
      <trkpt lat="44.3967" lon="6.69192">
        <ele>1175.2</ele>
        <time>2022-06-12T09:56:19Z</time>
      </trkpt>
      <trkpt lat="44.39675" lon="6.69197">
        <ele>1175.2</ele>
        <time>2022-06-12T09:56:20Z</time>
      </trkpt>
      <trkpt lat="44.3968" lon="6.69201">
        <ele>1175</ele>
        <time>2022-06-12T09:56:21Z</time>
      </trkpt>
      <trkpt lat="44.39685" lon="6.69205">
        <ele>1174.9</ele>
        <time>2022-06-12T09:56:22Z</time>
      </trkpt>
      <trkpt lat="44.3969" lon="6.69208">
        <ele>1174.8</ele>
        <time>2022-06-12T09:56:23Z</time>
      </trkpt>
      <trkpt lat="44.39695" lon="6.69212">
        <ele>1174.7</ele>
        <time>2022-06-12T09:56:24Z</time>
      </trkpt>
      <trkpt lat="44.397" lon="6.69216">
        <ele>1174.6</ele>
        <time>2022-06-12T09:56:25Z</time>
      </trkpt>
      <trkpt lat="44.39704" lon="6.69221">
        <ele>1174.5</ele>
        <time>2022-06-12T09:56:26Z</time>
      </trkpt>
      <trkpt lat="44.39709" lon="6.69225">
        <ele>1174.5</ele>
        <time>2022-06-12T09:56:27Z</time>
      </trkpt>
      <trkpt lat="44.39714" lon="6.69229">
        <ele>1174.7</ele>
        <time>2022-06-12T09:56:28Z</time>
      </trkpt>
      <trkpt lat="44.39719" lon="6.69234">
        <ele>1174.9</ele>
        <time>2022-06-12T09:56:29Z</time>
      </trkpt>
      <trkpt lat="44.39724" lon="6.69238">
        <ele>1175.1</ele>
        <time>2022-06-12T09:56:30Z</time>
      </trkpt>
      <trkpt lat="44.39729" lon="6.69243">
        <ele>1175.2</ele>
        <time>2022-06-12T09:56:31Z</time>
      </trkpt>
      <trkpt lat="44.39734" lon="6.69247">
        <ele>1175.4</ele>
        <time>2022-06-12T09:56:32Z</time>
      </trkpt>
      <trkpt lat="44.3974" lon="6.69252">
        <ele>1175.5</ele>
        <time>2022-06-12T09:56:33Z</time>
      </trkpt>
      <trkpt lat="44.39745" lon="6.69257">
        <ele>1175.4</ele>
        <time>2022-06-12T09:56:34Z</time>
      </trkpt>
      <trkpt lat="44.39751" lon="6.69261">
        <ele>1175.2</ele>
        <time>2022-06-12T09:56:35Z</time>
      </trkpt>
      <trkpt lat="44.39756" lon="6.69266">
        <ele>1175</ele>
        <time>2022-06-12T09:56:36Z</time>
      </trkpt>
      <trkpt lat="44.39762" lon="6.69271">
        <ele>1174.8</ele>
        <time>2022-06-12T09:56:37Z</time>
      </trkpt>
      <trkpt lat="44.39767" lon="6.69276">
        <ele>1174.7</ele>
        <time>2022-06-12T09:56:38Z</time>
      </trkpt>
      <trkpt lat="44.39773" lon="6.69281">
        <ele>1174.7</ele>
        <time>2022-06-12T09:56:39Z</time>
      </trkpt>
      <trkpt lat="44.39779" lon="6.69286">
        <ele>1174.7</ele>
        <time>2022-06-12T09:56:40Z</time>
      </trkpt>
      <trkpt lat="44.39785" lon="6.69291">
        <ele>1174.8</ele>
        <time>2022-06-12T09:56:41Z</time>
      </trkpt>
      <trkpt lat="44.39791" lon="6.69296">
        <ele>1174.8</ele>
        <time>2022-06-12T09:56:42Z</time>
      </trkpt>
      <trkpt lat="44.39797" lon="6.69301">
        <ele>1174.9</ele>
        <time>2022-06-12T09:56:43Z</time>
      </trkpt>
      <trkpt lat="44.39803" lon="6.69305">
        <ele>1174.9</ele>
        <time>2022-06-12T09:56:44Z</time>
      </trkpt>
      <trkpt lat="44.39809" lon="6.6931">
        <ele>1174.9</ele>
        <time>2022-06-12T09:56:45Z</time>
      </trkpt>
      <trkpt lat="44.39815" lon="6.69315">
        <ele>1175</ele>
        <time>2022-06-12T09:56:46Z</time>
      </trkpt>
      <trkpt lat="44.39821" lon="6.6932">
        <ele>1175</ele>
        <time>2022-06-12T09:56:47Z</time>
      </trkpt>
      <trkpt lat="44.39827" lon="6.69325">
        <ele>1175.1</ele>
        <time>2022-06-12T09:56:48Z</time>
      </trkpt>
      <trkpt lat="44.39833" lon="6.69329">
        <ele>1175.1</ele>
        <time>2022-06-12T09:56:49Z</time>
      </trkpt>
      <trkpt lat="44.39838" lon="6.69334">
        <ele>1175.1</ele>
        <time>2022-06-12T09:56:50Z</time>
      </trkpt>
      <trkpt lat="44.39844" lon="6.69339">
        <ele>1175.2</ele>
        <time>2022-06-12T09:56:51Z</time>
      </trkpt>
      <trkpt lat="44.3985" lon="6.69344">
        <ele>1175.2</ele>
        <time>2022-06-12T09:56:52Z</time>
      </trkpt>
      <trkpt lat="44.39856" lon="6.69349">
        <ele>1175.2</ele>
        <time>2022-06-12T09:56:53Z</time>
      </trkpt>
      <trkpt lat="44.39861" lon="6.69354">
        <ele>1175.3</ele>
        <time>2022-06-12T09:56:54Z</time>
      </trkpt>
      <trkpt lat="44.39867" lon="6.69358">
        <ele>1175.3</ele>
        <time>2022-06-12T09:56:55Z</time>
      </trkpt>
      <trkpt lat="44.39873" lon="6.69363">
        <ele>1175.4</ele>
        <time>2022-06-12T09:56:56Z</time>
      </trkpt>
      <trkpt lat="44.39879" lon="6.69368">
        <ele>1175.6</ele>
        <time>2022-06-12T09:56:57Z</time>
      </trkpt>
      <trkpt lat="44.39885" lon="6.69372">
        <ele>1175.8</ele>
        <time>2022-06-12T09:56:58Z</time>
      </trkpt>
      <trkpt lat="44.39891" lon="6.69377">
        <ele>1176.1</ele>
        <time>2022-06-12T09:56:59Z</time>
      </trkpt>
      <trkpt lat="44.39896" lon="6.69382">
        <ele>1176.3</ele>
        <time>2022-06-12T09:57:00Z</time>
      </trkpt>
      <trkpt lat="44.39902" lon="6.69386">
        <ele>1176.5</ele>
        <time>2022-06-12T09:57:01Z</time>
      </trkpt>
      <trkpt lat="44.39908" lon="6.69391">
        <ele>1176.6</ele>
        <time>2022-06-12T09:57:02Z</time>
      </trkpt>
      <trkpt lat="44.39913" lon="6.69396">
        <ele>1176.6</ele>
        <time>2022-06-12T09:57:03Z</time>
      </trkpt>
      <trkpt lat="44.39919" lon="6.69401">
        <ele>1176.6</ele>
        <time>2022-06-12T09:57:04Z</time>
      </trkpt>
      <trkpt lat="44.39924" lon="6.69407">
        <ele>1176.6</ele>
        <time>2022-06-12T09:57:05Z</time>
      </trkpt>
      <trkpt lat="44.39929" lon="6.69413">
        <ele>1176.6</ele>
        <time>2022-06-12T09:57:06Z</time>
      </trkpt>
      <trkpt lat="44.39934" lon="6.6942">
        <ele>1176.5</ele>
        <time>2022-06-12T09:57:07Z</time>
      </trkpt>
      <trkpt lat="44.39939" lon="6.69426">
        <ele>1176.5</ele>
        <time>2022-06-12T09:57:08Z</time>
      </trkpt>
      <trkpt lat="44.39944" lon="6.69433">
        <ele>1176.4</ele>
        <time>2022-06-12T09:57:09Z</time>
      </trkpt>
      <trkpt lat="44.39948" lon="6.69441">
        <ele>1176.4</ele>
        <time>2022-06-12T09:57:10Z</time>
      </trkpt>
      <trkpt lat="44.39952" lon="6.69448">
        <ele>1176.5</ele>
        <time>2022-06-12T09:57:11Z</time>
      </trkpt>
      <trkpt lat="44.39956" lon="6.69456">
        <ele>1176.6</ele>
        <time>2022-06-12T09:57:12Z</time>
      </trkpt>
      <trkpt lat="44.3996" lon="6.69464">
        <ele>1176.8</ele>
        <time>2022-06-12T09:57:13Z</time>
      </trkpt>
      <trkpt lat="44.39963" lon="6.69472">
        <ele>1177</ele>
        <time>2022-06-12T09:57:14Z</time>
      </trkpt>
      <trkpt lat="44.39966" lon="6.6948">
        <ele>1177.3</ele>
        <time>2022-06-12T09:57:15Z</time>
      </trkpt>
      <trkpt lat="44.39969" lon="6.69489">
        <ele>1177.7</ele>
        <time>2022-06-12T09:57:16Z</time>
      </trkpt>
      <trkpt lat="44.39973" lon="6.69497">
        <ele>1178</ele>
        <time>2022-06-12T09:57:17Z</time>
      </trkpt>
      <trkpt lat="44.39975" lon="6.69505">
        <ele>1178.1</ele>
        <time>2022-06-12T09:57:18Z</time>
      </trkpt>
      <trkpt lat="44.39978" lon="6.69514">
        <ele>1178</ele>
        <time>2022-06-12T09:57:19Z</time>
      </trkpt>
      <trkpt lat="44.39981" lon="6.69522">
        <ele>1178.1</ele>
        <time>2022-06-12T09:57:20Z</time>
      </trkpt>
      <trkpt lat="44.39984" lon="6.6953">
        <ele>1178.2</ele>
        <time>2022-06-12T09:57:21Z</time>
      </trkpt>
      <trkpt lat="44.39987" lon="6.69539">
        <ele>1178.4</ele>
        <time>2022-06-12T09:57:22Z</time>
      </trkpt>
      <trkpt lat="44.3999" lon="6.69547">
        <ele>1178.6</ele>
        <time>2022-06-12T09:57:23Z</time>
      </trkpt>
      <trkpt lat="44.39993" lon="6.69555">
        <ele>1178.9</ele>
        <time>2022-06-12T09:57:24Z</time>
      </trkpt>
      <trkpt lat="44.39996" lon="6.69563">
        <ele>1179.1</ele>
        <time>2022-06-12T09:57:25Z</time>
      </trkpt>
      <trkpt lat="44.39998" lon="6.69572">
        <ele>1179.2</ele>
        <time>2022-06-12T09:57:26Z</time>
      </trkpt>
      <trkpt lat="44.40001" lon="6.6958">
        <ele>1179.3</ele>
        <time>2022-06-12T09:57:27Z</time>
      </trkpt>
      <trkpt lat="44.40004" lon="6.69588">
        <ele>1179.3</ele>
        <time>2022-06-12T09:57:28Z</time>
      </trkpt>
      <trkpt lat="44.40007" lon="6.69596">
        <ele>1179.3</ele>
        <time>2022-06-12T09:57:29Z</time>
      </trkpt>
      <trkpt lat="44.4001" lon="6.69604">
        <ele>1179.3</ele>
        <time>2022-06-12T09:57:30Z</time>
      </trkpt>
      <trkpt lat="44.40013" lon="6.69612">
        <ele>1179.3</ele>
        <time>2022-06-12T09:57:31Z</time>
      </trkpt>
      <trkpt lat="44.40015" lon="6.6962">
        <ele>1179.4</ele>
        <time>2022-06-12T09:57:32Z</time>
      </trkpt>
      <trkpt lat="44.40018" lon="6.69628">
        <ele>1179.4</ele>
        <time>2022-06-12T09:57:33Z</time>
      </trkpt>
      <trkpt lat="44.40021" lon="6.69635">
        <ele>1179.4</ele>
        <time>2022-06-12T09:57:34Z</time>
      </trkpt>
      <trkpt lat="44.40024" lon="6.69643">
        <ele>1179.5</ele>
        <time>2022-06-12T09:57:35Z</time>
      </trkpt>
      <trkpt lat="44.40027" lon="6.69651">
        <ele>1179.8</ele>
        <time>2022-06-12T09:57:36Z</time>
      </trkpt>
      <trkpt lat="44.40029" lon="6.69659">
        <ele>1180.1</ele>
        <time>2022-06-12T09:57:37Z</time>
      </trkpt>
      <trkpt lat="44.40032" lon="6.69666">
        <ele>1180.3</ele>
        <time>2022-06-12T09:57:38Z</time>
      </trkpt>
      <trkpt lat="44.40035" lon="6.69674">
        <ele>1180.3</ele>
        <time>2022-06-12T09:57:39Z</time>
      </trkpt>
      <trkpt lat="44.40037" lon="6.69682">
        <ele>1180.3</ele>
        <time>2022-06-12T09:57:40Z</time>
      </trkpt>
      <trkpt lat="44.4004" lon="6.69689">
        <ele>1180.4</ele>
        <time>2022-06-12T09:57:41Z</time>
      </trkpt>
      <trkpt lat="44.40043" lon="6.69697">
        <ele>1180.5</ele>
        <time>2022-06-12T09:57:42Z</time>
      </trkpt>
      <trkpt lat="44.40046" lon="6.69705">
        <ele>1180.5</ele>
        <time>2022-06-12T09:57:43Z</time>
      </trkpt>
      <trkpt lat="44.40048" lon="6.69713">
        <ele>1180.5</ele>
        <time>2022-06-12T09:57:44Z</time>
      </trkpt>
      <trkpt lat="44.40051" lon="6.6972">
        <ele>1180.6</ele>
        <time>2022-06-12T09:57:45Z</time>
      </trkpt>
      <trkpt lat="44.40054" lon="6.69728">
        <ele>1180.6</ele>
        <time>2022-06-12T09:57:46Z</time>
      </trkpt>
      <trkpt lat="44.40057" lon="6.69736">
        <ele>1180.6</ele>
        <time>2022-06-12T09:57:47Z</time>
      </trkpt>
      <trkpt lat="44.40059" lon="6.69743">
        <ele>1180.6</ele>
        <time>2022-06-12T09:57:48Z</time>
      </trkpt>
      <trkpt lat="44.40062" lon="6.69751">
        <ele>1180.7</ele>
        <time>2022-06-12T09:57:49Z</time>
      </trkpt>
      <trkpt lat="44.40065" lon="6.69759">
        <ele>1180.7</ele>
        <time>2022-06-12T09:57:50Z</time>
      </trkpt>
      <trkpt lat="44.40067" lon="6.69767">
        <ele>1180.7</ele>
        <time>2022-06-12T09:57:51Z</time>
      </trkpt>
      <trkpt lat="44.4007" lon="6.69774">
        <ele>1180.7</ele>
        <time>2022-06-12T09:57:52Z</time>
      </trkpt>
      <trkpt lat="44.40073" lon="6.69782">
        <ele>1180.7</ele>
        <time>2022-06-12T09:57:53Z</time>
      </trkpt>
      <trkpt lat="44.40076" lon="6.6979">
        <ele>1180.7</ele>
        <time>2022-06-12T09:57:54Z</time>
      </trkpt>
      <trkpt lat="44.40078" lon="6.69797">
        <ele>1180.8</ele>
        <time>2022-06-12T09:57:55Z</time>
      </trkpt>
      <trkpt lat="44.40081" lon="6.69805">
        <ele>1180.7</ele>
        <time>2022-06-12T09:57:56Z</time>
      </trkpt>
      <trkpt lat="44.40083" lon="6.69813">
        <ele>1180.7</ele>
        <time>2022-06-12T09:57:57Z</time>
      </trkpt>
      <trkpt lat="44.40086" lon="6.6982">
        <ele>1180.7</ele>
        <time>2022-06-12T09:57:58Z</time>
      </trkpt>
      <trkpt lat="44.40089" lon="6.69828">
        <ele>1180.7</ele>
        <time>2022-06-12T09:57:59Z</time>
      </trkpt>
      <trkpt lat="44.40091" lon="6.69835">
        <ele>1180.8</ele>
        <time>2022-06-12T09:58:00Z</time>
      </trkpt>
      <trkpt lat="44.40094" lon="6.69843">
        <ele>1181</ele>
        <time>2022-06-12T09:58:01Z</time>
      </trkpt>
      <trkpt lat="44.40096" lon="6.6985">
        <ele>1181.1</ele>
        <time>2022-06-12T09:58:02Z</time>
      </trkpt>
      <trkpt lat="44.40098" lon="6.69858">
        <ele>1181.1</ele>
        <time>2022-06-12T09:58:03Z</time>
      </trkpt>
      <trkpt lat="44.40101" lon="6.69865">
        <ele>1181.2</ele>
        <time>2022-06-12T09:58:04Z</time>
      </trkpt>
      <trkpt lat="44.40103" lon="6.69873">
        <ele>1181.3</ele>
        <time>2022-06-12T09:58:05Z</time>
      </trkpt>
      <trkpt lat="44.40106" lon="6.69881">
        <ele>1181.5</ele>
        <time>2022-06-12T09:58:06Z</time>
      </trkpt>
      <trkpt lat="44.40108" lon="6.69888">
        <ele>1181.7</ele>
        <time>2022-06-12T09:58:07Z</time>
      </trkpt>
      <trkpt lat="44.40111" lon="6.69896">
        <ele>1182</ele>
        <time>2022-06-12T09:58:08Z</time>
      </trkpt>
      <trkpt lat="44.40114" lon="6.69903">
        <ele>1182.2</ele>
        <time>2022-06-12T09:58:09Z</time>
      </trkpt>
      <trkpt lat="44.40117" lon="6.69911">
        <ele>1182.4</ele>
        <time>2022-06-12T09:58:10Z</time>
      </trkpt>
      <trkpt lat="44.40119" lon="6.69918">
        <ele>1182.5</ele>
        <time>2022-06-12T09:58:11Z</time>
      </trkpt>
      <trkpt lat="44.40122" lon="6.69926">
        <ele>1182.4</ele>
        <time>2022-06-12T09:58:12Z</time>
      </trkpt>
      <trkpt lat="44.40124" lon="6.69934">
        <ele>1182.3</ele>
        <time>2022-06-12T09:58:13Z</time>
      </trkpt>
      <trkpt lat="44.40127" lon="6.69941">
        <ele>1182.2</ele>
        <time>2022-06-12T09:58:14Z</time>
      </trkpt>
      <trkpt lat="44.40129" lon="6.69949">
        <ele>1182.2</ele>
        <time>2022-06-12T09:58:15Z</time>
      </trkpt>
      <trkpt lat="44.40133" lon="6.6996">
        <ele>1182.4</ele>
        <time>2022-06-12T09:58:16Z</time>
      </trkpt>
      <trkpt lat="44.40134" lon="6.69964">
        <ele>1182.5</ele>
        <time>2022-06-12T09:58:17Z</time>
      </trkpt>
      <trkpt lat="44.40137" lon="6.69972">
        <ele>1182.8</ele>
        <time>2022-06-12T09:58:18Z</time>
      </trkpt>
      <trkpt lat="44.40139" lon="6.69979">
        <ele>1182.8</ele>
        <time>2022-06-12T09:58:19Z</time>
      </trkpt>
      <trkpt lat="44.40142" lon="6.69987">
        <ele>1182.8</ele>
        <time>2022-06-12T09:58:20Z</time>
      </trkpt>
      <trkpt lat="44.40145" lon="6.69994">
        <ele>1182.8</ele>
        <time>2022-06-12T09:58:21Z</time>
      </trkpt>
      <trkpt lat="44.40147" lon="6.70002">
        <ele>1182.8</ele>
        <time>2022-06-12T09:58:22Z</time>
      </trkpt>
      <trkpt lat="44.4015" lon="6.70009">
        <ele>1182.9</ele>
        <time>2022-06-12T09:58:23Z</time>
      </trkpt>
      <trkpt lat="44.40153" lon="6.70017">
        <ele>1182.9</ele>
        <time>2022-06-12T09:58:24Z</time>
      </trkpt>
      <trkpt lat="44.40155" lon="6.70024">
        <ele>1182.9</ele>
        <time>2022-06-12T09:58:25Z</time>
      </trkpt>
      <trkpt lat="44.40158" lon="6.70031">
        <ele>1183</ele>
        <time>2022-06-12T09:58:26Z</time>
      </trkpt>
      <trkpt lat="44.40161" lon="6.70039">
        <ele>1183.3</ele>
        <time>2022-06-12T09:58:27Z</time>
      </trkpt>
      <trkpt lat="44.40163" lon="6.70046">
        <ele>1183.6</ele>
        <time>2022-06-12T09:58:28Z</time>
      </trkpt>
      <trkpt lat="44.40166" lon="6.70053">
        <ele>1183.9</ele>
        <time>2022-06-12T09:58:29Z</time>
      </trkpt>
      <trkpt lat="44.40169" lon="6.70061">
        <ele>1184</ele>
        <time>2022-06-12T09:58:30Z</time>
      </trkpt>
      <trkpt lat="44.40172" lon="6.70068">
        <ele>1183.9</ele>
        <time>2022-06-12T09:58:31Z</time>
      </trkpt>
      <trkpt lat="44.40174" lon="6.70076">
        <ele>1183.8</ele>
        <time>2022-06-12T09:58:32Z</time>
      </trkpt>
      <trkpt lat="44.40177" lon="6.70083">
        <ele>1183.8</ele>
        <time>2022-06-12T09:58:33Z</time>
      </trkpt>
      <trkpt lat="44.40181" lon="6.7009">
        <ele>1183.8</ele>
        <time>2022-06-12T09:58:34Z</time>
      </trkpt>
      <trkpt lat="44.40184" lon="6.70097">
        <ele>1183.8</ele>
        <time>2022-06-12T09:58:35Z</time>
      </trkpt>
      <trkpt lat="44.40188" lon="6.70103">
        <ele>1183.8</ele>
        <time>2022-06-12T09:58:36Z</time>
      </trkpt>
      <trkpt lat="44.40192" lon="6.70109">
        <ele>1183.9</ele>
        <time>2022-06-12T09:58:37Z</time>
      </trkpt>
      <trkpt lat="44.40196" lon="6.70115">
        <ele>1183.9</ele>
        <time>2022-06-12T09:58:38Z</time>
      </trkpt>
      <trkpt lat="44.402" lon="6.70122">
        <ele>1184</ele>
        <time>2022-06-12T09:58:39Z</time>
      </trkpt>
      <trkpt lat="44.40205" lon="6.70127">
        <ele>1183.9</ele>
        <time>2022-06-12T09:58:40Z</time>
      </trkpt>
      <trkpt lat="44.4021" lon="6.70133">
        <ele>1183.9</ele>
        <time>2022-06-12T09:58:41Z</time>
      </trkpt>
      <trkpt lat="44.40215" lon="6.70138">
        <ele>1183.8</ele>
        <time>2022-06-12T09:58:42Z</time>
      </trkpt>
      <trkpt lat="44.40221" lon="6.70142">
        <ele>1183.7</ele>
        <time>2022-06-12T09:58:43Z</time>
      </trkpt>
      <trkpt lat="44.40227" lon="6.70146">
        <ele>1183.7</ele>
        <time>2022-06-12T09:58:44Z</time>
      </trkpt>
      <trkpt lat="44.40233" lon="6.70149">
        <ele>1183.7</ele>
        <time>2022-06-12T09:58:45Z</time>
      </trkpt>
      <trkpt lat="44.40239" lon="6.70151">
        <ele>1183.7</ele>
        <time>2022-06-12T09:58:46Z</time>
      </trkpt>
      <trkpt lat="44.40246" lon="6.70154">
        <ele>1183.8</ele>
        <time>2022-06-12T09:58:47Z</time>
      </trkpt>
      <trkpt lat="44.40253" lon="6.70157">
        <ele>1183.8</ele>
        <time>2022-06-12T09:58:48Z</time>
      </trkpt>
      <trkpt lat="44.40259" lon="6.70159">
        <ele>1183.9</ele>
        <time>2022-06-12T09:58:49Z</time>
      </trkpt>
      <trkpt lat="44.40266" lon="6.70162">
        <ele>1183.9</ele>
        <time>2022-06-12T09:58:50Z</time>
      </trkpt>
      <trkpt lat="44.40272" lon="6.70165">
        <ele>1183.9</ele>
        <time>2022-06-12T09:58:51Z</time>
      </trkpt>
      <trkpt lat="44.40279" lon="6.70167">
        <ele>1184</ele>
        <time>2022-06-12T09:58:52Z</time>
      </trkpt>
      <trkpt lat="44.40285" lon="6.7017">
        <ele>1183.8</ele>
        <time>2022-06-12T09:58:53Z</time>
      </trkpt>
      <trkpt lat="44.40292" lon="6.70172">
        <ele>1183.6</ele>
        <time>2022-06-12T09:58:54Z</time>
      </trkpt>
      <trkpt lat="44.40298" lon="6.70175">
        <ele>1183.4</ele>
        <time>2022-06-12T09:58:55Z</time>
      </trkpt>
      <trkpt lat="44.40305" lon="6.70177">
        <ele>1183.2</ele>
        <time>2022-06-12T09:58:56Z</time>
      </trkpt>
      <trkpt lat="44.40311" lon="6.7018">
        <ele>1183.2</ele>
        <time>2022-06-12T09:58:57Z</time>
      </trkpt>
      <trkpt lat="44.40317" lon="6.70182">
        <ele>1183.1</ele>
        <time>2022-06-12T09:58:58Z</time>
      </trkpt>
      <trkpt lat="44.40324" lon="6.70185">
        <ele>1183.1</ele>
        <time>2022-06-12T09:58:59Z</time>
      </trkpt>
      <trkpt lat="44.4033" lon="6.70187">
        <ele>1183.2</ele>
        <time>2022-06-12T09:59:00Z</time>
      </trkpt>
      <trkpt lat="44.40336" lon="6.70189">
        <ele>1183.2</ele>
        <time>2022-06-12T09:59:01Z</time>
      </trkpt>
      <trkpt lat="44.40343" lon="6.70192">
        <ele>1183.1</ele>
        <time>2022-06-12T09:59:02Z</time>
      </trkpt>
      <trkpt lat="44.40349" lon="6.70196">
        <ele>1183</ele>
        <time>2022-06-12T09:59:03Z</time>
      </trkpt>
      <trkpt lat="44.40355" lon="6.70199">
        <ele>1182.8</ele>
        <time>2022-06-12T09:59:04Z</time>
      </trkpt>
      <trkpt lat="44.4036" lon="6.70204">
        <ele>1182.7</ele>
        <time>2022-06-12T09:59:05Z</time>
      </trkpt>
      <trkpt lat="44.40366" lon="6.70208">
        <ele>1182.7</ele>
        <time>2022-06-12T09:59:06Z</time>
      </trkpt>
      <trkpt lat="44.40371" lon="6.70214">
        <ele>1182.7</ele>
        <time>2022-06-12T09:59:07Z</time>
      </trkpt>
      <trkpt lat="44.40376" lon="6.7022">
        <ele>1182.6</ele>
        <time>2022-06-12T09:59:08Z</time>
      </trkpt>
      <trkpt lat="44.40381" lon="6.70226">
        <ele>1182.6</ele>
        <time>2022-06-12T09:59:09Z</time>
      </trkpt>
      <trkpt lat="44.40385" lon="6.70233">
        <ele>1182.5</ele>
        <time>2022-06-12T09:59:10Z</time>
      </trkpt>
      <trkpt lat="44.40389" lon="6.7024">
        <ele>1182.4</ele>
        <time>2022-06-12T09:59:11Z</time>
      </trkpt>
      <trkpt lat="44.40393" lon="6.70248">
        <ele>1182.4</ele>
        <time>2022-06-12T09:59:12Z</time>
      </trkpt>
      <trkpt lat="44.40396" lon="6.70255">
        <ele>1182.3</ele>
        <time>2022-06-12T09:59:13Z</time>
      </trkpt>
      <trkpt lat="44.40399" lon="6.70263">
        <ele>1182.2</ele>
        <time>2022-06-12T09:59:14Z</time>
      </trkpt>
      <trkpt lat="44.40402" lon="6.70271">
        <ele>1182.1</ele>
        <time>2022-06-12T09:59:15Z</time>
      </trkpt>
      <trkpt lat="44.40404" lon="6.7028">
        <ele>1182</ele>
        <time>2022-06-12T09:59:16Z</time>
      </trkpt>
      <trkpt lat="44.40406" lon="6.70288">
        <ele>1181.9</ele>
        <time>2022-06-12T09:59:17Z</time>
      </trkpt>
      <trkpt lat="44.40408" lon="6.70297">
        <ele>1181.7</ele>
        <time>2022-06-12T09:59:18Z</time>
      </trkpt>
      <trkpt lat="44.40411" lon="6.70305">
        <ele>1181.6</ele>
        <time>2022-06-12T09:59:19Z</time>
      </trkpt>
      <trkpt lat="44.40413" lon="6.70314">
        <ele>1181.4</ele>
        <time>2022-06-12T09:59:20Z</time>
      </trkpt>
      <trkpt lat="44.40415" lon="6.70323">
        <ele>1181.3</ele>
        <time>2022-06-12T09:59:21Z</time>
      </trkpt>
      <trkpt lat="44.40418" lon="6.70331">
        <ele>1181.1</ele>
        <time>2022-06-12T09:59:22Z</time>
      </trkpt>
      <trkpt lat="44.4042" lon="6.7034">
        <ele>1180.9</ele>
        <time>2022-06-12T09:59:23Z</time>
      </trkpt>
      <trkpt lat="44.40422" lon="6.70349">
        <ele>1180.7</ele>
        <time>2022-06-12T09:59:24Z</time>
      </trkpt>
      <trkpt lat="44.40424" lon="6.70358">
        <ele>1180.4</ele>
        <time>2022-06-12T09:59:25Z</time>
      </trkpt>
      <trkpt lat="44.40427" lon="6.70367">
        <ele>1180.2</ele>
        <time>2022-06-12T09:59:26Z</time>
      </trkpt>
      <trkpt lat="44.40429" lon="6.70375">
        <ele>1179.9</ele>
        <time>2022-06-12T09:59:27Z</time>
      </trkpt>
      <trkpt lat="44.40432" lon="6.70384">
        <ele>1179.7</ele>
        <time>2022-06-12T09:59:28Z</time>
      </trkpt>
      <trkpt lat="44.40434" lon="6.70393">
        <ele>1179.5</ele>
        <time>2022-06-12T09:59:29Z</time>
      </trkpt>
      <trkpt lat="44.40436" lon="6.70402">
        <ele>1179.2</ele>
        <time>2022-06-12T09:59:30Z</time>
      </trkpt>
      <trkpt lat="44.40439" lon="6.70411">
        <ele>1179</ele>
        <time>2022-06-12T09:59:31Z</time>
      </trkpt>
      <trkpt lat="44.40441" lon="6.70419">
        <ele>1178.8</ele>
        <time>2022-06-12T09:59:32Z</time>
      </trkpt>
      <trkpt lat="44.40444" lon="6.70428">
        <ele>1178.6</ele>
        <time>2022-06-12T09:59:33Z</time>
      </trkpt>
      <trkpt lat="44.40446" lon="6.70437">
        <ele>1178.3</ele>
        <time>2022-06-12T09:59:34Z</time>
      </trkpt>
      <trkpt lat="44.40448" lon="6.70446">
        <ele>1178.1</ele>
        <time>2022-06-12T09:59:35Z</time>
      </trkpt>
      <trkpt lat="44.4045" lon="6.70455">
        <ele>1178.2</ele>
        <time>2022-06-12T09:59:36Z</time>
      </trkpt>
      <trkpt lat="44.40452" lon="6.70464">
        <ele>1178.3</ele>
        <time>2022-06-12T09:59:37Z</time>
      </trkpt>
      <trkpt lat="44.40455" lon="6.70472">
        <ele>1178.4</ele>
        <time>2022-06-12T09:59:38Z</time>
      </trkpt>
      <trkpt lat="44.40457" lon="6.70481">
        <ele>1178.4</ele>
        <time>2022-06-12T09:59:39Z</time>
      </trkpt>
      <trkpt lat="44.40459" lon="6.7049">
        <ele>1178.5</ele>
        <time>2022-06-12T09:59:40Z</time>
      </trkpt>
      <trkpt lat="44.40461" lon="6.70499">
        <ele>1178.6</ele>
        <time>2022-06-12T09:59:41Z</time>
      </trkpt>
      <trkpt lat="44.40463" lon="6.70507">
        <ele>1178.7</ele>
        <time>2022-06-12T09:59:42Z</time>
      </trkpt>
      <trkpt lat="44.40466" lon="6.70516">
        <ele>1178.8</ele>
        <time>2022-06-12T09:59:43Z</time>
      </trkpt>
      <trkpt lat="44.40468" lon="6.70524">
        <ele>1178.8</ele>
        <time>2022-06-12T09:59:44Z</time>
      </trkpt>
      <trkpt lat="44.4047" lon="6.70532">
        <ele>1178.9</ele>
        <time>2022-06-12T09:59:45Z</time>
      </trkpt>
      <trkpt lat="44.40472" lon="6.7054">
        <ele>1179</ele>
        <time>2022-06-12T09:59:46Z</time>
      </trkpt>
      <trkpt lat="44.40473" lon="6.70548">
        <ele>1179</ele>
        <time>2022-06-12T09:59:47Z</time>
      </trkpt>
      <trkpt lat="44.40475" lon="6.70557">
        <ele>1179.1</ele>
        <time>2022-06-12T09:59:48Z</time>
      </trkpt>
      <trkpt lat="44.40477" lon="6.70565">
        <ele>1179.2</ele>
        <time>2022-06-12T09:59:49Z</time>
      </trkpt>
      <trkpt lat="44.40478" lon="6.70574">
        <ele>1179.2</ele>
        <time>2022-06-12T09:59:50Z</time>
      </trkpt>
      <trkpt lat="44.40479" lon="6.70583">
        <ele>1179.2</ele>
        <time>2022-06-12T09:59:51Z</time>
      </trkpt>
      <trkpt lat="44.4048" lon="6.70592">
        <ele>1179.3</ele>
        <time>2022-06-12T09:59:52Z</time>
      </trkpt>
      <trkpt lat="44.4048" lon="6.70602">
        <ele>1179.3</ele>
        <time>2022-06-12T09:59:53Z</time>
      </trkpt>
      <trkpt lat="44.4048" lon="6.70611">
        <ele>1179.3</ele>
        <time>2022-06-12T09:59:54Z</time>
      </trkpt>
      <trkpt lat="44.4048" lon="6.70621">
        <ele>1179.3</ele>
        <time>2022-06-12T09:59:55Z</time>
      </trkpt>
      <trkpt lat="44.4048" lon="6.7063">
        <ele>1179.3</ele>
        <time>2022-06-12T09:59:56Z</time>
      </trkpt>
      <trkpt lat="44.4048" lon="6.70639">
        <ele>1179.3</ele>
        <time>2022-06-12T09:59:57Z</time>
      </trkpt>
      <trkpt lat="44.4048" lon="6.70649">
        <ele>1179.6</ele>
        <time>2022-06-12T09:59:58Z</time>
      </trkpt>
      <trkpt lat="44.4048" lon="6.70658">
        <ele>1180</ele>
        <time>2022-06-12T09:59:59Z</time>
      </trkpt>
      <trkpt lat="44.4048" lon="6.70667">
        <ele>1180.3</ele>
        <time>2022-06-12T10:00:00Z</time>
      </trkpt>
      <trkpt lat="44.40481" lon="6.70676">
        <ele>1180.3</ele>
        <time>2022-06-12T10:00:01Z</time>
      </trkpt>
      <trkpt lat="44.40481" lon="6.70685">
        <ele>1180.3</ele>
        <time>2022-06-12T10:00:02Z</time>
      </trkpt>
      <trkpt lat="44.40481" lon="6.70694">
        <ele>1180.3</ele>
        <time>2022-06-12T10:00:03Z</time>
      </trkpt>
      <trkpt lat="44.40481" lon="6.70703">
        <ele>1180.3</ele>
        <time>2022-06-12T10:00:04Z</time>
      </trkpt>
      <trkpt lat="44.40481" lon="6.70711">
        <ele>1180.3</ele>
        <time>2022-06-12T10:00:05Z</time>
      </trkpt>
      <trkpt lat="44.40481" lon="6.7072">
        <ele>1180.3</ele>
        <time>2022-06-12T10:00:06Z</time>
      </trkpt>
      <trkpt lat="44.40481" lon="6.70729">
        <ele>1180.6</ele>
        <time>2022-06-12T10:00:07Z</time>
      </trkpt>
      <trkpt lat="44.40481" lon="6.70738">
        <ele>1180.9</ele>
        <time>2022-06-12T10:00:08Z</time>
      </trkpt>
      <trkpt lat="44.40481" lon="6.70747">
        <ele>1181.2</ele>
        <time>2022-06-12T10:00:09Z</time>
      </trkpt>
      <trkpt lat="44.40481" lon="6.70756">
        <ele>1181.5</ele>
        <time>2022-06-12T10:00:10Z</time>
      </trkpt>
      <trkpt lat="44.40482" lon="6.70765">
        <ele>1181.9</ele>
        <time>2022-06-12T10:00:11Z</time>
      </trkpt>
      <trkpt lat="44.40482" lon="6.70773">
        <ele>1182.2</ele>
        <time>2022-06-12T10:00:12Z</time>
      </trkpt>
      <trkpt lat="44.40481" lon="6.70782">
        <ele>1182.4</ele>
        <time>2022-06-12T10:00:13Z</time>
      </trkpt>
      <trkpt lat="44.40481" lon="6.7079">
        <ele>1182.5</ele>
        <time>2022-06-12T10:00:14Z</time>
      </trkpt>
      <trkpt lat="44.40481" lon="6.70799">
        <ele>1182.6</ele>
        <time>2022-06-12T10:00:15Z</time>
      </trkpt>
      <trkpt lat="44.40482" lon="6.70808">
        <ele>1182.7</ele>
        <time>2022-06-12T10:00:16Z</time>
      </trkpt>
      <trkpt lat="44.40482" lon="6.70816">
        <ele>1183.1</ele>
        <time>2022-06-12T10:00:17Z</time>
      </trkpt>
      <trkpt lat="44.40482" lon="6.70825">
        <ele>1183.4</ele>
        <time>2022-06-12T10:00:18Z</time>
      </trkpt>
      <trkpt lat="44.40482" lon="6.70833">
        <ele>1183.7</ele>
        <time>2022-06-12T10:00:19Z</time>
      </trkpt>
      <trkpt lat="44.40482" lon="6.70841">
        <ele>1183.9</ele>
        <time>2022-06-12T10:00:20Z</time>
      </trkpt>
      <trkpt lat="44.40481" lon="6.70849">
        <ele>1184.2</ele>
        <time>2022-06-12T10:00:21Z</time>
      </trkpt>
      <trkpt lat="44.40481" lon="6.70857">
        <ele>1184.5</ele>
        <time>2022-06-12T10:00:22Z</time>
      </trkpt>
      <trkpt lat="44.40482" lon="6.70865">
        <ele>1184.8</ele>
        <time>2022-06-12T10:00:23Z</time>
      </trkpt>
      <trkpt lat="44.40482" lon="6.70873">
        <ele>1184.9</ele>
        <time>2022-06-12T10:00:24Z</time>
      </trkpt>
      <trkpt lat="44.40481" lon="6.70881">
        <ele>1185.1</ele>
        <time>2022-06-12T10:00:25Z</time>
      </trkpt>
      <trkpt lat="44.40482" lon="6.70889">
        <ele>1185.3</ele>
        <time>2022-06-12T10:00:26Z</time>
      </trkpt>
      <trkpt lat="44.40482" lon="6.70896">
        <ele>1185.4</ele>
        <time>2022-06-12T10:00:27Z</time>
      </trkpt>
      <trkpt lat="44.40482" lon="6.70904">
        <ele>1185.5</ele>
        <time>2022-06-12T10:00:28Z</time>
      </trkpt>
      <trkpt lat="44.40482" lon="6.70911">
        <ele>1185.6</ele>
        <time>2022-06-12T10:00:29Z</time>
      </trkpt>
      <trkpt lat="44.40482" lon="6.70918">
        <ele>1185.7</ele>
        <time>2022-06-12T10:00:30Z</time>
      </trkpt>
      <trkpt lat="44.40481" lon="6.70925">
        <ele>1186</ele>
        <time>2022-06-12T10:00:31Z</time>
      </trkpt>
      <trkpt lat="44.40481" lon="6.70932">
        <ele>1186.2</ele>
        <time>2022-06-12T10:00:32Z</time>
      </trkpt>
      <trkpt lat="44.40481" lon="6.70939">
        <ele>1186.4</ele>
        <time>2022-06-12T10:00:33Z</time>
      </trkpt>
      <trkpt lat="44.40481" lon="6.70945">
        <ele>1186.6</ele>
        <time>2022-06-12T10:00:34Z</time>
      </trkpt>
      <trkpt lat="44.4048" lon="6.70953">
        <ele>1186.8</ele>
        <time>2022-06-12T10:00:35Z</time>
      </trkpt>
      <trkpt lat="44.4048" lon="6.7096">
        <ele>1187</ele>
        <time>2022-06-12T10:00:36Z</time>
      </trkpt>
      <trkpt lat="44.40481" lon="6.70966">
        <ele>1187.1</ele>
        <time>2022-06-12T10:00:37Z</time>
      </trkpt>
      <trkpt lat="44.40481" lon="6.70973">
        <ele>1187.3</ele>
        <time>2022-06-12T10:00:38Z</time>
      </trkpt>
      <trkpt lat="44.40481" lon="6.7098">
        <ele>1187.4</ele>
        <time>2022-06-12T10:00:39Z</time>
      </trkpt>
      <trkpt lat="44.40481" lon="6.70987">
        <ele>1187.5</ele>
        <time>2022-06-12T10:00:40Z</time>
      </trkpt>
      <trkpt lat="44.40481" lon="6.70993">
        <ele>1187.5</ele>
        <time>2022-06-12T10:00:41Z</time>
      </trkpt>
      <trkpt lat="44.40481" lon="6.71">
        <ele>1187.6</ele>
        <time>2022-06-12T10:00:42Z</time>
      </trkpt>
      <trkpt lat="44.40481" lon="6.71007">
        <ele>1187.6</ele>
        <time>2022-06-12T10:00:43Z</time>
      </trkpt>
      <trkpt lat="44.40481" lon="6.71013">
        <ele>1187.6</ele>
        <time>2022-06-12T10:00:44Z</time>
      </trkpt>
      <trkpt lat="44.40481" lon="6.7102">
        <ele>1187.6</ele>
        <time>2022-06-12T10:00:45Z</time>
      </trkpt>
      <trkpt lat="44.40481" lon="6.71027">
        <ele>1187.6</ele>
        <time>2022-06-12T10:00:46Z</time>
      </trkpt>
      <trkpt lat="44.40481" lon="6.71033">
        <ele>1187.8</ele>
        <time>2022-06-12T10:00:47Z</time>
      </trkpt>
      <trkpt lat="44.40481" lon="6.7104">
        <ele>1188.1</ele>
        <time>2022-06-12T10:00:48Z</time>
      </trkpt>
      <trkpt lat="44.40481" lon="6.71047">
        <ele>1188.3</ele>
        <time>2022-06-12T10:00:49Z</time>
      </trkpt>
      <trkpt lat="44.40481" lon="6.71053">
        <ele>1188.5</ele>
        <time>2022-06-12T10:00:50Z</time>
      </trkpt>
      <trkpt lat="44.40481" lon="6.71059">
        <ele>1188.6</ele>
        <time>2022-06-12T10:00:51Z</time>
      </trkpt>
      <trkpt lat="44.40481" lon="6.71066">
        <ele>1188.6</ele>
        <time>2022-06-12T10:00:52Z</time>
      </trkpt>
      <trkpt lat="44.40481" lon="6.71072">
        <ele>1188.6</ele>
        <time>2022-06-12T10:00:53Z</time>
      </trkpt>
      <trkpt lat="44.40481" lon="6.71079">
        <ele>1188.6</ele>
        <time>2022-06-12T10:00:54Z</time>
      </trkpt>
      <trkpt lat="44.40481" lon="6.71085">
        <ele>1188.7</ele>
        <time>2022-06-12T10:00:55Z</time>
      </trkpt>
      <trkpt lat="44.40481" lon="6.71092">
        <ele>1188.9</ele>
        <time>2022-06-12T10:00:56Z</time>
      </trkpt>
      <trkpt lat="44.40481" lon="6.71098">
        <ele>1189.2</ele>
        <time>2022-06-12T10:00:57Z</time>
      </trkpt>
      <trkpt lat="44.40481" lon="6.71104">
        <ele>1189.4</ele>
        <time>2022-06-12T10:00:58Z</time>
      </trkpt>
      <trkpt lat="44.40481" lon="6.7111">
        <ele>1189.6</ele>
        <time>2022-06-12T10:00:59Z</time>
      </trkpt>
      <trkpt lat="44.40482" lon="6.71117">
        <ele>1189.7</ele>
        <time>2022-06-12T10:01:00Z</time>
      </trkpt>
      <trkpt lat="44.40482" lon="6.71123">
        <ele>1189.8</ele>
        <time>2022-06-12T10:01:01Z</time>
      </trkpt>
      <trkpt lat="44.40482" lon="6.71129">
        <ele>1189.9</ele>
        <time>2022-06-12T10:01:02Z</time>
      </trkpt>
      <trkpt lat="44.40482" lon="6.71136">
        <ele>1190</ele>
        <time>2022-06-12T10:01:03Z</time>
      </trkpt>
      <trkpt lat="44.40483" lon="6.71142">
        <ele>1190.2</ele>
        <time>2022-06-12T10:01:04Z</time>
      </trkpt>
      <trkpt lat="44.40483" lon="6.71148">
        <ele>1190.4</ele>
        <time>2022-06-12T10:01:05Z</time>
      </trkpt>
      <trkpt lat="44.40484" lon="6.71154">
        <ele>1190.5</ele>
        <time>2022-06-12T10:01:06Z</time>
      </trkpt>
      <trkpt lat="44.40484" lon="6.7116">
        <ele>1190.7</ele>
        <time>2022-06-12T10:01:07Z</time>
      </trkpt>
      <trkpt lat="44.40485" lon="6.71166">
        <ele>1190.9</ele>
        <time>2022-06-12T10:01:08Z</time>
      </trkpt>
      <trkpt lat="44.40486" lon="6.71172">
        <ele>1191.2</ele>
        <time>2022-06-12T10:01:09Z</time>
      </trkpt>
      <trkpt lat="44.40487" lon="6.71178">
        <ele>1191.4</ele>
        <time>2022-06-12T10:01:10Z</time>
      </trkpt>
      <trkpt lat="44.40488" lon="6.71184">
        <ele>1191.7</ele>
        <time>2022-06-12T10:01:11Z</time>
      </trkpt>
      <trkpt lat="44.40489" lon="6.7119">
        <ele>1192</ele>
        <time>2022-06-12T10:01:12Z</time>
      </trkpt>
      <trkpt lat="44.4049" lon="6.71196">
        <ele>1192.3</ele>
        <time>2022-06-12T10:01:13Z</time>
      </trkpt>
      <trkpt lat="44.40491" lon="6.71203">
        <ele>1192.3</ele>
        <time>2022-06-12T10:01:14Z</time>
      </trkpt>
      <trkpt lat="44.40492" lon="6.71209">
        <ele>1192.4</ele>
        <time>2022-06-12T10:01:15Z</time>
      </trkpt>
      <trkpt lat="44.40493" lon="6.71215">
        <ele>1192.5</ele>
        <time>2022-06-12T10:01:16Z</time>
      </trkpt>
      <trkpt lat="44.40494" lon="6.71221">
        <ele>1192.5</ele>
        <time>2022-06-12T10:01:17Z</time>
      </trkpt>
      <trkpt lat="44.40495" lon="6.71228">
        <ele>1192.8</ele>
        <time>2022-06-12T10:01:18Z</time>
      </trkpt>
      <trkpt lat="44.40496" lon="6.71234">
        <ele>1193.1</ele>
        <time>2022-06-12T10:01:19Z</time>
      </trkpt>
      <trkpt lat="44.40497" lon="6.7124">
        <ele>1193.4</ele>
        <time>2022-06-12T10:01:20Z</time>
      </trkpt>
      <trkpt lat="44.40498" lon="6.71246">
        <ele>1193.7</ele>
        <time>2022-06-12T10:01:21Z</time>
      </trkpt>
      <trkpt lat="44.40499" lon="6.71252">
        <ele>1193.9</ele>
        <time>2022-06-12T10:01:22Z</time>
      </trkpt>
      <trkpt lat="44.405" lon="6.71258">
        <ele>1194</ele>
        <time>2022-06-12T10:01:23Z</time>
      </trkpt>
      <trkpt lat="44.40501" lon="6.71264">
        <ele>1194</ele>
        <time>2022-06-12T10:01:24Z</time>
      </trkpt>
      <trkpt lat="44.40502" lon="6.7127">
        <ele>1194.1</ele>
        <time>2022-06-12T10:01:25Z</time>
      </trkpt>
      <trkpt lat="44.40503" lon="6.71276">
        <ele>1194.2</ele>
        <time>2022-06-12T10:01:26Z</time>
      </trkpt>
      <trkpt lat="44.40504" lon="6.71282">
        <ele>1194.4</ele>
        <time>2022-06-12T10:01:27Z</time>
      </trkpt>
      <trkpt lat="44.40505" lon="6.71288">
        <ele>1194.7</ele>
        <time>2022-06-12T10:01:28Z</time>
      </trkpt>
      <trkpt lat="44.40506" lon="6.71294">
        <ele>1195</ele>
        <time>2022-06-12T10:01:29Z</time>
      </trkpt>
      <trkpt lat="44.40507" lon="6.713">
        <ele>1195.3</ele>
        <time>2022-06-12T10:01:30Z</time>
      </trkpt>
      <trkpt lat="44.40508" lon="6.71306">
        <ele>1195.6</ele>
        <time>2022-06-12T10:01:31Z</time>
      </trkpt>
      <trkpt lat="44.40509" lon="6.71312">
        <ele>1195.6</ele>
        <time>2022-06-12T10:01:32Z</time>
      </trkpt>
      <trkpt lat="44.4051" lon="6.71318">
        <ele>1195.7</ele>
        <time>2022-06-12T10:01:33Z</time>
      </trkpt>
      <trkpt lat="44.40511" lon="6.71324">
        <ele>1195.8</ele>
        <time>2022-06-12T10:01:34Z</time>
      </trkpt>
      <trkpt lat="44.40512" lon="6.7133">
        <ele>1195.8</ele>
        <time>2022-06-12T10:01:35Z</time>
      </trkpt>
      <trkpt lat="44.40513" lon="6.71336">
        <ele>1196</ele>
        <time>2022-06-12T10:01:36Z</time>
      </trkpt>
      <trkpt lat="44.40513" lon="6.71342">
        <ele>1196.3</ele>
        <time>2022-06-12T10:01:37Z</time>
      </trkpt>
      <trkpt lat="44.40514" lon="6.71348">
        <ele>1196.5</ele>
        <time>2022-06-12T10:01:38Z</time>
      </trkpt>
      <trkpt lat="44.40515" lon="6.71353">
        <ele>1196.8</ele>
        <time>2022-06-12T10:01:39Z</time>
      </trkpt>
      <trkpt lat="44.40516" lon="6.71359">
        <ele>1197.1</ele>
        <time>2022-06-12T10:01:40Z</time>
      </trkpt>
      <trkpt lat="44.40517" lon="6.71365">
        <ele>1197.2</ele>
        <time>2022-06-12T10:01:41Z</time>
      </trkpt>
      <trkpt lat="44.40518" lon="6.71371">
        <ele>1197.3</ele>
        <time>2022-06-12T10:01:42Z</time>
      </trkpt>
      <trkpt lat="44.40519" lon="6.71377">
        <ele>1197.4</ele>
        <time>2022-06-12T10:01:43Z</time>
      </trkpt>
      <trkpt lat="44.4052" lon="6.71383">
        <ele>1197.4</ele>
        <time>2022-06-12T10:01:44Z</time>
      </trkpt>
      <trkpt lat="44.40521" lon="6.71389">
        <ele>1197.5</ele>
        <time>2022-06-12T10:01:45Z</time>
      </trkpt>
      <trkpt lat="44.40522" lon="6.71395">
        <ele>1197.6</ele>
        <time>2022-06-12T10:01:46Z</time>
      </trkpt>
      <trkpt lat="44.40523" lon="6.71401">
        <ele>1197.6</ele>
        <time>2022-06-12T10:01:47Z</time>
      </trkpt>
      <trkpt lat="44.40524" lon="6.71407">
        <ele>1197.7</ele>
        <time>2022-06-12T10:01:48Z</time>
      </trkpt>
      <trkpt lat="44.40525" lon="6.71413">
        <ele>1197.8</ele>
        <time>2022-06-12T10:01:49Z</time>
      </trkpt>
      <trkpt lat="44.40526" lon="6.71419">
        <ele>1197.8</ele>
        <time>2022-06-12T10:01:50Z</time>
      </trkpt>
      <trkpt lat="44.40527" lon="6.71425">
        <ele>1197.9</ele>
        <time>2022-06-12T10:01:51Z</time>
      </trkpt>
      <trkpt lat="44.40528" lon="6.71431">
        <ele>1198</ele>
        <time>2022-06-12T10:01:52Z</time>
      </trkpt>
      <trkpt lat="44.40529" lon="6.71436">
        <ele>1198.1</ele>
        <time>2022-06-12T10:01:53Z</time>
      </trkpt>
      <trkpt lat="44.4053" lon="6.71442">
        <ele>1198.1</ele>
        <time>2022-06-12T10:01:54Z</time>
      </trkpt>
      <trkpt lat="44.40531" lon="6.71448">
        <ele>1198.2</ele>
        <time>2022-06-12T10:01:55Z</time>
      </trkpt>
      <trkpt lat="44.40532" lon="6.71453">
        <ele>1198.3</ele>
        <time>2022-06-12T10:01:56Z</time>
      </trkpt>
      <trkpt lat="44.40532" lon="6.71459">
        <ele>1198.3</ele>
        <time>2022-06-12T10:01:57Z</time>
      </trkpt>
      <trkpt lat="44.40533" lon="6.71465">
        <ele>1198.4</ele>
        <time>2022-06-12T10:01:58Z</time>
      </trkpt>
      <trkpt lat="44.40534" lon="6.71471">
        <ele>1198.4</ele>
        <time>2022-06-12T10:01:59Z</time>
      </trkpt>
      <trkpt lat="44.40535" lon="6.71476">
        <ele>1198.5</ele>
        <time>2022-06-12T10:02:00Z</time>
      </trkpt>
      <trkpt lat="44.40536" lon="6.71482">
        <ele>1198.6</ele>
        <time>2022-06-12T10:02:01Z</time>
      </trkpt>
      <trkpt lat="44.40537" lon="6.71487">
        <ele>1198.6</ele>
        <time>2022-06-12T10:02:02Z</time>
      </trkpt>
      <trkpt lat="44.40537" lon="6.71493">
        <ele>1198.7</ele>
        <time>2022-06-12T10:02:03Z</time>
      </trkpt>
      <trkpt lat="44.40538" lon="6.71499">
        <ele>1198.7</ele>
        <time>2022-06-12T10:02:04Z</time>
      </trkpt>
      <trkpt lat="44.40539" lon="6.71504">
        <ele>1198.9</ele>
        <time>2022-06-12T10:02:05Z</time>
      </trkpt>
      <trkpt lat="44.4054" lon="6.7151">
        <ele>1199</ele>
        <time>2022-06-12T10:02:06Z</time>
      </trkpt>
      <trkpt lat="44.40541" lon="6.71516">
        <ele>1199.2</ele>
        <time>2022-06-12T10:02:07Z</time>
      </trkpt>
      <trkpt lat="44.40542" lon="6.71522">
        <ele>1199.4</ele>
        <time>2022-06-12T10:02:08Z</time>
      </trkpt>
      <trkpt lat="44.40543" lon="6.71527">
        <ele>1199.6</ele>
        <time>2022-06-12T10:02:09Z</time>
      </trkpt>
      <trkpt lat="44.40544" lon="6.71533">
        <ele>1199.5</ele>
        <time>2022-06-12T10:02:10Z</time>
      </trkpt>
      <trkpt lat="44.40544" lon="6.71538">
        <ele>1199.4</ele>
        <time>2022-06-12T10:02:11Z</time>
      </trkpt>
      <trkpt lat="44.40545" lon="6.71544">
        <ele>1199.3</ele>
        <time>2022-06-12T10:02:12Z</time>
      </trkpt>
      <trkpt lat="44.40546" lon="6.7155">
        <ele>1199.2</ele>
        <time>2022-06-12T10:02:13Z</time>
      </trkpt>
      <trkpt lat="44.40547" lon="6.71555">
        <ele>1199.1</ele>
        <time>2022-06-12T10:02:14Z</time>
      </trkpt>
      <trkpt lat="44.40548" lon="6.71561">
        <ele>1199</ele>
        <time>2022-06-12T10:02:15Z</time>
      </trkpt>
      <trkpt lat="44.40549" lon="6.71567">
        <ele>1198.9</ele>
        <time>2022-06-12T10:02:16Z</time>
      </trkpt>
      <trkpt lat="44.4055" lon="6.71572">
        <ele>1198.8</ele>
        <time>2022-06-12T10:02:17Z</time>
      </trkpt>
      <trkpt lat="44.4055" lon="6.71578">
        <ele>1198.6</ele>
        <time>2022-06-12T10:02:18Z</time>
      </trkpt>
      <trkpt lat="44.40551" lon="6.71584">
        <ele>1198.5</ele>
        <time>2022-06-12T10:02:19Z</time>
      </trkpt>
      <trkpt lat="44.40552" lon="6.7159">
        <ele>1198.6</ele>
        <time>2022-06-12T10:02:20Z</time>
      </trkpt>
      <trkpt lat="44.40553" lon="6.71595">
        <ele>1198.7</ele>
        <time>2022-06-12T10:02:21Z</time>
      </trkpt>
      <trkpt lat="44.40554" lon="6.71601">
        <ele>1198.7</ele>
        <time>2022-06-12T10:02:22Z</time>
      </trkpt>
      <trkpt lat="44.40555" lon="6.71607">
        <ele>1198.9</ele>
        <time>2022-06-12T10:02:23Z</time>
      </trkpt>
      <trkpt lat="44.40556" lon="6.71613">
        <ele>1199</ele>
        <time>2022-06-12T10:02:24Z</time>
      </trkpt>
      <trkpt lat="44.40556" lon="6.71619">
        <ele>1199.1</ele>
        <time>2022-06-12T10:02:25Z</time>
      </trkpt>
      <trkpt lat="44.40557" lon="6.71625">
        <ele>1199.2</ele>
        <time>2022-06-12T10:02:26Z</time>
      </trkpt>
      <trkpt lat="44.40558" lon="6.71631">
        <ele>1199.3</ele>
        <time>2022-06-12T10:02:27Z</time>
      </trkpt>
      <trkpt lat="44.40559" lon="6.71637">
        <ele>1199.5</ele>
        <time>2022-06-12T10:02:28Z</time>
      </trkpt>
      <trkpt lat="44.4056" lon="6.71643">
        <ele>1199.6</ele>
        <time>2022-06-12T10:02:29Z</time>
      </trkpt>
      <trkpt lat="44.40561" lon="6.7165">
        <ele>1199.7</ele>
        <time>2022-06-12T10:02:30Z</time>
      </trkpt>
      <trkpt lat="44.40562" lon="6.71656">
        <ele>1199.9</ele>
        <time>2022-06-12T10:02:31Z</time>
      </trkpt>
      <trkpt lat="44.40563" lon="6.71662">
        <ele>1200</ele>
        <time>2022-06-12T10:02:32Z</time>
      </trkpt>
      <trkpt lat="44.40563" lon="6.71668">
        <ele>1200.1</ele>
        <time>2022-06-12T10:02:33Z</time>
      </trkpt>
      <trkpt lat="44.40564" lon="6.71674">
        <ele>1200</ele>
        <time>2022-06-12T10:02:34Z</time>
      </trkpt>
      <trkpt lat="44.40565" lon="6.71679">
        <ele>1199.9</ele>
        <time>2022-06-12T10:02:35Z</time>
      </trkpt>
      <trkpt lat="44.40566" lon="6.71685">
        <ele>1199.8</ele>
        <time>2022-06-12T10:02:36Z</time>
      </trkpt>
      <trkpt lat="44.40567" lon="6.71691">
        <ele>1199.7</ele>
        <time>2022-06-12T10:02:37Z</time>
      </trkpt>
      <trkpt lat="44.40568" lon="6.71698">
        <ele>1199.7</ele>
        <time>2022-06-12T10:02:38Z</time>
      </trkpt>
      <trkpt lat="44.40569" lon="6.71703">
        <ele>1199.7</ele>
        <time>2022-06-12T10:02:39Z</time>
      </trkpt>
      <trkpt lat="44.4057" lon="6.71709">
        <ele>1199.7</ele>
        <time>2022-06-12T10:02:40Z</time>
      </trkpt>
      <trkpt lat="44.4057" lon="6.71715">
        <ele>1199.8</ele>
        <time>2022-06-12T10:02:41Z</time>
      </trkpt>
      <trkpt lat="44.40571" lon="6.71721">
        <ele>1199.8</ele>
        <time>2022-06-12T10:02:42Z</time>
      </trkpt>
      <trkpt lat="44.40572" lon="6.71727">
        <ele>1199.9</ele>
        <time>2022-06-12T10:02:43Z</time>
      </trkpt>
      <trkpt lat="44.40573" lon="6.71733">
        <ele>1200.1</ele>
        <time>2022-06-12T10:02:44Z</time>
      </trkpt>
      <trkpt lat="44.40574" lon="6.71739">
        <ele>1200.1</ele>
        <time>2022-06-12T10:02:45Z</time>
      </trkpt>
      <trkpt lat="44.40575" lon="6.71744">
        <ele>1200.3</ele>
        <time>2022-06-12T10:02:46Z</time>
      </trkpt>
      <trkpt lat="44.40576" lon="6.7175">
        <ele>1200.5</ele>
        <time>2022-06-12T10:02:47Z</time>
      </trkpt>
      <trkpt lat="44.40577" lon="6.71755">
        <ele>1200.7</ele>
        <time>2022-06-12T10:02:48Z</time>
      </trkpt>
      <trkpt lat="44.40578" lon="6.71761">
        <ele>1200.8</ele>
        <time>2022-06-12T10:02:49Z</time>
      </trkpt>
      <trkpt lat="44.40579" lon="6.71766">
        <ele>1201</ele>
        <time>2022-06-12T10:02:50Z</time>
      </trkpt>
      <trkpt lat="44.40581" lon="6.71772">
        <ele>1201.3</ele>
        <time>2022-06-12T10:02:51Z</time>
      </trkpt>
      <trkpt lat="44.40582" lon="6.71777">
        <ele>1201.5</ele>
        <time>2022-06-12T10:02:52Z</time>
      </trkpt>
      <trkpt lat="44.40582" lon="6.71783">
        <ele>1201.7</ele>
        <time>2022-06-12T10:02:53Z</time>
      </trkpt>
      <trkpt lat="44.40583" lon="6.71788">
        <ele>1202</ele>
        <time>2022-06-12T10:02:54Z</time>
      </trkpt>
      <trkpt lat="44.40584" lon="6.71794">
        <ele>1202.1</ele>
        <time>2022-06-12T10:02:55Z</time>
      </trkpt>
      <trkpt lat="44.40585" lon="6.71799">
        <ele>1202.3</ele>
        <time>2022-06-12T10:02:56Z</time>
      </trkpt>
      <trkpt lat="44.40587" lon="6.71805">
        <ele>1202.5</ele>
        <time>2022-06-12T10:02:57Z</time>
      </trkpt>
      <trkpt lat="44.40588" lon="6.7181">
        <ele>1202.7</ele>
        <time>2022-06-12T10:02:58Z</time>
      </trkpt>
      <trkpt lat="44.4059" lon="6.71815">
        <ele>1202.9</ele>
        <time>2022-06-12T10:02:59Z</time>
      </trkpt>
      <trkpt lat="44.40591" lon="6.71821">
        <ele>1203.1</ele>
        <time>2022-06-12T10:03:00Z</time>
      </trkpt>
      <trkpt lat="44.40593" lon="6.71826">
        <ele>1203.3</ele>
        <time>2022-06-12T10:03:01Z</time>
      </trkpt>
      <trkpt lat="44.40594" lon="6.71832">
        <ele>1203.5</ele>
        <time>2022-06-12T10:03:02Z</time>
      </trkpt>
      <trkpt lat="44.40595" lon="6.71838">
        <ele>1203.8</ele>
        <time>2022-06-12T10:03:03Z</time>
      </trkpt>
      <trkpt lat="44.40597" lon="6.71843">
        <ele>1204.1</ele>
        <time>2022-06-12T10:03:04Z</time>
      </trkpt>
      <trkpt lat="44.40598" lon="6.71848">
        <ele>1204.3</ele>
        <time>2022-06-12T10:03:05Z</time>
      </trkpt>
      <trkpt lat="44.40599" lon="6.71854">
        <ele>1204.6</ele>
        <time>2022-06-12T10:03:06Z</time>
      </trkpt>
      <trkpt lat="44.40601" lon="6.71859">
        <ele>1204.9</ele>
        <time>2022-06-12T10:03:07Z</time>
      </trkpt>
      <trkpt lat="44.40602" lon="6.71865">
        <ele>1205.2</ele>
        <time>2022-06-12T10:03:08Z</time>
      </trkpt>
      <trkpt lat="44.40604" lon="6.7187">
        <ele>1205.6</ele>
        <time>2022-06-12T10:03:09Z</time>
      </trkpt>
      <trkpt lat="44.40606" lon="6.71876">
        <ele>1205.9</ele>
        <time>2022-06-12T10:03:10Z</time>
      </trkpt>
      <trkpt lat="44.40607" lon="6.71882">
        <ele>1206.3</ele>
        <time>2022-06-12T10:03:11Z</time>
      </trkpt>
      <trkpt lat="44.40609" lon="6.71887">
        <ele>1206.7</ele>
        <time>2022-06-12T10:03:12Z</time>
      </trkpt>
      <trkpt lat="44.40611" lon="6.71893">
        <ele>1207</ele>
        <time>2022-06-12T10:03:13Z</time>
      </trkpt>
      <trkpt lat="44.40613" lon="6.71898">
        <ele>1207.1</ele>
        <time>2022-06-12T10:03:14Z</time>
      </trkpt>
      <trkpt lat="44.40614" lon="6.71904">
        <ele>1207.2</ele>
        <time>2022-06-12T10:03:15Z</time>
      </trkpt>
      <trkpt lat="44.40616" lon="6.71909">
        <ele>1207.3</ele>
        <time>2022-06-12T10:03:16Z</time>
      </trkpt>
      <trkpt lat="44.40618" lon="6.71915">
        <ele>1207.5</ele>
        <time>2022-06-12T10:03:17Z</time>
      </trkpt>
      <trkpt lat="44.40619" lon="6.7192">
        <ele>1207.6</ele>
        <time>2022-06-12T10:03:18Z</time>
      </trkpt>
      <trkpt lat="44.40621" lon="6.71926">
        <ele>1207.7</ele>
        <time>2022-06-12T10:03:19Z</time>
      </trkpt>
      <trkpt lat="44.40623" lon="6.71931">
        <ele>1207.8</ele>
        <time>2022-06-12T10:03:20Z</time>
      </trkpt>
      <trkpt lat="44.40624" lon="6.71937">
        <ele>1207.9</ele>
        <time>2022-06-12T10:03:21Z</time>
      </trkpt>
      <trkpt lat="44.40626" lon="6.71942">
        <ele>1208</ele>
        <time>2022-06-12T10:03:22Z</time>
      </trkpt>
      <trkpt lat="44.40627" lon="6.71948">
        <ele>1208.1</ele>
        <time>2022-06-12T10:03:23Z</time>
      </trkpt>
      <trkpt lat="44.40629" lon="6.71953">
        <ele>1208.2</ele>
        <time>2022-06-12T10:03:24Z</time>
      </trkpt>
      <trkpt lat="44.40631" lon="6.71959">
        <ele>1208.2</ele>
        <time>2022-06-12T10:03:25Z</time>
      </trkpt>
      <trkpt lat="44.40632" lon="6.71965">
        <ele>1208.4</ele>
        <time>2022-06-12T10:03:26Z</time>
      </trkpt>
      <trkpt lat="44.40634" lon="6.71971">
        <ele>1208.5</ele>
        <time>2022-06-12T10:03:27Z</time>
      </trkpt>
      <trkpt lat="44.40636" lon="6.71976">
        <ele>1208.6</ele>
        <time>2022-06-12T10:03:28Z</time>
      </trkpt>
      <trkpt lat="44.40638" lon="6.71982">
        <ele>1208.8</ele>
        <time>2022-06-12T10:03:29Z</time>
      </trkpt>
      <trkpt lat="44.4064" lon="6.71988">
        <ele>1209</ele>
        <time>2022-06-12T10:03:30Z</time>
      </trkpt>
      <trkpt lat="44.40642" lon="6.71994">
        <ele>1209.2</ele>
        <time>2022-06-12T10:03:31Z</time>
      </trkpt>
      <trkpt lat="44.40643" lon="6.72">
        <ele>1209.3</ele>
        <time>2022-06-12T10:03:32Z</time>
      </trkpt>
      <trkpt lat="44.40646" lon="6.72006">
        <ele>1209.3</ele>
        <time>2022-06-12T10:03:33Z</time>
      </trkpt>
      <trkpt lat="44.40647" lon="6.72012">
        <ele>1209.3</ele>
        <time>2022-06-12T10:03:34Z</time>
      </trkpt>
      <trkpt lat="44.40649" lon="6.72019">
        <ele>1209.3</ele>
        <time>2022-06-12T10:03:35Z</time>
      </trkpt>
      <trkpt lat="44.40651" lon="6.72025">
        <ele>1209.4</ele>
        <time>2022-06-12T10:03:36Z</time>
      </trkpt>
      <trkpt lat="44.40653" lon="6.72032">
        <ele>1209.6</ele>
        <time>2022-06-12T10:03:37Z</time>
      </trkpt>
      <trkpt lat="44.40655" lon="6.72038">
        <ele>1209.8</ele>
        <time>2022-06-12T10:03:38Z</time>
      </trkpt>
      <trkpt lat="44.40657" lon="6.72044">
        <ele>1210</ele>
        <time>2022-06-12T10:03:39Z</time>
      </trkpt>
      <trkpt lat="44.40659" lon="6.72051">
        <ele>1210.2</ele>
        <time>2022-06-12T10:03:40Z</time>
      </trkpt>
      <trkpt lat="44.40661" lon="6.72057">
        <ele>1210.4</ele>
        <time>2022-06-12T10:03:41Z</time>
      </trkpt>
      <trkpt lat="44.40663" lon="6.72064">
        <ele>1210.6</ele>
        <time>2022-06-12T10:03:42Z</time>
      </trkpt>
      <trkpt lat="44.40665" lon="6.7207">
        <ele>1210.9</ele>
        <time>2022-06-12T10:03:43Z</time>
      </trkpt>
      <trkpt lat="44.40667" lon="6.72076">
        <ele>1211</ele>
        <time>2022-06-12T10:03:44Z</time>
      </trkpt>
      <trkpt lat="44.4067" lon="6.72082">
        <ele>1211.2</ele>
        <time>2022-06-12T10:03:45Z</time>
      </trkpt>
      <trkpt lat="44.40671" lon="6.72088">
        <ele>1211.2</ele>
        <time>2022-06-12T10:03:46Z</time>
      </trkpt>
      <trkpt lat="44.40673" lon="6.72094">
        <ele>1211.2</ele>
        <time>2022-06-12T10:03:47Z</time>
      </trkpt>
      <trkpt lat="44.40675" lon="6.721">
        <ele>1211.2</ele>
        <time>2022-06-12T10:03:48Z</time>
      </trkpt>
      <trkpt lat="44.40677" lon="6.72107">
        <ele>1211.2</ele>
        <time>2022-06-12T10:03:49Z</time>
      </trkpt>
      <trkpt lat="44.40678" lon="6.72113">
        <ele>1211.2</ele>
        <time>2022-06-12T10:03:50Z</time>
      </trkpt>
      <trkpt lat="44.4068" lon="6.72119">
        <ele>1211.3</ele>
        <time>2022-06-12T10:03:51Z</time>
      </trkpt>
      <trkpt lat="44.40682" lon="6.72125">
        <ele>1211.4</ele>
        <time>2022-06-12T10:03:52Z</time>
      </trkpt>
      <trkpt lat="44.40684" lon="6.7213">
        <ele>1211.4</ele>
        <time>2022-06-12T10:03:53Z</time>
      </trkpt>
      <trkpt lat="44.40685" lon="6.72136">
        <ele>1211.4</ele>
        <time>2022-06-12T10:03:54Z</time>
      </trkpt>
      <trkpt lat="44.40687" lon="6.72142">
        <ele>1211.5</ele>
        <time>2022-06-12T10:03:55Z</time>
      </trkpt>
      <trkpt lat="44.40689" lon="6.72149">
        <ele>1211.5</ele>
        <time>2022-06-12T10:03:56Z</time>
      </trkpt>
      <trkpt lat="44.40691" lon="6.72155">
        <ele>1211.7</ele>
        <time>2022-06-12T10:03:57Z</time>
      </trkpt>
      <trkpt lat="44.40693" lon="6.72161">
        <ele>1211.9</ele>
        <time>2022-06-12T10:03:58Z</time>
      </trkpt>
      <trkpt lat="44.40695" lon="6.72168">
        <ele>1212</ele>
        <time>2022-06-12T10:03:59Z</time>
      </trkpt>
      <trkpt lat="44.40697" lon="6.72174">
        <ele>1211.9</ele>
        <time>2022-06-12T10:04:00Z</time>
      </trkpt>
      <trkpt lat="44.40699" lon="6.7218">
        <ele>1211.9</ele>
        <time>2022-06-12T10:04:01Z</time>
      </trkpt>
      <trkpt lat="44.40701" lon="6.72187">
        <ele>1211.8</ele>
        <time>2022-06-12T10:04:02Z</time>
      </trkpt>
      <trkpt lat="44.40704" lon="6.72194">
        <ele>1211.7</ele>
        <time>2022-06-12T10:04:03Z</time>
      </trkpt>
      <trkpt lat="44.40706" lon="6.72201">
        <ele>1211.6</ele>
        <time>2022-06-12T10:04:04Z</time>
      </trkpt>
      <trkpt lat="44.40708" lon="6.72208">
        <ele>1211.5</ele>
        <time>2022-06-12T10:04:05Z</time>
      </trkpt>
      <trkpt lat="44.40711" lon="6.72215">
        <ele>1211.4</ele>
        <time>2022-06-12T10:04:06Z</time>
      </trkpt>
      <trkpt lat="44.40714" lon="6.72222">
        <ele>1211.4</ele>
        <time>2022-06-12T10:04:07Z</time>
      </trkpt>
      <trkpt lat="44.40717" lon="6.72229">
        <ele>1211.5</ele>
        <time>2022-06-12T10:04:08Z</time>
      </trkpt>
      <trkpt lat="44.4072" lon="6.72236">
        <ele>1211.8</ele>
        <time>2022-06-12T10:04:09Z</time>
      </trkpt>
      <trkpt lat="44.40723" lon="6.72243">
        <ele>1212</ele>
        <time>2022-06-12T10:04:10Z</time>
      </trkpt>
      <trkpt lat="44.40726" lon="6.72251">
        <ele>1212.3</ele>
        <time>2022-06-12T10:04:11Z</time>
      </trkpt>
      <trkpt lat="44.4073" lon="6.72258">
        <ele>1212.2</ele>
        <time>2022-06-12T10:04:12Z</time>
      </trkpt>
      <trkpt lat="44.40733" lon="6.72265">
        <ele>1212.2</ele>
        <time>2022-06-12T10:04:13Z</time>
      </trkpt>
      <trkpt lat="44.40737" lon="6.72273">
        <ele>1212.2</ele>
        <time>2022-06-12T10:04:14Z</time>
      </trkpt>
      <trkpt lat="44.4074" lon="6.7228">
        <ele>1212.2</ele>
        <time>2022-06-12T10:04:15Z</time>
      </trkpt>
      <trkpt lat="44.40744" lon="6.72287">
        <ele>1212.2</ele>
        <time>2022-06-12T10:04:16Z</time>
      </trkpt>
      <trkpt lat="44.40747" lon="6.72295">
        <ele>1212.2</ele>
        <time>2022-06-12T10:04:17Z</time>
      </trkpt>
      <trkpt lat="44.40751" lon="6.72302">
        <ele>1212.2</ele>
        <time>2022-06-12T10:04:18Z</time>
      </trkpt>
      <trkpt lat="44.40755" lon="6.7231">
        <ele>1212</ele>
        <time>2022-06-12T10:04:19Z</time>
      </trkpt>
      <trkpt lat="44.40758" lon="6.72317">
        <ele>1211.7</ele>
        <time>2022-06-12T10:04:20Z</time>
      </trkpt>
      <trkpt lat="44.40762" lon="6.72325">
        <ele>1211.4</ele>
        <time>2022-06-12T10:04:21Z</time>
      </trkpt>
      <trkpt lat="44.40766" lon="6.72333">
        <ele>1211.2</ele>
        <time>2022-06-12T10:04:22Z</time>
      </trkpt>
      <trkpt lat="44.40769" lon="6.72341">
        <ele>1211.1</ele>
        <time>2022-06-12T10:04:23Z</time>
      </trkpt>
      <trkpt lat="44.40773" lon="6.72349">
        <ele>1211.1</ele>
        <time>2022-06-12T10:04:24Z</time>
      </trkpt>
      <trkpt lat="44.40777" lon="6.72357">
        <ele>1211.1</ele>
        <time>2022-06-12T10:04:25Z</time>
      </trkpt>
      <trkpt lat="44.4078" lon="6.72365">
        <ele>1211</ele>
        <time>2022-06-12T10:04:26Z</time>
      </trkpt>
      <trkpt lat="44.40784" lon="6.72373">
        <ele>1210.9</ele>
        <time>2022-06-12T10:04:27Z</time>
      </trkpt>
      <trkpt lat="44.40788" lon="6.72381">
        <ele>1210.9</ele>
        <time>2022-06-12T10:04:28Z</time>
      </trkpt>
      <trkpt lat="44.40792" lon="6.72389">
        <ele>1211</ele>
        <time>2022-06-12T10:04:29Z</time>
      </trkpt>
      <trkpt lat="44.40796" lon="6.72397">
        <ele>1211.2</ele>
        <time>2022-06-12T10:04:30Z</time>
      </trkpt>
      <trkpt lat="44.40799" lon="6.72405">
        <ele>1211.4</ele>
        <time>2022-06-12T10:04:31Z</time>
      </trkpt>
      <trkpt lat="44.40803" lon="6.72413">
        <ele>1211.7</ele>
        <time>2022-06-12T10:04:32Z</time>
      </trkpt>
      <trkpt lat="44.40806" lon="6.72421">
        <ele>1211.9</ele>
        <time>2022-06-12T10:04:33Z</time>
      </trkpt>
      <trkpt lat="44.4081" lon="6.72428">
        <ele>1211.8</ele>
        <time>2022-06-12T10:04:34Z</time>
      </trkpt>
      <trkpt lat="44.40814" lon="6.72436">
        <ele>1211.8</ele>
        <time>2022-06-12T10:04:35Z</time>
      </trkpt>
      <trkpt lat="44.40817" lon="6.72444">
        <ele>1211.8</ele>
        <time>2022-06-12T10:04:36Z</time>
      </trkpt>
      <trkpt lat="44.40821" lon="6.72452">
        <ele>1211.7</ele>
        <time>2022-06-12T10:04:37Z</time>
      </trkpt>
      <trkpt lat="44.40824" lon="6.7246">
        <ele>1211.6</ele>
        <time>2022-06-12T10:04:38Z</time>
      </trkpt>
      <trkpt lat="44.40828" lon="6.72467">
        <ele>1211.6</ele>
        <time>2022-06-12T10:04:39Z</time>
      </trkpt>
      <trkpt lat="44.40831" lon="6.72475">
        <ele>1211.7</ele>
        <time>2022-06-12T10:04:40Z</time>
      </trkpt>
      <trkpt lat="44.40835" lon="6.72483">
        <ele>1211.7</ele>
        <time>2022-06-12T10:04:41Z</time>
      </trkpt>
      <trkpt lat="44.40838" lon="6.72491">
        <ele>1211.8</ele>
        <time>2022-06-12T10:04:42Z</time>
      </trkpt>
      <trkpt lat="44.40842" lon="6.72498">
        <ele>1211.9</ele>
        <time>2022-06-12T10:04:43Z</time>
      </trkpt>
      <trkpt lat="44.40845" lon="6.72506">
        <ele>1212.1</ele>
        <time>2022-06-12T10:04:44Z</time>
      </trkpt>
      <trkpt lat="44.40849" lon="6.72513">
        <ele>1212.2</ele>
        <time>2022-06-12T10:04:45Z</time>
      </trkpt>
      <trkpt lat="44.40853" lon="6.72521">
        <ele>1212.3</ele>
        <time>2022-06-12T10:04:46Z</time>
      </trkpt>
      <trkpt lat="44.40856" lon="6.72529">
        <ele>1212.4</ele>
        <time>2022-06-12T10:04:47Z</time>
      </trkpt>
      <trkpt lat="44.4086" lon="6.72537">
        <ele>1212.5</ele>
        <time>2022-06-12T10:04:48Z</time>
      </trkpt>
      <trkpt lat="44.40864" lon="6.72544">
        <ele>1212.6</ele>
        <time>2022-06-12T10:04:49Z</time>
      </trkpt>
      <trkpt lat="44.40867" lon="6.72552">
        <ele>1212.5</ele>
        <time>2022-06-12T10:04:50Z</time>
      </trkpt>
      <trkpt lat="44.40871" lon="6.7256">
        <ele>1212.5</ele>
        <time>2022-06-12T10:04:51Z</time>
      </trkpt>
      <trkpt lat="44.40875" lon="6.72568">
        <ele>1212.5</ele>
        <time>2022-06-12T10:04:52Z</time>
      </trkpt>
      <trkpt lat="44.40878" lon="6.72576">
        <ele>1212.5</ele>
        <time>2022-06-12T10:04:53Z</time>
      </trkpt>
      <trkpt lat="44.40882" lon="6.72584">
        <ele>1212.5</ele>
        <time>2022-06-12T10:04:54Z</time>
      </trkpt>
      <trkpt lat="44.40886" lon="6.72592">
        <ele>1212.4</ele>
        <time>2022-06-12T10:04:55Z</time>
      </trkpt>
      <trkpt lat="44.4089" lon="6.726">
        <ele>1212.5</ele>
        <time>2022-06-12T10:04:56Z</time>
      </trkpt>
      <trkpt lat="44.40894" lon="6.72608">
        <ele>1212.5</ele>
        <time>2022-06-12T10:04:57Z</time>
      </trkpt>
      <trkpt lat="44.40898" lon="6.72615">
        <ele>1212.5</ele>
        <time>2022-06-12T10:04:58Z</time>
      </trkpt>
      <trkpt lat="44.40902" lon="6.72623">
        <ele>1212.5</ele>
        <time>2022-06-12T10:04:59Z</time>
      </trkpt>
      <trkpt lat="44.40906" lon="6.7263">
        <ele>1212.5</ele>
        <time>2022-06-12T10:05:00Z</time>
      </trkpt>
      <trkpt lat="44.4091" lon="6.72638">
        <ele>1212.6</ele>
        <time>2022-06-12T10:05:01Z</time>
      </trkpt>
      <trkpt lat="44.40915" lon="6.72646">
        <ele>1212.6</ele>
        <time>2022-06-12T10:05:02Z</time>
      </trkpt>
      <trkpt lat="44.40919" lon="6.72653">
        <ele>1212.6</ele>
        <time>2022-06-12T10:05:03Z</time>
      </trkpt>
      <trkpt lat="44.40923" lon="6.72661">
        <ele>1212.6</ele>
        <time>2022-06-12T10:05:04Z</time>
      </trkpt>
      <trkpt lat="44.40927" lon="6.72668">
        <ele>1212.7</ele>
        <time>2022-06-12T10:05:05Z</time>
      </trkpt>
      <trkpt lat="44.40931" lon="6.72675">
        <ele>1212.9</ele>
        <time>2022-06-12T10:05:06Z</time>
      </trkpt>
      <trkpt lat="44.40936" lon="6.72682">
        <ele>1213</ele>
        <time>2022-06-12T10:05:07Z</time>
      </trkpt>
      <trkpt lat="44.4094" lon="6.72688">
        <ele>1213</ele>
        <time>2022-06-12T10:05:08Z</time>
      </trkpt>
      <trkpt lat="44.40945" lon="6.72695">
        <ele>1213</ele>
        <time>2022-06-12T10:05:09Z</time>
      </trkpt>
      <trkpt lat="44.40949" lon="6.72702">
        <ele>1213.2</ele>
        <time>2022-06-12T10:05:10Z</time>
      </trkpt>
      <trkpt lat="44.40954" lon="6.72709">
        <ele>1213.3</ele>
        <time>2022-06-12T10:05:11Z</time>
      </trkpt>
      <trkpt lat="44.40959" lon="6.72716">
        <ele>1213.5</ele>
        <time>2022-06-12T10:05:12Z</time>
      </trkpt>
      <trkpt lat="44.40964" lon="6.72723">
        <ele>1213.7</ele>
        <time>2022-06-12T10:05:13Z</time>
      </trkpt>
      <trkpt lat="44.40969" lon="6.7273">
        <ele>1213.6</ele>
        <time>2022-06-12T10:05:14Z</time>
      </trkpt>
      <trkpt lat="44.40974" lon="6.72737">
        <ele>1213.5</ele>
        <time>2022-06-12T10:05:15Z</time>
      </trkpt>
      <trkpt lat="44.40979" lon="6.72743">
        <ele>1213.5</ele>
        <time>2022-06-12T10:05:16Z</time>
      </trkpt>
      <trkpt lat="44.40984" lon="6.7275">
        <ele>1213.4</ele>
        <time>2022-06-12T10:05:17Z</time>
      </trkpt>
      <trkpt lat="44.40989" lon="6.72757">
        <ele>1213.4</ele>
        <time>2022-06-12T10:05:18Z</time>
      </trkpt>
      <trkpt lat="44.40994" lon="6.72763">
        <ele>1213.3</ele>
        <time>2022-06-12T10:05:19Z</time>
      </trkpt>
      <trkpt lat="44.41" lon="6.7277">
        <ele>1213.3</ele>
        <time>2022-06-12T10:05:20Z</time>
      </trkpt>
      <trkpt lat="44.41005" lon="6.72776">
        <ele>1213.2</ele>
        <time>2022-06-12T10:05:21Z</time>
      </trkpt>
      <trkpt lat="44.4101" lon="6.72782">
        <ele>1213.2</ele>
        <time>2022-06-12T10:05:22Z</time>
      </trkpt>
      <trkpt lat="44.41016" lon="6.72789">
        <ele>1213.2</ele>
        <time>2022-06-12T10:05:23Z</time>
      </trkpt>
      <trkpt lat="44.41022" lon="6.72795">
        <ele>1213.2</ele>
        <time>2022-06-12T10:05:24Z</time>
      </trkpt>
      <trkpt lat="44.41027" lon="6.72801">
        <ele>1213.1</ele>
        <time>2022-06-12T10:05:25Z</time>
      </trkpt>
      <trkpt lat="44.41033" lon="6.72807">
        <ele>1213.1</ele>
        <time>2022-06-12T10:05:26Z</time>
      </trkpt>
      <trkpt lat="44.41039" lon="6.72813">
        <ele>1213.2</ele>
        <time>2022-06-12T10:05:27Z</time>
      </trkpt>
      <trkpt lat="44.41046" lon="6.72818">
        <ele>1213.2</ele>
        <time>2022-06-12T10:05:28Z</time>
      </trkpt>
      <trkpt lat="44.41052" lon="6.72823">
        <ele>1213.2</ele>
        <time>2022-06-12T10:05:29Z</time>
      </trkpt>
      <trkpt lat="44.41058" lon="6.72828">
        <ele>1213.3</ele>
        <time>2022-06-12T10:05:30Z</time>
      </trkpt>
      <trkpt lat="44.41064" lon="6.72834">
        <ele>1213.3</ele>
        <time>2022-06-12T10:05:31Z</time>
      </trkpt>
      <trkpt lat="44.41071" lon="6.72839">
        <ele>1213.2</ele>
        <time>2022-06-12T10:05:32Z</time>
      </trkpt>
      <trkpt lat="44.41078" lon="6.72843">
        <ele>1213.1</ele>
        <time>2022-06-12T10:05:33Z</time>
      </trkpt>
      <trkpt lat="44.41085" lon="6.72848">
        <ele>1213</ele>
        <time>2022-06-12T10:05:34Z</time>
      </trkpt>
      <trkpt lat="44.41092" lon="6.72852">
        <ele>1213</ele>
        <time>2022-06-12T10:05:35Z</time>
      </trkpt>
      <trkpt lat="44.41099" lon="6.72855">
        <ele>1213</ele>
        <time>2022-06-12T10:05:36Z</time>
      </trkpt>
      <trkpt lat="44.41106" lon="6.72859">
        <ele>1213</ele>
        <time>2022-06-12T10:05:37Z</time>
      </trkpt>
      <trkpt lat="44.41113" lon="6.72862">
        <ele>1213</ele>
        <time>2022-06-12T10:05:38Z</time>
      </trkpt>
      <trkpt lat="44.4112" lon="6.72865">
        <ele>1212.9</ele>
        <time>2022-06-12T10:05:39Z</time>
      </trkpt>
      <trkpt lat="44.41128" lon="6.72868">
        <ele>1212.8</ele>
        <time>2022-06-12T10:05:40Z</time>
      </trkpt>
      <trkpt lat="44.41135" lon="6.7287">
        <ele>1212.6</ele>
        <time>2022-06-12T10:05:41Z</time>
      </trkpt>
      <trkpt lat="44.41142" lon="6.72873">
        <ele>1212.4</ele>
        <time>2022-06-12T10:05:42Z</time>
      </trkpt>
      <trkpt lat="44.4115" lon="6.72876">
        <ele>1212.1</ele>
        <time>2022-06-12T10:05:43Z</time>
      </trkpt>
      <trkpt lat="44.41157" lon="6.72878">
        <ele>1211.9</ele>
        <time>2022-06-12T10:05:44Z</time>
      </trkpt>
      <trkpt lat="44.41164" lon="6.72881">
        <ele>1211.8</ele>
        <time>2022-06-12T10:05:45Z</time>
      </trkpt>
      <trkpt lat="44.41172" lon="6.72883">
        <ele>1211.8</ele>
        <time>2022-06-12T10:05:46Z</time>
      </trkpt>
      <trkpt lat="44.41179" lon="6.72885">
        <ele>1211.8</ele>
        <time>2022-06-12T10:05:47Z</time>
      </trkpt>
      <trkpt lat="44.41186" lon="6.72887">
        <ele>1211.9</ele>
        <time>2022-06-12T10:05:48Z</time>
      </trkpt>
      <trkpt lat="44.41194" lon="6.72889">
        <ele>1212</ele>
        <time>2022-06-12T10:05:49Z</time>
      </trkpt>
      <trkpt lat="44.41201" lon="6.72891">
        <ele>1211.9</ele>
        <time>2022-06-12T10:05:50Z</time>
      </trkpt>
      <trkpt lat="44.41208" lon="6.72893">
        <ele>1212</ele>
        <time>2022-06-12T10:05:51Z</time>
      </trkpt>
      <trkpt lat="44.41215" lon="6.72895">
        <ele>1212</ele>
        <time>2022-06-12T10:05:52Z</time>
      </trkpt>
      <trkpt lat="44.41222" lon="6.72897">
        <ele>1212.1</ele>
        <time>2022-06-12T10:05:53Z</time>
      </trkpt>
      <trkpt lat="44.41229" lon="6.72899">
        <ele>1212</ele>
        <time>2022-06-12T10:05:54Z</time>
      </trkpt>
      <trkpt lat="44.41235" lon="6.729">
        <ele>1212</ele>
        <time>2022-06-12T10:05:55Z</time>
      </trkpt>
      <trkpt lat="44.41242" lon="6.72902">
        <ele>1211.9</ele>
        <time>2022-06-12T10:05:56Z</time>
      </trkpt>
      <trkpt lat="44.41248" lon="6.72903">
        <ele>1211.9</ele>
        <time>2022-06-12T10:05:57Z</time>
      </trkpt>
      <trkpt lat="44.41255" lon="6.72904">
        <ele>1212.1</ele>
        <time>2022-06-12T10:05:58Z</time>
      </trkpt>
      <trkpt lat="44.41261" lon="6.72905">
        <ele>1212.2</ele>
        <time>2022-06-12T10:05:59Z</time>
      </trkpt>
      <trkpt lat="44.41267" lon="6.72906">
        <ele>1212.4</ele>
        <time>2022-06-12T10:06:00Z</time>
      </trkpt>
      <trkpt lat="44.41273" lon="6.72907">
        <ele>1212.5</ele>
        <time>2022-06-12T10:06:01Z</time>
      </trkpt>
      <trkpt lat="44.41279" lon="6.72907">
        <ele>1212.7</ele>
        <time>2022-06-12T10:06:02Z</time>
      </trkpt>
      <trkpt lat="44.41286" lon="6.72907">
        <ele>1212.6</ele>
        <time>2022-06-12T10:06:03Z</time>
      </trkpt>
      <trkpt lat="44.41292" lon="6.72907">
        <ele>1212.5</ele>
        <time>2022-06-12T10:06:04Z</time>
      </trkpt>
      <trkpt lat="44.41299" lon="6.72906">
        <ele>1212.5</ele>
        <time>2022-06-12T10:06:05Z</time>
      </trkpt>
      <trkpt lat="44.41306" lon="6.72905">
        <ele>1212.4</ele>
        <time>2022-06-12T10:06:06Z</time>
      </trkpt>
      <trkpt lat="44.41312" lon="6.72904">
        <ele>1212.7</ele>
        <time>2022-06-12T10:06:07Z</time>
      </trkpt>
      <trkpt lat="44.41319" lon="6.72903">
        <ele>1213</ele>
        <time>2022-06-12T10:06:08Z</time>
      </trkpt>
      <trkpt lat="44.41326" lon="6.72901">
        <ele>1213.3</ele>
        <time>2022-06-12T10:06:09Z</time>
      </trkpt>
      <trkpt lat="44.41332" lon="6.72899">
        <ele>1213.6</ele>
        <time>2022-06-12T10:06:10Z</time>
      </trkpt>
      <trkpt lat="44.41339" lon="6.72896">
        <ele>1213.7</ele>
        <time>2022-06-12T10:06:11Z</time>
      </trkpt>
      <trkpt lat="44.41345" lon="6.72894">
        <ele>1213.8</ele>
        <time>2022-06-12T10:06:12Z</time>
      </trkpt>
      <trkpt lat="44.41351" lon="6.72891">
        <ele>1213.9</ele>
        <time>2022-06-12T10:06:13Z</time>
      </trkpt>
      <trkpt lat="44.41358" lon="6.72888">
        <ele>1214</ele>
        <time>2022-06-12T10:06:14Z</time>
      </trkpt>
      <trkpt lat="44.41364" lon="6.72885">
        <ele>1214</ele>
        <time>2022-06-12T10:06:15Z</time>
      </trkpt>
      <trkpt lat="44.41371" lon="6.72882">
        <ele>1214.1</ele>
        <time>2022-06-12T10:06:16Z</time>
      </trkpt>
      <trkpt lat="44.41378" lon="6.72879">
        <ele>1214.2</ele>
        <time>2022-06-12T10:06:17Z</time>
      </trkpt>
      <trkpt lat="44.41384" lon="6.72876">
        <ele>1214.4</ele>
        <time>2022-06-12T10:06:18Z</time>
      </trkpt>
      <trkpt lat="44.41391" lon="6.72873">
        <ele>1214.6</ele>
        <time>2022-06-12T10:06:19Z</time>
      </trkpt>
      <trkpt lat="44.41398" lon="6.72871">
        <ele>1214.7</ele>
        <time>2022-06-12T10:06:20Z</time>
      </trkpt>
      <trkpt lat="44.41405" lon="6.72868">
        <ele>1214.8</ele>
        <time>2022-06-12T10:06:21Z</time>
      </trkpt>
      <trkpt lat="44.41412" lon="6.72865">
        <ele>1214.9</ele>
        <time>2022-06-12T10:06:22Z</time>
      </trkpt>
      <trkpt lat="44.41418" lon="6.72862">
        <ele>1215</ele>
        <time>2022-06-12T10:06:23Z</time>
      </trkpt>
      <trkpt lat="44.41425" lon="6.72859">
        <ele>1215.1</ele>
        <time>2022-06-12T10:06:24Z</time>
      </trkpt>
      <trkpt lat="44.41432" lon="6.72856">
        <ele>1215.2</ele>
        <time>2022-06-12T10:06:25Z</time>
      </trkpt>
      <trkpt lat="44.41439" lon="6.72853">
        <ele>1215.3</ele>
        <time>2022-06-12T10:06:26Z</time>
      </trkpt>
      <trkpt lat="44.41446" lon="6.72849">
        <ele>1215.4</ele>
        <time>2022-06-12T10:06:27Z</time>
      </trkpt>
      <trkpt lat="44.41454" lon="6.72846">
        <ele>1215.4</ele>
        <time>2022-06-12T10:06:28Z</time>
      </trkpt>
      <trkpt lat="44.41461" lon="6.72843">
        <ele>1215.3</ele>
        <time>2022-06-12T10:06:29Z</time>
      </trkpt>
      <trkpt lat="44.41468" lon="6.7284">
        <ele>1215.1</ele>
        <time>2022-06-12T10:06:30Z</time>
      </trkpt>
      <trkpt lat="44.41475" lon="6.72837">
        <ele>1215</ele>
        <time>2022-06-12T10:06:31Z</time>
      </trkpt>
      <trkpt lat="44.41482" lon="6.72834">
        <ele>1215</ele>
        <time>2022-06-12T10:06:32Z</time>
      </trkpt>
      <trkpt lat="44.4149" lon="6.72831">
        <ele>1215</ele>
        <time>2022-06-12T10:06:33Z</time>
      </trkpt>
      <trkpt lat="44.41497" lon="6.72829">
        <ele>1215</ele>
        <time>2022-06-12T10:06:34Z</time>
      </trkpt>
      <trkpt lat="44.41504" lon="6.72827">
        <ele>1214.8</ele>
        <time>2022-06-12T10:06:35Z</time>
      </trkpt>
      <trkpt lat="44.41512" lon="6.72825">
        <ele>1214.6</ele>
        <time>2022-06-12T10:06:36Z</time>
      </trkpt>
      <trkpt lat="44.4152" lon="6.72824">
        <ele>1214.3</ele>
        <time>2022-06-12T10:06:37Z</time>
      </trkpt>
      <trkpt lat="44.41527" lon="6.72824">
        <ele>1214</ele>
        <time>2022-06-12T10:06:38Z</time>
      </trkpt>
      <trkpt lat="44.41535" lon="6.72824">
        <ele>1213.8</ele>
        <time>2022-06-12T10:06:39Z</time>
      </trkpt>
      <trkpt lat="44.41543" lon="6.72825">
        <ele>1213.6</ele>
        <time>2022-06-12T10:06:40Z</time>
      </trkpt>
      <trkpt lat="44.41551" lon="6.72826">
        <ele>1213.4</ele>
        <time>2022-06-12T10:06:41Z</time>
      </trkpt>
      <trkpt lat="44.41558" lon="6.72828">
        <ele>1213.2</ele>
        <time>2022-06-12T10:06:42Z</time>
      </trkpt>
      <trkpt lat="44.41566" lon="6.7283">
        <ele>1213.1</ele>
        <time>2022-06-12T10:06:43Z</time>
      </trkpt>
      <trkpt lat="44.41573" lon="6.72831">
        <ele>1213.1</ele>
        <time>2022-06-12T10:06:44Z</time>
      </trkpt>
      <trkpt lat="44.41581" lon="6.72833">
        <ele>1213</ele>
        <time>2022-06-12T10:06:45Z</time>
      </trkpt>
      <trkpt lat="44.41588" lon="6.72834">
        <ele>1213</ele>
        <time>2022-06-12T10:06:46Z</time>
      </trkpt>
      <trkpt lat="44.41595" lon="6.72836">
        <ele>1213</ele>
        <time>2022-06-12T10:06:47Z</time>
      </trkpt>
      <trkpt lat="44.41601" lon="6.72839">
        <ele>1212.9</ele>
        <time>2022-06-12T10:06:48Z</time>
      </trkpt>
      <trkpt lat="44.41608" lon="6.72841">
        <ele>1212.8</ele>
        <time>2022-06-12T10:06:49Z</time>
      </trkpt>
      <trkpt lat="44.41614" lon="6.72844">
        <ele>1212.6</ele>
        <time>2022-06-12T10:06:50Z</time>
      </trkpt>
      <trkpt lat="44.4162" lon="6.72846">
        <ele>1212.4</ele>
        <time>2022-06-12T10:06:51Z</time>
      </trkpt>
      <trkpt lat="44.41626" lon="6.72849">
        <ele>1212.2</ele>
        <time>2022-06-12T10:06:52Z</time>
      </trkpt>
      <trkpt lat="44.41633" lon="6.72852">
        <ele>1212.1</ele>
        <time>2022-06-12T10:06:53Z</time>
      </trkpt>
      <trkpt lat="44.41639" lon="6.72856">
        <ele>1212</ele>
        <time>2022-06-12T10:06:54Z</time>
      </trkpt>
      <trkpt lat="44.41646" lon="6.7286">
        <ele>1212</ele>
        <time>2022-06-12T10:06:55Z</time>
      </trkpt>
      <trkpt lat="44.41652" lon="6.72864">
        <ele>1212</ele>
        <time>2022-06-12T10:06:56Z</time>
      </trkpt>
      <trkpt lat="44.41658" lon="6.7287">
        <ele>1212</ele>
        <time>2022-06-12T10:06:57Z</time>
      </trkpt>
      <trkpt lat="44.41664" lon="6.72875">
        <ele>1212</ele>
        <time>2022-06-12T10:06:58Z</time>
      </trkpt>
      <trkpt lat="44.4167" lon="6.72881">
        <ele>1211.9</ele>
        <time>2022-06-12T10:06:59Z</time>
      </trkpt>
      <trkpt lat="44.41675" lon="6.72887">
        <ele>1211.7</ele>
        <time>2022-06-12T10:07:00Z</time>
      </trkpt>
      <trkpt lat="44.4168" lon="6.72893">
        <ele>1211.5</ele>
        <time>2022-06-12T10:07:01Z</time>
      </trkpt>
      <trkpt lat="44.41685" lon="6.72899">
        <ele>1211.4</ele>
        <time>2022-06-12T10:07:02Z</time>
      </trkpt>
      <trkpt lat="44.41689" lon="6.72906">
        <ele>1211.2</ele>
        <time>2022-06-12T10:07:03Z</time>
      </trkpt>
      <trkpt lat="44.41693" lon="6.72913">
        <ele>1211</ele>
        <time>2022-06-12T10:07:04Z</time>
      </trkpt>
      <trkpt lat="44.41697" lon="6.72919">
        <ele>1211.1</ele>
        <time>2022-06-12T10:07:05Z</time>
      </trkpt>
      <trkpt lat="44.41701" lon="6.72926">
        <ele>1211.3</ele>
        <time>2022-06-12T10:07:06Z</time>
      </trkpt>
      <trkpt lat="44.41705" lon="6.72933">
        <ele>1211.4</ele>
        <time>2022-06-12T10:07:07Z</time>
      </trkpt>
      <trkpt lat="44.4171" lon="6.72939">
        <ele>1211.4</ele>
        <time>2022-06-12T10:07:08Z</time>
      </trkpt>
      <trkpt lat="44.41714" lon="6.72946">
        <ele>1211.3</ele>
        <time>2022-06-12T10:07:09Z</time>
      </trkpt>
      <trkpt lat="44.41719" lon="6.72953">
        <ele>1211.1</ele>
        <time>2022-06-12T10:07:10Z</time>
      </trkpt>
      <trkpt lat="44.41724" lon="6.72959">
        <ele>1211</ele>
        <time>2022-06-12T10:07:11Z</time>
      </trkpt>
      <trkpt lat="44.41729" lon="6.72967">
        <ele>1211</ele>
        <time>2022-06-12T10:07:12Z</time>
      </trkpt>
      <trkpt lat="44.41734" lon="6.72974">
        <ele>1211</ele>
        <time>2022-06-12T10:07:13Z</time>
      </trkpt>
      <trkpt lat="44.41739" lon="6.72981">
        <ele>1211</ele>
        <time>2022-06-12T10:07:14Z</time>
      </trkpt>
      <trkpt lat="44.41744" lon="6.72989">
        <ele>1211</ele>
        <time>2022-06-12T10:07:15Z</time>
      </trkpt>
      <trkpt lat="44.41749" lon="6.72996">
        <ele>1211</ele>
        <time>2022-06-12T10:07:16Z</time>
      </trkpt>
      <trkpt lat="44.41754" lon="6.73003">
        <ele>1211</ele>
        <time>2022-06-12T10:07:17Z</time>
      </trkpt>
      <trkpt lat="44.4176" lon="6.73011">
        <ele>1211</ele>
        <time>2022-06-12T10:07:18Z</time>
      </trkpt>
      <trkpt lat="44.41765" lon="6.73018">
        <ele>1211</ele>
        <time>2022-06-12T10:07:19Z</time>
      </trkpt>
      <trkpt lat="44.4177" lon="6.73025">
        <ele>1211</ele>
        <time>2022-06-12T10:07:20Z</time>
      </trkpt>
      <trkpt lat="44.41775" lon="6.73032">
        <ele>1211</ele>
        <time>2022-06-12T10:07:21Z</time>
      </trkpt>
      <trkpt lat="44.4178" lon="6.73039">
        <ele>1211</ele>
        <time>2022-06-12T10:07:22Z</time>
      </trkpt>
      <trkpt lat="44.41785" lon="6.73046">
        <ele>1211</ele>
        <time>2022-06-12T10:07:23Z</time>
      </trkpt>
      <trkpt lat="44.41789" lon="6.73053">
        <ele>1211</ele>
        <time>2022-06-12T10:07:24Z</time>
      </trkpt>
      <trkpt lat="44.41794" lon="6.7306">
        <ele>1211</ele>
        <time>2022-06-12T10:07:25Z</time>
      </trkpt>
      <trkpt lat="44.41799" lon="6.73067">
        <ele>1211</ele>
        <time>2022-06-12T10:07:26Z</time>
      </trkpt>
      <trkpt lat="44.41803" lon="6.73073">
        <ele>1211</ele>
        <time>2022-06-12T10:07:27Z</time>
      </trkpt>
      <trkpt lat="44.41808" lon="6.7308">
        <ele>1211</ele>
        <time>2022-06-12T10:07:28Z</time>
      </trkpt>
      <trkpt lat="44.41813" lon="6.73088">
        <ele>1211</ele>
        <time>2022-06-12T10:07:29Z</time>
      </trkpt>
      <trkpt lat="44.41817" lon="6.73096">
        <ele>1211</ele>
        <time>2022-06-12T10:07:30Z</time>
      </trkpt>
      <trkpt lat="44.41821" lon="6.73104">
        <ele>1211</ele>
        <time>2022-06-12T10:07:31Z</time>
      </trkpt>
      <trkpt lat="44.41825" lon="6.73113">
        <ele>1211</ele>
        <time>2022-06-12T10:07:32Z</time>
      </trkpt>
      <trkpt lat="44.41828" lon="6.73122">
        <ele>1211.1</ele>
        <time>2022-06-12T10:07:33Z</time>
      </trkpt>
      <trkpt lat="44.41832" lon="6.73131">
        <ele>1211</ele>
        <time>2022-06-12T10:07:34Z</time>
      </trkpt>
      <trkpt lat="44.41834" lon="6.7314">
        <ele>1211</ele>
        <time>2022-06-12T10:07:35Z</time>
      </trkpt>
      <trkpt lat="44.41836" lon="6.73149">
        <ele>1211</ele>
        <time>2022-06-12T10:07:36Z</time>
      </trkpt>
      <trkpt lat="44.41839" lon="6.73157">
        <ele>1211</ele>
        <time>2022-06-12T10:07:37Z</time>
      </trkpt>
      <trkpt lat="44.41841" lon="6.73166">
        <ele>1211</ele>
        <time>2022-06-12T10:07:38Z</time>
      </trkpt>
      <trkpt lat="44.41842" lon="6.73174">
        <ele>1211.2</ele>
        <time>2022-06-12T10:07:39Z</time>
      </trkpt>
      <trkpt lat="44.41844" lon="6.73183">
        <ele>1211.3</ele>
        <time>2022-06-12T10:07:40Z</time>
      </trkpt>
      <trkpt lat="44.41846" lon="6.73191">
        <ele>1211.5</ele>
        <time>2022-06-12T10:07:41Z</time>
      </trkpt>
      <trkpt lat="44.41848" lon="6.732">
        <ele>1211.5</ele>
        <time>2022-06-12T10:07:42Z</time>
      </trkpt>
      <trkpt lat="44.4185" lon="6.73209">
        <ele>1211.4</ele>
        <time>2022-06-12T10:07:43Z</time>
      </trkpt>
      <trkpt lat="44.41852" lon="6.73218">
        <ele>1211.3</ele>
        <time>2022-06-12T10:07:44Z</time>
      </trkpt>
      <trkpt lat="44.41854" lon="6.73227">
        <ele>1211.4</ele>
        <time>2022-06-12T10:07:45Z</time>
      </trkpt>
      <trkpt lat="44.41856" lon="6.73236">
        <ele>1211.6</ele>
        <time>2022-06-12T10:07:46Z</time>
      </trkpt>
      <trkpt lat="44.41858" lon="6.73245">
        <ele>1211.8</ele>
        <time>2022-06-12T10:07:47Z</time>
      </trkpt>
      <trkpt lat="44.4186" lon="6.73254">
        <ele>1212.1</ele>
        <time>2022-06-12T10:07:48Z</time>
      </trkpt>
      <trkpt lat="44.41862" lon="6.73263">
        <ele>1212.4</ele>
        <time>2022-06-12T10:07:49Z</time>
      </trkpt>
      <trkpt lat="44.41864" lon="6.73272">
        <ele>1212.7</ele>
        <time>2022-06-12T10:07:50Z</time>
      </trkpt>
      <trkpt lat="44.41866" lon="6.73281">
        <ele>1212.8</ele>
        <time>2022-06-12T10:07:51Z</time>
      </trkpt>
      <trkpt lat="44.41868" lon="6.73289">
        <ele>1212.8</ele>
        <time>2022-06-12T10:07:52Z</time>
      </trkpt>
      <trkpt lat="44.4187" lon="6.73298">
        <ele>1212.7</ele>
        <time>2022-06-12T10:07:53Z</time>
      </trkpt>
      <trkpt lat="44.41873" lon="6.73306">
        <ele>1212.6</ele>
        <time>2022-06-12T10:07:54Z</time>
      </trkpt>
      <trkpt lat="44.41876" lon="6.73312">
        <ele>1212.7</ele>
        <time>2022-06-12T10:07:55Z</time>
      </trkpt>
      <trkpt lat="44.4188" lon="6.73318">
        <ele>1212.8</ele>
        <time>2022-06-12T10:07:56Z</time>
      </trkpt>
      <trkpt lat="44.41884" lon="6.73322">
        <ele>1212.8</ele>
        <time>2022-06-12T10:07:57Z</time>
      </trkpt>
      <trkpt lat="44.41886" lon="6.73325">
        <ele>1212.8</ele>
        <time>2022-06-12T10:07:58Z</time>
      </trkpt>
      <trkpt lat="44.41888" lon="6.73326">
        <ele>1212.7</ele>
        <time>2022-06-12T10:07:59Z</time>
      </trkpt>
      <trkpt lat="44.41891" lon="6.73327">
        <ele>1212.7</ele>
        <time>2022-06-12T10:08:00Z</time>
      </trkpt>
      <trkpt lat="44.41894" lon="6.7333">
        <ele>1212.7</ele>
        <time>2022-06-12T10:08:01Z</time>
      </trkpt>
      <trkpt lat="44.41897" lon="6.73333">
        <ele>1212.7</ele>
        <time>2022-06-12T10:08:02Z</time>
      </trkpt>
      <trkpt lat="44.41901" lon="6.73337">
        <ele>1212.6</ele>
        <time>2022-06-12T10:08:03Z</time>
      </trkpt>
      <trkpt lat="44.41905" lon="6.73341">
        <ele>1212.6</ele>
        <time>2022-06-12T10:08:04Z</time>
      </trkpt>
      <trkpt lat="44.4191" lon="6.73345">
        <ele>1212.6</ele>
        <time>2022-06-12T10:08:05Z</time>
      </trkpt>
      <trkpt lat="44.41915" lon="6.73349">
        <ele>1212.6</ele>
        <time>2022-06-12T10:08:06Z</time>
      </trkpt>
      <trkpt lat="44.4192" lon="6.73353">
        <ele>1212.9</ele>
        <time>2022-06-12T10:08:07Z</time>
      </trkpt>
      <trkpt lat="44.41926" lon="6.73358">
        <ele>1213.2</ele>
        <time>2022-06-12T10:08:08Z</time>
      </trkpt>
      <trkpt lat="44.41931" lon="6.73363">
        <ele>1213.5</ele>
        <time>2022-06-12T10:08:09Z</time>
      </trkpt>
      <trkpt lat="44.41935" lon="6.73369">
        <ele>1213.7</ele>
        <time>2022-06-12T10:08:10Z</time>
      </trkpt>
      <trkpt lat="44.4194" lon="6.73376">
        <ele>1213.8</ele>
        <time>2022-06-12T10:08:11Z</time>
      </trkpt>
      <trkpt lat="44.41943" lon="6.73383">
        <ele>1214</ele>
        <time>2022-06-12T10:08:12Z</time>
      </trkpt>
      <trkpt lat="44.41947" lon="6.7339">
        <ele>1214.3</ele>
        <time>2022-06-12T10:08:13Z</time>
      </trkpt>
      <trkpt lat="44.41951" lon="6.73397">
        <ele>1214.6</ele>
        <time>2022-06-12T10:08:14Z</time>
      </trkpt>
      <trkpt lat="44.41954" lon="6.73405">
        <ele>1214.8</ele>
        <time>2022-06-12T10:08:15Z</time>
      </trkpt>
      <trkpt lat="44.41957" lon="6.73412">
        <ele>1214.9</ele>
        <time>2022-06-12T10:08:16Z</time>
      </trkpt>
      <trkpt lat="44.4196" lon="6.7342">
        <ele>1215</ele>
        <time>2022-06-12T10:08:17Z</time>
      </trkpt>
      <trkpt lat="44.41964" lon="6.73427">
        <ele>1214.9</ele>
        <time>2022-06-12T10:08:18Z</time>
      </trkpt>
      <trkpt lat="44.41967" lon="6.73434">
        <ele>1214.6</ele>
        <time>2022-06-12T10:08:19Z</time>
      </trkpt>
      <trkpt lat="44.4197" lon="6.73442">
        <ele>1214.2</ele>
        <time>2022-06-12T10:08:20Z</time>
      </trkpt>
      <trkpt lat="44.41974" lon="6.73449">
        <ele>1214.2</ele>
        <time>2022-06-12T10:08:21Z</time>
      </trkpt>
      <trkpt lat="44.41977" lon="6.73457">
        <ele>1214.5</ele>
        <time>2022-06-12T10:08:22Z</time>
      </trkpt>
      <trkpt lat="44.4198" lon="6.73465">
        <ele>1214.7</ele>
        <time>2022-06-12T10:08:23Z</time>
      </trkpt>
      <trkpt lat="44.41983" lon="6.73473">
        <ele>1214.8</ele>
        <time>2022-06-12T10:08:24Z</time>
      </trkpt>
      <trkpt lat="44.41986" lon="6.73481">
        <ele>1214.7</ele>
        <time>2022-06-12T10:08:25Z</time>
      </trkpt>
      <trkpt lat="44.41989" lon="6.73489">
        <ele>1214.5</ele>
        <time>2022-06-12T10:08:26Z</time>
      </trkpt>
      <trkpt lat="44.41991" lon="6.73497">
        <ele>1214.1</ele>
        <time>2022-06-12T10:08:27Z</time>
      </trkpt>
      <trkpt lat="44.41994" lon="6.73505">
        <ele>1214</ele>
        <time>2022-06-12T10:08:28Z</time>
      </trkpt>
      <trkpt lat="44.41996" lon="6.73513">
        <ele>1214</ele>
        <time>2022-06-12T10:08:29Z</time>
      </trkpt>
      <trkpt lat="44.41999" lon="6.73521">
        <ele>1214</ele>
        <time>2022-06-12T10:08:30Z</time>
      </trkpt>
      <trkpt lat="44.42001" lon="6.7353">
        <ele>1214</ele>
        <time>2022-06-12T10:08:31Z</time>
      </trkpt>
      <trkpt lat="44.42003" lon="6.73538">
        <ele>1214.1</ele>
        <time>2022-06-12T10:08:32Z</time>
      </trkpt>
      <trkpt lat="44.42006" lon="6.73546">
        <ele>1214.1</ele>
        <time>2022-06-12T10:08:33Z</time>
      </trkpt>
      <trkpt lat="44.42007" lon="6.73555">
        <ele>1214</ele>
        <time>2022-06-12T10:08:34Z</time>
      </trkpt>
      <trkpt lat="44.42008" lon="6.73563">
        <ele>1214</ele>
        <time>2022-06-12T10:08:35Z</time>
      </trkpt>
      <trkpt lat="44.42008" lon="6.73572">
        <ele>1214</ele>
        <time>2022-06-12T10:08:36Z</time>
      </trkpt>
      <trkpt lat="44.42008" lon="6.7358">
        <ele>1214</ele>
        <time>2022-06-12T10:08:37Z</time>
      </trkpt>
      <trkpt lat="44.42008" lon="6.73589">
        <ele>1214.2</ele>
        <time>2022-06-12T10:08:38Z</time>
      </trkpt>
      <trkpt lat="44.42008" lon="6.73597">
        <ele>1214.5</ele>
        <time>2022-06-12T10:08:39Z</time>
      </trkpt>
      <trkpt lat="44.42009" lon="6.73606">
        <ele>1214.8</ele>
        <time>2022-06-12T10:08:40Z</time>
      </trkpt>
      <trkpt lat="44.42011" lon="6.73614">
        <ele>1215.1</ele>
        <time>2022-06-12T10:08:41Z</time>
      </trkpt>
      <trkpt lat="44.42014" lon="6.73621">
        <ele>1215.3</ele>
        <time>2022-06-12T10:08:42Z</time>
      </trkpt>
      <trkpt lat="44.42017" lon="6.73628">
        <ele>1215.6</ele>
        <time>2022-06-12T10:08:43Z</time>
      </trkpt>
      <trkpt lat="44.42021" lon="6.73634">
        <ele>1215.8</ele>
        <time>2022-06-12T10:08:44Z</time>
      </trkpt>
      <trkpt lat="44.42026" lon="6.73639">
        <ele>1216</ele>
        <time>2022-06-12T10:08:45Z</time>
      </trkpt>
      <trkpt lat="44.42031" lon="6.73645">
        <ele>1216</ele>
        <time>2022-06-12T10:08:46Z</time>
      </trkpt>
      <trkpt lat="44.42036" lon="6.73649">
        <ele>1216</ele>
        <time>2022-06-12T10:08:47Z</time>
      </trkpt>
      <trkpt lat="44.42041" lon="6.73653">
        <ele>1216</ele>
        <time>2022-06-12T10:08:48Z</time>
      </trkpt>
      <trkpt lat="44.42046" lon="6.73658">
        <ele>1216</ele>
        <time>2022-06-12T10:08:49Z</time>
      </trkpt>
      <trkpt lat="44.42052" lon="6.73662">
        <ele>1216</ele>
        <time>2022-06-12T10:08:50Z</time>
      </trkpt>
      <trkpt lat="44.42057" lon="6.73666">
        <ele>1216</ele>
        <time>2022-06-12T10:08:51Z</time>
      </trkpt>
      <trkpt lat="44.42063" lon="6.73669">
        <ele>1216</ele>
        <time>2022-06-12T10:08:52Z</time>
      </trkpt>
      <trkpt lat="44.42068" lon="6.73672">
        <ele>1216</ele>
        <time>2022-06-12T10:08:53Z</time>
      </trkpt>
      <trkpt lat="44.42074" lon="6.73675">
        <ele>1216</ele>
        <time>2022-06-12T10:08:54Z</time>
      </trkpt>
      <trkpt lat="44.4208" lon="6.73677">
        <ele>1216</ele>
        <time>2022-06-12T10:08:55Z</time>
      </trkpt>
      <trkpt lat="44.42086" lon="6.73679">
        <ele>1216</ele>
        <time>2022-06-12T10:08:56Z</time>
      </trkpt>
      <trkpt lat="44.42091" lon="6.73682">
        <ele>1216.1</ele>
        <time>2022-06-12T10:08:57Z</time>
      </trkpt>
      <trkpt lat="44.42097" lon="6.73684">
        <ele>1216.3</ele>
        <time>2022-06-12T10:08:58Z</time>
      </trkpt>
      <trkpt lat="44.42102" lon="6.73687">
        <ele>1216.5</ele>
        <time>2022-06-12T10:08:59Z</time>
      </trkpt>
      <trkpt lat="44.42108" lon="6.7369">
        <ele>1216.7</ele>
        <time>2022-06-12T10:09:00Z</time>
      </trkpt>
      <trkpt lat="44.42114" lon="6.73693">
        <ele>1217</ele>
        <time>2022-06-12T10:09:01Z</time>
      </trkpt>
      <trkpt lat="44.42119" lon="6.73696">
        <ele>1217</ele>
        <time>2022-06-12T10:09:02Z</time>
      </trkpt>
      <trkpt lat="44.42125" lon="6.73698">
        <ele>1217</ele>
        <time>2022-06-12T10:09:03Z</time>
      </trkpt>
      <trkpt lat="44.42131" lon="6.737">
        <ele>1217</ele>
        <time>2022-06-12T10:09:04Z</time>
      </trkpt>
      <trkpt lat="44.42137" lon="6.73702">
        <ele>1217</ele>
        <time>2022-06-12T10:09:05Z</time>
      </trkpt>
      <trkpt lat="44.42143" lon="6.73705">
        <ele>1217</ele>
        <time>2022-06-12T10:09:06Z</time>
      </trkpt>
      <trkpt lat="44.42149" lon="6.73707">
        <ele>1217</ele>
        <time>2022-06-12T10:09:07Z</time>
      </trkpt>
      <trkpt lat="44.42155" lon="6.73709">
        <ele>1217</ele>
        <time>2022-06-12T10:09:08Z</time>
      </trkpt>
      <trkpt lat="44.42161" lon="6.73711">
        <ele>1217</ele>
        <time>2022-06-12T10:09:09Z</time>
      </trkpt>
      <trkpt lat="44.42167" lon="6.73712">
        <ele>1217</ele>
        <time>2022-06-12T10:09:10Z</time>
      </trkpt>
      <trkpt lat="44.42173" lon="6.73714">
        <ele>1217.2</ele>
        <time>2022-06-12T10:09:11Z</time>
      </trkpt>
      <trkpt lat="44.42179" lon="6.73716">
        <ele>1217.4</ele>
        <time>2022-06-12T10:09:12Z</time>
      </trkpt>
      <trkpt lat="44.42185" lon="6.73717">
        <ele>1217.7</ele>
        <time>2022-06-12T10:09:13Z</time>
      </trkpt>
      <trkpt lat="44.42191" lon="6.73719">
        <ele>1217.9</ele>
        <time>2022-06-12T10:09:14Z</time>
      </trkpt>
      <trkpt lat="44.42197" lon="6.7372">
        <ele>1218</ele>
        <time>2022-06-12T10:09:15Z</time>
      </trkpt>
      <trkpt lat="44.42203" lon="6.73721">
        <ele>1218</ele>
        <time>2022-06-12T10:09:16Z</time>
      </trkpt>
      <trkpt lat="44.42208" lon="6.73722">
        <ele>1218</ele>
        <time>2022-06-12T10:09:17Z</time>
      </trkpt>
      <trkpt lat="44.42214" lon="6.73723">
        <ele>1218</ele>
        <time>2022-06-12T10:09:18Z</time>
      </trkpt>
      <trkpt lat="44.42219" lon="6.73724">
        <ele>1218</ele>
        <time>2022-06-12T10:09:19Z</time>
      </trkpt>
      <trkpt lat="44.42225" lon="6.73724">
        <ele>1218</ele>
        <time>2022-06-12T10:09:20Z</time>
      </trkpt>
      <trkpt lat="44.42231" lon="6.73724">
        <ele>1218</ele>
        <time>2022-06-12T10:09:21Z</time>
      </trkpt>
      <trkpt lat="44.42236" lon="6.73724">
        <ele>1218</ele>
        <time>2022-06-12T10:09:22Z</time>
      </trkpt>
      <trkpt lat="44.42242" lon="6.73724">
        <ele>1218</ele>
        <time>2022-06-12T10:09:23Z</time>
      </trkpt>
      <trkpt lat="44.42248" lon="6.73724">
        <ele>1218</ele>
        <time>2022-06-12T10:09:24Z</time>
      </trkpt>
      <trkpt lat="44.42253" lon="6.73723">
        <ele>1218.1</ele>
        <time>2022-06-12T10:09:25Z</time>
      </trkpt>
      <trkpt lat="44.42259" lon="6.73722">
        <ele>1218.3</ele>
        <time>2022-06-12T10:09:26Z</time>
      </trkpt>
      <trkpt lat="44.42265" lon="6.73722">
        <ele>1218.5</ele>
        <time>2022-06-12T10:09:27Z</time>
      </trkpt>
      <trkpt lat="44.4227" lon="6.73722">
        <ele>1218.7</ele>
        <time>2022-06-12T10:09:28Z</time>
      </trkpt>
      <trkpt lat="44.42275" lon="6.73721">
        <ele>1218.9</ele>
        <time>2022-06-12T10:09:29Z</time>
      </trkpt>
      <trkpt lat="44.42281" lon="6.73721">
        <ele>1219.2</ele>
        <time>2022-06-12T10:09:30Z</time>
      </trkpt>
      <trkpt lat="44.42286" lon="6.73721">
        <ele>1219.6</ele>
        <time>2022-06-12T10:09:31Z</time>
      </trkpt>
      <trkpt lat="44.42291" lon="6.7372">
        <ele>1220</ele>
        <time>2022-06-12T10:09:32Z</time>
      </trkpt>
      <trkpt lat="44.42297" lon="6.7372">
        <ele>1220.4</ele>
        <time>2022-06-12T10:09:33Z</time>
      </trkpt>
      <trkpt lat="44.42302" lon="6.7372">
        <ele>1220.8</ele>
        <time>2022-06-12T10:09:34Z</time>
      </trkpt>
      <trkpt lat="44.42307" lon="6.7372">
        <ele>1221.1</ele>
        <time>2022-06-12T10:09:35Z</time>
      </trkpt>
      <trkpt lat="44.42312" lon="6.7372">
        <ele>1221.3</ele>
        <time>2022-06-12T10:09:36Z</time>
      </trkpt>
      <trkpt lat="44.42317" lon="6.7372">
        <ele>1221.6</ele>
        <time>2022-06-12T10:09:37Z</time>
      </trkpt>
      <trkpt lat="44.42322" lon="6.73719">
        <ele>1221.8</ele>
        <time>2022-06-12T10:09:38Z</time>
      </trkpt>
      <trkpt lat="44.42328" lon="6.73719">
        <ele>1222</ele>
        <time>2022-06-12T10:09:39Z</time>
      </trkpt>
      <trkpt lat="44.42333" lon="6.73719">
        <ele>1222.2</ele>
        <time>2022-06-12T10:09:40Z</time>
      </trkpt>
      <trkpt lat="44.42338" lon="6.73718">
        <ele>1222.6</ele>
        <time>2022-06-12T10:09:41Z</time>
      </trkpt>
      <trkpt lat="44.42342" lon="6.73718">
        <ele>1222.9</ele>
        <time>2022-06-12T10:09:42Z</time>
      </trkpt>
      <trkpt lat="44.42347" lon="6.73718">
        <ele>1223.3</ele>
        <time>2022-06-12T10:09:43Z</time>
      </trkpt>
      <trkpt lat="44.42352" lon="6.73718">
        <ele>1223.6</ele>
        <time>2022-06-12T10:09:44Z</time>
      </trkpt>
      <trkpt lat="44.42357" lon="6.73717">
        <ele>1223.9</ele>
        <time>2022-06-12T10:09:45Z</time>
      </trkpt>
      <trkpt lat="44.42362" lon="6.73717">
        <ele>1224.2</ele>
        <time>2022-06-12T10:09:46Z</time>
      </trkpt>
      <trkpt lat="44.42367" lon="6.73716">
        <ele>1224.4</ele>
        <time>2022-06-12T10:09:47Z</time>
      </trkpt>
      <trkpt lat="44.42371" lon="6.73716">
        <ele>1224.6</ele>
        <time>2022-06-12T10:09:48Z</time>
      </trkpt>
      <trkpt lat="44.42376" lon="6.73716">
        <ele>1224.8</ele>
        <time>2022-06-12T10:09:49Z</time>
      </trkpt>
      <trkpt lat="44.42381" lon="6.73715">
        <ele>1225</ele>
        <time>2022-06-12T10:09:50Z</time>
      </trkpt>
      <trkpt lat="44.42386" lon="6.73715">
        <ele>1225.1</ele>
        <time>2022-06-12T10:09:51Z</time>
      </trkpt>
      <trkpt lat="44.4239" lon="6.73715">
        <ele>1225.3</ele>
        <time>2022-06-12T10:09:52Z</time>
      </trkpt>
      <trkpt lat="44.42395" lon="6.73714">
        <ele>1225.5</ele>
        <time>2022-06-12T10:09:53Z</time>
      </trkpt>
      <trkpt lat="44.424" lon="6.73714">
        <ele>1225.7</ele>
        <time>2022-06-12T10:09:54Z</time>
      </trkpt>
      <trkpt lat="44.42405" lon="6.73714">
        <ele>1225.9</ele>
        <time>2022-06-12T10:09:55Z</time>
      </trkpt>
      <trkpt lat="44.4241" lon="6.73713">
        <ele>1226.1</ele>
        <time>2022-06-12T10:09:56Z</time>
      </trkpt>
      <trkpt lat="44.42415" lon="6.73713">
        <ele>1226.3</ele>
        <time>2022-06-12T10:09:57Z</time>
      </trkpt>
      <trkpt lat="44.4242" lon="6.73713">
        <ele>1226.4</ele>
        <time>2022-06-12T10:09:58Z</time>
      </trkpt>
      <trkpt lat="44.42425" lon="6.73713">
        <ele>1226.5</ele>
        <time>2022-06-12T10:09:59Z</time>
      </trkpt>
      <trkpt lat="44.4243" lon="6.73713">
        <ele>1226.7</ele>
        <time>2022-06-12T10:10:00Z</time>
      </trkpt>
      <trkpt lat="44.42435" lon="6.73713">
        <ele>1226.8</ele>
        <time>2022-06-12T10:10:01Z</time>
      </trkpt>
      <trkpt lat="44.4244" lon="6.73712">
        <ele>1226.9</ele>
        <time>2022-06-12T10:10:02Z</time>
      </trkpt>
      <trkpt lat="44.42446" lon="6.73712">
        <ele>1227</ele>
        <time>2022-06-12T10:10:03Z</time>
      </trkpt>
      <trkpt lat="44.42451" lon="6.73712">
        <ele>1227.2</ele>
        <time>2022-06-12T10:10:04Z</time>
      </trkpt>
      <trkpt lat="44.42457" lon="6.73712">
        <ele>1227.4</ele>
        <time>2022-06-12T10:10:05Z</time>
      </trkpt>
      <trkpt lat="44.42462" lon="6.73712">
        <ele>1227.6</ele>
        <time>2022-06-12T10:10:06Z</time>
      </trkpt>
      <trkpt lat="44.42467" lon="6.73712">
        <ele>1227.8</ele>
        <time>2022-06-12T10:10:07Z</time>
      </trkpt>
      <trkpt lat="44.42473" lon="6.73712">
        <ele>1228</ele>
        <time>2022-06-12T10:10:08Z</time>
      </trkpt>
      <trkpt lat="44.42478" lon="6.73712">
        <ele>1228.1</ele>
        <time>2022-06-12T10:10:09Z</time>
      </trkpt>
      <trkpt lat="44.42483" lon="6.73712">
        <ele>1228.1</ele>
        <time>2022-06-12T10:10:10Z</time>
      </trkpt>
      <trkpt lat="44.42489" lon="6.73712">
        <ele>1228.2</ele>
        <time>2022-06-12T10:10:11Z</time>
      </trkpt>
      <trkpt lat="44.42494" lon="6.73711">
        <ele>1228.3</ele>
        <time>2022-06-12T10:10:12Z</time>
      </trkpt>
      <trkpt lat="44.42499" lon="6.73711">
        <ele>1228.4</ele>
        <time>2022-06-12T10:10:13Z</time>
      </trkpt>
      <trkpt lat="44.42505" lon="6.73711">
        <ele>1228.4</ele>
        <time>2022-06-12T10:10:14Z</time>
      </trkpt>
      <trkpt lat="44.42511" lon="6.73711">
        <ele>1228.4</ele>
        <time>2022-06-12T10:10:15Z</time>
      </trkpt>
      <trkpt lat="44.42516" lon="6.7371">
        <ele>1228.4</ele>
        <time>2022-06-12T10:10:16Z</time>
      </trkpt>
      <trkpt lat="44.42522" lon="6.7371">
        <ele>1228.4</ele>
        <time>2022-06-12T10:10:17Z</time>
      </trkpt>
      <trkpt lat="44.42528" lon="6.7371">
        <ele>1228.5</ele>
        <time>2022-06-12T10:10:18Z</time>
      </trkpt>
      <trkpt lat="44.42534" lon="6.7371">
        <ele>1228.5</ele>
        <time>2022-06-12T10:10:19Z</time>
      </trkpt>
      <trkpt lat="44.4254" lon="6.73711">
        <ele>1228.6</ele>
        <time>2022-06-12T10:10:20Z</time>
      </trkpt>
      <trkpt lat="44.42546" lon="6.73711">
        <ele>1228.7</ele>
        <time>2022-06-12T10:10:21Z</time>
      </trkpt>
      <trkpt lat="44.42552" lon="6.73711">
        <ele>1228.8</ele>
        <time>2022-06-12T10:10:22Z</time>
      </trkpt>
      <trkpt lat="44.42558" lon="6.73711">
        <ele>1228.8</ele>
        <time>2022-06-12T10:10:23Z</time>
      </trkpt>
      <trkpt lat="44.42564" lon="6.7371">
        <ele>1228.9</ele>
        <time>2022-06-12T10:10:24Z</time>
      </trkpt>
      <trkpt lat="44.4257" lon="6.73711">
        <ele>1228.8</ele>
        <time>2022-06-12T10:10:25Z</time>
      </trkpt>
      <trkpt lat="44.42576" lon="6.73711">
        <ele>1228.8</ele>
        <time>2022-06-12T10:10:26Z</time>
      </trkpt>
      <trkpt lat="44.42582" lon="6.7371">
        <ele>1228.9</ele>
        <time>2022-06-12T10:10:27Z</time>
      </trkpt>
      <trkpt lat="44.42587" lon="6.73709">
        <ele>1229</ele>
        <time>2022-06-12T10:10:28Z</time>
      </trkpt>
      <trkpt lat="44.42593" lon="6.73709">
        <ele>1229.2</ele>
        <time>2022-06-12T10:10:29Z</time>
      </trkpt>
      <trkpt lat="44.42599" lon="6.73708">
        <ele>1229.3</ele>
        <time>2022-06-12T10:10:30Z</time>
      </trkpt>
      <trkpt lat="44.42606" lon="6.73708">
        <ele>1229.4</ele>
        <time>2022-06-12T10:10:31Z</time>
      </trkpt>
      <trkpt lat="44.42612" lon="6.73707">
        <ele>1229.5</ele>
        <time>2022-06-12T10:10:32Z</time>
      </trkpt>
      <trkpt lat="44.42618" lon="6.73706">
        <ele>1229.5</ele>
        <time>2022-06-12T10:10:33Z</time>
      </trkpt>
      <trkpt lat="44.42625" lon="6.73706">
        <ele>1229.4</ele>
        <time>2022-06-12T10:10:34Z</time>
      </trkpt>
      <trkpt lat="44.42631" lon="6.73706">
        <ele>1229.3</ele>
        <time>2022-06-12T10:10:35Z</time>
      </trkpt>
      <trkpt lat="44.42637" lon="6.73706">
        <ele>1229.2</ele>
        <time>2022-06-12T10:10:36Z</time>
      </trkpt>
      <trkpt lat="44.42644" lon="6.73705">
        <ele>1229</ele>
        <time>2022-06-12T10:10:37Z</time>
      </trkpt>
      <trkpt lat="44.4265" lon="6.73704">
        <ele>1228.7</ele>
        <time>2022-06-12T10:10:38Z</time>
      </trkpt>
      <trkpt lat="44.42657" lon="6.73704">
        <ele>1228.5</ele>
        <time>2022-06-12T10:10:39Z</time>
      </trkpt>
      <trkpt lat="44.42663" lon="6.73704">
        <ele>1228.2</ele>
        <time>2022-06-12T10:10:40Z</time>
      </trkpt>
      <trkpt lat="44.42669" lon="6.73703">
        <ele>1228</ele>
        <time>2022-06-12T10:10:41Z</time>
      </trkpt>
      <trkpt lat="44.42676" lon="6.73703">
        <ele>1228.1</ele>
        <time>2022-06-12T10:10:42Z</time>
      </trkpt>
      <trkpt lat="44.42682" lon="6.73702">
        <ele>1228.2</ele>
        <time>2022-06-12T10:10:43Z</time>
      </trkpt>
      <trkpt lat="44.42688" lon="6.73702">
        <ele>1228.2</ele>
        <time>2022-06-12T10:10:44Z</time>
      </trkpt>
      <trkpt lat="44.42694" lon="6.73701">
        <ele>1228.3</ele>
        <time>2022-06-12T10:10:45Z</time>
      </trkpt>
      <trkpt lat="44.42701" lon="6.73701">
        <ele>1228.1</ele>
        <time>2022-06-12T10:10:46Z</time>
      </trkpt>
      <trkpt lat="44.42707" lon="6.737">
        <ele>1228</ele>
        <time>2022-06-12T10:10:47Z</time>
      </trkpt>
      <trkpt lat="44.42713" lon="6.73699">
        <ele>1227.9</ele>
        <time>2022-06-12T10:10:48Z</time>
      </trkpt>
      <trkpt lat="44.42719" lon="6.73698">
        <ele>1227.8</ele>
        <time>2022-06-12T10:10:49Z</time>
      </trkpt>
      <trkpt lat="44.42725" lon="6.73697">
        <ele>1227.8</ele>
        <time>2022-06-12T10:10:50Z</time>
      </trkpt>
      <trkpt lat="44.42731" lon="6.73696">
        <ele>1227.9</ele>
        <time>2022-06-12T10:10:51Z</time>
      </trkpt>
      <trkpt lat="44.42738" lon="6.73694">
        <ele>1228.1</ele>
        <time>2022-06-12T10:10:52Z</time>
      </trkpt>
      <trkpt lat="44.42744" lon="6.73692">
        <ele>1228.4</ele>
        <time>2022-06-12T10:10:53Z</time>
      </trkpt>
      <trkpt lat="44.4275" lon="6.7369">
        <ele>1228.7</ele>
        <time>2022-06-12T10:10:54Z</time>
      </trkpt>
      <trkpt lat="44.42756" lon="6.73687">
        <ele>1228.8</ele>
        <time>2022-06-12T10:10:55Z</time>
      </trkpt>
      <trkpt lat="44.42762" lon="6.73684">
        <ele>1228.9</ele>
        <time>2022-06-12T10:10:56Z</time>
      </trkpt>
      <trkpt lat="44.42769" lon="6.73681">
        <ele>1228.9</ele>
        <time>2022-06-12T10:10:57Z</time>
      </trkpt>
      <trkpt lat="44.42775" lon="6.73678">
        <ele>1228.9</ele>
        <time>2022-06-12T10:10:58Z</time>
      </trkpt>
      <trkpt lat="44.42781" lon="6.73675">
        <ele>1229</ele>
        <time>2022-06-12T10:10:59Z</time>
      </trkpt>
      <trkpt lat="44.42788" lon="6.73672">
        <ele>1229.1</ele>
        <time>2022-06-12T10:11:00Z</time>
      </trkpt>
      <trkpt lat="44.42794" lon="6.73669">
        <ele>1229.2</ele>
        <time>2022-06-12T10:11:01Z</time>
      </trkpt>
      <trkpt lat="44.428" lon="6.73665">
        <ele>1229.5</ele>
        <time>2022-06-12T10:11:02Z</time>
      </trkpt>
      <trkpt lat="44.42806" lon="6.73662">
        <ele>1229.8</ele>
        <time>2022-06-12T10:11:03Z</time>
      </trkpt>
      <trkpt lat="44.42813" lon="6.73659">
        <ele>1229.8</ele>
        <time>2022-06-12T10:11:04Z</time>
      </trkpt>
      <trkpt lat="44.42819" lon="6.73657">
        <ele>1229.8</ele>
        <time>2022-06-12T10:11:05Z</time>
      </trkpt>
      <trkpt lat="44.42826" lon="6.73654">
        <ele>1229.9</ele>
        <time>2022-06-12T10:11:06Z</time>
      </trkpt>
      <trkpt lat="44.42832" lon="6.73651">
        <ele>1230</ele>
        <time>2022-06-12T10:11:07Z</time>
      </trkpt>
      <trkpt lat="44.42838" lon="6.73648">
        <ele>1230.2</ele>
        <time>2022-06-12T10:11:08Z</time>
      </trkpt>
      <trkpt lat="44.42845" lon="6.73646">
        <ele>1230.5</ele>
        <time>2022-06-12T10:11:09Z</time>
      </trkpt>
      <trkpt lat="44.42852" lon="6.73643">
        <ele>1230.7</ele>
        <time>2022-06-12T10:11:10Z</time>
      </trkpt>
      <trkpt lat="44.42858" lon="6.73641">
        <ele>1230.8</ele>
        <time>2022-06-12T10:11:11Z</time>
      </trkpt>
      <trkpt lat="44.42865" lon="6.73639">
        <ele>1230.8</ele>
        <time>2022-06-12T10:11:12Z</time>
      </trkpt>
      <trkpt lat="44.42871" lon="6.73638">
        <ele>1231</ele>
        <time>2022-06-12T10:11:13Z</time>
      </trkpt>
      <trkpt lat="44.42877" lon="6.73637">
        <ele>1231</ele>
        <time>2022-06-12T10:11:14Z</time>
      </trkpt>
      <trkpt lat="44.42884" lon="6.73636">
        <ele>1231</ele>
        <time>2022-06-12T10:11:15Z</time>
      </trkpt>
      <trkpt lat="44.4289" lon="6.73635">
        <ele>1231</ele>
        <time>2022-06-12T10:11:16Z</time>
      </trkpt>
      <trkpt lat="44.42896" lon="6.73635">
        <ele>1231.1</ele>
        <time>2022-06-12T10:11:17Z</time>
      </trkpt>
      <trkpt lat="44.42903" lon="6.73635">
        <ele>1231.1</ele>
        <time>2022-06-12T10:11:18Z</time>
      </trkpt>
      <trkpt lat="44.42909" lon="6.73636">
        <ele>1230.8</ele>
        <time>2022-06-12T10:11:19Z</time>
      </trkpt>
      <trkpt lat="44.42915" lon="6.73637">
        <ele>1230.6</ele>
        <time>2022-06-12T10:11:20Z</time>
      </trkpt>
      <trkpt lat="44.42922" lon="6.73638">
        <ele>1230.6</ele>
        <time>2022-06-12T10:11:21Z</time>
      </trkpt>
      <trkpt lat="44.42928" lon="6.73639">
        <ele>1230.8</ele>
        <time>2022-06-12T10:11:22Z</time>
      </trkpt>
      <trkpt lat="44.42934" lon="6.73641">
        <ele>1231</ele>
        <time>2022-06-12T10:11:23Z</time>
      </trkpt>
      <trkpt lat="44.42941" lon="6.73644">
        <ele>1231.1</ele>
        <time>2022-06-12T10:11:24Z</time>
      </trkpt>
      <trkpt lat="44.42947" lon="6.73646">
        <ele>1231.1</ele>
        <time>2022-06-12T10:11:25Z</time>
      </trkpt>
      <trkpt lat="44.42953" lon="6.7365">
        <ele>1231.1</ele>
        <time>2022-06-12T10:11:26Z</time>
      </trkpt>
      <trkpt lat="44.42959" lon="6.73653">
        <ele>1231</ele>
        <time>2022-06-12T10:11:27Z</time>
      </trkpt>
      <trkpt lat="44.42966" lon="6.73658">
        <ele>1230.8</ele>
        <time>2022-06-12T10:11:28Z</time>
      </trkpt>
      <trkpt lat="44.42972" lon="6.73662">
        <ele>1230.6</ele>
        <time>2022-06-12T10:11:29Z</time>
      </trkpt>
      <trkpt lat="44.42978" lon="6.73667">
        <ele>1230.9</ele>
        <time>2022-06-12T10:11:30Z</time>
      </trkpt>
      <trkpt lat="44.42983" lon="6.73672">
        <ele>1231.5</ele>
        <time>2022-06-12T10:11:31Z</time>
      </trkpt>
      <trkpt lat="44.42988" lon="6.73678">
        <ele>1231.9</ele>
        <time>2022-06-12T10:11:32Z</time>
      </trkpt>
      <trkpt lat="44.42993" lon="6.73683">
        <ele>1232</ele>
        <time>2022-06-12T10:11:33Z</time>
      </trkpt>
      <trkpt lat="44.42997" lon="6.73688">
        <ele>1232.2</ele>
        <time>2022-06-12T10:11:34Z</time>
      </trkpt>
      <trkpt lat="44.43001" lon="6.73694">
        <ele>1232.3</ele>
        <time>2022-06-12T10:11:35Z</time>
      </trkpt>
      <trkpt lat="44.43006" lon="6.737">
        <ele>1233</ele>
        <time>2022-06-12T10:11:36Z</time>
      </trkpt>
      <trkpt lat="44.4301" lon="6.73706">
        <ele>1233.3</ele>
        <time>2022-06-12T10:11:37Z</time>
      </trkpt>
      <trkpt lat="44.43014" lon="6.73712">
        <ele>1233.5</ele>
        <time>2022-06-12T10:11:38Z</time>
      </trkpt>
      <trkpt lat="44.43018" lon="6.73719">
        <ele>1233.6</ele>
        <time>2022-06-12T10:11:39Z</time>
      </trkpt>
      <trkpt lat="44.43021" lon="6.73726">
        <ele>1233.4</ele>
        <time>2022-06-12T10:11:40Z</time>
      </trkpt>
      <trkpt lat="44.43025" lon="6.73733">
        <ele>1233.1</ele>
        <time>2022-06-12T10:11:41Z</time>
      </trkpt>
      <trkpt lat="44.43029" lon="6.7374">
        <ele>1232.7</ele>
        <time>2022-06-12T10:11:42Z</time>
      </trkpt>
      <trkpt lat="44.43033" lon="6.73747">
        <ele>1232.3</ele>
        <time>2022-06-12T10:11:43Z</time>
      </trkpt>
      <trkpt lat="44.43036" lon="6.73754">
        <ele>1232.2</ele>
        <time>2022-06-12T10:11:44Z</time>
      </trkpt>
      <trkpt lat="44.4304" lon="6.73761">
        <ele>1232.2</ele>
        <time>2022-06-12T10:11:45Z</time>
      </trkpt>
      <trkpt lat="44.43043" lon="6.73768">
        <ele>1232</ele>
        <time>2022-06-12T10:11:46Z</time>
      </trkpt>
      <trkpt lat="44.43047" lon="6.73775">
        <ele>1231.7</ele>
        <time>2022-06-12T10:11:47Z</time>
      </trkpt>
      <trkpt lat="44.4305" lon="6.73782">
        <ele>1231.3</ele>
        <time>2022-06-12T10:11:48Z</time>
      </trkpt>
      <trkpt lat="44.43053" lon="6.73789">
        <ele>1231</ele>
        <time>2022-06-12T10:11:49Z</time>
      </trkpt>
      <trkpt lat="44.43056" lon="6.73796">
        <ele>1230.8</ele>
        <time>2022-06-12T10:11:50Z</time>
      </trkpt>
      <trkpt lat="44.43059" lon="6.73802">
        <ele>1230.7</ele>
        <time>2022-06-12T10:11:51Z</time>
      </trkpt>
      <trkpt lat="44.43062" lon="6.73808">
        <ele>1230.7</ele>
        <time>2022-06-12T10:11:52Z</time>
      </trkpt>
      <trkpt lat="44.43066" lon="6.73814">
        <ele>1230.9</ele>
        <time>2022-06-12T10:11:53Z</time>
      </trkpt>
      <trkpt lat="44.43069" lon="6.73819">
        <ele>1231</ele>
        <time>2022-06-12T10:11:54Z</time>
      </trkpt>
      <trkpt lat="44.43072" lon="6.73823">
        <ele>1231</ele>
        <time>2022-06-12T10:11:55Z</time>
      </trkpt>
      <trkpt lat="44.43076" lon="6.73828">
        <ele>1231</ele>
        <time>2022-06-12T10:11:56Z</time>
      </trkpt>
      <trkpt lat="44.4308" lon="6.73833">
        <ele>1230.9</ele>
        <time>2022-06-12T10:11:57Z</time>
      </trkpt>
      <trkpt lat="44.43084" lon="6.73837">
        <ele>1230.8</ele>
        <time>2022-06-12T10:11:58Z</time>
      </trkpt>
      <trkpt lat="44.43089" lon="6.73842">
        <ele>1231</ele>
        <time>2022-06-12T10:11:59Z</time>
      </trkpt>
      <trkpt lat="44.43094" lon="6.73845">
        <ele>1231.1</ele>
        <time>2022-06-12T10:12:00Z</time>
      </trkpt>
      <trkpt lat="44.43099" lon="6.73849">
        <ele>1231.3</ele>
        <time>2022-06-12T10:12:01Z</time>
      </trkpt>
      <trkpt lat="44.43105" lon="6.73852">
        <ele>1231.5</ele>
        <time>2022-06-12T10:12:02Z</time>
      </trkpt>
      <trkpt lat="44.43111" lon="6.73854">
        <ele>1231.7</ele>
        <time>2022-06-12T10:12:03Z</time>
      </trkpt>
      <trkpt lat="44.43116" lon="6.73857">
        <ele>1232</ele>
        <time>2022-06-12T10:12:04Z</time>
      </trkpt>
      <trkpt lat="44.43122" lon="6.73859">
        <ele>1232.1</ele>
        <time>2022-06-12T10:12:05Z</time>
      </trkpt>
      <trkpt lat="44.43128" lon="6.73861">
        <ele>1232.3</ele>
        <time>2022-06-12T10:12:06Z</time>
      </trkpt>
      <trkpt lat="44.43134" lon="6.73862">
        <ele>1232.5</ele>
        <time>2022-06-12T10:12:07Z</time>
      </trkpt>
      <trkpt lat="44.4314" lon="6.73864">
        <ele>1232.8</ele>
        <time>2022-06-12T10:12:08Z</time>
      </trkpt>
      <trkpt lat="44.43146" lon="6.73866">
        <ele>1233.8</ele>
        <time>2022-06-12T10:12:09Z</time>
      </trkpt>
      <trkpt lat="44.43153" lon="6.73869">
        <ele>1234.6</ele>
        <time>2022-06-12T10:12:10Z</time>
      </trkpt>
      <trkpt lat="44.43158" lon="6.73872">
        <ele>1235.2</ele>
        <time>2022-06-12T10:12:11Z</time>
      </trkpt>
      <trkpt lat="44.43164" lon="6.73875">
        <ele>1235.5</ele>
        <time>2022-06-12T10:12:12Z</time>
      </trkpt>
      <trkpt lat="44.43169" lon="6.73879">
        <ele>1236.5</ele>
        <time>2022-06-12T10:12:13Z</time>
      </trkpt>
      <trkpt lat="44.43174" lon="6.73884">
        <ele>1238.3</ele>
        <time>2022-06-12T10:12:14Z</time>
      </trkpt>
      <trkpt lat="44.43179" lon="6.73889">
        <ele>1239.3</ele>
        <time>2022-06-12T10:12:15Z</time>
      </trkpt>
      <trkpt lat="44.43183" lon="6.73894">
        <ele>1240.1</ele>
        <time>2022-06-12T10:12:16Z</time>
      </trkpt>
      <trkpt lat="44.43187" lon="6.739">
        <ele>1240.2</ele>
        <time>2022-06-12T10:12:17Z</time>
      </trkpt>
      <trkpt lat="44.4319" lon="6.73906">
        <ele>1239.6</ele>
        <time>2022-06-12T10:12:18Z</time>
      </trkpt>
      <trkpt lat="44.43193" lon="6.73913">
        <ele>1238.9</ele>
        <time>2022-06-12T10:12:19Z</time>
      </trkpt>
      <trkpt lat="44.43196" lon="6.73919">
        <ele>1238.7</ele>
        <time>2022-06-12T10:12:20Z</time>
      </trkpt>
      <trkpt lat="44.432" lon="6.73926">
        <ele>1239.3</ele>
        <time>2022-06-12T10:12:21Z</time>
      </trkpt>
      <trkpt lat="44.43202" lon="6.73933">
        <ele>1238.8</ele>
        <time>2022-06-12T10:12:22Z</time>
      </trkpt>
      <trkpt lat="44.43204" lon="6.73939">
        <ele>1238.5</ele>
        <time>2022-06-12T10:12:23Z</time>
      </trkpt>
      <trkpt lat="44.43207" lon="6.73944">
        <ele>1238.3</ele>
        <time>2022-06-12T10:12:24Z</time>
      </trkpt>
      <trkpt lat="44.43211" lon="6.73949">
        <ele>1238.3</ele>
        <time>2022-06-12T10:12:25Z</time>
      </trkpt>
      <trkpt lat="44.43214" lon="6.73955">
        <ele>1238</ele>
        <time>2022-06-12T10:12:26Z</time>
      </trkpt>
      <trkpt lat="44.43217" lon="6.73961">
        <ele>1237.5</ele>
        <time>2022-06-12T10:12:27Z</time>
      </trkpt>
      <trkpt lat="44.4322" lon="6.73967">
        <ele>1236.8</ele>
        <time>2022-06-12T10:12:28Z</time>
      </trkpt>
      <trkpt lat="44.43223" lon="6.73973">
        <ele>1236.2</ele>
        <time>2022-06-12T10:12:29Z</time>
      </trkpt>
      <trkpt lat="44.43226" lon="6.73979">
        <ele>1236.6</ele>
        <time>2022-06-12T10:12:30Z</time>
      </trkpt>
      <trkpt lat="44.4323" lon="6.73986">
        <ele>1236.7</ele>
        <time>2022-06-12T10:12:31Z</time>
      </trkpt>
      <trkpt lat="44.43233" lon="6.73992">
        <ele>1236.5</ele>
        <time>2022-06-12T10:12:32Z</time>
      </trkpt>
      <trkpt lat="44.43235" lon="6.73998">
        <ele>1236.1</ele>
        <time>2022-06-12T10:12:33Z</time>
      </trkpt>
      <trkpt lat="44.43238" lon="6.74004">
        <ele>1236.1</ele>
        <time>2022-06-12T10:12:34Z</time>
      </trkpt>
      <trkpt lat="44.43241" lon="6.74009">
        <ele>1236</ele>
        <time>2022-06-12T10:12:35Z</time>
      </trkpt>
      <trkpt lat="44.43243" lon="6.74014">
        <ele>1235.9</ele>
        <time>2022-06-12T10:12:36Z</time>
      </trkpt>
      <trkpt lat="44.43246" lon="6.74018">
        <ele>1235.9</ele>
        <time>2022-06-12T10:12:37Z</time>
      </trkpt>
      <trkpt lat="44.43249" lon="6.74023">
        <ele>1235.7</ele>
        <time>2022-06-12T10:12:38Z</time>
      </trkpt>
      <trkpt lat="44.43252" lon="6.74027">
        <ele>1235.6</ele>
        <time>2022-06-12T10:12:39Z</time>
      </trkpt>
      <trkpt lat="44.43256" lon="6.74032">
        <ele>1235.7</ele>
        <time>2022-06-12T10:12:40Z</time>
      </trkpt>
      <trkpt lat="44.43259" lon="6.74036">
        <ele>1235.7</ele>
        <time>2022-06-12T10:12:41Z</time>
      </trkpt>
      <trkpt lat="44.43263" lon="6.7404">
        <ele>1235.7</ele>
        <time>2022-06-12T10:12:42Z</time>
      </trkpt>
      <trkpt lat="44.43266" lon="6.74045">
        <ele>1235.7</ele>
        <time>2022-06-12T10:12:43Z</time>
      </trkpt>
      <trkpt lat="44.4327" lon="6.74049">
        <ele>1235.5</ele>
        <time>2022-06-12T10:12:44Z</time>
      </trkpt>
      <trkpt lat="44.43274" lon="6.74052">
        <ele>1235.3</ele>
        <time>2022-06-12T10:12:45Z</time>
      </trkpt>
      <trkpt lat="44.43278" lon="6.74056">
        <ele>1235</ele>
        <time>2022-06-12T10:12:46Z</time>
      </trkpt>
      <trkpt lat="44.43283" lon="6.7406">
        <ele>1235.4</ele>
        <time>2022-06-12T10:12:47Z</time>
      </trkpt>
      <trkpt lat="44.43288" lon="6.74064">
        <ele>1235.7</ele>
        <time>2022-06-12T10:12:48Z</time>
      </trkpt>
      <trkpt lat="44.43293" lon="6.74067">
        <ele>1236</ele>
        <time>2022-06-12T10:12:49Z</time>
      </trkpt>
      <trkpt lat="44.43298" lon="6.74071">
        <ele>1236.2</ele>
        <time>2022-06-12T10:12:50Z</time>
      </trkpt>
      <trkpt lat="44.43303" lon="6.74075">
        <ele>1236.2</ele>
        <time>2022-06-12T10:12:51Z</time>
      </trkpt>
      <trkpt lat="44.43309" lon="6.74079">
        <ele>1236.4</ele>
        <time>2022-06-12T10:12:52Z</time>
      </trkpt>
      <trkpt lat="44.43314" lon="6.74083">
        <ele>1236.6</ele>
        <time>2022-06-12T10:12:53Z</time>
      </trkpt>
      <trkpt lat="44.43319" lon="6.74087">
        <ele>1237.1</ele>
        <time>2022-06-12T10:12:54Z</time>
      </trkpt>
      <trkpt lat="44.43324" lon="6.74091">
        <ele>1237.4</ele>
        <time>2022-06-12T10:12:55Z</time>
      </trkpt>
      <trkpt lat="44.43329" lon="6.74096">
        <ele>1237.6</ele>
        <time>2022-06-12T10:12:56Z</time>
      </trkpt>
      <trkpt lat="44.43334" lon="6.74101">
        <ele>1237.6</ele>
        <time>2022-06-12T10:12:57Z</time>
      </trkpt>
      <trkpt lat="44.43338" lon="6.74106">
        <ele>1237.5</ele>
        <time>2022-06-12T10:12:58Z</time>
      </trkpt>
      <trkpt lat="44.43343" lon="6.74111">
        <ele>1237.1</ele>
        <time>2022-06-12T10:12:59Z</time>
      </trkpt>
      <trkpt lat="44.43347" lon="6.74116">
        <ele>1237</ele>
        <time>2022-06-12T10:13:00Z</time>
      </trkpt>
      <trkpt lat="44.43351" lon="6.74122">
        <ele>1236.9</ele>
        <time>2022-06-12T10:13:01Z</time>
      </trkpt>
      <trkpt lat="44.43355" lon="6.74127">
        <ele>1236.7</ele>
        <time>2022-06-12T10:13:02Z</time>
      </trkpt>
      <trkpt lat="44.43358" lon="6.74133">
        <ele>1236.4</ele>
        <time>2022-06-12T10:13:03Z</time>
      </trkpt>
      <trkpt lat="44.43361" lon="6.74139">
        <ele>1236</ele>
        <time>2022-06-12T10:13:04Z</time>
      </trkpt>
      <trkpt lat="44.43364" lon="6.74144">
        <ele>1236</ele>
        <time>2022-06-12T10:13:05Z</time>
      </trkpt>
      <trkpt lat="44.43366" lon="6.7415">
        <ele>1235.8</ele>
        <time>2022-06-12T10:13:06Z</time>
      </trkpt>
      <trkpt lat="44.43367" lon="6.74156">
        <ele>1235.5</ele>
        <time>2022-06-12T10:13:07Z</time>
      </trkpt>
      <trkpt lat="44.43367" lon="6.7416">
        <ele>1235.4</ele>
        <time>2022-06-12T10:13:08Z</time>
      </trkpt>
      <trkpt lat="44.43367" lon="6.74163">
        <ele>1235.2</ele>
        <time>2022-06-12T10:13:09Z</time>
      </trkpt>
      <trkpt lat="44.43367" lon="6.74166">
        <ele>1235.1</ele>
        <time>2022-06-12T10:13:10Z</time>
      </trkpt>
      <trkpt lat="44.43368" lon="6.74169">
        <ele>1235</ele>
        <time>2022-06-12T10:13:11Z</time>
      </trkpt>
      <trkpt lat="44.43368" lon="6.74174">
        <ele>1235.1</ele>
        <time>2022-06-12T10:13:12Z</time>
      </trkpt>
      <trkpt lat="44.43369" lon="6.74179">
        <ele>1235.1</ele>
        <time>2022-06-12T10:13:13Z</time>
      </trkpt>
      <trkpt lat="44.4337" lon="6.74185">
        <ele>1235.2</ele>
        <time>2022-06-12T10:13:14Z</time>
      </trkpt>
      <trkpt lat="44.4337" lon="6.74191">
        <ele>1235.3</ele>
        <time>2022-06-12T10:13:15Z</time>
      </trkpt>
      <trkpt lat="44.43371" lon="6.74196">
        <ele>1235.3</ele>
        <time>2022-06-12T10:13:16Z</time>
      </trkpt>
      <trkpt lat="44.43371" lon="6.74202">
        <ele>1235.4</ele>
        <time>2022-06-12T10:13:17Z</time>
      </trkpt>
      <trkpt lat="44.43371" lon="6.74207">
        <ele>1235.3</ele>
        <time>2022-06-12T10:13:18Z</time>
      </trkpt>
      <trkpt lat="44.4337" lon="6.74211">
        <ele>1235.3</ele>
        <time>2022-06-12T10:13:19Z</time>
      </trkpt>
      <trkpt lat="44.4337" lon="6.74214">
        <ele>1235.3</ele>
        <time>2022-06-12T10:13:20Z</time>
      </trkpt>
      <trkpt lat="44.43369" lon="6.74217">
        <ele>1235.3</ele>
        <time>2022-06-12T10:13:21Z</time>
      </trkpt>
      <trkpt lat="44.43368" lon="6.74221">
        <ele>1235.3</ele>
        <time>2022-06-12T10:13:22Z</time>
      </trkpt>
      <trkpt lat="44.43367" lon="6.74225">
        <ele>1235.3</ele>
        <time>2022-06-12T10:13:23Z</time>
      </trkpt>
      <trkpt lat="44.43366" lon="6.74229">
        <ele>1235.4</ele>
        <time>2022-06-12T10:13:24Z</time>
      </trkpt>
      <trkpt lat="44.43365" lon="6.74232">
        <ele>1235.5</ele>
        <time>2022-06-12T10:13:25Z</time>
      </trkpt>
      <trkpt lat="44.43364" lon="6.74234">
        <ele>1235.5</ele>
        <time>2022-06-12T10:13:26Z</time>
      </trkpt>
      <trkpt lat="44.43362" lon="6.74234">
        <ele>1235.5</ele>
        <time>2022-06-12T10:13:27Z</time>
      </trkpt>
      <trkpt lat="44.43361" lon="6.74233">
        <ele>1235.4</ele>
        <time>2022-06-12T10:13:28Z</time>
      </trkpt>
      <trkpt lat="44.4336" lon="6.74233">
        <ele>1235.4</ele>
        <time>2022-06-12T10:13:29Z</time>
      </trkpt>
      <trkpt lat="44.43359" lon="6.74231">
        <ele>1235.3</ele>
        <time>2022-06-12T10:13:30Z</time>
      </trkpt>
      <trkpt lat="44.43357" lon="6.7423">
        <ele>1235.2</ele>
        <time>2022-06-12T10:13:31Z</time>
      </trkpt>
      <trkpt lat="44.43356" lon="6.74228">
        <ele>1235.2</ele>
        <time>2022-06-12T10:13:32Z</time>
      </trkpt>
      <trkpt lat="44.43355" lon="6.74225">
        <ele>1235.1</ele>
        <time>2022-06-12T10:13:33Z</time>
      </trkpt>
      <trkpt lat="44.43354" lon="6.74222">
        <ele>1235</ele>
        <time>2022-06-12T10:13:34Z</time>
      </trkpt>
      <trkpt lat="44.43353" lon="6.7422">
        <ele>1235</ele>
        <time>2022-06-12T10:13:35Z</time>
      </trkpt>
      <trkpt lat="44.43353" lon="6.74219">
        <ele>1235</ele>
        <time>2022-06-12T10:13:36Z</time>
      </trkpt>
      <trkpt lat="44.43353" lon="6.74218">
        <ele>1235</ele>
        <time>2022-06-12T10:13:37Z</time>
      </trkpt>
      <trkpt lat="44.43353" lon="6.74218">
        <ele>1235</ele>
        <time>2022-06-12T10:13:38Z</time>
      </trkpt>
      <trkpt lat="44.43352" lon="6.74218">
        <ele>1235</ele>
        <time>2022-06-12T10:13:39Z</time>
      </trkpt>
      <trkpt lat="44.43351" lon="6.74218">
        <ele>1234.9</ele>
        <time>2022-06-12T10:13:40Z</time>
      </trkpt>
      <trkpt lat="44.43351" lon="6.74218">
        <ele>1234.9</ele>
        <time>2022-06-12T10:13:41Z</time>
      </trkpt>
      <trkpt lat="44.43351" lon="6.74218">
        <ele>1234.9</ele>
        <time>2022-06-12T10:13:42Z</time>
      </trkpt>
      <trkpt lat="44.43357" lon="6.74226">
        <ele>1235.1</ele>
        <time>2022-06-12T11:03:46Z</time>
      </trkpt>
      <trkpt lat="44.43358" lon="6.74227">
        <ele>1235.2</ele>
        <time>2022-06-12T11:03:47Z</time>
      </trkpt>
      <trkpt lat="44.43359" lon="6.74228">
        <ele>1235.2</ele>
        <time>2022-06-12T11:03:48Z</time>
      </trkpt>
      <trkpt lat="44.4336" lon="6.74229">
        <ele>1235.2</ele>
        <time>2022-06-12T11:03:49Z</time>
      </trkpt>
      <trkpt lat="44.43361" lon="6.7423">
        <ele>1235.3</ele>
        <time>2022-06-12T11:03:50Z</time>
      </trkpt>
      <trkpt lat="44.43361" lon="6.74232">
        <ele>1235.3</ele>
        <time>2022-06-12T11:03:51Z</time>
      </trkpt>
      <trkpt lat="44.43362" lon="6.74233">
        <ele>1235.4</ele>
        <time>2022-06-12T11:03:52Z</time>
      </trkpt>
      <trkpt lat="44.43362" lon="6.74235">
        <ele>1235.5</ele>
        <time>2022-06-12T11:03:53Z</time>
      </trkpt>
      <trkpt lat="44.43363" lon="6.74236">
        <ele>1235.5</ele>
        <time>2022-06-12T11:03:54Z</time>
      </trkpt>
      <trkpt lat="44.43364" lon="6.74237">
        <ele>1235.6</ele>
        <time>2022-06-12T11:03:55Z</time>
      </trkpt>
      <trkpt lat="44.43365" lon="6.74238">
        <ele>1235.7</ele>
        <time>2022-06-12T11:03:56Z</time>
      </trkpt>
      <trkpt lat="44.43366" lon="6.74238">
        <ele>1235.7</ele>
        <time>2022-06-12T11:03:57Z</time>
      </trkpt>
      <trkpt lat="44.43367" lon="6.74238">
        <ele>1235.8</ele>
        <time>2022-06-12T11:03:58Z</time>
      </trkpt>
      <trkpt lat="44.43368" lon="6.74238">
        <ele>1235.8</ele>
        <time>2022-06-12T11:03:59Z</time>
      </trkpt>
      <trkpt lat="44.43368" lon="6.74237">
        <ele>1235.8</ele>
        <time>2022-06-12T11:04:00Z</time>
      </trkpt>
      <trkpt lat="44.43368" lon="6.74237">
        <ele>1235.8</ele>
        <time>2022-06-12T11:04:01Z</time>
      </trkpt>
      <trkpt lat="44.43369" lon="6.74237">
        <ele>1235.8</ele>
        <time>2022-06-12T11:04:02Z</time>
      </trkpt>
      <trkpt lat="44.43369" lon="6.74236">
        <ele>1235.8</ele>
        <time>2022-06-12T11:04:03Z</time>
      </trkpt>
      <trkpt lat="44.4337" lon="6.74235">
        <ele>1235.8</ele>
        <time>2022-06-12T11:04:04Z</time>
      </trkpt>
      <trkpt lat="44.4337" lon="6.74233">
        <ele>1235.7</ele>
        <time>2022-06-12T11:04:05Z</time>
      </trkpt>
      <trkpt lat="44.43371" lon="6.74232">
        <ele>1235.7</ele>
        <time>2022-06-12T11:04:06Z</time>
      </trkpt>
      <trkpt lat="44.43372" lon="6.74229">
        <ele>1235.6</ele>
        <time>2022-06-12T11:04:07Z</time>
      </trkpt>
      <trkpt lat="44.43374" lon="6.74226">
        <ele>1235.6</ele>
        <time>2022-06-12T11:04:08Z</time>
      </trkpt>
      <trkpt lat="44.43375" lon="6.74224">
        <ele>1235.6</ele>
        <time>2022-06-12T11:04:09Z</time>
      </trkpt>
      <trkpt lat="44.43377" lon="6.74221">
        <ele>1235.6</ele>
        <time>2022-06-12T11:04:10Z</time>
      </trkpt>
      <trkpt lat="44.43379" lon="6.74219">
        <ele>1235.6</ele>
        <time>2022-06-12T11:04:11Z</time>
      </trkpt>
      <trkpt lat="44.43381" lon="6.74218">
        <ele>1235.7</ele>
        <time>2022-06-12T11:04:12Z</time>
      </trkpt>
      <trkpt lat="44.43383" lon="6.74217">
        <ele>1235.8</ele>
        <time>2022-06-12T11:04:13Z</time>
      </trkpt>
      <trkpt lat="44.43385" lon="6.74218">
        <ele>1235.9</ele>
        <time>2022-06-12T11:04:14Z</time>
      </trkpt>
      <trkpt lat="44.43387" lon="6.7422">
        <ele>1235.9</ele>
        <time>2022-06-12T11:04:15Z</time>
      </trkpt>
      <trkpt lat="44.43388" lon="6.74224">
        <ele>1236</ele>
        <time>2022-06-12T11:04:16Z</time>
      </trkpt>
      <trkpt lat="44.43389" lon="6.74227">
        <ele>1236.2</ele>
        <time>2022-06-12T11:04:17Z</time>
      </trkpt>
      <trkpt lat="44.4339" lon="6.74231">
        <ele>1236.3</ele>
        <time>2022-06-12T11:04:18Z</time>
      </trkpt>
      <trkpt lat="44.43391" lon="6.74236">
        <ele>1236.4</ele>
        <time>2022-06-12T11:04:19Z</time>
      </trkpt>
      <trkpt lat="44.43392" lon="6.7424">
        <ele>1236.6</ele>
        <time>2022-06-12T11:04:20Z</time>
      </trkpt>
      <trkpt lat="44.43393" lon="6.74245">
        <ele>1236.7</ele>
        <time>2022-06-12T11:04:21Z</time>
      </trkpt>
      <trkpt lat="44.43394" lon="6.7425">
        <ele>1236.8</ele>
        <time>2022-06-12T11:04:22Z</time>
      </trkpt>
      <trkpt lat="44.43396" lon="6.74255">
        <ele>1236.8</ele>
        <time>2022-06-12T11:04:23Z</time>
      </trkpt>
      <trkpt lat="44.43397" lon="6.7426">
        <ele>1236.8</ele>
        <time>2022-06-12T11:04:24Z</time>
      </trkpt>
      <trkpt lat="44.43397" lon="6.74265">
        <ele>1236.9</ele>
        <time>2022-06-12T11:04:25Z</time>
      </trkpt>
      <trkpt lat="44.43399" lon="6.7427">
        <ele>1236.9</ele>
        <time>2022-06-12T11:04:26Z</time>
      </trkpt>
      <trkpt lat="44.434" lon="6.74275">
        <ele>1237</ele>
        <time>2022-06-12T11:04:27Z</time>
      </trkpt>
      <trkpt lat="44.43402" lon="6.7428">
        <ele>1237</ele>
        <time>2022-06-12T11:04:28Z</time>
      </trkpt>
      <trkpt lat="44.43404" lon="6.74284">
        <ele>1237.1</ele>
        <time>2022-06-12T11:04:29Z</time>
      </trkpt>
      <trkpt lat="44.43405" lon="6.74289">
        <ele>1237.2</ele>
        <time>2022-06-12T11:04:30Z</time>
      </trkpt>
      <trkpt lat="44.43407" lon="6.74294">
        <ele>1237.4</ele>
        <time>2022-06-12T11:04:31Z</time>
      </trkpt>
      <trkpt lat="44.43408" lon="6.74298">
        <ele>1237.5</ele>
        <time>2022-06-12T11:04:32Z</time>
      </trkpt>
      <trkpt lat="44.43409" lon="6.74303">
        <ele>1237.6</ele>
        <time>2022-06-12T11:04:33Z</time>
      </trkpt>
      <trkpt lat="44.4341" lon="6.74307">
        <ele>1237.8</ele>
        <time>2022-06-12T11:04:34Z</time>
      </trkpt>
      <trkpt lat="44.43412" lon="6.74312">
        <ele>1237.8</ele>
        <time>2022-06-12T11:04:35Z</time>
      </trkpt>
      <trkpt lat="44.43413" lon="6.74316">
        <ele>1237.8</ele>
        <time>2022-06-12T11:04:36Z</time>
      </trkpt>
      <trkpt lat="44.43414" lon="6.74321">
        <ele>1237.8</ele>
        <time>2022-06-12T11:04:37Z</time>
      </trkpt>
      <trkpt lat="44.43415" lon="6.74326">
        <ele>1237.9</ele>
        <time>2022-06-12T11:04:38Z</time>
      </trkpt>
      <trkpt lat="44.43417" lon="6.7433">
        <ele>1238</ele>
        <time>2022-06-12T11:04:39Z</time>
      </trkpt>
      <trkpt lat="44.43418" lon="6.74335">
        <ele>1238.5</ele>
        <time>2022-06-12T11:04:40Z</time>
      </trkpt>
      <trkpt lat="44.43419" lon="6.7434">
        <ele>1239.2</ele>
        <time>2022-06-12T11:04:41Z</time>
      </trkpt>
      <trkpt lat="44.43421" lon="6.74344">
        <ele>1239.9</ele>
        <time>2022-06-12T11:04:42Z</time>
      </trkpt>
      <trkpt lat="44.43422" lon="6.74349">
        <ele>1240.4</ele>
        <time>2022-06-12T11:04:43Z</time>
      </trkpt>
      <trkpt lat="44.43424" lon="6.74353">
        <ele>1240.9</ele>
        <time>2022-06-12T11:04:44Z</time>
      </trkpt>
      <trkpt lat="44.43425" lon="6.74358">
        <ele>1241.3</ele>
        <time>2022-06-12T11:04:45Z</time>
      </trkpt>
      <trkpt lat="44.43426" lon="6.74362">
        <ele>1241.7</ele>
        <time>2022-06-12T11:04:46Z</time>
      </trkpt>
      <trkpt lat="44.43428" lon="6.74366">
        <ele>1241.8</ele>
        <time>2022-06-12T11:04:47Z</time>
      </trkpt>
      <trkpt lat="44.4343" lon="6.74371">
        <ele>1241.9</ele>
        <time>2022-06-12T11:04:48Z</time>
      </trkpt>
      <trkpt lat="44.43432" lon="6.74375">
        <ele>1242</ele>
        <time>2022-06-12T11:04:49Z</time>
      </trkpt>
      <trkpt lat="44.43434" lon="6.74378">
        <ele>1242.2</ele>
        <time>2022-06-12T11:04:50Z</time>
      </trkpt>
      <trkpt lat="44.43435" lon="6.74382">
        <ele>1242.1</ele>
        <time>2022-06-12T11:04:51Z</time>
      </trkpt>
      <trkpt lat="44.43438" lon="6.74385">
        <ele>1242.3</ele>
        <time>2022-06-12T11:04:52Z</time>
      </trkpt>
      <trkpt lat="44.4344" lon="6.74388">
        <ele>1242.3</ele>
        <time>2022-06-12T11:04:53Z</time>
      </trkpt>
      <trkpt lat="44.43442" lon="6.7439">
        <ele>1242.5</ele>
        <time>2022-06-12T11:04:54Z</time>
      </trkpt>
      <trkpt lat="44.43445" lon="6.74393">
        <ele>1242.7</ele>
        <time>2022-06-12T11:04:55Z</time>
      </trkpt>
      <trkpt lat="44.43448" lon="6.74395">
        <ele>1243</ele>
        <time>2022-06-12T11:04:56Z</time>
      </trkpt>
      <trkpt lat="44.43452" lon="6.74397">
        <ele>1243.3</ele>
        <time>2022-06-12T11:04:57Z</time>
      </trkpt>
      <trkpt lat="44.43455" lon="6.74398">
        <ele>1243.7</ele>
        <time>2022-06-12T11:04:58Z</time>
      </trkpt>
      <trkpt lat="44.43458" lon="6.744">
        <ele>1244</ele>
        <time>2022-06-12T11:04:59Z</time>
      </trkpt>
      <trkpt lat="44.43462" lon="6.74401">
        <ele>1244.4</ele>
        <time>2022-06-12T11:05:00Z</time>
      </trkpt>
      <trkpt lat="44.43466" lon="6.74402">
        <ele>1244.8</ele>
        <time>2022-06-12T11:05:01Z</time>
      </trkpt>
      <trkpt lat="44.43469" lon="6.74401">
        <ele>1245.4</ele>
        <time>2022-06-12T11:05:02Z</time>
      </trkpt>
      <trkpt lat="44.43472" lon="6.74402">
        <ele>1245.8</ele>
        <time>2022-06-12T11:05:03Z</time>
      </trkpt>
      <trkpt lat="44.43476" lon="6.74403">
        <ele>1245.9</ele>
        <time>2022-06-12T11:05:04Z</time>
      </trkpt>
      <trkpt lat="44.4348" lon="6.74403">
        <ele>1245.9</ele>
        <time>2022-06-12T11:05:05Z</time>
      </trkpt>
      <trkpt lat="44.43484" lon="6.74404">
        <ele>1245.9</ele>
        <time>2022-06-12T11:05:06Z</time>
      </trkpt>
      <trkpt lat="44.43487" lon="6.74405">
        <ele>1245.9</ele>
        <time>2022-06-12T11:05:07Z</time>
      </trkpt>
      <trkpt lat="44.43491" lon="6.74405">
        <ele>1245.9</ele>
        <time>2022-06-12T11:05:08Z</time>
      </trkpt>
      <trkpt lat="44.43495" lon="6.74406">
        <ele>1245.9</ele>
        <time>2022-06-12T11:05:09Z</time>
      </trkpt>
      <trkpt lat="44.43499" lon="6.74407">
        <ele>1245.9</ele>
        <time>2022-06-12T11:05:10Z</time>
      </trkpt>
      <trkpt lat="44.43502" lon="6.74408">
        <ele>1245.6</ele>
        <time>2022-06-12T11:05:11Z</time>
      </trkpt>
      <trkpt lat="44.43506" lon="6.74408">
        <ele>1245.4</ele>
        <time>2022-06-12T11:05:12Z</time>
      </trkpt>
      <trkpt lat="44.4351" lon="6.74408">
        <ele>1245.3</ele>
        <time>2022-06-12T11:05:13Z</time>
      </trkpt>
      <trkpt lat="44.43514" lon="6.74409">
        <ele>1245.1</ele>
        <time>2022-06-12T11:05:14Z</time>
      </trkpt>
      <trkpt lat="44.43518" lon="6.74409">
        <ele>1245</ele>
        <time>2022-06-12T11:05:15Z</time>
      </trkpt>
      <trkpt lat="44.43521" lon="6.74409">
        <ele>1244.8</ele>
        <time>2022-06-12T11:05:16Z</time>
      </trkpt>
      <trkpt lat="44.43525" lon="6.74409">
        <ele>1244.7</ele>
        <time>2022-06-12T11:05:17Z</time>
      </trkpt>
      <trkpt lat="44.43529" lon="6.7441">
        <ele>1244.5</ele>
        <time>2022-06-12T11:05:18Z</time>
      </trkpt>
      <trkpt lat="44.43533" lon="6.7441">
        <ele>1244.2</ele>
        <time>2022-06-12T11:05:19Z</time>
      </trkpt>
      <trkpt lat="44.43536" lon="6.7441">
        <ele>1244.1</ele>
        <time>2022-06-12T11:05:20Z</time>
      </trkpt>
      <trkpt lat="44.4354" lon="6.7441">
        <ele>1243.9</ele>
        <time>2022-06-12T11:05:21Z</time>
      </trkpt>
      <trkpt lat="44.43544" lon="6.74409">
        <ele>1243.9</ele>
        <time>2022-06-12T11:05:22Z</time>
      </trkpt>
      <trkpt lat="44.43548" lon="6.74409">
        <ele>1243.8</ele>
        <time>2022-06-12T11:05:23Z</time>
      </trkpt>
      <trkpt lat="44.43552" lon="6.74408">
        <ele>1243.7</ele>
        <time>2022-06-12T11:05:24Z</time>
      </trkpt>
      <trkpt lat="44.43555" lon="6.74407">
        <ele>1243.7</ele>
        <time>2022-06-12T11:05:25Z</time>
      </trkpt>
      <trkpt lat="44.43559" lon="6.74406">
        <ele>1244</ele>
        <time>2022-06-12T11:05:26Z</time>
      </trkpt>
      <trkpt lat="44.43563" lon="6.74404">
        <ele>1244.3</ele>
        <time>2022-06-12T11:05:27Z</time>
      </trkpt>
      <trkpt lat="44.43566" lon="6.74402">
        <ele>1244.7</ele>
        <time>2022-06-12T11:05:28Z</time>
      </trkpt>
      <trkpt lat="44.4357" lon="6.744">
        <ele>1245.1</ele>
        <time>2022-06-12T11:05:29Z</time>
      </trkpt>
      <trkpt lat="44.43573" lon="6.74397">
        <ele>1245.6</ele>
        <time>2022-06-12T11:05:30Z</time>
      </trkpt>
      <trkpt lat="44.43577" lon="6.74394">
        <ele>1246.1</ele>
        <time>2022-06-12T11:05:31Z</time>
      </trkpt>
      <trkpt lat="44.4358" lon="6.74392">
        <ele>1246.5</ele>
        <time>2022-06-12T11:05:32Z</time>
      </trkpt>
      <trkpt lat="44.43584" lon="6.74389">
        <ele>1247</ele>
        <time>2022-06-12T11:05:33Z</time>
      </trkpt>
      <trkpt lat="44.43588" lon="6.74386">
        <ele>1247.9</ele>
        <time>2022-06-12T11:05:34Z</time>
      </trkpt>
      <trkpt lat="44.43591" lon="6.74382">
        <ele>1248.8</ele>
        <time>2022-06-12T11:05:35Z</time>
      </trkpt>
      <trkpt lat="44.43595" lon="6.7438">
        <ele>1249.5</ele>
        <time>2022-06-12T11:05:36Z</time>
      </trkpt>
      <trkpt lat="44.436" lon="6.74377">
        <ele>1250</ele>
        <time>2022-06-12T11:05:37Z</time>
      </trkpt>
      <trkpt lat="44.43604" lon="6.74375">
        <ele>1250.4</ele>
        <time>2022-06-12T11:05:38Z</time>
      </trkpt>
      <trkpt lat="44.43608" lon="6.74373">
        <ele>1250.7</ele>
        <time>2022-06-12T11:05:39Z</time>
      </trkpt>
      <trkpt lat="44.43612" lon="6.74372">
        <ele>1250.9</ele>
        <time>2022-06-12T11:05:40Z</time>
      </trkpt>
      <trkpt lat="44.43616" lon="6.74371">
        <ele>1251.2</ele>
        <time>2022-06-12T11:05:41Z</time>
      </trkpt>
      <trkpt lat="44.4362" lon="6.74371">
        <ele>1251.4</ele>
        <time>2022-06-12T11:05:42Z</time>
      </trkpt>
      <trkpt lat="44.43625" lon="6.74371">
        <ele>1251.4</ele>
        <time>2022-06-12T11:05:43Z</time>
      </trkpt>
      <trkpt lat="44.4363" lon="6.74372">
        <ele>1251.3</ele>
        <time>2022-06-12T11:05:44Z</time>
      </trkpt>
      <trkpt lat="44.43634" lon="6.74373">
        <ele>1251</ele>
        <time>2022-06-12T11:05:45Z</time>
      </trkpt>
      <trkpt lat="44.43639" lon="6.74375">
        <ele>1250.6</ele>
        <time>2022-06-12T11:05:46Z</time>
      </trkpt>
      <trkpt lat="44.43643" lon="6.74377">
        <ele>1250.5</ele>
        <time>2022-06-12T11:05:47Z</time>
      </trkpt>
      <trkpt lat="44.43647" lon="6.74379">
        <ele>1250.4</ele>
        <time>2022-06-12T11:05:48Z</time>
      </trkpt>
      <trkpt lat="44.43651" lon="6.74381">
        <ele>1250.3</ele>
        <time>2022-06-12T11:05:49Z</time>
      </trkpt>
      <trkpt lat="44.43655" lon="6.74382">
        <ele>1250.1</ele>
        <time>2022-06-12T11:05:50Z</time>
      </trkpt>
      <trkpt lat="44.43659" lon="6.74384">
        <ele>1250</ele>
        <time>2022-06-12T11:05:51Z</time>
      </trkpt>
      <trkpt lat="44.43663" lon="6.74386">
        <ele>1249.9</ele>
        <time>2022-06-12T11:05:52Z</time>
      </trkpt>
      <trkpt lat="44.43668" lon="6.74387">
        <ele>1249.8</ele>
        <time>2022-06-12T11:05:53Z</time>
      </trkpt>
      <trkpt lat="44.43672" lon="6.74389">
        <ele>1249.8</ele>
        <time>2022-06-12T11:05:54Z</time>
      </trkpt>
      <trkpt lat="44.43676" lon="6.7439">
        <ele>1250.1</ele>
        <time>2022-06-12T11:05:55Z</time>
      </trkpt>
      <trkpt lat="44.4368" lon="6.74391">
        <ele>1250.4</ele>
        <time>2022-06-12T11:05:56Z</time>
      </trkpt>
      <trkpt lat="44.43684" lon="6.74393">
        <ele>1250.7</ele>
        <time>2022-06-12T11:05:57Z</time>
      </trkpt>
      <trkpt lat="44.43689" lon="6.74394">
        <ele>1251</ele>
        <time>2022-06-12T11:05:58Z</time>
      </trkpt>
      <trkpt lat="44.43693" lon="6.74395">
        <ele>1251.3</ele>
        <time>2022-06-12T11:05:59Z</time>
      </trkpt>
      <trkpt lat="44.43698" lon="6.74397">
        <ele>1251.3</ele>
        <time>2022-06-12T11:06:00Z</time>
      </trkpt>
      <trkpt lat="44.43702" lon="6.74398">
        <ele>1251.3</ele>
        <time>2022-06-12T11:06:01Z</time>
      </trkpt>
      <trkpt lat="44.43707" lon="6.744">
        <ele>1251.2</ele>
        <time>2022-06-12T11:06:02Z</time>
      </trkpt>
      <trkpt lat="44.43711" lon="6.74401">
        <ele>1251.1</ele>
        <time>2022-06-12T11:06:03Z</time>
      </trkpt>
      <trkpt lat="44.43716" lon="6.74403">
        <ele>1251</ele>
        <time>2022-06-12T11:06:04Z</time>
      </trkpt>
      <trkpt lat="44.43721" lon="6.74405">
        <ele>1250.9</ele>
        <time>2022-06-12T11:06:05Z</time>
      </trkpt>
      <trkpt lat="44.43725" lon="6.74406">
        <ele>1250.7</ele>
        <time>2022-06-12T11:06:06Z</time>
      </trkpt>
      <trkpt lat="44.4373" lon="6.74408">
        <ele>1250.5</ele>
        <time>2022-06-12T11:06:07Z</time>
      </trkpt>
      <trkpt lat="44.43734" lon="6.74409">
        <ele>1250.3</ele>
        <time>2022-06-12T11:06:08Z</time>
      </trkpt>
      <trkpt lat="44.43738" lon="6.7441">
        <ele>1250.2</ele>
        <time>2022-06-12T11:06:09Z</time>
      </trkpt>
      <trkpt lat="44.43743" lon="6.74411">
        <ele>1250.2</ele>
        <time>2022-06-12T11:06:10Z</time>
      </trkpt>
      <trkpt lat="44.43747" lon="6.74412">
        <ele>1250.2</ele>
        <time>2022-06-12T11:06:11Z</time>
      </trkpt>
      <trkpt lat="44.43752" lon="6.74412">
        <ele>1250.3</ele>
        <time>2022-06-12T11:06:12Z</time>
      </trkpt>
      <trkpt lat="44.43756" lon="6.74411">
        <ele>1250.5</ele>
        <time>2022-06-12T11:06:13Z</time>
      </trkpt>
      <trkpt lat="44.43761" lon="6.74411">
        <ele>1250.8</ele>
        <time>2022-06-12T11:06:14Z</time>
      </trkpt>
      <trkpt lat="44.43766" lon="6.7441">
        <ele>1251.2</ele>
        <time>2022-06-12T11:06:15Z</time>
      </trkpt>
      <trkpt lat="44.4377" lon="6.74408">
        <ele>1251.7</ele>
        <time>2022-06-12T11:06:16Z</time>
      </trkpt>
      <trkpt lat="44.43774" lon="6.74406">
        <ele>1252.3</ele>
        <time>2022-06-12T11:06:17Z</time>
      </trkpt>
      <trkpt lat="44.43779" lon="6.74403">
        <ele>1252.9</ele>
        <time>2022-06-12T11:06:18Z</time>
      </trkpt>
      <trkpt lat="44.43783" lon="6.74401">
        <ele>1253.2</ele>
        <time>2022-06-12T11:06:19Z</time>
      </trkpt>
      <trkpt lat="44.43788" lon="6.74398">
        <ele>1253.5</ele>
        <time>2022-06-12T11:06:20Z</time>
      </trkpt>
      <trkpt lat="44.43793" lon="6.74396">
        <ele>1253.7</ele>
        <time>2022-06-12T11:06:21Z</time>
      </trkpt>
      <trkpt lat="44.43798" lon="6.74394">
        <ele>1253.7</ele>
        <time>2022-06-12T11:06:22Z</time>
      </trkpt>
      <trkpt lat="44.43803" lon="6.74392">
        <ele>1253.7</ele>
        <time>2022-06-12T11:06:23Z</time>
      </trkpt>
      <trkpt lat="44.43808" lon="6.74391">
        <ele>1253.6</ele>
        <time>2022-06-12T11:06:24Z</time>
      </trkpt>
      <trkpt lat="44.43813" lon="6.7439">
        <ele>1253.4</ele>
        <time>2022-06-12T11:06:25Z</time>
      </trkpt>
      <trkpt lat="44.43819" lon="6.74389">
        <ele>1253</ele>
        <time>2022-06-12T11:06:26Z</time>
      </trkpt>
      <trkpt lat="44.43824" lon="6.74389">
        <ele>1252.6</ele>
        <time>2022-06-12T11:06:27Z</time>
      </trkpt>
      <trkpt lat="44.43829" lon="6.7439">
        <ele>1252.2</ele>
        <time>2022-06-12T11:06:28Z</time>
      </trkpt>
      <trkpt lat="44.43834" lon="6.74391">
        <ele>1251.8</ele>
        <time>2022-06-12T11:06:29Z</time>
      </trkpt>
      <trkpt lat="44.43839" lon="6.74392">
        <ele>1251.8</ele>
        <time>2022-06-12T11:06:30Z</time>
      </trkpt>
      <trkpt lat="44.43843" lon="6.74394">
        <ele>1251.8</ele>
        <time>2022-06-12T11:06:31Z</time>
      </trkpt>
      <trkpt lat="44.43848" lon="6.74395">
        <ele>1251.8</ele>
        <time>2022-06-12T11:06:32Z</time>
      </trkpt>
      <trkpt lat="44.43853" lon="6.74396">
        <ele>1251.7</ele>
        <time>2022-06-12T11:06:33Z</time>
      </trkpt>
      <trkpt lat="44.43857" lon="6.74397">
        <ele>1251.7</ele>
        <time>2022-06-12T11:06:34Z</time>
      </trkpt>
      <trkpt lat="44.43862" lon="6.74398">
        <ele>1251.7</ele>
        <time>2022-06-12T11:06:35Z</time>
      </trkpt>
      <trkpt lat="44.43866" lon="6.74398">
        <ele>1251.5</ele>
        <time>2022-06-12T11:06:36Z</time>
      </trkpt>
      <trkpt lat="44.43871" lon="6.74398">
        <ele>1251.5</ele>
        <time>2022-06-12T11:06:37Z</time>
      </trkpt>
      <trkpt lat="44.43875" lon="6.74397">
        <ele>1251.5</ele>
        <time>2022-06-12T11:06:38Z</time>
      </trkpt>
      <trkpt lat="44.4388" lon="6.74396">
        <ele>1251.5</ele>
        <time>2022-06-12T11:06:39Z</time>
      </trkpt>
      <trkpt lat="44.43884" lon="6.74394">
        <ele>1251.6</ele>
        <time>2022-06-12T11:06:40Z</time>
      </trkpt>
      <trkpt lat="44.43889" lon="6.74393">
        <ele>1251.6</ele>
        <time>2022-06-12T11:06:41Z</time>
      </trkpt>
      <trkpt lat="44.43894" lon="6.74391">
        <ele>1251.6</ele>
        <time>2022-06-12T11:06:42Z</time>
      </trkpt>
      <trkpt lat="44.43898" lon="6.74389">
        <ele>1251.7</ele>
        <time>2022-06-12T11:06:43Z</time>
      </trkpt>
      <trkpt lat="44.43902" lon="6.74386">
        <ele>1252</ele>
        <time>2022-06-12T11:06:44Z</time>
      </trkpt>
      <trkpt lat="44.43906" lon="6.74383">
        <ele>1252.4</ele>
        <time>2022-06-12T11:06:45Z</time>
      </trkpt>
      <trkpt lat="44.43911" lon="6.7438">
        <ele>1252.6</ele>
        <time>2022-06-12T11:06:46Z</time>
      </trkpt>
      <trkpt lat="44.43915" lon="6.74377">
        <ele>1252.8</ele>
        <time>2022-06-12T11:06:47Z</time>
      </trkpt>
      <trkpt lat="44.43919" lon="6.74374">
        <ele>1253</ele>
        <time>2022-06-12T11:06:48Z</time>
      </trkpt>
      <trkpt lat="44.43923" lon="6.7437">
        <ele>1253.1</ele>
        <time>2022-06-12T11:06:49Z</time>
      </trkpt>
      <trkpt lat="44.43927" lon="6.74366">
        <ele>1253.3</ele>
        <time>2022-06-12T11:06:50Z</time>
      </trkpt>
      <trkpt lat="44.43929" lon="6.74361">
        <ele>1253.7</ele>
        <time>2022-06-12T11:06:51Z</time>
      </trkpt>
      <trkpt lat="44.43933" lon="6.74356">
        <ele>1254</ele>
        <time>2022-06-12T11:06:52Z</time>
      </trkpt>
      <trkpt lat="44.43937" lon="6.74351">
        <ele>1254.1</ele>
        <time>2022-06-12T11:06:53Z</time>
      </trkpt>
      <trkpt lat="44.4394" lon="6.74346">
        <ele>1254.3</ele>
        <time>2022-06-12T11:06:54Z</time>
      </trkpt>
      <trkpt lat="44.43944" lon="6.7434">
        <ele>1254.4</ele>
        <time>2022-06-12T11:06:55Z</time>
      </trkpt>
      <trkpt lat="44.43947" lon="6.74334">
        <ele>1254.5</ele>
        <time>2022-06-12T11:06:56Z</time>
      </trkpt>
      <trkpt lat="44.43951" lon="6.74328">
        <ele>1254.7</ele>
        <time>2022-06-12T11:06:57Z</time>
      </trkpt>
      <trkpt lat="44.43954" lon="6.74322">
        <ele>1254.7</ele>
        <time>2022-06-12T11:06:58Z</time>
      </trkpt>
      <trkpt lat="44.43958" lon="6.74317">
        <ele>1254.6</ele>
        <time>2022-06-12T11:06:59Z</time>
      </trkpt>
      <trkpt lat="44.43961" lon="6.74311">
        <ele>1254.5</ele>
        <time>2022-06-12T11:07:00Z</time>
      </trkpt>
      <trkpt lat="44.43965" lon="6.74305">
        <ele>1254.3</ele>
        <time>2022-06-12T11:07:01Z</time>
      </trkpt>
      <trkpt lat="44.43969" lon="6.743">
        <ele>1254.4</ele>
        <time>2022-06-12T11:07:02Z</time>
      </trkpt>
      <trkpt lat="44.43974" lon="6.74295">
        <ele>1254.5</ele>
        <time>2022-06-12T11:07:03Z</time>
      </trkpt>
      <trkpt lat="44.43979" lon="6.74291">
        <ele>1254.7</ele>
        <time>2022-06-12T11:07:04Z</time>
      </trkpt>
      <trkpt lat="44.43983" lon="6.74287">
        <ele>1254.9</ele>
        <time>2022-06-12T11:07:05Z</time>
      </trkpt>
      <trkpt lat="44.43988" lon="6.74284">
        <ele>1255</ele>
        <time>2022-06-12T11:07:06Z</time>
      </trkpt>
      <trkpt lat="44.43994" lon="6.74282">
        <ele>1254.9</ele>
        <time>2022-06-12T11:07:07Z</time>
      </trkpt>
      <trkpt lat="44.43999" lon="6.7428">
        <ele>1254.8</ele>
        <time>2022-06-12T11:07:08Z</time>
      </trkpt>
      <trkpt lat="44.44004" lon="6.7428">
        <ele>1254.7</ele>
        <time>2022-06-12T11:07:09Z</time>
      </trkpt>
      <trkpt lat="44.44009" lon="6.7428">
        <ele>1254.7</ele>
        <time>2022-06-12T11:07:10Z</time>
      </trkpt>
      <trkpt lat="44.44014" lon="6.7428">
        <ele>1254.7</ele>
        <time>2022-06-12T11:07:11Z</time>
      </trkpt>
      <trkpt lat="44.44019" lon="6.7428">
        <ele>1254.6</ele>
        <time>2022-06-12T11:07:12Z</time>
      </trkpt>
      <trkpt lat="44.44024" lon="6.74281">
        <ele>1254.4</ele>
        <time>2022-06-12T11:07:13Z</time>
      </trkpt>
      <trkpt lat="44.4403" lon="6.74281">
        <ele>1254.3</ele>
        <time>2022-06-12T11:07:14Z</time>
      </trkpt>
      <trkpt lat="44.44035" lon="6.74282">
        <ele>1253.9</ele>
        <time>2022-06-12T11:07:15Z</time>
      </trkpt>
      <trkpt lat="44.4404" lon="6.74282">
        <ele>1253.5</ele>
        <time>2022-06-12T11:07:16Z</time>
      </trkpt>
      <trkpt lat="44.44045" lon="6.74282">
        <ele>1253.2</ele>
        <time>2022-06-12T11:07:17Z</time>
      </trkpt>
      <trkpt lat="44.4405" lon="6.74281">
        <ele>1252.9</ele>
        <time>2022-06-12T11:07:18Z</time>
      </trkpt>
      <trkpt lat="44.44056" lon="6.7428">
        <ele>1252.7</ele>
        <time>2022-06-12T11:07:19Z</time>
      </trkpt>
      <trkpt lat="44.4406" lon="6.74279">
        <ele>1252.6</ele>
        <time>2022-06-12T11:07:20Z</time>
      </trkpt>
      <trkpt lat="44.44065" lon="6.74276">
        <ele>1252.7</ele>
        <time>2022-06-12T11:07:21Z</time>
      </trkpt>
      <trkpt lat="44.4407" lon="6.74274">
        <ele>1253</ele>
        <time>2022-06-12T11:07:22Z</time>
      </trkpt>
      <trkpt lat="44.44075" lon="6.7427">
        <ele>1253.4</ele>
        <time>2022-06-12T11:07:23Z</time>
      </trkpt>
      <trkpt lat="44.44079" lon="6.74267">
        <ele>1253.8</ele>
        <time>2022-06-12T11:07:24Z</time>
      </trkpt>
      <trkpt lat="44.44083" lon="6.74263">
        <ele>1254.2</ele>
        <time>2022-06-12T11:07:25Z</time>
      </trkpt>
      <trkpt lat="44.44087" lon="6.7426">
        <ele>1254.5</ele>
        <time>2022-06-12T11:07:26Z</time>
      </trkpt>
      <trkpt lat="44.44091" lon="6.74255">
        <ele>1254.8</ele>
        <time>2022-06-12T11:07:27Z</time>
      </trkpt>
      <trkpt lat="44.44095" lon="6.74251">
        <ele>1255.1</ele>
        <time>2022-06-12T11:07:28Z</time>
      </trkpt>
      <trkpt lat="44.441" lon="6.74247">
        <ele>1255.3</ele>
        <time>2022-06-12T11:07:29Z</time>
      </trkpt>
      <trkpt lat="44.44104" lon="6.74243">
        <ele>1255.5</ele>
        <time>2022-06-12T11:07:30Z</time>
      </trkpt>
      <trkpt lat="44.44109" lon="6.74238">
        <ele>1255.5</ele>
        <time>2022-06-12T11:07:31Z</time>
      </trkpt>
      <trkpt lat="44.44113" lon="6.74234">
        <ele>1255.7</ele>
        <time>2022-06-12T11:07:32Z</time>
      </trkpt>
      <trkpt lat="44.44118" lon="6.74229">
        <ele>1255.8</ele>
        <time>2022-06-12T11:07:33Z</time>
      </trkpt>
      <trkpt lat="44.44122" lon="6.74224">
        <ele>1255.8</ele>
        <time>2022-06-12T11:07:34Z</time>
      </trkpt>
      <trkpt lat="44.44127" lon="6.74219">
        <ele>1255.5</ele>
        <time>2022-06-12T11:07:35Z</time>
      </trkpt>
      <trkpt lat="44.44132" lon="6.74215">
        <ele>1255.1</ele>
        <time>2022-06-12T11:07:36Z</time>
      </trkpt>
      <trkpt lat="44.44136" lon="6.74211">
        <ele>1254.4</ele>
        <time>2022-06-12T11:07:37Z</time>
      </trkpt>
      <trkpt lat="44.44141" lon="6.74207">
        <ele>1254.1</ele>
        <time>2022-06-12T11:07:38Z</time>
      </trkpt>
      <trkpt lat="44.44146" lon="6.74204">
        <ele>1254.5</ele>
        <time>2022-06-12T11:07:39Z</time>
      </trkpt>
      <trkpt lat="44.44152" lon="6.74202">
        <ele>1254.8</ele>
        <time>2022-06-12T11:07:40Z</time>
      </trkpt>
      <trkpt lat="44.44157" lon="6.742">
        <ele>1255.1</ele>
        <time>2022-06-12T11:07:41Z</time>
      </trkpt>
      <trkpt lat="44.44162" lon="6.74199">
        <ele>1255.4</ele>
        <time>2022-06-12T11:07:42Z</time>
      </trkpt>
      <trkpt lat="44.44167" lon="6.74198">
        <ele>1255.6</ele>
        <time>2022-06-12T11:07:43Z</time>
      </trkpt>
      <trkpt lat="44.44172" lon="6.74198">
        <ele>1256.3</ele>
        <time>2022-06-12T11:07:44Z</time>
      </trkpt>
      <trkpt lat="44.44177" lon="6.74198">
        <ele>1256.9</ele>
        <time>2022-06-12T11:07:45Z</time>
      </trkpt>
      <trkpt lat="44.44182" lon="6.742">
        <ele>1257.4</ele>
        <time>2022-06-12T11:07:46Z</time>
      </trkpt>
      <trkpt lat="44.44187" lon="6.74201">
        <ele>1257.9</ele>
        <time>2022-06-12T11:07:47Z</time>
      </trkpt>
      <trkpt lat="44.44192" lon="6.74201">
        <ele>1258.4</ele>
        <time>2022-06-12T11:07:48Z</time>
      </trkpt>
      <trkpt lat="44.44197" lon="6.74202">
        <ele>1258.9</ele>
        <time>2022-06-12T11:07:49Z</time>
      </trkpt>
      <trkpt lat="44.44202" lon="6.74203">
        <ele>1259.2</ele>
        <time>2022-06-12T11:07:50Z</time>
      </trkpt>
      <trkpt lat="44.44207" lon="6.74204">
        <ele>1259.5</ele>
        <time>2022-06-12T11:07:51Z</time>
      </trkpt>
      <trkpt lat="44.44212" lon="6.74205">
        <ele>1259.8</ele>
        <time>2022-06-12T11:07:52Z</time>
      </trkpt>
      <trkpt lat="44.44217" lon="6.74206">
        <ele>1260.1</ele>
        <time>2022-06-12T11:07:53Z</time>
      </trkpt>
      <trkpt lat="44.44221" lon="6.74207">
        <ele>1260.2</ele>
        <time>2022-06-12T11:07:54Z</time>
      </trkpt>
      <trkpt lat="44.44226" lon="6.74209">
        <ele>1260.1</ele>
        <time>2022-06-12T11:07:55Z</time>
      </trkpt>
      <trkpt lat="44.44231" lon="6.74209">
        <ele>1260.1</ele>
        <time>2022-06-12T11:07:56Z</time>
      </trkpt>
      <trkpt lat="44.44237" lon="6.7421">
        <ele>1260.2</ele>
        <time>2022-06-12T11:07:57Z</time>
      </trkpt>
      <trkpt lat="44.44242" lon="6.7421">
        <ele>1260.2</ele>
        <time>2022-06-12T11:07:58Z</time>
      </trkpt>
      <trkpt lat="44.44247" lon="6.74211">
        <ele>1260.3</ele>
        <time>2022-06-12T11:07:59Z</time>
      </trkpt>
      <trkpt lat="44.44252" lon="6.74211">
        <ele>1260.3</ele>
        <time>2022-06-12T11:08:00Z</time>
      </trkpt>
      <trkpt lat="44.44257" lon="6.74212">
        <ele>1260.5</ele>
        <time>2022-06-12T11:08:01Z</time>
      </trkpt>
      <trkpt lat="44.44262" lon="6.74212">
        <ele>1260.8</ele>
        <time>2022-06-12T11:08:02Z</time>
      </trkpt>
      <trkpt lat="44.44267" lon="6.74213">
        <ele>1261</ele>
        <time>2022-06-12T11:08:03Z</time>
      </trkpt>
      <trkpt lat="44.44273" lon="6.74213">
        <ele>1261.4</ele>
        <time>2022-06-12T11:08:04Z</time>
      </trkpt>
      <trkpt lat="44.44279" lon="6.74213">
        <ele>1261.6</ele>
        <time>2022-06-12T11:08:05Z</time>
      </trkpt>
      <trkpt lat="44.44284" lon="6.74214">
        <ele>1261.7</ele>
        <time>2022-06-12T11:08:06Z</time>
      </trkpt>
      <trkpt lat="44.4429" lon="6.74215">
        <ele>1261.9</ele>
        <time>2022-06-12T11:08:07Z</time>
      </trkpt>
      <trkpt lat="44.44295" lon="6.74215">
        <ele>1262.2</ele>
        <time>2022-06-12T11:08:08Z</time>
      </trkpt>
      <trkpt lat="44.443" lon="6.74216">
        <ele>1262.1</ele>
        <time>2022-06-12T11:08:09Z</time>
      </trkpt>
      <trkpt lat="44.44306" lon="6.74216">
        <ele>1262.2</ele>
        <time>2022-06-12T11:08:10Z</time>
      </trkpt>
      <trkpt lat="44.44311" lon="6.74217">
        <ele>1262.6</ele>
        <time>2022-06-12T11:08:11Z</time>
      </trkpt>
      <trkpt lat="44.44317" lon="6.74218">
        <ele>1262.8</ele>
        <time>2022-06-12T11:08:12Z</time>
      </trkpt>
      <trkpt lat="44.44322" lon="6.74219">
        <ele>1263</ele>
        <time>2022-06-12T11:08:13Z</time>
      </trkpt>
      <trkpt lat="44.44328" lon="6.74221">
        <ele>1262.9</ele>
        <time>2022-06-12T11:08:14Z</time>
      </trkpt>
      <trkpt lat="44.44333" lon="6.74223">
        <ele>1262.8</ele>
        <time>2022-06-12T11:08:15Z</time>
      </trkpt>
      <trkpt lat="44.44338" lon="6.74225">
        <ele>1262.9</ele>
        <time>2022-06-12T11:08:16Z</time>
      </trkpt>
      <trkpt lat="44.44343" lon="6.74228">
        <ele>1262.8</ele>
        <time>2022-06-12T11:08:17Z</time>
      </trkpt>
      <trkpt lat="44.44348" lon="6.74231">
        <ele>1262.6</ele>
        <time>2022-06-12T11:08:18Z</time>
      </trkpt>
      <trkpt lat="44.44353" lon="6.74234">
        <ele>1262.2</ele>
        <time>2022-06-12T11:08:19Z</time>
      </trkpt>
      <trkpt lat="44.44358" lon="6.74238">
        <ele>1261.7</ele>
        <time>2022-06-12T11:08:20Z</time>
      </trkpt>
      <trkpt lat="44.44362" lon="6.74241">
        <ele>1261.2</ele>
        <time>2022-06-12T11:08:21Z</time>
      </trkpt>
      <trkpt lat="44.44368" lon="6.74244">
        <ele>1260.7</ele>
        <time>2022-06-12T11:08:22Z</time>
      </trkpt>
      <trkpt lat="44.44372" lon="6.74247">
        <ele>1260.2</ele>
        <time>2022-06-12T11:08:23Z</time>
      </trkpt>
      <trkpt lat="44.44377" lon="6.7425">
        <ele>1259.7</ele>
        <time>2022-06-12T11:08:24Z</time>
      </trkpt>
      <trkpt lat="44.44382" lon="6.74253">
        <ele>1259.7</ele>
        <time>2022-06-12T11:08:25Z</time>
      </trkpt>
      <trkpt lat="44.44386" lon="6.74256">
        <ele>1259.5</ele>
        <time>2022-06-12T11:08:26Z</time>
      </trkpt>
      <trkpt lat="44.4439" lon="6.74258">
        <ele>1259.4</ele>
        <time>2022-06-12T11:08:27Z</time>
      </trkpt>
      <trkpt lat="44.44395" lon="6.7426">
        <ele>1259.3</ele>
        <time>2022-06-12T11:08:28Z</time>
      </trkpt>
      <trkpt lat="44.444" lon="6.74262">
        <ele>1259.1</ele>
        <time>2022-06-12T11:08:29Z</time>
      </trkpt>
      <trkpt lat="44.44405" lon="6.74264">
        <ele>1259</ele>
        <time>2022-06-12T11:08:30Z</time>
      </trkpt>
      <trkpt lat="44.4441" lon="6.74265">
        <ele>1258.9</ele>
        <time>2022-06-12T11:08:31Z</time>
      </trkpt>
      <trkpt lat="44.44415" lon="6.74266">
        <ele>1258.9</ele>
        <time>2022-06-12T11:08:32Z</time>
      </trkpt>
      <trkpt lat="44.44421" lon="6.74266">
        <ele>1258.8</ele>
        <time>2022-06-12T11:08:33Z</time>
      </trkpt>
      <trkpt lat="44.44426" lon="6.74267">
        <ele>1258.5</ele>
        <time>2022-06-12T11:08:34Z</time>
      </trkpt>
      <trkpt lat="44.44431" lon="6.74267">
        <ele>1258.2</ele>
        <time>2022-06-12T11:08:35Z</time>
      </trkpt>
      <trkpt lat="44.44437" lon="6.74267">
        <ele>1258</ele>
        <time>2022-06-12T11:08:36Z</time>
      </trkpt>
      <trkpt lat="44.44442" lon="6.74266">
        <ele>1258</ele>
        <time>2022-06-12T11:08:37Z</time>
      </trkpt>
      <trkpt lat="44.44448" lon="6.74265">
        <ele>1258.1</ele>
        <time>2022-06-12T11:08:38Z</time>
      </trkpt>
      <trkpt lat="44.44454" lon="6.74264">
        <ele>1258.3</ele>
        <time>2022-06-12T11:08:39Z</time>
      </trkpt>
      <trkpt lat="44.44459" lon="6.74262">
        <ele>1258.4</ele>
        <time>2022-06-12T11:08:40Z</time>
      </trkpt>
      <trkpt lat="44.44465" lon="6.7426">
        <ele>1258.6</ele>
        <time>2022-06-12T11:08:41Z</time>
      </trkpt>
      <trkpt lat="44.4447" lon="6.74258">
        <ele>1258.7</ele>
        <time>2022-06-12T11:08:42Z</time>
      </trkpt>
      <trkpt lat="44.44476" lon="6.74256">
        <ele>1258.8</ele>
        <time>2022-06-12T11:08:43Z</time>
      </trkpt>
      <trkpt lat="44.44481" lon="6.74253">
        <ele>1259</ele>
        <time>2022-06-12T11:08:44Z</time>
      </trkpt>
      <trkpt lat="44.44486" lon="6.7425">
        <ele>1259.1</ele>
        <time>2022-06-12T11:08:45Z</time>
      </trkpt>
      <trkpt lat="44.44492" lon="6.74247">
        <ele>1259.5</ele>
        <time>2022-06-12T11:08:46Z</time>
      </trkpt>
      <trkpt lat="44.44497" lon="6.74244">
        <ele>1259.7</ele>
        <time>2022-06-12T11:08:47Z</time>
      </trkpt>
      <trkpt lat="44.44502" lon="6.74241">
        <ele>1259.9</ele>
        <time>2022-06-12T11:08:48Z</time>
      </trkpt>
      <trkpt lat="44.44507" lon="6.74238">
        <ele>1260.2</ele>
        <time>2022-06-12T11:08:49Z</time>
      </trkpt>
      <trkpt lat="44.44512" lon="6.74234">
        <ele>1260.5</ele>
        <time>2022-06-12T11:08:50Z</time>
      </trkpt>
      <trkpt lat="44.44517" lon="6.74231">
        <ele>1260.5</ele>
        <time>2022-06-12T11:08:51Z</time>
      </trkpt>
      <trkpt lat="44.44522" lon="6.74228">
        <ele>1260.3</ele>
        <time>2022-06-12T11:08:52Z</time>
      </trkpt>
      <trkpt lat="44.44527" lon="6.74224">
        <ele>1260</ele>
        <time>2022-06-12T11:08:53Z</time>
      </trkpt>
      <trkpt lat="44.44532" lon="6.74221">
        <ele>1260.1</ele>
        <time>2022-06-12T11:08:54Z</time>
      </trkpt>
      <trkpt lat="44.44537" lon="6.74218">
        <ele>1260.4</ele>
        <time>2022-06-12T11:08:55Z</time>
      </trkpt>
      <trkpt lat="44.44542" lon="6.74215">
        <ele>1260.6</ele>
        <time>2022-06-12T11:08:56Z</time>
      </trkpt>
      <trkpt lat="44.44547" lon="6.74212">
        <ele>1260.7</ele>
        <time>2022-06-12T11:08:57Z</time>
      </trkpt>
      <trkpt lat="44.44552" lon="6.74209">
        <ele>1260.7</ele>
        <time>2022-06-12T11:08:58Z</time>
      </trkpt>
      <trkpt lat="44.44557" lon="6.74206">
        <ele>1260.6</ele>
        <time>2022-06-12T11:08:59Z</time>
      </trkpt>
      <trkpt lat="44.44561" lon="6.74203">
        <ele>1260.7</ele>
        <time>2022-06-12T11:09:00Z</time>
      </trkpt>
      <trkpt lat="44.44565" lon="6.74199">
        <ele>1260.8</ele>
        <time>2022-06-12T11:09:01Z</time>
      </trkpt>
      <trkpt lat="44.4457" lon="6.74196">
        <ele>1261</ele>
        <time>2022-06-12T11:09:02Z</time>
      </trkpt>
      <trkpt lat="44.44574" lon="6.74192">
        <ele>1261.1</ele>
        <time>2022-06-12T11:09:03Z</time>
      </trkpt>
      <trkpt lat="44.44579" lon="6.74188">
        <ele>1261.3</ele>
        <time>2022-06-12T11:09:04Z</time>
      </trkpt>
      <trkpt lat="44.44583" lon="6.74184">
        <ele>1261.4</ele>
        <time>2022-06-12T11:09:05Z</time>
      </trkpt>
      <trkpt lat="44.44587" lon="6.7418">
        <ele>1261.5</ele>
        <time>2022-06-12T11:09:06Z</time>
      </trkpt>
      <trkpt lat="44.44592" lon="6.74176">
        <ele>1261.7</ele>
        <time>2022-06-12T11:09:07Z</time>
      </trkpt>
      <trkpt lat="44.44596" lon="6.74171">
        <ele>1261.8</ele>
        <time>2022-06-12T11:09:08Z</time>
      </trkpt>
      <trkpt lat="44.446" lon="6.74167">
        <ele>1262</ele>
        <time>2022-06-12T11:09:09Z</time>
      </trkpt>
      <trkpt lat="44.44605" lon="6.74163">
        <ele>1262.3</ele>
        <time>2022-06-12T11:09:10Z</time>
      </trkpt>
      <trkpt lat="44.44609" lon="6.74159">
        <ele>1262.6</ele>
        <time>2022-06-12T11:09:11Z</time>
      </trkpt>
      <trkpt lat="44.44614" lon="6.74154">
        <ele>1262.9</ele>
        <time>2022-06-12T11:09:12Z</time>
      </trkpt>
      <trkpt lat="44.44618" lon="6.7415">
        <ele>1263.1</ele>
        <time>2022-06-12T11:09:13Z</time>
      </trkpt>
      <trkpt lat="44.44622" lon="6.74145">
        <ele>1263.3</ele>
        <time>2022-06-12T11:09:14Z</time>
      </trkpt>
      <trkpt lat="44.44627" lon="6.7414">
        <ele>1263.4</ele>
        <time>2022-06-12T11:09:15Z</time>
      </trkpt>
      <trkpt lat="44.44631" lon="6.74136">
        <ele>1263.4</ele>
        <time>2022-06-12T11:09:16Z</time>
      </trkpt>
      <trkpt lat="44.44636" lon="6.74131">
        <ele>1263.4</ele>
        <time>2022-06-12T11:09:17Z</time>
      </trkpt>
      <trkpt lat="44.44641" lon="6.74127">
        <ele>1263.4</ele>
        <time>2022-06-12T11:09:18Z</time>
      </trkpt>
      <trkpt lat="44.44646" lon="6.74122">
        <ele>1263.6</ele>
        <time>2022-06-12T11:09:19Z</time>
      </trkpt>
      <trkpt lat="44.4465" lon="6.74117">
        <ele>1263.8</ele>
        <time>2022-06-12T11:09:20Z</time>
      </trkpt>
      <trkpt lat="44.44655" lon="6.74113">
        <ele>1264</ele>
        <time>2022-06-12T11:09:21Z</time>
      </trkpt>
      <trkpt lat="44.4466" lon="6.74108">
        <ele>1264.1</ele>
        <time>2022-06-12T11:09:22Z</time>
      </trkpt>
      <trkpt lat="44.44665" lon="6.74104">
        <ele>1264.3</ele>
        <time>2022-06-12T11:09:23Z</time>
      </trkpt>
      <trkpt lat="44.4467" lon="6.741">
        <ele>1264.4</ele>
        <time>2022-06-12T11:09:24Z</time>
      </trkpt>
      <trkpt lat="44.44675" lon="6.74095">
        <ele>1264.6</ele>
        <time>2022-06-12T11:09:25Z</time>
      </trkpt>
      <trkpt lat="44.44679" lon="6.7409">
        <ele>1264.7</ele>
        <time>2022-06-12T11:09:26Z</time>
      </trkpt>
      <trkpt lat="44.44684" lon="6.74086">
        <ele>1264.9</ele>
        <time>2022-06-12T11:09:27Z</time>
      </trkpt>
      <trkpt lat="44.44688" lon="6.74081">
        <ele>1265.1</ele>
        <time>2022-06-12T11:09:28Z</time>
      </trkpt>
      <trkpt lat="44.44693" lon="6.74076">
        <ele>1265.3</ele>
        <time>2022-06-12T11:09:29Z</time>
      </trkpt>
      <trkpt lat="44.44698" lon="6.74072">
        <ele>1265.3</ele>
        <time>2022-06-12T11:09:30Z</time>
      </trkpt>
      <trkpt lat="44.44703" lon="6.74068">
        <ele>1265.2</ele>
        <time>2022-06-12T11:09:31Z</time>
      </trkpt>
      <trkpt lat="44.44708" lon="6.74064">
        <ele>1265.2</ele>
        <time>2022-06-12T11:09:32Z</time>
      </trkpt>
      <trkpt lat="44.44713" lon="6.74059">
        <ele>1265.2</ele>
        <time>2022-06-12T11:09:33Z</time>
      </trkpt>
      <trkpt lat="44.44718" lon="6.74056">
        <ele>1265.2</ele>
        <time>2022-06-12T11:09:34Z</time>
      </trkpt>
      <trkpt lat="44.44722" lon="6.74052">
        <ele>1265.3</ele>
        <time>2022-06-12T11:09:35Z</time>
      </trkpt>
      <trkpt lat="44.44727" lon="6.74048">
        <ele>1265.6</ele>
        <time>2022-06-12T11:09:36Z</time>
      </trkpt>
      <trkpt lat="44.44733" lon="6.74044">
        <ele>1265.8</ele>
        <time>2022-06-12T11:09:37Z</time>
      </trkpt>
      <trkpt lat="44.44738" lon="6.7404">
        <ele>1266.1</ele>
        <time>2022-06-12T11:09:38Z</time>
      </trkpt>
      <trkpt lat="44.44743" lon="6.74037">
        <ele>1266.3</ele>
        <time>2022-06-12T11:09:39Z</time>
      </trkpt>
      <trkpt lat="44.44749" lon="6.74034">
        <ele>1266.5</ele>
        <time>2022-06-12T11:09:40Z</time>
      </trkpt>
      <trkpt lat="44.44754" lon="6.74032">
        <ele>1266.7</ele>
        <time>2022-06-12T11:09:41Z</time>
      </trkpt>
      <trkpt lat="44.4476" lon="6.7403">
        <ele>1266.9</ele>
        <time>2022-06-12T11:09:42Z</time>
      </trkpt>
      <trkpt lat="44.44765" lon="6.74028">
        <ele>1267</ele>
        <time>2022-06-12T11:09:43Z</time>
      </trkpt>
      <trkpt lat="44.44771" lon="6.74027">
        <ele>1267.1</ele>
        <time>2022-06-12T11:09:44Z</time>
      </trkpt>
      <trkpt lat="44.44776" lon="6.74026">
        <ele>1267.1</ele>
        <time>2022-06-12T11:09:45Z</time>
      </trkpt>
      <trkpt lat="44.44782" lon="6.74026">
        <ele>1267.2</ele>
        <time>2022-06-12T11:09:46Z</time>
      </trkpt>
      <trkpt lat="44.44788" lon="6.74026">
        <ele>1267.1</ele>
        <time>2022-06-12T11:09:47Z</time>
      </trkpt>
      <trkpt lat="44.44793" lon="6.74027">
        <ele>1267.1</ele>
        <time>2022-06-12T11:09:48Z</time>
      </trkpt>
      <trkpt lat="44.44799" lon="6.74028">
        <ele>1267</ele>
        <time>2022-06-12T11:09:49Z</time>
      </trkpt>
      <trkpt lat="44.44805" lon="6.74029">
        <ele>1266.9</ele>
        <time>2022-06-12T11:09:50Z</time>
      </trkpt>
      <trkpt lat="44.4481" lon="6.74031">
        <ele>1266.6</ele>
        <time>2022-06-12T11:09:51Z</time>
      </trkpt>
      <trkpt lat="44.44817" lon="6.74032">
        <ele>1266.4</ele>
        <time>2022-06-12T11:09:52Z</time>
      </trkpt>
      <trkpt lat="44.44823" lon="6.74034">
        <ele>1266.1</ele>
        <time>2022-06-12T11:09:53Z</time>
      </trkpt>
      <trkpt lat="44.44829" lon="6.74035">
        <ele>1265.9</ele>
        <time>2022-06-12T11:09:54Z</time>
      </trkpt>
      <trkpt lat="44.44835" lon="6.74036">
        <ele>1265.7</ele>
        <time>2022-06-12T11:09:55Z</time>
      </trkpt>
      <trkpt lat="44.44841" lon="6.74038">
        <ele>1265.5</ele>
        <time>2022-06-12T11:09:56Z</time>
      </trkpt>
      <trkpt lat="44.44847" lon="6.7404">
        <ele>1265.3</ele>
        <time>2022-06-12T11:09:57Z</time>
      </trkpt>
      <trkpt lat="44.44852" lon="6.74042">
        <ele>1265.1</ele>
        <time>2022-06-12T11:09:58Z</time>
      </trkpt>
      <trkpt lat="44.44858" lon="6.74044">
        <ele>1264.9</ele>
        <time>2022-06-12T11:09:59Z</time>
      </trkpt>
      <trkpt lat="44.44863" lon="6.74045">
        <ele>1264.8</ele>
        <time>2022-06-12T11:10:00Z</time>
      </trkpt>
      <trkpt lat="44.44868" lon="6.74047">
        <ele>1264.8</ele>
        <time>2022-06-12T11:10:01Z</time>
      </trkpt>
      <trkpt lat="44.44873" lon="6.74049">
        <ele>1264.8</ele>
        <time>2022-06-12T11:10:02Z</time>
      </trkpt>
      <trkpt lat="44.44879" lon="6.7405">
        <ele>1264.9</ele>
        <time>2022-06-12T11:10:03Z</time>
      </trkpt>
      <trkpt lat="44.44885" lon="6.74051">
        <ele>1265</ele>
        <time>2022-06-12T11:10:04Z</time>
      </trkpt>
      <trkpt lat="44.44891" lon="6.74053">
        <ele>1265.1</ele>
        <time>2022-06-12T11:10:05Z</time>
      </trkpt>
      <trkpt lat="44.44896" lon="6.74055">
        <ele>1265</ele>
        <time>2022-06-12T11:10:06Z</time>
      </trkpt>
      <trkpt lat="44.44902" lon="6.74056">
        <ele>1265</ele>
        <time>2022-06-12T11:10:07Z</time>
      </trkpt>
      <trkpt lat="44.44908" lon="6.74057">
        <ele>1264.9</ele>
        <time>2022-06-12T11:10:08Z</time>
      </trkpt>
      <trkpt lat="44.44914" lon="6.74058">
        <ele>1264.9</ele>
        <time>2022-06-12T11:10:09Z</time>
      </trkpt>
      <trkpt lat="44.4492" lon="6.74059">
        <ele>1264.9</ele>
        <time>2022-06-12T11:10:10Z</time>
      </trkpt>
      <trkpt lat="44.44926" lon="6.7406">
        <ele>1264.8</ele>
        <time>2022-06-12T11:10:11Z</time>
      </trkpt>
      <trkpt lat="44.44932" lon="6.74062">
        <ele>1264.8</ele>
        <time>2022-06-12T11:10:12Z</time>
      </trkpt>
      <trkpt lat="44.44937" lon="6.74064">
        <ele>1264.7</ele>
        <time>2022-06-12T11:10:13Z</time>
      </trkpt>
      <trkpt lat="44.44943" lon="6.74065">
        <ele>1264.7</ele>
        <time>2022-06-12T11:10:14Z</time>
      </trkpt>
      <trkpt lat="44.44948" lon="6.74066">
        <ele>1264.8</ele>
        <time>2022-06-12T11:10:15Z</time>
      </trkpt>
      <trkpt lat="44.44954" lon="6.74067">
        <ele>1265.1</ele>
        <time>2022-06-12T11:10:16Z</time>
      </trkpt>
      <trkpt lat="44.44959" lon="6.74068">
        <ele>1265.4</ele>
        <time>2022-06-12T11:10:17Z</time>
      </trkpt>
      <trkpt lat="44.44964" lon="6.74069">
        <ele>1265.6</ele>
        <time>2022-06-12T11:10:18Z</time>
      </trkpt>
      <trkpt lat="44.44969" lon="6.74071">
        <ele>1265.7</ele>
        <time>2022-06-12T11:10:19Z</time>
      </trkpt>
      <trkpt lat="44.44974" lon="6.74073">
        <ele>1265.8</ele>
        <time>2022-06-12T11:10:20Z</time>
      </trkpt>
      <trkpt lat="44.44979" lon="6.74076">
        <ele>1265.8</ele>
        <time>2022-06-12T11:10:21Z</time>
      </trkpt>
      <trkpt lat="44.44983" lon="6.74079">
        <ele>1265.7</ele>
        <time>2022-06-12T11:10:22Z</time>
      </trkpt>
      <trkpt lat="44.44988" lon="6.74082">
        <ele>1265.7</ele>
        <time>2022-06-12T11:10:23Z</time>
      </trkpt>
      <trkpt lat="44.44993" lon="6.74086">
        <ele>1265.6</ele>
        <time>2022-06-12T11:10:24Z</time>
      </trkpt>
      <trkpt lat="44.44997" lon="6.74089">
        <ele>1265.7</ele>
        <time>2022-06-12T11:10:25Z</time>
      </trkpt>
      <trkpt lat="44.45002" lon="6.74094">
        <ele>1265.7</ele>
        <time>2022-06-12T11:10:26Z</time>
      </trkpt>
      <trkpt lat="44.45006" lon="6.74099">
        <ele>1265.9</ele>
        <time>2022-06-12T11:10:27Z</time>
      </trkpt>
      <trkpt lat="44.4501" lon="6.74104">
        <ele>1266</ele>
        <time>2022-06-12T11:10:28Z</time>
      </trkpt>
      <trkpt lat="44.45014" lon="6.74109">
        <ele>1266.1</ele>
        <time>2022-06-12T11:10:29Z</time>
      </trkpt>
      <trkpt lat="44.45019" lon="6.74114">
        <ele>1266.2</ele>
        <time>2022-06-12T11:10:30Z</time>
      </trkpt>
      <trkpt lat="44.45023" lon="6.74119">
        <ele>1266.1</ele>
        <time>2022-06-12T11:10:31Z</time>
      </trkpt>
      <trkpt lat="44.45027" lon="6.74123">
        <ele>1266.1</ele>
        <time>2022-06-12T11:10:32Z</time>
      </trkpt>
      <trkpt lat="44.45031" lon="6.74128">
        <ele>1265.9</ele>
        <time>2022-06-12T11:10:33Z</time>
      </trkpt>
      <trkpt lat="44.45036" lon="6.74133">
        <ele>1265.7</ele>
        <time>2022-06-12T11:10:34Z</time>
      </trkpt>
      <trkpt lat="44.45041" lon="6.74137">
        <ele>1265.6</ele>
        <time>2022-06-12T11:10:35Z</time>
      </trkpt>
      <trkpt lat="44.45045" lon="6.74142">
        <ele>1265.3</ele>
        <time>2022-06-12T11:10:36Z</time>
      </trkpt>
      <trkpt lat="44.4505" lon="6.74146">
        <ele>1265</ele>
        <time>2022-06-12T11:10:37Z</time>
      </trkpt>
      <trkpt lat="44.45054" lon="6.74151">
        <ele>1264.7</ele>
        <time>2022-06-12T11:10:38Z</time>
      </trkpt>
      <trkpt lat="44.45059" lon="6.74156">
        <ele>1264.4</ele>
        <time>2022-06-12T11:10:39Z</time>
      </trkpt>
      <trkpt lat="44.45064" lon="6.7416">
        <ele>1264.2</ele>
        <time>2022-06-12T11:10:40Z</time>
      </trkpt>
      <trkpt lat="44.45068" lon="6.74165">
        <ele>1264.1</ele>
        <time>2022-06-12T11:10:41Z</time>
      </trkpt>
      <trkpt lat="44.45073" lon="6.74169">
        <ele>1263.9</ele>
        <time>2022-06-12T11:10:42Z</time>
      </trkpt>
      <trkpt lat="44.45078" lon="6.74174">
        <ele>1263.8</ele>
        <time>2022-06-12T11:10:43Z</time>
      </trkpt>
      <trkpt lat="44.45082" lon="6.74179">
        <ele>1263.6</ele>
        <time>2022-06-12T11:10:44Z</time>
      </trkpt>
      <trkpt lat="44.45087" lon="6.74185">
        <ele>1263.5</ele>
        <time>2022-06-12T11:10:45Z</time>
      </trkpt>
      <trkpt lat="44.45092" lon="6.7419">
        <ele>1263.6</ele>
        <time>2022-06-12T11:10:46Z</time>
      </trkpt>
      <trkpt lat="44.45096" lon="6.74195">
        <ele>1263.8</ele>
        <time>2022-06-12T11:10:47Z</time>
      </trkpt>
      <trkpt lat="44.45101" lon="6.742">
        <ele>1263.9</ele>
        <time>2022-06-12T11:10:48Z</time>
      </trkpt>
      <trkpt lat="44.45106" lon="6.74205">
        <ele>1263.8</ele>
        <time>2022-06-12T11:10:49Z</time>
      </trkpt>
      <trkpt lat="44.4511" lon="6.7421">
        <ele>1263.7</ele>
        <time>2022-06-12T11:10:50Z</time>
      </trkpt>
      <trkpt lat="44.45115" lon="6.74215">
        <ele>1264.3</ele>
        <time>2022-06-12T11:10:51Z</time>
      </trkpt>
      <trkpt lat="44.4512" lon="6.74219">
        <ele>1264.9</ele>
        <time>2022-06-12T11:10:52Z</time>
      </trkpt>
      <trkpt lat="44.45124" lon="6.74224">
        <ele>1265.6</ele>
        <time>2022-06-12T11:10:53Z</time>
      </trkpt>
      <trkpt lat="44.45129" lon="6.74228">
        <ele>1266.2</ele>
        <time>2022-06-12T11:10:54Z</time>
      </trkpt>
      <trkpt lat="44.45134" lon="6.74232">
        <ele>1266.5</ele>
        <time>2022-06-12T11:10:55Z</time>
      </trkpt>
      <trkpt lat="44.45139" lon="6.74236">
        <ele>1266.5</ele>
        <time>2022-06-12T11:10:56Z</time>
      </trkpt>
      <trkpt lat="44.45144" lon="6.7424">
        <ele>1267.2</ele>
        <time>2022-06-12T11:10:57Z</time>
      </trkpt>
      <trkpt lat="44.45149" lon="6.74244">
        <ele>1267.9</ele>
        <time>2022-06-12T11:10:58Z</time>
      </trkpt>
      <trkpt lat="44.45154" lon="6.74248">
        <ele>1268.5</ele>
        <time>2022-06-12T11:10:59Z</time>
      </trkpt>
      <trkpt lat="44.45159" lon="6.74252">
        <ele>1269.1</ele>
        <time>2022-06-12T11:11:00Z</time>
      </trkpt>
      <trkpt lat="44.45164" lon="6.74256">
        <ele>1269.4</ele>
        <time>2022-06-12T11:11:01Z</time>
      </trkpt>
      <trkpt lat="44.4517" lon="6.7426">
        <ele>1269.3</ele>
        <time>2022-06-12T11:11:02Z</time>
      </trkpt>
      <trkpt lat="44.45175" lon="6.74263">
        <ele>1269.2</ele>
        <time>2022-06-12T11:11:03Z</time>
      </trkpt>
      <trkpt lat="44.4518" lon="6.74267">
        <ele>1268.9</ele>
        <time>2022-06-12T11:11:04Z</time>
      </trkpt>
      <trkpt lat="44.45186" lon="6.74271">
        <ele>1268.8</ele>
        <time>2022-06-12T11:11:05Z</time>
      </trkpt>
      <trkpt lat="44.45191" lon="6.74274">
        <ele>1268.7</ele>
        <time>2022-06-12T11:11:06Z</time>
      </trkpt>
      <trkpt lat="44.45196" lon="6.74277">
        <ele>1268.4</ele>
        <time>2022-06-12T11:11:07Z</time>
      </trkpt>
      <trkpt lat="44.45202" lon="6.74281">
        <ele>1267.8</ele>
        <time>2022-06-12T11:11:08Z</time>
      </trkpt>
      <trkpt lat="44.45208" lon="6.74284">
        <ele>1267.3</ele>
        <time>2022-06-12T11:11:09Z</time>
      </trkpt>
      <trkpt lat="44.45213" lon="6.74287">
        <ele>1266.8</ele>
        <time>2022-06-12T11:11:10Z</time>
      </trkpt>
      <trkpt lat="44.45219" lon="6.74289">
        <ele>1266.4</ele>
        <time>2022-06-12T11:11:11Z</time>
      </trkpt>
      <trkpt lat="44.45224" lon="6.74292">
        <ele>1266.1</ele>
        <time>2022-06-12T11:11:12Z</time>
      </trkpt>
      <trkpt lat="44.45229" lon="6.74295">
        <ele>1265.9</ele>
        <time>2022-06-12T11:11:13Z</time>
      </trkpt>
      <trkpt lat="44.45234" lon="6.74298">
        <ele>1265.9</ele>
        <time>2022-06-12T11:11:14Z</time>
      </trkpt>
      <trkpt lat="44.45239" lon="6.74301">
        <ele>1265.7</ele>
        <time>2022-06-12T11:11:15Z</time>
      </trkpt>
      <trkpt lat="44.45244" lon="6.74304">
        <ele>1265.6</ele>
        <time>2022-06-12T11:11:16Z</time>
      </trkpt>
      <trkpt lat="44.45249" lon="6.74307">
        <ele>1265.6</ele>
        <time>2022-06-12T11:11:17Z</time>
      </trkpt>
      <trkpt lat="44.45253" lon="6.7431">
        <ele>1265.9</ele>
        <time>2022-06-12T11:11:18Z</time>
      </trkpt>
      <trkpt lat="44.45257" lon="6.74314">
        <ele>1266.2</ele>
        <time>2022-06-12T11:11:19Z</time>
      </trkpt>
      <trkpt lat="44.45261" lon="6.74318">
        <ele>1266.5</ele>
        <time>2022-06-12T11:11:20Z</time>
      </trkpt>
      <trkpt lat="44.45264" lon="6.74323">
        <ele>1266.6</ele>
        <time>2022-06-12T11:11:21Z</time>
      </trkpt>
      <trkpt lat="44.45268" lon="6.74327">
        <ele>1266.7</ele>
        <time>2022-06-12T11:11:22Z</time>
      </trkpt>
      <trkpt lat="44.45271" lon="6.74331">
        <ele>1266.9</ele>
        <time>2022-06-12T11:11:23Z</time>
      </trkpt>
      <trkpt lat="44.45275" lon="6.74335">
        <ele>1267.1</ele>
        <time>2022-06-12T11:11:24Z</time>
      </trkpt>
      <trkpt lat="44.45278" lon="6.7434">
        <ele>1267.3</ele>
        <time>2022-06-12T11:11:25Z</time>
      </trkpt>
      <trkpt lat="44.45281" lon="6.74346">
        <ele>1268.1</ele>
        <time>2022-06-12T11:11:26Z</time>
      </trkpt>
      <trkpt lat="44.45285" lon="6.74352">
        <ele>1268.6</ele>
        <time>2022-06-12T11:11:27Z</time>
      </trkpt>
      <trkpt lat="44.45288" lon="6.74357">
        <ele>1268.8</ele>
        <time>2022-06-12T11:11:28Z</time>
      </trkpt>
      <trkpt lat="44.45291" lon="6.74363">
        <ele>1269.1</ele>
        <time>2022-06-12T11:11:29Z</time>
      </trkpt>
      <trkpt lat="44.45295" lon="6.74368">
        <ele>1269.3</ele>
        <time>2022-06-12T11:11:30Z</time>
      </trkpt>
      <trkpt lat="44.45299" lon="6.74372">
        <ele>1269.6</ele>
        <time>2022-06-12T11:11:31Z</time>
      </trkpt>
      <trkpt lat="44.45304" lon="6.74376">
        <ele>1269.8</ele>
        <time>2022-06-12T11:11:32Z</time>
      </trkpt>
      <trkpt lat="44.45309" lon="6.74379">
        <ele>1270.1</ele>
        <time>2022-06-12T11:11:33Z</time>
      </trkpt>
      <trkpt lat="44.45314" lon="6.74382">
        <ele>1270.2</ele>
        <time>2022-06-12T11:11:34Z</time>
      </trkpt>
      <trkpt lat="44.45319" lon="6.74385">
        <ele>1270.3</ele>
        <time>2022-06-12T11:11:35Z</time>
      </trkpt>
      <trkpt lat="44.45324" lon="6.74386">
        <ele>1270.6</ele>
        <time>2022-06-12T11:11:36Z</time>
      </trkpt>
      <trkpt lat="44.45329" lon="6.74387">
        <ele>1271.1</ele>
        <time>2022-06-12T11:11:37Z</time>
      </trkpt>
      <trkpt lat="44.45335" lon="6.74387">
        <ele>1271.8</ele>
        <time>2022-06-12T11:11:38Z</time>
      </trkpt>
      <trkpt lat="44.4534" lon="6.74387">
        <ele>1271.9</ele>
        <time>2022-06-12T11:11:39Z</time>
      </trkpt>
      <trkpt lat="44.45346" lon="6.74386">
        <ele>1272</ele>
        <time>2022-06-12T11:11:40Z</time>
      </trkpt>
      <trkpt lat="44.45351" lon="6.74385">
        <ele>1272.6</ele>
        <time>2022-06-12T11:11:41Z</time>
      </trkpt>
      <trkpt lat="44.45357" lon="6.74383">
        <ele>1273.2</ele>
        <time>2022-06-12T11:11:42Z</time>
      </trkpt>
      <trkpt lat="44.45362" lon="6.74381">
        <ele>1273.9</ele>
        <time>2022-06-12T11:11:43Z</time>
      </trkpt>
      <trkpt lat="44.45367" lon="6.74378">
        <ele>1274.3</ele>
        <time>2022-06-12T11:11:44Z</time>
      </trkpt>
      <trkpt lat="44.45373" lon="6.74375">
        <ele>1274.5</ele>
        <time>2022-06-12T11:11:45Z</time>
      </trkpt>
      <trkpt lat="44.45378" lon="6.74372">
        <ele>1274.3</ele>
        <time>2022-06-12T11:11:46Z</time>
      </trkpt>
      <trkpt lat="44.45384" lon="6.7437">
        <ele>1273.9</ele>
        <time>2022-06-12T11:11:47Z</time>
      </trkpt>
      <trkpt lat="44.4539" lon="6.74368">
        <ele>1273.5</ele>
        <time>2022-06-12T11:11:48Z</time>
      </trkpt>
      <trkpt lat="44.45395" lon="6.74367">
        <ele>1273.6</ele>
        <time>2022-06-12T11:11:49Z</time>
      </trkpt>
      <trkpt lat="44.454" lon="6.74366">
        <ele>1273.6</ele>
        <time>2022-06-12T11:11:50Z</time>
      </trkpt>
      <trkpt lat="44.45406" lon="6.74366">
        <ele>1273.5</ele>
        <time>2022-06-12T11:11:51Z</time>
      </trkpt>
      <trkpt lat="44.45411" lon="6.74366">
        <ele>1273.4</ele>
        <time>2022-06-12T11:11:52Z</time>
      </trkpt>
      <trkpt lat="44.45416" lon="6.74365">
        <ele>1273.3</ele>
        <time>2022-06-12T11:11:53Z</time>
      </trkpt>
      <trkpt lat="44.45421" lon="6.74365">
        <ele>1273.7</ele>
        <time>2022-06-12T11:11:54Z</time>
      </trkpt>
      <trkpt lat="44.45427" lon="6.74364">
        <ele>1274.2</ele>
        <time>2022-06-12T11:11:55Z</time>
      </trkpt>
      <trkpt lat="44.45431" lon="6.74365">
        <ele>1274.4</ele>
        <time>2022-06-12T11:11:56Z</time>
      </trkpt>
      <trkpt lat="44.45436" lon="6.74365">
        <ele>1274.6</ele>
        <time>2022-06-12T11:11:57Z</time>
      </trkpt>
      <trkpt lat="44.45441" lon="6.74366">
        <ele>1275</ele>
        <time>2022-06-12T11:11:58Z</time>
      </trkpt>
      <trkpt lat="44.45446" lon="6.74366">
        <ele>1275.2</ele>
        <time>2022-06-12T11:11:59Z</time>
      </trkpt>
      <trkpt lat="44.45451" lon="6.74367">
        <ele>1275.2</ele>
        <time>2022-06-12T11:12:00Z</time>
      </trkpt>
      <trkpt lat="44.45456" lon="6.74367">
        <ele>1275.2</ele>
        <time>2022-06-12T11:12:01Z</time>
      </trkpt>
      <trkpt lat="44.45461" lon="6.74368">
        <ele>1275.3</ele>
        <time>2022-06-12T11:12:02Z</time>
      </trkpt>
      <trkpt lat="44.45466" lon="6.74368">
        <ele>1275.4</ele>
        <time>2022-06-12T11:12:03Z</time>
      </trkpt>
      <trkpt lat="44.45472" lon="6.74368">
        <ele>1275.5</ele>
        <time>2022-06-12T11:12:04Z</time>
      </trkpt>
      <trkpt lat="44.45477" lon="6.74368">
        <ele>1275.6</ele>
        <time>2022-06-12T11:12:05Z</time>
      </trkpt>
      <trkpt lat="44.45482" lon="6.74368">
        <ele>1275.6</ele>
        <time>2022-06-12T11:12:06Z</time>
      </trkpt>
      <trkpt lat="44.45487" lon="6.74369">
        <ele>1275.5</ele>
        <time>2022-06-12T11:12:07Z</time>
      </trkpt>
      <trkpt lat="44.45492" lon="6.74369">
        <ele>1275.5</ele>
        <time>2022-06-12T11:12:08Z</time>
      </trkpt>
      <trkpt lat="44.45497" lon="6.74369">
        <ele>1275.5</ele>
        <time>2022-06-12T11:12:09Z</time>
      </trkpt>
      <trkpt lat="44.45502" lon="6.7437">
        <ele>1275.5</ele>
        <time>2022-06-12T11:12:10Z</time>
      </trkpt>
      <trkpt lat="44.45507" lon="6.74371">
        <ele>1275.5</ele>
        <time>2022-06-12T11:12:11Z</time>
      </trkpt>
      <trkpt lat="44.45512" lon="6.74372">
        <ele>1275.5</ele>
        <time>2022-06-12T11:12:12Z</time>
      </trkpt>
      <trkpt lat="44.45517" lon="6.74372">
        <ele>1275.6</ele>
        <time>2022-06-12T11:12:13Z</time>
      </trkpt>
      <trkpt lat="44.45521" lon="6.74374">
        <ele>1275.5</ele>
        <time>2022-06-12T11:12:14Z</time>
      </trkpt>
      <trkpt lat="44.45525" lon="6.74375">
        <ele>1275.4</ele>
        <time>2022-06-12T11:12:15Z</time>
      </trkpt>
      <trkpt lat="44.4553" lon="6.74377">
        <ele>1275.4</ele>
        <time>2022-06-12T11:12:16Z</time>
      </trkpt>
      <trkpt lat="44.45534" lon="6.74379">
        <ele>1275.4</ele>
        <time>2022-06-12T11:12:17Z</time>
      </trkpt>
      <trkpt lat="44.45538" lon="6.7438">
        <ele>1275.4</ele>
        <time>2022-06-12T11:12:18Z</time>
      </trkpt>
      <trkpt lat="44.45543" lon="6.74383">
        <ele>1275.3</ele>
        <time>2022-06-12T11:12:19Z</time>
      </trkpt>
      <trkpt lat="44.45547" lon="6.74385">
        <ele>1275.1</ele>
        <time>2022-06-12T11:12:20Z</time>
      </trkpt>
      <trkpt lat="44.45551" lon="6.74388">
        <ele>1275</ele>
        <time>2022-06-12T11:12:21Z</time>
      </trkpt>
      <trkpt lat="44.45555" lon="6.74391">
        <ele>1274.8</ele>
        <time>2022-06-12T11:12:22Z</time>
      </trkpt>
      <trkpt lat="44.45559" lon="6.74393">
        <ele>1275.4</ele>
        <time>2022-06-12T11:12:23Z</time>
      </trkpt>
      <trkpt lat="44.45563" lon="6.74396">
        <ele>1275.9</ele>
        <time>2022-06-12T11:12:24Z</time>
      </trkpt>
      <trkpt lat="44.45568" lon="6.74399">
        <ele>1276.4</ele>
        <time>2022-06-12T11:12:25Z</time>
      </trkpt>
      <trkpt lat="44.45572" lon="6.74401">
        <ele>1276.7</ele>
        <time>2022-06-12T11:12:26Z</time>
      </trkpt>
      <trkpt lat="44.45576" lon="6.74404">
        <ele>1277</ele>
        <time>2022-06-12T11:12:27Z</time>
      </trkpt>
      <trkpt lat="44.4558" lon="6.74405">
        <ele>1277.4</ele>
        <time>2022-06-12T11:12:28Z</time>
      </trkpt>
      <trkpt lat="44.45584" lon="6.74407">
        <ele>1277.4</ele>
        <time>2022-06-12T11:12:29Z</time>
      </trkpt>
      <trkpt lat="44.45588" lon="6.7441">
        <ele>1277.5</ele>
        <time>2022-06-12T11:12:30Z</time>
      </trkpt>
      <trkpt lat="44.45592" lon="6.74411">
        <ele>1277.6</ele>
        <time>2022-06-12T11:12:31Z</time>
      </trkpt>
      <trkpt lat="44.45596" lon="6.74412">
        <ele>1277.8</ele>
        <time>2022-06-12T11:12:32Z</time>
      </trkpt>
      <trkpt lat="44.45601" lon="6.74413">
        <ele>1278.1</ele>
        <time>2022-06-12T11:12:33Z</time>
      </trkpt>
      <trkpt lat="44.45605" lon="6.74414">
        <ele>1278.4</ele>
        <time>2022-06-12T11:12:34Z</time>
      </trkpt>
      <trkpt lat="44.45609" lon="6.74414">
        <ele>1278.9</ele>
        <time>2022-06-12T11:12:35Z</time>
      </trkpt>
      <trkpt lat="44.45614" lon="6.74414">
        <ele>1279.2</ele>
        <time>2022-06-12T11:12:36Z</time>
      </trkpt>
      <trkpt lat="44.45618" lon="6.74414">
        <ele>1279.3</ele>
        <time>2022-06-12T11:12:37Z</time>
      </trkpt>
      <trkpt lat="44.45622" lon="6.74414">
        <ele>1279.5</ele>
        <time>2022-06-12T11:12:38Z</time>
      </trkpt>
      <trkpt lat="44.45627" lon="6.74414">
        <ele>1279.7</ele>
        <time>2022-06-12T11:12:39Z</time>
      </trkpt>
      <trkpt lat="44.45632" lon="6.74414">
        <ele>1279.8</ele>
        <time>2022-06-12T11:12:40Z</time>
      </trkpt>
      <trkpt lat="44.45637" lon="6.74414">
        <ele>1280.2</ele>
        <time>2022-06-12T11:12:41Z</time>
      </trkpt>
      <trkpt lat="44.45641" lon="6.74414">
        <ele>1280.4</ele>
        <time>2022-06-12T11:12:42Z</time>
      </trkpt>
      <trkpt lat="44.45646" lon="6.74414">
        <ele>1280.6</ele>
        <time>2022-06-12T11:12:43Z</time>
      </trkpt>
      <trkpt lat="44.4565" lon="6.74413">
        <ele>1280.9</ele>
        <time>2022-06-12T11:12:44Z</time>
      </trkpt>
      <trkpt lat="44.45655" lon="6.74413">
        <ele>1281.2</ele>
        <time>2022-06-12T11:12:45Z</time>
      </trkpt>
      <trkpt lat="44.4566" lon="6.74413">
        <ele>1281.3</ele>
        <time>2022-06-12T11:12:46Z</time>
      </trkpt>
      <trkpt lat="44.45664" lon="6.74413">
        <ele>1281.3</ele>
        <time>2022-06-12T11:12:47Z</time>
      </trkpt>
      <trkpt lat="44.45668" lon="6.74413">
        <ele>1281.4</ele>
        <time>2022-06-12T11:12:48Z</time>
      </trkpt>
      <trkpt lat="44.45672" lon="6.74414">
        <ele>1281.2</ele>
        <time>2022-06-12T11:12:49Z</time>
      </trkpt>
      <trkpt lat="44.45677" lon="6.74416">
        <ele>1281.1</ele>
        <time>2022-06-12T11:12:50Z</time>
      </trkpt>
      <trkpt lat="44.45681" lon="6.74417">
        <ele>1281</ele>
        <time>2022-06-12T11:12:51Z</time>
      </trkpt>
      <trkpt lat="44.45685" lon="6.74419">
        <ele>1281.1</ele>
        <time>2022-06-12T11:12:52Z</time>
      </trkpt>
      <trkpt lat="44.45689" lon="6.7442">
        <ele>1281.2</ele>
        <time>2022-06-12T11:12:53Z</time>
      </trkpt>
      <trkpt lat="44.45693" lon="6.74422">
        <ele>1281.3</ele>
        <time>2022-06-12T11:12:54Z</time>
      </trkpt>
      <trkpt lat="44.45697" lon="6.74425">
        <ele>1281.4</ele>
        <time>2022-06-12T11:12:55Z</time>
      </trkpt>
      <trkpt lat="44.457" lon="6.74427">
        <ele>1281.6</ele>
        <time>2022-06-12T11:12:56Z</time>
      </trkpt>
      <trkpt lat="44.45704" lon="6.74429">
        <ele>1281.7</ele>
        <time>2022-06-12T11:12:57Z</time>
      </trkpt>
      <trkpt lat="44.45707" lon="6.74431">
        <ele>1281.8</ele>
        <time>2022-06-12T11:12:58Z</time>
      </trkpt>
      <trkpt lat="44.4571" lon="6.74434">
        <ele>1281.9</ele>
        <time>2022-06-12T11:12:59Z</time>
      </trkpt>
      <trkpt lat="44.45714" lon="6.74436">
        <ele>1282</ele>
        <time>2022-06-12T11:13:00Z</time>
      </trkpt>
      <trkpt lat="44.45717" lon="6.74438">
        <ele>1282.1</ele>
        <time>2022-06-12T11:13:01Z</time>
      </trkpt>
      <trkpt lat="44.45721" lon="6.74441">
        <ele>1282.2</ele>
        <time>2022-06-12T11:13:02Z</time>
      </trkpt>
      <trkpt lat="44.45724" lon="6.74443">
        <ele>1282.3</ele>
        <time>2022-06-12T11:13:03Z</time>
      </trkpt>
      <trkpt lat="44.45727" lon="6.74445">
        <ele>1282.3</ele>
        <time>2022-06-12T11:13:04Z</time>
      </trkpt>
      <trkpt lat="44.4573" lon="6.74447">
        <ele>1282.3</ele>
        <time>2022-06-12T11:13:05Z</time>
      </trkpt>
      <trkpt lat="44.45733" lon="6.74449">
        <ele>1282.4</ele>
        <time>2022-06-12T11:13:06Z</time>
      </trkpt>
      <trkpt lat="44.45737" lon="6.74452">
        <ele>1282.4</ele>
        <time>2022-06-12T11:13:07Z</time>
      </trkpt>
      <trkpt lat="44.4574" lon="6.74454">
        <ele>1282.5</ele>
        <time>2022-06-12T11:13:08Z</time>
      </trkpt>
      <trkpt lat="44.45744" lon="6.74456">
        <ele>1282.6</ele>
        <time>2022-06-12T11:13:09Z</time>
      </trkpt>
      <trkpt lat="44.45747" lon="6.74458">
        <ele>1282.7</ele>
        <time>2022-06-12T11:13:10Z</time>
      </trkpt>
      <trkpt lat="44.4575" lon="6.74461">
        <ele>1282.8</ele>
        <time>2022-06-12T11:13:11Z</time>
      </trkpt>
      <trkpt lat="44.45753" lon="6.74463">
        <ele>1282.9</ele>
        <time>2022-06-12T11:13:12Z</time>
      </trkpt>
      <trkpt lat="44.45756" lon="6.74466">
        <ele>1282.9</ele>
        <time>2022-06-12T11:13:13Z</time>
      </trkpt>
      <trkpt lat="44.4576" lon="6.74468">
        <ele>1283</ele>
        <time>2022-06-12T11:13:14Z</time>
      </trkpt>
      <trkpt lat="44.45763" lon="6.74471">
        <ele>1283</ele>
        <time>2022-06-12T11:13:15Z</time>
      </trkpt>
      <trkpt lat="44.45766" lon="6.74473">
        <ele>1283.1</ele>
        <time>2022-06-12T11:13:16Z</time>
      </trkpt>
      <trkpt lat="44.45769" lon="6.74476">
        <ele>1283.1</ele>
        <time>2022-06-12T11:13:17Z</time>
      </trkpt>
      <trkpt lat="44.45772" lon="6.74479">
        <ele>1283.1</ele>
        <time>2022-06-12T11:13:18Z</time>
      </trkpt>
      <trkpt lat="44.45775" lon="6.74482">
        <ele>1283.1</ele>
        <time>2022-06-12T11:13:19Z</time>
      </trkpt>
      <trkpt lat="44.45778" lon="6.74485">
        <ele>1283.1</ele>
        <time>2022-06-12T11:13:20Z</time>
      </trkpt>
      <trkpt lat="44.45782" lon="6.74488">
        <ele>1283.1</ele>
        <time>2022-06-12T11:13:21Z</time>
      </trkpt>
      <trkpt lat="44.45784" lon="6.74492">
        <ele>1283</ele>
        <time>2022-06-12T11:13:22Z</time>
      </trkpt>
      <trkpt lat="44.45787" lon="6.74496">
        <ele>1282.9</ele>
        <time>2022-06-12T11:13:23Z</time>
      </trkpt>
      <trkpt lat="44.4579" lon="6.745">
        <ele>1282.9</ele>
        <time>2022-06-12T11:13:24Z</time>
      </trkpt>
      <trkpt lat="44.45793" lon="6.74504">
        <ele>1283</ele>
        <time>2022-06-12T11:13:25Z</time>
      </trkpt>
      <trkpt lat="44.45795" lon="6.74508">
        <ele>1283.1</ele>
        <time>2022-06-12T11:13:26Z</time>
      </trkpt>
      <trkpt lat="44.45797" lon="6.74513">
        <ele>1283.3</ele>
        <time>2022-06-12T11:13:27Z</time>
      </trkpt>
      <trkpt lat="44.458" lon="6.74518">
        <ele>1283.4</ele>
        <time>2022-06-12T11:13:28Z</time>
      </trkpt>
      <trkpt lat="44.45802" lon="6.74523">
        <ele>1283.6</ele>
        <time>2022-06-12T11:13:29Z</time>
      </trkpt>
      <trkpt lat="44.45804" lon="6.74528">
        <ele>1283.8</ele>
        <time>2022-06-12T11:13:30Z</time>
      </trkpt>
      <trkpt lat="44.45805" lon="6.74533">
        <ele>1284</ele>
        <time>2022-06-12T11:13:31Z</time>
      </trkpt>
      <trkpt lat="44.45807" lon="6.74539">
        <ele>1284.2</ele>
        <time>2022-06-12T11:13:32Z</time>
      </trkpt>
      <trkpt lat="44.45809" lon="6.74545">
        <ele>1284.4</ele>
        <time>2022-06-12T11:13:33Z</time>
      </trkpt>
      <trkpt lat="44.4581" lon="6.74551">
        <ele>1284.5</ele>
        <time>2022-06-12T11:13:34Z</time>
      </trkpt>
      <trkpt lat="44.45811" lon="6.74558">
        <ele>1284.6</ele>
        <time>2022-06-12T11:13:35Z</time>
      </trkpt>
      <trkpt lat="44.45812" lon="6.74565">
        <ele>1284.5</ele>
        <time>2022-06-12T11:13:36Z</time>
      </trkpt>
      <trkpt lat="44.45812" lon="6.74572">
        <ele>1284.4</ele>
        <time>2022-06-12T11:13:37Z</time>
      </trkpt>
      <trkpt lat="44.45813" lon="6.7458">
        <ele>1284.2</ele>
        <time>2022-06-12T11:13:38Z</time>
      </trkpt>
      <trkpt lat="44.45813" lon="6.74587">
        <ele>1284</ele>
        <time>2022-06-12T11:13:39Z</time>
      </trkpt>
      <trkpt lat="44.45815" lon="6.74596">
        <ele>1283.9</ele>
        <time>2022-06-12T11:13:40Z</time>
      </trkpt>
      <trkpt lat="44.45816" lon="6.74604">
        <ele>1283.8</ele>
        <time>2022-06-12T11:13:41Z</time>
      </trkpt>
      <trkpt lat="44.45818" lon="6.74612">
        <ele>1283.6</ele>
        <time>2022-06-12T11:13:42Z</time>
      </trkpt>
      <trkpt lat="44.45819" lon="6.74621">
        <ele>1283.1</ele>
        <time>2022-06-12T11:13:43Z</time>
      </trkpt>
      <trkpt lat="44.45822" lon="6.74629">
        <ele>1282.7</ele>
        <time>2022-06-12T11:13:44Z</time>
      </trkpt>
      <trkpt lat="44.45825" lon="6.74637">
        <ele>1282.3</ele>
        <time>2022-06-12T11:13:45Z</time>
      </trkpt>
      <trkpt lat="44.45829" lon="6.74644">
        <ele>1282.1</ele>
        <time>2022-06-12T11:13:46Z</time>
      </trkpt>
      <trkpt lat="44.45834" lon="6.74651">
        <ele>1281.8</ele>
        <time>2022-06-12T11:13:47Z</time>
      </trkpt>
      <trkpt lat="44.45839" lon="6.74657">
        <ele>1281.6</ele>
        <time>2022-06-12T11:13:48Z</time>
      </trkpt>
      <trkpt lat="44.45844" lon="6.74662">
        <ele>1281.4</ele>
        <time>2022-06-12T11:13:49Z</time>
      </trkpt>
      <trkpt lat="44.4585" lon="6.74666">
        <ele>1281.3</ele>
        <time>2022-06-12T11:13:50Z</time>
      </trkpt>
      <trkpt lat="44.45856" lon="6.74669">
        <ele>1281.5</ele>
        <time>2022-06-12T11:13:51Z</time>
      </trkpt>
      <trkpt lat="44.45862" lon="6.74671">
        <ele>1281.7</ele>
        <time>2022-06-12T11:13:52Z</time>
      </trkpt>
      <trkpt lat="44.45868" lon="6.74672">
        <ele>1282.1</ele>
        <time>2022-06-12T11:13:53Z</time>
      </trkpt>
      <trkpt lat="44.45874" lon="6.74673">
        <ele>1282.5</ele>
        <time>2022-06-12T11:13:54Z</time>
      </trkpt>
      <trkpt lat="44.4588" lon="6.74673">
        <ele>1283</ele>
        <time>2022-06-12T11:13:55Z</time>
      </trkpt>
      <trkpt lat="44.45885" lon="6.74674">
        <ele>1283.4</ele>
        <time>2022-06-12T11:13:56Z</time>
      </trkpt>
      <trkpt lat="44.4589" lon="6.74674">
        <ele>1283.8</ele>
        <time>2022-06-12T11:13:57Z</time>
      </trkpt>
      <trkpt lat="44.45896" lon="6.74675">
        <ele>1284</ele>
        <time>2022-06-12T11:13:58Z</time>
      </trkpt>
      <trkpt lat="44.45901" lon="6.74675">
        <ele>1284.2</ele>
        <time>2022-06-12T11:13:59Z</time>
      </trkpt>
      <trkpt lat="44.45906" lon="6.74676">
        <ele>1284.4</ele>
        <time>2022-06-12T11:14:00Z</time>
      </trkpt>
      <trkpt lat="44.45911" lon="6.74676">
        <ele>1284.6</ele>
        <time>2022-06-12T11:14:01Z</time>
      </trkpt>
      <trkpt lat="44.45917" lon="6.74677">
        <ele>1284.8</ele>
        <time>2022-06-12T11:14:02Z</time>
      </trkpt>
      <trkpt lat="44.45922" lon="6.74677">
        <ele>1284.8</ele>
        <time>2022-06-12T11:14:03Z</time>
      </trkpt>
      <trkpt lat="44.45927" lon="6.74678">
        <ele>1284.7</ele>
        <time>2022-06-12T11:14:04Z</time>
      </trkpt>
      <trkpt lat="44.45932" lon="6.74679">
        <ele>1284.7</ele>
        <time>2022-06-12T11:14:05Z</time>
      </trkpt>
      <trkpt lat="44.45937" lon="6.74679">
        <ele>1284.6</ele>
        <time>2022-06-12T11:14:06Z</time>
      </trkpt>
      <trkpt lat="44.45941" lon="6.7468">
        <ele>1284.5</ele>
        <time>2022-06-12T11:14:07Z</time>
      </trkpt>
      <trkpt lat="44.45946" lon="6.74681">
        <ele>1284.5</ele>
        <time>2022-06-12T11:14:08Z</time>
      </trkpt>
      <trkpt lat="44.45951" lon="6.74682">
        <ele>1284.2</ele>
        <time>2022-06-12T11:14:09Z</time>
      </trkpt>
      <trkpt lat="44.45956" lon="6.74684">
        <ele>1284</ele>
        <time>2022-06-12T11:14:10Z</time>
      </trkpt>
      <trkpt lat="44.45961" lon="6.74685">
        <ele>1283.7</ele>
        <time>2022-06-12T11:14:11Z</time>
      </trkpt>
      <trkpt lat="44.45966" lon="6.74687">
        <ele>1283.4</ele>
        <time>2022-06-12T11:14:12Z</time>
      </trkpt>
      <trkpt lat="44.45971" lon="6.74688">
        <ele>1283.1</ele>
        <time>2022-06-12T11:14:13Z</time>
      </trkpt>
      <trkpt lat="44.45975" lon="6.7469">
        <ele>1283</ele>
        <time>2022-06-12T11:14:14Z</time>
      </trkpt>
      <trkpt lat="44.4598" lon="6.74693">
        <ele>1282.8</ele>
        <time>2022-06-12T11:14:15Z</time>
      </trkpt>
      <trkpt lat="44.45984" lon="6.74696">
        <ele>1282.7</ele>
        <time>2022-06-12T11:14:16Z</time>
      </trkpt>
      <trkpt lat="44.45989" lon="6.74698">
        <ele>1282.8</ele>
        <time>2022-06-12T11:14:17Z</time>
      </trkpt>
      <trkpt lat="44.45993" lon="6.74701">
        <ele>1282.8</ele>
        <time>2022-06-12T11:14:18Z</time>
      </trkpt>
      <trkpt lat="44.45998" lon="6.74703">
        <ele>1282.9</ele>
        <time>2022-06-12T11:14:19Z</time>
      </trkpt>
      <trkpt lat="44.46002" lon="6.74706">
        <ele>1283.1</ele>
        <time>2022-06-12T11:14:20Z</time>
      </trkpt>
      <trkpt lat="44.46006" lon="6.74708">
        <ele>1283.6</ele>
        <time>2022-06-12T11:14:21Z</time>
      </trkpt>
      <trkpt lat="44.46011" lon="6.74711">
        <ele>1284.1</ele>
        <time>2022-06-12T11:14:22Z</time>
      </trkpt>
      <trkpt lat="44.46015" lon="6.74714">
        <ele>1284.3</ele>
        <time>2022-06-12T11:14:23Z</time>
      </trkpt>
      <trkpt lat="44.46019" lon="6.74717">
        <ele>1284.5</ele>
        <time>2022-06-12T11:14:24Z</time>
      </trkpt>
      <trkpt lat="44.46023" lon="6.74721">
        <ele>1284.6</ele>
        <time>2022-06-12T11:14:25Z</time>
      </trkpt>
      <trkpt lat="44.46027" lon="6.74724">
        <ele>1284.7</ele>
        <time>2022-06-12T11:14:26Z</time>
      </trkpt>
      <trkpt lat="44.46031" lon="6.74727">
        <ele>1285.3</ele>
        <time>2022-06-12T11:14:27Z</time>
      </trkpt>
      <trkpt lat="44.46035" lon="6.74731">
        <ele>1285.9</ele>
        <time>2022-06-12T11:14:28Z</time>
      </trkpt>
      <trkpt lat="44.46039" lon="6.74734">
        <ele>1286.3</ele>
        <time>2022-06-12T11:14:29Z</time>
      </trkpt>
      <trkpt lat="44.46042" lon="6.74738">
        <ele>1286.6</ele>
        <time>2022-06-12T11:14:30Z</time>
      </trkpt>
      <trkpt lat="44.46047" lon="6.74742">
        <ele>1286.9</ele>
        <time>2022-06-12T11:14:31Z</time>
      </trkpt>
      <trkpt lat="44.4605" lon="6.74746">
        <ele>1286.8</ele>
        <time>2022-06-12T11:14:32Z</time>
      </trkpt>
      <trkpt lat="44.46054" lon="6.7475">
        <ele>1286.7</ele>
        <time>2022-06-12T11:14:33Z</time>
      </trkpt>
      <trkpt lat="44.46058" lon="6.74754">
        <ele>1287.1</ele>
        <time>2022-06-12T11:14:34Z</time>
      </trkpt>
      <trkpt lat="44.46062" lon="6.74758">
        <ele>1287.5</ele>
        <time>2022-06-12T11:14:35Z</time>
      </trkpt>
      <trkpt lat="44.46066" lon="6.74762">
        <ele>1287.7</ele>
        <time>2022-06-12T11:14:36Z</time>
      </trkpt>
      <trkpt lat="44.4607" lon="6.74766">
        <ele>1287.8</ele>
        <time>2022-06-12T11:14:37Z</time>
      </trkpt>
      <trkpt lat="44.46073" lon="6.7477">
        <ele>1287.7</ele>
        <time>2022-06-12T11:14:38Z</time>
      </trkpt>
      <trkpt lat="44.46076" lon="6.74774">
        <ele>1287.6</ele>
        <time>2022-06-12T11:14:39Z</time>
      </trkpt>
      <trkpt lat="44.4608" lon="6.74778">
        <ele>1287.4</ele>
        <time>2022-06-12T11:14:40Z</time>
      </trkpt>
      <trkpt lat="44.46084" lon="6.74782">
        <ele>1287.3</ele>
        <time>2022-06-12T11:14:41Z</time>
      </trkpt>
      <trkpt lat="44.46087" lon="6.74787">
        <ele>1287.2</ele>
        <time>2022-06-12T11:14:42Z</time>
      </trkpt>
      <trkpt lat="44.4609" lon="6.74792">
        <ele>1287.2</ele>
        <time>2022-06-12T11:14:43Z</time>
      </trkpt>
      <trkpt lat="44.46093" lon="6.74796">
        <ele>1287</ele>
        <time>2022-06-12T11:14:44Z</time>
      </trkpt>
      <trkpt lat="44.46096" lon="6.74801">
        <ele>1286.6</ele>
        <time>2022-06-12T11:14:45Z</time>
      </trkpt>
      <trkpt lat="44.46099" lon="6.74807">
        <ele>1286.3</ele>
        <time>2022-06-12T11:14:46Z</time>
      </trkpt>
      <trkpt lat="44.46103" lon="6.74812">
        <ele>1286.3</ele>
        <time>2022-06-12T11:14:47Z</time>
      </trkpt>
      <trkpt lat="44.46106" lon="6.74817">
        <ele>1286.3</ele>
        <time>2022-06-12T11:14:48Z</time>
      </trkpt>
      <trkpt lat="44.46109" lon="6.74823">
        <ele>1286.2</ele>
        <time>2022-06-12T11:14:49Z</time>
      </trkpt>
      <trkpt lat="44.46113" lon="6.74828">
        <ele>1286.2</ele>
        <time>2022-06-12T11:14:50Z</time>
      </trkpt>
      <trkpt lat="44.46116" lon="6.74833">
        <ele>1286.2</ele>
        <time>2022-06-12T11:14:51Z</time>
      </trkpt>
      <trkpt lat="44.46119" lon="6.74839">
        <ele>1286.3</ele>
        <time>2022-06-12T11:14:52Z</time>
      </trkpt>
      <trkpt lat="44.46123" lon="6.74845">
        <ele>1286.3</ele>
        <time>2022-06-12T11:14:53Z</time>
      </trkpt>
      <trkpt lat="44.46126" lon="6.74851">
        <ele>1286.3</ele>
        <time>2022-06-12T11:14:54Z</time>
      </trkpt>
      <trkpt lat="44.4613" lon="6.74857">
        <ele>1286.1</ele>
        <time>2022-06-12T11:14:55Z</time>
      </trkpt>
      <trkpt lat="44.46134" lon="6.74863">
        <ele>1285.9</ele>
        <time>2022-06-12T11:14:56Z</time>
      </trkpt>
      <trkpt lat="44.46137" lon="6.74869">
        <ele>1285.9</ele>
        <time>2022-06-12T11:14:57Z</time>
      </trkpt>
      <trkpt lat="44.46141" lon="6.74874">
        <ele>1286.2</ele>
        <time>2022-06-12T11:14:58Z</time>
      </trkpt>
      <trkpt lat="44.46145" lon="6.7488">
        <ele>1286.5</ele>
        <time>2022-06-12T11:14:59Z</time>
      </trkpt>
      <trkpt lat="44.46149" lon="6.74885">
        <ele>1286.8</ele>
        <time>2022-06-12T11:15:00Z</time>
      </trkpt>
      <trkpt lat="44.46153" lon="6.7489">
        <ele>1286.9</ele>
        <time>2022-06-12T11:15:01Z</time>
      </trkpt>
      <trkpt lat="44.46157" lon="6.74895">
        <ele>1287</ele>
        <time>2022-06-12T11:15:02Z</time>
      </trkpt>
      <trkpt lat="44.4616" lon="6.749">
        <ele>1287</ele>
        <time>2022-06-12T11:15:03Z</time>
      </trkpt>
      <trkpt lat="44.46164" lon="6.74905">
        <ele>1287</ele>
        <time>2022-06-12T11:15:04Z</time>
      </trkpt>
      <trkpt lat="44.46167" lon="6.7491">
        <ele>1287</ele>
        <time>2022-06-12T11:15:05Z</time>
      </trkpt>
      <trkpt lat="44.4617" lon="6.74915">
        <ele>1287.1</ele>
        <time>2022-06-12T11:15:06Z</time>
      </trkpt>
      <trkpt lat="44.46174" lon="6.74919">
        <ele>1287.1</ele>
        <time>2022-06-12T11:15:07Z</time>
      </trkpt>
      <trkpt lat="44.46178" lon="6.74925">
        <ele>1287.1</ele>
        <time>2022-06-12T11:15:08Z</time>
      </trkpt>
      <trkpt lat="44.46182" lon="6.7493">
        <ele>1287</ele>
        <time>2022-06-12T11:15:09Z</time>
      </trkpt>
      <trkpt lat="44.46185" lon="6.74936">
        <ele>1286.8</ele>
        <time>2022-06-12T11:15:10Z</time>
      </trkpt>
      <trkpt lat="44.46189" lon="6.74942">
        <ele>1286.6</ele>
        <time>2022-06-12T11:15:11Z</time>
      </trkpt>
      <trkpt lat="44.46194" lon="6.74947">
        <ele>1286.4</ele>
        <time>2022-06-12T11:15:12Z</time>
      </trkpt>
      <trkpt lat="44.46198" lon="6.74953">
        <ele>1286.5</ele>
        <time>2022-06-12T11:15:13Z</time>
      </trkpt>
      <trkpt lat="44.46202" lon="6.74959">
        <ele>1286.6</ele>
        <time>2022-06-12T11:15:14Z</time>
      </trkpt>
      <trkpt lat="44.46206" lon="6.74965">
        <ele>1286.7</ele>
        <time>2022-06-12T11:15:15Z</time>
      </trkpt>
      <trkpt lat="44.46211" lon="6.74971">
        <ele>1286.8</ele>
        <time>2022-06-12T11:15:16Z</time>
      </trkpt>
      <trkpt lat="44.46215" lon="6.74976">
        <ele>1287</ele>
        <time>2022-06-12T11:15:17Z</time>
      </trkpt>
      <trkpt lat="44.4622" lon="6.74982">
        <ele>1287.2</ele>
        <time>2022-06-12T11:15:18Z</time>
      </trkpt>
      <trkpt lat="44.46224" lon="6.74987">
        <ele>1287.3</ele>
        <time>2022-06-12T11:15:19Z</time>
      </trkpt>
      <trkpt lat="44.46229" lon="6.74992">
        <ele>1287.2</ele>
        <time>2022-06-12T11:15:20Z</time>
      </trkpt>
      <trkpt lat="44.46233" lon="6.74997">
        <ele>1287.2</ele>
        <time>2022-06-12T11:15:21Z</time>
      </trkpt>
      <trkpt lat="44.46238" lon="6.75001">
        <ele>1287.2</ele>
        <time>2022-06-12T11:15:22Z</time>
      </trkpt>
      <trkpt lat="44.46244" lon="6.75005">
        <ele>1287.5</ele>
        <time>2022-06-12T11:15:23Z</time>
      </trkpt>
      <trkpt lat="44.46249" lon="6.75008">
        <ele>1287.7</ele>
        <time>2022-06-12T11:15:24Z</time>
      </trkpt>
      <trkpt lat="44.46255" lon="6.75011">
        <ele>1288.2</ele>
        <time>2022-06-12T11:15:25Z</time>
      </trkpt>
      <trkpt lat="44.4626" lon="6.75014">
        <ele>1288.7</ele>
        <time>2022-06-12T11:15:26Z</time>
      </trkpt>
      <trkpt lat="44.46266" lon="6.75016">
        <ele>1289.1</ele>
        <time>2022-06-12T11:15:27Z</time>
      </trkpt>
      <trkpt lat="44.46271" lon="6.75019">
        <ele>1289.4</ele>
        <time>2022-06-12T11:15:28Z</time>
      </trkpt>
      <trkpt lat="44.46277" lon="6.75021">
        <ele>1289.6</ele>
        <time>2022-06-12T11:15:29Z</time>
      </trkpt>
      <trkpt lat="44.46282" lon="6.75023">
        <ele>1289.7</ele>
        <time>2022-06-12T11:15:30Z</time>
      </trkpt>
      <trkpt lat="44.46287" lon="6.75024">
        <ele>1290</ele>
        <time>2022-06-12T11:15:31Z</time>
      </trkpt>
      <trkpt lat="44.46293" lon="6.75026">
        <ele>1290.2</ele>
        <time>2022-06-12T11:15:32Z</time>
      </trkpt>
      <trkpt lat="44.46298" lon="6.75027">
        <ele>1290.3</ele>
        <time>2022-06-12T11:15:33Z</time>
      </trkpt>
      <trkpt lat="44.46303" lon="6.75029">
        <ele>1290.6</ele>
        <time>2022-06-12T11:15:34Z</time>
      </trkpt>
      <trkpt lat="44.46309" lon="6.75031">
        <ele>1291.2</ele>
        <time>2022-06-12T11:15:35Z</time>
      </trkpt>
      <trkpt lat="44.46315" lon="6.75033">
        <ele>1291.9</ele>
        <time>2022-06-12T11:15:36Z</time>
      </trkpt>
      <trkpt lat="44.46321" lon="6.75035">
        <ele>1292.6</ele>
        <time>2022-06-12T11:15:37Z</time>
      </trkpt>
      <trkpt lat="44.46326" lon="6.75038">
        <ele>1293.1</ele>
        <time>2022-06-12T11:15:38Z</time>
      </trkpt>
      <trkpt lat="44.46332" lon="6.75042">
        <ele>1293.3</ele>
        <time>2022-06-12T11:15:39Z</time>
      </trkpt>
      <trkpt lat="44.46338" lon="6.75046">
        <ele>1293.6</ele>
        <time>2022-06-12T11:15:40Z</time>
      </trkpt>
      <trkpt lat="44.46343" lon="6.75052">
        <ele>1293.6</ele>
        <time>2022-06-12T11:15:41Z</time>
      </trkpt>
      <trkpt lat="44.46348" lon="6.75057">
        <ele>1293.5</ele>
        <time>2022-06-12T11:15:42Z</time>
      </trkpt>
      <trkpt lat="44.46353" lon="6.75062">
        <ele>1293.7</ele>
        <time>2022-06-12T11:15:43Z</time>
      </trkpt>
      <trkpt lat="44.46358" lon="6.75068">
        <ele>1293.7</ele>
        <time>2022-06-12T11:15:44Z</time>
      </trkpt>
      <trkpt lat="44.46362" lon="6.75073">
        <ele>1293.6</ele>
        <time>2022-06-12T11:15:45Z</time>
      </trkpt>
      <trkpt lat="44.46366" lon="6.75079">
        <ele>1293.8</ele>
        <time>2022-06-12T11:15:46Z</time>
      </trkpt>
      <trkpt lat="44.4637" lon="6.75084">
        <ele>1293.8</ele>
        <time>2022-06-12T11:15:47Z</time>
      </trkpt>
      <trkpt lat="44.46374" lon="6.7509">
        <ele>1293.9</ele>
        <time>2022-06-12T11:15:48Z</time>
      </trkpt>
      <trkpt lat="44.46378" lon="6.75095">
        <ele>1293.9</ele>
        <time>2022-06-12T11:15:49Z</time>
      </trkpt>
      <trkpt lat="44.46382" lon="6.751">
        <ele>1293.7</ele>
        <time>2022-06-12T11:15:50Z</time>
      </trkpt>
      <trkpt lat="44.46386" lon="6.75105">
        <ele>1293.3</ele>
        <time>2022-06-12T11:15:51Z</time>
      </trkpt>
      <trkpt lat="44.4639" lon="6.75109">
        <ele>1293.1</ele>
        <time>2022-06-12T11:15:52Z</time>
      </trkpt>
      <trkpt lat="44.46394" lon="6.75114">
        <ele>1293.5</ele>
        <time>2022-06-12T11:15:53Z</time>
      </trkpt>
      <trkpt lat="44.46397" lon="6.75119">
        <ele>1294</ele>
        <time>2022-06-12T11:15:54Z</time>
      </trkpt>
      <trkpt lat="44.46401" lon="6.75123">
        <ele>1294.2</ele>
        <time>2022-06-12T11:15:55Z</time>
      </trkpt>
      <trkpt lat="44.46405" lon="6.75128">
        <ele>1294.3</ele>
        <time>2022-06-12T11:15:56Z</time>
      </trkpt>
      <trkpt lat="44.46409" lon="6.75133">
        <ele>1294.1</ele>
        <time>2022-06-12T11:15:57Z</time>
      </trkpt>
      <trkpt lat="44.46413" lon="6.75138">
        <ele>1293.5</ele>
        <time>2022-06-12T11:15:58Z</time>
      </trkpt>
      <trkpt lat="44.46416" lon="6.75142">
        <ele>1293.2</ele>
        <time>2022-06-12T11:15:59Z</time>
      </trkpt>
      <trkpt lat="44.4642" lon="6.75147">
        <ele>1293.8</ele>
        <time>2022-06-12T11:16:00Z</time>
      </trkpt>
      <trkpt lat="44.46424" lon="6.75152">
        <ele>1294.1</ele>
        <time>2022-06-12T11:16:01Z</time>
      </trkpt>
      <trkpt lat="44.46428" lon="6.75156">
        <ele>1294.4</ele>
        <time>2022-06-12T11:16:02Z</time>
      </trkpt>
      <trkpt lat="44.46432" lon="6.75161">
        <ele>1294.5</ele>
        <time>2022-06-12T11:16:03Z</time>
      </trkpt>
      <trkpt lat="44.46436" lon="6.75166">
        <ele>1294.3</ele>
        <time>2022-06-12T11:16:04Z</time>
      </trkpt>
      <trkpt lat="44.46439" lon="6.75171">
        <ele>1294.4</ele>
        <time>2022-06-12T11:16:05Z</time>
      </trkpt>
      <trkpt lat="44.46445" lon="6.75178">
        <ele>1294.5</ele>
        <time>2022-06-12T11:16:06Z</time>
      </trkpt>
      <trkpt lat="44.46447" lon="6.75181">
        <ele>1294.8</ele>
        <time>2022-06-12T11:16:07Z</time>
      </trkpt>
      <trkpt lat="44.46452" lon="6.75186">
        <ele>1295.1</ele>
        <time>2022-06-12T11:16:08Z</time>
      </trkpt>
      <trkpt lat="44.46458" lon="6.75193">
        <ele>1295.1</ele>
        <time>2022-06-12T11:16:09Z</time>
      </trkpt>
      <trkpt lat="44.4646" lon="6.75196">
        <ele>1295.1</ele>
        <time>2022-06-12T11:16:10Z</time>
      </trkpt>
      <trkpt lat="44.46464" lon="6.75201">
        <ele>1295.4</ele>
        <time>2022-06-12T11:16:11Z</time>
      </trkpt>
      <trkpt lat="44.46467" lon="6.75206">
        <ele>1295.4</ele>
        <time>2022-06-12T11:16:12Z</time>
      </trkpt>
      <trkpt lat="44.46471" lon="6.75212">
        <ele>1295.2</ele>
        <time>2022-06-12T11:16:13Z</time>
      </trkpt>
      <trkpt lat="44.46474" lon="6.75217">
        <ele>1295.1</ele>
        <time>2022-06-12T11:16:14Z</time>
      </trkpt>
      <trkpt lat="44.46478" lon="6.75223">
        <ele>1295.1</ele>
        <time>2022-06-12T11:16:15Z</time>
      </trkpt>
      <trkpt lat="44.46481" lon="6.7523">
        <ele>1295.4</ele>
        <time>2022-06-12T11:16:16Z</time>
      </trkpt>
      <trkpt lat="44.46485" lon="6.75237">
        <ele>1295.3</ele>
        <time>2022-06-12T11:16:17Z</time>
      </trkpt>
      <trkpt lat="44.46488" lon="6.75243">
        <ele>1295.1</ele>
        <time>2022-06-12T11:16:18Z</time>
      </trkpt>
      <trkpt lat="44.46492" lon="6.75251">
        <ele>1294.6</ele>
        <time>2022-06-12T11:16:19Z</time>
      </trkpt>
      <trkpt lat="44.46496" lon="6.75257">
        <ele>1294.8</ele>
        <time>2022-06-12T11:16:20Z</time>
      </trkpt>
      <trkpt lat="44.46499" lon="6.75265">
        <ele>1294.7</ele>
        <time>2022-06-12T11:16:21Z</time>
      </trkpt>
      <trkpt lat="44.46503" lon="6.75272">
        <ele>1294.9</ele>
        <time>2022-06-12T11:16:22Z</time>
      </trkpt>
      <trkpt lat="44.46507" lon="6.75279">
        <ele>1295.2</ele>
        <time>2022-06-12T11:16:23Z</time>
      </trkpt>
      <trkpt lat="44.4651" lon="6.75287">
        <ele>1295.5</ele>
        <time>2022-06-12T11:16:24Z</time>
      </trkpt>
      <trkpt lat="44.46513" lon="6.75295">
        <ele>1295.6</ele>
        <time>2022-06-12T11:16:25Z</time>
      </trkpt>
      <trkpt lat="44.46516" lon="6.75303">
        <ele>1295.6</ele>
        <time>2022-06-12T11:16:26Z</time>
      </trkpt>
      <trkpt lat="44.46518" lon="6.75311">
        <ele>1295.3</ele>
        <time>2022-06-12T11:16:27Z</time>
      </trkpt>
      <trkpt lat="44.46521" lon="6.75319">
        <ele>1295</ele>
        <time>2022-06-12T11:16:28Z</time>
      </trkpt>
      <trkpt lat="44.46522" lon="6.75327">
        <ele>1294.4</ele>
        <time>2022-06-12T11:16:29Z</time>
      </trkpt>
      <trkpt lat="44.46524" lon="6.75336">
        <ele>1293.7</ele>
        <time>2022-06-12T11:16:30Z</time>
      </trkpt>
      <trkpt lat="44.46525" lon="6.75345">
        <ele>1292.8</ele>
        <time>2022-06-12T11:16:31Z</time>
      </trkpt>
      <trkpt lat="44.46526" lon="6.75354">
        <ele>1291.7</ele>
        <time>2022-06-12T11:16:32Z</time>
      </trkpt>
      <trkpt lat="44.46526" lon="6.75363">
        <ele>1290.8</ele>
        <time>2022-06-12T11:16:33Z</time>
      </trkpt>
      <trkpt lat="44.46526" lon="6.75372">
        <ele>1290.5</ele>
        <time>2022-06-12T11:16:34Z</time>
      </trkpt>
      <trkpt lat="44.46526" lon="6.7538">
        <ele>1290.2</ele>
        <time>2022-06-12T11:16:35Z</time>
      </trkpt>
      <trkpt lat="44.46526" lon="6.75389">
        <ele>1289.9</ele>
        <time>2022-06-12T11:16:36Z</time>
      </trkpt>
      <trkpt lat="44.46525" lon="6.75397">
        <ele>1289.6</ele>
        <time>2022-06-12T11:16:37Z</time>
      </trkpt>
      <trkpt lat="44.46524" lon="6.75404">
        <ele>1289.3</ele>
        <time>2022-06-12T11:16:38Z</time>
      </trkpt>
      <trkpt lat="44.46524" lon="6.75412">
        <ele>1289</ele>
        <time>2022-06-12T11:16:39Z</time>
      </trkpt>
      <trkpt lat="44.46523" lon="6.7542">
        <ele>1288.8</ele>
        <time>2022-06-12T11:16:40Z</time>
      </trkpt>
      <trkpt lat="44.46521" lon="6.75427">
        <ele>1288.9</ele>
        <time>2022-06-12T11:16:41Z</time>
      </trkpt>
      <trkpt lat="44.4652" lon="6.75435">
        <ele>1288.9</ele>
        <time>2022-06-12T11:16:42Z</time>
      </trkpt>
      <trkpt lat="44.46519" lon="6.75443">
        <ele>1289</ele>
        <time>2022-06-12T11:16:43Z</time>
      </trkpt>
      <trkpt lat="44.46518" lon="6.75451">
        <ele>1289.2</ele>
        <time>2022-06-12T11:16:44Z</time>
      </trkpt>
      <trkpt lat="44.46517" lon="6.75459">
        <ele>1289.3</ele>
        <time>2022-06-12T11:16:45Z</time>
      </trkpt>
      <trkpt lat="44.46516" lon="6.75467">
        <ele>1289.5</ele>
        <time>2022-06-12T11:16:46Z</time>
      </trkpt>
      <trkpt lat="44.46515" lon="6.75475">
        <ele>1289.5</ele>
        <time>2022-06-12T11:16:47Z</time>
      </trkpt>
      <trkpt lat="44.46514" lon="6.75483">
        <ele>1289.1</ele>
        <time>2022-06-12T11:16:48Z</time>
      </trkpt>
      <trkpt lat="44.46513" lon="6.75491">
        <ele>1288.8</ele>
        <time>2022-06-12T11:16:49Z</time>
      </trkpt>
      <trkpt lat="44.46512" lon="6.75499">
        <ele>1288.5</ele>
        <time>2022-06-12T11:16:50Z</time>
      </trkpt>
      <trkpt lat="44.46511" lon="6.75507">
        <ele>1288</ele>
        <time>2022-06-12T11:16:51Z</time>
      </trkpt>
      <trkpt lat="44.46509" lon="6.75515">
        <ele>1287.5</ele>
        <time>2022-06-12T11:16:52Z</time>
      </trkpt>
      <trkpt lat="44.46508" lon="6.75523">
        <ele>1286.9</ele>
        <time>2022-06-12T11:16:53Z</time>
      </trkpt>
      <trkpt lat="44.46507" lon="6.7553">
        <ele>1286.5</ele>
        <time>2022-06-12T11:16:54Z</time>
      </trkpt>
      <trkpt lat="44.46506" lon="6.75538">
        <ele>1286.6</ele>
        <time>2022-06-12T11:16:55Z</time>
      </trkpt>
      <trkpt lat="44.46505" lon="6.75545">
        <ele>1286.7</ele>
        <time>2022-06-12T11:16:56Z</time>
      </trkpt>
      <trkpt lat="44.46503" lon="6.75552">
        <ele>1286.9</ele>
        <time>2022-06-12T11:16:57Z</time>
      </trkpt>
      <trkpt lat="44.46502" lon="6.7556">
        <ele>1287.3</ele>
        <time>2022-06-12T11:16:58Z</time>
      </trkpt>
      <trkpt lat="44.46501" lon="6.75568">
        <ele>1287.9</ele>
        <time>2022-06-12T11:16:59Z</time>
      </trkpt>
      <trkpt lat="44.46499" lon="6.75576">
        <ele>1288.5</ele>
        <time>2022-06-12T11:17:00Z</time>
      </trkpt>
      <trkpt lat="44.46498" lon="6.75585">
        <ele>1289</ele>
        <time>2022-06-12T11:17:01Z</time>
      </trkpt>
      <trkpt lat="44.46497" lon="6.75593">
        <ele>1289.2</ele>
        <time>2022-06-12T11:17:02Z</time>
      </trkpt>
      <trkpt lat="44.46495" lon="6.75601">
        <ele>1289.4</ele>
        <time>2022-06-12T11:17:03Z</time>
      </trkpt>
      <trkpt lat="44.46494" lon="6.75609">
        <ele>1289.5</ele>
        <time>2022-06-12T11:17:04Z</time>
      </trkpt>
      <trkpt lat="44.46493" lon="6.75617">
        <ele>1289.6</ele>
        <time>2022-06-12T11:17:05Z</time>
      </trkpt>
      <trkpt lat="44.46492" lon="6.75625">
        <ele>1289.6</ele>
        <time>2022-06-12T11:17:06Z</time>
      </trkpt>
      <trkpt lat="44.46492" lon="6.75633">
        <ele>1289.6</ele>
        <time>2022-06-12T11:17:07Z</time>
      </trkpt>
      <trkpt lat="44.46492" lon="6.75641">
        <ele>1289.7</ele>
        <time>2022-06-12T11:17:08Z</time>
      </trkpt>
      <trkpt lat="44.46491" lon="6.7565">
        <ele>1289.8</ele>
        <time>2022-06-12T11:17:09Z</time>
      </trkpt>
      <trkpt lat="44.46491" lon="6.75659">
        <ele>1289.9</ele>
        <time>2022-06-12T11:17:10Z</time>
      </trkpt>
      <trkpt lat="44.46492" lon="6.75668">
        <ele>1290</ele>
        <time>2022-06-12T11:17:11Z</time>
      </trkpt>
      <trkpt lat="44.46493" lon="6.75677">
        <ele>1290.3</ele>
        <time>2022-06-12T11:17:12Z</time>
      </trkpt>
      <trkpt lat="44.46494" lon="6.75687">
        <ele>1290.5</ele>
        <time>2022-06-12T11:17:13Z</time>
      </trkpt>
      <trkpt lat="44.46496" lon="6.75696">
        <ele>1290.5</ele>
        <time>2022-06-12T11:17:14Z</time>
      </trkpt>
      <trkpt lat="44.46498" lon="6.75706">
        <ele>1290.7</ele>
        <time>2022-06-12T11:17:15Z</time>
      </trkpt>
      <trkpt lat="44.46501" lon="6.75715">
        <ele>1290.7</ele>
        <time>2022-06-12T11:17:16Z</time>
      </trkpt>
      <trkpt lat="44.46504" lon="6.75723">
        <ele>1290.9</ele>
        <time>2022-06-12T11:17:17Z</time>
      </trkpt>
      <trkpt lat="44.46508" lon="6.75732">
        <ele>1291.8</ele>
        <time>2022-06-12T11:17:18Z</time>
      </trkpt>
      <trkpt lat="44.46511" lon="6.7574">
        <ele>1292.3</ele>
        <time>2022-06-12T11:17:19Z</time>
      </trkpt>
      <trkpt lat="44.46515" lon="6.75748">
        <ele>1292.5</ele>
        <time>2022-06-12T11:17:20Z</time>
      </trkpt>
      <trkpt lat="44.46519" lon="6.75756">
        <ele>1292.8</ele>
        <time>2022-06-12T11:17:21Z</time>
      </trkpt>
      <trkpt lat="44.46523" lon="6.75764">
        <ele>1292.8</ele>
        <time>2022-06-12T11:17:22Z</time>
      </trkpt>
      <trkpt lat="44.46526" lon="6.75772">
        <ele>1292.2</ele>
        <time>2022-06-12T11:17:23Z</time>
      </trkpt>
      <trkpt lat="44.4653" lon="6.7578">
        <ele>1292.3</ele>
        <time>2022-06-12T11:17:24Z</time>
      </trkpt>
      <trkpt lat="44.46534" lon="6.75787">
        <ele>1293.2</ele>
        <time>2022-06-12T11:17:25Z</time>
      </trkpt>
      <trkpt lat="44.46537" lon="6.75794">
        <ele>1293.7</ele>
        <time>2022-06-12T11:17:26Z</time>
      </trkpt>
      <trkpt lat="44.46541" lon="6.75801">
        <ele>1293.8</ele>
        <time>2022-06-12T11:17:27Z</time>
      </trkpt>
      <trkpt lat="44.46545" lon="6.75808">
        <ele>1293.6</ele>
        <time>2022-06-12T11:17:28Z</time>
      </trkpt>
      <trkpt lat="44.46548" lon="6.75815">
        <ele>1293.4</ele>
        <time>2022-06-12T11:17:29Z</time>
      </trkpt>
      <trkpt lat="44.46551" lon="6.75821">
        <ele>1292.9</ele>
        <time>2022-06-12T11:17:30Z</time>
      </trkpt>
      <trkpt lat="44.46554" lon="6.75827">
        <ele>1292.3</ele>
        <time>2022-06-12T11:17:31Z</time>
      </trkpt>
      <trkpt lat="44.46557" lon="6.75834">
        <ele>1292</ele>
        <time>2022-06-12T11:17:32Z</time>
      </trkpt>
      <trkpt lat="44.46561" lon="6.7584">
        <ele>1292.9</ele>
        <time>2022-06-12T11:17:33Z</time>
      </trkpt>
      <trkpt lat="44.46564" lon="6.75847">
        <ele>1293.6</ele>
        <time>2022-06-12T11:17:34Z</time>
      </trkpt>
      <trkpt lat="44.46567" lon="6.75853">
        <ele>1293.9</ele>
        <time>2022-06-12T11:17:35Z</time>
      </trkpt>
      <trkpt lat="44.4657" lon="6.7586">
        <ele>1294.1</ele>
        <time>2022-06-12T11:17:36Z</time>
      </trkpt>
      <trkpt lat="44.46574" lon="6.75866">
        <ele>1294.2</ele>
        <time>2022-06-12T11:17:37Z</time>
      </trkpt>
      <trkpt lat="44.46577" lon="6.75873">
        <ele>1294.1</ele>
        <time>2022-06-12T11:17:38Z</time>
      </trkpt>
      <trkpt lat="44.4658" lon="6.75879">
        <ele>1293.6</ele>
        <time>2022-06-12T11:17:39Z</time>
      </trkpt>
      <trkpt lat="44.46584" lon="6.75886">
        <ele>1292.7</ele>
        <time>2022-06-12T11:17:40Z</time>
      </trkpt>
      <trkpt lat="44.46587" lon="6.75892">
        <ele>1293.3</ele>
        <time>2022-06-12T11:17:41Z</time>
      </trkpt>
      <trkpt lat="44.4659" lon="6.75899">
        <ele>1294.2</ele>
        <time>2022-06-12T11:17:42Z</time>
      </trkpt>
      <trkpt lat="44.46593" lon="6.75905">
        <ele>1295</ele>
        <time>2022-06-12T11:17:43Z</time>
      </trkpt>
      <trkpt lat="44.46596" lon="6.75912">
        <ele>1295.6</ele>
        <time>2022-06-12T11:17:44Z</time>
      </trkpt>
      <trkpt lat="44.46599" lon="6.75918">
        <ele>1295.9</ele>
        <time>2022-06-12T11:17:45Z</time>
      </trkpt>
      <trkpt lat="44.46603" lon="6.75925">
        <ele>1296</ele>
        <time>2022-06-12T11:17:46Z</time>
      </trkpt>
      <trkpt lat="44.46606" lon="6.75931">
        <ele>1295.8</ele>
        <time>2022-06-12T11:17:47Z</time>
      </trkpt>
      <trkpt lat="44.46609" lon="6.75937">
        <ele>1295.3</ele>
        <time>2022-06-12T11:17:48Z</time>
      </trkpt>
      <trkpt lat="44.46612" lon="6.75943">
        <ele>1294.9</ele>
        <time>2022-06-12T11:17:49Z</time>
      </trkpt>
      <trkpt lat="44.46615" lon="6.7595">
        <ele>1295.5</ele>
        <time>2022-06-12T11:17:50Z</time>
      </trkpt>
      <trkpt lat="44.46619" lon="6.75956">
        <ele>1295.9</ele>
        <time>2022-06-12T11:17:51Z</time>
      </trkpt>
      <trkpt lat="44.46622" lon="6.75961">
        <ele>1296.1</ele>
        <time>2022-06-12T11:17:52Z</time>
      </trkpt>
      <trkpt lat="44.46625" lon="6.75967">
        <ele>1296.1</ele>
        <time>2022-06-12T11:17:53Z</time>
      </trkpt>
      <trkpt lat="44.46628" lon="6.75973">
        <ele>1295.8</ele>
        <time>2022-06-12T11:17:54Z</time>
      </trkpt>
      <trkpt lat="44.46631" lon="6.75979">
        <ele>1295.6</ele>
        <time>2022-06-12T11:17:55Z</time>
      </trkpt>
      <trkpt lat="44.46635" lon="6.75984">
        <ele>1295</ele>
        <time>2022-06-12T11:17:56Z</time>
      </trkpt>
      <trkpt lat="44.46639" lon="6.75989">
        <ele>1294.2</ele>
        <time>2022-06-12T11:17:57Z</time>
      </trkpt>
      <trkpt lat="44.46642" lon="6.75994">
        <ele>1294.6</ele>
        <time>2022-06-12T11:17:58Z</time>
      </trkpt>
      <trkpt lat="44.46645" lon="6.75999">
        <ele>1294.9</ele>
        <time>2022-06-12T11:17:59Z</time>
      </trkpt>
      <trkpt lat="44.46648" lon="6.76004">
        <ele>1295.6</ele>
        <time>2022-06-12T11:18:00Z</time>
      </trkpt>
      <trkpt lat="44.4665" lon="6.76009">
        <ele>1296.1</ele>
        <time>2022-06-12T11:18:01Z</time>
      </trkpt>
      <trkpt lat="44.46653" lon="6.76013">
        <ele>1296.4</ele>
        <time>2022-06-12T11:18:02Z</time>
      </trkpt>
      <trkpt lat="44.46655" lon="6.76017">
        <ele>1296.5</ele>
        <time>2022-06-12T11:18:03Z</time>
      </trkpt>
      <trkpt lat="44.46658" lon="6.76022">
        <ele>1296.5</ele>
        <time>2022-06-12T11:18:04Z</time>
      </trkpt>
      <trkpt lat="44.46661" lon="6.76027">
        <ele>1296.2</ele>
        <time>2022-06-12T11:18:05Z</time>
      </trkpt>
      <trkpt lat="44.46664" lon="6.76032">
        <ele>1296.2</ele>
        <time>2022-06-12T11:18:06Z</time>
      </trkpt>
      <trkpt lat="44.46666" lon="6.76038">
        <ele>1296.2</ele>
        <time>2022-06-12T11:18:07Z</time>
      </trkpt>
      <trkpt lat="44.46669" lon="6.76043">
        <ele>1296.5</ele>
        <time>2022-06-12T11:18:08Z</time>
      </trkpt>
      <trkpt lat="44.46672" lon="6.76049">
        <ele>1296.8</ele>
        <time>2022-06-12T11:18:09Z</time>
      </trkpt>
      <trkpt lat="44.46674" lon="6.76055">
        <ele>1297.1</ele>
        <time>2022-06-12T11:18:10Z</time>
      </trkpt>
      <trkpt lat="44.46677" lon="6.76061">
        <ele>1297.6</ele>
        <time>2022-06-12T11:18:11Z</time>
      </trkpt>
      <trkpt lat="44.4668" lon="6.76066">
        <ele>1298</ele>
        <time>2022-06-12T11:18:12Z</time>
      </trkpt>
      <trkpt lat="44.46682" lon="6.76072">
        <ele>1298.3</ele>
        <time>2022-06-12T11:18:13Z</time>
      </trkpt>
      <trkpt lat="44.46685" lon="6.76078">
        <ele>1298.5</ele>
        <time>2022-06-12T11:18:14Z</time>
      </trkpt>
      <trkpt lat="44.46687" lon="6.76084">
        <ele>1298.6</ele>
        <time>2022-06-12T11:18:15Z</time>
      </trkpt>
      <trkpt lat="44.4669" lon="6.7609">
        <ele>1298.8</ele>
        <time>2022-06-12T11:18:16Z</time>
      </trkpt>
      <trkpt lat="44.46693" lon="6.76095">
        <ele>1298.8</ele>
        <time>2022-06-12T11:18:17Z</time>
      </trkpt>
      <trkpt lat="44.46695" lon="6.76101">
        <ele>1298.8</ele>
        <time>2022-06-12T11:18:18Z</time>
      </trkpt>
      <trkpt lat="44.46698" lon="6.76107">
        <ele>1299.1</ele>
        <time>2022-06-12T11:18:19Z</time>
      </trkpt>
      <trkpt lat="44.46701" lon="6.76113">
        <ele>1299.3</ele>
        <time>2022-06-12T11:18:20Z</time>
      </trkpt>
      <trkpt lat="44.46704" lon="6.76118">
        <ele>1299.6</ele>
        <time>2022-06-12T11:18:21Z</time>
      </trkpt>
      <trkpt lat="44.46707" lon="6.76124">
        <ele>1299.9</ele>
        <time>2022-06-12T11:18:22Z</time>
      </trkpt>
      <trkpt lat="44.46709" lon="6.7613">
        <ele>1300.2</ele>
        <time>2022-06-12T11:18:23Z</time>
      </trkpt>
      <trkpt lat="44.46712" lon="6.76136">
        <ele>1300.4</ele>
        <time>2022-06-12T11:18:24Z</time>
      </trkpt>
      <trkpt lat="44.46715" lon="6.76141">
        <ele>1300.8</ele>
        <time>2022-06-12T11:18:25Z</time>
      </trkpt>
      <trkpt lat="44.46717" lon="6.76147">
        <ele>1301.3</ele>
        <time>2022-06-12T11:18:26Z</time>
      </trkpt>
      <trkpt lat="44.4672" lon="6.76152">
        <ele>1301.8</ele>
        <time>2022-06-12T11:18:27Z</time>
      </trkpt>
      <trkpt lat="44.46723" lon="6.76157">
        <ele>1302.3</ele>
        <time>2022-06-12T11:18:28Z</time>
      </trkpt>
      <trkpt lat="44.46726" lon="6.76162">
        <ele>1302.7</ele>
        <time>2022-06-12T11:18:29Z</time>
      </trkpt>
      <trkpt lat="44.46729" lon="6.76167">
        <ele>1303</ele>
        <time>2022-06-12T11:18:30Z</time>
      </trkpt>
      <trkpt lat="44.46733" lon="6.76172">
        <ele>1303.4</ele>
        <time>2022-06-12T11:18:31Z</time>
      </trkpt>
      <trkpt lat="44.46737" lon="6.76176">
        <ele>1303.5</ele>
        <time>2022-06-12T11:18:32Z</time>
      </trkpt>
      <trkpt lat="44.4674" lon="6.7618">
        <ele>1303.6</ele>
        <time>2022-06-12T11:18:33Z</time>
      </trkpt>
      <trkpt lat="44.46744" lon="6.76183">
        <ele>1303.5</ele>
        <time>2022-06-12T11:18:34Z</time>
      </trkpt>
      <trkpt lat="44.46748" lon="6.76187">
        <ele>1303.2</ele>
        <time>2022-06-12T11:18:35Z</time>
      </trkpt>
      <trkpt lat="44.46753" lon="6.7619">
        <ele>1303</ele>
        <time>2022-06-12T11:18:36Z</time>
      </trkpt>
      <trkpt lat="44.46758" lon="6.76193">
        <ele>1302.7</ele>
        <time>2022-06-12T11:18:37Z</time>
      </trkpt>
      <trkpt lat="44.46762" lon="6.76196">
        <ele>1302.6</ele>
        <time>2022-06-12T11:18:38Z</time>
      </trkpt>
      <trkpt lat="44.46767" lon="6.76198">
        <ele>1302.4</ele>
        <time>2022-06-12T11:18:39Z</time>
      </trkpt>
      <trkpt lat="44.46772" lon="6.76201">
        <ele>1302.2</ele>
        <time>2022-06-12T11:18:40Z</time>
      </trkpt>
      <trkpt lat="44.46777" lon="6.76203">
        <ele>1302</ele>
        <time>2022-06-12T11:18:41Z</time>
      </trkpt>
      <trkpt lat="44.46781" lon="6.76206">
        <ele>1302.1</ele>
        <time>2022-06-12T11:18:42Z</time>
      </trkpt>
      <trkpt lat="44.46786" lon="6.76208">
        <ele>1302</ele>
        <time>2022-06-12T11:18:43Z</time>
      </trkpt>
      <trkpt lat="44.46791" lon="6.7621">
        <ele>1301.9</ele>
        <time>2022-06-12T11:18:44Z</time>
      </trkpt>
      <trkpt lat="44.46796" lon="6.76213">
        <ele>1301.9</ele>
        <time>2022-06-12T11:18:45Z</time>
      </trkpt>
      <trkpt lat="44.46801" lon="6.76215">
        <ele>1301.6</ele>
        <time>2022-06-12T11:18:46Z</time>
      </trkpt>
      <trkpt lat="44.46805" lon="6.76218">
        <ele>1301.4</ele>
        <time>2022-06-12T11:18:47Z</time>
      </trkpt>
      <trkpt lat="44.4681" lon="6.76221">
        <ele>1301.4</ele>
        <time>2022-06-12T11:18:48Z</time>
      </trkpt>
      <trkpt lat="44.46815" lon="6.76223">
        <ele>1301.5</ele>
        <time>2022-06-12T11:18:49Z</time>
      </trkpt>
      <trkpt lat="44.4682" lon="6.76225">
        <ele>1301.7</ele>
        <time>2022-06-12T11:18:50Z</time>
      </trkpt>
      <trkpt lat="44.46825" lon="6.76228">
        <ele>1302</ele>
        <time>2022-06-12T11:18:51Z</time>
      </trkpt>
      <trkpt lat="44.4683" lon="6.7623">
        <ele>1302.1</ele>
        <time>2022-06-12T11:18:52Z</time>
      </trkpt>
      <trkpt lat="44.46835" lon="6.76232">
        <ele>1302.4</ele>
        <time>2022-06-12T11:18:53Z</time>
      </trkpt>
      <trkpt lat="44.4684" lon="6.76235">
        <ele>1302.7</ele>
        <time>2022-06-12T11:18:54Z</time>
      </trkpt>
      <trkpt lat="44.46844" lon="6.76238">
        <ele>1303</ele>
        <time>2022-06-12T11:18:55Z</time>
      </trkpt>
      <trkpt lat="44.46849" lon="6.7624">
        <ele>1303.1</ele>
        <time>2022-06-12T11:18:56Z</time>
      </trkpt>
      <trkpt lat="44.46854" lon="6.76242">
        <ele>1303.2</ele>
        <time>2022-06-12T11:18:57Z</time>
      </trkpt>
      <trkpt lat="44.46859" lon="6.76245">
        <ele>1303.3</ele>
        <time>2022-06-12T11:18:58Z</time>
      </trkpt>
      <trkpt lat="44.46864" lon="6.76247">
        <ele>1303.3</ele>
        <time>2022-06-12T11:18:59Z</time>
      </trkpt>
      <trkpt lat="44.46869" lon="6.76249">
        <ele>1303.3</ele>
        <time>2022-06-12T11:19:00Z</time>
      </trkpt>
      <trkpt lat="44.46874" lon="6.76252">
        <ele>1303.5</ele>
        <time>2022-06-12T11:19:01Z</time>
      </trkpt>
      <trkpt lat="44.46879" lon="6.76254">
        <ele>1303.7</ele>
        <time>2022-06-12T11:19:02Z</time>
      </trkpt>
      <trkpt lat="44.46883" lon="6.76257">
        <ele>1303.9</ele>
        <time>2022-06-12T11:19:03Z</time>
      </trkpt>
      <trkpt lat="44.46888" lon="6.76259">
        <ele>1303.9</ele>
        <time>2022-06-12T11:19:04Z</time>
      </trkpt>
      <trkpt lat="44.46894" lon="6.76261">
        <ele>1304.1</ele>
        <time>2022-06-12T11:19:05Z</time>
      </trkpt>
      <trkpt lat="44.46899" lon="6.76263">
        <ele>1304.2</ele>
        <time>2022-06-12T11:19:06Z</time>
      </trkpt>
      <trkpt lat="44.46904" lon="6.76265">
        <ele>1304.2</ele>
        <time>2022-06-12T11:19:07Z</time>
      </trkpt>
      <trkpt lat="44.46908" lon="6.76268">
        <ele>1304.3</ele>
        <time>2022-06-12T11:19:08Z</time>
      </trkpt>
      <trkpt lat="44.46913" lon="6.76271">
        <ele>1304.3</ele>
        <time>2022-06-12T11:19:09Z</time>
      </trkpt>
      <trkpt lat="44.46918" lon="6.76273">
        <ele>1304.2</ele>
        <time>2022-06-12T11:19:10Z</time>
      </trkpt>
      <trkpt lat="44.46923" lon="6.76275">
        <ele>1304</ele>
        <time>2022-06-12T11:19:11Z</time>
      </trkpt>
      <trkpt lat="44.46928" lon="6.76278">
        <ele>1303.8</ele>
        <time>2022-06-12T11:19:12Z</time>
      </trkpt>
      <trkpt lat="44.46933" lon="6.7628">
        <ele>1303.7</ele>
        <time>2022-06-12T11:19:13Z</time>
      </trkpt>
      <trkpt lat="44.46938" lon="6.76282">
        <ele>1303.6</ele>
        <time>2022-06-12T11:19:14Z</time>
      </trkpt>
      <trkpt lat="44.46942" lon="6.76285">
        <ele>1303.5</ele>
        <time>2022-06-12T11:19:15Z</time>
      </trkpt>
      <trkpt lat="44.46947" lon="6.76288">
        <ele>1303.6</ele>
        <time>2022-06-12T11:19:16Z</time>
      </trkpt>
      <trkpt lat="44.46952" lon="6.7629">
        <ele>1303.8</ele>
        <time>2022-06-12T11:19:17Z</time>
      </trkpt>
      <trkpt lat="44.46956" lon="6.76293">
        <ele>1304</ele>
        <time>2022-06-12T11:19:18Z</time>
      </trkpt>
      <trkpt lat="44.46961" lon="6.76295">
        <ele>1304.2</ele>
        <time>2022-06-12T11:19:19Z</time>
      </trkpt>
      <trkpt lat="44.46966" lon="6.76298">
        <ele>1304.3</ele>
        <time>2022-06-12T11:19:20Z</time>
      </trkpt>
      <trkpt lat="44.46971" lon="6.763">
        <ele>1304.4</ele>
        <time>2022-06-12T11:19:21Z</time>
      </trkpt>
      <trkpt lat="44.46975" lon="6.76303">
        <ele>1304.5</ele>
        <time>2022-06-12T11:19:22Z</time>
      </trkpt>
      <trkpt lat="44.4698" lon="6.76305">
        <ele>1304.7</ele>
        <time>2022-06-12T11:19:23Z</time>
      </trkpt>
      <trkpt lat="44.46985" lon="6.76308">
        <ele>1304.9</ele>
        <time>2022-06-12T11:19:24Z</time>
      </trkpt>
      <trkpt lat="44.4699" lon="6.7631">
        <ele>1305.1</ele>
        <time>2022-06-12T11:19:25Z</time>
      </trkpt>
      <trkpt lat="44.46995" lon="6.76313">
        <ele>1305.2</ele>
        <time>2022-06-12T11:19:26Z</time>
      </trkpt>
      <trkpt lat="44.47" lon="6.76315">
        <ele>1305.4</ele>
        <time>2022-06-12T11:19:27Z</time>
      </trkpt>
      <trkpt lat="44.47005" lon="6.76317">
        <ele>1305.7</ele>
        <time>2022-06-12T11:19:28Z</time>
      </trkpt>
      <trkpt lat="44.4701" lon="6.7632">
        <ele>1306.1</ele>
        <time>2022-06-12T11:19:29Z</time>
      </trkpt>
      <trkpt lat="44.47015" lon="6.76322">
        <ele>1306.4</ele>
        <time>2022-06-12T11:19:30Z</time>
      </trkpt>
      <trkpt lat="44.47019" lon="6.76325">
        <ele>1306.8</ele>
        <time>2022-06-12T11:19:31Z</time>
      </trkpt>
      <trkpt lat="44.47024" lon="6.76328">
        <ele>1307.2</ele>
        <time>2022-06-12T11:19:32Z</time>
      </trkpt>
      <trkpt lat="44.47029" lon="6.7633">
        <ele>1307.5</ele>
        <time>2022-06-12T11:19:33Z</time>
      </trkpt>
      <trkpt lat="44.47033" lon="6.76333">
        <ele>1307.7</ele>
        <time>2022-06-12T11:19:34Z</time>
      </trkpt>
      <trkpt lat="44.47038" lon="6.76336">
        <ele>1308.1</ele>
        <time>2022-06-12T11:19:35Z</time>
      </trkpt>
      <trkpt lat="44.47042" lon="6.76339">
        <ele>1308.6</ele>
        <time>2022-06-12T11:19:36Z</time>
      </trkpt>
      <trkpt lat="44.47046" lon="6.76343">
        <ele>1309.1</ele>
        <time>2022-06-12T11:19:37Z</time>
      </trkpt>
      <trkpt lat="44.4705" lon="6.76346">
        <ele>1309.6</ele>
        <time>2022-06-12T11:19:38Z</time>
      </trkpt>
      <trkpt lat="44.47055" lon="6.7635">
        <ele>1310</ele>
        <time>2022-06-12T11:19:39Z</time>
      </trkpt>
      <trkpt lat="44.47059" lon="6.76353">
        <ele>1310.3</ele>
        <time>2022-06-12T11:19:40Z</time>
      </trkpt>
      <trkpt lat="44.47063" lon="6.76357">
        <ele>1310.5</ele>
        <time>2022-06-12T11:19:41Z</time>
      </trkpt>
      <trkpt lat="44.47067" lon="6.7636">
        <ele>1310.6</ele>
        <time>2022-06-12T11:19:42Z</time>
      </trkpt>
      <trkpt lat="44.47071" lon="6.76364">
        <ele>1310.9</ele>
        <time>2022-06-12T11:19:43Z</time>
      </trkpt>
      <trkpt lat="44.47075" lon="6.76367">
        <ele>1311.1</ele>
        <time>2022-06-12T11:19:44Z</time>
      </trkpt>
      <trkpt lat="44.47079" lon="6.7637">
        <ele>1311.2</ele>
        <time>2022-06-12T11:19:45Z</time>
      </trkpt>
      <trkpt lat="44.47084" lon="6.76373">
        <ele>1311.1</ele>
        <time>2022-06-12T11:19:46Z</time>
      </trkpt>
      <trkpt lat="44.47088" lon="6.76375">
        <ele>1310.9</ele>
        <time>2022-06-12T11:19:47Z</time>
      </trkpt>
      <trkpt lat="44.47093" lon="6.76377">
        <ele>1310.6</ele>
        <time>2022-06-12T11:19:48Z</time>
      </trkpt>
      <trkpt lat="44.47097" lon="6.76379">
        <ele>1310.2</ele>
        <time>2022-06-12T11:19:49Z</time>
      </trkpt>
      <trkpt lat="44.47102" lon="6.7638">
        <ele>1309.7</ele>
        <time>2022-06-12T11:19:50Z</time>
      </trkpt>
      <trkpt lat="44.47106" lon="6.76382">
        <ele>1309.2</ele>
        <time>2022-06-12T11:19:51Z</time>
      </trkpt>
      <trkpt lat="44.47111" lon="6.76382">
        <ele>1308.6</ele>
        <time>2022-06-12T11:19:52Z</time>
      </trkpt>
      <trkpt lat="44.47115" lon="6.76383">
        <ele>1308.5</ele>
        <time>2022-06-12T11:19:53Z</time>
      </trkpt>
      <trkpt lat="44.47119" lon="6.76383">
        <ele>1308.6</ele>
        <time>2022-06-12T11:19:54Z</time>
      </trkpt>
      <trkpt lat="44.47123" lon="6.76383">
        <ele>1308.5</ele>
        <time>2022-06-12T11:19:55Z</time>
      </trkpt>
      <trkpt lat="44.47127" lon="6.76382">
        <ele>1308.5</ele>
        <time>2022-06-12T11:19:56Z</time>
      </trkpt>
      <trkpt lat="44.47131" lon="6.76381">
        <ele>1308.5</ele>
        <time>2022-06-12T11:19:57Z</time>
      </trkpt>
      <trkpt lat="44.47135" lon="6.7638">
        <ele>1308.4</ele>
        <time>2022-06-12T11:19:58Z</time>
      </trkpt>
      <trkpt lat="44.47139" lon="6.76378">
        <ele>1308.2</ele>
        <time>2022-06-12T11:19:59Z</time>
      </trkpt>
      <trkpt lat="44.47144" lon="6.76376">
        <ele>1307.9</ele>
        <time>2022-06-12T11:20:00Z</time>
      </trkpt>
      <trkpt lat="44.47149" lon="6.76373">
        <ele>1307.5</ele>
        <time>2022-06-12T11:20:01Z</time>
      </trkpt>
      <trkpt lat="44.47153" lon="6.7637">
        <ele>1307.1</ele>
        <time>2022-06-12T11:20:02Z</time>
      </trkpt>
      <trkpt lat="44.47158" lon="6.76367">
        <ele>1306.7</ele>
        <time>2022-06-12T11:20:03Z</time>
      </trkpt>
      <trkpt lat="44.47163" lon="6.76363">
        <ele>1306.3</ele>
        <time>2022-06-12T11:20:04Z</time>
      </trkpt>
      <trkpt lat="44.47168" lon="6.7636">
        <ele>1306</ele>
        <time>2022-06-12T11:20:05Z</time>
      </trkpt>
      <trkpt lat="44.47173" lon="6.76356">
        <ele>1306.1</ele>
        <time>2022-06-12T11:20:06Z</time>
      </trkpt>
      <trkpt lat="44.47178" lon="6.76353">
        <ele>1306.2</ele>
        <time>2022-06-12T11:20:07Z</time>
      </trkpt>
      <trkpt lat="44.47183" lon="6.76349">
        <ele>1306.4</ele>
        <time>2022-06-12T11:20:08Z</time>
      </trkpt>
      <trkpt lat="44.47188" lon="6.76346">
        <ele>1306.6</ele>
        <time>2022-06-12T11:20:09Z</time>
      </trkpt>
      <trkpt lat="44.47192" lon="6.76342">
        <ele>1306.9</ele>
        <time>2022-06-12T11:20:10Z</time>
      </trkpt>
      <trkpt lat="44.47197" lon="6.76339">
        <ele>1307.1</ele>
        <time>2022-06-12T11:20:11Z</time>
      </trkpt>
      <trkpt lat="44.47202" lon="6.76336">
        <ele>1307.3</ele>
        <time>2022-06-12T11:20:12Z</time>
      </trkpt>
      <trkpt lat="44.47206" lon="6.76332">
        <ele>1307.4</ele>
        <time>2022-06-12T11:20:13Z</time>
      </trkpt>
      <trkpt lat="44.47211" lon="6.7633">
        <ele>1307.5</ele>
        <time>2022-06-12T11:20:14Z</time>
      </trkpt>
      <trkpt lat="44.47215" lon="6.76327">
        <ele>1307.6</ele>
        <time>2022-06-12T11:20:15Z</time>
      </trkpt>
      <trkpt lat="44.4722" lon="6.76325">
        <ele>1307.6</ele>
        <time>2022-06-12T11:20:16Z</time>
      </trkpt>
      <trkpt lat="44.47225" lon="6.76323">
        <ele>1307.6</ele>
        <time>2022-06-12T11:20:17Z</time>
      </trkpt>
      <trkpt lat="44.47229" lon="6.76321">
        <ele>1307.5</ele>
        <time>2022-06-12T11:20:18Z</time>
      </trkpt>
      <trkpt lat="44.47234" lon="6.76318">
        <ele>1307.4</ele>
        <time>2022-06-12T11:20:19Z</time>
      </trkpt>
      <trkpt lat="44.47239" lon="6.76314">
        <ele>1307.3</ele>
        <time>2022-06-12T11:20:20Z</time>
      </trkpt>
      <trkpt lat="44.47243" lon="6.7631">
        <ele>1307.2</ele>
        <time>2022-06-12T11:20:21Z</time>
      </trkpt>
      <trkpt lat="44.47248" lon="6.76306">
        <ele>1307</ele>
        <time>2022-06-12T11:20:22Z</time>
      </trkpt>
      <trkpt lat="44.47254" lon="6.76303">
        <ele>1306.9</ele>
        <time>2022-06-12T11:20:23Z</time>
      </trkpt>
      <trkpt lat="44.47259" lon="6.76298">
        <ele>1306.7</ele>
        <time>2022-06-12T11:20:24Z</time>
      </trkpt>
      <trkpt lat="44.47264" lon="6.76294">
        <ele>1306.6</ele>
        <time>2022-06-12T11:20:25Z</time>
      </trkpt>
      <trkpt lat="44.47269" lon="6.7629">
        <ele>1306.5</ele>
        <time>2022-06-12T11:20:26Z</time>
      </trkpt>
      <trkpt lat="44.47274" lon="6.76287">
        <ele>1306.3</ele>
        <time>2022-06-12T11:20:27Z</time>
      </trkpt>
      <trkpt lat="44.47279" lon="6.76284">
        <ele>1306.2</ele>
        <time>2022-06-12T11:20:28Z</time>
      </trkpt>
      <trkpt lat="44.47284" lon="6.76281">
        <ele>1306.3</ele>
        <time>2022-06-12T11:20:29Z</time>
      </trkpt>
      <trkpt lat="44.47289" lon="6.76278">
        <ele>1306.4</ele>
        <time>2022-06-12T11:20:30Z</time>
      </trkpt>
      <trkpt lat="44.47294" lon="6.76274">
        <ele>1306.4</ele>
        <time>2022-06-12T11:20:31Z</time>
      </trkpt>
      <trkpt lat="44.47299" lon="6.76272">
        <ele>1306.4</ele>
        <time>2022-06-12T11:20:32Z</time>
      </trkpt>
      <trkpt lat="44.47303" lon="6.76269">
        <ele>1306.3</ele>
        <time>2022-06-12T11:20:33Z</time>
      </trkpt>
      <trkpt lat="44.47308" lon="6.76265">
        <ele>1306.1</ele>
        <time>2022-06-12T11:20:34Z</time>
      </trkpt>
      <trkpt lat="44.47314" lon="6.76263">
        <ele>1306.1</ele>
        <time>2022-06-12T11:20:35Z</time>
      </trkpt>
      <trkpt lat="44.47319" lon="6.7626">
        <ele>1306</ele>
        <time>2022-06-12T11:20:36Z</time>
      </trkpt>
      <trkpt lat="44.47324" lon="6.76257">
        <ele>1306</ele>
        <time>2022-06-12T11:20:37Z</time>
      </trkpt>
      <trkpt lat="44.4733" lon="6.76254">
        <ele>1306</ele>
        <time>2022-06-12T11:20:38Z</time>
      </trkpt>
      <trkpt lat="44.47335" lon="6.7625">
        <ele>1306.1</ele>
        <time>2022-06-12T11:20:39Z</time>
      </trkpt>
      <trkpt lat="44.4734" lon="6.76247">
        <ele>1306.1</ele>
        <time>2022-06-12T11:20:40Z</time>
      </trkpt>
      <trkpt lat="44.47345" lon="6.76244">
        <ele>1306.2</ele>
        <time>2022-06-12T11:20:41Z</time>
      </trkpt>
      <trkpt lat="44.47351" lon="6.7624">
        <ele>1306.3</ele>
        <time>2022-06-12T11:20:42Z</time>
      </trkpt>
      <trkpt lat="44.47356" lon="6.76238">
        <ele>1306.4</ele>
        <time>2022-06-12T11:20:43Z</time>
      </trkpt>
      <trkpt lat="44.47362" lon="6.76235">
        <ele>1306.5</ele>
        <time>2022-06-12T11:20:44Z</time>
      </trkpt>
      <trkpt lat="44.47367" lon="6.76232">
        <ele>1306.5</ele>
        <time>2022-06-12T11:20:45Z</time>
      </trkpt>
      <trkpt lat="44.47372" lon="6.76228">
        <ele>1306.6</ele>
        <time>2022-06-12T11:20:46Z</time>
      </trkpt>
      <trkpt lat="44.47378" lon="6.76225">
        <ele>1306.7</ele>
        <time>2022-06-12T11:20:47Z</time>
      </trkpt>
      <trkpt lat="44.47383" lon="6.76222">
        <ele>1306.8</ele>
        <time>2022-06-12T11:20:48Z</time>
      </trkpt>
      <trkpt lat="44.47389" lon="6.76219">
        <ele>1306.9</ele>
        <time>2022-06-12T11:20:49Z</time>
      </trkpt>
      <trkpt lat="44.47394" lon="6.76216">
        <ele>1307</ele>
        <time>2022-06-12T11:20:50Z</time>
      </trkpt>
      <trkpt lat="44.474" lon="6.76212">
        <ele>1307</ele>
        <time>2022-06-12T11:20:51Z</time>
      </trkpt>
      <trkpt lat="44.47405" lon="6.7621">
        <ele>1307.1</ele>
        <time>2022-06-12T11:20:52Z</time>
      </trkpt>
      <trkpt lat="44.47411" lon="6.76207">
        <ele>1307.2</ele>
        <time>2022-06-12T11:20:53Z</time>
      </trkpt>
      <trkpt lat="44.47416" lon="6.76203">
        <ele>1307.3</ele>
        <time>2022-06-12T11:20:54Z</time>
      </trkpt>
      <trkpt lat="44.47421" lon="6.762">
        <ele>1307.4</ele>
        <time>2022-06-12T11:20:55Z</time>
      </trkpt>
      <trkpt lat="44.47426" lon="6.76197">
        <ele>1307.4</ele>
        <time>2022-06-12T11:20:56Z</time>
      </trkpt>
      <trkpt lat="44.47432" lon="6.76193">
        <ele>1307.5</ele>
        <time>2022-06-12T11:20:57Z</time>
      </trkpt>
      <trkpt lat="44.47437" lon="6.7619">
        <ele>1307.6</ele>
        <time>2022-06-12T11:20:58Z</time>
      </trkpt>
      <trkpt lat="44.47443" lon="6.76187">
        <ele>1307.7</ele>
        <time>2022-06-12T11:20:59Z</time>
      </trkpt>
      <trkpt lat="44.47448" lon="6.76184">
        <ele>1307.7</ele>
        <time>2022-06-12T11:21:00Z</time>
      </trkpt>
      <trkpt lat="44.47454" lon="6.7618">
        <ele>1307.8</ele>
        <time>2022-06-12T11:21:01Z</time>
      </trkpt>
      <trkpt lat="44.47459" lon="6.76177">
        <ele>1307.9</ele>
        <time>2022-06-12T11:21:02Z</time>
      </trkpt>
      <trkpt lat="44.47465" lon="6.76174">
        <ele>1308</ele>
        <time>2022-06-12T11:21:03Z</time>
      </trkpt>
      <trkpt lat="44.47471" lon="6.76171">
        <ele>1308.1</ele>
        <time>2022-06-12T11:21:04Z</time>
      </trkpt>
      <trkpt lat="44.47476" lon="6.76168">
        <ele>1308</ele>
        <time>2022-06-12T11:21:05Z</time>
      </trkpt>
      <trkpt lat="44.47482" lon="6.76165">
        <ele>1307.9</ele>
        <time>2022-06-12T11:21:06Z</time>
      </trkpt>
      <trkpt lat="44.47487" lon="6.76161">
        <ele>1307.8</ele>
        <time>2022-06-12T11:21:07Z</time>
      </trkpt>
      <trkpt lat="44.47493" lon="6.76159">
        <ele>1307.7</ele>
        <time>2022-06-12T11:21:08Z</time>
      </trkpt>
      <trkpt lat="44.47499" lon="6.76156">
        <ele>1307.6</ele>
        <time>2022-06-12T11:21:09Z</time>
      </trkpt>
      <trkpt lat="44.47504" lon="6.76153">
        <ele>1307.6</ele>
        <time>2022-06-12T11:21:10Z</time>
      </trkpt>
      <trkpt lat="44.4751" lon="6.7615">
        <ele>1307.7</ele>
        <time>2022-06-12T11:21:11Z</time>
      </trkpt>
      <trkpt lat="44.47516" lon="6.76147">
        <ele>1307.8</ele>
        <time>2022-06-12T11:21:12Z</time>
      </trkpt>
      <trkpt lat="44.47522" lon="6.76144">
        <ele>1307.9</ele>
        <time>2022-06-12T11:21:13Z</time>
      </trkpt>
      <trkpt lat="44.47528" lon="6.7614">
        <ele>1308</ele>
        <time>2022-06-12T11:21:14Z</time>
      </trkpt>
      <trkpt lat="44.47533" lon="6.76137">
        <ele>1308.1</ele>
        <time>2022-06-12T11:21:15Z</time>
      </trkpt>
      <trkpt lat="44.47539" lon="6.76133">
        <ele>1308.2</ele>
        <time>2022-06-12T11:21:16Z</time>
      </trkpt>
      <trkpt lat="44.47545" lon="6.76131">
        <ele>1308.3</ele>
        <time>2022-06-12T11:21:17Z</time>
      </trkpt>
      <trkpt lat="44.47551" lon="6.76128">
        <ele>1308.4</ele>
        <time>2022-06-12T11:21:18Z</time>
      </trkpt>
      <trkpt lat="44.47556" lon="6.76125">
        <ele>1308.5</ele>
        <time>2022-06-12T11:21:19Z</time>
      </trkpt>
      <trkpt lat="44.47562" lon="6.76121">
        <ele>1308.6</ele>
        <time>2022-06-12T11:21:20Z</time>
      </trkpt>
      <trkpt lat="44.47568" lon="6.76118">
        <ele>1308.7</ele>
        <time>2022-06-12T11:21:21Z</time>
      </trkpt>
      <trkpt lat="44.47574" lon="6.76114">
        <ele>1308.8</ele>
        <time>2022-06-12T11:21:22Z</time>
      </trkpt>
      <trkpt lat="44.47579" lon="6.76111">
        <ele>1308.8</ele>
        <time>2022-06-12T11:21:23Z</time>
      </trkpt>
      <trkpt lat="44.47585" lon="6.76108">
        <ele>1309</ele>
        <time>2022-06-12T11:21:24Z</time>
      </trkpt>
      <trkpt lat="44.4759" lon="6.76105">
        <ele>1309.3</ele>
        <time>2022-06-12T11:21:25Z</time>
      </trkpt>
      <trkpt lat="44.47595" lon="6.76102">
        <ele>1309.5</ele>
        <time>2022-06-12T11:21:26Z</time>
      </trkpt>
      <trkpt lat="44.476" lon="6.76099">
        <ele>1309.8</ele>
        <time>2022-06-12T11:21:27Z</time>
      </trkpt>
      <trkpt lat="44.47605" lon="6.76096">
        <ele>1310</ele>
        <time>2022-06-12T11:21:28Z</time>
      </trkpt>
      <trkpt lat="44.4761" lon="6.76093">
        <ele>1310.3</ele>
        <time>2022-06-12T11:21:29Z</time>
      </trkpt>
      <trkpt lat="44.47615" lon="6.76091">
        <ele>1310.4</ele>
        <time>2022-06-12T11:21:30Z</time>
      </trkpt>
      <trkpt lat="44.4762" lon="6.76089">
        <ele>1310.5</ele>
        <time>2022-06-12T11:21:31Z</time>
      </trkpt>
      <trkpt lat="44.47625" lon="6.76086">
        <ele>1310.6</ele>
        <time>2022-06-12T11:21:32Z</time>
      </trkpt>
      <trkpt lat="44.4763" lon="6.76084">
        <ele>1310.7</ele>
        <time>2022-06-12T11:21:33Z</time>
      </trkpt>
      <trkpt lat="44.47634" lon="6.76081">
        <ele>1310.8</ele>
        <time>2022-06-12T11:21:34Z</time>
      </trkpt>
      <trkpt lat="44.47639" lon="6.76079">
        <ele>1310.8</ele>
        <time>2022-06-12T11:21:35Z</time>
      </trkpt>
      <trkpt lat="44.47643" lon="6.76076">
        <ele>1310.9</ele>
        <time>2022-06-12T11:21:36Z</time>
      </trkpt>
      <trkpt lat="44.47648" lon="6.76073">
        <ele>1311</ele>
        <time>2022-06-12T11:21:37Z</time>
      </trkpt>
      <trkpt lat="44.47654" lon="6.76069">
        <ele>1311</ele>
        <time>2022-06-12T11:21:38Z</time>
      </trkpt>
      <trkpt lat="44.47659" lon="6.76066">
        <ele>1311.1</ele>
        <time>2022-06-12T11:21:39Z</time>
      </trkpt>
      <trkpt lat="44.47664" lon="6.76062">
        <ele>1311.1</ele>
        <time>2022-06-12T11:21:40Z</time>
      </trkpt>
      <trkpt lat="44.47669" lon="6.76059">
        <ele>1311.3</ele>
        <time>2022-06-12T11:21:41Z</time>
      </trkpt>
      <trkpt lat="44.47674" lon="6.76054">
        <ele>1311.4</ele>
        <time>2022-06-12T11:21:42Z</time>
      </trkpt>
      <trkpt lat="44.47678" lon="6.7605">
        <ele>1311.4</ele>
        <time>2022-06-12T11:21:43Z</time>
      </trkpt>
      <trkpt lat="44.47683" lon="6.76045">
        <ele>1311.4</ele>
        <time>2022-06-12T11:21:44Z</time>
      </trkpt>
      <trkpt lat="44.47688" lon="6.76039">
        <ele>1311.3</ele>
        <time>2022-06-12T11:21:45Z</time>
      </trkpt>
      <trkpt lat="44.47692" lon="6.76034">
        <ele>1311.2</ele>
        <time>2022-06-12T11:21:46Z</time>
      </trkpt>
      <trkpt lat="44.47696" lon="6.76028">
        <ele>1311.1</ele>
        <time>2022-06-12T11:21:47Z</time>
      </trkpt>
      <trkpt lat="44.477" lon="6.76021">
        <ele>1311.1</ele>
        <time>2022-06-12T11:21:48Z</time>
      </trkpt>
      <trkpt lat="44.47703" lon="6.76015">
        <ele>1311.2</ele>
        <time>2022-06-12T11:21:49Z</time>
      </trkpt>
      <trkpt lat="44.47707" lon="6.76008">
        <ele>1311.2</ele>
        <time>2022-06-12T11:21:50Z</time>
      </trkpt>
      <trkpt lat="44.4771" lon="6.76001">
        <ele>1311.2</ele>
        <time>2022-06-12T11:21:51Z</time>
      </trkpt>
      <trkpt lat="44.47713" lon="6.75994">
        <ele>1311.1</ele>
        <time>2022-06-12T11:21:52Z</time>
      </trkpt>
      <trkpt lat="44.47717" lon="6.75988">
        <ele>1311.1</ele>
        <time>2022-06-12T11:21:53Z</time>
      </trkpt>
      <trkpt lat="44.4772" lon="6.75981">
        <ele>1311.1</ele>
        <time>2022-06-12T11:21:54Z</time>
      </trkpt>
      <trkpt lat="44.47723" lon="6.75975">
        <ele>1311.1</ele>
        <time>2022-06-12T11:21:55Z</time>
      </trkpt>
      <trkpt lat="44.47726" lon="6.75969">
        <ele>1311.1</ele>
        <time>2022-06-12T11:21:56Z</time>
      </trkpt>
      <trkpt lat="44.47729" lon="6.75962">
        <ele>1311.1</ele>
        <time>2022-06-12T11:21:57Z</time>
      </trkpt>
      <trkpt lat="44.47732" lon="6.75955">
        <ele>1311.1</ele>
        <time>2022-06-12T11:21:58Z</time>
      </trkpt>
      <trkpt lat="44.47735" lon="6.75948">
        <ele>1311</ele>
        <time>2022-06-12T11:21:59Z</time>
      </trkpt>
      <trkpt lat="44.47738" lon="6.75941">
        <ele>1311</ele>
        <time>2022-06-12T11:22:00Z</time>
      </trkpt>
      <trkpt lat="44.47742" lon="6.75935">
        <ele>1310.8</ele>
        <time>2022-06-12T11:22:01Z</time>
      </trkpt>
      <trkpt lat="44.47745" lon="6.75928">
        <ele>1310.5</ele>
        <time>2022-06-12T11:22:02Z</time>
      </trkpt>
      <trkpt lat="44.47749" lon="6.7592">
        <ele>1310.2</ele>
        <time>2022-06-12T11:22:03Z</time>
      </trkpt>
      <trkpt lat="44.47752" lon="6.75914">
        <ele>1310.2</ele>
        <time>2022-06-12T11:22:04Z</time>
      </trkpt>
      <trkpt lat="44.47755" lon="6.75906">
        <ele>1310.5</ele>
        <time>2022-06-12T11:22:05Z</time>
      </trkpt>
      <trkpt lat="44.4776" lon="6.75896">
        <ele>1310.8</ele>
        <time>2022-06-12T11:22:06Z</time>
      </trkpt>
      <trkpt lat="44.47762" lon="6.75892">
        <ele>1310.9</ele>
        <time>2022-06-12T11:22:07Z</time>
      </trkpt>
      <trkpt lat="44.47766" lon="6.75885">
        <ele>1311</ele>
        <time>2022-06-12T11:22:08Z</time>
      </trkpt>
      <trkpt lat="44.47769" lon="6.75878">
        <ele>1311.1</ele>
        <time>2022-06-12T11:22:09Z</time>
      </trkpt>
      <trkpt lat="44.47772" lon="6.75871">
        <ele>1311.1</ele>
        <time>2022-06-12T11:22:10Z</time>
      </trkpt>
      <trkpt lat="44.47776" lon="6.75864">
        <ele>1311</ele>
        <time>2022-06-12T11:22:11Z</time>
      </trkpt>
      <trkpt lat="44.47779" lon="6.75856">
        <ele>1311.1</ele>
        <time>2022-06-12T11:22:12Z</time>
      </trkpt>
      <trkpt lat="44.47782" lon="6.75849">
        <ele>1311.2</ele>
        <time>2022-06-12T11:22:13Z</time>
      </trkpt>
      <trkpt lat="44.47785" lon="6.75843">
        <ele>1311.4</ele>
        <time>2022-06-12T11:22:14Z</time>
      </trkpt>
      <trkpt lat="44.47789" lon="6.75836">
        <ele>1311.4</ele>
        <time>2022-06-12T11:22:15Z</time>
      </trkpt>
      <trkpt lat="44.47793" lon="6.75829">
        <ele>1311.5</ele>
        <time>2022-06-12T11:22:16Z</time>
      </trkpt>
      <trkpt lat="44.47796" lon="6.75823">
        <ele>1311.5</ele>
        <time>2022-06-12T11:22:17Z</time>
      </trkpt>
      <trkpt lat="44.478" lon="6.75816">
        <ele>1311.7</ele>
        <time>2022-06-12T11:22:18Z</time>
      </trkpt>
      <trkpt lat="44.47804" lon="6.75809">
        <ele>1311.9</ele>
        <time>2022-06-12T11:22:19Z</time>
      </trkpt>
      <trkpt lat="44.47807" lon="6.75803">
        <ele>1312</ele>
        <time>2022-06-12T11:22:20Z</time>
      </trkpt>
      <trkpt lat="44.47811" lon="6.75797">
        <ele>1312.1</ele>
        <time>2022-06-12T11:22:21Z</time>
      </trkpt>
      <trkpt lat="44.47815" lon="6.75791">
        <ele>1312.3</ele>
        <time>2022-06-12T11:22:22Z</time>
      </trkpt>
      <trkpt lat="44.47818" lon="6.75785">
        <ele>1312.5</ele>
        <time>2022-06-12T11:22:23Z</time>
      </trkpt>
      <trkpt lat="44.47822" lon="6.7578">
        <ele>1312.8</ele>
        <time>2022-06-12T11:22:24Z</time>
      </trkpt>
      <trkpt lat="44.47825" lon="6.75776">
        <ele>1313.1</ele>
        <time>2022-06-12T11:22:25Z</time>
      </trkpt>
      <trkpt lat="44.47829" lon="6.75772">
        <ele>1313.3</ele>
        <time>2022-06-12T11:22:26Z</time>
      </trkpt>
      <trkpt lat="44.47832" lon="6.75767">
        <ele>1313.5</ele>
        <time>2022-06-12T11:22:27Z</time>
      </trkpt>
      <trkpt lat="44.47835" lon="6.75763">
        <ele>1313.6</ele>
        <time>2022-06-12T11:22:28Z</time>
      </trkpt>
      <trkpt lat="44.47838" lon="6.75759">
        <ele>1313.8</ele>
        <time>2022-06-12T11:22:29Z</time>
      </trkpt>
      <trkpt lat="44.47842" lon="6.75755">
        <ele>1314.1</ele>
        <time>2022-06-12T11:22:30Z</time>
      </trkpt>
      <trkpt lat="44.47845" lon="6.75751">
        <ele>1314.3</ele>
        <time>2022-06-12T11:22:31Z</time>
      </trkpt>
      <trkpt lat="44.47848" lon="6.75746">
        <ele>1314.5</ele>
        <time>2022-06-12T11:22:32Z</time>
      </trkpt>
      <trkpt lat="44.47852" lon="6.75742">
        <ele>1314.7</ele>
        <time>2022-06-12T11:22:33Z</time>
      </trkpt>
      <trkpt lat="44.47855" lon="6.75739">
        <ele>1314.9</ele>
        <time>2022-06-12T11:22:34Z</time>
      </trkpt>
      <trkpt lat="44.47859" lon="6.75735">
        <ele>1315.2</ele>
        <time>2022-06-12T11:22:35Z</time>
      </trkpt>
      <trkpt lat="44.47862" lon="6.75731">
        <ele>1315.4</ele>
        <time>2022-06-12T11:22:36Z</time>
      </trkpt>
      <trkpt lat="44.47866" lon="6.75727">
        <ele>1315.6</ele>
        <time>2022-06-12T11:22:37Z</time>
      </trkpt>
      <trkpt lat="44.47869" lon="6.75723">
        <ele>1315.8</ele>
        <time>2022-06-12T11:22:38Z</time>
      </trkpt>
      <trkpt lat="44.47872" lon="6.75719">
        <ele>1316.1</ele>
        <time>2022-06-12T11:22:39Z</time>
      </trkpt>
      <trkpt lat="44.47876" lon="6.75716">
        <ele>1316.3</ele>
        <time>2022-06-12T11:22:40Z</time>
      </trkpt>
      <trkpt lat="44.47879" lon="6.75712">
        <ele>1316.6</ele>
        <time>2022-06-12T11:22:41Z</time>
      </trkpt>
      <trkpt lat="44.47883" lon="6.75709">
        <ele>1316.8</ele>
        <time>2022-06-12T11:22:42Z</time>
      </trkpt>
      <trkpt lat="44.47886" lon="6.75706">
        <ele>1317.1</ele>
        <time>2022-06-12T11:22:43Z</time>
      </trkpt>
      <trkpt lat="44.4789" lon="6.75702">
        <ele>1317.4</ele>
        <time>2022-06-12T11:22:44Z</time>
      </trkpt>
      <trkpt lat="44.47893" lon="6.75699">
        <ele>1317.6</ele>
        <time>2022-06-12T11:22:45Z</time>
      </trkpt>
      <trkpt lat="44.47897" lon="6.75695">
        <ele>1317.9</ele>
        <time>2022-06-12T11:22:46Z</time>
      </trkpt>
      <trkpt lat="44.47901" lon="6.75692">
        <ele>1318.1</ele>
        <time>2022-06-12T11:22:47Z</time>
      </trkpt>
      <trkpt lat="44.47904" lon="6.75689">
        <ele>1318.3</ele>
        <time>2022-06-12T11:22:48Z</time>
      </trkpt>
      <trkpt lat="44.47907" lon="6.75685">
        <ele>1318.5</ele>
        <time>2022-06-12T11:22:49Z</time>
      </trkpt>
      <trkpt lat="44.47911" lon="6.75682">
        <ele>1318.8</ele>
        <time>2022-06-12T11:22:50Z</time>
      </trkpt>
      <trkpt lat="44.47914" lon="6.75679">
        <ele>1319.1</ele>
        <time>2022-06-12T11:22:51Z</time>
      </trkpt>
      <trkpt lat="44.47917" lon="6.75675">
        <ele>1319.4</ele>
        <time>2022-06-12T11:22:52Z</time>
      </trkpt>
      <trkpt lat="44.47921" lon="6.75672">
        <ele>1319.7</ele>
        <time>2022-06-12T11:22:53Z</time>
      </trkpt>
      <trkpt lat="44.47924" lon="6.75669">
        <ele>1319.9</ele>
        <time>2022-06-12T11:22:54Z</time>
      </trkpt>
      <trkpt lat="44.47928" lon="6.75666">
        <ele>1320.1</ele>
        <time>2022-06-12T11:22:55Z</time>
      </trkpt>
      <trkpt lat="44.47931" lon="6.75662">
        <ele>1320.3</ele>
        <time>2022-06-12T11:22:56Z</time>
      </trkpt>
      <trkpt lat="44.47934" lon="6.75659">
        <ele>1320.5</ele>
        <time>2022-06-12T11:22:57Z</time>
      </trkpt>
      <trkpt lat="44.47938" lon="6.75656">
        <ele>1320.8</ele>
        <time>2022-06-12T11:22:58Z</time>
      </trkpt>
      <trkpt lat="44.47941" lon="6.75653">
        <ele>1321.1</ele>
        <time>2022-06-12T11:22:59Z</time>
      </trkpt>
      <trkpt lat="44.47944" lon="6.75649">
        <ele>1321.3</ele>
        <time>2022-06-12T11:23:00Z</time>
      </trkpt>
      <trkpt lat="44.47948" lon="6.75646">
        <ele>1321.6</ele>
        <time>2022-06-12T11:23:01Z</time>
      </trkpt>
      <trkpt lat="44.47951" lon="6.75643">
        <ele>1321.9</ele>
        <time>2022-06-12T11:23:02Z</time>
      </trkpt>
      <trkpt lat="44.47955" lon="6.75639">
        <ele>1322.1</ele>
        <time>2022-06-12T11:23:03Z</time>
      </trkpt>
      <trkpt lat="44.47958" lon="6.75635">
        <ele>1322.2</ele>
        <time>2022-06-12T11:23:04Z</time>
      </trkpt>
      <trkpt lat="44.47961" lon="6.75631">
        <ele>1322.2</ele>
        <time>2022-06-12T11:23:05Z</time>
      </trkpt>
      <trkpt lat="44.47965" lon="6.75627">
        <ele>1322.3</ele>
        <time>2022-06-12T11:23:06Z</time>
      </trkpt>
      <trkpt lat="44.47968" lon="6.75622">
        <ele>1322.4</ele>
        <time>2022-06-12T11:23:07Z</time>
      </trkpt>
      <trkpt lat="44.47972" lon="6.75618">
        <ele>1322.5</ele>
        <time>2022-06-12T11:23:08Z</time>
      </trkpt>
      <trkpt lat="44.47975" lon="6.75614">
        <ele>1322.5</ele>
        <time>2022-06-12T11:23:09Z</time>
      </trkpt>
      <trkpt lat="44.47979" lon="6.75609">
        <ele>1322.5</ele>
        <time>2022-06-12T11:23:10Z</time>
      </trkpt>
      <trkpt lat="44.47982" lon="6.75604">
        <ele>1322.5</ele>
        <time>2022-06-12T11:23:11Z</time>
      </trkpt>
      <trkpt lat="44.47985" lon="6.756">
        <ele>1322.5</ele>
        <time>2022-06-12T11:23:12Z</time>
      </trkpt>
      <trkpt lat="44.47988" lon="6.75595">
        <ele>1322.5</ele>
        <time>2022-06-12T11:23:13Z</time>
      </trkpt>
      <trkpt lat="44.47991" lon="6.7559">
        <ele>1322.4</ele>
        <time>2022-06-12T11:23:14Z</time>
      </trkpt>
      <trkpt lat="44.47993" lon="6.75585">
        <ele>1322.4</ele>
        <time>2022-06-12T11:23:15Z</time>
      </trkpt>
      <trkpt lat="44.47996" lon="6.7558">
        <ele>1322.3</ele>
        <time>2022-06-12T11:23:16Z</time>
      </trkpt>
      <trkpt lat="44.47999" lon="6.75576">
        <ele>1322.3</ele>
        <time>2022-06-12T11:23:17Z</time>
      </trkpt>
      <trkpt lat="44.48001" lon="6.7557">
        <ele>1322.1</ele>
        <time>2022-06-12T11:23:18Z</time>
      </trkpt>
      <trkpt lat="44.48004" lon="6.75565">
        <ele>1322</ele>
        <time>2022-06-12T11:23:19Z</time>
      </trkpt>
      <trkpt lat="44.48006" lon="6.7556">
        <ele>1321.8</ele>
        <time>2022-06-12T11:23:20Z</time>
      </trkpt>
      <trkpt lat="44.48009" lon="6.75554">
        <ele>1321.6</ele>
        <time>2022-06-12T11:23:21Z</time>
      </trkpt>
      <trkpt lat="44.48012" lon="6.75548">
        <ele>1321.6</ele>
        <time>2022-06-12T11:23:22Z</time>
      </trkpt>
      <trkpt lat="44.48015" lon="6.75542">
        <ele>1321.5</ele>
        <time>2022-06-12T11:23:23Z</time>
      </trkpt>
      <trkpt lat="44.48018" lon="6.75535">
        <ele>1321.5</ele>
        <time>2022-06-12T11:23:24Z</time>
      </trkpt>
      <trkpt lat="44.4802" lon="6.75528">
        <ele>1321.5</ele>
        <time>2022-06-12T11:23:25Z</time>
      </trkpt>
      <trkpt lat="44.48023" lon="6.7552">
        <ele>1321.3</ele>
        <time>2022-06-12T11:23:26Z</time>
      </trkpt>
      <trkpt lat="44.48025" lon="6.75514">
        <ele>1321.3</ele>
        <time>2022-06-12T11:23:27Z</time>
      </trkpt>
      <trkpt lat="44.48028" lon="6.75506">
        <ele>1321.2</ele>
        <time>2022-06-12T11:23:28Z</time>
      </trkpt>
      <trkpt lat="44.4803" lon="6.75499">
        <ele>1321</ele>
        <time>2022-06-12T11:23:29Z</time>
      </trkpt>
      <trkpt lat="44.48032" lon="6.75492">
        <ele>1320.8</ele>
        <time>2022-06-12T11:23:30Z</time>
      </trkpt>
      <trkpt lat="44.48034" lon="6.75484">
        <ele>1320.7</ele>
        <time>2022-06-12T11:23:31Z</time>
      </trkpt>
      <trkpt lat="44.48036" lon="6.75477">
        <ele>1320.5</ele>
        <time>2022-06-12T11:23:32Z</time>
      </trkpt>
      <trkpt lat="44.48038" lon="6.75469">
        <ele>1320.3</ele>
        <time>2022-06-12T11:23:33Z</time>
      </trkpt>
      <trkpt lat="44.48039" lon="6.75462">
        <ele>1320.3</ele>
        <time>2022-06-12T11:23:34Z</time>
      </trkpt>
      <trkpt lat="44.48041" lon="6.75454">
        <ele>1320.2</ele>
        <time>2022-06-12T11:23:35Z</time>
      </trkpt>
      <trkpt lat="44.48043" lon="6.75447">
        <ele>1320.1</ele>
        <time>2022-06-12T11:23:36Z</time>
      </trkpt>
      <trkpt lat="44.48044" lon="6.7544">
        <ele>1319.9</ele>
        <time>2022-06-12T11:23:37Z</time>
      </trkpt>
      <trkpt lat="44.48045" lon="6.75433">
        <ele>1319.7</ele>
        <time>2022-06-12T11:23:38Z</time>
      </trkpt>
      <trkpt lat="44.48047" lon="6.75426">
        <ele>1319.5</ele>
        <time>2022-06-12T11:23:39Z</time>
      </trkpt>
      <trkpt lat="44.48048" lon="6.75419">
        <ele>1319.3</ele>
        <time>2022-06-12T11:23:40Z</time>
      </trkpt>
      <trkpt lat="44.4805" lon="6.75412">
        <ele>1318.9</ele>
        <time>2022-06-12T11:23:41Z</time>
      </trkpt>
      <trkpt lat="44.48051" lon="6.75405">
        <ele>1318.3</ele>
        <time>2022-06-12T11:23:42Z</time>
      </trkpt>
      <trkpt lat="44.48053" lon="6.75398">
        <ele>1317.7</ele>
        <time>2022-06-12T11:23:43Z</time>
      </trkpt>
      <trkpt lat="44.48054" lon="6.7539">
        <ele>1317.1</ele>
        <time>2022-06-12T11:23:44Z</time>
      </trkpt>
      <trkpt lat="44.48056" lon="6.75383">
        <ele>1317</ele>
        <time>2022-06-12T11:23:45Z</time>
      </trkpt>
      <trkpt lat="44.48057" lon="6.75375">
        <ele>1317</ele>
        <time>2022-06-12T11:23:46Z</time>
      </trkpt>
      <trkpt lat="44.48059" lon="6.75367">
        <ele>1317</ele>
        <time>2022-06-12T11:23:47Z</time>
      </trkpt>
      <trkpt lat="44.4806" lon="6.75359">
        <ele>1317.3</ele>
        <time>2022-06-12T11:23:48Z</time>
      </trkpt>
      <trkpt lat="44.48062" lon="6.75351">
        <ele>1318.5</ele>
        <time>2022-06-12T11:23:49Z</time>
      </trkpt>
      <trkpt lat="44.48064" lon="6.75343">
        <ele>1319.6</ele>
        <time>2022-06-12T11:23:50Z</time>
      </trkpt>
      <trkpt lat="44.48067" lon="6.75335">
        <ele>1320.5</ele>
        <time>2022-06-12T11:23:51Z</time>
      </trkpt>
      <trkpt lat="44.4807" lon="6.75328">
        <ele>1321.2</ele>
        <time>2022-06-12T11:23:52Z</time>
      </trkpt>
      <trkpt lat="44.48073" lon="6.7532">
        <ele>1321.4</ele>
        <time>2022-06-12T11:23:53Z</time>
      </trkpt>
      <trkpt lat="44.48077" lon="6.75313">
        <ele>1321.2</ele>
        <time>2022-06-12T11:23:54Z</time>
      </trkpt>
      <trkpt lat="44.48081" lon="6.75307">
        <ele>1320.6</ele>
        <time>2022-06-12T11:23:55Z</time>
      </trkpt>
      <trkpt lat="44.48085" lon="6.75301">
        <ele>1320.6</ele>
        <time>2022-06-12T11:23:56Z</time>
      </trkpt>
      <trkpt lat="44.48088" lon="6.75295">
        <ele>1321.1</ele>
        <time>2022-06-12T11:23:57Z</time>
      </trkpt>
      <trkpt lat="44.48092" lon="6.7529">
        <ele>1321.5</ele>
        <time>2022-06-12T11:23:58Z</time>
      </trkpt>
      <trkpt lat="44.48095" lon="6.75284">
        <ele>1321.7</ele>
        <time>2022-06-12T11:23:59Z</time>
      </trkpt>
      <trkpt lat="44.48098" lon="6.75279">
        <ele>1321.8</ele>
        <time>2022-06-12T11:24:00Z</time>
      </trkpt>
      <trkpt lat="44.48101" lon="6.75274">
        <ele>1322</ele>
        <time>2022-06-12T11:24:01Z</time>
      </trkpt>
      <trkpt lat="44.48104" lon="6.7527">
        <ele>1322.1</ele>
        <time>2022-06-12T11:24:02Z</time>
      </trkpt>
      <trkpt lat="44.48107" lon="6.75265">
        <ele>1321.9</ele>
        <time>2022-06-12T11:24:03Z</time>
      </trkpt>
      <trkpt lat="44.4811" lon="6.7526">
        <ele>1321.6</ele>
        <time>2022-06-12T11:24:04Z</time>
      </trkpt>
      <trkpt lat="44.48113" lon="6.75255">
        <ele>1321.5</ele>
        <time>2022-06-12T11:24:05Z</time>
      </trkpt>
      <trkpt lat="44.48116" lon="6.75249">
        <ele>1321.7</ele>
        <time>2022-06-12T11:24:06Z</time>
      </trkpt>
      <trkpt lat="44.4812" lon="6.75243">
        <ele>1322.4</ele>
        <time>2022-06-12T11:24:07Z</time>
      </trkpt>
      <trkpt lat="44.48123" lon="6.75237">
        <ele>1322.9</ele>
        <time>2022-06-12T11:24:08Z</time>
      </trkpt>
      <trkpt lat="44.48127" lon="6.75232">
        <ele>1323.2</ele>
        <time>2022-06-12T11:24:09Z</time>
      </trkpt>
      <trkpt lat="44.4813" lon="6.75226">
        <ele>1323.4</ele>
        <time>2022-06-12T11:24:10Z</time>
      </trkpt>
      <trkpt lat="44.48134" lon="6.75221">
        <ele>1323.3</ele>
        <time>2022-06-12T11:24:11Z</time>
      </trkpt>
      <trkpt lat="44.48137" lon="6.75216">
        <ele>1323.1</ele>
        <time>2022-06-12T11:24:12Z</time>
      </trkpt>
      <trkpt lat="44.48141" lon="6.7521">
        <ele>1323.2</ele>
        <time>2022-06-12T11:24:13Z</time>
      </trkpt>
      <trkpt lat="44.48144" lon="6.75205">
        <ele>1323.4</ele>
        <time>2022-06-12T11:24:14Z</time>
      </trkpt>
      <trkpt lat="44.48148" lon="6.752">
        <ele>1323.6</ele>
        <time>2022-06-12T11:24:15Z</time>
      </trkpt>
      <trkpt lat="44.48151" lon="6.75194">
        <ele>1323.7</ele>
        <time>2022-06-12T11:24:16Z</time>
      </trkpt>
      <trkpt lat="44.48155" lon="6.7519">
        <ele>1323.9</ele>
        <time>2022-06-12T11:24:17Z</time>
      </trkpt>
      <trkpt lat="44.48159" lon="6.75185">
        <ele>1323.9</ele>
        <time>2022-06-12T11:24:18Z</time>
      </trkpt>
      <trkpt lat="44.48163" lon="6.7518">
        <ele>1323.7</ele>
        <time>2022-06-12T11:24:19Z</time>
      </trkpt>
      <trkpt lat="44.48167" lon="6.75175">
        <ele>1323.4</ele>
        <time>2022-06-12T11:24:20Z</time>
      </trkpt>
      <trkpt lat="44.48171" lon="6.7517">
        <ele>1323.6</ele>
        <time>2022-06-12T11:24:21Z</time>
      </trkpt>
      <trkpt lat="44.48174" lon="6.75165">
        <ele>1323.9</ele>
        <time>2022-06-12T11:24:22Z</time>
      </trkpt>
      <trkpt lat="44.48178" lon="6.75161">
        <ele>1324.2</ele>
        <time>2022-06-12T11:24:23Z</time>
      </trkpt>
      <trkpt lat="44.48182" lon="6.75156">
        <ele>1324.3</ele>
        <time>2022-06-12T11:24:24Z</time>
      </trkpt>
      <trkpt lat="44.48186" lon="6.75152">
        <ele>1324.4</ele>
        <time>2022-06-12T11:24:25Z</time>
      </trkpt>
      <trkpt lat="44.4819" lon="6.75147">
        <ele>1324.2</ele>
        <time>2022-06-12T11:24:26Z</time>
      </trkpt>
      <trkpt lat="44.48194" lon="6.75142">
        <ele>1324</ele>
        <time>2022-06-12T11:24:27Z</time>
      </trkpt>
      <trkpt lat="44.48198" lon="6.75138">
        <ele>1324.1</ele>
        <time>2022-06-12T11:24:28Z</time>
      </trkpt>
      <trkpt lat="44.48201" lon="6.75134">
        <ele>1324.6</ele>
        <time>2022-06-12T11:24:29Z</time>
      </trkpt>
      <trkpt lat="44.48205" lon="6.7513">
        <ele>1325.1</ele>
        <time>2022-06-12T11:24:30Z</time>
      </trkpt>
      <trkpt lat="44.48209" lon="6.75125">
        <ele>1325.5</ele>
        <time>2022-06-12T11:24:31Z</time>
      </trkpt>
      <trkpt lat="44.48213" lon="6.7512">
        <ele>1325.8</ele>
        <time>2022-06-12T11:24:32Z</time>
      </trkpt>
      <trkpt lat="44.48217" lon="6.75116">
        <ele>1326</ele>
        <time>2022-06-12T11:24:33Z</time>
      </trkpt>
      <trkpt lat="44.48221" lon="6.75112">
        <ele>1326.1</ele>
        <time>2022-06-12T11:24:34Z</time>
      </trkpt>
      <trkpt lat="44.48224" lon="6.75107">
        <ele>1326.3</ele>
        <time>2022-06-12T11:24:35Z</time>
      </trkpt>
      <trkpt lat="44.48228" lon="6.75103">
        <ele>1326.6</ele>
        <time>2022-06-12T11:24:36Z</time>
      </trkpt>
      <trkpt lat="44.48232" lon="6.75099">
        <ele>1326.8</ele>
        <time>2022-06-12T11:24:37Z</time>
      </trkpt>
      <trkpt lat="44.48236" lon="6.75095">
        <ele>1327</ele>
        <time>2022-06-12T11:24:38Z</time>
      </trkpt>
      <trkpt lat="44.4824" lon="6.75091">
        <ele>1327.1</ele>
        <time>2022-06-12T11:24:39Z</time>
      </trkpt>
      <trkpt lat="44.48244" lon="6.75087">
        <ele>1327.2</ele>
        <time>2022-06-12T11:24:40Z</time>
      </trkpt>
      <trkpt lat="44.48248" lon="6.75084">
        <ele>1327.2</ele>
        <time>2022-06-12T11:24:41Z</time>
      </trkpt>
      <trkpt lat="44.48251" lon="6.75079">
        <ele>1327.3</ele>
        <time>2022-06-12T11:24:42Z</time>
      </trkpt>
      <trkpt lat="44.48255" lon="6.75075">
        <ele>1327.5</ele>
        <time>2022-06-12T11:24:43Z</time>
      </trkpt>
      <trkpt lat="44.48259" lon="6.75071">
        <ele>1327.8</ele>
        <time>2022-06-12T11:24:44Z</time>
      </trkpt>
      <trkpt lat="44.48263" lon="6.75066">
        <ele>1328</ele>
        <time>2022-06-12T11:24:45Z</time>
      </trkpt>
      <trkpt lat="44.48266" lon="6.75061">
        <ele>1328.2</ele>
        <time>2022-06-12T11:24:46Z</time>
      </trkpt>
      <trkpt lat="44.4827" lon="6.75056">
        <ele>1328.3</ele>
        <time>2022-06-12T11:24:47Z</time>
      </trkpt>
      <trkpt lat="44.48274" lon="6.75052">
        <ele>1328.4</ele>
        <time>2022-06-12T11:24:48Z</time>
      </trkpt>
      <trkpt lat="44.48277" lon="6.75047">
        <ele>1328.4</ele>
        <time>2022-06-12T11:24:49Z</time>
      </trkpt>
      <trkpt lat="44.48281" lon="6.75044">
        <ele>1328.3</ele>
        <time>2022-06-12T11:24:50Z</time>
      </trkpt>
      <trkpt lat="44.48285" lon="6.75039">
        <ele>1328.3</ele>
        <time>2022-06-12T11:24:51Z</time>
      </trkpt>
      <trkpt lat="44.48289" lon="6.75035">
        <ele>1328.4</ele>
        <time>2022-06-12T11:24:52Z</time>
      </trkpt>
      <trkpt lat="44.48293" lon="6.75031">
        <ele>1328.4</ele>
        <time>2022-06-12T11:24:53Z</time>
      </trkpt>
      <trkpt lat="44.48297" lon="6.75027">
        <ele>1328.3</ele>
        <time>2022-06-12T11:24:54Z</time>
      </trkpt>
      <trkpt lat="44.48301" lon="6.75023">
        <ele>1328.2</ele>
        <time>2022-06-12T11:24:55Z</time>
      </trkpt>
      <trkpt lat="44.48304" lon="6.75019">
        <ele>1328.1</ele>
        <time>2022-06-12T11:24:56Z</time>
      </trkpt>
      <trkpt lat="44.48308" lon="6.75015">
        <ele>1328</ele>
        <time>2022-06-12T11:24:57Z</time>
      </trkpt>
      <trkpt lat="44.48312" lon="6.75011">
        <ele>1328</ele>
        <time>2022-06-12T11:24:58Z</time>
      </trkpt>
      <trkpt lat="44.48316" lon="6.75008">
        <ele>1328</ele>
        <time>2022-06-12T11:24:59Z</time>
      </trkpt>
      <trkpt lat="44.4832" lon="6.75004">
        <ele>1328</ele>
        <time>2022-06-12T11:25:00Z</time>
      </trkpt>
      <trkpt lat="44.48323" lon="6.75">
        <ele>1328</ele>
        <time>2022-06-12T11:25:01Z</time>
      </trkpt>
      <trkpt lat="44.48327" lon="6.74997">
        <ele>1328.1</ele>
        <time>2022-06-12T11:25:02Z</time>
      </trkpt>
      <trkpt lat="44.4833" lon="6.74993">
        <ele>1328.1</ele>
        <time>2022-06-12T11:25:03Z</time>
      </trkpt>
      <trkpt lat="44.48334" lon="6.74989">
        <ele>1328</ele>
        <time>2022-06-12T11:25:04Z</time>
      </trkpt>
      <trkpt lat="44.48337" lon="6.74986">
        <ele>1328</ele>
        <time>2022-06-12T11:25:05Z</time>
      </trkpt>
      <trkpt lat="44.48341" lon="6.74982">
        <ele>1328</ele>
        <time>2022-06-12T11:25:06Z</time>
      </trkpt>
      <trkpt lat="44.48344" lon="6.74978">
        <ele>1328</ele>
        <time>2022-06-12T11:25:07Z</time>
      </trkpt>
      <trkpt lat="44.48347" lon="6.74974">
        <ele>1328</ele>
        <time>2022-06-12T11:25:08Z</time>
      </trkpt>
      <trkpt lat="44.4835" lon="6.7497">
        <ele>1328.1</ele>
        <time>2022-06-12T11:25:09Z</time>
      </trkpt>
      <trkpt lat="44.48354" lon="6.74967">
        <ele>1328.3</ele>
        <time>2022-06-12T11:25:10Z</time>
      </trkpt>
      <trkpt lat="44.48357" lon="6.74963">
        <ele>1328.4</ele>
        <time>2022-06-12T11:25:11Z</time>
      </trkpt>
      <trkpt lat="44.4836" lon="6.74958">
        <ele>1328.5</ele>
        <time>2022-06-12T11:25:12Z</time>
      </trkpt>
      <trkpt lat="44.48364" lon="6.74954">
        <ele>1328.7</ele>
        <time>2022-06-12T11:25:13Z</time>
      </trkpt>
      <trkpt lat="44.48367" lon="6.7495">
        <ele>1328.8</ele>
        <time>2022-06-12T11:25:14Z</time>
      </trkpt>
      <trkpt lat="44.4837" lon="6.74945">
        <ele>1329</ele>
        <time>2022-06-12T11:25:15Z</time>
      </trkpt>
      <trkpt lat="44.48373" lon="6.7494">
        <ele>1329.2</ele>
        <time>2022-06-12T11:25:16Z</time>
      </trkpt>
      <trkpt lat="44.48377" lon="6.74935">
        <ele>1329.5</ele>
        <time>2022-06-12T11:25:17Z</time>
      </trkpt>
      <trkpt lat="44.4838" lon="6.7493">
        <ele>1329.7</ele>
        <time>2022-06-12T11:25:18Z</time>
      </trkpt>
      <trkpt lat="44.48383" lon="6.74924">
        <ele>1329.9</ele>
        <time>2022-06-12T11:25:19Z</time>
      </trkpt>
      <trkpt lat="44.48387" lon="6.74919">
        <ele>1330</ele>
        <time>2022-06-12T11:25:20Z</time>
      </trkpt>
      <trkpt lat="44.4839" lon="6.74914">
        <ele>1330.2</ele>
        <time>2022-06-12T11:25:21Z</time>
      </trkpt>
      <trkpt lat="44.48394" lon="6.74908">
        <ele>1330.4</ele>
        <time>2022-06-12T11:25:22Z</time>
      </trkpt>
      <trkpt lat="44.48398" lon="6.74903">
        <ele>1330.7</ele>
        <time>2022-06-12T11:25:23Z</time>
      </trkpt>
      <trkpt lat="44.48401" lon="6.74897">
        <ele>1331</ele>
        <time>2022-06-12T11:25:24Z</time>
      </trkpt>
      <trkpt lat="44.48404" lon="6.74892">
        <ele>1331.3</ele>
        <time>2022-06-12T11:25:25Z</time>
      </trkpt>
      <trkpt lat="44.48408" lon="6.74886">
        <ele>1331.6</ele>
        <time>2022-06-12T11:25:26Z</time>
      </trkpt>
      <trkpt lat="44.48411" lon="6.74881">
        <ele>1331.9</ele>
        <time>2022-06-12T11:25:27Z</time>
      </trkpt>
      <trkpt lat="44.48415" lon="6.74876">
        <ele>1332.1</ele>
        <time>2022-06-12T11:25:28Z</time>
      </trkpt>
      <trkpt lat="44.48419" lon="6.74871">
        <ele>1332.1</ele>
        <time>2022-06-12T11:25:29Z</time>
      </trkpt>
      <trkpt lat="44.48422" lon="6.74866">
        <ele>1332.1</ele>
        <time>2022-06-12T11:25:30Z</time>
      </trkpt>
      <trkpt lat="44.48427" lon="6.74862">
        <ele>1331.9</ele>
        <time>2022-06-12T11:25:31Z</time>
      </trkpt>
      <trkpt lat="44.48431" lon="6.74857">
        <ele>1332</ele>
        <time>2022-06-12T11:25:32Z</time>
      </trkpt>
      <trkpt lat="44.48435" lon="6.74853">
        <ele>1332.1</ele>
        <time>2022-06-12T11:25:33Z</time>
      </trkpt>
      <trkpt lat="44.48439" lon="6.74849">
        <ele>1332.1</ele>
        <time>2022-06-12T11:25:34Z</time>
      </trkpt>
      <trkpt lat="44.48443" lon="6.74845">
        <ele>1332</ele>
        <time>2022-06-12T11:25:35Z</time>
      </trkpt>
      <trkpt lat="44.48448" lon="6.74841">
        <ele>1332</ele>
        <time>2022-06-12T11:25:36Z</time>
      </trkpt>
      <trkpt lat="44.48452" lon="6.74837">
        <ele>1332.1</ele>
        <time>2022-06-12T11:25:37Z</time>
      </trkpt>
      <trkpt lat="44.48457" lon="6.74833">
        <ele>1332.2</ele>
        <time>2022-06-12T11:25:38Z</time>
      </trkpt>
      <trkpt lat="44.48462" lon="6.7483">
        <ele>1332.6</ele>
        <time>2022-06-12T11:25:39Z</time>
      </trkpt>
      <trkpt lat="44.48467" lon="6.74826">
        <ele>1332.9</ele>
        <time>2022-06-12T11:25:40Z</time>
      </trkpt>
      <trkpt lat="44.48471" lon="6.74823">
        <ele>1333.1</ele>
        <time>2022-06-12T11:25:41Z</time>
      </trkpt>
      <trkpt lat="44.48476" lon="6.7482">
        <ele>1333.2</ele>
        <time>2022-06-12T11:25:42Z</time>
      </trkpt>
      <trkpt lat="44.48481" lon="6.74816">
        <ele>1333.3</ele>
        <time>2022-06-12T11:25:43Z</time>
      </trkpt>
      <trkpt lat="44.48486" lon="6.74813">
        <ele>1333.3</ele>
        <time>2022-06-12T11:25:44Z</time>
      </trkpt>
      <trkpt lat="44.4849" lon="6.7481">
        <ele>1333.4</ele>
        <time>2022-06-12T11:25:45Z</time>
      </trkpt>
      <trkpt lat="44.48495" lon="6.74807">
        <ele>1333.4</ele>
        <time>2022-06-12T11:25:46Z</time>
      </trkpt>
      <trkpt lat="44.48499" lon="6.74803">
        <ele>1333.8</ele>
        <time>2022-06-12T11:25:47Z</time>
      </trkpt>
      <trkpt lat="44.48504" lon="6.748">
        <ele>1334.3</ele>
        <time>2022-06-12T11:25:48Z</time>
      </trkpt>
      <trkpt lat="44.48509" lon="6.74797">
        <ele>1334.8</ele>
        <time>2022-06-12T11:25:49Z</time>
      </trkpt>
      <trkpt lat="44.48514" lon="6.74794">
        <ele>1335.3</ele>
        <time>2022-06-12T11:25:50Z</time>
      </trkpt>
      <trkpt lat="44.48518" lon="6.7479">
        <ele>1335.7</ele>
        <time>2022-06-12T11:25:51Z</time>
      </trkpt>
      <trkpt lat="44.48523" lon="6.74787">
        <ele>1336</ele>
        <time>2022-06-12T11:25:52Z</time>
      </trkpt>
      <trkpt lat="44.48527" lon="6.74784">
        <ele>1336.1</ele>
        <time>2022-06-12T11:25:53Z</time>
      </trkpt>
      <trkpt lat="44.48532" lon="6.7478">
        <ele>1336.3</ele>
        <time>2022-06-12T11:25:54Z</time>
      </trkpt>
      <trkpt lat="44.48537" lon="6.74778">
        <ele>1336.4</ele>
        <time>2022-06-12T11:25:55Z</time>
      </trkpt>
      <trkpt lat="44.48541" lon="6.74775">
        <ele>1336.8</ele>
        <time>2022-06-12T11:25:56Z</time>
      </trkpt>
      <trkpt lat="44.48546" lon="6.74773">
        <ele>1336.9</ele>
        <time>2022-06-12T11:25:57Z</time>
      </trkpt>
      <trkpt lat="44.48551" lon="6.74772">
        <ele>1337</ele>
        <time>2022-06-12T11:25:58Z</time>
      </trkpt>
      <trkpt lat="44.48556" lon="6.7477">
        <ele>1337</ele>
        <time>2022-06-12T11:25:59Z</time>
      </trkpt>
      <trkpt lat="44.48561" lon="6.74768">
        <ele>1337</ele>
        <time>2022-06-12T11:26:00Z</time>
      </trkpt>
      <trkpt lat="44.48566" lon="6.74766">
        <ele>1337</ele>
        <time>2022-06-12T11:26:01Z</time>
      </trkpt>
      <trkpt lat="44.48572" lon="6.74764">
        <ele>1336.8</ele>
        <time>2022-06-12T11:26:02Z</time>
      </trkpt>
      <trkpt lat="44.48577" lon="6.74763">
        <ele>1336.5</ele>
        <time>2022-06-12T11:26:03Z</time>
      </trkpt>
      <trkpt lat="44.48582" lon="6.74761">
        <ele>1336.2</ele>
        <time>2022-06-12T11:26:04Z</time>
      </trkpt>
      <trkpt lat="44.48587" lon="6.7476">
        <ele>1336</ele>
        <time>2022-06-12T11:26:05Z</time>
      </trkpt>
      <trkpt lat="44.48592" lon="6.74759">
        <ele>1335.7</ele>
        <time>2022-06-12T11:26:06Z</time>
      </trkpt>
      <trkpt lat="44.48597" lon="6.74757">
        <ele>1335.5</ele>
        <time>2022-06-12T11:26:07Z</time>
      </trkpt>
      <trkpt lat="44.48602" lon="6.74755">
        <ele>1335.4</ele>
        <time>2022-06-12T11:26:08Z</time>
      </trkpt>
      <trkpt lat="44.48607" lon="6.74752">
        <ele>1335.3</ele>
        <time>2022-06-12T11:26:09Z</time>
      </trkpt>
      <trkpt lat="44.48611" lon="6.74748">
        <ele>1335.3</ele>
        <time>2022-06-12T11:26:10Z</time>
      </trkpt>
      <trkpt lat="44.48616" lon="6.74743">
        <ele>1335.6</ele>
        <time>2022-06-12T11:26:11Z</time>
      </trkpt>
      <trkpt lat="44.4862" lon="6.74738">
        <ele>1335.9</ele>
        <time>2022-06-12T11:26:12Z</time>
      </trkpt>
      <trkpt lat="44.48624" lon="6.74732">
        <ele>1336</ele>
        <time>2022-06-12T11:26:13Z</time>
      </trkpt>
      <trkpt lat="44.48629" lon="6.74727">
        <ele>1336</ele>
        <time>2022-06-12T11:26:14Z</time>
      </trkpt>
      <trkpt lat="44.48633" lon="6.74721">
        <ele>1336.1</ele>
        <time>2022-06-12T11:26:15Z</time>
      </trkpt>
      <trkpt lat="44.48636" lon="6.74716">
        <ele>1336.2</ele>
        <time>2022-06-12T11:26:16Z</time>
      </trkpt>
      <trkpt lat="44.4864" lon="6.7471">
        <ele>1336.2</ele>
        <time>2022-06-12T11:26:17Z</time>
      </trkpt>
      <trkpt lat="44.48644" lon="6.74705">
        <ele>1336.3</ele>
        <time>2022-06-12T11:26:18Z</time>
      </trkpt>
      <trkpt lat="44.48648" lon="6.74699">
        <ele>1336.3</ele>
        <time>2022-06-12T11:26:19Z</time>
      </trkpt>
      <trkpt lat="44.48652" lon="6.74693">
        <ele>1336.3</ele>
        <time>2022-06-12T11:26:20Z</time>
      </trkpt>
      <trkpt lat="44.48655" lon="6.74688">
        <ele>1336.5</ele>
        <time>2022-06-12T11:26:21Z</time>
      </trkpt>
      <trkpt lat="44.48659" lon="6.74682">
        <ele>1336.6</ele>
        <time>2022-06-12T11:26:22Z</time>
      </trkpt>
      <trkpt lat="44.48663" lon="6.74676">
        <ele>1336.7</ele>
        <time>2022-06-12T11:26:23Z</time>
      </trkpt>
      <trkpt lat="44.48666" lon="6.7467">
        <ele>1336.7</ele>
        <time>2022-06-12T11:26:24Z</time>
      </trkpt>
      <trkpt lat="44.4867" lon="6.74664">
        <ele>1337</ele>
        <time>2022-06-12T11:26:25Z</time>
      </trkpt>
      <trkpt lat="44.48674" lon="6.74659">
        <ele>1337.6</ele>
        <time>2022-06-12T11:26:26Z</time>
      </trkpt>
      <trkpt lat="44.48678" lon="6.74653">
        <ele>1337.9</ele>
        <time>2022-06-12T11:26:27Z</time>
      </trkpt>
      <trkpt lat="44.48681" lon="6.74647">
        <ele>1338.2</ele>
        <time>2022-06-12T11:26:28Z</time>
      </trkpt>
      <trkpt lat="44.48685" lon="6.74642">
        <ele>1338.3</ele>
        <time>2022-06-12T11:26:29Z</time>
      </trkpt>
      <trkpt lat="44.48689" lon="6.74637">
        <ele>1338.4</ele>
        <time>2022-06-12T11:26:30Z</time>
      </trkpt>
      <trkpt lat="44.48693" lon="6.74632">
        <ele>1338.5</ele>
        <time>2022-06-12T11:26:31Z</time>
      </trkpt>
      <trkpt lat="44.48697" lon="6.74628">
        <ele>1338.6</ele>
        <time>2022-06-12T11:26:32Z</time>
      </trkpt>
      <trkpt lat="44.48701" lon="6.74623">
        <ele>1338.8</ele>
        <time>2022-06-12T11:26:33Z</time>
      </trkpt>
      <trkpt lat="44.48705" lon="6.74618">
        <ele>1338.7</ele>
        <time>2022-06-12T11:26:34Z</time>
      </trkpt>
      <trkpt lat="44.48709" lon="6.74613">
        <ele>1338.6</ele>
        <time>2022-06-12T11:26:35Z</time>
      </trkpt>
      <trkpt lat="44.48713" lon="6.74609">
        <ele>1338.4</ele>
        <time>2022-06-12T11:26:36Z</time>
      </trkpt>
      <trkpt lat="44.48718" lon="6.74605">
        <ele>1338.4</ele>
        <time>2022-06-12T11:26:37Z</time>
      </trkpt>
      <trkpt lat="44.48722" lon="6.74602">
        <ele>1338.2</ele>
        <time>2022-06-12T11:26:38Z</time>
      </trkpt>
      <trkpt lat="44.48726" lon="6.74599">
        <ele>1338.2</ele>
        <time>2022-06-12T11:26:39Z</time>
      </trkpt>
      <trkpt lat="44.48731" lon="6.74595">
        <ele>1338.1</ele>
        <time>2022-06-12T11:26:40Z</time>
      </trkpt>
      <trkpt lat="44.48736" lon="6.74592">
        <ele>1338</ele>
        <time>2022-06-12T11:26:41Z</time>
      </trkpt>
      <trkpt lat="44.48741" lon="6.74589">
        <ele>1337.7</ele>
        <time>2022-06-12T11:26:42Z</time>
      </trkpt>
      <trkpt lat="44.48745" lon="6.74587">
        <ele>1337.4</ele>
        <time>2022-06-12T11:26:43Z</time>
      </trkpt>
      <trkpt lat="44.4875" lon="6.74584">
        <ele>1337</ele>
        <time>2022-06-12T11:26:44Z</time>
      </trkpt>
      <trkpt lat="44.48755" lon="6.74581">
        <ele>1337.1</ele>
        <time>2022-06-12T11:26:45Z</time>
      </trkpt>
      <trkpt lat="44.4876" lon="6.74579">
        <ele>1337.1</ele>
        <time>2022-06-12T11:26:46Z</time>
      </trkpt>
      <trkpt lat="44.48765" lon="6.74577">
        <ele>1337</ele>
        <time>2022-06-12T11:26:47Z</time>
      </trkpt>
      <trkpt lat="44.4877" lon="6.74574">
        <ele>1336.9</ele>
        <time>2022-06-12T11:26:48Z</time>
      </trkpt>
      <trkpt lat="44.48775" lon="6.74572">
        <ele>1336.6</ele>
        <time>2022-06-12T11:26:49Z</time>
      </trkpt>
      <trkpt lat="44.48779" lon="6.74569">
        <ele>1336.5</ele>
        <time>2022-06-12T11:26:50Z</time>
      </trkpt>
      <trkpt lat="44.48784" lon="6.74566">
        <ele>1336.7</ele>
        <time>2022-06-12T11:26:51Z</time>
      </trkpt>
      <trkpt lat="44.48789" lon="6.74563">
        <ele>1336.8</ele>
        <time>2022-06-12T11:26:52Z</time>
      </trkpt>
      <trkpt lat="44.48793" lon="6.7456">
        <ele>1336.9</ele>
        <time>2022-06-12T11:26:53Z</time>
      </trkpt>
      <trkpt lat="44.48798" lon="6.74556">
        <ele>1336.8</ele>
        <time>2022-06-12T11:26:54Z</time>
      </trkpt>
      <trkpt lat="44.48802" lon="6.74553">
        <ele>1336.9</ele>
        <time>2022-06-12T11:26:55Z</time>
      </trkpt>
      <trkpt lat="44.48807" lon="6.7455">
        <ele>1337.1</ele>
        <time>2022-06-12T11:26:56Z</time>
      </trkpt>
      <trkpt lat="44.48811" lon="6.74547">
        <ele>1337.7</ele>
        <time>2022-06-12T11:26:57Z</time>
      </trkpt>
      <trkpt lat="44.48816" lon="6.74543">
        <ele>1338.2</ele>
        <time>2022-06-12T11:26:58Z</time>
      </trkpt>
      <trkpt lat="44.4882" lon="6.74539">
        <ele>1338.7</ele>
        <time>2022-06-12T11:26:59Z</time>
      </trkpt>
      <trkpt lat="44.48824" lon="6.74536">
        <ele>1338.8</ele>
        <time>2022-06-12T11:27:00Z</time>
      </trkpt>
      <trkpt lat="44.48828" lon="6.74532">
        <ele>1339.1</ele>
        <time>2022-06-12T11:27:01Z</time>
      </trkpt>
      <trkpt lat="44.48832" lon="6.74528">
        <ele>1339.2</ele>
        <time>2022-06-12T11:27:02Z</time>
      </trkpt>
      <trkpt lat="44.48836" lon="6.74523">
        <ele>1340</ele>
        <time>2022-06-12T11:27:03Z</time>
      </trkpt>
      <trkpt lat="44.4884" lon="6.74519">
        <ele>1340.6</ele>
        <time>2022-06-12T11:27:04Z</time>
      </trkpt>
      <trkpt lat="44.48844" lon="6.74515">
        <ele>1341.1</ele>
        <time>2022-06-12T11:27:05Z</time>
      </trkpt>
      <trkpt lat="44.48847" lon="6.7451">
        <ele>1341.6</ele>
        <time>2022-06-12T11:27:06Z</time>
      </trkpt>
      <trkpt lat="44.48851" lon="6.74506">
        <ele>1341.8</ele>
        <time>2022-06-12T11:27:07Z</time>
      </trkpt>
      <trkpt lat="44.48855" lon="6.74501">
        <ele>1342</ele>
        <time>2022-06-12T11:27:08Z</time>
      </trkpt>
      <trkpt lat="44.48858" lon="6.74496">
        <ele>1342.4</ele>
        <time>2022-06-12T11:27:09Z</time>
      </trkpt>
      <trkpt lat="44.48862" lon="6.74491">
        <ele>1342.9</ele>
        <time>2022-06-12T11:27:10Z</time>
      </trkpt>
      <trkpt lat="44.48865" lon="6.74486">
        <ele>1343.4</ele>
        <time>2022-06-12T11:27:11Z</time>
      </trkpt>
      <trkpt lat="44.48869" lon="6.74481">
        <ele>1343.7</ele>
        <time>2022-06-12T11:27:12Z</time>
      </trkpt>
      <trkpt lat="44.48872" lon="6.74476">
        <ele>1343.8</ele>
        <time>2022-06-12T11:27:13Z</time>
      </trkpt>
      <trkpt lat="44.48875" lon="6.74471">
        <ele>1343.8</ele>
        <time>2022-06-12T11:27:14Z</time>
      </trkpt>
      <trkpt lat="44.48878" lon="6.74466">
        <ele>1344</ele>
        <time>2022-06-12T11:27:15Z</time>
      </trkpt>
      <trkpt lat="44.48881" lon="6.74461">
        <ele>1344</ele>
        <time>2022-06-12T11:27:16Z</time>
      </trkpt>
      <trkpt lat="44.48884" lon="6.74456">
        <ele>1343.9</ele>
        <time>2022-06-12T11:27:17Z</time>
      </trkpt>
      <trkpt lat="44.48887" lon="6.7445">
        <ele>1344</ele>
        <time>2022-06-12T11:27:18Z</time>
      </trkpt>
      <trkpt lat="44.48889" lon="6.74445">
        <ele>1343.9</ele>
        <time>2022-06-12T11:27:19Z</time>
      </trkpt>
      <trkpt lat="44.48892" lon="6.74439">
        <ele>1344.3</ele>
        <time>2022-06-12T11:27:20Z</time>
      </trkpt>
      <trkpt lat="44.48895" lon="6.74434">
        <ele>1344.7</ele>
        <time>2022-06-12T11:27:21Z</time>
      </trkpt>
      <trkpt lat="44.48897" lon="6.74428">
        <ele>1344.9</ele>
        <time>2022-06-12T11:27:22Z</time>
      </trkpt>
      <trkpt lat="44.489" lon="6.74424">
        <ele>1345</ele>
        <time>2022-06-12T11:27:23Z</time>
      </trkpt>
      <trkpt lat="44.48902" lon="6.74419">
        <ele>1344.9</ele>
        <time>2022-06-12T11:27:24Z</time>
      </trkpt>
      <trkpt lat="44.48905" lon="6.74414">
        <ele>1344.8</ele>
        <time>2022-06-12T11:27:25Z</time>
      </trkpt>
      <trkpt lat="44.48908" lon="6.7441">
        <ele>1344.8</ele>
        <time>2022-06-12T11:27:26Z</time>
      </trkpt>
      <trkpt lat="44.4891" lon="6.74405">
        <ele>1344.9</ele>
        <time>2022-06-12T11:27:27Z</time>
      </trkpt>
      <trkpt lat="44.48912" lon="6.74399">
        <ele>1345</ele>
        <time>2022-06-12T11:27:28Z</time>
      </trkpt>
      <trkpt lat="44.48915" lon="6.74395">
        <ele>1344.9</ele>
        <time>2022-06-12T11:27:29Z</time>
      </trkpt>
      <trkpt lat="44.48917" lon="6.7439">
        <ele>1344.9</ele>
        <time>2022-06-12T11:27:30Z</time>
      </trkpt>
      <trkpt lat="44.4892" lon="6.74385">
        <ele>1345.3</ele>
        <time>2022-06-12T11:27:31Z</time>
      </trkpt>
      <trkpt lat="44.48922" lon="6.7438">
        <ele>1345.8</ele>
        <time>2022-06-12T11:27:32Z</time>
      </trkpt>
      <trkpt lat="44.48925" lon="6.74376">
        <ele>1346.1</ele>
        <time>2022-06-12T11:27:33Z</time>
      </trkpt>
      <trkpt lat="44.48928" lon="6.74372">
        <ele>1346.4</ele>
        <time>2022-06-12T11:27:34Z</time>
      </trkpt>
      <trkpt lat="44.48931" lon="6.74368">
        <ele>1346.7</ele>
        <time>2022-06-12T11:27:35Z</time>
      </trkpt>
      <trkpt lat="44.48934" lon="6.74365">
        <ele>1346.8</ele>
        <time>2022-06-12T11:27:36Z</time>
      </trkpt>
      <trkpt lat="44.48938" lon="6.74362">
        <ele>1346.8</ele>
        <time>2022-06-12T11:27:37Z</time>
      </trkpt>
      <trkpt lat="44.48941" lon="6.74358">
        <ele>1347.1</ele>
        <time>2022-06-12T11:27:38Z</time>
      </trkpt>
      <trkpt lat="44.48945" lon="6.74355">
        <ele>1347.4</ele>
        <time>2022-06-12T11:27:39Z</time>
      </trkpt>
      <trkpt lat="44.48948" lon="6.74351">
        <ele>1348</ele>
        <time>2022-06-12T11:27:40Z</time>
      </trkpt>
      <trkpt lat="44.48952" lon="6.74347">
        <ele>1348.5</ele>
        <time>2022-06-12T11:27:41Z</time>
      </trkpt>
      <trkpt lat="44.48956" lon="6.74345">
        <ele>1348.8</ele>
        <time>2022-06-12T11:27:42Z</time>
      </trkpt>
      <trkpt lat="44.48959" lon="6.74342">
        <ele>1349.2</ele>
        <time>2022-06-12T11:27:43Z</time>
      </trkpt>
      <trkpt lat="44.48963" lon="6.7434">
        <ele>1349.3</ele>
        <time>2022-06-12T11:27:44Z</time>
      </trkpt>
      <trkpt lat="44.48968" lon="6.74337">
        <ele>1349.5</ele>
        <time>2022-06-12T11:27:45Z</time>
      </trkpt>
      <trkpt lat="44.48972" lon="6.74336">
        <ele>1349.4</ele>
        <time>2022-06-12T11:27:46Z</time>
      </trkpt>
      <trkpt lat="44.48976" lon="6.74335">
        <ele>1349.6</ele>
        <time>2022-06-12T11:27:47Z</time>
      </trkpt>
      <trkpt lat="44.4898" lon="6.74333">
        <ele>1349.8</ele>
        <time>2022-06-12T11:27:48Z</time>
      </trkpt>
      <trkpt lat="44.48984" lon="6.74332">
        <ele>1350</ele>
        <time>2022-06-12T11:27:49Z</time>
      </trkpt>
      <trkpt lat="44.48988" lon="6.74331">
        <ele>1350.2</ele>
        <time>2022-06-12T11:27:50Z</time>
      </trkpt>
      <trkpt lat="44.48991" lon="6.7433">
        <ele>1350.2</ele>
        <time>2022-06-12T11:27:51Z</time>
      </trkpt>
      <trkpt lat="44.48995" lon="6.7433">
        <ele>1350.3</ele>
        <time>2022-06-12T11:27:52Z</time>
      </trkpt>
      <trkpt lat="44.48999" lon="6.74329">
        <ele>1350.2</ele>
        <time>2022-06-12T11:27:53Z</time>
      </trkpt>
      <trkpt lat="44.49003" lon="6.74328">
        <ele>1350.4</ele>
        <time>2022-06-12T11:27:54Z</time>
      </trkpt>
      <trkpt lat="44.49007" lon="6.74327">
        <ele>1350.7</ele>
        <time>2022-06-12T11:27:55Z</time>
      </trkpt>
      <trkpt lat="44.49011" lon="6.74327">
        <ele>1350.9</ele>
        <time>2022-06-12T11:27:56Z</time>
      </trkpt>
      <trkpt lat="44.49015" lon="6.74325">
        <ele>1351.2</ele>
        <time>2022-06-12T11:27:57Z</time>
      </trkpt>
      <trkpt lat="44.49019" lon="6.74325">
        <ele>1351.2</ele>
        <time>2022-06-12T11:27:58Z</time>
      </trkpt>
      <trkpt lat="44.49022" lon="6.74324">
        <ele>1351.4</ele>
        <time>2022-06-12T11:27:59Z</time>
      </trkpt>
      <trkpt lat="44.49026" lon="6.74323">
        <ele>1351.7</ele>
        <time>2022-06-12T11:28:00Z</time>
      </trkpt>
      <trkpt lat="44.4903" lon="6.74321">
        <ele>1352</ele>
        <time>2022-06-12T11:28:01Z</time>
      </trkpt>
      <trkpt lat="44.49034" lon="6.74318">
        <ele>1352.4</ele>
        <time>2022-06-12T11:28:02Z</time>
      </trkpt>
      <trkpt lat="44.49038" lon="6.74316">
        <ele>1352.7</ele>
        <time>2022-06-12T11:28:03Z</time>
      </trkpt>
      <trkpt lat="44.49042" lon="6.74315">
        <ele>1352.9</ele>
        <time>2022-06-12T11:28:04Z</time>
      </trkpt>
      <trkpt lat="44.49046" lon="6.74312">
        <ele>1353.2</ele>
        <time>2022-06-12T11:28:05Z</time>
      </trkpt>
      <trkpt lat="44.4905" lon="6.7431">
        <ele>1353.5</ele>
        <time>2022-06-12T11:28:06Z</time>
      </trkpt>
      <trkpt lat="44.49054" lon="6.74308">
        <ele>1353.7</ele>
        <time>2022-06-12T11:28:07Z</time>
      </trkpt>
      <trkpt lat="44.49058" lon="6.74306">
        <ele>1353.7</ele>
        <time>2022-06-12T11:28:08Z</time>
      </trkpt>
      <trkpt lat="44.49061" lon="6.74304">
        <ele>1353.9</ele>
        <time>2022-06-12T11:28:09Z</time>
      </trkpt>
      <trkpt lat="44.49065" lon="6.74301">
        <ele>1354.1</ele>
        <time>2022-06-12T11:28:10Z</time>
      </trkpt>
      <trkpt lat="44.49068" lon="6.74297">
        <ele>1354.4</ele>
        <time>2022-06-12T11:28:11Z</time>
      </trkpt>
      <trkpt lat="44.49071" lon="6.74295">
        <ele>1354.4</ele>
        <time>2022-06-12T11:28:12Z</time>
      </trkpt>
      <trkpt lat="44.49075" lon="6.74291">
        <ele>1354.5</ele>
        <time>2022-06-12T11:28:13Z</time>
      </trkpt>
      <trkpt lat="44.49078" lon="6.74288">
        <ele>1354.5</ele>
        <time>2022-06-12T11:28:14Z</time>
      </trkpt>
      <trkpt lat="44.49081" lon="6.74285">
        <ele>1354.5</ele>
        <time>2022-06-12T11:28:15Z</time>
      </trkpt>
      <trkpt lat="44.49084" lon="6.74281">
        <ele>1354.5</ele>
        <time>2022-06-12T11:28:16Z</time>
      </trkpt>
      <trkpt lat="44.49087" lon="6.74277">
        <ele>1354.8</ele>
        <time>2022-06-12T11:28:17Z</time>
      </trkpt>
      <trkpt lat="44.4909" lon="6.74274">
        <ele>1355.1</ele>
        <time>2022-06-12T11:28:18Z</time>
      </trkpt>
      <trkpt lat="44.49093" lon="6.7427">
        <ele>1355.5</ele>
        <time>2022-06-12T11:28:19Z</time>
      </trkpt>
      <trkpt lat="44.49096" lon="6.74267">
        <ele>1355.7</ele>
        <time>2022-06-12T11:28:20Z</time>
      </trkpt>
      <trkpt lat="44.49099" lon="6.74263">
        <ele>1355.9</ele>
        <time>2022-06-12T11:28:21Z</time>
      </trkpt>
      <trkpt lat="44.49102" lon="6.74259">
        <ele>1355.9</ele>
        <time>2022-06-12T11:28:22Z</time>
      </trkpt>
      <trkpt lat="44.49106" lon="6.74256">
        <ele>1355.6</ele>
        <time>2022-06-12T11:28:23Z</time>
      </trkpt>
      <trkpt lat="44.49109" lon="6.74252">
        <ele>1355.5</ele>
        <time>2022-06-12T11:28:24Z</time>
      </trkpt>
      <trkpt lat="44.49112" lon="6.74249">
        <ele>1355.3</ele>
        <time>2022-06-12T11:28:25Z</time>
      </trkpt>
      <trkpt lat="44.49115" lon="6.74246">
        <ele>1355.7</ele>
        <time>2022-06-12T11:28:26Z</time>
      </trkpt>
      <trkpt lat="44.49119" lon="6.74242">
        <ele>1356.2</ele>
        <time>2022-06-12T11:28:27Z</time>
      </trkpt>
      <trkpt lat="44.49122" lon="6.74239">
        <ele>1356.5</ele>
        <time>2022-06-12T11:28:28Z</time>
      </trkpt>
      <trkpt lat="44.49126" lon="6.74236">
        <ele>1356.7</ele>
        <time>2022-06-12T11:28:29Z</time>
      </trkpt>
      <trkpt lat="44.49129" lon="6.74233">
        <ele>1356.8</ele>
        <time>2022-06-12T11:28:30Z</time>
      </trkpt>
      <trkpt lat="44.49133" lon="6.74231">
        <ele>1356.6</ele>
        <time>2022-06-12T11:28:31Z</time>
      </trkpt>
      <trkpt lat="44.49137" lon="6.74229">
        <ele>1356.5</ele>
        <time>2022-06-12T11:28:32Z</time>
      </trkpt>
      <trkpt lat="44.4914" lon="6.74227">
        <ele>1356.3</ele>
        <time>2022-06-12T11:28:33Z</time>
      </trkpt>
      <trkpt lat="44.49143" lon="6.74225">
        <ele>1356.4</ele>
        <time>2022-06-12T11:28:34Z</time>
      </trkpt>
      <trkpt lat="44.49147" lon="6.74224">
        <ele>1356.5</ele>
        <time>2022-06-12T11:28:35Z</time>
      </trkpt>
      <trkpt lat="44.4915" lon="6.74222">
        <ele>1356.6</ele>
        <time>2022-06-12T11:28:36Z</time>
      </trkpt>
      <trkpt lat="44.49154" lon="6.74221">
        <ele>1356.8</ele>
        <time>2022-06-12T11:28:37Z</time>
      </trkpt>
      <trkpt lat="44.49157" lon="6.7422">
        <ele>1356.8</ele>
        <time>2022-06-12T11:28:38Z</time>
      </trkpt>
      <trkpt lat="44.49161" lon="6.74219">
        <ele>1356.8</ele>
        <time>2022-06-12T11:28:39Z</time>
      </trkpt>
      <trkpt lat="44.49165" lon="6.74219">
        <ele>1356.7</ele>
        <time>2022-06-12T11:28:40Z</time>
      </trkpt>
      <trkpt lat="44.49168" lon="6.74218">
        <ele>1356.8</ele>
        <time>2022-06-12T11:28:41Z</time>
      </trkpt>
      <trkpt lat="44.49172" lon="6.74218">
        <ele>1356.9</ele>
        <time>2022-06-12T11:28:42Z</time>
      </trkpt>
      <trkpt lat="44.49175" lon="6.74218">
        <ele>1357</ele>
        <time>2022-06-12T11:28:43Z</time>
      </trkpt>
      <trkpt lat="44.49178" lon="6.74218">
        <ele>1357</ele>
        <time>2022-06-12T11:28:44Z</time>
      </trkpt>
      <trkpt lat="44.49182" lon="6.74218">
        <ele>1357.1</ele>
        <time>2022-06-12T11:28:45Z</time>
      </trkpt>
      <trkpt lat="44.49185" lon="6.74218">
        <ele>1357.3</ele>
        <time>2022-06-12T11:28:46Z</time>
      </trkpt>
      <trkpt lat="44.49189" lon="6.74217">
        <ele>1357.5</ele>
        <time>2022-06-12T11:28:47Z</time>
      </trkpt>
      <trkpt lat="44.49192" lon="6.74216">
        <ele>1357.7</ele>
        <time>2022-06-12T11:28:48Z</time>
      </trkpt>
      <trkpt lat="44.49195" lon="6.74216">
        <ele>1357.8</ele>
        <time>2022-06-12T11:28:49Z</time>
      </trkpt>
      <trkpt lat="44.49199" lon="6.74216">
        <ele>1357.9</ele>
        <time>2022-06-12T11:28:50Z</time>
      </trkpt>
      <trkpt lat="44.49202" lon="6.74217">
        <ele>1358.1</ele>
        <time>2022-06-12T11:28:51Z</time>
      </trkpt>
      <trkpt lat="44.49205" lon="6.74217">
        <ele>1358.2</ele>
        <time>2022-06-12T11:28:52Z</time>
      </trkpt>
      <trkpt lat="44.49208" lon="6.74217">
        <ele>1358.4</ele>
        <time>2022-06-12T11:28:53Z</time>
      </trkpt>
      <trkpt lat="44.49211" lon="6.74218">
        <ele>1358.6</ele>
        <time>2022-06-12T11:28:54Z</time>
      </trkpt>
      <trkpt lat="44.49215" lon="6.74217">
        <ele>1358.9</ele>
        <time>2022-06-12T11:28:55Z</time>
      </trkpt>
      <trkpt lat="44.49218" lon="6.74217">
        <ele>1359.1</ele>
        <time>2022-06-12T11:28:56Z</time>
      </trkpt>
      <trkpt lat="44.49222" lon="6.74217">
        <ele>1359.3</ele>
        <time>2022-06-12T11:28:57Z</time>
      </trkpt>
      <trkpt lat="44.49225" lon="6.74217">
        <ele>1359.5</ele>
        <time>2022-06-12T11:28:58Z</time>
      </trkpt>
      <trkpt lat="44.49228" lon="6.74217">
        <ele>1359.6</ele>
        <time>2022-06-12T11:28:59Z</time>
      </trkpt>
      <trkpt lat="44.49232" lon="6.74217">
        <ele>1359.7</ele>
        <time>2022-06-12T11:29:00Z</time>
      </trkpt>
      <trkpt lat="44.49235" lon="6.74217">
        <ele>1359.9</ele>
        <time>2022-06-12T11:29:01Z</time>
      </trkpt>
      <trkpt lat="44.49239" lon="6.74217">
        <ele>1360</ele>
        <time>2022-06-12T11:29:02Z</time>
      </trkpt>
      <trkpt lat="44.49242" lon="6.74216">
        <ele>1360.1</ele>
        <time>2022-06-12T11:29:03Z</time>
      </trkpt>
      <trkpt lat="44.49246" lon="6.74216">
        <ele>1360.3</ele>
        <time>2022-06-12T11:29:04Z</time>
      </trkpt>
      <trkpt lat="44.49249" lon="6.74215">
        <ele>1360.5</ele>
        <time>2022-06-12T11:29:05Z</time>
      </trkpt>
      <trkpt lat="44.49253" lon="6.74215">
        <ele>1360.5</ele>
        <time>2022-06-12T11:29:06Z</time>
      </trkpt>
      <trkpt lat="44.49256" lon="6.74214">
        <ele>1360.4</ele>
        <time>2022-06-12T11:29:07Z</time>
      </trkpt>
      <trkpt lat="44.4926" lon="6.74214">
        <ele>1360.3</ele>
        <time>2022-06-12T11:29:08Z</time>
      </trkpt>
      <trkpt lat="44.49264" lon="6.74214">
        <ele>1360.3</ele>
        <time>2022-06-12T11:29:09Z</time>
      </trkpt>
      <trkpt lat="44.49267" lon="6.74213">
        <ele>1360.2</ele>
        <time>2022-06-12T11:29:10Z</time>
      </trkpt>
      <trkpt lat="44.49271" lon="6.74213">
        <ele>1360.2</ele>
        <time>2022-06-12T11:29:11Z</time>
      </trkpt>
      <trkpt lat="44.49274" lon="6.74212">
        <ele>1360.2</ele>
        <time>2022-06-12T11:29:12Z</time>
      </trkpt>
      <trkpt lat="44.49277" lon="6.74211">
        <ele>1360.2</ele>
        <time>2022-06-12T11:29:13Z</time>
      </trkpt>
      <trkpt lat="44.49281" lon="6.7421">
        <ele>1360.1</ele>
        <time>2022-06-12T11:29:14Z</time>
      </trkpt>
      <trkpt lat="44.49284" lon="6.74209">
        <ele>1360.1</ele>
        <time>2022-06-12T11:29:15Z</time>
      </trkpt>
      <trkpt lat="44.49287" lon="6.74208">
        <ele>1360</ele>
        <time>2022-06-12T11:29:16Z</time>
      </trkpt>
      <trkpt lat="44.49291" lon="6.74207">
        <ele>1360</ele>
        <time>2022-06-12T11:29:17Z</time>
      </trkpt>
      <trkpt lat="44.49294" lon="6.74206">
        <ele>1360</ele>
        <time>2022-06-12T11:29:18Z</time>
      </trkpt>
      <trkpt lat="44.49298" lon="6.74204">
        <ele>1360.1</ele>
        <time>2022-06-12T11:29:19Z</time>
      </trkpt>
      <trkpt lat="44.49301" lon="6.74202">
        <ele>1360.2</ele>
        <time>2022-06-12T11:29:20Z</time>
      </trkpt>
      <trkpt lat="44.49305" lon="6.742">
        <ele>1360.3</ele>
        <time>2022-06-12T11:29:21Z</time>
      </trkpt>
      <trkpt lat="44.49308" lon="6.74198">
        <ele>1360.4</ele>
        <time>2022-06-12T11:29:22Z</time>
      </trkpt>
      <trkpt lat="44.49312" lon="6.74195">
        <ele>1360.4</ele>
        <time>2022-06-12T11:29:23Z</time>
      </trkpt>
      <trkpt lat="44.49316" lon="6.74193">
        <ele>1360.4</ele>
        <time>2022-06-12T11:29:24Z</time>
      </trkpt>
      <trkpt lat="44.49319" lon="6.74191">
        <ele>1360.5</ele>
        <time>2022-06-12T11:29:25Z</time>
      </trkpt>
      <trkpt lat="44.49322" lon="6.74189">
        <ele>1360.6</ele>
        <time>2022-06-12T11:29:26Z</time>
      </trkpt>
      <trkpt lat="44.49326" lon="6.74186">
        <ele>1360.7</ele>
        <time>2022-06-12T11:29:27Z</time>
      </trkpt>
      <trkpt lat="44.49329" lon="6.74184">
        <ele>1360.8</ele>
        <time>2022-06-12T11:29:28Z</time>
      </trkpt>
      <trkpt lat="44.49333" lon="6.74181">
        <ele>1360.9</ele>
        <time>2022-06-12T11:29:29Z</time>
      </trkpt>
      <trkpt lat="44.49336" lon="6.74179">
        <ele>1361</ele>
        <time>2022-06-12T11:29:30Z</time>
      </trkpt>
      <trkpt lat="44.4934" lon="6.74177">
        <ele>1361.1</ele>
        <time>2022-06-12T11:29:31Z</time>
      </trkpt>
      <trkpt lat="44.49343" lon="6.74175">
        <ele>1361.1</ele>
        <time>2022-06-12T11:29:32Z</time>
      </trkpt>
      <trkpt lat="44.49347" lon="6.74173">
        <ele>1361.1</ele>
        <time>2022-06-12T11:29:33Z</time>
      </trkpt>
      <trkpt lat="44.4935" lon="6.74171">
        <ele>1361.2</ele>
        <time>2022-06-12T11:29:34Z</time>
      </trkpt>
      <trkpt lat="44.49354" lon="6.74169">
        <ele>1361.2</ele>
        <time>2022-06-12T11:29:35Z</time>
      </trkpt>
      <trkpt lat="44.49357" lon="6.74167">
        <ele>1361.2</ele>
        <time>2022-06-12T11:29:36Z</time>
      </trkpt>
      <trkpt lat="44.49361" lon="6.74165">
        <ele>1361.3</ele>
        <time>2022-06-12T11:29:37Z</time>
      </trkpt>
      <trkpt lat="44.49365" lon="6.74163">
        <ele>1361.3</ele>
        <time>2022-06-12T11:29:38Z</time>
      </trkpt>
      <trkpt lat="44.49369" lon="6.74161">
        <ele>1361.3</ele>
        <time>2022-06-12T11:29:39Z</time>
      </trkpt>
      <trkpt lat="44.49373" lon="6.74158">
        <ele>1361.4</ele>
        <time>2022-06-12T11:29:40Z</time>
      </trkpt>
      <trkpt lat="44.49376" lon="6.74157">
        <ele>1361.4</ele>
        <time>2022-06-12T11:29:41Z</time>
      </trkpt>
      <trkpt lat="44.4938" lon="6.74155">
        <ele>1361.4</ele>
        <time>2022-06-12T11:29:42Z</time>
      </trkpt>
      <trkpt lat="44.49384" lon="6.74152">
        <ele>1361.5</ele>
        <time>2022-06-12T11:29:43Z</time>
      </trkpt>
      <trkpt lat="44.49388" lon="6.74149">
        <ele>1361.6</ele>
        <time>2022-06-12T11:29:44Z</time>
      </trkpt>
      <trkpt lat="44.49392" lon="6.74147">
        <ele>1361.8</ele>
        <time>2022-06-12T11:29:45Z</time>
      </trkpt>
      <trkpt lat="44.49396" lon="6.74145">
        <ele>1361.9</ele>
        <time>2022-06-12T11:29:46Z</time>
      </trkpt>
      <trkpt lat="44.494" lon="6.74143">
        <ele>1362</ele>
        <time>2022-06-12T11:29:47Z</time>
      </trkpt>
      <trkpt lat="44.49404" lon="6.74142">
        <ele>1362</ele>
        <time>2022-06-12T11:29:48Z</time>
      </trkpt>
      <trkpt lat="44.49408" lon="6.74141">
        <ele>1362.1</ele>
        <time>2022-06-12T11:29:49Z</time>
      </trkpt>
      <trkpt lat="44.49413" lon="6.74139">
        <ele>1362.1</ele>
        <time>2022-06-12T11:29:50Z</time>
      </trkpt>
      <trkpt lat="44.49417" lon="6.74137">
        <ele>1362.2</ele>
        <time>2022-06-12T11:29:51Z</time>
      </trkpt>
      <trkpt lat="44.49421" lon="6.74136">
        <ele>1362.2</ele>
        <time>2022-06-12T11:29:52Z</time>
      </trkpt>
      <trkpt lat="44.49426" lon="6.74134">
        <ele>1362</ele>
        <time>2022-06-12T11:29:53Z</time>
      </trkpt>
      <trkpt lat="44.49431" lon="6.74133">
        <ele>1361.9</ele>
        <time>2022-06-12T11:29:54Z</time>
      </trkpt>
      <trkpt lat="44.49435" lon="6.74131">
        <ele>1361.8</ele>
        <time>2022-06-12T11:29:55Z</time>
      </trkpt>
      <trkpt lat="44.4944" lon="6.7413">
        <ele>1361.6</ele>
        <time>2022-06-12T11:29:56Z</time>
      </trkpt>
      <trkpt lat="44.49445" lon="6.74129">
        <ele>1361.4</ele>
        <time>2022-06-12T11:29:57Z</time>
      </trkpt>
      <trkpt lat="44.4945" lon="6.74127">
        <ele>1361.4</ele>
        <time>2022-06-12T11:29:58Z</time>
      </trkpt>
      <trkpt lat="44.49454" lon="6.74125">
        <ele>1361.4</ele>
        <time>2022-06-12T11:29:59Z</time>
      </trkpt>
      <trkpt lat="44.49459" lon="6.74124">
        <ele>1361.4</ele>
        <time>2022-06-12T11:30:00Z</time>
      </trkpt>
      <trkpt lat="44.49463" lon="6.74122">
        <ele>1361.4</ele>
        <time>2022-06-12T11:30:01Z</time>
      </trkpt>
      <trkpt lat="44.49468" lon="6.7412">
        <ele>1361.3</ele>
        <time>2022-06-12T11:30:02Z</time>
      </trkpt>
      <trkpt lat="44.49473" lon="6.74119">
        <ele>1361.1</ele>
        <time>2022-06-12T11:30:03Z</time>
      </trkpt>
      <trkpt lat="44.49478" lon="6.74117">
        <ele>1361.1</ele>
        <time>2022-06-12T11:30:04Z</time>
      </trkpt>
      <trkpt lat="44.49483" lon="6.74116">
        <ele>1361.1</ele>
        <time>2022-06-12T11:30:05Z</time>
      </trkpt>
      <trkpt lat="44.49487" lon="6.74115">
        <ele>1361.1</ele>
        <time>2022-06-12T11:30:06Z</time>
      </trkpt>
      <trkpt lat="44.49492" lon="6.74113">
        <ele>1361.1</ele>
        <time>2022-06-12T11:30:07Z</time>
      </trkpt>
      <trkpt lat="44.49497" lon="6.74112">
        <ele>1361</ele>
        <time>2022-06-12T11:30:08Z</time>
      </trkpt>
      <trkpt lat="44.49502" lon="6.74111">
        <ele>1361</ele>
        <time>2022-06-12T11:30:09Z</time>
      </trkpt>
      <trkpt lat="44.49507" lon="6.7411">
        <ele>1361.2</ele>
        <time>2022-06-12T11:30:10Z</time>
      </trkpt>
      <trkpt lat="44.49513" lon="6.74108">
        <ele>1361.4</ele>
        <time>2022-06-12T11:30:11Z</time>
      </trkpt>
      <trkpt lat="44.49518" lon="6.74107">
        <ele>1361.7</ele>
        <time>2022-06-12T11:30:12Z</time>
      </trkpt>
      <trkpt lat="44.49523" lon="6.74105">
        <ele>1361.9</ele>
        <time>2022-06-12T11:30:13Z</time>
      </trkpt>
      <trkpt lat="44.49528" lon="6.74103">
        <ele>1362.2</ele>
        <time>2022-06-12T11:30:14Z</time>
      </trkpt>
      <trkpt lat="44.49534" lon="6.74102">
        <ele>1362.3</ele>
        <time>2022-06-12T11:30:15Z</time>
      </trkpt>
      <trkpt lat="44.49539" lon="6.741">
        <ele>1362.4</ele>
        <time>2022-06-12T11:30:16Z</time>
      </trkpt>
      <trkpt lat="44.49545" lon="6.74098">
        <ele>1362.6</ele>
        <time>2022-06-12T11:30:17Z</time>
      </trkpt>
      <trkpt lat="44.4955" lon="6.74096">
        <ele>1362.7</ele>
        <time>2022-06-12T11:30:18Z</time>
      </trkpt>
      <trkpt lat="44.49556" lon="6.74094">
        <ele>1362.8</ele>
        <time>2022-06-12T11:30:19Z</time>
      </trkpt>
      <trkpt lat="44.49561" lon="6.74092">
        <ele>1363</ele>
        <time>2022-06-12T11:30:20Z</time>
      </trkpt>
      <trkpt lat="44.49566" lon="6.74091">
        <ele>1363.1</ele>
        <time>2022-06-12T11:30:21Z</time>
      </trkpt>
      <trkpt lat="44.49572" lon="6.74089">
        <ele>1363.3</ele>
        <time>2022-06-12T11:30:22Z</time>
      </trkpt>
      <trkpt lat="44.49577" lon="6.74087">
        <ele>1363.5</ele>
        <time>2022-06-12T11:30:23Z</time>
      </trkpt>
      <trkpt lat="44.49582" lon="6.74086">
        <ele>1363.7</ele>
        <time>2022-06-12T11:30:24Z</time>
      </trkpt>
      <trkpt lat="44.49587" lon="6.74084">
        <ele>1363.6</ele>
        <time>2022-06-12T11:30:25Z</time>
      </trkpt>
      <trkpt lat="44.49592" lon="6.74083">
        <ele>1363.5</ele>
        <time>2022-06-12T11:30:26Z</time>
      </trkpt>
      <trkpt lat="44.49597" lon="6.74081">
        <ele>1363.4</ele>
        <time>2022-06-12T11:30:27Z</time>
      </trkpt>
      <trkpt lat="44.49602" lon="6.74079">
        <ele>1363.3</ele>
        <time>2022-06-12T11:30:28Z</time>
      </trkpt>
      <trkpt lat="44.49607" lon="6.74076">
        <ele>1363.3</ele>
        <time>2022-06-12T11:30:29Z</time>
      </trkpt>
      <trkpt lat="44.49612" lon="6.74074">
        <ele>1363.4</ele>
        <time>2022-06-12T11:30:30Z</time>
      </trkpt>
      <trkpt lat="44.49617" lon="6.74071">
        <ele>1363.6</ele>
        <time>2022-06-12T11:30:31Z</time>
      </trkpt>
      <trkpt lat="44.49622" lon="6.74068">
        <ele>1363.8</ele>
        <time>2022-06-12T11:30:32Z</time>
      </trkpt>
      <trkpt lat="44.49627" lon="6.74065">
        <ele>1364.1</ele>
        <time>2022-06-12T11:30:33Z</time>
      </trkpt>
      <trkpt lat="44.49631" lon="6.74062">
        <ele>1364.4</ele>
        <time>2022-06-12T11:30:34Z</time>
      </trkpt>
      <trkpt lat="44.49636" lon="6.74058">
        <ele>1364.7</ele>
        <time>2022-06-12T11:30:35Z</time>
      </trkpt>
      <trkpt lat="44.49641" lon="6.74055">
        <ele>1365</ele>
        <time>2022-06-12T11:30:36Z</time>
      </trkpt>
      <trkpt lat="44.49646" lon="6.74051">
        <ele>1365.2</ele>
        <time>2022-06-12T11:30:37Z</time>
      </trkpt>
      <trkpt lat="44.49651" lon="6.74048">
        <ele>1365.4</ele>
        <time>2022-06-12T11:30:38Z</time>
      </trkpt>
      <trkpt lat="44.49655" lon="6.74045">
        <ele>1365.6</ele>
        <time>2022-06-12T11:30:39Z</time>
      </trkpt>
      <trkpt lat="44.4966" lon="6.74041">
        <ele>1366</ele>
        <time>2022-06-12T11:30:40Z</time>
      </trkpt>
      <trkpt lat="44.49665" lon="6.74037">
        <ele>1366.5</ele>
        <time>2022-06-12T11:30:41Z</time>
      </trkpt>
      <trkpt lat="44.49669" lon="6.74033">
        <ele>1367</ele>
        <time>2022-06-12T11:30:42Z</time>
      </trkpt>
      <trkpt lat="44.49674" lon="6.74029">
        <ele>1367.3</ele>
        <time>2022-06-12T11:30:43Z</time>
      </trkpt>
      <trkpt lat="44.49679" lon="6.74025">
        <ele>1367.6</ele>
        <time>2022-06-12T11:30:44Z</time>
      </trkpt>
      <trkpt lat="44.49684" lon="6.74022">
        <ele>1367.9</ele>
        <time>2022-06-12T11:30:45Z</time>
      </trkpt>
      <trkpt lat="44.49689" lon="6.74018">
        <ele>1368.3</ele>
        <time>2022-06-12T11:30:46Z</time>
      </trkpt>
      <trkpt lat="44.49693" lon="6.74014">
        <ele>1368.7</ele>
        <time>2022-06-12T11:30:47Z</time>
      </trkpt>
      <trkpt lat="44.49698" lon="6.7401">
        <ele>1369.2</ele>
        <time>2022-06-12T11:30:48Z</time>
      </trkpt>
      <trkpt lat="44.49703" lon="6.74006">
        <ele>1369.8</ele>
        <time>2022-06-12T11:30:49Z</time>
      </trkpt>
      <trkpt lat="44.49708" lon="6.74002">
        <ele>1370.2</ele>
        <time>2022-06-12T11:30:50Z</time>
      </trkpt>
      <trkpt lat="44.49712" lon="6.73998">
        <ele>1370.6</ele>
        <time>2022-06-12T11:30:51Z</time>
      </trkpt>
      <trkpt lat="44.49717" lon="6.73995">
        <ele>1370.9</ele>
        <time>2022-06-12T11:30:52Z</time>
      </trkpt>
      <trkpt lat="44.49722" lon="6.73991">
        <ele>1371</ele>
        <time>2022-06-12T11:30:53Z</time>
      </trkpt>
      <trkpt lat="44.49726" lon="6.73988">
        <ele>1371.2</ele>
        <time>2022-06-12T11:30:54Z</time>
      </trkpt>
      <trkpt lat="44.49731" lon="6.73984">
        <ele>1371.4</ele>
        <time>2022-06-12T11:30:55Z</time>
      </trkpt>
      <trkpt lat="44.49736" lon="6.73981">
        <ele>1371.6</ele>
        <time>2022-06-12T11:30:56Z</time>
      </trkpt>
      <trkpt lat="44.4974" lon="6.73977">
        <ele>1371.9</ele>
        <time>2022-06-12T11:30:57Z</time>
      </trkpt>
      <trkpt lat="44.49745" lon="6.73973">
        <ele>1372.1</ele>
        <time>2022-06-12T11:30:58Z</time>
      </trkpt>
      <trkpt lat="44.4975" lon="6.7397">
        <ele>1372.3</ele>
        <time>2022-06-12T11:30:59Z</time>
      </trkpt>
      <trkpt lat="44.49754" lon="6.73967">
        <ele>1372.7</ele>
        <time>2022-06-12T11:31:00Z</time>
      </trkpt>
      <trkpt lat="44.49759" lon="6.73964">
        <ele>1373</ele>
        <time>2022-06-12T11:31:01Z</time>
      </trkpt>
      <trkpt lat="44.49764" lon="6.7396">
        <ele>1373.3</ele>
        <time>2022-06-12T11:31:02Z</time>
      </trkpt>
      <trkpt lat="44.49769" lon="6.73957">
        <ele>1373.5</ele>
        <time>2022-06-12T11:31:03Z</time>
      </trkpt>
      <trkpt lat="44.49773" lon="6.73954">
        <ele>1373.5</ele>
        <time>2022-06-12T11:31:04Z</time>
      </trkpt>
      <trkpt lat="44.49778" lon="6.73951">
        <ele>1373.5</ele>
        <time>2022-06-12T11:31:05Z</time>
      </trkpt>
      <trkpt lat="44.49783" lon="6.73949">
        <ele>1373.7</ele>
        <time>2022-06-12T11:31:06Z</time>
      </trkpt>
      <trkpt lat="44.49788" lon="6.73946">
        <ele>1373.9</ele>
        <time>2022-06-12T11:31:07Z</time>
      </trkpt>
      <trkpt lat="44.49793" lon="6.73943">
        <ele>1374.2</ele>
        <time>2022-06-12T11:31:08Z</time>
      </trkpt>
      <trkpt lat="44.49798" lon="6.7394">
        <ele>1374.5</ele>
        <time>2022-06-12T11:31:09Z</time>
      </trkpt>
      <trkpt lat="44.49803" lon="6.73938">
        <ele>1374.8</ele>
        <time>2022-06-12T11:31:10Z</time>
      </trkpt>
      <trkpt lat="44.49808" lon="6.73935">
        <ele>1374.9</ele>
        <time>2022-06-12T11:31:11Z</time>
      </trkpt>
      <trkpt lat="44.49813" lon="6.73933">
        <ele>1375</ele>
        <time>2022-06-12T11:31:12Z</time>
      </trkpt>
      <trkpt lat="44.49818" lon="6.7393">
        <ele>1375.1</ele>
        <time>2022-06-12T11:31:13Z</time>
      </trkpt>
      <trkpt lat="44.49824" lon="6.73929">
        <ele>1375</ele>
        <time>2022-06-12T11:31:14Z</time>
      </trkpt>
      <trkpt lat="44.4983" lon="6.73927">
        <ele>1375</ele>
        <time>2022-06-12T11:31:15Z</time>
      </trkpt>
      <trkpt lat="44.49836" lon="6.73926">
        <ele>1375</ele>
        <time>2022-06-12T11:31:16Z</time>
      </trkpt>
      <trkpt lat="44.49842" lon="6.73925">
        <ele>1374.9</ele>
        <time>2022-06-12T11:31:17Z</time>
      </trkpt>
      <trkpt lat="44.49849" lon="6.73924">
        <ele>1374.8</ele>
        <time>2022-06-12T11:31:18Z</time>
      </trkpt>
      <trkpt lat="44.49854" lon="6.73925">
        <ele>1374.6</ele>
        <time>2022-06-12T11:31:19Z</time>
      </trkpt>
      <trkpt lat="44.4986" lon="6.73925">
        <ele>1374.4</ele>
        <time>2022-06-12T11:31:20Z</time>
      </trkpt>
      <trkpt lat="44.49866" lon="6.73926">
        <ele>1374.6</ele>
        <time>2022-06-12T11:31:21Z</time>
      </trkpt>
      <trkpt lat="44.49872" lon="6.73927">
        <ele>1374.8</ele>
        <time>2022-06-12T11:31:22Z</time>
      </trkpt>
      <trkpt lat="44.49878" lon="6.73928">
        <ele>1374.9</ele>
        <time>2022-06-12T11:31:23Z</time>
      </trkpt>
      <trkpt lat="44.49884" lon="6.73929">
        <ele>1375</ele>
        <time>2022-06-12T11:31:24Z</time>
      </trkpt>
      <trkpt lat="44.4989" lon="6.73931">
        <ele>1375</ele>
        <time>2022-06-12T11:31:25Z</time>
      </trkpt>
      <trkpt lat="44.49895" lon="6.73933">
        <ele>1375.2</ele>
        <time>2022-06-12T11:31:26Z</time>
      </trkpt>
      <trkpt lat="44.49901" lon="6.73934">
        <ele>1375.4</ele>
        <time>2022-06-12T11:31:27Z</time>
      </trkpt>
      <trkpt lat="44.49907" lon="6.73936">
        <ele>1375.6</ele>
        <time>2022-06-12T11:31:28Z</time>
      </trkpt>
      <trkpt lat="44.49912" lon="6.73937">
        <ele>1375.6</ele>
        <time>2022-06-12T11:31:29Z</time>
      </trkpt>
      <trkpt lat="44.49918" lon="6.73939">
        <ele>1375.5</ele>
        <time>2022-06-12T11:31:30Z</time>
      </trkpt>
      <trkpt lat="44.49923" lon="6.73941">
        <ele>1375.6</ele>
        <time>2022-06-12T11:31:31Z</time>
      </trkpt>
      <trkpt lat="44.49929" lon="6.73942">
        <ele>1375.5</ele>
        <time>2022-06-12T11:31:32Z</time>
      </trkpt>
      <trkpt lat="44.49934" lon="6.73945">
        <ele>1375.2</ele>
        <time>2022-06-12T11:31:33Z</time>
      </trkpt>
      <trkpt lat="44.4994" lon="6.73947">
        <ele>1375.4</ele>
        <time>2022-06-12T11:31:34Z</time>
      </trkpt>
      <trkpt lat="44.49945" lon="6.7395">
        <ele>1375.4</ele>
        <time>2022-06-12T11:31:35Z</time>
      </trkpt>
      <trkpt lat="44.4995" lon="6.73954">
        <ele>1375.6</ele>
        <time>2022-06-12T11:31:36Z</time>
      </trkpt>
      <trkpt lat="44.49955" lon="6.73958">
        <ele>1375.6</ele>
        <time>2022-06-12T11:31:37Z</time>
      </trkpt>
      <trkpt lat="44.4996" lon="6.73961">
        <ele>1375.5</ele>
        <time>2022-06-12T11:31:38Z</time>
      </trkpt>
      <trkpt lat="44.49965" lon="6.73965">
        <ele>1375.1</ele>
        <time>2022-06-12T11:31:39Z</time>
      </trkpt>
      <trkpt lat="44.49969" lon="6.73969">
        <ele>1374.5</ele>
        <time>2022-06-12T11:31:40Z</time>
      </trkpt>
      <trkpt lat="44.49974" lon="6.73973">
        <ele>1374.1</ele>
        <time>2022-06-12T11:31:41Z</time>
      </trkpt>
      <trkpt lat="44.49979" lon="6.73977">
        <ele>1374.1</ele>
        <time>2022-06-12T11:31:42Z</time>
      </trkpt>
      <trkpt lat="44.49983" lon="6.73981">
        <ele>1374.1</ele>
        <time>2022-06-12T11:31:43Z</time>
      </trkpt>
      <trkpt lat="44.49988" lon="6.73986">
        <ele>1373.9</ele>
        <time>2022-06-12T11:31:44Z</time>
      </trkpt>
      <trkpt lat="44.49992" lon="6.7399">
        <ele>1373.8</ele>
        <time>2022-06-12T11:31:45Z</time>
      </trkpt>
      <trkpt lat="44.49997" lon="6.73994">
        <ele>1373.6</ele>
        <time>2022-06-12T11:31:46Z</time>
      </trkpt>
      <trkpt lat="44.50001" lon="6.73998">
        <ele>1373.5</ele>
        <time>2022-06-12T11:31:47Z</time>
      </trkpt>
      <trkpt lat="44.50006" lon="6.74002">
        <ele>1373.8</ele>
        <time>2022-06-12T11:31:48Z</time>
      </trkpt>
      <trkpt lat="44.50011" lon="6.74006">
        <ele>1374</ele>
        <time>2022-06-12T11:31:49Z</time>
      </trkpt>
      <trkpt lat="44.50015" lon="6.7401">
        <ele>1374.1</ele>
        <time>2022-06-12T11:31:50Z</time>
      </trkpt>
      <trkpt lat="44.5002" lon="6.74014">
        <ele>1374.1</ele>
        <time>2022-06-12T11:31:51Z</time>
      </trkpt>
      <trkpt lat="44.50025" lon="6.74017">
        <ele>1373.9</ele>
        <time>2022-06-12T11:31:52Z</time>
      </trkpt>
      <trkpt lat="44.5003" lon="6.74021">
        <ele>1373.9</ele>
        <time>2022-06-12T11:31:53Z</time>
      </trkpt>
      <trkpt lat="44.50035" lon="6.74024">
        <ele>1374.2</ele>
        <time>2022-06-12T11:31:54Z</time>
      </trkpt>
      <trkpt lat="44.5004" lon="6.74028">
        <ele>1374.2</ele>
        <time>2022-06-12T11:31:55Z</time>
      </trkpt>
      <trkpt lat="44.50045" lon="6.74032">
        <ele>1374.5</ele>
        <time>2022-06-12T11:31:56Z</time>
      </trkpt>
      <trkpt lat="44.5005" lon="6.74036">
        <ele>1374.6</ele>
        <time>2022-06-12T11:31:57Z</time>
      </trkpt>
      <trkpt lat="44.50055" lon="6.74039">
        <ele>1374.5</ele>
        <time>2022-06-12T11:31:58Z</time>
      </trkpt>
      <trkpt lat="44.5006" lon="6.74043">
        <ele>1374.3</ele>
        <time>2022-06-12T11:31:59Z</time>
      </trkpt>
      <trkpt lat="44.50065" lon="6.74046">
        <ele>1374</ele>
        <time>2022-06-12T11:32:00Z</time>
      </trkpt>
      <trkpt lat="44.50069" lon="6.74049">
        <ele>1373.8</ele>
        <time>2022-06-12T11:32:01Z</time>
      </trkpt>
      <trkpt lat="44.50075" lon="6.74051">
        <ele>1373.6</ele>
        <time>2022-06-12T11:32:02Z</time>
      </trkpt>
      <trkpt lat="44.5008" lon="6.74053">
        <ele>1373.5</ele>
        <time>2022-06-12T11:32:03Z</time>
      </trkpt>
      <trkpt lat="44.50085" lon="6.74055">
        <ele>1373.3</ele>
        <time>2022-06-12T11:32:04Z</time>
      </trkpt>
      <trkpt lat="44.50091" lon="6.74057">
        <ele>1373.4</ele>
        <time>2022-06-12T11:32:05Z</time>
      </trkpt>
      <trkpt lat="44.50096" lon="6.74058">
        <ele>1373.7</ele>
        <time>2022-06-12T11:32:06Z</time>
      </trkpt>
      <trkpt lat="44.50102" lon="6.74059">
        <ele>1373.9</ele>
        <time>2022-06-12T11:32:07Z</time>
      </trkpt>
      <trkpt lat="44.50107" lon="6.74061">
        <ele>1374</ele>
        <time>2022-06-12T11:32:08Z</time>
      </trkpt>
      <trkpt lat="44.50112" lon="6.74062">
        <ele>1374.1</ele>
        <time>2022-06-12T11:32:09Z</time>
      </trkpt>
      <trkpt lat="44.50118" lon="6.74063">
        <ele>1374.2</ele>
        <time>2022-06-12T11:32:10Z</time>
      </trkpt>
      <trkpt lat="44.50123" lon="6.74063">
        <ele>1374.3</ele>
        <time>2022-06-12T11:32:11Z</time>
      </trkpt>
      <trkpt lat="44.50128" lon="6.74064">
        <ele>1374.5</ele>
        <time>2022-06-12T11:32:12Z</time>
      </trkpt>
      <trkpt lat="44.50134" lon="6.74064">
        <ele>1374.7</ele>
        <time>2022-06-12T11:32:13Z</time>
      </trkpt>
      <trkpt lat="44.50139" lon="6.74064">
        <ele>1374.8</ele>
        <time>2022-06-12T11:32:14Z</time>
      </trkpt>
      <trkpt lat="44.50144" lon="6.74064">
        <ele>1375</ele>
        <time>2022-06-12T11:32:15Z</time>
      </trkpt>
      <trkpt lat="44.5015" lon="6.74064">
        <ele>1375.2</ele>
        <time>2022-06-12T11:32:16Z</time>
      </trkpt>
      <trkpt lat="44.50155" lon="6.74063">
        <ele>1375.5</ele>
        <time>2022-06-12T11:32:17Z</time>
      </trkpt>
      <trkpt lat="44.50161" lon="6.74063">
        <ele>1375.8</ele>
        <time>2022-06-12T11:32:18Z</time>
      </trkpt>
      <trkpt lat="44.50166" lon="6.74062">
        <ele>1376</ele>
        <time>2022-06-12T11:32:19Z</time>
      </trkpt>
      <trkpt lat="44.50171" lon="6.74062">
        <ele>1376.2</ele>
        <time>2022-06-12T11:32:20Z</time>
      </trkpt>
      <trkpt lat="44.50177" lon="6.74062">
        <ele>1376.3</ele>
        <time>2022-06-12T11:32:21Z</time>
      </trkpt>
      <trkpt lat="44.50182" lon="6.74062">
        <ele>1376.3</ele>
        <time>2022-06-12T11:32:22Z</time>
      </trkpt>
      <trkpt lat="44.50187" lon="6.74063">
        <ele>1376.4</ele>
        <time>2022-06-12T11:32:23Z</time>
      </trkpt>
      <trkpt lat="44.50193" lon="6.74063">
        <ele>1376.4</ele>
        <time>2022-06-12T11:32:24Z</time>
      </trkpt>
      <trkpt lat="44.50198" lon="6.74064">
        <ele>1376.6</ele>
        <time>2022-06-12T11:32:25Z</time>
      </trkpt>
      <trkpt lat="44.50203" lon="6.74066">
        <ele>1376.8</ele>
        <time>2022-06-12T11:32:26Z</time>
      </trkpt>
      <trkpt lat="44.50208" lon="6.74067">
        <ele>1377.1</ele>
        <time>2022-06-12T11:32:27Z</time>
      </trkpt>
      <trkpt lat="44.50214" lon="6.74069">
        <ele>1377.4</ele>
        <time>2022-06-12T11:32:28Z</time>
      </trkpt>
      <trkpt lat="44.50218" lon="6.74071">
        <ele>1377.7</ele>
        <time>2022-06-12T11:32:29Z</time>
      </trkpt>
      <trkpt lat="44.50223" lon="6.74074">
        <ele>1378.1</ele>
        <time>2022-06-12T11:32:30Z</time>
      </trkpt>
      <trkpt lat="44.50228" lon="6.74078">
        <ele>1378.4</ele>
        <time>2022-06-12T11:32:31Z</time>
      </trkpt>
      <trkpt lat="44.50232" lon="6.74081">
        <ele>1378.7</ele>
        <time>2022-06-12T11:32:32Z</time>
      </trkpt>
      <trkpt lat="44.50236" lon="6.74085">
        <ele>1378.9</ele>
        <time>2022-06-12T11:32:33Z</time>
      </trkpt>
      <trkpt lat="44.50241" lon="6.74088">
        <ele>1378.9</ele>
        <time>2022-06-12T11:32:34Z</time>
      </trkpt>
      <trkpt lat="44.50245" lon="6.74092">
        <ele>1378.9</ele>
        <time>2022-06-12T11:32:35Z</time>
      </trkpt>
      <trkpt lat="44.50249" lon="6.74096">
        <ele>1378.9</ele>
        <time>2022-06-12T11:32:36Z</time>
      </trkpt>
      <trkpt lat="44.50252" lon="6.74101">
        <ele>1379</ele>
        <time>2022-06-12T11:32:37Z</time>
      </trkpt>
      <trkpt lat="44.50256" lon="6.74106">
        <ele>1379.1</ele>
        <time>2022-06-12T11:32:38Z</time>
      </trkpt>
      <trkpt lat="44.50259" lon="6.74111">
        <ele>1379.3</ele>
        <time>2022-06-12T11:32:39Z</time>
      </trkpt>
      <trkpt lat="44.50262" lon="6.74116">
        <ele>1379.5</ele>
        <time>2022-06-12T11:32:40Z</time>
      </trkpt>
      <trkpt lat="44.50264" lon="6.74122">
        <ele>1379.7</ele>
        <time>2022-06-12T11:32:41Z</time>
      </trkpt>
      <trkpt lat="44.50267" lon="6.74127">
        <ele>1379.8</ele>
        <time>2022-06-12T11:32:42Z</time>
      </trkpt>
      <trkpt lat="44.50269" lon="6.74133">
        <ele>1380</ele>
        <time>2022-06-12T11:32:43Z</time>
      </trkpt>
      <trkpt lat="44.50272" lon="6.74138">
        <ele>1380.2</ele>
        <time>2022-06-12T11:32:44Z</time>
      </trkpt>
      <trkpt lat="44.50274" lon="6.74143">
        <ele>1380.5</ele>
        <time>2022-06-12T11:32:45Z</time>
      </trkpt>
      <trkpt lat="44.50276" lon="6.74149">
        <ele>1380.8</ele>
        <time>2022-06-12T11:32:46Z</time>
      </trkpt>
      <trkpt lat="44.50278" lon="6.74154">
        <ele>1381</ele>
        <time>2022-06-12T11:32:47Z</time>
      </trkpt>
      <trkpt lat="44.50279" lon="6.74158">
        <ele>1381.2</ele>
        <time>2022-06-12T11:32:48Z</time>
      </trkpt>
      <trkpt lat="44.5028" lon="6.74163">
        <ele>1381.5</ele>
        <time>2022-06-12T11:32:49Z</time>
      </trkpt>
      <trkpt lat="44.50281" lon="6.74167">
        <ele>1381.8</ele>
        <time>2022-06-12T11:32:50Z</time>
      </trkpt>
      <trkpt lat="44.50282" lon="6.74171">
        <ele>1382.1</ele>
        <time>2022-06-12T11:32:51Z</time>
      </trkpt>
      <trkpt lat="44.50283" lon="6.74175">
        <ele>1382.4</ele>
        <time>2022-06-12T11:32:52Z</time>
      </trkpt>
      <trkpt lat="44.50284" lon="6.7418">
        <ele>1382.7</ele>
        <time>2022-06-12T11:32:53Z</time>
      </trkpt>
      <trkpt lat="44.50284" lon="6.74184">
        <ele>1383</ele>
        <time>2022-06-12T11:32:54Z</time>
      </trkpt>
      <trkpt lat="44.50285" lon="6.74188">
        <ele>1383.4</ele>
        <time>2022-06-12T11:32:55Z</time>
      </trkpt>
      <trkpt lat="44.50285" lon="6.74192">
        <ele>1383.8</ele>
        <time>2022-06-12T11:32:56Z</time>
      </trkpt>
      <trkpt lat="44.50286" lon="6.74196">
        <ele>1384.1</ele>
        <time>2022-06-12T11:32:57Z</time>
      </trkpt>
      <trkpt lat="44.50286" lon="6.742">
        <ele>1384.3</ele>
        <time>2022-06-12T11:32:58Z</time>
      </trkpt>
      <trkpt lat="44.50286" lon="6.74204">
        <ele>1384.7</ele>
        <time>2022-06-12T11:32:59Z</time>
      </trkpt>
      <trkpt lat="44.50287" lon="6.74208">
        <ele>1384.9</ele>
        <time>2022-06-12T11:33:00Z</time>
      </trkpt>
      <trkpt lat="44.50287" lon="6.74212">
        <ele>1385.4</ele>
        <time>2022-06-12T11:33:01Z</time>
      </trkpt>
      <trkpt lat="44.50288" lon="6.74215">
        <ele>1386</ele>
        <time>2022-06-12T11:33:02Z</time>
      </trkpt>
      <trkpt lat="44.50289" lon="6.74219">
        <ele>1386.7</ele>
        <time>2022-06-12T11:33:03Z</time>
      </trkpt>
      <trkpt lat="44.5029" lon="6.74223">
        <ele>1387.3</ele>
        <time>2022-06-12T11:33:04Z</time>
      </trkpt>
      <trkpt lat="44.50291" lon="6.74227">
        <ele>1387.7</ele>
        <time>2022-06-12T11:33:05Z</time>
      </trkpt>
      <trkpt lat="44.50291" lon="6.74231">
        <ele>1387.8</ele>
        <time>2022-06-12T11:33:06Z</time>
      </trkpt>
      <trkpt lat="44.50291" lon="6.74235">
        <ele>1387.9</ele>
        <time>2022-06-12T11:33:07Z</time>
      </trkpt>
      <trkpt lat="44.50292" lon="6.74239">
        <ele>1388.1</ele>
        <time>2022-06-12T11:33:08Z</time>
      </trkpt>
      <trkpt lat="44.50292" lon="6.74242">
        <ele>1388.3</ele>
        <time>2022-06-12T11:33:09Z</time>
      </trkpt>
      <trkpt lat="44.50293" lon="6.74246">
        <ele>1388.6</ele>
        <time>2022-06-12T11:33:10Z</time>
      </trkpt>
      <trkpt lat="44.50294" lon="6.7425">
        <ele>1389.1</ele>
        <time>2022-06-12T11:33:11Z</time>
      </trkpt>
      <trkpt lat="44.50295" lon="6.74253">
        <ele>1389.4</ele>
        <time>2022-06-12T11:33:12Z</time>
      </trkpt>
      <trkpt lat="44.50295" lon="6.74257">
        <ele>1389.4</ele>
        <time>2022-06-12T11:33:13Z</time>
      </trkpt>
      <trkpt lat="44.50296" lon="6.7426">
        <ele>1389.2</ele>
        <time>2022-06-12T11:33:14Z</time>
      </trkpt>
      <trkpt lat="44.50297" lon="6.74264">
        <ele>1389.3</ele>
        <time>2022-06-12T11:33:15Z</time>
      </trkpt>
      <trkpt lat="44.50297" lon="6.74268">
        <ele>1389.1</ele>
        <time>2022-06-12T11:33:16Z</time>
      </trkpt>
      <trkpt lat="44.50298" lon="6.74271">
        <ele>1388.9</ele>
        <time>2022-06-12T11:33:17Z</time>
      </trkpt>
      <trkpt lat="44.50299" lon="6.74274">
        <ele>1388.8</ele>
        <time>2022-06-12T11:33:18Z</time>
      </trkpt>
      <trkpt lat="44.503" lon="6.74277">
        <ele>1388.6</ele>
        <time>2022-06-12T11:33:19Z</time>
      </trkpt>
      <trkpt lat="44.50301" lon="6.74281">
        <ele>1388.3</ele>
        <time>2022-06-12T11:33:20Z</time>
      </trkpt>
      <trkpt lat="44.50302" lon="6.74283">
        <ele>1388</ele>
        <time>2022-06-12T11:33:21Z</time>
      </trkpt>
      <trkpt lat="44.50304" lon="6.74286">
        <ele>1387.5</ele>
        <time>2022-06-12T11:33:22Z</time>
      </trkpt>
      <trkpt lat="44.50305" lon="6.74289">
        <ele>1386.8</ele>
        <time>2022-06-12T11:33:23Z</time>
      </trkpt>
      <trkpt lat="44.50308" lon="6.74292">
        <ele>1387.2</ele>
        <time>2022-06-12T11:33:24Z</time>
      </trkpt>
      <trkpt lat="44.5031" lon="6.74295">
        <ele>1387.5</ele>
        <time>2022-06-12T11:33:25Z</time>
      </trkpt>
      <trkpt lat="44.50312" lon="6.74297">
        <ele>1388.2</ele>
        <time>2022-06-12T11:33:26Z</time>
      </trkpt>
      <trkpt lat="44.50314" lon="6.74299">
        <ele>1388.8</ele>
        <time>2022-06-12T11:33:27Z</time>
      </trkpt>
      <trkpt lat="44.50317" lon="6.74301">
        <ele>1389.6</ele>
        <time>2022-06-12T11:33:28Z</time>
      </trkpt>
      <trkpt lat="44.50319" lon="6.74302">
        <ele>1390.3</ele>
        <time>2022-06-12T11:33:29Z</time>
      </trkpt>
      <trkpt lat="44.50322" lon="6.74303">
        <ele>1391.4</ele>
        <time>2022-06-12T11:33:30Z</time>
      </trkpt>
      <trkpt lat="44.50325" lon="6.74305">
        <ele>1392.3</ele>
        <time>2022-06-12T11:33:31Z</time>
      </trkpt>
      <trkpt lat="44.50328" lon="6.74306">
        <ele>1393.1</ele>
        <time>2022-06-12T11:33:32Z</time>
      </trkpt>
      <trkpt lat="44.50331" lon="6.74307">
        <ele>1394.2</ele>
        <time>2022-06-12T11:33:33Z</time>
      </trkpt>
      <trkpt lat="44.50334" lon="6.74308">
        <ele>1395.2</ele>
        <time>2022-06-12T11:33:34Z</time>
      </trkpt>
      <trkpt lat="44.50336" lon="6.74309">
        <ele>1396.1</ele>
        <time>2022-06-12T11:33:35Z</time>
      </trkpt>
      <trkpt lat="44.50339" lon="6.7431">
        <ele>1396.7</ele>
        <time>2022-06-12T11:33:36Z</time>
      </trkpt>
      <trkpt lat="44.50342" lon="6.74312">
        <ele>1397.3</ele>
        <time>2022-06-12T11:33:37Z</time>
      </trkpt>
      <trkpt lat="44.50345" lon="6.74313">
        <ele>1397.9</ele>
        <time>2022-06-12T11:33:38Z</time>
      </trkpt>
      <trkpt lat="44.50348" lon="6.74314">
        <ele>1398.5</ele>
        <time>2022-06-12T11:33:39Z</time>
      </trkpt>
      <trkpt lat="44.50351" lon="6.74315">
        <ele>1399</ele>
        <time>2022-06-12T11:33:40Z</time>
      </trkpt>
      <trkpt lat="44.50353" lon="6.74317">
        <ele>1399.1</ele>
        <time>2022-06-12T11:33:41Z</time>
      </trkpt>
      <trkpt lat="44.50356" lon="6.74319">
        <ele>1398.8</ele>
        <time>2022-06-12T11:33:42Z</time>
      </trkpt>
      <trkpt lat="44.50359" lon="6.7432">
        <ele>1398.6</ele>
        <time>2022-06-12T11:33:43Z</time>
      </trkpt>
      <trkpt lat="44.50361" lon="6.74322">
        <ele>1398.4</ele>
        <time>2022-06-12T11:33:44Z</time>
      </trkpt>
      <trkpt lat="44.50364" lon="6.74324">
        <ele>1398</ele>
        <time>2022-06-12T11:33:45Z</time>
      </trkpt>
      <trkpt lat="44.50366" lon="6.74326">
        <ele>1397.4</ele>
        <time>2022-06-12T11:33:46Z</time>
      </trkpt>
      <trkpt lat="44.50369" lon="6.74328">
        <ele>1397</ele>
        <time>2022-06-12T11:33:47Z</time>
      </trkpt>
      <trkpt lat="44.50371" lon="6.7433">
        <ele>1396.3</ele>
        <time>2022-06-12T11:33:48Z</time>
      </trkpt>
      <trkpt lat="44.50374" lon="6.74332">
        <ele>1395.4</ele>
        <time>2022-06-12T11:33:49Z</time>
      </trkpt>
      <trkpt lat="44.50376" lon="6.74334">
        <ele>1394.9</ele>
        <time>2022-06-12T11:33:50Z</time>
      </trkpt>
      <trkpt lat="44.50379" lon="6.74335">
        <ele>1395.7</ele>
        <time>2022-06-12T11:33:51Z</time>
      </trkpt>
      <trkpt lat="44.50382" lon="6.74336">
        <ele>1396.6</ele>
        <time>2022-06-12T11:33:52Z</time>
      </trkpt>
      <trkpt lat="44.50385" lon="6.74336">
        <ele>1397.4</ele>
        <time>2022-06-12T11:33:53Z</time>
      </trkpt>
      <trkpt lat="44.50387" lon="6.74338">
        <ele>1397.8</ele>
        <time>2022-06-12T11:33:54Z</time>
      </trkpt>
      <trkpt lat="44.5039" lon="6.74338">
        <ele>1399.4</ele>
        <time>2022-06-12T11:33:55Z</time>
      </trkpt>
      <trkpt lat="44.50393" lon="6.74339">
        <ele>1401.7</ele>
        <time>2022-06-12T11:33:56Z</time>
      </trkpt>
      <trkpt lat="44.50395" lon="6.74338">
        <ele>1404.5</ele>
        <time>2022-06-12T11:33:57Z</time>
      </trkpt>
      <trkpt lat="44.50398" lon="6.74338">
        <ele>1407.6</ele>
        <time>2022-06-12T11:33:58Z</time>
      </trkpt>
      <trkpt lat="44.504" lon="6.74338">
        <ele>1410</ele>
        <time>2022-06-12T11:33:59Z</time>
      </trkpt>
      <trkpt lat="44.50403" lon="6.74339">
        <ele>1411.8</ele>
        <time>2022-06-12T11:34:00Z</time>
      </trkpt>
      <trkpt lat="44.50405" lon="6.74339">
        <ele>1413.8</ele>
        <time>2022-06-12T11:34:01Z</time>
      </trkpt>
      <trkpt lat="44.50408" lon="6.74339">
        <ele>1416.5</ele>
        <time>2022-06-12T11:34:02Z</time>
      </trkpt>
      <trkpt lat="44.50411" lon="6.7434">
        <ele>1419</ele>
        <time>2022-06-12T11:34:03Z</time>
      </trkpt>
      <trkpt lat="44.50413" lon="6.74342">
        <ele>1419.4</ele>
        <time>2022-06-12T11:34:04Z</time>
      </trkpt>
      <trkpt lat="44.50415" lon="6.74344">
        <ele>1419.5</ele>
        <time>2022-06-12T11:34:05Z</time>
      </trkpt>
      <trkpt lat="44.50417" lon="6.74344">
        <ele>1421</ele>
        <time>2022-06-12T11:34:06Z</time>
      </trkpt>
      <trkpt lat="44.50419" lon="6.74346">
        <ele>1421.9</ele>
        <time>2022-06-12T11:34:07Z</time>
      </trkpt>
      <trkpt lat="44.50421" lon="6.74348">
        <ele>1422.7</ele>
        <time>2022-06-12T11:34:08Z</time>
      </trkpt>
      <trkpt lat="44.50423" lon="6.74349">
        <ele>1423.7</ele>
        <time>2022-06-12T11:34:09Z</time>
      </trkpt>
      <trkpt lat="44.50425" lon="6.7435">
        <ele>1426</ele>
        <time>2022-06-12T11:34:10Z</time>
      </trkpt>
      <trkpt lat="44.50425" lon="6.7435">
        <ele>1426</ele>
        <time>2022-06-12T11:34:11Z</time>
      </trkpt>
      <trkpt lat="44.50425" lon="6.7435">
        <ele>1426</ele>
        <time>2022-06-12T11:34:12Z</time>
      </trkpt>
      <trkpt lat="44.50425" lon="6.7435">
        <ele>1426</ele>
        <time>2022-06-12T11:34:13Z</time>
      </trkpt>
      <trkpt lat="44.50425" lon="6.7435">
        <ele>1426</ele>
        <time>2022-06-12T11:34:14Z</time>
      </trkpt>
      <trkpt lat="44.50425" lon="6.7435">
        <ele>1426</ele>
        <time>2022-06-12T11:34:15Z</time>
      </trkpt>
      <trkpt lat="44.50425" lon="6.7435">
        <ele>1426</ele>
        <time>2022-06-12T11:34:16Z</time>
      </trkpt>
      <trkpt lat="44.50436" lon="6.74351">
        <ele>1437.2</ele>
        <time>2022-06-12T11:34:17Z</time>
      </trkpt>
      <trkpt lat="44.50436" lon="6.74351">
        <ele>1437.2</ele>
        <time>2022-06-12T11:34:18Z</time>
      </trkpt>
      <trkpt lat="44.50436" lon="6.74351">
        <ele>1437.2</ele>
        <time>2022-06-12T11:34:19Z</time>
      </trkpt>
      <trkpt lat="44.50436" lon="6.74351">
        <ele>1437.2</ele>
        <time>2022-06-12T11:34:20Z</time>
      </trkpt>
      <trkpt lat="44.50436" lon="6.74351">
        <ele>1437.2</ele>
        <time>2022-06-12T11:34:21Z</time>
      </trkpt>
      <trkpt lat="44.50436" lon="6.74351">
        <ele>1437.2</ele>
        <time>2022-06-12T11:34:22Z</time>
      </trkpt>
      <trkpt lat="44.50436" lon="6.74351">
        <ele>1437.2</ele>
        <time>2022-06-12T11:34:23Z</time>
      </trkpt>
      <trkpt lat="44.50436" lon="6.74351">
        <ele>1437.2</ele>
        <time>2022-06-12T11:34:24Z</time>
      </trkpt>
      <trkpt lat="44.50436" lon="6.74351">
        <ele>1437.2</ele>
        <time>2022-06-12T11:34:25Z</time>
      </trkpt>
      <trkpt lat="44.50436" lon="6.74351">
        <ele>1437.2</ele>
        <time>2022-06-12T11:34:26Z</time>
      </trkpt>
      <trkpt lat="44.50438" lon="6.74357">
        <ele>1435.3</ele>
        <time>2022-06-12T11:34:27Z</time>
      </trkpt>
      <trkpt lat="44.5044" lon="6.74363">
        <ele>1433.3</ele>
        <time>2022-06-12T11:34:28Z</time>
      </trkpt>
      <trkpt lat="44.50455" lon="6.74404">
        <ele>1416.9</ele>
        <time>2022-06-12T11:34:31Z</time>
      </trkpt>
      <trkpt lat="44.50456" lon="6.74408">
        <ele>1414.7</ele>
        <time>2022-06-12T11:34:32Z</time>
      </trkpt>
      <trkpt lat="44.50456" lon="6.74413">
        <ele>1412.5</ele>
        <time>2022-06-12T11:34:33Z</time>
      </trkpt>
      <trkpt lat="44.50457" lon="6.74418">
        <ele>1410.8</ele>
        <time>2022-06-12T11:34:34Z</time>
      </trkpt>
      <trkpt lat="44.50459" lon="6.74423">
        <ele>1411</ele>
        <time>2022-06-12T11:34:35Z</time>
      </trkpt>
      <trkpt lat="44.5046" lon="6.74424">
        <ele>1411.3</ele>
        <time>2022-06-12T11:34:36Z</time>
      </trkpt>
      <trkpt lat="44.50463" lon="6.74422">
        <ele>1414.9</ele>
        <time>2022-06-12T11:34:37Z</time>
      </trkpt>
      <trkpt lat="44.50462" lon="6.74426">
        <ele>1413.1</ele>
        <time>2022-06-12T11:34:38Z</time>
      </trkpt>
      <trkpt lat="44.50464" lon="6.74426">
        <ele>1414.5</ele>
        <time>2022-06-12T11:34:39Z</time>
      </trkpt>
      <trkpt lat="44.50464" lon="6.74428">
        <ele>1414.5</ele>
        <time>2022-06-12T11:34:40Z</time>
      </trkpt>
      <trkpt lat="44.50468" lon="6.74429">
        <ele>1417.2</ele>
        <time>2022-06-12T11:34:41Z</time>
      </trkpt>
      <trkpt lat="44.50468" lon="6.74429">
        <ele>1417.2</ele>
        <time>2022-06-12T11:34:42Z</time>
      </trkpt>
      <trkpt lat="44.50468" lon="6.74429">
        <ele>1417.2</ele>
        <time>2022-06-12T11:34:43Z</time>
      </trkpt>
      <trkpt lat="44.50468" lon="6.74429">
        <ele>1417.2</ele>
        <time>2022-06-12T11:34:44Z</time>
      </trkpt>
      <trkpt lat="44.50484" lon="6.74443">
        <ele>1422.5</ele>
        <time>2022-06-12T11:34:45Z</time>
      </trkpt>
      <trkpt lat="44.50484" lon="6.74443">
        <ele>1422.5</ele>
        <time>2022-06-12T11:34:46Z</time>
      </trkpt>
      <trkpt lat="44.50484" lon="6.74443">
        <ele>1422.5</ele>
        <time>2022-06-12T11:34:47Z</time>
      </trkpt>
      <trkpt lat="44.50465" lon="6.7457">
        <ele>1421.6</ele>
        <time>2022-06-12T11:34:56Z</time>
      </trkpt>
      <trkpt lat="44.50487" lon="6.74547">
        <ele>1406.5</ele>
        <time>2022-06-12T11:34:57Z</time>
      </trkpt>
      <trkpt lat="44.5051" lon="6.74524">
        <ele>1395.1</ele>
        <time>2022-06-12T11:34:58Z</time>
      </trkpt>
      <trkpt lat="44.50516" lon="6.74519">
        <ele>1394.8</ele>
        <time>2022-06-12T11:34:59Z</time>
      </trkpt>
      <trkpt lat="44.50521" lon="6.74516">
        <ele>1394.8</ele>
        <time>2022-06-12T11:35:00Z</time>
      </trkpt>
      <trkpt lat="44.50526" lon="6.74515">
        <ele>1394.9</ele>
        <time>2022-06-12T11:35:01Z</time>
      </trkpt>
      <trkpt lat="44.5053" lon="6.74514">
        <ele>1395.1</ele>
        <time>2022-06-12T11:35:02Z</time>
      </trkpt>
      <trkpt lat="44.50535" lon="6.74515">
        <ele>1395.4</ele>
        <time>2022-06-12T11:35:03Z</time>
      </trkpt>
      <trkpt lat="44.50539" lon="6.74515">
        <ele>1395.6</ele>
        <time>2022-06-12T11:35:04Z</time>
      </trkpt>
      <trkpt lat="44.50543" lon="6.74516">
        <ele>1396</ele>
        <time>2022-06-12T11:35:05Z</time>
      </trkpt>
      <trkpt lat="44.50547" lon="6.74518">
        <ele>1396.4</ele>
        <time>2022-06-12T11:35:06Z</time>
      </trkpt>
      <trkpt lat="44.5055" lon="6.74519">
        <ele>1396.9</ele>
        <time>2022-06-12T11:35:07Z</time>
      </trkpt>
      <trkpt lat="44.50554" lon="6.7452">
        <ele>1397.5</ele>
        <time>2022-06-12T11:35:08Z</time>
      </trkpt>
      <trkpt lat="44.50558" lon="6.74522">
        <ele>1398.3</ele>
        <time>2022-06-12T11:35:09Z</time>
      </trkpt>
      <trkpt lat="44.50562" lon="6.74523">
        <ele>1399.2</ele>
        <time>2022-06-12T11:35:10Z</time>
      </trkpt>
      <trkpt lat="44.50566" lon="6.74524">
        <ele>1400.2</ele>
        <time>2022-06-12T11:35:11Z</time>
      </trkpt>
      <trkpt lat="44.5057" lon="6.74525">
        <ele>1401.2</ele>
        <time>2022-06-12T11:35:12Z</time>
      </trkpt>
      <trkpt lat="44.50574" lon="6.74526">
        <ele>1402.3</ele>
        <time>2022-06-12T11:35:13Z</time>
      </trkpt>
      <trkpt lat="44.50577" lon="6.74527">
        <ele>1403.5</ele>
        <time>2022-06-12T11:35:14Z</time>
      </trkpt>
      <trkpt lat="44.50581" lon="6.74529">
        <ele>1405.1</ele>
        <time>2022-06-12T11:35:15Z</time>
      </trkpt>
      <trkpt lat="44.50585" lon="6.74531">
        <ele>1406.6</ele>
        <time>2022-06-12T11:35:16Z</time>
      </trkpt>
      <trkpt lat="44.50589" lon="6.74532">
        <ele>1407.6</ele>
        <time>2022-06-12T11:35:17Z</time>
      </trkpt>
      <trkpt lat="44.50593" lon="6.74533">
        <ele>1408.4</ele>
        <time>2022-06-12T11:35:18Z</time>
      </trkpt>
      <trkpt lat="44.50596" lon="6.74534">
        <ele>1409.2</ele>
        <time>2022-06-12T11:35:19Z</time>
      </trkpt>
      <trkpt lat="44.506" lon="6.74536">
        <ele>1410.1</ele>
        <time>2022-06-12T11:35:20Z</time>
      </trkpt>
      <trkpt lat="44.50604" lon="6.74537">
        <ele>1411.1</ele>
        <time>2022-06-12T11:35:21Z</time>
      </trkpt>
      <trkpt lat="44.50607" lon="6.74538">
        <ele>1411.9</ele>
        <time>2022-06-12T11:35:22Z</time>
      </trkpt>
      <trkpt lat="44.50611" lon="6.7454">
        <ele>1412.8</ele>
        <time>2022-06-12T11:35:23Z</time>
      </trkpt>
      <trkpt lat="44.50615" lon="6.74541">
        <ele>1413.5</ele>
        <time>2022-06-12T11:35:24Z</time>
      </trkpt>
      <trkpt lat="44.50618" lon="6.74543">
        <ele>1414.3</ele>
        <time>2022-06-12T11:35:25Z</time>
      </trkpt>
      <trkpt lat="44.50621" lon="6.74545">
        <ele>1415.2</ele>
        <time>2022-06-12T11:35:26Z</time>
      </trkpt>
      <trkpt lat="44.50625" lon="6.74547">
        <ele>1416</ele>
        <time>2022-06-12T11:35:27Z</time>
      </trkpt>
      <trkpt lat="44.50629" lon="6.74548">
        <ele>1416.6</ele>
        <time>2022-06-12T11:35:28Z</time>
      </trkpt>
      <trkpt lat="44.50632" lon="6.74549">
        <ele>1417.3</ele>
        <time>2022-06-12T11:35:29Z</time>
      </trkpt>
      <trkpt lat="44.50636" lon="6.74551">
        <ele>1417.9</ele>
        <time>2022-06-12T11:35:30Z</time>
      </trkpt>
      <trkpt lat="44.50639" lon="6.74552">
        <ele>1418.5</ele>
        <time>2022-06-12T11:35:31Z</time>
      </trkpt>
      <trkpt lat="44.50643" lon="6.74553">
        <ele>1418.8</ele>
        <time>2022-06-12T11:35:32Z</time>
      </trkpt>
      <trkpt lat="44.50647" lon="6.74555">
        <ele>1419.1</ele>
        <time>2022-06-12T11:35:33Z</time>
      </trkpt>
      <trkpt lat="44.50651" lon="6.74556">
        <ele>1419.8</ele>
        <time>2022-06-12T11:35:34Z</time>
      </trkpt>
      <trkpt lat="44.50654" lon="6.74558">
        <ele>1420.4</ele>
        <time>2022-06-12T11:35:35Z</time>
      </trkpt>
      <trkpt lat="44.50658" lon="6.74559">
        <ele>1420.9</ele>
        <time>2022-06-12T11:35:36Z</time>
      </trkpt>
      <trkpt lat="44.50661" lon="6.7456">
        <ele>1421.7</ele>
        <time>2022-06-12T11:35:37Z</time>
      </trkpt>
      <trkpt lat="44.50665" lon="6.74562">
        <ele>1422.6</ele>
        <time>2022-06-12T11:35:38Z</time>
      </trkpt>
      <trkpt lat="44.50669" lon="6.74563">
        <ele>1423.6</ele>
        <time>2022-06-12T11:35:39Z</time>
      </trkpt>
      <trkpt lat="44.50672" lon="6.74565">
        <ele>1424.8</ele>
        <time>2022-06-12T11:35:40Z</time>
      </trkpt>
      <trkpt lat="44.50676" lon="6.74566">
        <ele>1426.3</ele>
        <time>2022-06-12T11:35:41Z</time>
      </trkpt>
      <trkpt lat="44.50679" lon="6.74568">
        <ele>1427.7</ele>
        <time>2022-06-12T11:35:42Z</time>
      </trkpt>
      <trkpt lat="44.50682" lon="6.74569">
        <ele>1428.8</ele>
        <time>2022-06-12T11:35:43Z</time>
      </trkpt>
      <trkpt lat="44.50685" lon="6.7457">
        <ele>1429.9</ele>
        <time>2022-06-12T11:35:44Z</time>
      </trkpt>
      <trkpt lat="44.50688" lon="6.74571">
        <ele>1431.2</ele>
        <time>2022-06-12T11:35:45Z</time>
      </trkpt>
      <trkpt lat="44.50692" lon="6.74572">
        <ele>1432.4</ele>
        <time>2022-06-12T11:35:46Z</time>
      </trkpt>
      <trkpt lat="44.50695" lon="6.74573">
        <ele>1433.6</ele>
        <time>2022-06-12T11:35:47Z</time>
      </trkpt>
      <trkpt lat="44.50695" lon="6.74573">
        <ele>1433.6</ele>
        <time>2022-06-12T11:35:48Z</time>
      </trkpt>
      <trkpt lat="44.50695" lon="6.74573">
        <ele>1433.6</ele>
        <time>2022-06-12T11:35:49Z</time>
      </trkpt>
      <trkpt lat="44.50695" lon="6.74573">
        <ele>1433.6</ele>
        <time>2022-06-12T11:35:50Z</time>
      </trkpt>
      <trkpt lat="44.50695" lon="6.74573">
        <ele>1433.6</ele>
        <time>2022-06-12T11:35:51Z</time>
      </trkpt>
      <trkpt lat="44.50695" lon="6.74573">
        <ele>1433.6</ele>
        <time>2022-06-12T11:35:52Z</time>
      </trkpt>
      <trkpt lat="44.50695" lon="6.74573">
        <ele>1433.6</ele>
        <time>2022-06-12T11:35:53Z</time>
      </trkpt>
      <trkpt lat="44.50695" lon="6.74573">
        <ele>1433.6</ele>
        <time>2022-06-12T11:35:54Z</time>
      </trkpt>
      <trkpt lat="44.50695" lon="6.74573">
        <ele>1433.6</ele>
        <time>2022-06-12T11:35:55Z</time>
      </trkpt>
      <trkpt lat="44.50695" lon="6.74573">
        <ele>1433.6</ele>
        <time>2022-06-12T11:35:56Z</time>
      </trkpt>
      <trkpt lat="44.50695" lon="6.74573">
        <ele>1433.6</ele>
        <time>2022-06-12T11:35:57Z</time>
      </trkpt>
      <trkpt lat="44.50695" lon="6.74573">
        <ele>1433.6</ele>
        <time>2022-06-12T11:35:58Z</time>
      </trkpt>
      <trkpt lat="44.50695" lon="6.74573">
        <ele>1433.6</ele>
        <time>2022-06-12T11:35:59Z</time>
      </trkpt>
      <trkpt lat="44.50695" lon="6.74573">
        <ele>1433.6</ele>
        <time>2022-06-12T11:36:00Z</time>
      </trkpt>
      <trkpt lat="44.50695" lon="6.74573">
        <ele>1433.6</ele>
        <time>2022-06-12T11:36:01Z</time>
      </trkpt>
      <trkpt lat="44.50695" lon="6.74573">
        <ele>1433.6</ele>
        <time>2022-06-12T11:36:02Z</time>
      </trkpt>
      <trkpt lat="44.50695" lon="6.74573">
        <ele>1433.6</ele>
        <time>2022-06-12T11:36:03Z</time>
      </trkpt>
      <trkpt lat="44.50695" lon="6.74573">
        <ele>1433.6</ele>
        <time>2022-06-12T11:36:04Z</time>
      </trkpt>
      <trkpt lat="44.50695" lon="6.74573">
        <ele>1433.6</ele>
        <time>2022-06-12T11:36:05Z</time>
      </trkpt>
      <trkpt lat="44.50695" lon="6.74573">
        <ele>1433.6</ele>
        <time>2022-06-12T11:36:06Z</time>
      </trkpt>
      <trkpt lat="44.50695" lon="6.74573">
        <ele>1433.6</ele>
        <time>2022-06-12T11:36:07Z</time>
      </trkpt>
      <trkpt lat="44.50695" lon="6.74573">
        <ele>1433.6</ele>
        <time>2022-06-12T11:36:08Z</time>
      </trkpt>
      <trkpt lat="44.50695" lon="6.74573">
        <ele>1433.6</ele>
        <time>2022-06-12T11:36:09Z</time>
      </trkpt>
      <trkpt lat="44.50695" lon="6.74573">
        <ele>1433.6</ele>
        <time>2022-06-12T11:36:10Z</time>
      </trkpt>
      <trkpt lat="44.50695" lon="6.74573">
        <ele>1433.6</ele>
        <time>2022-06-12T11:36:11Z</time>
      </trkpt>
      <trkpt lat="44.50695" lon="6.74573">
        <ele>1433.6</ele>
        <time>2022-06-12T11:36:12Z</time>
      </trkpt>
      <trkpt lat="44.50695" lon="6.74573">
        <ele>1433.6</ele>
        <time>2022-06-12T11:36:13Z</time>
      </trkpt>
      <trkpt lat="44.50695" lon="6.74573">
        <ele>1433.6</ele>
        <time>2022-06-12T11:36:14Z</time>
      </trkpt>
      <trkpt lat="44.50695" lon="6.74573">
        <ele>1433.6</ele>
        <time>2022-06-12T11:36:15Z</time>
      </trkpt>
      <trkpt lat="44.50695" lon="6.74573">
        <ele>1433.6</ele>
        <time>2022-06-12T11:36:16Z</time>
      </trkpt>
      <trkpt lat="44.50695" lon="6.74573">
        <ele>1433.6</ele>
        <time>2022-06-12T11:36:17Z</time>
      </trkpt>
      <trkpt lat="44.50695" lon="6.74573">
        <ele>1433.6</ele>
        <time>2022-06-12T11:36:18Z</time>
      </trkpt>
      <trkpt lat="44.50695" lon="6.74573">
        <ele>1433.6</ele>
        <time>2022-06-12T11:36:19Z</time>
      </trkpt>
      <trkpt lat="44.50695" lon="6.74573">
        <ele>1433.6</ele>
        <time>2022-06-12T11:36:20Z</time>
      </trkpt>
      <trkpt lat="44.50695" lon="6.74573">
        <ele>1433.6</ele>
        <time>2022-06-12T11:36:21Z</time>
      </trkpt>
      <trkpt lat="44.50695" lon="6.74573">
        <ele>1433.6</ele>
        <time>2022-06-12T11:36:22Z</time>
      </trkpt>
      <trkpt lat="44.50695" lon="6.74573">
        <ele>1433.6</ele>
        <time>2022-06-12T11:36:23Z</time>
      </trkpt>
      <trkpt lat="44.50695" lon="6.74573">
        <ele>1433.6</ele>
        <time>2022-06-12T11:36:24Z</time>
      </trkpt>
      <trkpt lat="44.50695" lon="6.74573">
        <ele>1433.6</ele>
        <time>2022-06-12T11:36:25Z</time>
      </trkpt>
      <trkpt lat="44.50695" lon="6.74573">
        <ele>1433.6</ele>
        <time>2022-06-12T11:36:26Z</time>
      </trkpt>
      <trkpt lat="44.50695" lon="6.74573">
        <ele>1433.6</ele>
        <time>2022-06-12T11:36:27Z</time>
      </trkpt>
      <trkpt lat="44.50695" lon="6.74573">
        <ele>1433.6</ele>
        <time>2022-06-12T11:36:28Z</time>
      </trkpt>
      <trkpt lat="44.50695" lon="6.74573">
        <ele>1433.6</ele>
        <time>2022-06-12T11:36:29Z</time>
      </trkpt>
      <trkpt lat="44.50695" lon="6.74573">
        <ele>1433.6</ele>
        <time>2022-06-12T11:36:30Z</time>
      </trkpt>
      <trkpt lat="44.50695" lon="6.74573">
        <ele>1433.6</ele>
        <time>2022-06-12T11:36:31Z</time>
      </trkpt>
      <trkpt lat="44.50695" lon="6.74573">
        <ele>1433.6</ele>
        <time>2022-06-12T11:36:32Z</time>
      </trkpt>
      <trkpt lat="44.50695" lon="6.74573">
        <ele>1433.6</ele>
        <time>2022-06-12T11:36:33Z</time>
      </trkpt>
      <trkpt lat="44.50695" lon="6.74573">
        <ele>1433.6</ele>
        <time>2022-06-12T11:36:34Z</time>
      </trkpt>
      <trkpt lat="44.50695" lon="6.74573">
        <ele>1433.6</ele>
        <time>2022-06-12T11:36:35Z</time>
      </trkpt>
      <trkpt lat="44.50695" lon="6.74573">
        <ele>1433.6</ele>
        <time>2022-06-12T11:36:36Z</time>
      </trkpt>
      <trkpt lat="44.50695" lon="6.74573">
        <ele>1433.6</ele>
        <time>2022-06-12T11:36:37Z</time>
      </trkpt>
      <trkpt lat="44.50695" lon="6.74573">
        <ele>1433.6</ele>
        <time>2022-06-12T11:36:38Z</time>
      </trkpt>
      <trkpt lat="44.50695" lon="6.74573">
        <ele>1433.6</ele>
        <time>2022-06-12T11:36:39Z</time>
      </trkpt>
      <trkpt lat="44.50695" lon="6.74573">
        <ele>1433.6</ele>
        <time>2022-06-12T11:36:40Z</time>
      </trkpt>
      <trkpt lat="44.50695" lon="6.74573">
        <ele>1433.6</ele>
        <time>2022-06-12T11:36:41Z</time>
      </trkpt>
      <trkpt lat="44.50919" lon="6.74647">
        <ele>1401.9</ele>
        <time>2022-06-12T11:36:45Z</time>
      </trkpt>
      <trkpt lat="44.50922" lon="6.74649">
        <ele>1402.9</ele>
        <time>2022-06-12T11:36:46Z</time>
      </trkpt>
      <trkpt lat="44.50926" lon="6.74652">
        <ele>1404.1</ele>
        <time>2022-06-12T11:36:47Z</time>
      </trkpt>
      <trkpt lat="44.50931" lon="6.74653">
        <ele>1405.4</ele>
        <time>2022-06-12T11:36:48Z</time>
      </trkpt>
      <trkpt lat="44.50934" lon="6.74654">
        <ele>1406.5</ele>
        <time>2022-06-12T11:36:49Z</time>
      </trkpt>
      <trkpt lat="44.50938" lon="6.74656">
        <ele>1407.6</ele>
        <time>2022-06-12T11:36:50Z</time>
      </trkpt>
      <trkpt lat="44.50942" lon="6.74657">
        <ele>1408.7</ele>
        <time>2022-06-12T11:36:51Z</time>
      </trkpt>
      <trkpt lat="44.50946" lon="6.74658">
        <ele>1409.6</ele>
        <time>2022-06-12T11:36:52Z</time>
      </trkpt>
      <trkpt lat="44.5095" lon="6.7466">
        <ele>1410.3</ele>
        <time>2022-06-12T11:36:53Z</time>
      </trkpt>
      <trkpt lat="44.50954" lon="6.74661">
        <ele>1411</ele>
        <time>2022-06-12T11:36:54Z</time>
      </trkpt>
      <trkpt lat="44.50958" lon="6.74663">
        <ele>1411.6</ele>
        <time>2022-06-12T11:36:55Z</time>
      </trkpt>
      <trkpt lat="44.50962" lon="6.74664">
        <ele>1412.2</ele>
        <time>2022-06-12T11:36:56Z</time>
      </trkpt>
      <trkpt lat="44.50965" lon="6.74665">
        <ele>1412.8</ele>
        <time>2022-06-12T11:36:57Z</time>
      </trkpt>
      <trkpt lat="44.50969" lon="6.74667">
        <ele>1413.3</ele>
        <time>2022-06-12T11:36:58Z</time>
      </trkpt>
      <trkpt lat="44.50973" lon="6.74669">
        <ele>1413.9</ele>
        <time>2022-06-12T11:36:59Z</time>
      </trkpt>
      <trkpt lat="44.50977" lon="6.7467">
        <ele>1414.3</ele>
        <time>2022-06-12T11:37:00Z</time>
      </trkpt>
      <trkpt lat="44.5098" lon="6.74671">
        <ele>1414.6</ele>
        <time>2022-06-12T11:37:01Z</time>
      </trkpt>
      <trkpt lat="44.50983" lon="6.74671">
        <ele>1415</ele>
        <time>2022-06-12T11:37:02Z</time>
      </trkpt>
      <trkpt lat="44.50987" lon="6.74672">
        <ele>1415.5</ele>
        <time>2022-06-12T11:37:03Z</time>
      </trkpt>
      <trkpt lat="44.5099" lon="6.74671">
        <ele>1416</ele>
        <time>2022-06-12T11:37:04Z</time>
      </trkpt>
      <trkpt lat="44.50993" lon="6.74671">
        <ele>1416.4</ele>
        <time>2022-06-12T11:37:05Z</time>
      </trkpt>
      <trkpt lat="44.50996" lon="6.7467">
        <ele>1416.9</ele>
        <time>2022-06-12T11:37:06Z</time>
      </trkpt>
      <trkpt lat="44.50999" lon="6.74669">
        <ele>1417.5</ele>
        <time>2022-06-12T11:37:07Z</time>
      </trkpt>
      <trkpt lat="44.51002" lon="6.74668">
        <ele>1418</ele>
        <time>2022-06-12T11:37:08Z</time>
      </trkpt>
      <trkpt lat="44.51005" lon="6.74667">
        <ele>1418.6</ele>
        <time>2022-06-12T11:37:09Z</time>
      </trkpt>
      <trkpt lat="44.51008" lon="6.74665">
        <ele>1419.3</ele>
        <time>2022-06-12T11:37:10Z</time>
      </trkpt>
      <trkpt lat="44.5101" lon="6.74662">
        <ele>1420</ele>
        <time>2022-06-12T11:37:11Z</time>
      </trkpt>
      <trkpt lat="44.51013" lon="6.7466">
        <ele>1420.7</ele>
        <time>2022-06-12T11:37:12Z</time>
      </trkpt>
      <trkpt lat="44.51015" lon="6.74657">
        <ele>1421.4</ele>
        <time>2022-06-12T11:37:13Z</time>
      </trkpt>
      <trkpt lat="44.51017" lon="6.74654">
        <ele>1422</ele>
        <time>2022-06-12T11:37:14Z</time>
      </trkpt>
      <trkpt lat="44.51019" lon="6.74651">
        <ele>1422.7</ele>
        <time>2022-06-12T11:37:15Z</time>
      </trkpt>
      <trkpt lat="44.5102" lon="6.74648">
        <ele>1423.3</ele>
        <time>2022-06-12T11:37:16Z</time>
      </trkpt>
      <trkpt lat="44.51022" lon="6.74644">
        <ele>1423.9</ele>
        <time>2022-06-12T11:37:17Z</time>
      </trkpt>
      <trkpt lat="44.51023" lon="6.74641">
        <ele>1424.5</ele>
        <time>2022-06-12T11:37:18Z</time>
      </trkpt>
      <trkpt lat="44.51024" lon="6.74638">
        <ele>1425</ele>
        <time>2022-06-12T11:37:19Z</time>
      </trkpt>
      <trkpt lat="44.51026" lon="6.74635">
        <ele>1425.7</ele>
        <time>2022-06-12T11:37:20Z</time>
      </trkpt>
      <trkpt lat="44.51027" lon="6.74631">
        <ele>1426.3</ele>
        <time>2022-06-12T11:37:21Z</time>
      </trkpt>
      <trkpt lat="44.51028" lon="6.74628">
        <ele>1427</ele>
        <time>2022-06-12T11:37:22Z</time>
      </trkpt>
      <trkpt lat="44.51029" lon="6.74624">
        <ele>1427.6</ele>
        <time>2022-06-12T11:37:23Z</time>
      </trkpt>
      <trkpt lat="44.51029" lon="6.74621">
        <ele>1428.2</ele>
        <time>2022-06-12T11:37:24Z</time>
      </trkpt>
      <trkpt lat="44.5103" lon="6.74618">
        <ele>1428.8</ele>
        <time>2022-06-12T11:37:25Z</time>
      </trkpt>
      <trkpt lat="44.51031" lon="6.74614">
        <ele>1429.4</ele>
        <time>2022-06-12T11:37:26Z</time>
      </trkpt>
      <trkpt lat="44.51032" lon="6.74611">
        <ele>1429.9</ele>
        <time>2022-06-12T11:37:27Z</time>
      </trkpt>
      <trkpt lat="44.51032" lon="6.74607">
        <ele>1430.3</ele>
        <time>2022-06-12T11:37:28Z</time>
      </trkpt>
      <trkpt lat="44.51033" lon="6.74604">
        <ele>1430.7</ele>
        <time>2022-06-12T11:37:29Z</time>
      </trkpt>
      <trkpt lat="44.51034" lon="6.746">
        <ele>1431.1</ele>
        <time>2022-06-12T11:37:30Z</time>
      </trkpt>
      <trkpt lat="44.51034" lon="6.74597">
        <ele>1431.5</ele>
        <time>2022-06-12T11:37:31Z</time>
      </trkpt>
      <trkpt lat="44.51034" lon="6.74593">
        <ele>1431.8</ele>
        <time>2022-06-12T11:37:32Z</time>
      </trkpt>
      <trkpt lat="44.51035" lon="6.7459">
        <ele>1432.2</ele>
        <time>2022-06-12T11:37:33Z</time>
      </trkpt>
      <trkpt lat="44.51036" lon="6.74587">
        <ele>1432.6</ele>
        <time>2022-06-12T11:37:34Z</time>
      </trkpt>
      <trkpt lat="44.51037" lon="6.74584">
        <ele>1433</ele>
        <time>2022-06-12T11:37:35Z</time>
      </trkpt>
      <trkpt lat="44.51037" lon="6.7458">
        <ele>1433.3</ele>
        <time>2022-06-12T11:37:36Z</time>
      </trkpt>
      <trkpt lat="44.51038" lon="6.74577">
        <ele>1433.7</ele>
        <time>2022-06-12T11:37:37Z</time>
      </trkpt>
      <trkpt lat="44.51039" lon="6.74574">
        <ele>1434.1</ele>
        <time>2022-06-12T11:37:38Z</time>
      </trkpt>
      <trkpt lat="44.51039" lon="6.7457">
        <ele>1434.4</ele>
        <time>2022-06-12T11:37:39Z</time>
      </trkpt>
      <trkpt lat="44.5104" lon="6.74567">
        <ele>1434.8</ele>
        <time>2022-06-12T11:37:40Z</time>
      </trkpt>
      <trkpt lat="44.5104" lon="6.74563">
        <ele>1435.2</ele>
        <time>2022-06-12T11:37:41Z</time>
      </trkpt>
      <trkpt lat="44.51041" lon="6.7456">
        <ele>1435.5</ele>
        <time>2022-06-12T11:37:42Z</time>
      </trkpt>
      <trkpt lat="44.51042" lon="6.74556">
        <ele>1435.9</ele>
        <time>2022-06-12T11:37:43Z</time>
      </trkpt>
      <trkpt lat="44.51042" lon="6.74553">
        <ele>1436</ele>
        <time>2022-06-12T11:37:44Z</time>
      </trkpt>
      <trkpt lat="44.51043" lon="6.7455">
        <ele>1436.1</ele>
        <time>2022-06-12T11:37:45Z</time>
      </trkpt>
      <trkpt lat="44.51044" lon="6.74546">
        <ele>1436.1</ele>
        <time>2022-06-12T11:37:46Z</time>
      </trkpt>
      <trkpt lat="44.51045" lon="6.74543">
        <ele>1436.2</ele>
        <time>2022-06-12T11:37:47Z</time>
      </trkpt>
      <trkpt lat="44.51045" lon="6.74539">
        <ele>1436.2</ele>
        <time>2022-06-12T11:37:48Z</time>
      </trkpt>
      <trkpt lat="44.51046" lon="6.74536">
        <ele>1436.2</ele>
        <time>2022-06-12T11:37:49Z</time>
      </trkpt>
      <trkpt lat="44.51047" lon="6.74533">
        <ele>1436.2</ele>
        <time>2022-06-12T11:37:50Z</time>
      </trkpt>
      <trkpt lat="44.51048" lon="6.7453">
        <ele>1436.2</ele>
        <time>2022-06-12T11:37:51Z</time>
      </trkpt>
      <trkpt lat="44.5105" lon="6.74527">
        <ele>1436.2</ele>
        <time>2022-06-12T11:37:52Z</time>
      </trkpt>
      <trkpt lat="44.51051" lon="6.74525">
        <ele>1436.3</ele>
        <time>2022-06-12T11:37:53Z</time>
      </trkpt>
      <trkpt lat="44.51052" lon="6.74522">
        <ele>1436.4</ele>
        <time>2022-06-12T11:37:54Z</time>
      </trkpt>
      <trkpt lat="44.51054" lon="6.74519">
        <ele>1436.4</ele>
        <time>2022-06-12T11:37:55Z</time>
      </trkpt>
      <trkpt lat="44.51055" lon="6.74517">
        <ele>1436.4</ele>
        <time>2022-06-12T11:37:56Z</time>
      </trkpt>
      <trkpt lat="44.51057" lon="6.74514">
        <ele>1436.6</ele>
        <time>2022-06-12T11:37:57Z</time>
      </trkpt>
      <trkpt lat="44.51058" lon="6.74512">
        <ele>1436.7</ele>
        <time>2022-06-12T11:37:58Z</time>
      </trkpt>
      <trkpt lat="44.5106" lon="6.74509">
        <ele>1436.9</ele>
        <time>2022-06-12T11:37:59Z</time>
      </trkpt>
      <trkpt lat="44.51062" lon="6.74507">
        <ele>1437.1</ele>
        <time>2022-06-12T11:38:00Z</time>
      </trkpt>
      <trkpt lat="44.51063" lon="6.74504">
        <ele>1437.3</ele>
        <time>2022-06-12T11:38:01Z</time>
      </trkpt>
      <trkpt lat="44.51065" lon="6.74502">
        <ele>1437.6</ele>
        <time>2022-06-12T11:38:02Z</time>
      </trkpt>
      <trkpt lat="44.51067" lon="6.745">
        <ele>1437.8</ele>
        <time>2022-06-12T11:38:03Z</time>
      </trkpt>
      <trkpt lat="44.51068" lon="6.74497">
        <ele>1438.2</ele>
        <time>2022-06-12T11:38:04Z</time>
      </trkpt>
      <trkpt lat="44.5107" lon="6.74494">
        <ele>1438.5</ele>
        <time>2022-06-12T11:38:05Z</time>
      </trkpt>
      <trkpt lat="44.51071" lon="6.74492">
        <ele>1438.8</ele>
        <time>2022-06-12T11:38:06Z</time>
      </trkpt>
      <trkpt lat="44.51073" lon="6.74489">
        <ele>1439.1</ele>
        <time>2022-06-12T11:38:07Z</time>
      </trkpt>
      <trkpt lat="44.51075" lon="6.74487">
        <ele>1439.3</ele>
        <time>2022-06-12T11:38:08Z</time>
      </trkpt>
      <trkpt lat="44.51076" lon="6.74485">
        <ele>1439.5</ele>
        <time>2022-06-12T11:38:09Z</time>
      </trkpt>
      <trkpt lat="44.51078" lon="6.74482">
        <ele>1439.6</ele>
        <time>2022-06-12T11:38:10Z</time>
      </trkpt>
      <trkpt lat="44.5108" lon="6.7448">
        <ele>1439.7</ele>
        <time>2022-06-12T11:38:11Z</time>
      </trkpt>
      <trkpt lat="44.51082" lon="6.74478">
        <ele>1439.8</ele>
        <time>2022-06-12T11:38:12Z</time>
      </trkpt>
      <trkpt lat="44.51083" lon="6.74475">
        <ele>1439.9</ele>
        <time>2022-06-12T11:38:13Z</time>
      </trkpt>
      <trkpt lat="44.51085" lon="6.74473">
        <ele>1440</ele>
        <time>2022-06-12T11:38:14Z</time>
      </trkpt>
      <trkpt lat="44.51087" lon="6.7447">
        <ele>1440.3</ele>
        <time>2022-06-12T11:38:15Z</time>
      </trkpt>
      <trkpt lat="44.51089" lon="6.74468">
        <ele>1440.6</ele>
        <time>2022-06-12T11:38:16Z</time>
      </trkpt>
      <trkpt lat="44.5109" lon="6.74465">
        <ele>1440.8</ele>
        <time>2022-06-12T11:38:17Z</time>
      </trkpt>
      <trkpt lat="44.51092" lon="6.74463">
        <ele>1441</ele>
        <time>2022-06-12T11:38:18Z</time>
      </trkpt>
      <trkpt lat="44.51094" lon="6.7446">
        <ele>1441.2</ele>
        <time>2022-06-12T11:38:19Z</time>
      </trkpt>
      <trkpt lat="44.51096" lon="6.74458">
        <ele>1441.3</ele>
        <time>2022-06-12T11:38:20Z</time>
      </trkpt>
      <trkpt lat="44.51098" lon="6.74456">
        <ele>1441.4</ele>
        <time>2022-06-12T11:38:21Z</time>
      </trkpt>
      <trkpt lat="44.51099" lon="6.74454">
        <ele>1441.4</ele>
        <time>2022-06-12T11:38:22Z</time>
      </trkpt>
      <trkpt lat="44.51101" lon="6.74451">
        <ele>1441.5</ele>
        <time>2022-06-12T11:38:23Z</time>
      </trkpt>
      <trkpt lat="44.51103" lon="6.74449">
        <ele>1441.5</ele>
        <time>2022-06-12T11:38:24Z</time>
      </trkpt>
      <trkpt lat="44.51105" lon="6.74446">
        <ele>1441.4</ele>
        <time>2022-06-12T11:38:25Z</time>
      </trkpt>
      <trkpt lat="44.51107" lon="6.74445">
        <ele>1441.3</ele>
        <time>2022-06-12T11:38:26Z</time>
      </trkpt>
      <trkpt lat="44.51109" lon="6.74443">
        <ele>1441.3</ele>
        <time>2022-06-12T11:38:27Z</time>
      </trkpt>
      <trkpt lat="44.51112" lon="6.74441">
        <ele>1441.4</ele>
        <time>2022-06-12T11:38:28Z</time>
      </trkpt>
      <trkpt lat="44.51114" lon="6.74439">
        <ele>1441.8</ele>
        <time>2022-06-12T11:38:29Z</time>
      </trkpt>
      <trkpt lat="44.51116" lon="6.74437">
        <ele>1442.1</ele>
        <time>2022-06-12T11:38:30Z</time>
      </trkpt>
      <trkpt lat="44.51119" lon="6.74435">
        <ele>1442.4</ele>
        <time>2022-06-12T11:38:31Z</time>
      </trkpt>
      <trkpt lat="44.51121" lon="6.74434">
        <ele>1442.6</ele>
        <time>2022-06-12T11:38:32Z</time>
      </trkpt>
      <trkpt lat="44.51124" lon="6.74433">
        <ele>1442.9</ele>
        <time>2022-06-12T11:38:33Z</time>
      </trkpt>
      <trkpt lat="44.51127" lon="6.74432">
        <ele>1443.2</ele>
        <time>2022-06-12T11:38:34Z</time>
      </trkpt>
      <trkpt lat="44.5113" lon="6.74431">
        <ele>1443.5</ele>
        <time>2022-06-12T11:38:35Z</time>
      </trkpt>
      <trkpt lat="44.51132" lon="6.74429">
        <ele>1443.8</ele>
        <time>2022-06-12T11:38:36Z</time>
      </trkpt>
      <trkpt lat="44.51135" lon="6.74428">
        <ele>1444.1</ele>
        <time>2022-06-12T11:38:37Z</time>
      </trkpt>
      <trkpt lat="44.51138" lon="6.74427">
        <ele>1444.4</ele>
        <time>2022-06-12T11:38:38Z</time>
      </trkpt>
      <trkpt lat="44.5114" lon="6.74427">
        <ele>1444.7</ele>
        <time>2022-06-12T11:38:39Z</time>
      </trkpt>
      <trkpt lat="44.51143" lon="6.74426">
        <ele>1445</ele>
        <time>2022-06-12T11:38:40Z</time>
      </trkpt>
      <trkpt lat="44.51146" lon="6.74425">
        <ele>1445.5</ele>
        <time>2022-06-12T11:38:41Z</time>
      </trkpt>
      <trkpt lat="44.51148" lon="6.74425">
        <ele>1445.8</ele>
        <time>2022-06-12T11:38:42Z</time>
      </trkpt>
      <trkpt lat="44.51151" lon="6.74425">
        <ele>1446.1</ele>
        <time>2022-06-12T11:38:43Z</time>
      </trkpt>
      <trkpt lat="44.51154" lon="6.74425">
        <ele>1446.3</ele>
        <time>2022-06-12T11:38:44Z</time>
      </trkpt>
      <trkpt lat="44.51157" lon="6.74425">
        <ele>1446.5</ele>
        <time>2022-06-12T11:38:45Z</time>
      </trkpt>
      <trkpt lat="44.51159" lon="6.74425">
        <ele>1446.7</ele>
        <time>2022-06-12T11:38:46Z</time>
      </trkpt>
      <trkpt lat="44.51162" lon="6.74426">
        <ele>1447</ele>
        <time>2022-06-12T11:38:47Z</time>
      </trkpt>
      <trkpt lat="44.51165" lon="6.74426">
        <ele>1447.2</ele>
        <time>2022-06-12T11:38:48Z</time>
      </trkpt>
      <trkpt lat="44.51168" lon="6.74426">
        <ele>1447.5</ele>
        <time>2022-06-12T11:38:49Z</time>
      </trkpt>
      <trkpt lat="44.5117" lon="6.74426">
        <ele>1447.8</ele>
        <time>2022-06-12T11:38:50Z</time>
      </trkpt>
      <trkpt lat="44.51173" lon="6.74427">
        <ele>1448</ele>
        <time>2022-06-12T11:38:51Z</time>
      </trkpt>
      <trkpt lat="44.51175" lon="6.74427">
        <ele>1448.1</ele>
        <time>2022-06-12T11:38:52Z</time>
      </trkpt>
      <trkpt lat="44.51177" lon="6.74428">
        <ele>1448.3</ele>
        <time>2022-06-12T11:38:53Z</time>
      </trkpt>
      <trkpt lat="44.5118" lon="6.74428">
        <ele>1448.4</ele>
        <time>2022-06-12T11:38:54Z</time>
      </trkpt>
      <trkpt lat="44.51182" lon="6.74428">
        <ele>1448.7</ele>
        <time>2022-06-12T11:38:55Z</time>
      </trkpt>
      <trkpt lat="44.51185" lon="6.74429">
        <ele>1448.9</ele>
        <time>2022-06-12T11:38:56Z</time>
      </trkpt>
      <trkpt lat="44.51187" lon="6.74429">
        <ele>1449.2</ele>
        <time>2022-06-12T11:38:57Z</time>
      </trkpt>
      <trkpt lat="44.5119" lon="6.74429">
        <ele>1449.3</ele>
        <time>2022-06-12T11:38:58Z</time>
      </trkpt>
      <trkpt lat="44.51192" lon="6.7443">
        <ele>1449.5</ele>
        <time>2022-06-12T11:38:59Z</time>
      </trkpt>
      <trkpt lat="44.51195" lon="6.74431">
        <ele>1449.6</ele>
        <time>2022-06-12T11:39:00Z</time>
      </trkpt>
      <trkpt lat="44.51198" lon="6.74431">
        <ele>1449.7</ele>
        <time>2022-06-12T11:39:01Z</time>
      </trkpt>
      <trkpt lat="44.51201" lon="6.74432">
        <ele>1449.9</ele>
        <time>2022-06-12T11:39:02Z</time>
      </trkpt>
      <trkpt lat="44.51204" lon="6.74432">
        <ele>1450.1</ele>
        <time>2022-06-12T11:39:03Z</time>
      </trkpt>
      <trkpt lat="44.51206" lon="6.74432">
        <ele>1450.3</ele>
        <time>2022-06-12T11:39:04Z</time>
      </trkpt>
      <trkpt lat="44.51209" lon="6.74433">
        <ele>1450.4</ele>
        <time>2022-06-12T11:39:05Z</time>
      </trkpt>
      <trkpt lat="44.51212" lon="6.74433">
        <ele>1450.6</ele>
        <time>2022-06-12T11:39:06Z</time>
      </trkpt>
      <trkpt lat="44.51215" lon="6.74433">
        <ele>1450.8</ele>
        <time>2022-06-12T11:39:07Z</time>
      </trkpt>
      <trkpt lat="44.51217" lon="6.74434">
        <ele>1451</ele>
        <time>2022-06-12T11:39:08Z</time>
      </trkpt>
      <trkpt lat="44.5122" lon="6.74434">
        <ele>1451.2</ele>
        <time>2022-06-12T11:39:09Z</time>
      </trkpt>
      <trkpt lat="44.51223" lon="6.74433">
        <ele>1451.6</ele>
        <time>2022-06-12T11:39:10Z</time>
      </trkpt>
      <trkpt lat="44.51227" lon="6.74433">
        <ele>1451.8</ele>
        <time>2022-06-12T11:39:11Z</time>
      </trkpt>
      <trkpt lat="44.5123" lon="6.74432">
        <ele>1451.9</ele>
        <time>2022-06-12T11:39:12Z</time>
      </trkpt>
      <trkpt lat="44.51233" lon="6.74432">
        <ele>1452.1</ele>
        <time>2022-06-12T11:39:13Z</time>
      </trkpt>
      <trkpt lat="44.51236" lon="6.74432">
        <ele>1452.2</ele>
        <time>2022-06-12T11:39:14Z</time>
      </trkpt>
      <trkpt lat="44.51239" lon="6.74431">
        <ele>1452.3</ele>
        <time>2022-06-12T11:39:15Z</time>
      </trkpt>
      <trkpt lat="44.51242" lon="6.74431">
        <ele>1452.4</ele>
        <time>2022-06-12T11:39:16Z</time>
      </trkpt>
      <trkpt lat="44.51245" lon="6.74431">
        <ele>1452.5</ele>
        <time>2022-06-12T11:39:17Z</time>
      </trkpt>
      <trkpt lat="44.51249" lon="6.7443">
        <ele>1452.7</ele>
        <time>2022-06-12T11:39:18Z</time>
      </trkpt>
      <trkpt lat="44.51253" lon="6.74429">
        <ele>1452.8</ele>
        <time>2022-06-12T11:39:19Z</time>
      </trkpt>
      <trkpt lat="44.51256" lon="6.74429">
        <ele>1452.8</ele>
        <time>2022-06-12T11:39:20Z</time>
      </trkpt>
      <trkpt lat="44.51259" lon="6.74428">
        <ele>1452.9</ele>
        <time>2022-06-12T11:39:21Z</time>
      </trkpt>
      <trkpt lat="44.51263" lon="6.74428">
        <ele>1452.7</ele>
        <time>2022-06-12T11:39:22Z</time>
      </trkpt>
      <trkpt lat="44.51266" lon="6.74428">
        <ele>1452.6</ele>
        <time>2022-06-12T11:39:23Z</time>
      </trkpt>
      <trkpt lat="44.51269" lon="6.74427">
        <ele>1452.4</ele>
        <time>2022-06-12T11:39:24Z</time>
      </trkpt>
      <trkpt lat="44.51272" lon="6.74427">
        <ele>1452.3</ele>
        <time>2022-06-12T11:39:25Z</time>
      </trkpt>
      <trkpt lat="44.51275" lon="6.74427">
        <ele>1452.2</ele>
        <time>2022-06-12T11:39:26Z</time>
      </trkpt>
      <trkpt lat="44.51279" lon="6.74427">
        <ele>1452.1</ele>
        <time>2022-06-12T11:39:27Z</time>
      </trkpt>
      <trkpt lat="44.51282" lon="6.74427">
        <ele>1452</ele>
        <time>2022-06-12T11:39:28Z</time>
      </trkpt>
      <trkpt lat="44.51286" lon="6.74427">
        <ele>1451.9</ele>
        <time>2022-06-12T11:39:29Z</time>
      </trkpt>
      <trkpt lat="44.51289" lon="6.74427">
        <ele>1451.9</ele>
        <time>2022-06-12T11:39:30Z</time>
      </trkpt>
      <trkpt lat="44.51293" lon="6.74426">
        <ele>1451.9</ele>
        <time>2022-06-12T11:39:31Z</time>
      </trkpt>
      <trkpt lat="44.51296" lon="6.74426">
        <ele>1451.8</ele>
        <time>2022-06-12T11:39:32Z</time>
      </trkpt>
      <trkpt lat="44.51299" lon="6.74427">
        <ele>1451.7</ele>
        <time>2022-06-12T11:39:33Z</time>
      </trkpt>
      <trkpt lat="44.51303" lon="6.74427">
        <ele>1451.6</ele>
        <time>2022-06-12T11:39:34Z</time>
      </trkpt>
      <trkpt lat="44.51306" lon="6.74427">
        <ele>1451.5</ele>
        <time>2022-06-12T11:39:35Z</time>
      </trkpt>
      <trkpt lat="44.5131" lon="6.74426">
        <ele>1451.5</ele>
        <time>2022-06-12T11:39:36Z</time>
      </trkpt>
      <trkpt lat="44.51313" lon="6.74426">
        <ele>1451.6</ele>
        <time>2022-06-12T11:39:37Z</time>
      </trkpt>
      <trkpt lat="44.51317" lon="6.74425">
        <ele>1451.7</ele>
        <time>2022-06-12T11:39:38Z</time>
      </trkpt>
      <trkpt lat="44.51321" lon="6.74425">
        <ele>1451.8</ele>
        <time>2022-06-12T11:39:39Z</time>
      </trkpt>
      <trkpt lat="44.51324" lon="6.74425">
        <ele>1451.8</ele>
        <time>2022-06-12T11:39:40Z</time>
      </trkpt>
      <trkpt lat="44.51328" lon="6.74424">
        <ele>1451.9</ele>
        <time>2022-06-12T11:39:41Z</time>
      </trkpt>
      <trkpt lat="44.51332" lon="6.74424">
        <ele>1451.9</ele>
        <time>2022-06-12T11:39:42Z</time>
      </trkpt>
      <trkpt lat="44.51336" lon="6.74424">
        <ele>1452</ele>
        <time>2022-06-12T11:39:43Z</time>
      </trkpt>
      <trkpt lat="44.5134" lon="6.74423">
        <ele>1452.1</ele>
        <time>2022-06-12T11:39:44Z</time>
      </trkpt>
      <trkpt lat="44.51344" lon="6.74423">
        <ele>1452.3</ele>
        <time>2022-06-12T11:39:45Z</time>
      </trkpt>
      <trkpt lat="44.51348" lon="6.74423">
        <ele>1452.3</ele>
        <time>2022-06-12T11:39:46Z</time>
      </trkpt>
      <trkpt lat="44.51351" lon="6.74423">
        <ele>1452.5</ele>
        <time>2022-06-12T11:39:47Z</time>
      </trkpt>
      <trkpt lat="44.51356" lon="6.74422">
        <ele>1452.6</ele>
        <time>2022-06-12T11:39:48Z</time>
      </trkpt>
      <trkpt lat="44.5136" lon="6.74422">
        <ele>1452.8</ele>
        <time>2022-06-12T11:39:49Z</time>
      </trkpt>
      <trkpt lat="44.51364" lon="6.74421">
        <ele>1453</ele>
        <time>2022-06-12T11:39:50Z</time>
      </trkpt>
      <trkpt lat="44.51367" lon="6.74421">
        <ele>1453.1</ele>
        <time>2022-06-12T11:39:51Z</time>
      </trkpt>
      <trkpt lat="44.51371" lon="6.7442">
        <ele>1453.1</ele>
        <time>2022-06-12T11:39:52Z</time>
      </trkpt>
      <trkpt lat="44.51375" lon="6.7442">
        <ele>1453.3</ele>
        <time>2022-06-12T11:39:53Z</time>
      </trkpt>
      <trkpt lat="44.51379" lon="6.74419">
        <ele>1453.5</ele>
        <time>2022-06-12T11:39:54Z</time>
      </trkpt>
      <trkpt lat="44.51383" lon="6.74419">
        <ele>1453.6</ele>
        <time>2022-06-12T11:39:55Z</time>
      </trkpt>
      <trkpt lat="44.51386" lon="6.74418">
        <ele>1453.7</ele>
        <time>2022-06-12T11:39:56Z</time>
      </trkpt>
      <trkpt lat="44.5139" lon="6.74418">
        <ele>1453.8</ele>
        <time>2022-06-12T11:39:57Z</time>
      </trkpt>
      <trkpt lat="44.51394" lon="6.74417">
        <ele>1453.9</ele>
        <time>2022-06-12T11:39:58Z</time>
      </trkpt>
      <trkpt lat="44.51398" lon="6.74417">
        <ele>1453.9</ele>
        <time>2022-06-12T11:39:59Z</time>
      </trkpt>
      <trkpt lat="44.51401" lon="6.74417">
        <ele>1454</ele>
        <time>2022-06-12T11:40:00Z</time>
      </trkpt>
      <trkpt lat="44.51405" lon="6.74417">
        <ele>1454</ele>
        <time>2022-06-12T11:40:01Z</time>
      </trkpt>
      <trkpt lat="44.51409" lon="6.74417">
        <ele>1454</ele>
        <time>2022-06-12T11:40:02Z</time>
      </trkpt>
      <trkpt lat="44.51413" lon="6.74417">
        <ele>1454.1</ele>
        <time>2022-06-12T11:40:03Z</time>
      </trkpt>
      <trkpt lat="44.51417" lon="6.74416">
        <ele>1454.1</ele>
        <time>2022-06-12T11:40:04Z</time>
      </trkpt>
      <trkpt lat="44.51421" lon="6.74416">
        <ele>1454.4</ele>
        <time>2022-06-12T11:40:05Z</time>
      </trkpt>
      <trkpt lat="44.51424" lon="6.74416">
        <ele>1454.7</ele>
        <time>2022-06-12T11:40:06Z</time>
      </trkpt>
      <trkpt lat="44.51428" lon="6.74415">
        <ele>1455</ele>
        <time>2022-06-12T11:40:07Z</time>
      </trkpt>
      <trkpt lat="44.51432" lon="6.74415">
        <ele>1455.1</ele>
        <time>2022-06-12T11:40:08Z</time>
      </trkpt>
      <trkpt lat="44.51436" lon="6.74415">
        <ele>1455.3</ele>
        <time>2022-06-12T11:40:09Z</time>
      </trkpt>
      <trkpt lat="44.5144" lon="6.74415">
        <ele>1455.4</ele>
        <time>2022-06-12T11:40:10Z</time>
      </trkpt>
      <trkpt lat="44.51443" lon="6.74415">
        <ele>1455.7</ele>
        <time>2022-06-12T11:40:11Z</time>
      </trkpt>
      <trkpt lat="44.51447" lon="6.74414">
        <ele>1455.9</ele>
        <time>2022-06-12T11:40:12Z</time>
      </trkpt>
      <trkpt lat="44.51451" lon="6.74414">
        <ele>1456.1</ele>
        <time>2022-06-12T11:40:13Z</time>
      </trkpt>
      <trkpt lat="44.51454" lon="6.74414">
        <ele>1456.3</ele>
        <time>2022-06-12T11:40:14Z</time>
      </trkpt>
      <trkpt lat="44.51458" lon="6.74413">
        <ele>1456.5</ele>
        <time>2022-06-12T11:40:15Z</time>
      </trkpt>
      <trkpt lat="44.51461" lon="6.74413">
        <ele>1456.7</ele>
        <time>2022-06-12T11:40:16Z</time>
      </trkpt>
      <trkpt lat="44.51465" lon="6.74413">
        <ele>1456.9</ele>
        <time>2022-06-12T11:40:17Z</time>
      </trkpt>
      <trkpt lat="44.51468" lon="6.74412">
        <ele>1457</ele>
        <time>2022-06-12T11:40:18Z</time>
      </trkpt>
      <trkpt lat="44.51471" lon="6.74412">
        <ele>1457.1</ele>
        <time>2022-06-12T11:40:19Z</time>
      </trkpt>
      <trkpt lat="44.51475" lon="6.74412">
        <ele>1457.2</ele>
        <time>2022-06-12T11:40:20Z</time>
      </trkpt>
      <trkpt lat="44.51478" lon="6.74412">
        <ele>1457.1</ele>
        <time>2022-06-12T11:40:21Z</time>
      </trkpt>
      <trkpt lat="44.51481" lon="6.74411">
        <ele>1457</ele>
        <time>2022-06-12T11:40:22Z</time>
      </trkpt>
      <trkpt lat="44.51485" lon="6.74411">
        <ele>1457</ele>
        <time>2022-06-12T11:40:23Z</time>
      </trkpt>
      <trkpt lat="44.51488" lon="6.74411">
        <ele>1457</ele>
        <time>2022-06-12T11:40:24Z</time>
      </trkpt>
      <trkpt lat="44.51492" lon="6.7441">
        <ele>1456.9</ele>
        <time>2022-06-12T11:40:25Z</time>
      </trkpt>
      <trkpt lat="44.51495" lon="6.7441">
        <ele>1456.9</ele>
        <time>2022-06-12T11:40:26Z</time>
      </trkpt>
      <trkpt lat="44.51499" lon="6.7441">
        <ele>1456.8</ele>
        <time>2022-06-12T11:40:27Z</time>
      </trkpt>
      <trkpt lat="44.51503" lon="6.7441">
        <ele>1456.8</ele>
        <time>2022-06-12T11:40:28Z</time>
      </trkpt>
      <trkpt lat="44.51506" lon="6.74409">
        <ele>1456.8</ele>
        <time>2022-06-12T11:40:29Z</time>
      </trkpt>
      <trkpt lat="44.5151" lon="6.74408">
        <ele>1456.9</ele>
        <time>2022-06-12T11:40:30Z</time>
      </trkpt>
      <trkpt lat="44.51514" lon="6.74408">
        <ele>1456.8</ele>
        <time>2022-06-12T11:40:31Z</time>
      </trkpt>
      <trkpt lat="44.51518" lon="6.74408">
        <ele>1456.8</ele>
        <time>2022-06-12T11:40:32Z</time>
      </trkpt>
      <trkpt lat="44.51522" lon="6.74408">
        <ele>1456.7</ele>
        <time>2022-06-12T11:40:33Z</time>
      </trkpt>
      <trkpt lat="44.51525" lon="6.74408">
        <ele>1456.6</ele>
        <time>2022-06-12T11:40:34Z</time>
      </trkpt>
      <trkpt lat="44.51529" lon="6.74408">
        <ele>1456.5</ele>
        <time>2022-06-12T11:40:35Z</time>
      </trkpt>
      <trkpt lat="44.51533" lon="6.74409">
        <ele>1456.3</ele>
        <time>2022-06-12T11:40:36Z</time>
      </trkpt>
      <trkpt lat="44.51537" lon="6.7441">
        <ele>1456</ele>
        <time>2022-06-12T11:40:37Z</time>
      </trkpt>
      <trkpt lat="44.5154" lon="6.74411">
        <ele>1455.6</ele>
        <time>2022-06-12T11:40:38Z</time>
      </trkpt>
      <trkpt lat="44.51544" lon="6.74414">
        <ele>1455</ele>
        <time>2022-06-12T11:40:39Z</time>
      </trkpt>
      <trkpt lat="44.51548" lon="6.74417">
        <ele>1454.3</ele>
        <time>2022-06-12T11:40:40Z</time>
      </trkpt>
      <trkpt lat="44.51551" lon="6.7442">
        <ele>1454.2</ele>
        <time>2022-06-12T11:40:41Z</time>
      </trkpt>
      <trkpt lat="44.51554" lon="6.74424">
        <ele>1454.3</ele>
        <time>2022-06-12T11:40:42Z</time>
      </trkpt>
      <trkpt lat="44.51556" lon="6.74429">
        <ele>1454.6</ele>
        <time>2022-06-12T11:40:43Z</time>
      </trkpt>
      <trkpt lat="44.51558" lon="6.74434">
        <ele>1455.2</ele>
        <time>2022-06-12T11:40:44Z</time>
      </trkpt>
      <trkpt lat="44.5156" lon="6.7444">
        <ele>1455.8</ele>
        <time>2022-06-12T11:40:45Z</time>
      </trkpt>
      <trkpt lat="44.51561" lon="6.74446">
        <ele>1456.7</ele>
        <time>2022-06-12T11:40:46Z</time>
      </trkpt>
      <trkpt lat="44.51561" lon="6.74452">
        <ele>1458.4</ele>
        <time>2022-06-12T11:40:47Z</time>
      </trkpt>
      <trkpt lat="44.51561" lon="6.74458">
        <ele>1459.8</ele>
        <time>2022-06-12T11:40:48Z</time>
      </trkpt>
      <trkpt lat="44.5156" lon="6.74463">
        <ele>1460.7</ele>
        <time>2022-06-12T11:40:49Z</time>
      </trkpt>
      <trkpt lat="44.51558" lon="6.74469">
        <ele>1461.3</ele>
        <time>2022-06-12T11:40:50Z</time>
      </trkpt>
      <trkpt lat="44.51556" lon="6.74474">
        <ele>1461.7</ele>
        <time>2022-06-12T11:40:51Z</time>
      </trkpt>
      <trkpt lat="44.51554" lon="6.74479">
        <ele>1462.5</ele>
        <time>2022-06-12T11:40:52Z</time>
      </trkpt>
      <trkpt lat="44.51552" lon="6.74484">
        <ele>1463.3</ele>
        <time>2022-06-12T11:40:53Z</time>
      </trkpt>
      <trkpt lat="44.5155" lon="6.74489">
        <ele>1464</ele>
        <time>2022-06-12T11:40:54Z</time>
      </trkpt>
      <trkpt lat="44.51548" lon="6.74494">
        <ele>1464.6</ele>
        <time>2022-06-12T11:40:55Z</time>
      </trkpt>
      <trkpt lat="44.51547" lon="6.74499">
        <ele>1465.2</ele>
        <time>2022-06-12T11:40:56Z</time>
      </trkpt>
      <trkpt lat="44.51545" lon="6.74505">
        <ele>1465.9</ele>
        <time>2022-06-12T11:40:57Z</time>
      </trkpt>
      <trkpt lat="44.51544" lon="6.74511">
        <ele>1466.6</ele>
        <time>2022-06-12T11:40:58Z</time>
      </trkpt>
      <trkpt lat="44.51542" lon="6.74516">
        <ele>1467.2</ele>
        <time>2022-06-12T11:40:59Z</time>
      </trkpt>
      <trkpt lat="44.51541" lon="6.74522">
        <ele>1467.9</ele>
        <time>2022-06-12T11:41:00Z</time>
      </trkpt>
      <trkpt lat="44.51539" lon="6.74528">
        <ele>1468.6</ele>
        <time>2022-06-12T11:41:01Z</time>
      </trkpt>
      <trkpt lat="44.51538" lon="6.74534">
        <ele>1469</ele>
        <time>2022-06-12T11:41:02Z</time>
      </trkpt>
      <trkpt lat="44.51537" lon="6.7454">
        <ele>1469.2</ele>
        <time>2022-06-12T11:41:03Z</time>
      </trkpt>
      <trkpt lat="44.51535" lon="6.74547">
        <ele>1469.4</ele>
        <time>2022-06-12T11:41:04Z</time>
      </trkpt>
      <trkpt lat="44.51533" lon="6.74554">
        <ele>1469.5</ele>
        <time>2022-06-12T11:41:05Z</time>
      </trkpt>
      <trkpt lat="44.51531" lon="6.7456">
        <ele>1469.6</ele>
        <time>2022-06-12T11:41:06Z</time>
      </trkpt>
      <trkpt lat="44.51529" lon="6.74567">
        <ele>1469.6</ele>
        <time>2022-06-12T11:41:07Z</time>
      </trkpt>
      <trkpt lat="44.51526" lon="6.74574">
        <ele>1469.5</ele>
        <time>2022-06-12T11:41:08Z</time>
      </trkpt>
      <trkpt lat="44.51524" lon="6.74581">
        <ele>1469.1</ele>
        <time>2022-06-12T11:41:09Z</time>
      </trkpt>
      <trkpt lat="44.51521" lon="6.74587">
        <ele>1468.4</ele>
        <time>2022-06-12T11:41:10Z</time>
      </trkpt>
      <trkpt lat="44.51517" lon="6.74593">
        <ele>1467.5</ele>
        <time>2022-06-12T11:41:11Z</time>
      </trkpt>
      <trkpt lat="44.51514" lon="6.74599">
        <ele>1466.6</ele>
        <time>2022-06-12T11:41:12Z</time>
      </trkpt>
      <trkpt lat="44.51511" lon="6.74605">
        <ele>1465.7</ele>
        <time>2022-06-12T11:41:13Z</time>
      </trkpt>
      <trkpt lat="44.51507" lon="6.74611">
        <ele>1464.8</ele>
        <time>2022-06-12T11:41:14Z</time>
      </trkpt>
      <trkpt lat="44.51504" lon="6.74617">
        <ele>1464.1</ele>
        <time>2022-06-12T11:41:15Z</time>
      </trkpt>
      <trkpt lat="44.515" lon="6.74622">
        <ele>1463.4</ele>
        <time>2022-06-12T11:41:16Z</time>
      </trkpt>
      <trkpt lat="44.51497" lon="6.74628">
        <ele>1463.2</ele>
        <time>2022-06-12T11:41:17Z</time>
      </trkpt>
      <trkpt lat="44.51494" lon="6.74633">
        <ele>1462.8</ele>
        <time>2022-06-12T11:41:18Z</time>
      </trkpt>
      <trkpt lat="44.5149" lon="6.74639">
        <ele>1462.4</ele>
        <time>2022-06-12T11:41:19Z</time>
      </trkpt>
      <trkpt lat="44.51487" lon="6.74644">
        <ele>1461.7</ele>
        <time>2022-06-12T11:41:20Z</time>
      </trkpt>
      <trkpt lat="44.51484" lon="6.7465">
        <ele>1461</ele>
        <time>2022-06-12T11:41:21Z</time>
      </trkpt>
      <trkpt lat="44.51481" lon="6.74656">
        <ele>1460.8</ele>
        <time>2022-06-12T11:41:22Z</time>
      </trkpt>
      <trkpt lat="44.51478" lon="6.74663">
        <ele>1460.8</ele>
        <time>2022-06-12T11:41:23Z</time>
      </trkpt>
      <trkpt lat="44.51476" lon="6.74669">
        <ele>1460.8</ele>
        <time>2022-06-12T11:41:24Z</time>
      </trkpt>
      <trkpt lat="44.51474" lon="6.74676">
        <ele>1460.7</ele>
        <time>2022-06-12T11:41:25Z</time>
      </trkpt>
      <trkpt lat="44.51473" lon="6.74684">
        <ele>1461</ele>
        <time>2022-06-12T11:41:26Z</time>
      </trkpt>
      <trkpt lat="44.51471" lon="6.74692">
        <ele>1461.4</ele>
        <time>2022-06-12T11:41:27Z</time>
      </trkpt>
      <trkpt lat="44.5147" lon="6.747">
        <ele>1461.7</ele>
        <time>2022-06-12T11:41:28Z</time>
      </trkpt>
      <trkpt lat="44.5147" lon="6.74708">
        <ele>1461.8</ele>
        <time>2022-06-12T11:41:29Z</time>
      </trkpt>
      <trkpt lat="44.51469" lon="6.74716">
        <ele>1462</ele>
        <time>2022-06-12T11:41:30Z</time>
      </trkpt>
      <trkpt lat="44.51468" lon="6.74723">
        <ele>1462.2</ele>
        <time>2022-06-12T11:41:31Z</time>
      </trkpt>
      <trkpt lat="44.51467" lon="6.74731">
        <ele>1462.4</ele>
        <time>2022-06-12T11:41:32Z</time>
      </trkpt>
      <trkpt lat="44.51466" lon="6.74738">
        <ele>1462.7</ele>
        <time>2022-06-12T11:41:33Z</time>
      </trkpt>
      <trkpt lat="44.51466" lon="6.74745">
        <ele>1463</ele>
        <time>2022-06-12T11:41:34Z</time>
      </trkpt>
      <trkpt lat="44.51465" lon="6.74752">
        <ele>1463.3</ele>
        <time>2022-06-12T11:41:35Z</time>
      </trkpt>
      <trkpt lat="44.51464" lon="6.74758">
        <ele>1463.7</ele>
        <time>2022-06-12T11:41:36Z</time>
      </trkpt>
      <trkpt lat="44.51464" lon="6.74765">
        <ele>1464.1</ele>
        <time>2022-06-12T11:41:37Z</time>
      </trkpt>
      <trkpt lat="44.51463" lon="6.74772">
        <ele>1464.4</ele>
        <time>2022-06-12T11:41:38Z</time>
      </trkpt>
      <trkpt lat="44.51462" lon="6.74779">
        <ele>1464.7</ele>
        <time>2022-06-12T11:41:39Z</time>
      </trkpt>
      <trkpt lat="44.51462" lon="6.74786">
        <ele>1464.9</ele>
        <time>2022-06-12T11:41:40Z</time>
      </trkpt>
      <trkpt lat="44.51461" lon="6.74793">
        <ele>1465</ele>
        <time>2022-06-12T11:41:41Z</time>
      </trkpt>
      <trkpt lat="44.51461" lon="6.748">
        <ele>1465</ele>
        <time>2022-06-12T11:41:42Z</time>
      </trkpt>
      <trkpt lat="44.5146" lon="6.74807">
        <ele>1465</ele>
        <time>2022-06-12T11:41:43Z</time>
      </trkpt>
      <trkpt lat="44.51459" lon="6.74814">
        <ele>1464.7</ele>
        <time>2022-06-12T11:41:44Z</time>
      </trkpt>
      <trkpt lat="44.51459" lon="6.7482">
        <ele>1464.6</ele>
        <time>2022-06-12T11:41:45Z</time>
      </trkpt>
      <trkpt lat="44.51458" lon="6.74827">
        <ele>1464.5</ele>
        <time>2022-06-12T11:41:46Z</time>
      </trkpt>
      <trkpt lat="44.51458" lon="6.74834">
        <ele>1464.4</ele>
        <time>2022-06-12T11:41:47Z</time>
      </trkpt>
      <trkpt lat="44.51458" lon="6.7484">
        <ele>1464.5</ele>
        <time>2022-06-12T11:41:48Z</time>
      </trkpt>
      <trkpt lat="44.51457" lon="6.74846">
        <ele>1464.4</ele>
        <time>2022-06-12T11:41:49Z</time>
      </trkpt>
      <trkpt lat="44.51457" lon="6.74852">
        <ele>1464.4</ele>
        <time>2022-06-12T11:41:50Z</time>
      </trkpt>
      <trkpt lat="44.51457" lon="6.74857">
        <ele>1464.4</ele>
        <time>2022-06-12T11:41:51Z</time>
      </trkpt>
      <trkpt lat="44.51457" lon="6.74862">
        <ele>1464.6</ele>
        <time>2022-06-12T11:41:52Z</time>
      </trkpt>
      <trkpt lat="44.51458" lon="6.74866">
        <ele>1464.8</ele>
        <time>2022-06-12T11:41:53Z</time>
      </trkpt>
      <trkpt lat="44.51458" lon="6.7487">
        <ele>1464.9</ele>
        <time>2022-06-12T11:41:54Z</time>
      </trkpt>
      <trkpt lat="44.51458" lon="6.74874">
        <ele>1464.8</ele>
        <time>2022-06-12T11:41:55Z</time>
      </trkpt>
      <trkpt lat="44.51457" lon="6.74878">
        <ele>1464.7</ele>
        <time>2022-06-12T11:41:56Z</time>
      </trkpt>
      <trkpt lat="44.51456" lon="6.74881">
        <ele>1464.5</ele>
        <time>2022-06-12T11:41:57Z</time>
      </trkpt>
      <trkpt lat="44.51456" lon="6.74885">
        <ele>1464.4</ele>
        <time>2022-06-12T11:41:58Z</time>
      </trkpt>
      <trkpt lat="44.51456" lon="6.74888">
        <ele>1464.4</ele>
        <time>2022-06-12T11:41:59Z</time>
      </trkpt>
      <trkpt lat="44.51457" lon="6.74892">
        <ele>1464.6</ele>
        <time>2022-06-12T11:42:00Z</time>
      </trkpt>
      <trkpt lat="44.51459" lon="6.74895">
        <ele>1464.9</ele>
        <time>2022-06-12T11:42:01Z</time>
      </trkpt>
      <trkpt lat="44.51461" lon="6.74899">
        <ele>1465.3</ele>
        <time>2022-06-12T11:42:02Z</time>
      </trkpt>
      <trkpt lat="44.51463" lon="6.74903">
        <ele>1465.6</ele>
        <time>2022-06-12T11:42:03Z</time>
      </trkpt>
      <trkpt lat="44.51465" lon="6.74908">
        <ele>1465.8</ele>
        <time>2022-06-12T11:42:04Z</time>
      </trkpt>
      <trkpt lat="44.51466" lon="6.74914">
        <ele>1466</ele>
        <time>2022-06-12T11:42:05Z</time>
      </trkpt>
      <trkpt lat="44.51467" lon="6.74919">
        <ele>1466.1</ele>
        <time>2022-06-12T11:42:06Z</time>
      </trkpt>
      <trkpt lat="44.51469" lon="6.74924">
        <ele>1466.3</ele>
        <time>2022-06-12T11:42:07Z</time>
      </trkpt>
      <trkpt lat="44.5147" lon="6.74929">
        <ele>1466.6</ele>
        <time>2022-06-12T11:42:08Z</time>
      </trkpt>
      <trkpt lat="44.51472" lon="6.74934">
        <ele>1466.9</ele>
        <time>2022-06-12T11:42:09Z</time>
      </trkpt>
      <trkpt lat="44.51473" lon="6.74938">
        <ele>1467.1</ele>
        <time>2022-06-12T11:42:10Z</time>
      </trkpt>
      <trkpt lat="44.51475" lon="6.74943">
        <ele>1467.3</ele>
        <time>2022-06-12T11:42:11Z</time>
      </trkpt>
      <trkpt lat="44.51476" lon="6.74948">
        <ele>1467.6</ele>
        <time>2022-06-12T11:42:12Z</time>
      </trkpt>
      <trkpt lat="44.51477" lon="6.74953">
        <ele>1468</ele>
        <time>2022-06-12T11:42:13Z</time>
      </trkpt>
      <trkpt lat="44.51478" lon="6.74958">
        <ele>1468.3</ele>
        <time>2022-06-12T11:42:14Z</time>
      </trkpt>
      <trkpt lat="44.51479" lon="6.74964">
        <ele>1468.7</ele>
        <time>2022-06-12T11:42:15Z</time>
      </trkpt>
      <trkpt lat="44.5148" lon="6.74969">
        <ele>1469</ele>
        <time>2022-06-12T11:42:16Z</time>
      </trkpt>
      <trkpt lat="44.5148" lon="6.74975">
        <ele>1469.3</ele>
        <time>2022-06-12T11:42:17Z</time>
      </trkpt>
      <trkpt lat="44.5148" lon="6.74981">
        <ele>1469.4</ele>
        <time>2022-06-12T11:42:18Z</time>
      </trkpt>
      <trkpt lat="44.51479" lon="6.74987">
        <ele>1469.5</ele>
        <time>2022-06-12T11:42:19Z</time>
      </trkpt>
      <trkpt lat="44.51478" lon="6.74992">
        <ele>1469.5</ele>
        <time>2022-06-12T11:42:20Z</time>
      </trkpt>
      <trkpt lat="44.51475" lon="6.74996">
        <ele>1469.3</ele>
        <time>2022-06-12T11:42:21Z</time>
      </trkpt>
      <trkpt lat="44.51473" lon="6.74999">
        <ele>1469.1</ele>
        <time>2022-06-12T11:42:22Z</time>
      </trkpt>
      <trkpt lat="44.51471" lon="6.75002">
        <ele>1468.8</ele>
        <time>2022-06-12T11:42:23Z</time>
      </trkpt>
      <trkpt lat="44.51468" lon="6.75006">
        <ele>1468.4</ele>
        <time>2022-06-12T11:42:24Z</time>
      </trkpt>
      <trkpt lat="44.51466" lon="6.75009">
        <ele>1468.1</ele>
        <time>2022-06-12T11:42:25Z</time>
      </trkpt>
      <trkpt lat="44.51463" lon="6.75012">
        <ele>1467.8</ele>
        <time>2022-06-12T11:42:26Z</time>
      </trkpt>
      <trkpt lat="44.51461" lon="6.75017">
        <ele>1467.6</ele>
        <time>2022-06-12T11:42:27Z</time>
      </trkpt>
      <trkpt lat="44.51459" lon="6.75021">
        <ele>1467.4</ele>
        <time>2022-06-12T11:42:28Z</time>
      </trkpt>
      <trkpt lat="44.51458" lon="6.75026">
        <ele>1467.4</ele>
        <time>2022-06-12T11:42:29Z</time>
      </trkpt>
      <trkpt lat="44.51458" lon="6.7503">
        <ele>1467.4</ele>
        <time>2022-06-12T11:42:30Z</time>
      </trkpt>
      <trkpt lat="44.51458" lon="6.75035">
        <ele>1467.3</ele>
        <time>2022-06-12T11:42:31Z</time>
      </trkpt>
      <trkpt lat="44.51458" lon="6.75038">
        <ele>1467.3</ele>
        <time>2022-06-12T11:42:32Z</time>
      </trkpt>
      <trkpt lat="44.51459" lon="6.75042">
        <ele>1467.3</ele>
        <time>2022-06-12T11:42:33Z</time>
      </trkpt>
      <trkpt lat="44.51459" lon="6.75045">
        <ele>1467.3</ele>
        <time>2022-06-12T11:42:34Z</time>
      </trkpt>
      <trkpt lat="44.5146" lon="6.75048">
        <ele>1467.3</ele>
        <time>2022-06-12T11:42:35Z</time>
      </trkpt>
      <trkpt lat="44.5146" lon="6.75051">
        <ele>1467.3</ele>
        <time>2022-06-12T11:42:36Z</time>
      </trkpt>
      <trkpt lat="44.51461" lon="6.75054">
        <ele>1467.3</ele>
        <time>2022-06-12T11:42:37Z</time>
      </trkpt>
      <trkpt lat="44.51461" lon="6.75058">
        <ele>1467.3</ele>
        <time>2022-06-12T11:42:38Z</time>
      </trkpt>
      <trkpt lat="44.51461" lon="6.7506">
        <ele>1467.2</ele>
        <time>2022-06-12T11:42:39Z</time>
      </trkpt>
      <trkpt lat="44.51462" lon="6.75063">
        <ele>1467.2</ele>
        <time>2022-06-12T11:42:40Z</time>
      </trkpt>
      <trkpt lat="44.51463" lon="6.75065">
        <ele>1467.2</ele>
        <time>2022-06-12T11:42:41Z</time>
      </trkpt>
      <trkpt lat="44.51464" lon="6.75068">
        <ele>1467.2</ele>
        <time>2022-06-12T11:42:42Z</time>
      </trkpt>
      <trkpt lat="44.51465" lon="6.75071">
        <ele>1467.3</ele>
        <time>2022-06-12T11:42:43Z</time>
      </trkpt>
      <trkpt lat="44.51466" lon="6.75074">
        <ele>1467.3</ele>
        <time>2022-06-12T11:42:44Z</time>
      </trkpt>
      <trkpt lat="44.51468" lon="6.75077">
        <ele>1467.4</ele>
        <time>2022-06-12T11:42:45Z</time>
      </trkpt>
      <trkpt lat="44.51469" lon="6.7508">
        <ele>1467.6</ele>
        <time>2022-06-12T11:42:46Z</time>
      </trkpt>
      <trkpt lat="44.51472" lon="6.75083">
        <ele>1467.9</ele>
        <time>2022-06-12T11:42:47Z</time>
      </trkpt>
      <trkpt lat="44.51474" lon="6.75086">
        <ele>1468.1</ele>
        <time>2022-06-12T11:42:48Z</time>
      </trkpt>
      <trkpt lat="44.51476" lon="6.7509">
        <ele>1468.1</ele>
        <time>2022-06-12T11:42:49Z</time>
      </trkpt>
      <trkpt lat="44.51478" lon="6.75095">
        <ele>1468</ele>
        <time>2022-06-12T11:42:50Z</time>
      </trkpt>
      <trkpt lat="44.51478" lon="6.751">
        <ele>1467.6</ele>
        <time>2022-06-12T11:42:51Z</time>
      </trkpt>
      <trkpt lat="44.51477" lon="6.75106">
        <ele>1467</ele>
        <time>2022-06-12T11:42:52Z</time>
      </trkpt>
      <trkpt lat="44.51476" lon="6.75112">
        <ele>1466.4</ele>
        <time>2022-06-12T11:42:53Z</time>
      </trkpt>
      <trkpt lat="44.51476" lon="6.75118">
        <ele>1465.5</ele>
        <time>2022-06-12T11:42:54Z</time>
      </trkpt>
      <trkpt lat="44.51477" lon="6.75123">
        <ele>1464.8</ele>
        <time>2022-06-12T11:42:55Z</time>
      </trkpt>
      <trkpt lat="44.51478" lon="6.75127">
        <ele>1464.3</ele>
        <time>2022-06-12T11:42:56Z</time>
      </trkpt>
      <trkpt lat="44.51479" lon="6.75132">
        <ele>1463.8</ele>
        <time>2022-06-12T11:42:57Z</time>
      </trkpt>
      <trkpt lat="44.51481" lon="6.75136">
        <ele>1463.6</ele>
        <time>2022-06-12T11:42:58Z</time>
      </trkpt>
      <trkpt lat="44.51483" lon="6.75141">
        <ele>1463.4</ele>
        <time>2022-06-12T11:42:59Z</time>
      </trkpt>
      <trkpt lat="44.51485" lon="6.75145">
        <ele>1463.2</ele>
        <time>2022-06-12T11:43:00Z</time>
      </trkpt>
      <trkpt lat="44.51486" lon="6.75149">
        <ele>1462.9</ele>
        <time>2022-06-12T11:43:01Z</time>
      </trkpt>
      <trkpt lat="44.51487" lon="6.75154">
        <ele>1462.5</ele>
        <time>2022-06-12T11:43:02Z</time>
      </trkpt>
      <trkpt lat="44.51488" lon="6.75158">
        <ele>1462.2</ele>
        <time>2022-06-12T11:43:03Z</time>
      </trkpt>
      <trkpt lat="44.51489" lon="6.75162">
        <ele>1462.2</ele>
        <time>2022-06-12T11:43:04Z</time>
      </trkpt>
      <trkpt lat="44.51491" lon="6.75165">
        <ele>1462.2</ele>
        <time>2022-06-12T11:43:05Z</time>
      </trkpt>
      <trkpt lat="44.51492" lon="6.75169">
        <ele>1462.2</ele>
        <time>2022-06-12T11:43:06Z</time>
      </trkpt>
      <trkpt lat="44.51494" lon="6.75172">
        <ele>1462.3</ele>
        <time>2022-06-12T11:43:07Z</time>
      </trkpt>
      <trkpt lat="44.51497" lon="6.75175">
        <ele>1462.9</ele>
        <time>2022-06-12T11:43:08Z</time>
      </trkpt>
      <trkpt lat="44.51501" lon="6.75179">
        <ele>1463.4</ele>
        <time>2022-06-12T11:43:09Z</time>
      </trkpt>
      <trkpt lat="44.51504" lon="6.75182">
        <ele>1463.6</ele>
        <time>2022-06-12T11:43:10Z</time>
      </trkpt>
      <trkpt lat="44.51506" lon="6.75185">
        <ele>1463.7</ele>
        <time>2022-06-12T11:43:11Z</time>
      </trkpt>
      <trkpt lat="44.51508" lon="6.75189">
        <ele>1463.8</ele>
        <time>2022-06-12T11:43:12Z</time>
      </trkpt>
      <trkpt lat="44.5151" lon="6.75192">
        <ele>1463.8</ele>
        <time>2022-06-12T11:43:13Z</time>
      </trkpt>
      <trkpt lat="44.51512" lon="6.75195">
        <ele>1463.8</ele>
        <time>2022-06-12T11:43:14Z</time>
      </trkpt>
      <trkpt lat="44.51513" lon="6.75199">
        <ele>1463.6</ele>
        <time>2022-06-12T11:43:15Z</time>
      </trkpt>
      <trkpt lat="44.51514" lon="6.75202">
        <ele>1463.6</ele>
        <time>2022-06-12T11:43:16Z</time>
      </trkpt>
      <trkpt lat="44.51516" lon="6.75205">
        <ele>1463.6</ele>
        <time>2022-06-12T11:43:17Z</time>
      </trkpt>
      <trkpt lat="44.51517" lon="6.75209">
        <ele>1463.4</ele>
        <time>2022-06-12T11:43:18Z</time>
      </trkpt>
      <trkpt lat="44.51518" lon="6.75213">
        <ele>1463.3</ele>
        <time>2022-06-12T11:43:19Z</time>
      </trkpt>
      <trkpt lat="44.51519" lon="6.75216">
        <ele>1463.2</ele>
        <time>2022-06-12T11:43:20Z</time>
      </trkpt>
      <trkpt lat="44.5152" lon="6.75219">
        <ele>1463.3</ele>
        <time>2022-06-12T11:43:21Z</time>
      </trkpt>
      <trkpt lat="44.51522" lon="6.75221">
        <ele>1463.4</ele>
        <time>2022-06-12T11:43:22Z</time>
      </trkpt>
      <trkpt lat="44.51523" lon="6.75223">
        <ele>1463.5</ele>
        <time>2022-06-12T11:43:23Z</time>
      </trkpt>
      <trkpt lat="44.51524" lon="6.75225">
        <ele>1463.5</ele>
        <time>2022-06-12T11:43:24Z</time>
      </trkpt>
      <trkpt lat="44.51524" lon="6.75227">
        <ele>1463.3</ele>
        <time>2022-06-12T11:43:25Z</time>
      </trkpt>
      <trkpt lat="44.51525" lon="6.75229">
        <ele>1463.4</ele>
        <time>2022-06-12T11:43:26Z</time>
      </trkpt>
      <trkpt lat="44.51526" lon="6.75232">
        <ele>1463.5</ele>
        <time>2022-06-12T11:43:27Z</time>
      </trkpt>
      <trkpt lat="44.51527" lon="6.75234">
        <ele>1463.6</ele>
        <time>2022-06-12T11:43:28Z</time>
      </trkpt>
      <trkpt lat="44.51528" lon="6.75237">
        <ele>1463.5</ele>
        <time>2022-06-12T11:43:29Z</time>
      </trkpt>
      <trkpt lat="44.51529" lon="6.75241">
        <ele>1463.3</ele>
        <time>2022-06-12T11:43:30Z</time>
      </trkpt>
      <trkpt lat="44.5153" lon="6.75245">
        <ele>1463</ele>
        <time>2022-06-12T11:43:31Z</time>
      </trkpt>
      <trkpt lat="44.51531" lon="6.75249">
        <ele>1462.9</ele>
        <time>2022-06-12T11:43:32Z</time>
      </trkpt>
      <trkpt lat="44.51533" lon="6.75253">
        <ele>1462.6</ele>
        <time>2022-06-12T11:43:33Z</time>
      </trkpt>
      <trkpt lat="44.51534" lon="6.75258">
        <ele>1462.3</ele>
        <time>2022-06-12T11:43:34Z</time>
      </trkpt>
      <trkpt lat="44.51535" lon="6.75261">
        <ele>1462.1</ele>
        <time>2022-06-12T11:43:35Z</time>
      </trkpt>
      <trkpt lat="44.51535" lon="6.75263">
        <ele>1462</ele>
        <time>2022-06-12T11:43:36Z</time>
      </trkpt>
      <trkpt lat="44.51536" lon="6.75265">
        <ele>1461.8</ele>
        <time>2022-06-12T11:43:37Z</time>
      </trkpt>
      <trkpt lat="44.51536" lon="6.75267">
        <ele>1461.6</ele>
        <time>2022-06-12T11:43:38Z</time>
      </trkpt>
      <trkpt lat="44.51536" lon="6.75267">
        <ele>1461.7</ele>
        <time>2022-06-12T11:43:39Z</time>
      </trkpt>
      <trkpt lat="44.51537" lon="6.75268">
        <ele>1461.7</ele>
        <time>2022-06-12T11:43:40Z</time>
      </trkpt>
      <trkpt lat="44.51538" lon="6.75269">
        <ele>1461.9</ele>
        <time>2022-06-12T11:43:41Z</time>
      </trkpt>
      <trkpt lat="44.51538" lon="6.75268">
        <ele>1462.2</ele>
        <time>2022-06-12T11:43:42Z</time>
      </trkpt>
      <trkpt lat="44.51538" lon="6.75268">
        <ele>1462.2</ele>
        <time>2022-06-12T11:43:43Z</time>
      </trkpt>
      <trkpt lat="44.51539" lon="6.75267">
        <ele>1462.4</ele>
        <time>2022-06-12T11:43:44Z</time>
      </trkpt>
      <trkpt lat="44.51539" lon="6.75267">
        <ele>1462.5</ele>
        <time>2022-06-12T11:43:45Z</time>
      </trkpt>
      <trkpt lat="44.51539" lon="6.75266">
        <ele>1462.7</ele>
        <time>2022-06-12T11:43:46Z</time>
      </trkpt>
      <trkpt lat="44.5154" lon="6.75266">
        <ele>1462.7</ele>
        <time>2022-06-12T11:43:47Z</time>
      </trkpt>
      <trkpt lat="44.5154" lon="6.75265">
        <ele>1462.8</ele>
        <time>2022-06-12T11:43:48Z</time>
      </trkpt>
      <trkpt lat="44.51539" lon="6.75265">
        <ele>1462.7</ele>
        <time>2022-06-12T11:43:49Z</time>
      </trkpt>
      <trkpt lat="44.51539" lon="6.75264">
        <ele>1462.7</ele>
        <time>2022-06-12T11:43:50Z</time>
      </trkpt>
      <trkpt lat="44.51539" lon="6.75263">
        <ele>1462.9</ele>
        <time>2022-06-12T11:43:51Z</time>
      </trkpt>
      <trkpt lat="44.51539" lon="6.75263">
        <ele>1462.9</ele>
        <time>2022-06-12T11:43:52Z</time>
      </trkpt>
      <trkpt lat="44.51532" lon="6.75257">
        <ele>1462</ele>
        <time>2022-06-12T11:57:30Z</time>
      </trkpt>
      <trkpt lat="44.51531" lon="6.75253">
        <ele>1462.2</ele>
        <time>2022-06-12T11:57:31Z</time>
      </trkpt>
      <trkpt lat="44.5153" lon="6.7525">
        <ele>1462.4</ele>
        <time>2022-06-12T11:57:32Z</time>
      </trkpt>
      <trkpt lat="44.51529" lon="6.75247">
        <ele>1462.6</ele>
        <time>2022-06-12T11:57:33Z</time>
      </trkpt>
      <trkpt lat="44.51529" lon="6.75243">
        <ele>1462.9</ele>
        <time>2022-06-12T11:57:34Z</time>
      </trkpt>
      <trkpt lat="44.51528" lon="6.75239">
        <ele>1463.2</ele>
        <time>2022-06-12T11:57:35Z</time>
      </trkpt>
      <trkpt lat="44.51527" lon="6.75236">
        <ele>1463.1</ele>
        <time>2022-06-12T11:57:36Z</time>
      </trkpt>
      <trkpt lat="44.51526" lon="6.75234">
        <ele>1463</ele>
        <time>2022-06-12T11:57:37Z</time>
      </trkpt>
      <trkpt lat="44.51525" lon="6.75232">
        <ele>1463.1</ele>
        <time>2022-06-12T11:57:38Z</time>
      </trkpt>
      <trkpt lat="44.51526" lon="6.7523">
        <ele>1463.5</ele>
        <time>2022-06-12T11:57:39Z</time>
      </trkpt>
      <trkpt lat="44.51527" lon="6.75229">
        <ele>1464.2</ele>
        <time>2022-06-12T11:57:40Z</time>
      </trkpt>
      <trkpt lat="44.51529" lon="6.75228">
        <ele>1464.6</ele>
        <time>2022-06-12T11:57:41Z</time>
      </trkpt>
      <trkpt lat="44.51531" lon="6.75227">
        <ele>1465.1</ele>
        <time>2022-06-12T11:57:42Z</time>
      </trkpt>
      <trkpt lat="44.51533" lon="6.75224">
        <ele>1465.6</ele>
        <time>2022-06-12T11:57:43Z</time>
      </trkpt>
      <trkpt lat="44.51534" lon="6.75222">
        <ele>1466</ele>
        <time>2022-06-12T11:57:44Z</time>
      </trkpt>
      <trkpt lat="44.51536" lon="6.75219">
        <ele>1466.4</ele>
        <time>2022-06-12T11:57:45Z</time>
      </trkpt>
      <trkpt lat="44.51537" lon="6.75217">
        <ele>1466.8</ele>
        <time>2022-06-12T11:57:46Z</time>
      </trkpt>
      <trkpt lat="44.51539" lon="6.75215">
        <ele>1467.1</ele>
        <time>2022-06-12T11:57:47Z</time>
      </trkpt>
      <trkpt lat="44.5154" lon="6.75213">
        <ele>1467.4</ele>
        <time>2022-06-12T11:57:48Z</time>
      </trkpt>
      <trkpt lat="44.51542" lon="6.75212">
        <ele>1467.8</ele>
        <time>2022-06-12T11:57:49Z</time>
      </trkpt>
      <trkpt lat="44.51544" lon="6.75209">
        <ele>1468.1</ele>
        <time>2022-06-12T11:57:50Z</time>
      </trkpt>
      <trkpt lat="44.51545" lon="6.75207">
        <ele>1468.5</ele>
        <time>2022-06-12T11:57:51Z</time>
      </trkpt>
      <trkpt lat="44.51547" lon="6.75205">
        <ele>1468.8</ele>
        <time>2022-06-12T11:57:52Z</time>
      </trkpt>
      <trkpt lat="44.51548" lon="6.75203">
        <ele>1469</ele>
        <time>2022-06-12T11:57:53Z</time>
      </trkpt>
      <trkpt lat="44.51549" lon="6.75201">
        <ele>1469.2</ele>
        <time>2022-06-12T11:57:54Z</time>
      </trkpt>
      <trkpt lat="44.5155" lon="6.75199">
        <ele>1469.4</ele>
        <time>2022-06-12T11:57:55Z</time>
      </trkpt>
      <trkpt lat="44.51551" lon="6.75198">
        <ele>1469.5</ele>
        <time>2022-06-12T11:57:56Z</time>
      </trkpt>
      <trkpt lat="44.51553" lon="6.75196">
        <ele>1469.7</ele>
        <time>2022-06-12T11:57:57Z</time>
      </trkpt>
      <trkpt lat="44.51554" lon="6.75195">
        <ele>1469.9</ele>
        <time>2022-06-12T11:57:58Z</time>
      </trkpt>
      <trkpt lat="44.51556" lon="6.75193">
        <ele>1470.1</ele>
        <time>2022-06-12T11:57:59Z</time>
      </trkpt>
      <trkpt lat="44.51557" lon="6.75191">
        <ele>1470.4</ele>
        <time>2022-06-12T11:58:00Z</time>
      </trkpt>
      <trkpt lat="44.51559" lon="6.75188">
        <ele>1470.7</ele>
        <time>2022-06-12T11:58:01Z</time>
      </trkpt>
      <trkpt lat="44.5156" lon="6.75186">
        <ele>1470.9</ele>
        <time>2022-06-12T11:58:02Z</time>
      </trkpt>
      <trkpt lat="44.51561" lon="6.75184">
        <ele>1471.2</ele>
        <time>2022-06-12T11:58:03Z</time>
      </trkpt>
      <trkpt lat="44.51562" lon="6.75182">
        <ele>1471.4</ele>
        <time>2022-06-12T11:58:04Z</time>
      </trkpt>
      <trkpt lat="44.51563" lon="6.75181">
        <ele>1471.5</ele>
        <time>2022-06-12T11:58:05Z</time>
      </trkpt>
      <trkpt lat="44.51564" lon="6.75179">
        <ele>1471.7</ele>
        <time>2022-06-12T11:58:06Z</time>
      </trkpt>
      <trkpt lat="44.51563" lon="6.75177">
        <ele>1471.8</ele>
        <time>2022-06-12T11:58:07Z</time>
      </trkpt>
      <trkpt lat="44.51562" lon="6.75176">
        <ele>1471.8</ele>
        <time>2022-06-12T11:58:08Z</time>
      </trkpt>
      <trkpt lat="44.51561" lon="6.75174">
        <ele>1471.9</ele>
        <time>2022-06-12T11:58:09Z</time>
      </trkpt>
      <trkpt lat="44.51559" lon="6.75172">
        <ele>1471.9</ele>
        <time>2022-06-12T11:58:10Z</time>
      </trkpt>
      <trkpt lat="44.51558" lon="6.75171">
        <ele>1471.9</ele>
        <time>2022-06-12T11:58:11Z</time>
      </trkpt>
      <trkpt lat="44.51557" lon="6.75168">
        <ele>1472</ele>
        <time>2022-06-12T11:58:12Z</time>
      </trkpt>
      <trkpt lat="44.51556" lon="6.75167">
        <ele>1472</ele>
        <time>2022-06-12T11:58:13Z</time>
      </trkpt>
      <trkpt lat="44.51554" lon="6.75165">
        <ele>1472</ele>
        <time>2022-06-12T11:58:14Z</time>
      </trkpt>
      <trkpt lat="44.51553" lon="6.75163">
        <ele>1472.1</ele>
        <time>2022-06-12T11:58:15Z</time>
      </trkpt>
      <trkpt lat="44.51552" lon="6.75161">
        <ele>1472.2</ele>
        <time>2022-06-12T11:58:16Z</time>
      </trkpt>
      <trkpt lat="44.51551" lon="6.75158">
        <ele>1472.3</ele>
        <time>2022-06-12T11:58:17Z</time>
      </trkpt>
      <trkpt lat="44.51551" lon="6.75154">
        <ele>1472.5</ele>
        <time>2022-06-12T11:58:18Z</time>
      </trkpt>
      <trkpt lat="44.51551" lon="6.75149">
        <ele>1472.9</ele>
        <time>2022-06-12T11:58:19Z</time>
      </trkpt>
      <trkpt lat="44.51551" lon="6.75145">
        <ele>1473.2</ele>
        <time>2022-06-12T11:58:20Z</time>
      </trkpt>
      <trkpt lat="44.51551" lon="6.75142">
        <ele>1473.5</ele>
        <time>2022-06-12T11:58:21Z</time>
      </trkpt>
      <trkpt lat="44.51551" lon="6.75139">
        <ele>1473.7</ele>
        <time>2022-06-12T11:58:22Z</time>
      </trkpt>
      <trkpt lat="44.51551" lon="6.75136">
        <ele>1473.9</ele>
        <time>2022-06-12T11:58:23Z</time>
      </trkpt>
      <trkpt lat="44.51551" lon="6.75133">
        <ele>1474.1</ele>
        <time>2022-06-12T11:58:24Z</time>
      </trkpt>
      <trkpt lat="44.51551" lon="6.7513">
        <ele>1474.2</ele>
        <time>2022-06-12T11:58:25Z</time>
      </trkpt>
      <trkpt lat="44.51551" lon="6.75128">
        <ele>1474.4</ele>
        <time>2022-06-12T11:58:26Z</time>
      </trkpt>
      <trkpt lat="44.5155" lon="6.75125">
        <ele>1474.5</ele>
        <time>2022-06-12T11:58:27Z</time>
      </trkpt>
      <trkpt lat="44.5155" lon="6.75123">
        <ele>1474.6</ele>
        <time>2022-06-12T11:58:28Z</time>
      </trkpt>
      <trkpt lat="44.5155" lon="6.75121">
        <ele>1474.8</ele>
        <time>2022-06-12T11:58:29Z</time>
      </trkpt>
      <trkpt lat="44.5155" lon="6.75118">
        <ele>1474.9</ele>
        <time>2022-06-12T11:58:30Z</time>
      </trkpt>
      <trkpt lat="44.5155" lon="6.75116">
        <ele>1475.1</ele>
        <time>2022-06-12T11:58:31Z</time>
      </trkpt>
      <trkpt lat="44.5155" lon="6.75113">
        <ele>1475.3</ele>
        <time>2022-06-12T11:58:32Z</time>
      </trkpt>
      <trkpt lat="44.51551" lon="6.75111">
        <ele>1475.5</ele>
        <time>2022-06-12T11:58:33Z</time>
      </trkpt>
      <trkpt lat="44.51552" lon="6.75108">
        <ele>1475.8</ele>
        <time>2022-06-12T11:58:34Z</time>
      </trkpt>
      <trkpt lat="44.51553" lon="6.75106">
        <ele>1476.1</ele>
        <time>2022-06-12T11:58:35Z</time>
      </trkpt>
      <trkpt lat="44.51554" lon="6.75103">
        <ele>1476.4</ele>
        <time>2022-06-12T11:58:36Z</time>
      </trkpt>
      <trkpt lat="44.51555" lon="6.751">
        <ele>1476.7</ele>
        <time>2022-06-12T11:58:37Z</time>
      </trkpt>
      <trkpt lat="44.51556" lon="6.75097">
        <ele>1477.1</ele>
        <time>2022-06-12T11:58:38Z</time>
      </trkpt>
      <trkpt lat="44.51558" lon="6.75094">
        <ele>1477.4</ele>
        <time>2022-06-12T11:58:39Z</time>
      </trkpt>
      <trkpt lat="44.51559" lon="6.75091">
        <ele>1477.8</ele>
        <time>2022-06-12T11:58:40Z</time>
      </trkpt>
      <trkpt lat="44.51561" lon="6.75089">
        <ele>1478.2</ele>
        <time>2022-06-12T11:58:41Z</time>
      </trkpt>
      <trkpt lat="44.51563" lon="6.75086">
        <ele>1478.6</ele>
        <time>2022-06-12T11:58:42Z</time>
      </trkpt>
      <trkpt lat="44.51564" lon="6.75084">
        <ele>1478.8</ele>
        <time>2022-06-12T11:58:43Z</time>
      </trkpt>
      <trkpt lat="44.51565" lon="6.75082">
        <ele>1479.1</ele>
        <time>2022-06-12T11:58:44Z</time>
      </trkpt>
      <trkpt lat="44.51566" lon="6.7508">
        <ele>1479.5</ele>
        <time>2022-06-12T11:58:45Z</time>
      </trkpt>
      <trkpt lat="44.51568" lon="6.75079">
        <ele>1479.8</ele>
        <time>2022-06-12T11:58:46Z</time>
      </trkpt>
      <trkpt lat="44.51568" lon="6.75078">
        <ele>1479.9</ele>
        <time>2022-06-12T11:58:47Z</time>
      </trkpt>
      <trkpt lat="44.51569" lon="6.75077">
        <ele>1480.1</ele>
        <time>2022-06-12T11:58:48Z</time>
      </trkpt>
      <trkpt lat="44.5157" lon="6.75076">
        <ele>1480.3</ele>
        <time>2022-06-12T11:58:49Z</time>
      </trkpt>
      <trkpt lat="44.5157" lon="6.75075">
        <ele>1480.5</ele>
        <time>2022-06-12T11:58:50Z</time>
      </trkpt>
      <trkpt lat="44.51571" lon="6.75074">
        <ele>1480.6</ele>
        <time>2022-06-12T11:58:51Z</time>
      </trkpt>
      <trkpt lat="44.51571" lon="6.75074">
        <ele>1480.7</ele>
        <time>2022-06-12T11:58:52Z</time>
      </trkpt>
      <trkpt lat="44.51571" lon="6.75074">
        <ele>1480.7</ele>
        <time>2022-06-12T11:58:53Z</time>
      </trkpt>
      <trkpt lat="44.51579" lon="6.75071">
        <ele>1482.1</ele>
        <time>2022-06-12T11:59:06Z</time>
      </trkpt>
      <trkpt lat="44.51581" lon="6.75072">
        <ele>1482.3</ele>
        <time>2022-06-12T11:59:07Z</time>
      </trkpt>
      <trkpt lat="44.51584" lon="6.75073">
        <ele>1482.5</ele>
        <time>2022-06-12T11:59:08Z</time>
      </trkpt>
      <trkpt lat="44.51586" lon="6.75075">
        <ele>1482.4</ele>
        <time>2022-06-12T11:59:09Z</time>
      </trkpt>
      <trkpt lat="44.51588" lon="6.75077">
        <ele>1482.4</ele>
        <time>2022-06-12T11:59:10Z</time>
      </trkpt>
      <trkpt lat="44.5159" lon="6.75079">
        <ele>1482.4</ele>
        <time>2022-06-12T11:59:11Z</time>
      </trkpt>
      <trkpt lat="44.51592" lon="6.7508">
        <ele>1482.4</ele>
        <time>2022-06-12T11:59:12Z</time>
      </trkpt>
      <trkpt lat="44.51594" lon="6.75082">
        <ele>1482.4</ele>
        <time>2022-06-12T11:59:13Z</time>
      </trkpt>
      <trkpt lat="44.51596" lon="6.75083">
        <ele>1482.4</ele>
        <time>2022-06-12T11:59:14Z</time>
      </trkpt>
      <trkpt lat="44.51599" lon="6.75084">
        <ele>1482.6</ele>
        <time>2022-06-12T11:59:15Z</time>
      </trkpt>
      <trkpt lat="44.51601" lon="6.75085">
        <ele>1482.7</ele>
        <time>2022-06-12T11:59:16Z</time>
      </trkpt>
      <trkpt lat="44.51604" lon="6.75086">
        <ele>1482.9</ele>
        <time>2022-06-12T11:59:17Z</time>
      </trkpt>
      <trkpt lat="44.51606" lon="6.75087">
        <ele>1483.1</ele>
        <time>2022-06-12T11:59:18Z</time>
      </trkpt>
      <trkpt lat="44.51609" lon="6.75088">
        <ele>1483.3</ele>
        <time>2022-06-12T11:59:19Z</time>
      </trkpt>
      <trkpt lat="44.51611" lon="6.75089">
        <ele>1483.5</ele>
        <time>2022-06-12T11:59:20Z</time>
      </trkpt>
      <trkpt lat="44.51614" lon="6.75089">
        <ele>1483.7</ele>
        <time>2022-06-12T11:59:21Z</time>
      </trkpt>
      <trkpt lat="44.51617" lon="6.75089">
        <ele>1483.9</ele>
        <time>2022-06-12T11:59:22Z</time>
      </trkpt>
      <trkpt lat="44.5162" lon="6.7509">
        <ele>1484.2</ele>
        <time>2022-06-12T11:59:23Z</time>
      </trkpt>
      <trkpt lat="44.51622" lon="6.7509">
        <ele>1484.3</ele>
        <time>2022-06-12T11:59:24Z</time>
      </trkpt>
      <trkpt lat="44.51625" lon="6.75091">
        <ele>1484.5</ele>
        <time>2022-06-12T11:59:25Z</time>
      </trkpt>
      <trkpt lat="44.51627" lon="6.75092">
        <ele>1484.7</ele>
        <time>2022-06-12T11:59:26Z</time>
      </trkpt>
      <trkpt lat="44.5163" lon="6.75092">
        <ele>1484.9</ele>
        <time>2022-06-12T11:59:27Z</time>
      </trkpt>
      <trkpt lat="44.51633" lon="6.75093">
        <ele>1485.1</ele>
        <time>2022-06-12T11:59:28Z</time>
      </trkpt>
      <trkpt lat="44.51636" lon="6.75093">
        <ele>1485.3</ele>
        <time>2022-06-12T11:59:29Z</time>
      </trkpt>
      <trkpt lat="44.51638" lon="6.75094">
        <ele>1485.4</ele>
        <time>2022-06-12T11:59:30Z</time>
      </trkpt>
      <trkpt lat="44.51641" lon="6.75095">
        <ele>1485.5</ele>
        <time>2022-06-12T11:59:31Z</time>
      </trkpt>
      <trkpt lat="44.51643" lon="6.75095">
        <ele>1485.6</ele>
        <time>2022-06-12T11:59:32Z</time>
      </trkpt>
      <trkpt lat="44.51646" lon="6.75096">
        <ele>1485.7</ele>
        <time>2022-06-12T11:59:33Z</time>
      </trkpt>
      <trkpt lat="44.51649" lon="6.75096">
        <ele>1485.8</ele>
        <time>2022-06-12T11:59:34Z</time>
      </trkpt>
      <trkpt lat="44.51651" lon="6.75097">
        <ele>1485.9</ele>
        <time>2022-06-12T11:59:35Z</time>
      </trkpt>
      <trkpt lat="44.51653" lon="6.75098">
        <ele>1486</ele>
        <time>2022-06-12T11:59:36Z</time>
      </trkpt>
      <trkpt lat="44.51656" lon="6.75098">
        <ele>1486.1</ele>
        <time>2022-06-12T11:59:37Z</time>
      </trkpt>
      <trkpt lat="44.51659" lon="6.75099">
        <ele>1486.2</ele>
        <time>2022-06-12T11:59:38Z</time>
      </trkpt>
      <trkpt lat="44.51661" lon="6.751">
        <ele>1486.2</ele>
        <time>2022-06-12T11:59:39Z</time>
      </trkpt>
      <trkpt lat="44.51663" lon="6.751">
        <ele>1486.3</ele>
        <time>2022-06-12T11:59:40Z</time>
      </trkpt>
      <trkpt lat="44.51665" lon="6.751">
        <ele>1486.5</ele>
        <time>2022-06-12T11:59:41Z</time>
      </trkpt>
      <trkpt lat="44.51668" lon="6.75101">
        <ele>1486.6</ele>
        <time>2022-06-12T11:59:42Z</time>
      </trkpt>
      <trkpt lat="44.5167" lon="6.75101">
        <ele>1487</ele>
        <time>2022-06-12T11:59:43Z</time>
      </trkpt>
      <trkpt lat="44.51673" lon="6.75102">
        <ele>1487.3</ele>
        <time>2022-06-12T11:59:44Z</time>
      </trkpt>
      <trkpt lat="44.51675" lon="6.75102">
        <ele>1487.6</ele>
        <time>2022-06-12T11:59:45Z</time>
      </trkpt>
      <trkpt lat="44.51678" lon="6.75103">
        <ele>1487.8</ele>
        <time>2022-06-12T11:59:46Z</time>
      </trkpt>
      <trkpt lat="44.5168" lon="6.75104">
        <ele>1488</ele>
        <time>2022-06-12T11:59:47Z</time>
      </trkpt>
      <trkpt lat="44.51682" lon="6.75104">
        <ele>1488.3</ele>
        <time>2022-06-12T11:59:48Z</time>
      </trkpt>
      <trkpt lat="44.51685" lon="6.75105">
        <ele>1488.5</ele>
        <time>2022-06-12T11:59:49Z</time>
      </trkpt>
      <trkpt lat="44.51687" lon="6.75106">
        <ele>1488.8</ele>
        <time>2022-06-12T11:59:50Z</time>
      </trkpt>
      <trkpt lat="44.5169" lon="6.75106">
        <ele>1489</ele>
        <time>2022-06-12T11:59:51Z</time>
      </trkpt>
      <trkpt lat="44.51692" lon="6.75107">
        <ele>1489.3</ele>
        <time>2022-06-12T11:59:52Z</time>
      </trkpt>
      <trkpt lat="44.51695" lon="6.75107">
        <ele>1489.6</ele>
        <time>2022-06-12T11:59:53Z</time>
      </trkpt>
      <trkpt lat="44.51697" lon="6.75108">
        <ele>1489.8</ele>
        <time>2022-06-12T11:59:54Z</time>
      </trkpt>
      <trkpt lat="44.517" lon="6.75109">
        <ele>1490.1</ele>
        <time>2022-06-12T11:59:55Z</time>
      </trkpt>
      <trkpt lat="44.51702" lon="6.75109">
        <ele>1490.3</ele>
        <time>2022-06-12T11:59:56Z</time>
      </trkpt>
      <trkpt lat="44.51704" lon="6.7511">
        <ele>1490.6</ele>
        <time>2022-06-12T11:59:57Z</time>
      </trkpt>
      <trkpt lat="44.51707" lon="6.75111">
        <ele>1490.9</ele>
        <time>2022-06-12T11:59:58Z</time>
      </trkpt>
      <trkpt lat="44.51709" lon="6.75111">
        <ele>1491.1</ele>
        <time>2022-06-12T11:59:59Z</time>
      </trkpt>
      <trkpt lat="44.51712" lon="6.75112">
        <ele>1491.3</ele>
        <time>2022-06-12T12:00:00Z</time>
      </trkpt>
      <trkpt lat="44.51714" lon="6.75113">
        <ele>1491.6</ele>
        <time>2022-06-12T12:00:01Z</time>
      </trkpt>
      <trkpt lat="44.51716" lon="6.75114">
        <ele>1491.9</ele>
        <time>2022-06-12T12:00:02Z</time>
      </trkpt>
      <trkpt lat="44.51719" lon="6.75115">
        <ele>1492.1</ele>
        <time>2022-06-12T12:00:03Z</time>
      </trkpt>
      <trkpt lat="44.51721" lon="6.75116">
        <ele>1492.3</ele>
        <time>2022-06-12T12:00:04Z</time>
      </trkpt>
      <trkpt lat="44.51723" lon="6.75117">
        <ele>1492.6</ele>
        <time>2022-06-12T12:00:05Z</time>
      </trkpt>
      <trkpt lat="44.51725" lon="6.75119">
        <ele>1492.9</ele>
        <time>2022-06-12T12:00:06Z</time>
      </trkpt>
      <trkpt lat="44.51728" lon="6.7512">
        <ele>1493.3</ele>
        <time>2022-06-12T12:00:07Z</time>
      </trkpt>
      <trkpt lat="44.5173" lon="6.75122">
        <ele>1493.6</ele>
        <time>2022-06-12T12:00:08Z</time>
      </trkpt>
      <trkpt lat="44.51732" lon="6.75124">
        <ele>1493.9</ele>
        <time>2022-06-12T12:00:09Z</time>
      </trkpt>
      <trkpt lat="44.51734" lon="6.75126">
        <ele>1494.1</ele>
        <time>2022-06-12T12:00:10Z</time>
      </trkpt>
      <trkpt lat="44.51736" lon="6.75128">
        <ele>1494.3</ele>
        <time>2022-06-12T12:00:11Z</time>
      </trkpt>
      <trkpt lat="44.51738" lon="6.7513">
        <ele>1494.5</ele>
        <time>2022-06-12T12:00:12Z</time>
      </trkpt>
      <trkpt lat="44.51739" lon="6.75132">
        <ele>1494.5</ele>
        <time>2022-06-12T12:00:13Z</time>
      </trkpt>
      <trkpt lat="44.51741" lon="6.75135">
        <ele>1494.6</ele>
        <time>2022-06-12T12:00:14Z</time>
      </trkpt>
      <trkpt lat="44.51743" lon="6.75137">
        <ele>1494.6</ele>
        <time>2022-06-12T12:00:15Z</time>
      </trkpt>
      <trkpt lat="44.51744" lon="6.75139">
        <ele>1494.7</ele>
        <time>2022-06-12T12:00:16Z</time>
      </trkpt>
      <trkpt lat="44.51746" lon="6.75142">
        <ele>1494.9</ele>
        <time>2022-06-12T12:00:17Z</time>
      </trkpt>
      <trkpt lat="44.51747" lon="6.75145">
        <ele>1495</ele>
        <time>2022-06-12T12:00:18Z</time>
      </trkpt>
      <trkpt lat="44.51749" lon="6.75147">
        <ele>1495.1</ele>
        <time>2022-06-12T12:00:19Z</time>
      </trkpt>
      <trkpt lat="44.5175" lon="6.7515">
        <ele>1495.2</ele>
        <time>2022-06-12T12:00:20Z</time>
      </trkpt>
      <trkpt lat="44.51751" lon="6.75153">
        <ele>1495.3</ele>
        <time>2022-06-12T12:00:21Z</time>
      </trkpt>
      <trkpt lat="44.51752" lon="6.75155">
        <ele>1495.4</ele>
        <time>2022-06-12T12:00:22Z</time>
      </trkpt>
      <trkpt lat="44.51753" lon="6.75158">
        <ele>1495.5</ele>
        <time>2022-06-12T12:00:23Z</time>
      </trkpt>
      <trkpt lat="44.51755" lon="6.75161">
        <ele>1495.6</ele>
        <time>2022-06-12T12:00:24Z</time>
      </trkpt>
      <trkpt lat="44.51756" lon="6.75164">
        <ele>1495.8</ele>
        <time>2022-06-12T12:00:25Z</time>
      </trkpt>
      <trkpt lat="44.51757" lon="6.75167">
        <ele>1495.8</ele>
        <time>2022-06-12T12:00:26Z</time>
      </trkpt>
      <trkpt lat="44.51758" lon="6.75169">
        <ele>1496</ele>
        <time>2022-06-12T12:00:27Z</time>
      </trkpt>
      <trkpt lat="44.51759" lon="6.75172">
        <ele>1496.3</ele>
        <time>2022-06-12T12:00:28Z</time>
      </trkpt>
      <trkpt lat="44.5176" lon="6.75175">
        <ele>1496.5</ele>
        <time>2022-06-12T12:00:29Z</time>
      </trkpt>
      <trkpt lat="44.51761" lon="6.75178">
        <ele>1496.6</ele>
        <time>2022-06-12T12:00:30Z</time>
      </trkpt>
      <trkpt lat="44.51761" lon="6.75181">
        <ele>1496.7</ele>
        <time>2022-06-12T12:00:31Z</time>
      </trkpt>
      <trkpt lat="44.51761" lon="6.75185">
        <ele>1496.8</ele>
        <time>2022-06-12T12:00:32Z</time>
      </trkpt>
      <trkpt lat="44.51762" lon="6.75188">
        <ele>1496.9</ele>
        <time>2022-06-12T12:00:33Z</time>
      </trkpt>
      <trkpt lat="44.51762" lon="6.75191">
        <ele>1497</ele>
        <time>2022-06-12T12:00:34Z</time>
      </trkpt>
      <trkpt lat="44.51763" lon="6.75195">
        <ele>1497.2</ele>
        <time>2022-06-12T12:00:35Z</time>
      </trkpt>
      <trkpt lat="44.51763" lon="6.75198">
        <ele>1497.3</ele>
        <time>2022-06-12T12:00:36Z</time>
      </trkpt>
      <trkpt lat="44.51763" lon="6.75201">
        <ele>1497.4</ele>
        <time>2022-06-12T12:00:37Z</time>
      </trkpt>
      <trkpt lat="44.51763" lon="6.75205">
        <ele>1497.5</ele>
        <time>2022-06-12T12:00:38Z</time>
      </trkpt>
      <trkpt lat="44.51763" lon="6.75208">
        <ele>1497.6</ele>
        <time>2022-06-12T12:00:39Z</time>
      </trkpt>
      <trkpt lat="44.51763" lon="6.75212">
        <ele>1497.6</ele>
        <time>2022-06-12T12:00:40Z</time>
      </trkpt>
      <trkpt lat="44.51763" lon="6.75215">
        <ele>1497.6</ele>
        <time>2022-06-12T12:00:41Z</time>
      </trkpt>
      <trkpt lat="44.51763" lon="6.75218">
        <ele>1497.6</ele>
        <time>2022-06-12T12:00:42Z</time>
      </trkpt>
      <trkpt lat="44.51762" lon="6.75221">
        <ele>1497.6</ele>
        <time>2022-06-12T12:00:43Z</time>
      </trkpt>
      <trkpt lat="44.51762" lon="6.75225">
        <ele>1497.5</ele>
        <time>2022-06-12T12:00:44Z</time>
      </trkpt>
      <trkpt lat="44.51762" lon="6.75228">
        <ele>1497.6</ele>
        <time>2022-06-12T12:00:45Z</time>
      </trkpt>
      <trkpt lat="44.51762" lon="6.75232">
        <ele>1497.7</ele>
        <time>2022-06-12T12:00:46Z</time>
      </trkpt>
      <trkpt lat="44.51762" lon="6.75235">
        <ele>1497.8</ele>
        <time>2022-06-12T12:00:47Z</time>
      </trkpt>
      <trkpt lat="44.51762" lon="6.75239">
        <ele>1497.9</ele>
        <time>2022-06-12T12:00:48Z</time>
      </trkpt>
      <trkpt lat="44.51762" lon="6.75242">
        <ele>1497.9</ele>
        <time>2022-06-12T12:00:49Z</time>
      </trkpt>
      <trkpt lat="44.51762" lon="6.75245">
        <ele>1498</ele>
        <time>2022-06-12T12:00:50Z</time>
      </trkpt>
      <trkpt lat="44.51762" lon="6.75249">
        <ele>1498.2</ele>
        <time>2022-06-12T12:00:51Z</time>
      </trkpt>
      <trkpt lat="44.51763" lon="6.75252">
        <ele>1498.2</ele>
        <time>2022-06-12T12:00:52Z</time>
      </trkpt>
      <trkpt lat="44.51763" lon="6.75255">
        <ele>1498.2</ele>
        <time>2022-06-12T12:00:53Z</time>
      </trkpt>
      <trkpt lat="44.51764" lon="6.75258">
        <ele>1498.2</ele>
        <time>2022-06-12T12:00:54Z</time>
      </trkpt>
      <trkpt lat="44.51765" lon="6.75261">
        <ele>1498.3</ele>
        <time>2022-06-12T12:00:55Z</time>
      </trkpt>
      <trkpt lat="44.51767" lon="6.75264">
        <ele>1498.5</ele>
        <time>2022-06-12T12:00:56Z</time>
      </trkpt>
      <trkpt lat="44.51768" lon="6.75267">
        <ele>1498.6</ele>
        <time>2022-06-12T12:00:57Z</time>
      </trkpt>
      <trkpt lat="44.51769" lon="6.7527">
        <ele>1498.8</ele>
        <time>2022-06-12T12:00:58Z</time>
      </trkpt>
      <trkpt lat="44.51771" lon="6.75272">
        <ele>1499</ele>
        <time>2022-06-12T12:00:59Z</time>
      </trkpt>
      <trkpt lat="44.51773" lon="6.75275">
        <ele>1499.2</ele>
        <time>2022-06-12T12:01:00Z</time>
      </trkpt>
      <trkpt lat="44.51775" lon="6.75277">
        <ele>1499.4</ele>
        <time>2022-06-12T12:01:01Z</time>
      </trkpt>
      <trkpt lat="44.51777" lon="6.75278">
        <ele>1499.8</ele>
        <time>2022-06-12T12:01:02Z</time>
      </trkpt>
      <trkpt lat="44.51779" lon="6.7528">
        <ele>1500</ele>
        <time>2022-06-12T12:01:03Z</time>
      </trkpt>
      <trkpt lat="44.51781" lon="6.75281">
        <ele>1500.2</ele>
        <time>2022-06-12T12:01:04Z</time>
      </trkpt>
      <trkpt lat="44.51783" lon="6.75282">
        <ele>1500.5</ele>
        <time>2022-06-12T12:01:05Z</time>
      </trkpt>
      <trkpt lat="44.51785" lon="6.75283">
        <ele>1500.6</ele>
        <time>2022-06-12T12:01:06Z</time>
      </trkpt>
      <trkpt lat="44.51786" lon="6.75283">
        <ele>1500.9</ele>
        <time>2022-06-12T12:01:07Z</time>
      </trkpt>
      <trkpt lat="44.51788" lon="6.75283">
        <ele>1501.2</ele>
        <time>2022-06-12T12:01:08Z</time>
      </trkpt>
      <trkpt lat="44.51789" lon="6.75283">
        <ele>1501.4</ele>
        <time>2022-06-12T12:01:09Z</time>
      </trkpt>
      <trkpt lat="44.51789" lon="6.75282">
        <ele>1501.6</ele>
        <time>2022-06-12T12:01:10Z</time>
      </trkpt>
      <trkpt lat="44.51789" lon="6.75282">
        <ele>1501.6</ele>
        <time>2022-06-12T12:01:11Z</time>
      </trkpt>
      <trkpt lat="44.51789" lon="6.75282">
        <ele>1501.6</ele>
        <time>2022-06-12T12:01:12Z</time>
      </trkpt>
      <trkpt lat="44.51793" lon="6.7528">
        <ele>1502.5</ele>
        <time>2022-06-12T12:01:31Z</time>
      </trkpt>
      <trkpt lat="44.51794" lon="6.75278">
        <ele>1502.9</ele>
        <time>2022-06-12T12:01:32Z</time>
      </trkpt>
      <trkpt lat="44.51795" lon="6.75276">
        <ele>1503.3</ele>
        <time>2022-06-12T12:01:33Z</time>
      </trkpt>
      <trkpt lat="44.51797" lon="6.75274">
        <ele>1503.6</ele>
        <time>2022-06-12T12:01:34Z</time>
      </trkpt>
      <trkpt lat="44.51798" lon="6.75271">
        <ele>1504</ele>
        <time>2022-06-12T12:01:35Z</time>
      </trkpt>
      <trkpt lat="44.51799" lon="6.75268">
        <ele>1504.4</ele>
        <time>2022-06-12T12:01:36Z</time>
      </trkpt>
      <trkpt lat="44.518" lon="6.75265">
        <ele>1504.7</ele>
        <time>2022-06-12T12:01:37Z</time>
      </trkpt>
      <trkpt lat="44.51801" lon="6.75262">
        <ele>1505.2</ele>
        <time>2022-06-12T12:01:38Z</time>
      </trkpt>
      <trkpt lat="44.51802" lon="6.75259">
        <ele>1505.6</ele>
        <time>2022-06-12T12:01:39Z</time>
      </trkpt>
      <trkpt lat="44.51803" lon="6.75256">
        <ele>1505.9</ele>
        <time>2022-06-12T12:01:40Z</time>
      </trkpt>
      <trkpt lat="44.51804" lon="6.75253">
        <ele>1506.4</ele>
        <time>2022-06-12T12:01:41Z</time>
      </trkpt>
      <trkpt lat="44.51805" lon="6.7525">
        <ele>1506.8</ele>
        <time>2022-06-12T12:01:42Z</time>
      </trkpt>
      <trkpt lat="44.51805" lon="6.75246">
        <ele>1506.9</ele>
        <time>2022-06-12T12:01:43Z</time>
      </trkpt>
      <trkpt lat="44.51806" lon="6.75243">
        <ele>1507.1</ele>
        <time>2022-06-12T12:01:44Z</time>
      </trkpt>
      <trkpt lat="44.51807" lon="6.7524">
        <ele>1507.3</ele>
        <time>2022-06-12T12:01:45Z</time>
      </trkpt>
      <trkpt lat="44.51807" lon="6.75236">
        <ele>1507.4</ele>
        <time>2022-06-12T12:01:46Z</time>
      </trkpt>
      <trkpt lat="44.51808" lon="6.75233">
        <ele>1507.6</ele>
        <time>2022-06-12T12:01:47Z</time>
      </trkpt>
      <trkpt lat="44.51808" lon="6.7523">
        <ele>1507.7</ele>
        <time>2022-06-12T12:01:48Z</time>
      </trkpt>
      <trkpt lat="44.51808" lon="6.75226">
        <ele>1507.7</ele>
        <time>2022-06-12T12:01:49Z</time>
      </trkpt>
      <trkpt lat="44.51809" lon="6.75223">
        <ele>1507.9</ele>
        <time>2022-06-12T12:01:50Z</time>
      </trkpt>
      <trkpt lat="44.51809" lon="6.75219">
        <ele>1508</ele>
        <time>2022-06-12T12:01:51Z</time>
      </trkpt>
      <trkpt lat="44.5181" lon="6.75216">
        <ele>1508.1</ele>
        <time>2022-06-12T12:01:52Z</time>
      </trkpt>
      <trkpt lat="44.5181" lon="6.75212">
        <ele>1508.2</ele>
        <time>2022-06-12T12:01:53Z</time>
      </trkpt>
      <trkpt lat="44.5181" lon="6.75208">
        <ele>1508.2</ele>
        <time>2022-06-12T12:01:54Z</time>
      </trkpt>
      <trkpt lat="44.5181" lon="6.75204">
        <ele>1508.2</ele>
        <time>2022-06-12T12:01:55Z</time>
      </trkpt>
      <trkpt lat="44.5181" lon="6.752">
        <ele>1508.2</ele>
        <time>2022-06-12T12:01:56Z</time>
      </trkpt>
      <trkpt lat="44.5181" lon="6.75196">
        <ele>1508.2</ele>
        <time>2022-06-12T12:01:57Z</time>
      </trkpt>
      <trkpt lat="44.5181" lon="6.75193">
        <ele>1508.3</ele>
        <time>2022-06-12T12:01:58Z</time>
      </trkpt>
      <trkpt lat="44.51809" lon="6.75189">
        <ele>1508.4</ele>
        <time>2022-06-12T12:01:59Z</time>
      </trkpt>
      <trkpt lat="44.51809" lon="6.75185">
        <ele>1508.5</ele>
        <time>2022-06-12T12:02:00Z</time>
      </trkpt>
      <trkpt lat="44.51808" lon="6.75182">
        <ele>1508.7</ele>
        <time>2022-06-12T12:02:01Z</time>
      </trkpt>
      <trkpt lat="44.51808" lon="6.75178">
        <ele>1508.9</ele>
        <time>2022-06-12T12:02:02Z</time>
      </trkpt>
      <trkpt lat="44.51808" lon="6.75174">
        <ele>1509</ele>
        <time>2022-06-12T12:02:03Z</time>
      </trkpt>
      <trkpt lat="44.51807" lon="6.75171">
        <ele>1509.1</ele>
        <time>2022-06-12T12:02:04Z</time>
      </trkpt>
      <trkpt lat="44.51806" lon="6.75167">
        <ele>1509.2</ele>
        <time>2022-06-12T12:02:05Z</time>
      </trkpt>
      <trkpt lat="44.51806" lon="6.75164">
        <ele>1509.5</ele>
        <time>2022-06-12T12:02:06Z</time>
      </trkpt>
      <trkpt lat="44.51805" lon="6.7516">
        <ele>1509.7</ele>
        <time>2022-06-12T12:02:07Z</time>
      </trkpt>
      <trkpt lat="44.51804" lon="6.75157">
        <ele>1510</ele>
        <time>2022-06-12T12:02:08Z</time>
      </trkpt>
      <trkpt lat="44.51803" lon="6.75153">
        <ele>1510.1</ele>
        <time>2022-06-12T12:02:09Z</time>
      </trkpt>
      <trkpt lat="44.51802" lon="6.7515">
        <ele>1510.3</ele>
        <time>2022-06-12T12:02:10Z</time>
      </trkpt>
      <trkpt lat="44.51801" lon="6.75147">
        <ele>1510.4</ele>
        <time>2022-06-12T12:02:11Z</time>
      </trkpt>
      <trkpt lat="44.518" lon="6.75143">
        <ele>1510.5</ele>
        <time>2022-06-12T12:02:12Z</time>
      </trkpt>
      <trkpt lat="44.51799" lon="6.7514">
        <ele>1510.6</ele>
        <time>2022-06-12T12:02:13Z</time>
      </trkpt>
      <trkpt lat="44.51798" lon="6.75137">
        <ele>1510.9</ele>
        <time>2022-06-12T12:02:14Z</time>
      </trkpt>
      <trkpt lat="44.51797" lon="6.75134">
        <ele>1511.1</ele>
        <time>2022-06-12T12:02:15Z</time>
      </trkpt>
      <trkpt lat="44.51796" lon="6.75131">
        <ele>1511.4</ele>
        <time>2022-06-12T12:02:16Z</time>
      </trkpt>
      <trkpt lat="44.51795" lon="6.75128">
        <ele>1511.7</ele>
        <time>2022-06-12T12:02:17Z</time>
      </trkpt>
      <trkpt lat="44.51793" lon="6.75125">
        <ele>1511.8</ele>
        <time>2022-06-12T12:02:18Z</time>
      </trkpt>
      <trkpt lat="44.51792" lon="6.75122">
        <ele>1512</ele>
        <time>2022-06-12T12:02:19Z</time>
      </trkpt>
      <trkpt lat="44.51791" lon="6.75119">
        <ele>1512.1</ele>
        <time>2022-06-12T12:02:20Z</time>
      </trkpt>
      <trkpt lat="44.51789" lon="6.75116">
        <ele>1512.1</ele>
        <time>2022-06-12T12:02:21Z</time>
      </trkpt>
      <trkpt lat="44.51788" lon="6.75113">
        <ele>1512.1</ele>
        <time>2022-06-12T12:02:22Z</time>
      </trkpt>
      <trkpt lat="44.51786" lon="6.7511">
        <ele>1512.2</ele>
        <time>2022-06-12T12:02:23Z</time>
      </trkpt>
      <trkpt lat="44.51785" lon="6.75107">
        <ele>1512.5</ele>
        <time>2022-06-12T12:02:24Z</time>
      </trkpt>
      <trkpt lat="44.51784" lon="6.75104">
        <ele>1512.7</ele>
        <time>2022-06-12T12:02:25Z</time>
      </trkpt>
      <trkpt lat="44.51783" lon="6.75101">
        <ele>1512.9</ele>
        <time>2022-06-12T12:02:26Z</time>
      </trkpt>
      <trkpt lat="44.51782" lon="6.75098">
        <ele>1513.2</ele>
        <time>2022-06-12T12:02:27Z</time>
      </trkpt>
      <trkpt lat="44.51781" lon="6.75095">
        <ele>1513.5</ele>
        <time>2022-06-12T12:02:28Z</time>
      </trkpt>
      <trkpt lat="44.5178" lon="6.75092">
        <ele>1513.7</ele>
        <time>2022-06-12T12:02:29Z</time>
      </trkpt>
      <trkpt lat="44.51778" lon="6.75089">
        <ele>1513.9</ele>
        <time>2022-06-12T12:02:30Z</time>
      </trkpt>
      <trkpt lat="44.51777" lon="6.75086">
        <ele>1514</ele>
        <time>2022-06-12T12:02:31Z</time>
      </trkpt>
      <trkpt lat="44.51776" lon="6.75084">
        <ele>1514.3</ele>
        <time>2022-06-12T12:02:32Z</time>
      </trkpt>
      <trkpt lat="44.51775" lon="6.7508">
        <ele>1514.6</ele>
        <time>2022-06-12T12:02:33Z</time>
      </trkpt>
      <trkpt lat="44.51774" lon="6.75077">
        <ele>1514.8</ele>
        <time>2022-06-12T12:02:34Z</time>
      </trkpt>
      <trkpt lat="44.51773" lon="6.75074">
        <ele>1515.2</ele>
        <time>2022-06-12T12:02:35Z</time>
      </trkpt>
      <trkpt lat="44.51772" lon="6.75071">
        <ele>1515.6</ele>
        <time>2022-06-12T12:02:36Z</time>
      </trkpt>
      <trkpt lat="44.51771" lon="6.75068">
        <ele>1515.8</ele>
        <time>2022-06-12T12:02:37Z</time>
      </trkpt>
      <trkpt lat="44.5177" lon="6.75064">
        <ele>1516.1</ele>
        <time>2022-06-12T12:02:38Z</time>
      </trkpt>
      <trkpt lat="44.51768" lon="6.75061">
        <ele>1516.3</ele>
        <time>2022-06-12T12:02:39Z</time>
      </trkpt>
      <trkpt lat="44.51767" lon="6.75058">
        <ele>1516.5</ele>
        <time>2022-06-12T12:02:40Z</time>
      </trkpt>
      <trkpt lat="44.51766" lon="6.75055">
        <ele>1516.6</ele>
        <time>2022-06-12T12:02:41Z</time>
      </trkpt>
      <trkpt lat="44.51764" lon="6.75053">
        <ele>1516.7</ele>
        <time>2022-06-12T12:02:42Z</time>
      </trkpt>
      <trkpt lat="44.51763" lon="6.7505">
        <ele>1516.9</ele>
        <time>2022-06-12T12:02:43Z</time>
      </trkpt>
      <trkpt lat="44.51761" lon="6.75047">
        <ele>1517.1</ele>
        <time>2022-06-12T12:02:44Z</time>
      </trkpt>
      <trkpt lat="44.5176" lon="6.75044">
        <ele>1517.3</ele>
        <time>2022-06-12T12:02:45Z</time>
      </trkpt>
      <trkpt lat="44.51759" lon="6.75041">
        <ele>1517.5</ele>
        <time>2022-06-12T12:02:46Z</time>
      </trkpt>
      <trkpt lat="44.51758" lon="6.75038">
        <ele>1517.7</ele>
        <time>2022-06-12T12:02:47Z</time>
      </trkpt>
      <trkpt lat="44.51756" lon="6.75035">
        <ele>1517.9</ele>
        <time>2022-06-12T12:02:48Z</time>
      </trkpt>
      <trkpt lat="44.51755" lon="6.75032">
        <ele>1518</ele>
        <time>2022-06-12T12:02:49Z</time>
      </trkpt>
      <trkpt lat="44.51754" lon="6.75029">
        <ele>1518.1</ele>
        <time>2022-06-12T12:02:50Z</time>
      </trkpt>
      <trkpt lat="44.51752" lon="6.75026">
        <ele>1518.3</ele>
        <time>2022-06-12T12:02:51Z</time>
      </trkpt>
      <trkpt lat="44.51751" lon="6.75023">
        <ele>1518.4</ele>
        <time>2022-06-12T12:02:52Z</time>
      </trkpt>
      <trkpt lat="44.5175" lon="6.7502">
        <ele>1518.7</ele>
        <time>2022-06-12T12:02:53Z</time>
      </trkpt>
      <trkpt lat="44.51749" lon="6.75017">
        <ele>1519</ele>
        <time>2022-06-12T12:02:54Z</time>
      </trkpt>
      <trkpt lat="44.51748" lon="6.75014">
        <ele>1519.3</ele>
        <time>2022-06-12T12:02:55Z</time>
      </trkpt>
      <trkpt lat="44.51747" lon="6.75011">
        <ele>1519.6</ele>
        <time>2022-06-12T12:02:56Z</time>
      </trkpt>
      <trkpt lat="44.51746" lon="6.75008">
        <ele>1519.8</ele>
        <time>2022-06-12T12:02:57Z</time>
      </trkpt>
      <trkpt lat="44.51745" lon="6.75005">
        <ele>1520</ele>
        <time>2022-06-12T12:02:58Z</time>
      </trkpt>
      <trkpt lat="44.51744" lon="6.75003">
        <ele>1520.2</ele>
        <time>2022-06-12T12:02:59Z</time>
      </trkpt>
      <trkpt lat="44.51743" lon="6.74999">
        <ele>1520.5</ele>
        <time>2022-06-12T12:03:00Z</time>
      </trkpt>
      <trkpt lat="44.51742" lon="6.74996">
        <ele>1520.9</ele>
        <time>2022-06-12T12:03:01Z</time>
      </trkpt>
      <trkpt lat="44.51741" lon="6.74993">
        <ele>1521.3</ele>
        <time>2022-06-12T12:03:02Z</time>
      </trkpt>
      <trkpt lat="44.51739" lon="6.7499">
        <ele>1521.5</ele>
        <time>2022-06-12T12:03:03Z</time>
      </trkpt>
      <trkpt lat="44.51738" lon="6.74987">
        <ele>1521.7</ele>
        <time>2022-06-12T12:03:04Z</time>
      </trkpt>
      <trkpt lat="44.51737" lon="6.74985">
        <ele>1521.8</ele>
        <time>2022-06-12T12:03:05Z</time>
      </trkpt>
      <trkpt lat="44.51736" lon="6.74981">
        <ele>1522.1</ele>
        <time>2022-06-12T12:03:06Z</time>
      </trkpt>
      <trkpt lat="44.51735" lon="6.74978">
        <ele>1522.4</ele>
        <time>2022-06-12T12:03:07Z</time>
      </trkpt>
      <trkpt lat="44.51734" lon="6.74975">
        <ele>1522.7</ele>
        <time>2022-06-12T12:03:08Z</time>
      </trkpt>
      <trkpt lat="44.51733" lon="6.74972">
        <ele>1522.9</ele>
        <time>2022-06-12T12:03:09Z</time>
      </trkpt>
      <trkpt lat="44.51732" lon="6.74969">
        <ele>1522.8</ele>
        <time>2022-06-12T12:03:10Z</time>
      </trkpt>
      <trkpt lat="44.51731" lon="6.74966">
        <ele>1522.7</ele>
        <time>2022-06-12T12:03:11Z</time>
      </trkpt>
      <trkpt lat="44.5173" lon="6.74963">
        <ele>1522.7</ele>
        <time>2022-06-12T12:03:12Z</time>
      </trkpt>
      <trkpt lat="44.5173" lon="6.74959">
        <ele>1522.8</ele>
        <time>2022-06-12T12:03:13Z</time>
      </trkpt>
      <trkpt lat="44.51729" lon="6.74956">
        <ele>1522.7</ele>
        <time>2022-06-12T12:03:14Z</time>
      </trkpt>
      <trkpt lat="44.51728" lon="6.74953">
        <ele>1522.5</ele>
        <time>2022-06-12T12:03:15Z</time>
      </trkpt>
      <trkpt lat="44.51727" lon="6.7495">
        <ele>1522.4</ele>
        <time>2022-06-12T12:03:16Z</time>
      </trkpt>
      <trkpt lat="44.51726" lon="6.74946">
        <ele>1522.5</ele>
        <time>2022-06-12T12:03:17Z</time>
      </trkpt>
      <trkpt lat="44.51725" lon="6.74943">
        <ele>1522.4</ele>
        <time>2022-06-12T12:03:18Z</time>
      </trkpt>
      <trkpt lat="44.51724" lon="6.7494">
        <ele>1522.3</ele>
        <time>2022-06-12T12:03:19Z</time>
      </trkpt>
      <trkpt lat="44.51723" lon="6.74937">
        <ele>1522.2</ele>
        <time>2022-06-12T12:03:20Z</time>
      </trkpt>
      <trkpt lat="44.51722" lon="6.74934">
        <ele>1522.1</ele>
        <time>2022-06-12T12:03:21Z</time>
      </trkpt>
      <trkpt lat="44.51721" lon="6.7493">
        <ele>1522.3</ele>
        <time>2022-06-12T12:03:22Z</time>
      </trkpt>
      <trkpt lat="44.51721" lon="6.74927">
        <ele>1522.5</ele>
        <time>2022-06-12T12:03:23Z</time>
      </trkpt>
      <trkpt lat="44.5172" lon="6.74923">
        <ele>1522.7</ele>
        <time>2022-06-12T12:03:24Z</time>
      </trkpt>
      <trkpt lat="44.51719" lon="6.7492">
        <ele>1522.8</ele>
        <time>2022-06-12T12:03:25Z</time>
      </trkpt>
      <trkpt lat="44.51718" lon="6.74917">
        <ele>1522.9</ele>
        <time>2022-06-12T12:03:26Z</time>
      </trkpt>
      <trkpt lat="44.51718" lon="6.74913">
        <ele>1522.8</ele>
        <time>2022-06-12T12:03:27Z</time>
      </trkpt>
      <trkpt lat="44.51717" lon="6.7491">
        <ele>1522.6</ele>
        <time>2022-06-12T12:03:28Z</time>
      </trkpt>
      <trkpt lat="44.51716" lon="6.74907">
        <ele>1522.6</ele>
        <time>2022-06-12T12:03:29Z</time>
      </trkpt>
      <trkpt lat="44.51716" lon="6.74904">
        <ele>1522.6</ele>
        <time>2022-06-12T12:03:30Z</time>
      </trkpt>
      <trkpt lat="44.51716" lon="6.749">
        <ele>1522.8</ele>
        <time>2022-06-12T12:03:31Z</time>
      </trkpt>
      <trkpt lat="44.51716" lon="6.74897">
        <ele>1522.8</ele>
        <time>2022-06-12T12:03:32Z</time>
      </trkpt>
      <trkpt lat="44.51716" lon="6.74893">
        <ele>1522.9</ele>
        <time>2022-06-12T12:03:33Z</time>
      </trkpt>
      <trkpt lat="44.51715" lon="6.7489">
        <ele>1523</ele>
        <time>2022-06-12T12:03:34Z</time>
      </trkpt>
      <trkpt lat="44.51715" lon="6.74887">
        <ele>1523.2</ele>
        <time>2022-06-12T12:03:35Z</time>
      </trkpt>
      <trkpt lat="44.51715" lon="6.74883">
        <ele>1523.3</ele>
        <time>2022-06-12T12:03:36Z</time>
      </trkpt>
      <trkpt lat="44.51715" lon="6.7488">
        <ele>1523.4</ele>
        <time>2022-06-12T12:03:37Z</time>
      </trkpt>
      <trkpt lat="44.51714" lon="6.74877">
        <ele>1523.6</ele>
        <time>2022-06-12T12:03:38Z</time>
      </trkpt>
      <trkpt lat="44.51714" lon="6.74873">
        <ele>1523.8</ele>
        <time>2022-06-12T12:03:39Z</time>
      </trkpt>
      <trkpt lat="44.51714" lon="6.7487">
        <ele>1524</ele>
        <time>2022-06-12T12:03:40Z</time>
      </trkpt>
      <trkpt lat="44.51714" lon="6.74867">
        <ele>1524.3</ele>
        <time>2022-06-12T12:03:41Z</time>
      </trkpt>
      <trkpt lat="44.51714" lon="6.74863">
        <ele>1524.6</ele>
        <time>2022-06-12T12:03:42Z</time>
      </trkpt>
      <trkpt lat="44.51715" lon="6.7486">
        <ele>1524.9</ele>
        <time>2022-06-12T12:03:43Z</time>
      </trkpt>
      <trkpt lat="44.51715" lon="6.74857">
        <ele>1525.1</ele>
        <time>2022-06-12T12:03:44Z</time>
      </trkpt>
      <trkpt lat="44.51715" lon="6.74853">
        <ele>1525.4</ele>
        <time>2022-06-12T12:03:45Z</time>
      </trkpt>
      <trkpt lat="44.51715" lon="6.7485">
        <ele>1525.6</ele>
        <time>2022-06-12T12:03:46Z</time>
      </trkpt>
      <trkpt lat="44.51715" lon="6.74847">
        <ele>1525.8</ele>
        <time>2022-06-12T12:03:47Z</time>
      </trkpt>
      <trkpt lat="44.51715" lon="6.74844">
        <ele>1526</ele>
        <time>2022-06-12T12:03:48Z</time>
      </trkpt>
      <trkpt lat="44.51715" lon="6.7484">
        <ele>1526.3</ele>
        <time>2022-06-12T12:03:49Z</time>
      </trkpt>
      <trkpt lat="44.51715" lon="6.74837">
        <ele>1526.5</ele>
        <time>2022-06-12T12:03:50Z</time>
      </trkpt>
      <trkpt lat="44.51716" lon="6.74834">
        <ele>1526.8</ele>
        <time>2022-06-12T12:03:51Z</time>
      </trkpt>
      <trkpt lat="44.51716" lon="6.74831">
        <ele>1527.1</ele>
        <time>2022-06-12T12:03:52Z</time>
      </trkpt>
      <trkpt lat="44.51716" lon="6.74828">
        <ele>1527.4</ele>
        <time>2022-06-12T12:03:53Z</time>
      </trkpt>
      <trkpt lat="44.51716" lon="6.74824">
        <ele>1527.7</ele>
        <time>2022-06-12T12:03:54Z</time>
      </trkpt>
      <trkpt lat="44.51716" lon="6.74821">
        <ele>1528</ele>
        <time>2022-06-12T12:03:55Z</time>
      </trkpt>
      <trkpt lat="44.51717" lon="6.74818">
        <ele>1528.3</ele>
        <time>2022-06-12T12:03:56Z</time>
      </trkpt>
      <trkpt lat="44.51717" lon="6.74815">
        <ele>1528.6</ele>
        <time>2022-06-12T12:03:57Z</time>
      </trkpt>
      <trkpt lat="44.51718" lon="6.74811">
        <ele>1529.1</ele>
        <time>2022-06-12T12:03:58Z</time>
      </trkpt>
      <trkpt lat="44.51718" lon="6.74808">
        <ele>1529.5</ele>
        <time>2022-06-12T12:03:59Z</time>
      </trkpt>
      <trkpt lat="44.51719" lon="6.74805">
        <ele>1529.9</ele>
        <time>2022-06-12T12:04:00Z</time>
      </trkpt>
      <trkpt lat="44.51719" lon="6.74801">
        <ele>1530.2</ele>
        <time>2022-06-12T12:04:01Z</time>
      </trkpt>
      <trkpt lat="44.5172" lon="6.74798">
        <ele>1530.5</ele>
        <time>2022-06-12T12:04:02Z</time>
      </trkpt>
      <trkpt lat="44.5172" lon="6.74795">
        <ele>1530.7</ele>
        <time>2022-06-12T12:04:03Z</time>
      </trkpt>
      <trkpt lat="44.5172" lon="6.74792">
        <ele>1530.8</ele>
        <time>2022-06-12T12:04:04Z</time>
      </trkpt>
      <trkpt lat="44.5172" lon="6.74788">
        <ele>1531</ele>
        <time>2022-06-12T12:04:05Z</time>
      </trkpt>
      <trkpt lat="44.5172" lon="6.74785">
        <ele>1531.2</ele>
        <time>2022-06-12T12:04:06Z</time>
      </trkpt>
      <trkpt lat="44.51721" lon="6.74782">
        <ele>1531.5</ele>
        <time>2022-06-12T12:04:07Z</time>
      </trkpt>
      <trkpt lat="44.51722" lon="6.74779">
        <ele>1531.8</ele>
        <time>2022-06-12T12:04:08Z</time>
      </trkpt>
      <trkpt lat="44.51722" lon="6.74776">
        <ele>1532</ele>
        <time>2022-06-12T12:04:09Z</time>
      </trkpt>
      <trkpt lat="44.51723" lon="6.74773">
        <ele>1532.3</ele>
        <time>2022-06-12T12:04:10Z</time>
      </trkpt>
      <trkpt lat="44.51724" lon="6.7477">
        <ele>1532.6</ele>
        <time>2022-06-12T12:04:11Z</time>
      </trkpt>
      <trkpt lat="44.51725" lon="6.74767">
        <ele>1532.9</ele>
        <time>2022-06-12T12:04:12Z</time>
      </trkpt>
      <trkpt lat="44.51726" lon="6.74764">
        <ele>1533.3</ele>
        <time>2022-06-12T12:04:13Z</time>
      </trkpt>
      <trkpt lat="44.51727" lon="6.74762">
        <ele>1533.6</ele>
        <time>2022-06-12T12:04:14Z</time>
      </trkpt>
      <trkpt lat="44.51728" lon="6.74759">
        <ele>1533.9</ele>
        <time>2022-06-12T12:04:15Z</time>
      </trkpt>
      <trkpt lat="44.51728" lon="6.74756">
        <ele>1534.1</ele>
        <time>2022-06-12T12:04:16Z</time>
      </trkpt>
      <trkpt lat="44.51729" lon="6.74753">
        <ele>1534.5</ele>
        <time>2022-06-12T12:04:17Z</time>
      </trkpt>
      <trkpt lat="44.5173" lon="6.7475">
        <ele>1534.7</ele>
        <time>2022-06-12T12:04:18Z</time>
      </trkpt>
      <trkpt lat="44.51731" lon="6.74747">
        <ele>1534.9</ele>
        <time>2022-06-12T12:04:19Z</time>
      </trkpt>
      <trkpt lat="44.51732" lon="6.74744">
        <ele>1535.1</ele>
        <time>2022-06-12T12:04:20Z</time>
      </trkpt>
      <trkpt lat="44.51733" lon="6.74741">
        <ele>1535.2</ele>
        <time>2022-06-12T12:04:21Z</time>
      </trkpt>
      <trkpt lat="44.51734" lon="6.74738">
        <ele>1535.4</ele>
        <time>2022-06-12T12:04:22Z</time>
      </trkpt>
      <trkpt lat="44.51736" lon="6.74735">
        <ele>1535.6</ele>
        <time>2022-06-12T12:04:23Z</time>
      </trkpt>
      <trkpt lat="44.51737" lon="6.74732">
        <ele>1535.8</ele>
        <time>2022-06-12T12:04:24Z</time>
      </trkpt>
      <trkpt lat="44.51738" lon="6.74729">
        <ele>1535.9</ele>
        <time>2022-06-12T12:04:25Z</time>
      </trkpt>
      <trkpt lat="44.51739" lon="6.74727">
        <ele>1536.1</ele>
        <time>2022-06-12T12:04:26Z</time>
      </trkpt>
      <trkpt lat="44.5174" lon="6.74724">
        <ele>1536.3</ele>
        <time>2022-06-12T12:04:27Z</time>
      </trkpt>
      <trkpt lat="44.51742" lon="6.74722">
        <ele>1536.5</ele>
        <time>2022-06-12T12:04:28Z</time>
      </trkpt>
      <trkpt lat="44.51743" lon="6.74719">
        <ele>1536.8</ele>
        <time>2022-06-12T12:04:29Z</time>
      </trkpt>
      <trkpt lat="44.51744" lon="6.74716">
        <ele>1537.1</ele>
        <time>2022-06-12T12:04:30Z</time>
      </trkpt>
      <trkpt lat="44.51745" lon="6.74713">
        <ele>1537.3</ele>
        <time>2022-06-12T12:04:31Z</time>
      </trkpt>
      <trkpt lat="44.51746" lon="6.74711">
        <ele>1537.6</ele>
        <time>2022-06-12T12:04:32Z</time>
      </trkpt>
      <trkpt lat="44.51747" lon="6.74708">
        <ele>1537.9</ele>
        <time>2022-06-12T12:04:33Z</time>
      </trkpt>
      <trkpt lat="44.51748" lon="6.74705">
        <ele>1538.2</ele>
        <time>2022-06-12T12:04:34Z</time>
      </trkpt>
      <trkpt lat="44.5175" lon="6.74703">
        <ele>1538.6</ele>
        <time>2022-06-12T12:04:35Z</time>
      </trkpt>
      <trkpt lat="44.51751" lon="6.747">
        <ele>1539.2</ele>
        <time>2022-06-12T12:04:36Z</time>
      </trkpt>
      <trkpt lat="44.51753" lon="6.74698">
        <ele>1539.8</ele>
        <time>2022-06-12T12:04:37Z</time>
      </trkpt>
      <trkpt lat="44.51754" lon="6.74695">
        <ele>1540.4</ele>
        <time>2022-06-12T12:04:38Z</time>
      </trkpt>
      <trkpt lat="44.51755" lon="6.74692">
        <ele>1540.8</ele>
        <time>2022-06-12T12:04:39Z</time>
      </trkpt>
      <trkpt lat="44.51757" lon="6.7469">
        <ele>1541.1</ele>
        <time>2022-06-12T12:04:40Z</time>
      </trkpt>
      <trkpt lat="44.51758" lon="6.74687">
        <ele>1541.4</ele>
        <time>2022-06-12T12:04:41Z</time>
      </trkpt>
      <trkpt lat="44.51759" lon="6.74684">
        <ele>1541.6</ele>
        <time>2022-06-12T12:04:42Z</time>
      </trkpt>
      <trkpt lat="44.5176" lon="6.74681">
        <ele>1541.9</ele>
        <time>2022-06-12T12:04:43Z</time>
      </trkpt>
      <trkpt lat="44.51762" lon="6.74678">
        <ele>1542.1</ele>
        <time>2022-06-12T12:04:44Z</time>
      </trkpt>
      <trkpt lat="44.51763" lon="6.74676">
        <ele>1542.2</ele>
        <time>2022-06-12T12:04:45Z</time>
      </trkpt>
      <trkpt lat="44.51764" lon="6.74673">
        <ele>1542.5</ele>
        <time>2022-06-12T12:04:46Z</time>
      </trkpt>
      <trkpt lat="44.51766" lon="6.74671">
        <ele>1542.8</ele>
        <time>2022-06-12T12:04:47Z</time>
      </trkpt>
      <trkpt lat="44.51767" lon="6.74668">
        <ele>1542.9</ele>
        <time>2022-06-12T12:04:48Z</time>
      </trkpt>
      <trkpt lat="44.51768" lon="6.74665">
        <ele>1543</ele>
        <time>2022-06-12T12:04:49Z</time>
      </trkpt>
      <trkpt lat="44.51769" lon="6.74663">
        <ele>1543.1</ele>
        <time>2022-06-12T12:04:50Z</time>
      </trkpt>
      <trkpt lat="44.5177" lon="6.7466">
        <ele>1543.2</ele>
        <time>2022-06-12T12:04:51Z</time>
      </trkpt>
      <trkpt lat="44.51772" lon="6.74658">
        <ele>1543.4</ele>
        <time>2022-06-12T12:04:52Z</time>
      </trkpt>
      <trkpt lat="44.51773" lon="6.74655">
        <ele>1543.5</ele>
        <time>2022-06-12T12:04:53Z</time>
      </trkpt>
      <trkpt lat="44.51774" lon="6.74653">
        <ele>1543.6</ele>
        <time>2022-06-12T12:04:54Z</time>
      </trkpt>
      <trkpt lat="44.51776" lon="6.7465">
        <ele>1543.7</ele>
        <time>2022-06-12T12:04:55Z</time>
      </trkpt>
      <trkpt lat="44.51777" lon="6.74648">
        <ele>1543.8</ele>
        <time>2022-06-12T12:04:56Z</time>
      </trkpt>
      <trkpt lat="44.51778" lon="6.74646">
        <ele>1543.9</ele>
        <time>2022-06-12T12:04:57Z</time>
      </trkpt>
      <trkpt lat="44.5178" lon="6.74643">
        <ele>1544.3</ele>
        <time>2022-06-12T12:04:58Z</time>
      </trkpt>
      <trkpt lat="44.51781" lon="6.74641">
        <ele>1544.7</ele>
        <time>2022-06-12T12:04:59Z</time>
      </trkpt>
      <trkpt lat="44.51783" lon="6.74638">
        <ele>1545</ele>
        <time>2022-06-12T12:05:00Z</time>
      </trkpt>
      <trkpt lat="44.51784" lon="6.74636">
        <ele>1545.3</ele>
        <time>2022-06-12T12:05:01Z</time>
      </trkpt>
      <trkpt lat="44.51785" lon="6.74633">
        <ele>1545.8</ele>
        <time>2022-06-12T12:05:02Z</time>
      </trkpt>
      <trkpt lat="44.51786" lon="6.74631">
        <ele>1546.2</ele>
        <time>2022-06-12T12:05:03Z</time>
      </trkpt>
      <trkpt lat="44.51788" lon="6.74628">
        <ele>1546.6</ele>
        <time>2022-06-12T12:05:04Z</time>
      </trkpt>
      <trkpt lat="44.51789" lon="6.74626">
        <ele>1546.8</ele>
        <time>2022-06-12T12:05:05Z</time>
      </trkpt>
      <trkpt lat="44.51791" lon="6.74622">
        <ele>1547.3</ele>
        <time>2022-06-12T12:05:06Z</time>
      </trkpt>
      <trkpt lat="44.51791" lon="6.74621">
        <ele>1547.5</ele>
        <time>2022-06-12T12:05:07Z</time>
      </trkpt>
      <trkpt lat="44.51792" lon="6.74618">
        <ele>1547.7</ele>
        <time>2022-06-12T12:05:08Z</time>
      </trkpt>
      <trkpt lat="44.51794" lon="6.74616">
        <ele>1548</ele>
        <time>2022-06-12T12:05:09Z</time>
      </trkpt>
      <trkpt lat="44.51795" lon="6.74613">
        <ele>1548.3</ele>
        <time>2022-06-12T12:05:10Z</time>
      </trkpt>
      <trkpt lat="44.51796" lon="6.74611">
        <ele>1548.7</ele>
        <time>2022-06-12T12:05:11Z</time>
      </trkpt>
      <trkpt lat="44.51798" lon="6.74609">
        <ele>1548.9</ele>
        <time>2022-06-12T12:05:12Z</time>
      </trkpt>
      <trkpt lat="44.51799" lon="6.74607">
        <ele>1549.2</ele>
        <time>2022-06-12T12:05:13Z</time>
      </trkpt>
      <trkpt lat="44.518" lon="6.74604">
        <ele>1549.3</ele>
        <time>2022-06-12T12:05:14Z</time>
      </trkpt>
      <trkpt lat="44.51802" lon="6.74602">
        <ele>1549.6</ele>
        <time>2022-06-12T12:05:15Z</time>
      </trkpt>
      <trkpt lat="44.51804" lon="6.74599">
        <ele>1549.9</ele>
        <time>2022-06-12T12:05:16Z</time>
      </trkpt>
      <trkpt lat="44.51804" lon="6.74598">
        <ele>1550</ele>
        <time>2022-06-12T12:05:17Z</time>
      </trkpt>
      <trkpt lat="44.51806" lon="6.74594">
        <ele>1550.3</ele>
        <time>2022-06-12T12:05:18Z</time>
      </trkpt>
      <trkpt lat="44.51807" lon="6.74593">
        <ele>1550.5</ele>
        <time>2022-06-12T12:05:19Z</time>
      </trkpt>
      <trkpt lat="44.51809" lon="6.74589">
        <ele>1551</ele>
        <time>2022-06-12T12:05:20Z</time>
      </trkpt>
      <trkpt lat="44.5181" lon="6.74588">
        <ele>1551.1</ele>
        <time>2022-06-12T12:05:21Z</time>
      </trkpt>
      <trkpt lat="44.51811" lon="6.74584">
        <ele>1551.6</ele>
        <time>2022-06-12T12:05:22Z</time>
      </trkpt>
      <trkpt lat="44.51812" lon="6.74583">
        <ele>1551.8</ele>
        <time>2022-06-12T12:05:23Z</time>
      </trkpt>
      <trkpt lat="44.51814" lon="6.7458">
        <ele>1552.4</ele>
        <time>2022-06-12T12:05:24Z</time>
      </trkpt>
      <trkpt lat="44.51815" lon="6.74579">
        <ele>1552.6</ele>
        <time>2022-06-12T12:05:25Z</time>
      </trkpt>
      <trkpt lat="44.51817" lon="6.74575">
        <ele>1553</ele>
        <time>2022-06-12T12:05:26Z</time>
      </trkpt>
      <trkpt lat="44.51818" lon="6.74574">
        <ele>1553.1</ele>
        <time>2022-06-12T12:05:27Z</time>
      </trkpt>
      <trkpt lat="44.5182" lon="6.74572">
        <ele>1553.6</ele>
        <time>2022-06-12T12:05:28Z</time>
      </trkpt>
      <trkpt lat="44.51821" lon="6.7457">
        <ele>1553.9</ele>
        <time>2022-06-12T12:05:29Z</time>
      </trkpt>
      <trkpt lat="44.51823" lon="6.74567">
        <ele>1554.3</ele>
        <time>2022-06-12T12:05:30Z</time>
      </trkpt>
      <trkpt lat="44.51824" lon="6.74566">
        <ele>1554.4</ele>
        <time>2022-06-12T12:05:31Z</time>
      </trkpt>
      <trkpt lat="44.51826" lon="6.74564">
        <ele>1554.7</ele>
        <time>2022-06-12T12:05:32Z</time>
      </trkpt>
      <trkpt lat="44.51827" lon="6.74562">
        <ele>1555</ele>
        <time>2022-06-12T12:05:33Z</time>
      </trkpt>
      <trkpt lat="44.5183" lon="6.74559">
        <ele>1555.4</ele>
        <time>2022-06-12T12:05:34Z</time>
      </trkpt>
      <trkpt lat="44.51831" lon="6.74558">
        <ele>1555.6</ele>
        <time>2022-06-12T12:05:35Z</time>
      </trkpt>
      <trkpt lat="44.51833" lon="6.74555">
        <ele>1555.9</ele>
        <time>2022-06-12T12:05:36Z</time>
      </trkpt>
      <trkpt lat="44.51834" lon="6.74554">
        <ele>1556.1</ele>
        <time>2022-06-12T12:05:37Z</time>
      </trkpt>
      <trkpt lat="44.51836" lon="6.74552">
        <ele>1556.3</ele>
        <time>2022-06-12T12:05:38Z</time>
      </trkpt>
      <trkpt lat="44.51838" lon="6.7455">
        <ele>1556.5</ele>
        <time>2022-06-12T12:05:39Z</time>
      </trkpt>
      <trkpt lat="44.5184" lon="6.74547">
        <ele>1556.6</ele>
        <time>2022-06-12T12:05:40Z</time>
      </trkpt>
      <trkpt lat="44.51841" lon="6.74546">
        <ele>1556.7</ele>
        <time>2022-06-12T12:05:41Z</time>
      </trkpt>
      <trkpt lat="44.51842" lon="6.74544">
        <ele>1556.8</ele>
        <time>2022-06-12T12:05:42Z</time>
      </trkpt>
      <trkpt lat="44.51844" lon="6.74543">
        <ele>1557</ele>
        <time>2022-06-12T12:05:43Z</time>
      </trkpt>
      <trkpt lat="44.51846" lon="6.74541">
        <ele>1557.1</ele>
        <time>2022-06-12T12:05:44Z</time>
      </trkpt>
      <trkpt lat="44.51848" lon="6.74539">
        <ele>1557.2</ele>
        <time>2022-06-12T12:05:45Z</time>
      </trkpt>
      <trkpt lat="44.5185" lon="6.74536">
        <ele>1557.3</ele>
        <time>2022-06-12T12:05:46Z</time>
      </trkpt>
      <trkpt lat="44.51851" lon="6.74536">
        <ele>1557.4</ele>
        <time>2022-06-12T12:05:47Z</time>
      </trkpt>
      <trkpt lat="44.51853" lon="6.74534">
        <ele>1557.6</ele>
        <time>2022-06-12T12:05:48Z</time>
      </trkpt>
      <trkpt lat="44.51855" lon="6.74532">
        <ele>1557.7</ele>
        <time>2022-06-12T12:05:49Z</time>
      </trkpt>
      <trkpt lat="44.51857" lon="6.74531">
        <ele>1557.6</ele>
        <time>2022-06-12T12:05:50Z</time>
      </trkpt>
      <trkpt lat="44.51858" lon="6.74529">
        <ele>1557.6</ele>
        <time>2022-06-12T12:05:51Z</time>
      </trkpt>
      <trkpt lat="44.5186" lon="6.74527">
        <ele>1557.6</ele>
        <time>2022-06-12T12:05:52Z</time>
      </trkpt>
      <trkpt lat="44.51862" lon="6.74526">
        <ele>1558</ele>
        <time>2022-06-12T12:05:53Z</time>
      </trkpt>
      <trkpt lat="44.51864" lon="6.74524">
        <ele>1558.4</ele>
        <time>2022-06-12T12:05:54Z</time>
      </trkpt>
      <trkpt lat="44.51866" lon="6.74522">
        <ele>1558.7</ele>
        <time>2022-06-12T12:05:55Z</time>
      </trkpt>
      <trkpt lat="44.51868" lon="6.7452">
        <ele>1559.3</ele>
        <time>2022-06-12T12:05:56Z</time>
      </trkpt>
      <trkpt lat="44.51869" lon="6.74519">
        <ele>1559.4</ele>
        <time>2022-06-12T12:05:57Z</time>
      </trkpt>
      <trkpt lat="44.51871" lon="6.74517">
        <ele>1559.7</ele>
        <time>2022-06-12T12:05:58Z</time>
      </trkpt>
      <trkpt lat="44.51873" lon="6.74516">
        <ele>1560</ele>
        <time>2022-06-12T12:05:59Z</time>
      </trkpt>
      <trkpt lat="44.51875" lon="6.74514">
        <ele>1560.3</ele>
        <time>2022-06-12T12:06:00Z</time>
      </trkpt>
      <trkpt lat="44.51877" lon="6.74513">
        <ele>1560.5</ele>
        <time>2022-06-12T12:06:01Z</time>
      </trkpt>
      <trkpt lat="44.51879" lon="6.74511">
        <ele>1560.9</ele>
        <time>2022-06-12T12:06:02Z</time>
      </trkpt>
      <trkpt lat="44.51881" lon="6.7451">
        <ele>1561</ele>
        <time>2022-06-12T12:06:03Z</time>
      </trkpt>
      <trkpt lat="44.51883" lon="6.74508">
        <ele>1561.2</ele>
        <time>2022-06-12T12:06:04Z</time>
      </trkpt>
      <trkpt lat="44.51885" lon="6.74506">
        <ele>1561.4</ele>
        <time>2022-06-12T12:06:05Z</time>
      </trkpt>
      <trkpt lat="44.51886" lon="6.74504">
        <ele>1561.4</ele>
        <time>2022-06-12T12:06:06Z</time>
      </trkpt>
      <trkpt lat="44.51888" lon="6.74502">
        <ele>1561.4</ele>
        <time>2022-06-12T12:06:07Z</time>
      </trkpt>
      <trkpt lat="44.5189" lon="6.74501">
        <ele>1561.4</ele>
        <time>2022-06-12T12:06:08Z</time>
      </trkpt>
      <trkpt lat="44.51892" lon="6.74499">
        <ele>1561.5</ele>
        <time>2022-06-12T12:06:09Z</time>
      </trkpt>
      <trkpt lat="44.51895" lon="6.74497">
        <ele>1561.9</ele>
        <time>2022-06-12T12:06:10Z</time>
      </trkpt>
      <trkpt lat="44.51896" lon="6.74496">
        <ele>1562</ele>
        <time>2022-06-12T12:06:11Z</time>
      </trkpt>
      <trkpt lat="44.51898" lon="6.74494">
        <ele>1562.3</ele>
        <time>2022-06-12T12:06:12Z</time>
      </trkpt>
      <trkpt lat="44.519" lon="6.74493">
        <ele>1562.6</ele>
        <time>2022-06-12T12:06:13Z</time>
      </trkpt>
      <trkpt lat="44.51902" lon="6.74491">
        <ele>1562.8</ele>
        <time>2022-06-12T12:06:14Z</time>
      </trkpt>
      <trkpt lat="44.51903" lon="6.7449">
        <ele>1562.9</ele>
        <time>2022-06-12T12:06:15Z</time>
      </trkpt>
      <trkpt lat="44.51905" lon="6.74488">
        <ele>1563.1</ele>
        <time>2022-06-12T12:06:16Z</time>
      </trkpt>
      <trkpt lat="44.51907" lon="6.74486">
        <ele>1563.2</ele>
        <time>2022-06-12T12:06:17Z</time>
      </trkpt>
      <trkpt lat="44.51909" lon="6.74485">
        <ele>1563.4</ele>
        <time>2022-06-12T12:06:18Z</time>
      </trkpt>
      <trkpt lat="44.5191" lon="6.74483">
        <ele>1563.5</ele>
        <time>2022-06-12T12:06:19Z</time>
      </trkpt>
      <trkpt lat="44.51912" lon="6.74481">
        <ele>1563.6</ele>
        <time>2022-06-12T12:06:20Z</time>
      </trkpt>
      <trkpt lat="44.51914" lon="6.74479">
        <ele>1563.6</ele>
        <time>2022-06-12T12:06:21Z</time>
      </trkpt>
      <trkpt lat="44.51916" lon="6.74477">
        <ele>1563.6</ele>
        <time>2022-06-12T12:06:22Z</time>
      </trkpt>
      <trkpt lat="44.51918" lon="6.74475">
        <ele>1563.8</ele>
        <time>2022-06-12T12:06:23Z</time>
      </trkpt>
      <trkpt lat="44.5192" lon="6.74474">
        <ele>1563.9</ele>
        <time>2022-06-12T12:06:24Z</time>
      </trkpt>
      <trkpt lat="44.51922" lon="6.74472">
        <ele>1564</ele>
        <time>2022-06-12T12:06:25Z</time>
      </trkpt>
      <trkpt lat="44.51924" lon="6.7447">
        <ele>1564.2</ele>
        <time>2022-06-12T12:06:26Z</time>
      </trkpt>
      <trkpt lat="44.51926" lon="6.74469">
        <ele>1564.5</ele>
        <time>2022-06-12T12:06:27Z</time>
      </trkpt>
      <trkpt lat="44.51928" lon="6.74467">
        <ele>1564.7</ele>
        <time>2022-06-12T12:06:28Z</time>
      </trkpt>
      <trkpt lat="44.5193" lon="6.74465">
        <ele>1564.9</ele>
        <time>2022-06-12T12:06:29Z</time>
      </trkpt>
      <trkpt lat="44.51932" lon="6.74464">
        <ele>1565.2</ele>
        <time>2022-06-12T12:06:30Z</time>
      </trkpt>
      <trkpt lat="44.51934" lon="6.74462">
        <ele>1565.3</ele>
        <time>2022-06-12T12:06:31Z</time>
      </trkpt>
      <trkpt lat="44.51936" lon="6.74461">
        <ele>1565.6</ele>
        <time>2022-06-12T12:06:32Z</time>
      </trkpt>
      <trkpt lat="44.51938" lon="6.7446">
        <ele>1565.8</ele>
        <time>2022-06-12T12:06:33Z</time>
      </trkpt>
      <trkpt lat="44.5194" lon="6.74458">
        <ele>1566</ele>
        <time>2022-06-12T12:06:34Z</time>
      </trkpt>
      <trkpt lat="44.51942" lon="6.74456">
        <ele>1566.2</ele>
        <time>2022-06-12T12:06:35Z</time>
      </trkpt>
      <trkpt lat="44.51944" lon="6.74455">
        <ele>1566.4</ele>
        <time>2022-06-12T12:06:36Z</time>
      </trkpt>
      <trkpt lat="44.51946" lon="6.74453">
        <ele>1566.7</ele>
        <time>2022-06-12T12:06:37Z</time>
      </trkpt>
      <trkpt lat="44.51948" lon="6.74452">
        <ele>1567.1</ele>
        <time>2022-06-12T12:06:38Z</time>
      </trkpt>
      <trkpt lat="44.51949" lon="6.7445">
        <ele>1567.4</ele>
        <time>2022-06-12T12:06:39Z</time>
      </trkpt>
      <trkpt lat="44.51951" lon="6.74448">
        <ele>1567.7</ele>
        <time>2022-06-12T12:06:40Z</time>
      </trkpt>
      <trkpt lat="44.51953" lon="6.74446">
        <ele>1568.1</ele>
        <time>2022-06-12T12:06:41Z</time>
      </trkpt>
      <trkpt lat="44.51955" lon="6.74445">
        <ele>1568.4</ele>
        <time>2022-06-12T12:06:42Z</time>
      </trkpt>
      <trkpt lat="44.51957" lon="6.74443">
        <ele>1568.8</ele>
        <time>2022-06-12T12:06:43Z</time>
      </trkpt>
      <trkpt lat="44.51959" lon="6.74442">
        <ele>1569.2</ele>
        <time>2022-06-12T12:06:44Z</time>
      </trkpt>
      <trkpt lat="44.51961" lon="6.7444">
        <ele>1569.6</ele>
        <time>2022-06-12T12:06:45Z</time>
      </trkpt>
      <trkpt lat="44.51963" lon="6.74438">
        <ele>1569.9</ele>
        <time>2022-06-12T12:06:46Z</time>
      </trkpt>
      <trkpt lat="44.51965" lon="6.74437">
        <ele>1570.2</ele>
        <time>2022-06-12T12:06:47Z</time>
      </trkpt>
      <trkpt lat="44.51966" lon="6.74435">
        <ele>1570.3</ele>
        <time>2022-06-12T12:06:48Z</time>
      </trkpt>
      <trkpt lat="44.51968" lon="6.74433">
        <ele>1570.5</ele>
        <time>2022-06-12T12:06:49Z</time>
      </trkpt>
      <trkpt lat="44.5197" lon="6.74432">
        <ele>1570.6</ele>
        <time>2022-06-12T12:06:50Z</time>
      </trkpt>
      <trkpt lat="44.51972" lon="6.7443">
        <ele>1570.6</ele>
        <time>2022-06-12T12:06:51Z</time>
      </trkpt>
      <trkpt lat="44.51974" lon="6.74428">
        <ele>1570.9</ele>
        <time>2022-06-12T12:06:52Z</time>
      </trkpt>
      <trkpt lat="44.51975" lon="6.74426">
        <ele>1571.3</ele>
        <time>2022-06-12T12:06:53Z</time>
      </trkpt>
      <trkpt lat="44.51977" lon="6.74424">
        <ele>1571.5</ele>
        <time>2022-06-12T12:06:54Z</time>
      </trkpt>
      <trkpt lat="44.51979" lon="6.74422">
        <ele>1571.8</ele>
        <time>2022-06-12T12:06:55Z</time>
      </trkpt>
      <trkpt lat="44.51981" lon="6.7442">
        <ele>1572.2</ele>
        <time>2022-06-12T12:06:56Z</time>
      </trkpt>
      <trkpt lat="44.51983" lon="6.74418">
        <ele>1572.5</ele>
        <time>2022-06-12T12:06:57Z</time>
      </trkpt>
      <trkpt lat="44.51985" lon="6.74416">
        <ele>1572.8</ele>
        <time>2022-06-12T12:06:58Z</time>
      </trkpt>
      <trkpt lat="44.51986" lon="6.74415">
        <ele>1573.2</ele>
        <time>2022-06-12T12:06:59Z</time>
      </trkpt>
      <trkpt lat="44.51988" lon="6.74413">
        <ele>1573.6</ele>
        <time>2022-06-12T12:07:00Z</time>
      </trkpt>
      <trkpt lat="44.5199" lon="6.74411">
        <ele>1574</ele>
        <time>2022-06-12T12:07:01Z</time>
      </trkpt>
      <trkpt lat="44.51992" lon="6.74409">
        <ele>1574.4</ele>
        <time>2022-06-12T12:07:02Z</time>
      </trkpt>
      <trkpt lat="44.51994" lon="6.74407">
        <ele>1574.5</ele>
        <time>2022-06-12T12:07:03Z</time>
      </trkpt>
      <trkpt lat="44.51995" lon="6.74404">
        <ele>1574.6</ele>
        <time>2022-06-12T12:07:04Z</time>
      </trkpt>
      <trkpt lat="44.51997" lon="6.74402">
        <ele>1574.7</ele>
        <time>2022-06-12T12:07:05Z</time>
      </trkpt>
      <trkpt lat="44.51998" lon="6.744">
        <ele>1574.9</ele>
        <time>2022-06-12T12:07:06Z</time>
      </trkpt>
      <trkpt lat="44.52" lon="6.74398">
        <ele>1574.9</ele>
        <time>2022-06-12T12:07:07Z</time>
      </trkpt>
      <trkpt lat="44.52002" lon="6.74396">
        <ele>1575.1</ele>
        <time>2022-06-12T12:07:08Z</time>
      </trkpt>
      <trkpt lat="44.52003" lon="6.74394">
        <ele>1575.2</ele>
        <time>2022-06-12T12:07:09Z</time>
      </trkpt>
      <trkpt lat="44.52005" lon="6.74392">
        <ele>1575.3</ele>
        <time>2022-06-12T12:07:10Z</time>
      </trkpt>
      <trkpt lat="44.52006" lon="6.7439">
        <ele>1575.4</ele>
        <time>2022-06-12T12:07:11Z</time>
      </trkpt>
      <trkpt lat="44.52008" lon="6.74388">
        <ele>1575.7</ele>
        <time>2022-06-12T12:07:12Z</time>
      </trkpt>
      <trkpt lat="44.52009" lon="6.74386">
        <ele>1575.8</ele>
        <time>2022-06-12T12:07:13Z</time>
      </trkpt>
      <trkpt lat="44.52011" lon="6.74383">
        <ele>1576.1</ele>
        <time>2022-06-12T12:07:14Z</time>
      </trkpt>
      <trkpt lat="44.52012" lon="6.74381">
        <ele>1576.2</ele>
        <time>2022-06-12T12:07:15Z</time>
      </trkpt>
      <trkpt lat="44.52014" lon="6.74379">
        <ele>1576.4</ele>
        <time>2022-06-12T12:07:16Z</time>
      </trkpt>
      <trkpt lat="44.52015" lon="6.74376">
        <ele>1576.6</ele>
        <time>2022-06-12T12:07:17Z</time>
      </trkpt>
      <trkpt lat="44.52017" lon="6.74374">
        <ele>1576.7</ele>
        <time>2022-06-12T12:07:18Z</time>
      </trkpt>
      <trkpt lat="44.52018" lon="6.74372">
        <ele>1576.7</ele>
        <time>2022-06-12T12:07:19Z</time>
      </trkpt>
      <trkpt lat="44.52019" lon="6.74369">
        <ele>1576.7</ele>
        <time>2022-06-12T12:07:20Z</time>
      </trkpt>
      <trkpt lat="44.52021" lon="6.74367">
        <ele>1576.8</ele>
        <time>2022-06-12T12:07:21Z</time>
      </trkpt>
      <trkpt lat="44.52022" lon="6.74364">
        <ele>1576.8</ele>
        <time>2022-06-12T12:07:22Z</time>
      </trkpt>
      <trkpt lat="44.52023" lon="6.74362">
        <ele>1576.8</ele>
        <time>2022-06-12T12:07:23Z</time>
      </trkpt>
      <trkpt lat="44.52024" lon="6.74359">
        <ele>1576.9</ele>
        <time>2022-06-12T12:07:24Z</time>
      </trkpt>
      <trkpt lat="44.52025" lon="6.74356">
        <ele>1576.9</ele>
        <time>2022-06-12T12:07:25Z</time>
      </trkpt>
      <trkpt lat="44.52026" lon="6.74353">
        <ele>1577</ele>
        <time>2022-06-12T12:07:26Z</time>
      </trkpt>
      <trkpt lat="44.52027" lon="6.74351">
        <ele>1577.1</ele>
        <time>2022-06-12T12:07:27Z</time>
      </trkpt>
      <trkpt lat="44.52029" lon="6.74348">
        <ele>1577.4</ele>
        <time>2022-06-12T12:07:28Z</time>
      </trkpt>
      <trkpt lat="44.5203" lon="6.74345">
        <ele>1577.7</ele>
        <time>2022-06-12T12:07:29Z</time>
      </trkpt>
      <trkpt lat="44.52031" lon="6.74342">
        <ele>1578</ele>
        <time>2022-06-12T12:07:30Z</time>
      </trkpt>
      <trkpt lat="44.52032" lon="6.74339">
        <ele>1578.4</ele>
        <time>2022-06-12T12:07:31Z</time>
      </trkpt>
      <trkpt lat="44.52033" lon="6.74336">
        <ele>1578.4</ele>
        <time>2022-06-12T12:07:32Z</time>
      </trkpt>
      <trkpt lat="44.52033" lon="6.74333">
        <ele>1578.6</ele>
        <time>2022-06-12T12:07:33Z</time>
      </trkpt>
      <trkpt lat="44.52034" lon="6.7433">
        <ele>1578.8</ele>
        <time>2022-06-12T12:07:34Z</time>
      </trkpt>
      <trkpt lat="44.52035" lon="6.74327">
        <ele>1579</ele>
        <time>2022-06-12T12:07:35Z</time>
      </trkpt>
      <trkpt lat="44.52035" lon="6.74324">
        <ele>1579.1</ele>
        <time>2022-06-12T12:07:36Z</time>
      </trkpt>
      <trkpt lat="44.52036" lon="6.7432">
        <ele>1579.1</ele>
        <time>2022-06-12T12:07:37Z</time>
      </trkpt>
      <trkpt lat="44.52036" lon="6.74317">
        <ele>1579.2</ele>
        <time>2022-06-12T12:07:38Z</time>
      </trkpt>
      <trkpt lat="44.52036" lon="6.74313">
        <ele>1579.2</ele>
        <time>2022-06-12T12:07:39Z</time>
      </trkpt>
      <trkpt lat="44.52037" lon="6.7431">
        <ele>1579.2</ele>
        <time>2022-06-12T12:07:40Z</time>
      </trkpt>
      <trkpt lat="44.52037" lon="6.74307">
        <ele>1579.4</ele>
        <time>2022-06-12T12:07:41Z</time>
      </trkpt>
      <trkpt lat="44.52037" lon="6.74304">
        <ele>1579.6</ele>
        <time>2022-06-12T12:07:42Z</time>
      </trkpt>
      <trkpt lat="44.52038" lon="6.743">
        <ele>1579.8</ele>
        <time>2022-06-12T12:07:43Z</time>
      </trkpt>
      <trkpt lat="44.52037" lon="6.74297">
        <ele>1579.9</ele>
        <time>2022-06-12T12:07:44Z</time>
      </trkpt>
      <trkpt lat="44.52038" lon="6.74294">
        <ele>1580.2</ele>
        <time>2022-06-12T12:07:45Z</time>
      </trkpt>
      <trkpt lat="44.52038" lon="6.7429">
        <ele>1580.7</ele>
        <time>2022-06-12T12:07:46Z</time>
      </trkpt>
      <trkpt lat="44.52039" lon="6.74287">
        <ele>1581.1</ele>
        <time>2022-06-12T12:07:47Z</time>
      </trkpt>
      <trkpt lat="44.52039" lon="6.74283">
        <ele>1581.3</ele>
        <time>2022-06-12T12:07:48Z</time>
      </trkpt>
      <trkpt lat="44.52039" lon="6.74279">
        <ele>1581.5</ele>
        <time>2022-06-12T12:07:49Z</time>
      </trkpt>
      <trkpt lat="44.52039" lon="6.74276">
        <ele>1581.6</ele>
        <time>2022-06-12T12:07:50Z</time>
      </trkpt>
      <trkpt lat="44.52038" lon="6.74272">
        <ele>1581.7</ele>
        <time>2022-06-12T12:07:51Z</time>
      </trkpt>
      <trkpt lat="44.52038" lon="6.74269">
        <ele>1582</ele>
        <time>2022-06-12T12:07:52Z</time>
      </trkpt>
      <trkpt lat="44.52038" lon="6.74265">
        <ele>1582.1</ele>
        <time>2022-06-12T12:07:53Z</time>
      </trkpt>
      <trkpt lat="44.52037" lon="6.74261">
        <ele>1582.2</ele>
        <time>2022-06-12T12:07:54Z</time>
      </trkpt>
      <trkpt lat="44.52037" lon="6.74257">
        <ele>1582.4</ele>
        <time>2022-06-12T12:07:55Z</time>
      </trkpt>
      <trkpt lat="44.52036" lon="6.74253">
        <ele>1582.7</ele>
        <time>2022-06-12T12:07:56Z</time>
      </trkpt>
      <trkpt lat="44.52036" lon="6.7425">
        <ele>1582.9</ele>
        <time>2022-06-12T12:07:57Z</time>
      </trkpt>
      <trkpt lat="44.52036" lon="6.74246">
        <ele>1583.2</ele>
        <time>2022-06-12T12:07:58Z</time>
      </trkpt>
      <trkpt lat="44.52035" lon="6.74242">
        <ele>1583.4</ele>
        <time>2022-06-12T12:07:59Z</time>
      </trkpt>
      <trkpt lat="44.52035" lon="6.74238">
        <ele>1583.4</ele>
        <time>2022-06-12T12:08:00Z</time>
      </trkpt>
      <trkpt lat="44.52034" lon="6.74234">
        <ele>1583.6</ele>
        <time>2022-06-12T12:08:01Z</time>
      </trkpt>
      <trkpt lat="44.52034" lon="6.74231">
        <ele>1583.8</ele>
        <time>2022-06-12T12:08:02Z</time>
      </trkpt>
      <trkpt lat="44.52033" lon="6.74227">
        <ele>1583.8</ele>
        <time>2022-06-12T12:08:03Z</time>
      </trkpt>
      <trkpt lat="44.52032" lon="6.74224">
        <ele>1583.9</ele>
        <time>2022-06-12T12:08:04Z</time>
      </trkpt>
      <trkpt lat="44.52032" lon="6.7422">
        <ele>1583.9</ele>
        <time>2022-06-12T12:08:05Z</time>
      </trkpt>
      <trkpt lat="44.52031" lon="6.74217">
        <ele>1583.9</ele>
        <time>2022-06-12T12:08:06Z</time>
      </trkpt>
      <trkpt lat="44.52031" lon="6.74213">
        <ele>1583.9</ele>
        <time>2022-06-12T12:08:07Z</time>
      </trkpt>
      <trkpt lat="44.5203" lon="6.7421">
        <ele>1583.8</ele>
        <time>2022-06-12T12:08:08Z</time>
      </trkpt>
      <trkpt lat="44.5203" lon="6.74206">
        <ele>1583.9</ele>
        <time>2022-06-12T12:08:09Z</time>
      </trkpt>
      <trkpt lat="44.52029" lon="6.74203">
        <ele>1584</ele>
        <time>2022-06-12T12:08:10Z</time>
      </trkpt>
      <trkpt lat="44.52029" lon="6.74199">
        <ele>1584</ele>
        <time>2022-06-12T12:08:11Z</time>
      </trkpt>
      <trkpt lat="44.52028" lon="6.74195">
        <ele>1584</ele>
        <time>2022-06-12T12:08:12Z</time>
      </trkpt>
      <trkpt lat="44.52027" lon="6.74192">
        <ele>1584.1</ele>
        <time>2022-06-12T12:08:13Z</time>
      </trkpt>
      <trkpt lat="44.52026" lon="6.74188">
        <ele>1584.2</ele>
        <time>2022-06-12T12:08:14Z</time>
      </trkpt>
      <trkpt lat="44.52026" lon="6.74185">
        <ele>1584.3</ele>
        <time>2022-06-12T12:08:15Z</time>
      </trkpt>
      <trkpt lat="44.52025" lon="6.74181">
        <ele>1584.4</ele>
        <time>2022-06-12T12:08:16Z</time>
      </trkpt>
      <trkpt lat="44.52024" lon="6.74178">
        <ele>1584.5</ele>
        <time>2022-06-12T12:08:17Z</time>
      </trkpt>
      <trkpt lat="44.52023" lon="6.74174">
        <ele>1584.7</ele>
        <time>2022-06-12T12:08:18Z</time>
      </trkpt>
      <trkpt lat="44.52023" lon="6.74171">
        <ele>1584.8</ele>
        <time>2022-06-12T12:08:19Z</time>
      </trkpt>
      <trkpt lat="44.52022" lon="6.74168">
        <ele>1584.9</ele>
        <time>2022-06-12T12:08:20Z</time>
      </trkpt>
      <trkpt lat="44.52021" lon="6.74164">
        <ele>1584.8</ele>
        <time>2022-06-12T12:08:21Z</time>
      </trkpt>
      <trkpt lat="44.5202" lon="6.74161">
        <ele>1584.8</ele>
        <time>2022-06-12T12:08:22Z</time>
      </trkpt>
      <trkpt lat="44.52019" lon="6.74157">
        <ele>1584.8</ele>
        <time>2022-06-12T12:08:23Z</time>
      </trkpt>
      <trkpt lat="44.52018" lon="6.74154">
        <ele>1584.8</ele>
        <time>2022-06-12T12:08:24Z</time>
      </trkpt>
      <trkpt lat="44.52017" lon="6.74151">
        <ele>1584.9</ele>
        <time>2022-06-12T12:08:25Z</time>
      </trkpt>
      <trkpt lat="44.52017" lon="6.74147">
        <ele>1585</ele>
        <time>2022-06-12T12:08:26Z</time>
      </trkpt>
      <trkpt lat="44.52016" lon="6.74143">
        <ele>1585.3</ele>
        <time>2022-06-12T12:08:27Z</time>
      </trkpt>
      <trkpt lat="44.52015" lon="6.7414">
        <ele>1585.3</ele>
        <time>2022-06-12T12:08:28Z</time>
      </trkpt>
      <trkpt lat="44.52015" lon="6.74137">
        <ele>1585.4</ele>
        <time>2022-06-12T12:08:29Z</time>
      </trkpt>
      <trkpt lat="44.52014" lon="6.74133">
        <ele>1585.5</ele>
        <time>2022-06-12T12:08:30Z</time>
      </trkpt>
      <trkpt lat="44.52013" lon="6.7413">
        <ele>1585.6</ele>
        <time>2022-06-12T12:08:31Z</time>
      </trkpt>
      <trkpt lat="44.52013" lon="6.74126">
        <ele>1585.8</ele>
        <time>2022-06-12T12:08:32Z</time>
      </trkpt>
      <trkpt lat="44.52012" lon="6.74122">
        <ele>1586</ele>
        <time>2022-06-12T12:08:33Z</time>
      </trkpt>
      <trkpt lat="44.52011" lon="6.74119">
        <ele>1586.2</ele>
        <time>2022-06-12T12:08:34Z</time>
      </trkpt>
      <trkpt lat="44.52011" lon="6.74115">
        <ele>1586.4</ele>
        <time>2022-06-12T12:08:35Z</time>
      </trkpt>
      <trkpt lat="44.52011" lon="6.74112">
        <ele>1586.8</ele>
        <time>2022-06-12T12:08:36Z</time>
      </trkpt>
      <trkpt lat="44.52011" lon="6.74108">
        <ele>1586.8</ele>
        <time>2022-06-12T12:08:37Z</time>
      </trkpt>
      <trkpt lat="44.52011" lon="6.74104">
        <ele>1586.9</ele>
        <time>2022-06-12T12:08:38Z</time>
      </trkpt>
      <trkpt lat="44.52012" lon="6.74101">
        <ele>1587.1</ele>
        <time>2022-06-12T12:08:39Z</time>
      </trkpt>
      <trkpt lat="44.52012" lon="6.74097">
        <ele>1587.2</ele>
        <time>2022-06-12T12:08:40Z</time>
      </trkpt>
      <trkpt lat="44.52013" lon="6.74094">
        <ele>1587.5</ele>
        <time>2022-06-12T12:08:41Z</time>
      </trkpt>
      <trkpt lat="44.52014" lon="6.74091">
        <ele>1587.8</ele>
        <time>2022-06-12T12:08:42Z</time>
      </trkpt>
      <trkpt lat="44.52015" lon="6.74087">
        <ele>1588.1</ele>
        <time>2022-06-12T12:08:43Z</time>
      </trkpt>
      <trkpt lat="44.52016" lon="6.74084">
        <ele>1588.6</ele>
        <time>2022-06-12T12:08:44Z</time>
      </trkpt>
      <trkpt lat="44.52018" lon="6.74082">
        <ele>1588.9</ele>
        <time>2022-06-12T12:08:45Z</time>
      </trkpt>
      <trkpt lat="44.52019" lon="6.74079">
        <ele>1589.2</ele>
        <time>2022-06-12T12:08:46Z</time>
      </trkpt>
      <trkpt lat="44.52021" lon="6.74076">
        <ele>1589.5</ele>
        <time>2022-06-12T12:08:47Z</time>
      </trkpt>
      <trkpt lat="44.52023" lon="6.74073">
        <ele>1589.8</ele>
        <time>2022-06-12T12:08:48Z</time>
      </trkpt>
      <trkpt lat="44.52024" lon="6.74071">
        <ele>1590.1</ele>
        <time>2022-06-12T12:08:49Z</time>
      </trkpt>
      <trkpt lat="44.52026" lon="6.74068">
        <ele>1590.4</ele>
        <time>2022-06-12T12:08:50Z</time>
      </trkpt>
      <trkpt lat="44.52028" lon="6.74066">
        <ele>1590.7</ele>
        <time>2022-06-12T12:08:51Z</time>
      </trkpt>
      <trkpt lat="44.5203" lon="6.74064">
        <ele>1590.9</ele>
        <time>2022-06-12T12:08:52Z</time>
      </trkpt>
      <trkpt lat="44.52032" lon="6.74061">
        <ele>1591.1</ele>
        <time>2022-06-12T12:08:53Z</time>
      </trkpt>
      <trkpt lat="44.52034" lon="6.7406">
        <ele>1591.2</ele>
        <time>2022-06-12T12:08:54Z</time>
      </trkpt>
      <trkpt lat="44.52036" lon="6.74058">
        <ele>1591.4</ele>
        <time>2022-06-12T12:08:55Z</time>
      </trkpt>
      <trkpt lat="44.52039" lon="6.74057">
        <ele>1591.6</ele>
        <time>2022-06-12T12:08:56Z</time>
      </trkpt>
      <trkpt lat="44.52041" lon="6.74055">
        <ele>1591.8</ele>
        <time>2022-06-12T12:08:57Z</time>
      </trkpt>
      <trkpt lat="44.52043" lon="6.74054">
        <ele>1591.9</ele>
        <time>2022-06-12T12:08:58Z</time>
      </trkpt>
      <trkpt lat="44.52046" lon="6.74053">
        <ele>1592</ele>
        <time>2022-06-12T12:08:59Z</time>
      </trkpt>
      <trkpt lat="44.52048" lon="6.74053">
        <ele>1592.2</ele>
        <time>2022-06-12T12:09:00Z</time>
      </trkpt>
      <trkpt lat="44.52051" lon="6.74052">
        <ele>1592.4</ele>
        <time>2022-06-12T12:09:01Z</time>
      </trkpt>
      <trkpt lat="44.52054" lon="6.74052">
        <ele>1592.6</ele>
        <time>2022-06-12T12:09:02Z</time>
      </trkpt>
      <trkpt lat="44.52056" lon="6.74052">
        <ele>1592.8</ele>
        <time>2022-06-12T12:09:03Z</time>
      </trkpt>
      <trkpt lat="44.52059" lon="6.74052">
        <ele>1592.8</ele>
        <time>2022-06-12T12:09:04Z</time>
      </trkpt>
      <trkpt lat="44.52062" lon="6.74052">
        <ele>1592.7</ele>
        <time>2022-06-12T12:09:05Z</time>
      </trkpt>
      <trkpt lat="44.52064" lon="6.74052">
        <ele>1592.7</ele>
        <time>2022-06-12T12:09:06Z</time>
      </trkpt>
      <trkpt lat="44.52067" lon="6.74052">
        <ele>1592.9</ele>
        <time>2022-06-12T12:09:07Z</time>
      </trkpt>
      <trkpt lat="44.52069" lon="6.74053">
        <ele>1593</ele>
        <time>2022-06-12T12:09:08Z</time>
      </trkpt>
      <trkpt lat="44.52072" lon="6.74053">
        <ele>1593.1</ele>
        <time>2022-06-12T12:09:09Z</time>
      </trkpt>
      <trkpt lat="44.52075" lon="6.74054">
        <ele>1593.3</ele>
        <time>2022-06-12T12:09:10Z</time>
      </trkpt>
      <trkpt lat="44.52077" lon="6.74054">
        <ele>1593.5</ele>
        <time>2022-06-12T12:09:11Z</time>
      </trkpt>
      <trkpt lat="44.5208" lon="6.74055">
        <ele>1593.8</ele>
        <time>2022-06-12T12:09:12Z</time>
      </trkpt>
      <trkpt lat="44.52082" lon="6.74056">
        <ele>1594.1</ele>
        <time>2022-06-12T12:09:13Z</time>
      </trkpt>
      <trkpt lat="44.52085" lon="6.74057">
        <ele>1594.3</ele>
        <time>2022-06-12T12:09:14Z</time>
      </trkpt>
      <trkpt lat="44.52088" lon="6.74058">
        <ele>1594.6</ele>
        <time>2022-06-12T12:09:15Z</time>
      </trkpt>
      <trkpt lat="44.5209" lon="6.74058">
        <ele>1594.8</ele>
        <time>2022-06-12T12:09:16Z</time>
      </trkpt>
      <trkpt lat="44.52093" lon="6.74059">
        <ele>1595</ele>
        <time>2022-06-12T12:09:17Z</time>
      </trkpt>
      <trkpt lat="44.52096" lon="6.7406">
        <ele>1595.3</ele>
        <time>2022-06-12T12:09:18Z</time>
      </trkpt>
      <trkpt lat="44.52098" lon="6.74061">
        <ele>1595.6</ele>
        <time>2022-06-12T12:09:19Z</time>
      </trkpt>
      <trkpt lat="44.52101" lon="6.74062">
        <ele>1595.8</ele>
        <time>2022-06-12T12:09:20Z</time>
      </trkpt>
      <trkpt lat="44.52104" lon="6.74062">
        <ele>1596.1</ele>
        <time>2022-06-12T12:09:21Z</time>
      </trkpt>
      <trkpt lat="44.52106" lon="6.74063">
        <ele>1596.4</ele>
        <time>2022-06-12T12:09:22Z</time>
      </trkpt>
      <trkpt lat="44.52109" lon="6.74064">
        <ele>1596.7</ele>
        <time>2022-06-12T12:09:23Z</time>
      </trkpt>
      <trkpt lat="44.52111" lon="6.74065">
        <ele>1597</ele>
        <time>2022-06-12T12:09:24Z</time>
      </trkpt>
      <trkpt lat="44.52114" lon="6.74065">
        <ele>1597.1</ele>
        <time>2022-06-12T12:09:25Z</time>
      </trkpt>
      <trkpt lat="44.52116" lon="6.74066">
        <ele>1597.2</ele>
        <time>2022-06-12T12:09:26Z</time>
      </trkpt>
      <trkpt lat="44.52119" lon="6.74066">
        <ele>1597.3</ele>
        <time>2022-06-12T12:09:27Z</time>
      </trkpt>
      <trkpt lat="44.52121" lon="6.74066">
        <ele>1597.2</ele>
        <time>2022-06-12T12:09:28Z</time>
      </trkpt>
      <trkpt lat="44.52124" lon="6.74066">
        <ele>1597.1</ele>
        <time>2022-06-12T12:09:29Z</time>
      </trkpt>
      <trkpt lat="44.52127" lon="6.74066">
        <ele>1597</ele>
        <time>2022-06-12T12:09:30Z</time>
      </trkpt>
      <trkpt lat="44.52129" lon="6.74065">
        <ele>1596.7</ele>
        <time>2022-06-12T12:09:31Z</time>
      </trkpt>
      <trkpt lat="44.52132" lon="6.74065">
        <ele>1596.4</ele>
        <time>2022-06-12T12:09:32Z</time>
      </trkpt>
      <trkpt lat="44.52134" lon="6.74064">
        <ele>1596.2</ele>
        <time>2022-06-12T12:09:33Z</time>
      </trkpt>
      <trkpt lat="44.52136" lon="6.74063">
        <ele>1595.9</ele>
        <time>2022-06-12T12:09:34Z</time>
      </trkpt>
      <trkpt lat="44.52139" lon="6.74062">
        <ele>1595.7</ele>
        <time>2022-06-12T12:09:35Z</time>
      </trkpt>
      <trkpt lat="44.52141" lon="6.74061">
        <ele>1595.1</ele>
        <time>2022-06-12T12:09:36Z</time>
      </trkpt>
      <trkpt lat="44.52143" lon="6.74059">
        <ele>1594.4</ele>
        <time>2022-06-12T12:09:37Z</time>
      </trkpt>
      <trkpt lat="44.52146" lon="6.74058">
        <ele>1593.8</ele>
        <time>2022-06-12T12:09:38Z</time>
      </trkpt>
      <trkpt lat="44.52148" lon="6.74056">
        <ele>1593.1</ele>
        <time>2022-06-12T12:09:39Z</time>
      </trkpt>
      <trkpt lat="44.52149" lon="6.74053">
        <ele>1592.8</ele>
        <time>2022-06-12T12:09:40Z</time>
      </trkpt>
      <trkpt lat="44.52151" lon="6.74051">
        <ele>1592.7</ele>
        <time>2022-06-12T12:09:41Z</time>
      </trkpt>
      <trkpt lat="44.52153" lon="6.74049">
        <ele>1592.6</ele>
        <time>2022-06-12T12:09:42Z</time>
      </trkpt>
      <trkpt lat="44.52155" lon="6.74047">
        <ele>1592.7</ele>
        <time>2022-06-12T12:09:43Z</time>
      </trkpt>
      <trkpt lat="44.52157" lon="6.74045">
        <ele>1592.8</ele>
        <time>2022-06-12T12:09:44Z</time>
      </trkpt>
      <trkpt lat="44.52159" lon="6.74042">
        <ele>1593</ele>
        <time>2022-06-12T12:09:45Z</time>
      </trkpt>
      <trkpt lat="44.52161" lon="6.7404">
        <ele>1593.4</ele>
        <time>2022-06-12T12:09:46Z</time>
      </trkpt>
      <trkpt lat="44.52162" lon="6.74037">
        <ele>1593.9</ele>
        <time>2022-06-12T12:09:47Z</time>
      </trkpt>
      <trkpt lat="44.52164" lon="6.74034">
        <ele>1594.5</ele>
        <time>2022-06-12T12:09:48Z</time>
      </trkpt>
      <trkpt lat="44.52166" lon="6.74032">
        <ele>1595.1</ele>
        <time>2022-06-12T12:09:49Z</time>
      </trkpt>
      <trkpt lat="44.52167" lon="6.74029">
        <ele>1595.9</ele>
        <time>2022-06-12T12:09:50Z</time>
      </trkpt>
      <trkpt lat="44.52168" lon="6.74026">
        <ele>1596.4</ele>
        <time>2022-06-12T12:09:51Z</time>
      </trkpt>
      <trkpt lat="44.52169" lon="6.74023">
        <ele>1596.8</ele>
        <time>2022-06-12T12:09:52Z</time>
      </trkpt>
      <trkpt lat="44.5217" lon="6.7402">
        <ele>1597.3</ele>
        <time>2022-06-12T12:09:53Z</time>
      </trkpt>
      <trkpt lat="44.52171" lon="6.74016">
        <ele>1597.8</ele>
        <time>2022-06-12T12:09:54Z</time>
      </trkpt>
      <trkpt lat="44.52172" lon="6.74013">
        <ele>1598.2</ele>
        <time>2022-06-12T12:09:55Z</time>
      </trkpt>
      <trkpt lat="44.52174" lon="6.74011">
        <ele>1598.7</ele>
        <time>2022-06-12T12:09:56Z</time>
      </trkpt>
      <trkpt lat="44.52175" lon="6.74008">
        <ele>1599.2</ele>
        <time>2022-06-12T12:09:57Z</time>
      </trkpt>
      <trkpt lat="44.52176" lon="6.74005">
        <ele>1599.9</ele>
        <time>2022-06-12T12:09:58Z</time>
      </trkpt>
      <trkpt lat="44.52178" lon="6.74002">
        <ele>1600.5</ele>
        <time>2022-06-12T12:09:59Z</time>
      </trkpt>
      <trkpt lat="44.5218" lon="6.73999">
        <ele>1601.1</ele>
        <time>2022-06-12T12:10:00Z</time>
      </trkpt>
      <trkpt lat="44.52181" lon="6.73996">
        <ele>1601.4</ele>
        <time>2022-06-12T12:10:01Z</time>
      </trkpt>
      <trkpt lat="44.52183" lon="6.73993">
        <ele>1601.6</ele>
        <time>2022-06-12T12:10:02Z</time>
      </trkpt>
      <trkpt lat="44.52184" lon="6.7399">
        <ele>1601.9</ele>
        <time>2022-06-12T12:10:03Z</time>
      </trkpt>
      <trkpt lat="44.52186" lon="6.73988">
        <ele>1602</ele>
        <time>2022-06-12T12:10:04Z</time>
      </trkpt>
      <trkpt lat="44.52187" lon="6.73985">
        <ele>1602.1</ele>
        <time>2022-06-12T12:10:05Z</time>
      </trkpt>
      <trkpt lat="44.52188" lon="6.73982">
        <ele>1602.3</ele>
        <time>2022-06-12T12:10:06Z</time>
      </trkpt>
      <trkpt lat="44.5219" lon="6.73979">
        <ele>1602.5</ele>
        <time>2022-06-12T12:10:07Z</time>
      </trkpt>
      <trkpt lat="44.52192" lon="6.73977">
        <ele>1602.8</ele>
        <time>2022-06-12T12:10:08Z</time>
      </trkpt>
      <trkpt lat="44.52194" lon="6.73975">
        <ele>1603</ele>
        <time>2022-06-12T12:10:09Z</time>
      </trkpt>
      <trkpt lat="44.52195" lon="6.73972">
        <ele>1603.2</ele>
        <time>2022-06-12T12:10:10Z</time>
      </trkpt>
      <trkpt lat="44.52197" lon="6.7397">
        <ele>1603.4</ele>
        <time>2022-06-12T12:10:11Z</time>
      </trkpt>
      <trkpt lat="44.52199" lon="6.73968">
        <ele>1603.7</ele>
        <time>2022-06-12T12:10:12Z</time>
      </trkpt>
      <trkpt lat="44.52201" lon="6.73965">
        <ele>1603.9</ele>
        <time>2022-06-12T12:10:13Z</time>
      </trkpt>
      <trkpt lat="44.52203" lon="6.73963">
        <ele>1604.1</ele>
        <time>2022-06-12T12:10:14Z</time>
      </trkpt>
      <trkpt lat="44.52205" lon="6.73961">
        <ele>1604.3</ele>
        <time>2022-06-12T12:10:15Z</time>
      </trkpt>
      <trkpt lat="44.52207" lon="6.73959">
        <ele>1604.5</ele>
        <time>2022-06-12T12:10:16Z</time>
      </trkpt>
      <trkpt lat="44.52209" lon="6.73958">
        <ele>1604.8</ele>
        <time>2022-06-12T12:10:17Z</time>
      </trkpt>
      <trkpt lat="44.52211" lon="6.73957">
        <ele>1605.2</ele>
        <time>2022-06-12T12:10:18Z</time>
      </trkpt>
      <trkpt lat="44.52214" lon="6.73956">
        <ele>1605.4</ele>
        <time>2022-06-12T12:10:19Z</time>
      </trkpt>
      <trkpt lat="44.52216" lon="6.73955">
        <ele>1605.7</ele>
        <time>2022-06-12T12:10:20Z</time>
      </trkpt>
      <trkpt lat="44.52218" lon="6.73954">
        <ele>1605.9</ele>
        <time>2022-06-12T12:10:21Z</time>
      </trkpt>
      <trkpt lat="44.52221" lon="6.73953">
        <ele>1606.2</ele>
        <time>2022-06-12T12:10:22Z</time>
      </trkpt>
      <trkpt lat="44.52223" lon="6.73952">
        <ele>1606.5</ele>
        <time>2022-06-12T12:10:23Z</time>
      </trkpt>
      <trkpt lat="44.52226" lon="6.73951">
        <ele>1606.8</ele>
        <time>2022-06-12T12:10:24Z</time>
      </trkpt>
      <trkpt lat="44.52228" lon="6.73951">
        <ele>1607.2</ele>
        <time>2022-06-12T12:10:25Z</time>
      </trkpt>
      <trkpt lat="44.5223" lon="6.7395">
        <ele>1607.5</ele>
        <time>2022-06-12T12:10:26Z</time>
      </trkpt>
      <trkpt lat="44.52233" lon="6.7395">
        <ele>1607.8</ele>
        <time>2022-06-12T12:10:27Z</time>
      </trkpt>
      <trkpt lat="44.52235" lon="6.73949">
        <ele>1608.1</ele>
        <time>2022-06-12T12:10:28Z</time>
      </trkpt>
      <trkpt lat="44.52238" lon="6.73949">
        <ele>1608.5</ele>
        <time>2022-06-12T12:10:29Z</time>
      </trkpt>
      <trkpt lat="44.5224" lon="6.73948">
        <ele>1608.7</ele>
        <time>2022-06-12T12:10:30Z</time>
      </trkpt>
      <trkpt lat="44.52242" lon="6.73947">
        <ele>1609.1</ele>
        <time>2022-06-12T12:10:31Z</time>
      </trkpt>
      <trkpt lat="44.52245" lon="6.73947">
        <ele>1609.4</ele>
        <time>2022-06-12T12:10:32Z</time>
      </trkpt>
      <trkpt lat="44.52247" lon="6.73946">
        <ele>1609.8</ele>
        <time>2022-06-12T12:10:33Z</time>
      </trkpt>
      <trkpt lat="44.5225" lon="6.73946">
        <ele>1610.1</ele>
        <time>2022-06-12T12:10:34Z</time>
      </trkpt>
      <trkpt lat="44.52252" lon="6.73944">
        <ele>1610.3</ele>
        <time>2022-06-12T12:10:35Z</time>
      </trkpt>
      <trkpt lat="44.52254" lon="6.73944">
        <ele>1610.6</ele>
        <time>2022-06-12T12:10:36Z</time>
      </trkpt>
      <trkpt lat="44.52256" lon="6.73943">
        <ele>1611</ele>
        <time>2022-06-12T12:10:37Z</time>
      </trkpt>
      <trkpt lat="44.52259" lon="6.73943">
        <ele>1611.4</ele>
        <time>2022-06-12T12:10:38Z</time>
      </trkpt>
      <trkpt lat="44.52261" lon="6.73942">
        <ele>1611.8</ele>
        <time>2022-06-12T12:10:39Z</time>
      </trkpt>
      <trkpt lat="44.52263" lon="6.73942">
        <ele>1612.1</ele>
        <time>2022-06-12T12:10:40Z</time>
      </trkpt>
      <trkpt lat="44.52265" lon="6.73941">
        <ele>1612.5</ele>
        <time>2022-06-12T12:10:41Z</time>
      </trkpt>
      <trkpt lat="44.52267" lon="6.7394">
        <ele>1612.8</ele>
        <time>2022-06-12T12:10:42Z</time>
      </trkpt>
      <trkpt lat="44.5227" lon="6.73939">
        <ele>1613</ele>
        <time>2022-06-12T12:10:43Z</time>
      </trkpt>
      <trkpt lat="44.52272" lon="6.73939">
        <ele>1613.4</ele>
        <time>2022-06-12T12:10:44Z</time>
      </trkpt>
      <trkpt lat="44.52274" lon="6.73938">
        <ele>1613.7</ele>
        <time>2022-06-12T12:10:45Z</time>
      </trkpt>
      <trkpt lat="44.52276" lon="6.73938">
        <ele>1614.1</ele>
        <time>2022-06-12T12:10:46Z</time>
      </trkpt>
      <trkpt lat="44.52279" lon="6.73937">
        <ele>1614.6</ele>
        <time>2022-06-12T12:10:47Z</time>
      </trkpt>
      <trkpt lat="44.52281" lon="6.73935">
        <ele>1614.7</ele>
        <time>2022-06-12T12:10:48Z</time>
      </trkpt>
      <trkpt lat="44.52283" lon="6.73934">
        <ele>1615</ele>
        <time>2022-06-12T12:10:49Z</time>
      </trkpt>
      <trkpt lat="44.52285" lon="6.73933">
        <ele>1615.2</ele>
        <time>2022-06-12T12:10:50Z</time>
      </trkpt>
      <trkpt lat="44.52287" lon="6.73931">
        <ele>1615.5</ele>
        <time>2022-06-12T12:10:51Z</time>
      </trkpt>
      <trkpt lat="44.52289" lon="6.73929">
        <ele>1615.7</ele>
        <time>2022-06-12T12:10:52Z</time>
      </trkpt>
      <trkpt lat="44.52291" lon="6.73927">
        <ele>1615.9</ele>
        <time>2022-06-12T12:10:53Z</time>
      </trkpt>
      <trkpt lat="44.52293" lon="6.73925">
        <ele>1616.1</ele>
        <time>2022-06-12T12:10:54Z</time>
      </trkpt>
      <trkpt lat="44.52295" lon="6.73923">
        <ele>1616.4</ele>
        <time>2022-06-12T12:10:55Z</time>
      </trkpt>
      <trkpt lat="44.52296" lon="6.7392">
        <ele>1616.5</ele>
        <time>2022-06-12T12:10:56Z</time>
      </trkpt>
      <trkpt lat="44.52298" lon="6.73918">
        <ele>1616.6</ele>
        <time>2022-06-12T12:10:57Z</time>
      </trkpt>
      <trkpt lat="44.523" lon="6.73916">
        <ele>1616.9</ele>
        <time>2022-06-12T12:10:58Z</time>
      </trkpt>
      <trkpt lat="44.52301" lon="6.73913">
        <ele>1617.2</ele>
        <time>2022-06-12T12:10:59Z</time>
      </trkpt>
      <trkpt lat="44.52302" lon="6.73911">
        <ele>1617.2</ele>
        <time>2022-06-12T12:11:00Z</time>
      </trkpt>
      <trkpt lat="44.52304" lon="6.73908">
        <ele>1617.4</ele>
        <time>2022-06-12T12:11:01Z</time>
      </trkpt>
      <trkpt lat="44.52305" lon="6.73905">
        <ele>1617.6</ele>
        <time>2022-06-12T12:11:02Z</time>
      </trkpt>
      <trkpt lat="44.52307" lon="6.73903">
        <ele>1617.9</ele>
        <time>2022-06-12T12:11:03Z</time>
      </trkpt>
      <trkpt lat="44.52308" lon="6.739">
        <ele>1618.1</ele>
        <time>2022-06-12T12:11:04Z</time>
      </trkpt>
      <trkpt lat="44.52309" lon="6.73897">
        <ele>1618.3</ele>
        <time>2022-06-12T12:11:05Z</time>
      </trkpt>
      <trkpt lat="44.5231" lon="6.73894">
        <ele>1618.5</ele>
        <time>2022-06-12T12:11:06Z</time>
      </trkpt>
      <trkpt lat="44.5231" lon="6.73891">
        <ele>1618.5</ele>
        <time>2022-06-12T12:11:07Z</time>
      </trkpt>
      <trkpt lat="44.52311" lon="6.73888">
        <ele>1618.5</ele>
        <time>2022-06-12T12:11:08Z</time>
      </trkpt>
      <trkpt lat="44.52312" lon="6.73885">
        <ele>1618.4</ele>
        <time>2022-06-12T12:11:09Z</time>
      </trkpt>
      <trkpt lat="44.52312" lon="6.73882">
        <ele>1618.4</ele>
        <time>2022-06-12T12:11:10Z</time>
      </trkpt>
      <trkpt lat="44.52314" lon="6.73879">
        <ele>1618.6</ele>
        <time>2022-06-12T12:11:11Z</time>
      </trkpt>
      <trkpt lat="44.52314" lon="6.73876">
        <ele>1618.5</ele>
        <time>2022-06-12T12:11:12Z</time>
      </trkpt>
      <trkpt lat="44.52315" lon="6.73873">
        <ele>1618.4</ele>
        <time>2022-06-12T12:11:13Z</time>
      </trkpt>
      <trkpt lat="44.52316" lon="6.73869">
        <ele>1618.4</ele>
        <time>2022-06-12T12:11:14Z</time>
      </trkpt>
      <trkpt lat="44.52317" lon="6.73866">
        <ele>1618.1</ele>
        <time>2022-06-12T12:11:15Z</time>
      </trkpt>
      <trkpt lat="44.52317" lon="6.73863">
        <ele>1617.9</ele>
        <time>2022-06-12T12:11:16Z</time>
      </trkpt>
      <trkpt lat="44.52317" lon="6.7386">
        <ele>1617.7</ele>
        <time>2022-06-12T12:11:17Z</time>
      </trkpt>
      <trkpt lat="44.52318" lon="6.73857">
        <ele>1617.9</ele>
        <time>2022-06-12T12:11:18Z</time>
      </trkpt>
      <trkpt lat="44.52318" lon="6.73853">
        <ele>1618</ele>
        <time>2022-06-12T12:11:19Z</time>
      </trkpt>
      <trkpt lat="44.52318" lon="6.7385">
        <ele>1617.9</ele>
        <time>2022-06-12T12:11:20Z</time>
      </trkpt>
      <trkpt lat="44.52317" lon="6.73847">
        <ele>1617.7</ele>
        <time>2022-06-12T12:11:21Z</time>
      </trkpt>
      <trkpt lat="44.52317" lon="6.73843">
        <ele>1617.6</ele>
        <time>2022-06-12T12:11:22Z</time>
      </trkpt>
      <trkpt lat="44.52317" lon="6.7384">
        <ele>1617.5</ele>
        <time>2022-06-12T12:11:23Z</time>
      </trkpt>
      <trkpt lat="44.52316" lon="6.73837">
        <ele>1617.4</ele>
        <time>2022-06-12T12:11:24Z</time>
      </trkpt>
      <trkpt lat="44.52316" lon="6.73833">
        <ele>1617.4</ele>
        <time>2022-06-12T12:11:25Z</time>
      </trkpt>
      <trkpt lat="44.52316" lon="6.7383">
        <ele>1618</ele>
        <time>2022-06-12T12:11:26Z</time>
      </trkpt>
      <trkpt lat="44.52316" lon="6.73827">
        <ele>1618.7</ele>
        <time>2022-06-12T12:11:27Z</time>
      </trkpt>
      <trkpt lat="44.52316" lon="6.73824">
        <ele>1619.4</ele>
        <time>2022-06-12T12:11:28Z</time>
      </trkpt>
      <trkpt lat="44.52315" lon="6.73821">
        <ele>1619.7</ele>
        <time>2022-06-12T12:11:29Z</time>
      </trkpt>
      <trkpt lat="44.52315" lon="6.73818">
        <ele>1620.1</ele>
        <time>2022-06-12T12:11:30Z</time>
      </trkpt>
      <trkpt lat="44.52314" lon="6.73814">
        <ele>1620.6</ele>
        <time>2022-06-12T12:11:31Z</time>
      </trkpt>
      <trkpt lat="44.52314" lon="6.73811">
        <ele>1621</ele>
        <time>2022-06-12T12:11:32Z</time>
      </trkpt>
      <trkpt lat="44.52313" lon="6.73808">
        <ele>1621.4</ele>
        <time>2022-06-12T12:11:33Z</time>
      </trkpt>
      <trkpt lat="44.52312" lon="6.73805">
        <ele>1621.7</ele>
        <time>2022-06-12T12:11:34Z</time>
      </trkpt>
      <trkpt lat="44.52311" lon="6.73802">
        <ele>1622</ele>
        <time>2022-06-12T12:11:35Z</time>
      </trkpt>
      <trkpt lat="44.5231" lon="6.73798">
        <ele>1622.2</ele>
        <time>2022-06-12T12:11:36Z</time>
      </trkpt>
      <trkpt lat="44.52309" lon="6.73795">
        <ele>1622.5</ele>
        <time>2022-06-12T12:11:37Z</time>
      </trkpt>
      <trkpt lat="44.52308" lon="6.73792">
        <ele>1622.8</ele>
        <time>2022-06-12T12:11:38Z</time>
      </trkpt>
      <trkpt lat="44.52308" lon="6.73788">
        <ele>1623</ele>
        <time>2022-06-12T12:11:39Z</time>
      </trkpt>
      <trkpt lat="44.52307" lon="6.73785">
        <ele>1623.3</ele>
        <time>2022-06-12T12:11:40Z</time>
      </trkpt>
      <trkpt lat="44.52306" lon="6.73782">
        <ele>1623.5</ele>
        <time>2022-06-12T12:11:41Z</time>
      </trkpt>
      <trkpt lat="44.52306" lon="6.73779">
        <ele>1623.9</ele>
        <time>2022-06-12T12:11:42Z</time>
      </trkpt>
      <trkpt lat="44.52305" lon="6.73776">
        <ele>1623.9</ele>
        <time>2022-06-12T12:11:43Z</time>
      </trkpt>
      <trkpt lat="44.52304" lon="6.73772">
        <ele>1624</ele>
        <time>2022-06-12T12:11:44Z</time>
      </trkpt>
      <trkpt lat="44.52303" lon="6.73769">
        <ele>1624.1</ele>
        <time>2022-06-12T12:11:45Z</time>
      </trkpt>
      <trkpt lat="44.52303" lon="6.73765">
        <ele>1624.3</ele>
        <time>2022-06-12T12:11:46Z</time>
      </trkpt>
      <trkpt lat="44.52302" lon="6.73762">
        <ele>1624.4</ele>
        <time>2022-06-12T12:11:47Z</time>
      </trkpt>
      <trkpt lat="44.52301" lon="6.73759">
        <ele>1624.4</ele>
        <time>2022-06-12T12:11:48Z</time>
      </trkpt>
      <trkpt lat="44.523" lon="6.73756">
        <ele>1624.2</ele>
        <time>2022-06-12T12:11:49Z</time>
      </trkpt>
      <trkpt lat="44.52299" lon="6.73753">
        <ele>1624.4</ele>
        <time>2022-06-12T12:11:50Z</time>
      </trkpt>
      <trkpt lat="44.52299" lon="6.7375">
        <ele>1624.7</ele>
        <time>2022-06-12T12:11:51Z</time>
      </trkpt>
      <trkpt lat="44.52299" lon="6.73746">
        <ele>1625</ele>
        <time>2022-06-12T12:11:52Z</time>
      </trkpt>
      <trkpt lat="44.52299" lon="6.73743">
        <ele>1625.1</ele>
        <time>2022-06-12T12:11:53Z</time>
      </trkpt>
      <trkpt lat="44.52298" lon="6.73739">
        <ele>1625.1</ele>
        <time>2022-06-12T12:11:54Z</time>
      </trkpt>
      <trkpt lat="44.52298" lon="6.73736">
        <ele>1625.2</ele>
        <time>2022-06-12T12:11:55Z</time>
      </trkpt>
      <trkpt lat="44.52298" lon="6.73732">
        <ele>1625.6</ele>
        <time>2022-06-12T12:11:56Z</time>
      </trkpt>
      <trkpt lat="44.52299" lon="6.73729">
        <ele>1626.1</ele>
        <time>2022-06-12T12:11:57Z</time>
      </trkpt>
      <trkpt lat="44.52299" lon="6.73726">
        <ele>1626.5</ele>
        <time>2022-06-12T12:11:58Z</time>
      </trkpt>
      <trkpt lat="44.52299" lon="6.73722">
        <ele>1626.7</ele>
        <time>2022-06-12T12:11:59Z</time>
      </trkpt>
      <trkpt lat="44.52299" lon="6.73719">
        <ele>1626.7</ele>
        <time>2022-06-12T12:12:00Z</time>
      </trkpt>
      <trkpt lat="44.52299" lon="6.73715">
        <ele>1626.7</ele>
        <time>2022-06-12T12:12:01Z</time>
      </trkpt>
      <trkpt lat="44.52299" lon="6.73712">
        <ele>1626.7</ele>
        <time>2022-06-12T12:12:02Z</time>
      </trkpt>
      <trkpt lat="44.523" lon="6.73709">
        <ele>1626.9</ele>
        <time>2022-06-12T12:12:03Z</time>
      </trkpt>
      <trkpt lat="44.523" lon="6.73706">
        <ele>1627.2</ele>
        <time>2022-06-12T12:12:04Z</time>
      </trkpt>
      <trkpt lat="44.52301" lon="6.73702">
        <ele>1627.6</ele>
        <time>2022-06-12T12:12:05Z</time>
      </trkpt>
      <trkpt lat="44.52302" lon="6.73699">
        <ele>1628</ele>
        <time>2022-06-12T12:12:06Z</time>
      </trkpt>
      <trkpt lat="44.52303" lon="6.73696">
        <ele>1628.5</ele>
        <time>2022-06-12T12:12:07Z</time>
      </trkpt>
      <trkpt lat="44.52303" lon="6.73693">
        <ele>1628.7</ele>
        <time>2022-06-12T12:12:08Z</time>
      </trkpt>
      <trkpt lat="44.52304" lon="6.7369">
        <ele>1628.9</ele>
        <time>2022-06-12T12:12:09Z</time>
      </trkpt>
      <trkpt lat="44.52305" lon="6.73687">
        <ele>1629</ele>
        <time>2022-06-12T12:12:10Z</time>
      </trkpt>
      <trkpt lat="44.52306" lon="6.73683">
        <ele>1629.2</ele>
        <time>2022-06-12T12:12:11Z</time>
      </trkpt>
      <trkpt lat="44.52306" lon="6.7368">
        <ele>1629.2</ele>
        <time>2022-06-12T12:12:12Z</time>
      </trkpt>
      <trkpt lat="44.52307" lon="6.73677">
        <ele>1629.5</ele>
        <time>2022-06-12T12:12:13Z</time>
      </trkpt>
      <trkpt lat="44.52308" lon="6.73674">
        <ele>1629.9</ele>
        <time>2022-06-12T12:12:14Z</time>
      </trkpt>
      <trkpt lat="44.52309" lon="6.73671">
        <ele>1630.2</ele>
        <time>2022-06-12T12:12:15Z</time>
      </trkpt>
      <trkpt lat="44.5231" lon="6.73668">
        <ele>1630.5</ele>
        <time>2022-06-12T12:12:16Z</time>
      </trkpt>
      <trkpt lat="44.52311" lon="6.73664">
        <ele>1630.7</ele>
        <time>2022-06-12T12:12:17Z</time>
      </trkpt>
      <trkpt lat="44.52312" lon="6.73661">
        <ele>1630.9</ele>
        <time>2022-06-12T12:12:18Z</time>
      </trkpt>
      <trkpt lat="44.52312" lon="6.73658">
        <ele>1631</ele>
        <time>2022-06-12T12:12:19Z</time>
      </trkpt>
      <trkpt lat="44.52313" lon="6.73654">
        <ele>1631.3</ele>
        <time>2022-06-12T12:12:20Z</time>
      </trkpt>
      <trkpt lat="44.52314" lon="6.73651">
        <ele>1631.5</ele>
        <time>2022-06-12T12:12:21Z</time>
      </trkpt>
      <trkpt lat="44.52314" lon="6.73648">
        <ele>1631.8</ele>
        <time>2022-06-12T12:12:22Z</time>
      </trkpt>
      <trkpt lat="44.52315" lon="6.73645">
        <ele>1632.2</ele>
        <time>2022-06-12T12:12:23Z</time>
      </trkpt>
      <trkpt lat="44.52316" lon="6.73642">
        <ele>1632.6</ele>
        <time>2022-06-12T12:12:24Z</time>
      </trkpt>
      <trkpt lat="44.52317" lon="6.73638">
        <ele>1632.9</ele>
        <time>2022-06-12T12:12:25Z</time>
      </trkpt>
      <trkpt lat="44.52318" lon="6.73635">
        <ele>1633.1</ele>
        <time>2022-06-12T12:12:26Z</time>
      </trkpt>
      <trkpt lat="44.52319" lon="6.73632">
        <ele>1633.3</ele>
        <time>2022-06-12T12:12:27Z</time>
      </trkpt>
      <trkpt lat="44.52319" lon="6.73628">
        <ele>1633.3</ele>
        <time>2022-06-12T12:12:28Z</time>
      </trkpt>
      <trkpt lat="44.52319" lon="6.73625">
        <ele>1632.7</ele>
        <time>2022-06-12T12:12:29Z</time>
      </trkpt>
      <trkpt lat="44.52319" lon="6.73622">
        <ele>1632.3</ele>
        <time>2022-06-12T12:12:30Z</time>
      </trkpt>
      <trkpt lat="44.52319" lon="6.73618">
        <ele>1632.1</ele>
        <time>2022-06-12T12:12:31Z</time>
      </trkpt>
      <trkpt lat="44.52319" lon="6.73615">
        <ele>1632.1</ele>
        <time>2022-06-12T12:12:32Z</time>
      </trkpt>
      <trkpt lat="44.5232" lon="6.73612">
        <ele>1632.2</ele>
        <time>2022-06-12T12:12:33Z</time>
      </trkpt>
      <trkpt lat="44.5232" lon="6.73609">
        <ele>1632.5</ele>
        <time>2022-06-12T12:12:34Z</time>
      </trkpt>
      <trkpt lat="44.52322" lon="6.73606">
        <ele>1633.2</ele>
        <time>2022-06-12T12:12:35Z</time>
      </trkpt>
      <trkpt lat="44.52323" lon="6.73604">
        <ele>1634.2</ele>
        <time>2022-06-12T12:12:36Z</time>
      </trkpt>
      <trkpt lat="44.52325" lon="6.73601">
        <ele>1635.2</ele>
        <time>2022-06-12T12:12:37Z</time>
      </trkpt>
      <trkpt lat="44.52327" lon="6.73598">
        <ele>1636.1</ele>
        <time>2022-06-12T12:12:38Z</time>
      </trkpt>
      <trkpt lat="44.52328" lon="6.73594">
        <ele>1636.9</ele>
        <time>2022-06-12T12:12:39Z</time>
      </trkpt>
      <trkpt lat="44.52329" lon="6.73591">
        <ele>1637.5</ele>
        <time>2022-06-12T12:12:40Z</time>
      </trkpt>
      <trkpt lat="44.5233" lon="6.73588">
        <ele>1638</ele>
        <time>2022-06-12T12:12:41Z</time>
      </trkpt>
      <trkpt lat="44.52331" lon="6.73585">
        <ele>1638.5</ele>
        <time>2022-06-12T12:12:42Z</time>
      </trkpt>
      <trkpt lat="44.52332" lon="6.73582">
        <ele>1638.8</ele>
        <time>2022-06-12T12:12:43Z</time>
      </trkpt>
      <trkpt lat="44.52332" lon="6.73579">
        <ele>1639.2</ele>
        <time>2022-06-12T12:12:44Z</time>
      </trkpt>
      <trkpt lat="44.52333" lon="6.73576">
        <ele>1639.7</ele>
        <time>2022-06-12T12:12:45Z</time>
      </trkpt>
      <trkpt lat="44.52334" lon="6.73573">
        <ele>1640.2</ele>
        <time>2022-06-12T12:12:46Z</time>
      </trkpt>
      <trkpt lat="44.52335" lon="6.7357">
        <ele>1640.6</ele>
        <time>2022-06-12T12:12:47Z</time>
      </trkpt>
      <trkpt lat="44.52337" lon="6.73567">
        <ele>1641.2</ele>
        <time>2022-06-12T12:12:48Z</time>
      </trkpt>
      <trkpt lat="44.52338" lon="6.73564">
        <ele>1641.7</ele>
        <time>2022-06-12T12:12:49Z</time>
      </trkpt>
      <trkpt lat="44.52339" lon="6.73561">
        <ele>1642</ele>
        <time>2022-06-12T12:12:50Z</time>
      </trkpt>
      <trkpt lat="44.52339" lon="6.73558">
        <ele>1642.3</ele>
        <time>2022-06-12T12:12:51Z</time>
      </trkpt>
      <trkpt lat="44.5234" lon="6.73555">
        <ele>1642.6</ele>
        <time>2022-06-12T12:12:52Z</time>
      </trkpt>
      <trkpt lat="44.52341" lon="6.73552">
        <ele>1642.8</ele>
        <time>2022-06-12T12:12:53Z</time>
      </trkpt>
      <trkpt lat="44.52341" lon="6.73548">
        <ele>1643.1</ele>
        <time>2022-06-12T12:12:54Z</time>
      </trkpt>
      <trkpt lat="44.52342" lon="6.73545">
        <ele>1643.5</ele>
        <time>2022-06-12T12:12:55Z</time>
      </trkpt>
      <trkpt lat="44.52343" lon="6.73542">
        <ele>1643.9</ele>
        <time>2022-06-12T12:12:56Z</time>
      </trkpt>
      <trkpt lat="44.52344" lon="6.73539">
        <ele>1644.3</ele>
        <time>2022-06-12T12:12:57Z</time>
      </trkpt>
      <trkpt lat="44.52344" lon="6.73536">
        <ele>1644.5</ele>
        <time>2022-06-12T12:12:58Z</time>
      </trkpt>
      <trkpt lat="44.52344" lon="6.73532">
        <ele>1644.5</ele>
        <time>2022-06-12T12:12:59Z</time>
      </trkpt>
      <trkpt lat="44.52345" lon="6.73529">
        <ele>1645.1</ele>
        <time>2022-06-12T12:13:00Z</time>
      </trkpt>
      <trkpt lat="44.52346" lon="6.73526">
        <ele>1645.2</ele>
        <time>2022-06-12T12:13:01Z</time>
      </trkpt>
      <trkpt lat="44.52346" lon="6.73522">
        <ele>1645.4</ele>
        <time>2022-06-12T12:13:02Z</time>
      </trkpt>
      <trkpt lat="44.52346" lon="6.73519">
        <ele>1645.4</ele>
        <time>2022-06-12T12:13:03Z</time>
      </trkpt>
      <trkpt lat="44.52346" lon="6.73516">
        <ele>1645.4</ele>
        <time>2022-06-12T12:13:04Z</time>
      </trkpt>
      <trkpt lat="44.52346" lon="6.73513">
        <ele>1645.5</ele>
        <time>2022-06-12T12:13:05Z</time>
      </trkpt>
      <trkpt lat="44.52346" lon="6.7351">
        <ele>1645.5</ele>
        <time>2022-06-12T12:13:06Z</time>
      </trkpt>
      <trkpt lat="44.52345" lon="6.73506">
        <ele>1645.1</ele>
        <time>2022-06-12T12:13:07Z</time>
      </trkpt>
      <trkpt lat="44.52344" lon="6.73502">
        <ele>1644.9</ele>
        <time>2022-06-12T12:13:08Z</time>
      </trkpt>
      <trkpt lat="44.52343" lon="6.73497">
        <ele>1644.6</ele>
        <time>2022-06-12T12:13:09Z</time>
      </trkpt>
      <trkpt lat="44.52343" lon="6.73493">
        <ele>1644.3</ele>
        <time>2022-06-12T12:13:10Z</time>
      </trkpt>
      <trkpt lat="44.52342" lon="6.73488">
        <ele>1643.6</ele>
        <time>2022-06-12T12:13:11Z</time>
      </trkpt>
      <trkpt lat="44.5234" lon="6.73482">
        <ele>1642.8</ele>
        <time>2022-06-12T12:13:12Z</time>
      </trkpt>
      <trkpt lat="44.52339" lon="6.73476">
        <ele>1642.1</ele>
        <time>2022-06-12T12:13:13Z</time>
      </trkpt>
      <trkpt lat="44.52337" lon="6.73469">
        <ele>1641.6</ele>
        <time>2022-06-12T12:13:14Z</time>
      </trkpt>
      <trkpt lat="44.52336" lon="6.73462">
        <ele>1641.3</ele>
        <time>2022-06-12T12:13:15Z</time>
      </trkpt>
      <trkpt lat="44.52335" lon="6.73455">
        <ele>1641.1</ele>
        <time>2022-06-12T12:13:16Z</time>
      </trkpt>
      <trkpt lat="44.52334" lon="6.73449">
        <ele>1640.9</ele>
        <time>2022-06-12T12:13:17Z</time>
      </trkpt>
      <trkpt lat="44.52333" lon="6.73444">
        <ele>1640.9</ele>
        <time>2022-06-12T12:13:18Z</time>
      </trkpt>
      <trkpt lat="44.52333" lon="6.7344">
        <ele>1640.9</ele>
        <time>2022-06-12T12:13:19Z</time>
      </trkpt>
      <trkpt lat="44.52333" lon="6.73435">
        <ele>1640.8</ele>
        <time>2022-06-12T12:13:20Z</time>
      </trkpt>
      <trkpt lat="44.52333" lon="6.73431">
        <ele>1640.8</ele>
        <time>2022-06-12T12:13:21Z</time>
      </trkpt>
      <trkpt lat="44.52333" lon="6.73427">
        <ele>1640.8</ele>
        <time>2022-06-12T12:13:22Z</time>
      </trkpt>
      <trkpt lat="44.52333" lon="6.73423">
        <ele>1640.8</ele>
        <time>2022-06-12T12:13:23Z</time>
      </trkpt>
      <trkpt lat="44.52333" lon="6.73419">
        <ele>1640.8</ele>
        <time>2022-06-12T12:13:24Z</time>
      </trkpt>
      <trkpt lat="44.52333" lon="6.73415">
        <ele>1640.7</ele>
        <time>2022-06-12T12:13:25Z</time>
      </trkpt>
      <trkpt lat="44.52333" lon="6.73411">
        <ele>1640.7</ele>
        <time>2022-06-12T12:13:26Z</time>
      </trkpt>
      <trkpt lat="44.52333" lon="6.73408">
        <ele>1640.7</ele>
        <time>2022-06-12T12:13:27Z</time>
      </trkpt>
      <trkpt lat="44.52334" lon="6.73404">
        <ele>1640.7</ele>
        <time>2022-06-12T12:13:28Z</time>
      </trkpt>
      <trkpt lat="44.52334" lon="6.734">
        <ele>1640.7</ele>
        <time>2022-06-12T12:13:29Z</time>
      </trkpt>
      <trkpt lat="44.52335" lon="6.73396">
        <ele>1640.7</ele>
        <time>2022-06-12T12:13:30Z</time>
      </trkpt>
      <trkpt lat="44.52335" lon="6.73393">
        <ele>1640.8</ele>
        <time>2022-06-12T12:13:31Z</time>
      </trkpt>
      <trkpt lat="44.52336" lon="6.73389">
        <ele>1640.9</ele>
        <time>2022-06-12T12:13:32Z</time>
      </trkpt>
      <trkpt lat="44.52337" lon="6.73386">
        <ele>1641.1</ele>
        <time>2022-06-12T12:13:33Z</time>
      </trkpt>
      <trkpt lat="44.52338" lon="6.73382">
        <ele>1641.4</ele>
        <time>2022-06-12T12:13:34Z</time>
      </trkpt>
      <trkpt lat="44.52339" lon="6.73378">
        <ele>1641.7</ele>
        <time>2022-06-12T12:13:35Z</time>
      </trkpt>
      <trkpt lat="44.5234" lon="6.73374">
        <ele>1642</ele>
        <time>2022-06-12T12:13:36Z</time>
      </trkpt>
      <trkpt lat="44.52341" lon="6.73371">
        <ele>1642.4</ele>
        <time>2022-06-12T12:13:37Z</time>
      </trkpt>
      <trkpt lat="44.52342" lon="6.73367">
        <ele>1642.8</ele>
        <time>2022-06-12T12:13:38Z</time>
      </trkpt>
      <trkpt lat="44.52344" lon="6.73364">
        <ele>1643.3</ele>
        <time>2022-06-12T12:13:39Z</time>
      </trkpt>
      <trkpt lat="44.52345" lon="6.73361">
        <ele>1643.7</ele>
        <time>2022-06-12T12:13:40Z</time>
      </trkpt>
      <trkpt lat="44.52346" lon="6.73357">
        <ele>1644.1</ele>
        <time>2022-06-12T12:13:41Z</time>
      </trkpt>
      <trkpt lat="44.52347" lon="6.73354">
        <ele>1644.5</ele>
        <time>2022-06-12T12:13:42Z</time>
      </trkpt>
      <trkpt lat="44.52348" lon="6.7335">
        <ele>1645</ele>
        <time>2022-06-12T12:13:43Z</time>
      </trkpt>
      <trkpt lat="44.52349" lon="6.73347">
        <ele>1645.5</ele>
        <time>2022-06-12T12:13:44Z</time>
      </trkpt>
      <trkpt lat="44.52351" lon="6.73344">
        <ele>1646</ele>
        <time>2022-06-12T12:13:45Z</time>
      </trkpt>
      <trkpt lat="44.52352" lon="6.73341">
        <ele>1646.5</ele>
        <time>2022-06-12T12:13:46Z</time>
      </trkpt>
      <trkpt lat="44.52354" lon="6.7334">
        <ele>1647.1</ele>
        <time>2022-06-12T12:13:47Z</time>
      </trkpt>
      <trkpt lat="44.52355" lon="6.73337">
        <ele>1647.8</ele>
        <time>2022-06-12T12:13:48Z</time>
      </trkpt>
      <trkpt lat="44.52357" lon="6.73335">
        <ele>1648.5</ele>
        <time>2022-06-12T12:13:49Z</time>
      </trkpt>
      <trkpt lat="44.52358" lon="6.73331">
        <ele>1648.8</ele>
        <time>2022-06-12T12:13:50Z</time>
      </trkpt>
      <trkpt lat="44.52359" lon="6.73328">
        <ele>1649.1</ele>
        <time>2022-06-12T12:13:51Z</time>
      </trkpt>
      <trkpt lat="44.52361" lon="6.73325">
        <ele>1649.5</ele>
        <time>2022-06-12T12:13:52Z</time>
      </trkpt>
      <trkpt lat="44.52362" lon="6.73322">
        <ele>1650</ele>
        <time>2022-06-12T12:13:53Z</time>
      </trkpt>
      <trkpt lat="44.52364" lon="6.73319">
        <ele>1650.5</ele>
        <time>2022-06-12T12:13:54Z</time>
      </trkpt>
      <trkpt lat="44.52366" lon="6.73316">
        <ele>1651</ele>
        <time>2022-06-12T12:13:55Z</time>
      </trkpt>
      <trkpt lat="44.52367" lon="6.73314">
        <ele>1651.5</ele>
        <time>2022-06-12T12:13:56Z</time>
      </trkpt>
      <trkpt lat="44.52369" lon="6.73311">
        <ele>1651.9</ele>
        <time>2022-06-12T12:13:57Z</time>
      </trkpt>
      <trkpt lat="44.52371" lon="6.73309">
        <ele>1652.5</ele>
        <time>2022-06-12T12:13:58Z</time>
      </trkpt>
      <trkpt lat="44.52372" lon="6.73307">
        <ele>1653</ele>
        <time>2022-06-12T12:13:59Z</time>
      </trkpt>
      <trkpt lat="44.52374" lon="6.73304">
        <ele>1653.3</ele>
        <time>2022-06-12T12:14:00Z</time>
      </trkpt>
      <trkpt lat="44.52375" lon="6.73302">
        <ele>1653.4</ele>
        <time>2022-06-12T12:14:01Z</time>
      </trkpt>
      <trkpt lat="44.52377" lon="6.733">
        <ele>1653.5</ele>
        <time>2022-06-12T12:14:02Z</time>
      </trkpt>
      <trkpt lat="44.52379" lon="6.73297">
        <ele>1653.7</ele>
        <time>2022-06-12T12:14:03Z</time>
      </trkpt>
      <trkpt lat="44.52381" lon="6.73295">
        <ele>1653.7</ele>
        <time>2022-06-12T12:14:04Z</time>
      </trkpt>
      <trkpt lat="44.52382" lon="6.73293">
        <ele>1653.9</ele>
        <time>2022-06-12T12:14:05Z</time>
      </trkpt>
      <trkpt lat="44.52384" lon="6.7329">
        <ele>1654</ele>
        <time>2022-06-12T12:14:06Z</time>
      </trkpt>
      <trkpt lat="44.52386" lon="6.73288">
        <ele>1654.1</ele>
        <time>2022-06-12T12:14:07Z</time>
      </trkpt>
      <trkpt lat="44.52387" lon="6.73286">
        <ele>1654.2</ele>
        <time>2022-06-12T12:14:08Z</time>
      </trkpt>
      <trkpt lat="44.52389" lon="6.73284">
        <ele>1654.3</ele>
        <time>2022-06-12T12:14:09Z</time>
      </trkpt>
      <trkpt lat="44.52391" lon="6.73281">
        <ele>1654.4</ele>
        <time>2022-06-12T12:14:10Z</time>
      </trkpt>
      <trkpt lat="44.52393" lon="6.73279">
        <ele>1654.5</ele>
        <time>2022-06-12T12:14:11Z</time>
      </trkpt>
      <trkpt lat="44.52395" lon="6.73278">
        <ele>1654.8</ele>
        <time>2022-06-12T12:14:12Z</time>
      </trkpt>
      <trkpt lat="44.52397" lon="6.73277">
        <ele>1655</ele>
        <time>2022-06-12T12:14:13Z</time>
      </trkpt>
      <trkpt lat="44.524" lon="6.73275">
        <ele>1655.3</ele>
        <time>2022-06-12T12:14:14Z</time>
      </trkpt>
      <trkpt lat="44.52402" lon="6.73274">
        <ele>1655.6</ele>
        <time>2022-06-12T12:14:15Z</time>
      </trkpt>
      <trkpt lat="44.52404" lon="6.73272">
        <ele>1655.7</ele>
        <time>2022-06-12T12:14:16Z</time>
      </trkpt>
      <trkpt lat="44.52406" lon="6.7327">
        <ele>1655.7</ele>
        <time>2022-06-12T12:14:17Z</time>
      </trkpt>
      <trkpt lat="44.52408" lon="6.73269">
        <ele>1655.9</ele>
        <time>2022-06-12T12:14:18Z</time>
      </trkpt>
      <trkpt lat="44.5241" lon="6.73267">
        <ele>1656</ele>
        <time>2022-06-12T12:14:19Z</time>
      </trkpt>
      <trkpt lat="44.52412" lon="6.73266">
        <ele>1656.2</ele>
        <time>2022-06-12T12:14:20Z</time>
      </trkpt>
      <trkpt lat="44.52414" lon="6.73264">
        <ele>1656.3</ele>
        <time>2022-06-12T12:14:21Z</time>
      </trkpt>
      <trkpt lat="44.52417" lon="6.73263">
        <ele>1656.6</ele>
        <time>2022-06-12T12:14:22Z</time>
      </trkpt>
      <trkpt lat="44.52419" lon="6.73261">
        <ele>1656.7</ele>
        <time>2022-06-12T12:14:23Z</time>
      </trkpt>
      <trkpt lat="44.52421" lon="6.7326">
        <ele>1656.8</ele>
        <time>2022-06-12T12:14:24Z</time>
      </trkpt>
      <trkpt lat="44.52423" lon="6.73258">
        <ele>1656.9</ele>
        <time>2022-06-12T12:14:25Z</time>
      </trkpt>
      <trkpt lat="44.52425" lon="6.73256">
        <ele>1656.9</ele>
        <time>2022-06-12T12:14:26Z</time>
      </trkpt>
      <trkpt lat="44.52427" lon="6.73255">
        <ele>1657</ele>
        <time>2022-06-12T12:14:27Z</time>
      </trkpt>
      <trkpt lat="44.52429" lon="6.73254">
        <ele>1657.3</ele>
        <time>2022-06-12T12:14:28Z</time>
      </trkpt>
      <trkpt lat="44.52431" lon="6.73254">
        <ele>1657.8</ele>
        <time>2022-06-12T12:14:29Z</time>
      </trkpt>
      <trkpt lat="44.52433" lon="6.73253">
        <ele>1658.2</ele>
        <time>2022-06-12T12:14:30Z</time>
      </trkpt>
      <trkpt lat="44.52436" lon="6.73253">
        <ele>1658.6</ele>
        <time>2022-06-12T12:14:31Z</time>
      </trkpt>
      <trkpt lat="44.52438" lon="6.73252">
        <ele>1658.9</ele>
        <time>2022-06-12T12:14:32Z</time>
      </trkpt>
      <trkpt lat="44.52441" lon="6.73251">
        <ele>1659.2</ele>
        <time>2022-06-12T12:14:33Z</time>
      </trkpt>
      <trkpt lat="44.52443" lon="6.7325">
        <ele>1659.7</ele>
        <time>2022-06-12T12:14:34Z</time>
      </trkpt>
      <trkpt lat="44.52445" lon="6.7325">
        <ele>1660</ele>
        <time>2022-06-12T12:14:35Z</time>
      </trkpt>
      <trkpt lat="44.52448" lon="6.73249">
        <ele>1660.2</ele>
        <time>2022-06-12T12:14:36Z</time>
      </trkpt>
      <trkpt lat="44.5245" lon="6.73248">
        <ele>1660.5</ele>
        <time>2022-06-12T12:14:37Z</time>
      </trkpt>
      <trkpt lat="44.52452" lon="6.73248">
        <ele>1660.7</ele>
        <time>2022-06-12T12:14:38Z</time>
      </trkpt>
      <trkpt lat="44.52454" lon="6.73247">
        <ele>1661</ele>
        <time>2022-06-12T12:14:39Z</time>
      </trkpt>
      <trkpt lat="44.52457" lon="6.73246">
        <ele>1661.3</ele>
        <time>2022-06-12T12:14:40Z</time>
      </trkpt>
      <trkpt lat="44.52459" lon="6.73246">
        <ele>1661.5</ele>
        <time>2022-06-12T12:14:41Z</time>
      </trkpt>
      <trkpt lat="44.52462" lon="6.73245">
        <ele>1661.7</ele>
        <time>2022-06-12T12:14:42Z</time>
      </trkpt>
      <trkpt lat="44.52464" lon="6.73244">
        <ele>1662</ele>
        <time>2022-06-12T12:14:43Z</time>
      </trkpt>
      <trkpt lat="44.52467" lon="6.73243">
        <ele>1662.1</ele>
        <time>2022-06-12T12:14:44Z</time>
      </trkpt>
      <trkpt lat="44.52469" lon="6.73241">
        <ele>1662.2</ele>
        <time>2022-06-12T12:14:45Z</time>
      </trkpt>
      <trkpt lat="44.52472" lon="6.7324">
        <ele>1662.3</ele>
        <time>2022-06-12T12:14:46Z</time>
      </trkpt>
      <trkpt lat="44.52474" lon="6.73239">
        <ele>1661.9</ele>
        <time>2022-06-12T12:14:47Z</time>
      </trkpt>
      <trkpt lat="44.52477" lon="6.73237">
        <ele>1661.2</ele>
        <time>2022-06-12T12:14:48Z</time>
      </trkpt>
      <trkpt lat="44.52479" lon="6.73235">
        <ele>1660.7</ele>
        <time>2022-06-12T12:14:49Z</time>
      </trkpt>
      <trkpt lat="44.52482" lon="6.73233">
        <ele>1660</ele>
        <time>2022-06-12T12:14:50Z</time>
      </trkpt>
      <trkpt lat="44.52484" lon="6.7323">
        <ele>1659.2</ele>
        <time>2022-06-12T12:14:51Z</time>
      </trkpt>
      <trkpt lat="44.52486" lon="6.73227">
        <ele>1658.6</ele>
        <time>2022-06-12T12:14:52Z</time>
      </trkpt>
      <trkpt lat="44.52488" lon="6.73223">
        <ele>1657.9</ele>
        <time>2022-06-12T12:14:53Z</time>
      </trkpt>
      <trkpt lat="44.5249" lon="6.7322">
        <ele>1657.2</ele>
        <time>2022-06-12T12:14:54Z</time>
      </trkpt>
      <trkpt lat="44.52491" lon="6.73216">
        <ele>1656.5</ele>
        <time>2022-06-12T12:14:55Z</time>
      </trkpt>
      <trkpt lat="44.52492" lon="6.73213">
        <ele>1655.7</ele>
        <time>2022-06-12T12:14:56Z</time>
      </trkpt>
      <trkpt lat="44.52493" lon="6.7321">
        <ele>1655</ele>
        <time>2022-06-12T12:14:57Z</time>
      </trkpt>
      <trkpt lat="44.52493" lon="6.73207">
        <ele>1654.4</ele>
        <time>2022-06-12T12:14:58Z</time>
      </trkpt>
      <trkpt lat="44.52494" lon="6.73204">
        <ele>1653.7</ele>
        <time>2022-06-12T12:14:59Z</time>
      </trkpt>
      <trkpt lat="44.52494" lon="6.732">
        <ele>1652.8</ele>
        <time>2022-06-12T12:15:00Z</time>
      </trkpt>
      <trkpt lat="44.52494" lon="6.73196">
        <ele>1651.9</ele>
        <time>2022-06-12T12:15:01Z</time>
      </trkpt>
      <trkpt lat="44.52495" lon="6.73192">
        <ele>1651.3</ele>
        <time>2022-06-12T12:15:02Z</time>
      </trkpt>
      <trkpt lat="44.52495" lon="6.73187">
        <ele>1650.8</ele>
        <time>2022-06-12T12:15:03Z</time>
      </trkpt>
      <trkpt lat="44.52495" lon="6.73183">
        <ele>1650.2</ele>
        <time>2022-06-12T12:15:04Z</time>
      </trkpt>
      <trkpt lat="44.52496" lon="6.73179">
        <ele>1649.8</ele>
        <time>2022-06-12T12:15:05Z</time>
      </trkpt>
      <trkpt lat="44.52496" lon="6.73176">
        <ele>1649.4</ele>
        <time>2022-06-12T12:15:06Z</time>
      </trkpt>
      <trkpt lat="44.52496" lon="6.73173">
        <ele>1649</ele>
        <time>2022-06-12T12:15:07Z</time>
      </trkpt>
      <trkpt lat="44.52497" lon="6.73169">
        <ele>1648.5</ele>
        <time>2022-06-12T12:15:08Z</time>
      </trkpt>
      <trkpt lat="44.52497" lon="6.73165">
        <ele>1648.7</ele>
        <time>2022-06-12T12:15:09Z</time>
      </trkpt>
      <trkpt lat="44.52497" lon="6.73161">
        <ele>1649.9</ele>
        <time>2022-06-12T12:15:10Z</time>
      </trkpt>
      <trkpt lat="44.52497" lon="6.73156">
        <ele>1651.1</ele>
        <time>2022-06-12T12:15:11Z</time>
      </trkpt>
      <trkpt lat="44.52498" lon="6.73152">
        <ele>1652.3</ele>
        <time>2022-06-12T12:15:12Z</time>
      </trkpt>
      <trkpt lat="44.52498" lon="6.73148">
        <ele>1653.3</ele>
        <time>2022-06-12T12:15:13Z</time>
      </trkpt>
      <trkpt lat="44.52498" lon="6.73143">
        <ele>1654.5</ele>
        <time>2022-06-12T12:15:14Z</time>
      </trkpt>
      <trkpt lat="44.52498" lon="6.73139">
        <ele>1655.7</ele>
        <time>2022-06-12T12:15:15Z</time>
      </trkpt>
      <trkpt lat="44.52499" lon="6.73134">
        <ele>1656.6</ele>
        <time>2022-06-12T12:15:16Z</time>
      </trkpt>
      <trkpt lat="44.52499" lon="6.7313">
        <ele>1657.4</ele>
        <time>2022-06-12T12:15:17Z</time>
      </trkpt>
      <trkpt lat="44.52499" lon="6.73126">
        <ele>1658.2</ele>
        <time>2022-06-12T12:15:18Z</time>
      </trkpt>
      <trkpt lat="44.525" lon="6.73122">
        <ele>1659.1</ele>
        <time>2022-06-12T12:15:19Z</time>
      </trkpt>
      <trkpt lat="44.52501" lon="6.73118">
        <ele>1660</ele>
        <time>2022-06-12T12:15:20Z</time>
      </trkpt>
      <trkpt lat="44.52501" lon="6.73114">
        <ele>1660.7</ele>
        <time>2022-06-12T12:15:21Z</time>
      </trkpt>
      <trkpt lat="44.52501" lon="6.7311">
        <ele>1661.3</ele>
        <time>2022-06-12T12:15:22Z</time>
      </trkpt>
      <trkpt lat="44.52502" lon="6.73106">
        <ele>1661.5</ele>
        <time>2022-06-12T12:15:23Z</time>
      </trkpt>
      <trkpt lat="44.52502" lon="6.73103">
        <ele>1661.7</ele>
        <time>2022-06-12T12:15:24Z</time>
      </trkpt>
      <trkpt lat="44.52503" lon="6.73099">
        <ele>1661.9</ele>
        <time>2022-06-12T12:15:25Z</time>
      </trkpt>
      <trkpt lat="44.52504" lon="6.73095">
        <ele>1662.1</ele>
        <time>2022-06-12T12:15:26Z</time>
      </trkpt>
      <trkpt lat="44.52505" lon="6.73091">
        <ele>1662.3</ele>
        <time>2022-06-12T12:15:27Z</time>
      </trkpt>
      <trkpt lat="44.52506" lon="6.73087">
        <ele>1662.6</ele>
        <time>2022-06-12T12:15:28Z</time>
      </trkpt>
      <trkpt lat="44.52507" lon="6.73084">
        <ele>1662.9</ele>
        <time>2022-06-12T12:15:29Z</time>
      </trkpt>
      <trkpt lat="44.52507" lon="6.7308">
        <ele>1663</ele>
        <time>2022-06-12T12:15:30Z</time>
      </trkpt>
      <trkpt lat="44.52508" lon="6.73076">
        <ele>1663.2</ele>
        <time>2022-06-12T12:15:31Z</time>
      </trkpt>
      <trkpt lat="44.52508" lon="6.73072">
        <ele>1663.4</ele>
        <time>2022-06-12T12:15:32Z</time>
      </trkpt>
      <trkpt lat="44.52509" lon="6.73068">
        <ele>1663.6</ele>
        <time>2022-06-12T12:15:33Z</time>
      </trkpt>
      <trkpt lat="44.52509" lon="6.73064">
        <ele>1663.7</ele>
        <time>2022-06-12T12:15:34Z</time>
      </trkpt>
      <trkpt lat="44.5251" lon="6.7306">
        <ele>1663.8</ele>
        <time>2022-06-12T12:15:35Z</time>
      </trkpt>
      <trkpt lat="44.5251" lon="6.73056">
        <ele>1663.9</ele>
        <time>2022-06-12T12:15:36Z</time>
      </trkpt>
      <trkpt lat="44.52511" lon="6.73052">
        <ele>1663.9</ele>
        <time>2022-06-12T12:15:37Z</time>
      </trkpt>
      <trkpt lat="44.52511" lon="6.73048">
        <ele>1663.9</ele>
        <time>2022-06-12T12:15:38Z</time>
      </trkpt>
      <trkpt lat="44.52512" lon="6.73044">
        <ele>1664</ele>
        <time>2022-06-12T12:15:39Z</time>
      </trkpt>
      <trkpt lat="44.52512" lon="6.73039">
        <ele>1664</ele>
        <time>2022-06-12T12:15:40Z</time>
      </trkpt>
      <trkpt lat="44.52513" lon="6.73035">
        <ele>1663.9</ele>
        <time>2022-06-12T12:15:41Z</time>
      </trkpt>
      <trkpt lat="44.52513" lon="6.7303">
        <ele>1663.8</ele>
        <time>2022-06-12T12:15:42Z</time>
      </trkpt>
      <trkpt lat="44.52513" lon="6.73025">
        <ele>1663.8</ele>
        <time>2022-06-12T12:15:43Z</time>
      </trkpt>
      <trkpt lat="44.52513" lon="6.73021">
        <ele>1663.9</ele>
        <time>2022-06-12T12:15:44Z</time>
      </trkpt>
      <trkpt lat="44.52513" lon="6.73016">
        <ele>1664</ele>
        <time>2022-06-12T12:15:45Z</time>
      </trkpt>
      <trkpt lat="44.52513" lon="6.73011">
        <ele>1664.1</ele>
        <time>2022-06-12T12:15:46Z</time>
      </trkpt>
      <trkpt lat="44.52513" lon="6.73006">
        <ele>1664.2</ele>
        <time>2022-06-12T12:15:47Z</time>
      </trkpt>
      <trkpt lat="44.52513" lon="6.73">
        <ele>1664.3</ele>
        <time>2022-06-12T12:15:48Z</time>
      </trkpt>
      <trkpt lat="44.52513" lon="6.72995">
        <ele>1664.3</ele>
        <time>2022-06-12T12:15:49Z</time>
      </trkpt>
      <trkpt lat="44.52512" lon="6.7299">
        <ele>1664.3</ele>
        <time>2022-06-12T12:15:50Z</time>
      </trkpt>
      <trkpt lat="44.52512" lon="6.72985">
        <ele>1664.3</ele>
        <time>2022-06-12T12:15:51Z</time>
      </trkpt>
      <trkpt lat="44.52512" lon="6.7298">
        <ele>1664.3</ele>
        <time>2022-06-12T12:15:52Z</time>
      </trkpt>
      <trkpt lat="44.52512" lon="6.72975">
        <ele>1664.4</ele>
        <time>2022-06-12T12:15:53Z</time>
      </trkpt>
      <trkpt lat="44.52512" lon="6.72968">
        <ele>1664.4</ele>
        <time>2022-06-12T12:15:54Z</time>
      </trkpt>
      <trkpt lat="44.52512" lon="6.72965">
        <ele>1664.4</ele>
        <time>2022-06-12T12:15:55Z</time>
      </trkpt>
      <trkpt lat="44.52511" lon="6.7296">
        <ele>1664.2</ele>
        <time>2022-06-12T12:15:56Z</time>
      </trkpt>
      <trkpt lat="44.52511" lon="6.72954">
        <ele>1664.1</ele>
        <time>2022-06-12T12:15:57Z</time>
      </trkpt>
      <trkpt lat="44.52511" lon="6.72949">
        <ele>1664</ele>
        <time>2022-06-12T12:15:58Z</time>
      </trkpt>
      <trkpt lat="44.52511" lon="6.72943">
        <ele>1663.9</ele>
        <time>2022-06-12T12:15:59Z</time>
      </trkpt>
      <trkpt lat="44.5251" lon="6.72938">
        <ele>1663.9</ele>
        <time>2022-06-12T12:16:00Z</time>
      </trkpt>
      <trkpt lat="44.5251" lon="6.72932">
        <ele>1663.9</ele>
        <time>2022-06-12T12:16:01Z</time>
      </trkpt>
      <trkpt lat="44.5251" lon="6.72927">
        <ele>1664</ele>
        <time>2022-06-12T12:16:02Z</time>
      </trkpt>
      <trkpt lat="44.5251" lon="6.72921">
        <ele>1664.1</ele>
        <time>2022-06-12T12:16:03Z</time>
      </trkpt>
      <trkpt lat="44.5251" lon="6.72916">
        <ele>1664.1</ele>
        <time>2022-06-12T12:16:04Z</time>
      </trkpt>
      <trkpt lat="44.5251" lon="6.72911">
        <ele>1664.2</ele>
        <time>2022-06-12T12:16:05Z</time>
      </trkpt>
      <trkpt lat="44.52509" lon="6.72905">
        <ele>1664.3</ele>
        <time>2022-06-12T12:16:06Z</time>
      </trkpt>
      <trkpt lat="44.52509" lon="6.729">
        <ele>1664.4</ele>
        <time>2022-06-12T12:16:07Z</time>
      </trkpt>
      <trkpt lat="44.52509" lon="6.72895">
        <ele>1664.5</ele>
        <time>2022-06-12T12:16:08Z</time>
      </trkpt>
      <trkpt lat="44.52509" lon="6.72889">
        <ele>1664.6</ele>
        <time>2022-06-12T12:16:09Z</time>
      </trkpt>
      <trkpt lat="44.52509" lon="6.72884">
        <ele>1664.7</ele>
        <time>2022-06-12T12:16:10Z</time>
      </trkpt>
      <trkpt lat="44.52509" lon="6.72879">
        <ele>1664.9</ele>
        <time>2022-06-12T12:16:11Z</time>
      </trkpt>
      <trkpt lat="44.52509" lon="6.72873">
        <ele>1665.1</ele>
        <time>2022-06-12T12:16:12Z</time>
      </trkpt>
      <trkpt lat="44.5251" lon="6.72867">
        <ele>1665.4</ele>
        <time>2022-06-12T12:16:13Z</time>
      </trkpt>
      <trkpt lat="44.52511" lon="6.72862">
        <ele>1665.8</ele>
        <time>2022-06-12T12:16:14Z</time>
      </trkpt>
      <trkpt lat="44.52512" lon="6.72857">
        <ele>1665.8</ele>
        <time>2022-06-12T12:16:15Z</time>
      </trkpt>
      <trkpt lat="44.52512" lon="6.72851">
        <ele>1665.7</ele>
        <time>2022-06-12T12:16:16Z</time>
      </trkpt>
      <trkpt lat="44.52514" lon="6.72846">
        <ele>1665.9</ele>
        <time>2022-06-12T12:16:17Z</time>
      </trkpt>
      <trkpt lat="44.52516" lon="6.72841">
        <ele>1666.3</ele>
        <time>2022-06-12T12:16:18Z</time>
      </trkpt>
      <trkpt lat="44.52518" lon="6.72837">
        <ele>1666.8</ele>
        <time>2022-06-12T12:16:19Z</time>
      </trkpt>
      <trkpt lat="44.5252" lon="6.72832">
        <ele>1667.2</ele>
        <time>2022-06-12T12:16:20Z</time>
      </trkpt>
      <trkpt lat="44.52522" lon="6.72828">
        <ele>1667.2</ele>
        <time>2022-06-12T12:16:21Z</time>
      </trkpt>
      <trkpt lat="44.52524" lon="6.72823">
        <ele>1667</ele>
        <time>2022-06-12T12:16:22Z</time>
      </trkpt>
      <trkpt lat="44.52526" lon="6.72818">
        <ele>1666.8</ele>
        <time>2022-06-12T12:16:23Z</time>
      </trkpt>
      <trkpt lat="44.52527" lon="6.72813">
        <ele>1666.4</ele>
        <time>2022-06-12T12:16:24Z</time>
      </trkpt>
      <trkpt lat="44.52529" lon="6.72808">
        <ele>1666</ele>
        <time>2022-06-12T12:16:25Z</time>
      </trkpt>
      <trkpt lat="44.5253" lon="6.72803">
        <ele>1666.1</ele>
        <time>2022-06-12T12:16:26Z</time>
      </trkpt>
      <trkpt lat="44.52532" lon="6.72798">
        <ele>1666.4</ele>
        <time>2022-06-12T12:16:27Z</time>
      </trkpt>
      <trkpt lat="44.52533" lon="6.72793">
        <ele>1666.5</ele>
        <time>2022-06-12T12:16:28Z</time>
      </trkpt>
      <trkpt lat="44.52534" lon="6.72787">
        <ele>1666.6</ele>
        <time>2022-06-12T12:16:29Z</time>
      </trkpt>
      <trkpt lat="44.52535" lon="6.72781">
        <ele>1666.7</ele>
        <time>2022-06-12T12:16:30Z</time>
      </trkpt>
      <trkpt lat="44.52536" lon="6.72775">
        <ele>1666.7</ele>
        <time>2022-06-12T12:16:31Z</time>
      </trkpt>
      <trkpt lat="44.52537" lon="6.72769">
        <ele>1666.9</ele>
        <time>2022-06-12T12:16:32Z</time>
      </trkpt>
      <trkpt lat="44.52537" lon="6.72763">
        <ele>1667.1</ele>
        <time>2022-06-12T12:16:33Z</time>
      </trkpt>
      <trkpt lat="44.52538" lon="6.72757">
        <ele>1667.2</ele>
        <time>2022-06-12T12:16:34Z</time>
      </trkpt>
      <trkpt lat="44.52538" lon="6.7275">
        <ele>1667.2</ele>
        <time>2022-06-12T12:16:35Z</time>
      </trkpt>
      <trkpt lat="44.52539" lon="6.72744">
        <ele>1667</ele>
        <time>2022-06-12T12:16:36Z</time>
      </trkpt>
      <trkpt lat="44.52539" lon="6.72738">
        <ele>1666.9</ele>
        <time>2022-06-12T12:16:37Z</time>
      </trkpt>
      <trkpt lat="44.5254" lon="6.72732">
        <ele>1666.9</ele>
        <time>2022-06-12T12:16:38Z</time>
      </trkpt>
      <trkpt lat="44.52541" lon="6.72726">
        <ele>1667.1</ele>
        <time>2022-06-12T12:16:39Z</time>
      </trkpt>
      <trkpt lat="44.52542" lon="6.72721">
        <ele>1667.3</ele>
        <time>2022-06-12T12:16:40Z</time>
      </trkpt>
      <trkpt lat="44.52543" lon="6.72715">
        <ele>1667.1</ele>
        <time>2022-06-12T12:16:41Z</time>
      </trkpt>
      <trkpt lat="44.52545" lon="6.7271">
        <ele>1667.2</ele>
        <time>2022-06-12T12:16:42Z</time>
      </trkpt>
      <trkpt lat="44.52547" lon="6.72706">
        <ele>1667.6</ele>
        <time>2022-06-12T12:16:43Z</time>
      </trkpt>
      <trkpt lat="44.5255" lon="6.72702">
        <ele>1668</ele>
        <time>2022-06-12T12:16:44Z</time>
      </trkpt>
      <trkpt lat="44.52553" lon="6.72698">
        <ele>1668.5</ele>
        <time>2022-06-12T12:16:45Z</time>
      </trkpt>
      <trkpt lat="44.52556" lon="6.72694">
        <ele>1668.8</ele>
        <time>2022-06-12T12:16:46Z</time>
      </trkpt>
      <trkpt lat="44.5256" lon="6.72691">
        <ele>1668.5</ele>
        <time>2022-06-12T12:16:47Z</time>
      </trkpt>
      <trkpt lat="44.52564" lon="6.72689">
        <ele>1668.5</ele>
        <time>2022-06-12T12:16:48Z</time>
      </trkpt>
      <trkpt lat="44.52568" lon="6.72688">
        <ele>1668.8</ele>
        <time>2022-06-12T12:16:49Z</time>
      </trkpt>
      <trkpt lat="44.52573" lon="6.72687">
        <ele>1669.4</ele>
        <time>2022-06-12T12:16:50Z</time>
      </trkpt>
      <trkpt lat="44.52577" lon="6.72686">
        <ele>1670.1</ele>
        <time>2022-06-12T12:16:51Z</time>
      </trkpt>
      <trkpt lat="44.52582" lon="6.72685">
        <ele>1670.6</ele>
        <time>2022-06-12T12:16:52Z</time>
      </trkpt>
      <trkpt lat="44.52587" lon="6.72684">
        <ele>1670.9</ele>
        <time>2022-06-12T12:16:53Z</time>
      </trkpt>
      <trkpt lat="44.52594" lon="6.72682">
        <ele>1670.8</ele>
        <time>2022-06-12T12:16:54Z</time>
      </trkpt>
      <trkpt lat="44.52597" lon="6.72682">
        <ele>1670.7</ele>
        <time>2022-06-12T12:16:55Z</time>
      </trkpt>
      <trkpt lat="44.52602" lon="6.7268">
        <ele>1670.8</ele>
        <time>2022-06-12T12:16:56Z</time>
      </trkpt>
      <trkpt lat="44.52607" lon="6.72677">
        <ele>1670.4</ele>
        <time>2022-06-12T12:16:57Z</time>
      </trkpt>
      <trkpt lat="44.52612" lon="6.72674">
        <ele>1669.7</ele>
        <time>2022-06-12T12:16:58Z</time>
      </trkpt>
      <trkpt lat="44.52616" lon="6.7267">
        <ele>1669.3</ele>
        <time>2022-06-12T12:16:59Z</time>
      </trkpt>
      <trkpt lat="44.5262" lon="6.72665">
        <ele>1669</ele>
        <time>2022-06-12T12:17:00Z</time>
      </trkpt>
      <trkpt lat="44.52623" lon="6.7266">
        <ele>1669</ele>
        <time>2022-06-12T12:17:01Z</time>
      </trkpt>
      <trkpt lat="44.52627" lon="6.72655">
        <ele>1668.7</ele>
        <time>2022-06-12T12:17:02Z</time>
      </trkpt>
      <trkpt lat="44.5263" lon="6.7265">
        <ele>1668.2</ele>
        <time>2022-06-12T12:17:03Z</time>
      </trkpt>
      <trkpt lat="44.52633" lon="6.72645">
        <ele>1667.4</ele>
        <time>2022-06-12T12:17:04Z</time>
      </trkpt>
      <trkpt lat="44.52635" lon="6.72639">
        <ele>1666.1</ele>
        <time>2022-06-12T12:17:05Z</time>
      </trkpt>
      <trkpt lat="44.52637" lon="6.72633">
        <ele>1666.6</ele>
        <time>2022-06-12T12:17:06Z</time>
      </trkpt>
      <trkpt lat="44.52638" lon="6.72626">
        <ele>1666.8</ele>
        <time>2022-06-12T12:17:07Z</time>
      </trkpt>
      <trkpt lat="44.52636" lon="6.72619">
        <ele>1666.7</ele>
        <time>2022-06-12T12:17:08Z</time>
      </trkpt>
      <trkpt lat="44.52633" lon="6.72613">
        <ele>1666.7</ele>
        <time>2022-06-12T12:17:09Z</time>
      </trkpt>
      <trkpt lat="44.52629" lon="6.72608">
        <ele>1668.4</ele>
        <time>2022-06-12T12:17:10Z</time>
      </trkpt>
      <trkpt lat="44.52624" lon="6.72604">
        <ele>1669.9</ele>
        <time>2022-06-12T12:17:11Z</time>
      </trkpt>
      <trkpt lat="44.52619" lon="6.72603">
        <ele>1670.8</ele>
        <time>2022-06-12T12:17:12Z</time>
      </trkpt>
      <trkpt lat="44.52613" lon="6.72602">
        <ele>1671.2</ele>
        <time>2022-06-12T12:17:13Z</time>
      </trkpt>
      <trkpt lat="44.52608" lon="6.726">
        <ele>1671.2</ele>
        <time>2022-06-12T12:17:14Z</time>
      </trkpt>
      <trkpt lat="44.52603" lon="6.726">
        <ele>1670.4</ele>
        <time>2022-06-12T12:17:15Z</time>
      </trkpt>
      <trkpt lat="44.52597" lon="6.72599">
        <ele>1669.5</ele>
        <time>2022-06-12T12:17:16Z</time>
      </trkpt>
      <trkpt lat="44.52591" lon="6.72598">
        <ele>1668.9</ele>
        <time>2022-06-12T12:17:17Z</time>
      </trkpt>
      <trkpt lat="44.52586" lon="6.72596">
        <ele>1668.8</ele>
        <time>2022-06-12T12:17:18Z</time>
      </trkpt>
      <trkpt lat="44.5258" lon="6.72594">
        <ele>1667.9</ele>
        <time>2022-06-12T12:17:19Z</time>
      </trkpt>
      <trkpt lat="44.52576" lon="6.7259">
        <ele>1668</ele>
        <time>2022-06-12T12:17:20Z</time>
      </trkpt>
      <trkpt lat="44.52571" lon="6.72585">
        <ele>1668.6</ele>
        <time>2022-06-12T12:17:21Z</time>
      </trkpt>
      <trkpt lat="44.52568" lon="6.72579">
        <ele>1669</ele>
        <time>2022-06-12T12:17:22Z</time>
      </trkpt>
      <trkpt lat="44.52565" lon="6.72573">
        <ele>1669.4</ele>
        <time>2022-06-12T12:17:23Z</time>
      </trkpt>
      <trkpt lat="44.52562" lon="6.72567">
        <ele>1669.9</ele>
        <time>2022-06-12T12:17:24Z</time>
      </trkpt>
      <trkpt lat="44.5256" lon="6.72561">
        <ele>1670.3</ele>
        <time>2022-06-12T12:17:25Z</time>
      </trkpt>
      <trkpt lat="44.52558" lon="6.72554">
        <ele>1670.7</ele>
        <time>2022-06-12T12:17:26Z</time>
      </trkpt>
      <trkpt lat="44.52556" lon="6.72547">
        <ele>1670.7</ele>
        <time>2022-06-12T12:17:27Z</time>
      </trkpt>
      <trkpt lat="44.52555" lon="6.72541">
        <ele>1670.6</ele>
        <time>2022-06-12T12:17:28Z</time>
      </trkpt>
      <trkpt lat="44.52553" lon="6.72535">
        <ele>1670.6</ele>
        <time>2022-06-12T12:17:29Z</time>
      </trkpt>
      <trkpt lat="44.52552" lon="6.72529">
        <ele>1670.6</ele>
        <time>2022-06-12T12:17:30Z</time>
      </trkpt>
      <trkpt lat="44.52551" lon="6.72524">
        <ele>1670.5</ele>
        <time>2022-06-12T12:17:31Z</time>
      </trkpt>
      <trkpt lat="44.5255" lon="6.72518">
        <ele>1670.3</ele>
        <time>2022-06-12T12:17:32Z</time>
      </trkpt>
      <trkpt lat="44.52549" lon="6.72513">
        <ele>1670.1</ele>
        <time>2022-06-12T12:17:33Z</time>
      </trkpt>
      <trkpt lat="44.52548" lon="6.72508">
        <ele>1669.9</ele>
        <time>2022-06-12T12:17:34Z</time>
      </trkpt>
      <trkpt lat="44.52548" lon="6.72502">
        <ele>1670.1</ele>
        <time>2022-06-12T12:17:35Z</time>
      </trkpt>
      <trkpt lat="44.52548" lon="6.72497">
        <ele>1669.7</ele>
        <time>2022-06-12T12:17:36Z</time>
      </trkpt>
      <trkpt lat="44.52548" lon="6.72491">
        <ele>1669.2</ele>
        <time>2022-06-12T12:17:37Z</time>
      </trkpt>
      <trkpt lat="44.52548" lon="6.72486">
        <ele>1668.8</ele>
        <time>2022-06-12T12:17:38Z</time>
      </trkpt>
      <trkpt lat="44.52549" lon="6.7248">
        <ele>1668.4</ele>
        <time>2022-06-12T12:17:39Z</time>
      </trkpt>
      <trkpt lat="44.5255" lon="6.72473">
        <ele>1667.9</ele>
        <time>2022-06-12T12:17:40Z</time>
      </trkpt>
      <trkpt lat="44.5255" lon="6.72466">
        <ele>1666.7</ele>
        <time>2022-06-12T12:17:41Z</time>
      </trkpt>
      <trkpt lat="44.5255" lon="6.7246">
        <ele>1665.2</ele>
        <time>2022-06-12T12:17:42Z</time>
      </trkpt>
      <trkpt lat="44.5255" lon="6.72452">
        <ele>1663.4</ele>
        <time>2022-06-12T12:17:43Z</time>
      </trkpt>
      <trkpt lat="44.52549" lon="6.72445">
        <ele>1661.5</ele>
        <time>2022-06-12T12:17:44Z</time>
      </trkpt>
      <trkpt lat="44.52548" lon="6.72438">
        <ele>1660.2</ele>
        <time>2022-06-12T12:17:45Z</time>
      </trkpt>
      <trkpt lat="44.52547" lon="6.72431">
        <ele>1659.1</ele>
        <time>2022-06-12T12:17:46Z</time>
      </trkpt>
      <trkpt lat="44.52546" lon="6.72424">
        <ele>1658.1</ele>
        <time>2022-06-12T12:17:47Z</time>
      </trkpt>
      <trkpt lat="44.52545" lon="6.72417">
        <ele>1657.2</ele>
        <time>2022-06-12T12:17:48Z</time>
      </trkpt>
      <trkpt lat="44.52545" lon="6.72411">
        <ele>1658.4</ele>
        <time>2022-06-12T12:17:49Z</time>
      </trkpt>
      <trkpt lat="44.52544" lon="6.72404">
        <ele>1659.6</ele>
        <time>2022-06-12T12:17:50Z</time>
      </trkpt>
      <trkpt lat="44.52543" lon="6.72398">
        <ele>1660.8</ele>
        <time>2022-06-12T12:17:51Z</time>
      </trkpt>
      <trkpt lat="44.52542" lon="6.72392">
        <ele>1662</ele>
        <time>2022-06-12T12:17:52Z</time>
      </trkpt>
      <trkpt lat="44.52542" lon="6.72385">
        <ele>1663</ele>
        <time>2022-06-12T12:17:53Z</time>
      </trkpt>
      <trkpt lat="44.52541" lon="6.72378">
        <ele>1663.9</ele>
        <time>2022-06-12T12:17:54Z</time>
      </trkpt>
      <trkpt lat="44.52541" lon="6.72372">
        <ele>1664.8</ele>
        <time>2022-06-12T12:17:55Z</time>
      </trkpt>
      <trkpt lat="44.52541" lon="6.72366">
        <ele>1665.7</ele>
        <time>2022-06-12T12:17:56Z</time>
      </trkpt>
      <trkpt lat="44.52542" lon="6.7236">
        <ele>1666.5</ele>
        <time>2022-06-12T12:17:57Z</time>
      </trkpt>
      <trkpt lat="44.52542" lon="6.72355">
        <ele>1667.1</ele>
        <time>2022-06-12T12:17:58Z</time>
      </trkpt>
      <trkpt lat="44.52543" lon="6.7235">
        <ele>1667.6</ele>
        <time>2022-06-12T12:17:59Z</time>
      </trkpt>
      <trkpt lat="44.52543" lon="6.72346">
        <ele>1668.1</ele>
        <time>2022-06-12T12:18:00Z</time>
      </trkpt>
      <trkpt lat="44.52544" lon="6.72341">
        <ele>1668.7</ele>
        <time>2022-06-12T12:18:01Z</time>
      </trkpt>
      <trkpt lat="44.52544" lon="6.72337">
        <ele>1669.3</ele>
        <time>2022-06-12T12:18:02Z</time>
      </trkpt>
      <trkpt lat="44.52545" lon="6.72333">
        <ele>1669.8</ele>
        <time>2022-06-12T12:18:03Z</time>
      </trkpt>
      <trkpt lat="44.52545" lon="6.72329">
        <ele>1670.1</ele>
        <time>2022-06-12T12:18:04Z</time>
      </trkpt>
      <trkpt lat="44.52546" lon="6.72325">
        <ele>1670.6</ele>
        <time>2022-06-12T12:18:05Z</time>
      </trkpt>
      <trkpt lat="44.52546" lon="6.72322">
        <ele>1671</ele>
        <time>2022-06-12T12:18:06Z</time>
      </trkpt>
      <trkpt lat="44.52547" lon="6.72318">
        <ele>1671.5</ele>
        <time>2022-06-12T12:18:07Z</time>
      </trkpt>
      <trkpt lat="44.52548" lon="6.72315">
        <ele>1671.9</ele>
        <time>2022-06-12T12:18:08Z</time>
      </trkpt>
      <trkpt lat="44.52548" lon="6.72311">
        <ele>1672.2</ele>
        <time>2022-06-12T12:18:09Z</time>
      </trkpt>
      <trkpt lat="44.52548" lon="6.72308">
        <ele>1672.4</ele>
        <time>2022-06-12T12:18:10Z</time>
      </trkpt>
      <trkpt lat="44.52549" lon="6.72305">
        <ele>1672.7</ele>
        <time>2022-06-12T12:18:11Z</time>
      </trkpt>
      <trkpt lat="44.5255" lon="6.72302">
        <ele>1673.2</ele>
        <time>2022-06-12T12:18:12Z</time>
      </trkpt>
      <trkpt lat="44.52551" lon="6.72297">
        <ele>1673.7</ele>
        <time>2022-06-12T12:18:13Z</time>
      </trkpt>
      <trkpt lat="44.52551" lon="6.72296">
        <ele>1673.9</ele>
        <time>2022-06-12T12:18:14Z</time>
      </trkpt>
      <trkpt lat="44.52552" lon="6.72292">
        <ele>1674.1</ele>
        <time>2022-06-12T12:18:15Z</time>
      </trkpt>
      <trkpt lat="44.52552" lon="6.72289">
        <ele>1674.3</ele>
        <time>2022-06-12T12:18:16Z</time>
      </trkpt>
      <trkpt lat="44.52553" lon="6.72284">
        <ele>1674.8</ele>
        <time>2022-06-12T12:18:17Z</time>
      </trkpt>
      <trkpt lat="44.52554" lon="6.72282">
        <ele>1675</ele>
        <time>2022-06-12T12:18:18Z</time>
      </trkpt>
      <trkpt lat="44.52554" lon="6.72279">
        <ele>1675.3</ele>
        <time>2022-06-12T12:18:19Z</time>
      </trkpt>
      <trkpt lat="44.52555" lon="6.72276">
        <ele>1675.5</ele>
        <time>2022-06-12T12:18:20Z</time>
      </trkpt>
      <trkpt lat="44.52555" lon="6.72273">
        <ele>1675.6</ele>
        <time>2022-06-12T12:18:21Z</time>
      </trkpt>
      <trkpt lat="44.52555" lon="6.72269">
        <ele>1675.8</ele>
        <time>2022-06-12T12:18:22Z</time>
      </trkpt>
      <trkpt lat="44.52556" lon="6.72266">
        <ele>1676</ele>
        <time>2022-06-12T12:18:23Z</time>
      </trkpt>
      <trkpt lat="44.52556" lon="6.72263">
        <ele>1676</ele>
        <time>2022-06-12T12:18:24Z</time>
      </trkpt>
      <trkpt lat="44.52556" lon="6.72259">
        <ele>1676</ele>
        <time>2022-06-12T12:18:25Z</time>
      </trkpt>
      <trkpt lat="44.52556" lon="6.72256">
        <ele>1676.1</ele>
        <time>2022-06-12T12:18:26Z</time>
      </trkpt>
      <trkpt lat="44.52557" lon="6.72253">
        <ele>1676.5</ele>
        <time>2022-06-12T12:18:27Z</time>
      </trkpt>
      <trkpt lat="44.52557" lon="6.7225">
        <ele>1676.8</ele>
        <time>2022-06-12T12:18:28Z</time>
      </trkpt>
      <trkpt lat="44.52558" lon="6.72247">
        <ele>1677.1</ele>
        <time>2022-06-12T12:18:29Z</time>
      </trkpt>
      <trkpt lat="44.52559" lon="6.72244">
        <ele>1677.3</ele>
        <time>2022-06-12T12:18:30Z</time>
      </trkpt>
      <trkpt lat="44.5256" lon="6.72241">
        <ele>1677.7</ele>
        <time>2022-06-12T12:18:31Z</time>
      </trkpt>
      <trkpt lat="44.5256" lon="6.72237">
        <ele>1678</ele>
        <time>2022-06-12T12:18:32Z</time>
      </trkpt>
      <trkpt lat="44.52561" lon="6.72235">
        <ele>1678.5</ele>
        <time>2022-06-12T12:18:33Z</time>
      </trkpt>
      <trkpt lat="44.52563" lon="6.72232">
        <ele>1679</ele>
        <time>2022-06-12T12:18:34Z</time>
      </trkpt>
      <trkpt lat="44.52564" lon="6.72229">
        <ele>1679.6</ele>
        <time>2022-06-12T12:18:35Z</time>
      </trkpt>
      <trkpt lat="44.52565" lon="6.72226">
        <ele>1680.2</ele>
        <time>2022-06-12T12:18:36Z</time>
      </trkpt>
      <trkpt lat="44.52566" lon="6.72223">
        <ele>1680.8</ele>
        <time>2022-06-12T12:18:37Z</time>
      </trkpt>
      <trkpt lat="44.52567" lon="6.72221">
        <ele>1681.3</ele>
        <time>2022-06-12T12:18:38Z</time>
      </trkpt>
      <trkpt lat="44.52568" lon="6.72218">
        <ele>1681.8</ele>
        <time>2022-06-12T12:18:39Z</time>
      </trkpt>
      <trkpt lat="44.52569" lon="6.72215">
        <ele>1682.3</ele>
        <time>2022-06-12T12:18:40Z</time>
      </trkpt>
      <trkpt lat="44.5257" lon="6.72212">
        <ele>1682.8</ele>
        <time>2022-06-12T12:18:41Z</time>
      </trkpt>
      <trkpt lat="44.52571" lon="6.72209">
        <ele>1683.1</ele>
        <time>2022-06-12T12:18:42Z</time>
      </trkpt>
      <trkpt lat="44.52572" lon="6.72206">
        <ele>1683.6</ele>
        <time>2022-06-12T12:18:43Z</time>
      </trkpt>
      <trkpt lat="44.52573" lon="6.72204">
        <ele>1684.2</ele>
        <time>2022-06-12T12:18:44Z</time>
      </trkpt>
      <trkpt lat="44.52574" lon="6.72201">
        <ele>1684.6</ele>
        <time>2022-06-12T12:18:45Z</time>
      </trkpt>
      <trkpt lat="44.52575" lon="6.72198">
        <ele>1685</ele>
        <time>2022-06-12T12:18:46Z</time>
      </trkpt>
      <trkpt lat="44.52575" lon="6.72195">
        <ele>1685.2</ele>
        <time>2022-06-12T12:18:47Z</time>
      </trkpt>
      <trkpt lat="44.52575" lon="6.72192">
        <ele>1685.2</ele>
        <time>2022-06-12T12:18:48Z</time>
      </trkpt>
      <trkpt lat="44.52575" lon="6.72189">
        <ele>1685.2</ele>
        <time>2022-06-12T12:18:49Z</time>
      </trkpt>
      <trkpt lat="44.52575" lon="6.72186">
        <ele>1685</ele>
        <time>2022-06-12T12:18:50Z</time>
      </trkpt>
      <trkpt lat="44.52575" lon="6.72183">
        <ele>1684.8</ele>
        <time>2022-06-12T12:18:51Z</time>
      </trkpt>
      <trkpt lat="44.52575" lon="6.7218">
        <ele>1684.8</ele>
        <time>2022-06-12T12:18:52Z</time>
      </trkpt>
      <trkpt lat="44.52575" lon="6.72177">
        <ele>1684.8</ele>
        <time>2022-06-12T12:18:53Z</time>
      </trkpt>
      <trkpt lat="44.52575" lon="6.72174">
        <ele>1685</ele>
        <time>2022-06-12T12:18:54Z</time>
      </trkpt>
      <trkpt lat="44.52576" lon="6.72171">
        <ele>1685.3</ele>
        <time>2022-06-12T12:18:55Z</time>
      </trkpt>
      <trkpt lat="44.52576" lon="6.72168">
        <ele>1685.5</ele>
        <time>2022-06-12T12:18:56Z</time>
      </trkpt>
      <trkpt lat="44.52577" lon="6.72166">
        <ele>1685.7</ele>
        <time>2022-06-12T12:18:57Z</time>
      </trkpt>
      <trkpt lat="44.52577" lon="6.72163">
        <ele>1685.7</ele>
        <time>2022-06-12T12:18:58Z</time>
      </trkpt>
      <trkpt lat="44.52578" lon="6.7216">
        <ele>1685.9</ele>
        <time>2022-06-12T12:18:59Z</time>
      </trkpt>
      <trkpt lat="44.52578" lon="6.72157">
        <ele>1686</ele>
        <time>2022-06-12T12:19:00Z</time>
      </trkpt>
      <trkpt lat="44.52579" lon="6.72154">
        <ele>1686.2</ele>
        <time>2022-06-12T12:19:01Z</time>
      </trkpt>
      <trkpt lat="44.52579" lon="6.72151">
        <ele>1686.4</ele>
        <time>2022-06-12T12:19:02Z</time>
      </trkpt>
      <trkpt lat="44.5258" lon="6.72148">
        <ele>1686.8</ele>
        <time>2022-06-12T12:19:03Z</time>
      </trkpt>
      <trkpt lat="44.52581" lon="6.72146">
        <ele>1687.1</ele>
        <time>2022-06-12T12:19:04Z</time>
      </trkpt>
      <trkpt lat="44.52582" lon="6.72144">
        <ele>1687.7</ele>
        <time>2022-06-12T12:19:05Z</time>
      </trkpt>
      <trkpt lat="44.52584" lon="6.72142">
        <ele>1688.3</ele>
        <time>2022-06-12T12:19:06Z</time>
      </trkpt>
      <trkpt lat="44.52585" lon="6.72139">
        <ele>1688.9</ele>
        <time>2022-06-12T12:19:07Z</time>
      </trkpt>
      <trkpt lat="44.52586" lon="6.72137">
        <ele>1689.3</ele>
        <time>2022-06-12T12:19:08Z</time>
      </trkpt>
      <trkpt lat="44.52587" lon="6.72134">
        <ele>1689.7</ele>
        <time>2022-06-12T12:19:09Z</time>
      </trkpt>
      <trkpt lat="44.52588" lon="6.72131">
        <ele>1690</ele>
        <time>2022-06-12T12:19:10Z</time>
      </trkpt>
      <trkpt lat="44.52589" lon="6.72128">
        <ele>1690.3</ele>
        <time>2022-06-12T12:19:11Z</time>
      </trkpt>
      <trkpt lat="44.5259" lon="6.72125">
        <ele>1690.5</ele>
        <time>2022-06-12T12:19:12Z</time>
      </trkpt>
      <trkpt lat="44.52591" lon="6.72122">
        <ele>1690.7</ele>
        <time>2022-06-12T12:19:13Z</time>
      </trkpt>
      <trkpt lat="44.52592" lon="6.72119">
        <ele>1691</ele>
        <time>2022-06-12T12:19:14Z</time>
      </trkpt>
      <trkpt lat="44.52592" lon="6.72116">
        <ele>1691</ele>
        <time>2022-06-12T12:19:15Z</time>
      </trkpt>
      <trkpt lat="44.52593" lon="6.72113">
        <ele>1691.2</ele>
        <time>2022-06-12T12:19:16Z</time>
      </trkpt>
      <trkpt lat="44.52594" lon="6.72111">
        <ele>1691.5</ele>
        <time>2022-06-12T12:19:17Z</time>
      </trkpt>
      <trkpt lat="44.52595" lon="6.72108">
        <ele>1691.8</ele>
        <time>2022-06-12T12:19:18Z</time>
      </trkpt>
      <trkpt lat="44.52596" lon="6.72105">
        <ele>1692.1</ele>
        <time>2022-06-12T12:19:19Z</time>
      </trkpt>
      <trkpt lat="44.52597" lon="6.72102">
        <ele>1692.5</ele>
        <time>2022-06-12T12:19:20Z</time>
      </trkpt>
      <trkpt lat="44.52598" lon="6.721">
        <ele>1692.8</ele>
        <time>2022-06-12T12:19:21Z</time>
      </trkpt>
      <trkpt lat="44.52599" lon="6.72097">
        <ele>1693.1</ele>
        <time>2022-06-12T12:19:22Z</time>
      </trkpt>
      <trkpt lat="44.526" lon="6.72095">
        <ele>1693.4</ele>
        <time>2022-06-12T12:19:23Z</time>
      </trkpt>
      <trkpt lat="44.52601" lon="6.72092">
        <ele>1693.6</ele>
        <time>2022-06-12T12:19:24Z</time>
      </trkpt>
      <trkpt lat="44.52602" lon="6.72089">
        <ele>1693.9</ele>
        <time>2022-06-12T12:19:25Z</time>
      </trkpt>
      <trkpt lat="44.52603" lon="6.72086">
        <ele>1694.1</ele>
        <time>2022-06-12T12:19:26Z</time>
      </trkpt>
      <trkpt lat="44.52604" lon="6.72083">
        <ele>1694.3</ele>
        <time>2022-06-12T12:19:27Z</time>
      </trkpt>
      <trkpt lat="44.52605" lon="6.7208">
        <ele>1694.5</ele>
        <time>2022-06-12T12:19:28Z</time>
      </trkpt>
      <trkpt lat="44.52605" lon="6.72078">
        <ele>1694.6</ele>
        <time>2022-06-12T12:19:29Z</time>
      </trkpt>
      <trkpt lat="44.52606" lon="6.72075">
        <ele>1694.7</ele>
        <time>2022-06-12T12:19:30Z</time>
      </trkpt>
      <trkpt lat="44.52607" lon="6.72072">
        <ele>1694.9</ele>
        <time>2022-06-12T12:19:31Z</time>
      </trkpt>
      <trkpt lat="44.52607" lon="6.72069">
        <ele>1695.1</ele>
        <time>2022-06-12T12:19:32Z</time>
      </trkpt>
      <trkpt lat="44.52608" lon="6.72066">
        <ele>1695.2</ele>
        <time>2022-06-12T12:19:33Z</time>
      </trkpt>
      <trkpt lat="44.52609" lon="6.72063">
        <ele>1695.5</ele>
        <time>2022-06-12T12:19:34Z</time>
      </trkpt>
      <trkpt lat="44.5261" lon="6.7206">
        <ele>1695.8</ele>
        <time>2022-06-12T12:19:35Z</time>
      </trkpt>
      <trkpt lat="44.52611" lon="6.72057">
        <ele>1696.1</ele>
        <time>2022-06-12T12:19:36Z</time>
      </trkpt>
      <trkpt lat="44.52612" lon="6.72054">
        <ele>1696.2</ele>
        <time>2022-06-12T12:19:37Z</time>
      </trkpt>
      <trkpt lat="44.52612" lon="6.72051">
        <ele>1696.2</ele>
        <time>2022-06-12T12:19:38Z</time>
      </trkpt>
      <trkpt lat="44.52613" lon="6.72048">
        <ele>1696.5</ele>
        <time>2022-06-12T12:19:39Z</time>
      </trkpt>
      <trkpt lat="44.52614" lon="6.72046">
        <ele>1696.8</ele>
        <time>2022-06-12T12:19:40Z</time>
      </trkpt>
      <trkpt lat="44.52615" lon="6.72043">
        <ele>1697</ele>
        <time>2022-06-12T12:19:41Z</time>
      </trkpt>
      <trkpt lat="44.52616" lon="6.7204">
        <ele>1697.1</ele>
        <time>2022-06-12T12:19:42Z</time>
      </trkpt>
      <trkpt lat="44.52616" lon="6.72037">
        <ele>1697</ele>
        <time>2022-06-12T12:19:43Z</time>
      </trkpt>
      <trkpt lat="44.52617" lon="6.72034">
        <ele>1697.1</ele>
        <time>2022-06-12T12:19:44Z</time>
      </trkpt>
      <trkpt lat="44.52617" lon="6.72032">
        <ele>1697.3</ele>
        <time>2022-06-12T12:19:45Z</time>
      </trkpt>
      <trkpt lat="44.52618" lon="6.72029">
        <ele>1697.5</ele>
        <time>2022-06-12T12:19:46Z</time>
      </trkpt>
      <trkpt lat="44.5262" lon="6.72026">
        <ele>1697.8</ele>
        <time>2022-06-12T12:19:47Z</time>
      </trkpt>
      <trkpt lat="44.52621" lon="6.72024">
        <ele>1698.1</ele>
        <time>2022-06-12T12:19:48Z</time>
      </trkpt>
      <trkpt lat="44.52622" lon="6.72021">
        <ele>1698.5</ele>
        <time>2022-06-12T12:19:49Z</time>
      </trkpt>
      <trkpt lat="44.52623" lon="6.72019">
        <ele>1698.8</ele>
        <time>2022-06-12T12:19:50Z</time>
      </trkpt>
      <trkpt lat="44.52624" lon="6.72016">
        <ele>1698.9</ele>
        <time>2022-06-12T12:19:51Z</time>
      </trkpt>
      <trkpt lat="44.52625" lon="6.72013">
        <ele>1699.1</ele>
        <time>2022-06-12T12:19:52Z</time>
      </trkpt>
      <trkpt lat="44.52626" lon="6.72011">
        <ele>1699.3</ele>
        <time>2022-06-12T12:19:53Z</time>
      </trkpt>
      <trkpt lat="44.52627" lon="6.72008">
        <ele>1699.5</ele>
        <time>2022-06-12T12:19:54Z</time>
      </trkpt>
      <trkpt lat="44.52628" lon="6.72005">
        <ele>1699.7</ele>
        <time>2022-06-12T12:19:55Z</time>
      </trkpt>
      <trkpt lat="44.52629" lon="6.72003">
        <ele>1700.1</ele>
        <time>2022-06-12T12:19:56Z</time>
      </trkpt>
      <trkpt lat="44.52631" lon="6.72001">
        <ele>1700.5</ele>
        <time>2022-06-12T12:19:57Z</time>
      </trkpt>
      <trkpt lat="44.52632" lon="6.71999">
        <ele>1700.8</ele>
        <time>2022-06-12T12:19:58Z</time>
      </trkpt>
      <trkpt lat="44.52633" lon="6.71996">
        <ele>1701.1</ele>
        <time>2022-06-12T12:19:59Z</time>
      </trkpt>
      <trkpt lat="44.52634" lon="6.71994">
        <ele>1701.4</ele>
        <time>2022-06-12T12:20:00Z</time>
      </trkpt>
      <trkpt lat="44.52635" lon="6.71991">
        <ele>1701.8</ele>
        <time>2022-06-12T12:20:01Z</time>
      </trkpt>
      <trkpt lat="44.52637" lon="6.71989">
        <ele>1702.2</ele>
        <time>2022-06-12T12:20:02Z</time>
      </trkpt>
      <trkpt lat="44.52638" lon="6.71987">
        <ele>1702.7</ele>
        <time>2022-06-12T12:20:03Z</time>
      </trkpt>
      <trkpt lat="44.52639" lon="6.71984">
        <ele>1703</ele>
        <time>2022-06-12T12:20:04Z</time>
      </trkpt>
      <trkpt lat="44.52641" lon="6.71982">
        <ele>1703.4</ele>
        <time>2022-06-12T12:20:05Z</time>
      </trkpt>
      <trkpt lat="44.52642" lon="6.71979">
        <ele>1703.7</ele>
        <time>2022-06-12T12:20:06Z</time>
      </trkpt>
      <trkpt lat="44.52643" lon="6.71977">
        <ele>1704</ele>
        <time>2022-06-12T12:20:07Z</time>
      </trkpt>
      <trkpt lat="44.52645" lon="6.71974">
        <ele>1704.4</ele>
        <time>2022-06-12T12:20:08Z</time>
      </trkpt>
      <trkpt lat="44.52646" lon="6.71972">
        <ele>1704.8</ele>
        <time>2022-06-12T12:20:09Z</time>
      </trkpt>
      <trkpt lat="44.52647" lon="6.71969">
        <ele>1705.1</ele>
        <time>2022-06-12T12:20:10Z</time>
      </trkpt>
      <trkpt lat="44.52649" lon="6.71967">
        <ele>1705.4</ele>
        <time>2022-06-12T12:20:11Z</time>
      </trkpt>
      <trkpt lat="44.5265" lon="6.71964">
        <ele>1705.9</ele>
        <time>2022-06-12T12:20:12Z</time>
      </trkpt>
      <trkpt lat="44.52651" lon="6.71962">
        <ele>1706.1</ele>
        <time>2022-06-12T12:20:13Z</time>
      </trkpt>
      <trkpt lat="44.52652" lon="6.71959">
        <ele>1706.3</ele>
        <time>2022-06-12T12:20:14Z</time>
      </trkpt>
      <trkpt lat="44.52653" lon="6.71956">
        <ele>1706.5</ele>
        <time>2022-06-12T12:20:15Z</time>
      </trkpt>
      <trkpt lat="44.52654" lon="6.71954">
        <ele>1706.7</ele>
        <time>2022-06-12T12:20:16Z</time>
      </trkpt>
      <trkpt lat="44.52655" lon="6.71951">
        <ele>1706.8</ele>
        <time>2022-06-12T12:20:17Z</time>
      </trkpt>
      <trkpt lat="44.52656" lon="6.71948">
        <ele>1706.9</ele>
        <time>2022-06-12T12:20:18Z</time>
      </trkpt>
      <trkpt lat="44.52657" lon="6.71945">
        <ele>1707.1</ele>
        <time>2022-06-12T12:20:19Z</time>
      </trkpt>
      <trkpt lat="44.52658" lon="6.71942">
        <ele>1707.4</ele>
        <time>2022-06-12T12:20:20Z</time>
      </trkpt>
      <trkpt lat="44.52658" lon="6.71939">
        <ele>1707.6</ele>
        <time>2022-06-12T12:20:21Z</time>
      </trkpt>
      <trkpt lat="44.52659" lon="6.71936">
        <ele>1707.7</ele>
        <time>2022-06-12T12:20:22Z</time>
      </trkpt>
      <trkpt lat="44.52659" lon="6.71933">
        <ele>1707.9</ele>
        <time>2022-06-12T12:20:23Z</time>
      </trkpt>
      <trkpt lat="44.5266" lon="6.7193">
        <ele>1708.2</ele>
        <time>2022-06-12T12:20:24Z</time>
      </trkpt>
      <trkpt lat="44.52661" lon="6.71928">
        <ele>1708.6</ele>
        <time>2022-06-12T12:20:25Z</time>
      </trkpt>
      <trkpt lat="44.52662" lon="6.71925">
        <ele>1709</ele>
        <time>2022-06-12T12:20:26Z</time>
      </trkpt>
      <trkpt lat="44.52663" lon="6.71922">
        <ele>1709.4</ele>
        <time>2022-06-12T12:20:27Z</time>
      </trkpt>
      <trkpt lat="44.52664" lon="6.71919">
        <ele>1709.6</ele>
        <time>2022-06-12T12:20:28Z</time>
      </trkpt>
      <trkpt lat="44.52664" lon="6.71916">
        <ele>1709.9</ele>
        <time>2022-06-12T12:20:29Z</time>
      </trkpt>
      <trkpt lat="44.52665" lon="6.71912">
        <ele>1710.3</ele>
        <time>2022-06-12T12:20:30Z</time>
      </trkpt>
      <trkpt lat="44.52666" lon="6.71909">
        <ele>1710.7</ele>
        <time>2022-06-12T12:20:31Z</time>
      </trkpt>
      <trkpt lat="44.52667" lon="6.71906">
        <ele>1711.1</ele>
        <time>2022-06-12T12:20:32Z</time>
      </trkpt>
      <trkpt lat="44.52667" lon="6.71902">
        <ele>1711.2</ele>
        <time>2022-06-12T12:20:33Z</time>
      </trkpt>
      <trkpt lat="44.52668" lon="6.71899">
        <ele>1711.4</ele>
        <time>2022-06-12T12:20:34Z</time>
      </trkpt>
      <trkpt lat="44.52668" lon="6.71896">
        <ele>1711.6</ele>
        <time>2022-06-12T12:20:35Z</time>
      </trkpt>
      <trkpt lat="44.52669" lon="6.71892">
        <ele>1711.9</ele>
        <time>2022-06-12T12:20:36Z</time>
      </trkpt>
      <trkpt lat="44.5267" lon="6.71889">
        <ele>1712</ele>
        <time>2022-06-12T12:20:37Z</time>
      </trkpt>
      <trkpt lat="44.5267" lon="6.71885">
        <ele>1712.2</ele>
        <time>2022-06-12T12:20:38Z</time>
      </trkpt>
      <trkpt lat="44.52671" lon="6.71882">
        <ele>1712.4</ele>
        <time>2022-06-12T12:20:39Z</time>
      </trkpt>
      <trkpt lat="44.52671" lon="6.71879">
        <ele>1712.6</ele>
        <time>2022-06-12T12:20:40Z</time>
      </trkpt>
      <trkpt lat="44.52672" lon="6.71876">
        <ele>1712.9</ele>
        <time>2022-06-12T12:20:41Z</time>
      </trkpt>
      <trkpt lat="44.52672" lon="6.71874">
        <ele>1713</ele>
        <time>2022-06-12T12:20:42Z</time>
      </trkpt>
      <trkpt lat="44.52673" lon="6.71871">
        <ele>1713.3</ele>
        <time>2022-06-12T12:20:43Z</time>
      </trkpt>
      <trkpt lat="44.52673" lon="6.71868">
        <ele>1713.4</ele>
        <time>2022-06-12T12:20:44Z</time>
      </trkpt>
      <trkpt lat="44.52674" lon="6.71866">
        <ele>1713.5</ele>
        <time>2022-06-12T12:20:45Z</time>
      </trkpt>
      <trkpt lat="44.52674" lon="6.71863">
        <ele>1713.6</ele>
        <time>2022-06-12T12:20:46Z</time>
      </trkpt>
      <trkpt lat="44.52674" lon="6.7186">
        <ele>1713.7</ele>
        <time>2022-06-12T12:20:47Z</time>
      </trkpt>
      <trkpt lat="44.52675" lon="6.71857">
        <ele>1713.8</ele>
        <time>2022-06-12T12:20:48Z</time>
      </trkpt>
      <trkpt lat="44.52675" lon="6.71854">
        <ele>1713.8</ele>
        <time>2022-06-12T12:20:49Z</time>
      </trkpt>
      <trkpt lat="44.52675" lon="6.71851">
        <ele>1713.8</ele>
        <time>2022-06-12T12:20:50Z</time>
      </trkpt>
      <trkpt lat="44.52675" lon="6.71849">
        <ele>1713.8</ele>
        <time>2022-06-12T12:20:51Z</time>
      </trkpt>
      <trkpt lat="44.52675" lon="6.71846">
        <ele>1713.9</ele>
        <time>2022-06-12T12:20:52Z</time>
      </trkpt>
      <trkpt lat="44.52676" lon="6.71843">
        <ele>1714.2</ele>
        <time>2022-06-12T12:20:53Z</time>
      </trkpt>
      <trkpt lat="44.52677" lon="6.71841">
        <ele>1714.6</ele>
        <time>2022-06-12T12:20:54Z</time>
      </trkpt>
      <trkpt lat="44.52678" lon="6.71839">
        <ele>1715</ele>
        <time>2022-06-12T12:20:55Z</time>
      </trkpt>
      <trkpt lat="44.52679" lon="6.71837">
        <ele>1715.4</ele>
        <time>2022-06-12T12:20:56Z</time>
      </trkpt>
      <trkpt lat="44.5268" lon="6.71836">
        <ele>1715.8</ele>
        <time>2022-06-12T12:20:57Z</time>
      </trkpt>
      <trkpt lat="44.52682" lon="6.71834">
        <ele>1716.7</ele>
        <time>2022-06-12T12:20:58Z</time>
      </trkpt>
      <trkpt lat="44.52684" lon="6.71832">
        <ele>1717.4</ele>
        <time>2022-06-12T12:20:59Z</time>
      </trkpt>
      <trkpt lat="44.52686" lon="6.71831">
        <ele>1718.1</ele>
        <time>2022-06-12T12:21:00Z</time>
      </trkpt>
      <trkpt lat="44.52688" lon="6.71829">
        <ele>1718.8</ele>
        <time>2022-06-12T12:21:01Z</time>
      </trkpt>
      <trkpt lat="44.5269" lon="6.71827">
        <ele>1719.3</ele>
        <time>2022-06-12T12:21:02Z</time>
      </trkpt>
      <trkpt lat="44.52691" lon="6.71826">
        <ele>1719.9</ele>
        <time>2022-06-12T12:21:03Z</time>
      </trkpt>
      <trkpt lat="44.52693" lon="6.71825">
        <ele>1720.5</ele>
        <time>2022-06-12T12:21:04Z</time>
      </trkpt>
      <trkpt lat="44.52695" lon="6.71823">
        <ele>1721.1</ele>
        <time>2022-06-12T12:21:05Z</time>
      </trkpt>
      <trkpt lat="44.52697" lon="6.71822">
        <ele>1721.7</ele>
        <time>2022-06-12T12:21:06Z</time>
      </trkpt>
      <trkpt lat="44.52698" lon="6.71821">
        <ele>1722.4</ele>
        <time>2022-06-12T12:21:07Z</time>
      </trkpt>
      <trkpt lat="44.527" lon="6.7182">
        <ele>1722.9</ele>
        <time>2022-06-12T12:21:08Z</time>
      </trkpt>
      <trkpt lat="44.52702" lon="6.71818">
        <ele>1723.5</ele>
        <time>2022-06-12T12:21:09Z</time>
      </trkpt>
      <trkpt lat="44.52703" lon="6.71816">
        <ele>1724.1</ele>
        <time>2022-06-12T12:21:10Z</time>
      </trkpt>
      <trkpt lat="44.52705" lon="6.71815">
        <ele>1724.9</ele>
        <time>2022-06-12T12:21:11Z</time>
      </trkpt>
      <trkpt lat="44.52707" lon="6.71813">
        <ele>1725.6</ele>
        <time>2022-06-12T12:21:12Z</time>
      </trkpt>
      <trkpt lat="44.52709" lon="6.71812">
        <ele>1726.3</ele>
        <time>2022-06-12T12:21:13Z</time>
      </trkpt>
      <trkpt lat="44.52711" lon="6.7181">
        <ele>1727</ele>
        <time>2022-06-12T12:21:14Z</time>
      </trkpt>
      <trkpt lat="44.52712" lon="6.71809">
        <ele>1727.6</ele>
        <time>2022-06-12T12:21:15Z</time>
      </trkpt>
      <trkpt lat="44.52714" lon="6.71807">
        <ele>1728.3</ele>
        <time>2022-06-12T12:21:16Z</time>
      </trkpt>
      <trkpt lat="44.52716" lon="6.71805">
        <ele>1728.8</ele>
        <time>2022-06-12T12:21:17Z</time>
      </trkpt>
      <trkpt lat="44.52717" lon="6.71803">
        <ele>1729.5</ele>
        <time>2022-06-12T12:21:18Z</time>
      </trkpt>
      <trkpt lat="44.52718" lon="6.71801">
        <ele>1730</ele>
        <time>2022-06-12T12:21:19Z</time>
      </trkpt>
      <trkpt lat="44.5272" lon="6.71798">
        <ele>1730.5</ele>
        <time>2022-06-12T12:21:20Z</time>
      </trkpt>
      <trkpt lat="44.5272" lon="6.71796">
        <ele>1730.8</ele>
        <time>2022-06-12T12:21:21Z</time>
      </trkpt>
      <trkpt lat="44.52721" lon="6.71793">
        <ele>1731</ele>
        <time>2022-06-12T12:21:22Z</time>
      </trkpt>
      <trkpt lat="44.52721" lon="6.7179">
        <ele>1731</ele>
        <time>2022-06-12T12:21:23Z</time>
      </trkpt>
      <trkpt lat="44.52721" lon="6.71788">
        <ele>1730.7</ele>
        <time>2022-06-12T12:21:24Z</time>
      </trkpt>
      <trkpt lat="44.5272" lon="6.71783">
        <ele>1730.4</ele>
        <time>2022-06-12T12:21:25Z</time>
      </trkpt>
      <trkpt lat="44.5272" lon="6.71782">
        <ele>1730.3</ele>
        <time>2022-06-12T12:21:26Z</time>
      </trkpt>
      <trkpt lat="44.5272" lon="6.71779">
        <ele>1730.1</ele>
        <time>2022-06-12T12:21:27Z</time>
      </trkpt>
      <trkpt lat="44.52719" lon="6.71777">
        <ele>1729.7</ele>
        <time>2022-06-12T12:21:28Z</time>
      </trkpt>
      <trkpt lat="44.52718" lon="6.71775">
        <ele>1729.4</ele>
        <time>2022-06-12T12:21:29Z</time>
      </trkpt>
      <trkpt lat="44.52717" lon="6.71773">
        <ele>1729</ele>
        <time>2022-06-12T12:21:30Z</time>
      </trkpt>
      <trkpt lat="44.52716" lon="6.71771">
        <ele>1728.7</ele>
        <time>2022-06-12T12:21:31Z</time>
      </trkpt>
      <trkpt lat="44.52714" lon="6.71769">
        <ele>1728.2</ele>
        <time>2022-06-12T12:21:32Z</time>
      </trkpt>
      <trkpt lat="44.52713" lon="6.71766">
        <ele>1727.9</ele>
        <time>2022-06-12T12:21:33Z</time>
      </trkpt>
      <trkpt lat="44.52711" lon="6.71764">
        <ele>1727.5</ele>
        <time>2022-06-12T12:21:34Z</time>
      </trkpt>
      <trkpt lat="44.5271" lon="6.71762">
        <ele>1727.2</ele>
        <time>2022-06-12T12:21:35Z</time>
      </trkpt>
      <trkpt lat="44.52708" lon="6.7176">
        <ele>1726.8</ele>
        <time>2022-06-12T12:21:36Z</time>
      </trkpt>
      <trkpt lat="44.52706" lon="6.71758">
        <ele>1726.4</ele>
        <time>2022-06-12T12:21:37Z</time>
      </trkpt>
      <trkpt lat="44.52705" lon="6.71756">
        <ele>1725.9</ele>
        <time>2022-06-12T12:21:38Z</time>
      </trkpt>
      <trkpt lat="44.52703" lon="6.71754">
        <ele>1725.5</ele>
        <time>2022-06-12T12:21:39Z</time>
      </trkpt>
      <trkpt lat="44.52701" lon="6.71752">
        <ele>1725.2</ele>
        <time>2022-06-12T12:21:40Z</time>
      </trkpt>
      <trkpt lat="44.527" lon="6.7175">
        <ele>1725</ele>
        <time>2022-06-12T12:21:41Z</time>
      </trkpt>
      <trkpt lat="44.52699" lon="6.71748">
        <ele>1724.7</ele>
        <time>2022-06-12T12:21:42Z</time>
      </trkpt>
      <trkpt lat="44.52698" lon="6.71746">
        <ele>1724.6</ele>
        <time>2022-06-12T12:21:43Z</time>
      </trkpt>
      <trkpt lat="44.52696" lon="6.71743">
        <ele>1724.4</ele>
        <time>2022-06-12T12:21:44Z</time>
      </trkpt>
      <trkpt lat="44.52696" lon="6.71741">
        <ele>1724.4</ele>
        <time>2022-06-12T12:21:45Z</time>
      </trkpt>
      <trkpt lat="44.52695" lon="6.71738">
        <ele>1724.4</ele>
        <time>2022-06-12T12:21:46Z</time>
      </trkpt>
      <trkpt lat="44.52694" lon="6.71735">
        <ele>1724.4</ele>
        <time>2022-06-12T12:21:47Z</time>
      </trkpt>
      <trkpt lat="44.52693" lon="6.71733">
        <ele>1724.3</ele>
        <time>2022-06-12T12:21:48Z</time>
      </trkpt>
      <trkpt lat="44.52693" lon="6.7173">
        <ele>1724.5</ele>
        <time>2022-06-12T12:21:49Z</time>
      </trkpt>
      <trkpt lat="44.52692" lon="6.71727">
        <ele>1724.7</ele>
        <time>2022-06-12T12:21:50Z</time>
      </trkpt>
      <trkpt lat="44.52692" lon="6.71724">
        <ele>1724.9</ele>
        <time>2022-06-12T12:21:51Z</time>
      </trkpt>
      <trkpt lat="44.52692" lon="6.71721">
        <ele>1725.2</ele>
        <time>2022-06-12T12:21:52Z</time>
      </trkpt>
      <trkpt lat="44.52692" lon="6.71718">
        <ele>1725.5</ele>
        <time>2022-06-12T12:21:53Z</time>
      </trkpt>
      <trkpt lat="44.52692" lon="6.71715">
        <ele>1725.8</ele>
        <time>2022-06-12T12:21:54Z</time>
      </trkpt>
      <trkpt lat="44.52692" lon="6.71712">
        <ele>1726.2</ele>
        <time>2022-06-12T12:21:55Z</time>
      </trkpt>
      <trkpt lat="44.52693" lon="6.71709">
        <ele>1726.7</ele>
        <time>2022-06-12T12:21:56Z</time>
      </trkpt>
      <trkpt lat="44.52693" lon="6.71707">
        <ele>1727.1</ele>
        <time>2022-06-12T12:21:57Z</time>
      </trkpt>
      <trkpt lat="44.52693" lon="6.71703">
        <ele>1727.5</ele>
        <time>2022-06-12T12:21:58Z</time>
      </trkpt>
      <trkpt lat="44.52694" lon="6.717">
        <ele>1728.1</ele>
        <time>2022-06-12T12:21:59Z</time>
      </trkpt>
      <trkpt lat="44.52694" lon="6.71698">
        <ele>1728.6</ele>
        <time>2022-06-12T12:22:00Z</time>
      </trkpt>
      <trkpt lat="44.52695" lon="6.71695">
        <ele>1729.1</ele>
        <time>2022-06-12T12:22:01Z</time>
      </trkpt>
      <trkpt lat="44.52695" lon="6.71692">
        <ele>1729.5</ele>
        <time>2022-06-12T12:22:02Z</time>
      </trkpt>
      <trkpt lat="44.52695" lon="6.71689">
        <ele>1729.9</ele>
        <time>2022-06-12T12:22:03Z</time>
      </trkpt>
      <trkpt lat="44.52696" lon="6.71686">
        <ele>1730.5</ele>
        <time>2022-06-12T12:22:04Z</time>
      </trkpt>
      <trkpt lat="44.52696" lon="6.71684">
        <ele>1731</ele>
        <time>2022-06-12T12:22:05Z</time>
      </trkpt>
      <trkpt lat="44.52697" lon="6.71681">
        <ele>1731.6</ele>
        <time>2022-06-12T12:22:06Z</time>
      </trkpt>
      <trkpt lat="44.52698" lon="6.71678">
        <ele>1732.1</ele>
        <time>2022-06-12T12:22:07Z</time>
      </trkpt>
      <trkpt lat="44.52698" lon="6.71675">
        <ele>1732.7</ele>
        <time>2022-06-12T12:22:08Z</time>
      </trkpt>
      <trkpt lat="44.52698" lon="6.71672">
        <ele>1733.1</ele>
        <time>2022-06-12T12:22:09Z</time>
      </trkpt>
      <trkpt lat="44.52698" lon="6.7167">
        <ele>1733.3</ele>
        <time>2022-06-12T12:22:10Z</time>
      </trkpt>
      <trkpt lat="44.52699" lon="6.71667">
        <ele>1733.7</ele>
        <time>2022-06-12T12:22:11Z</time>
      </trkpt>
      <trkpt lat="44.52699" lon="6.71665">
        <ele>1733.9</ele>
        <time>2022-06-12T12:22:12Z</time>
      </trkpt>
      <trkpt lat="44.52699" lon="6.71662">
        <ele>1734.2</ele>
        <time>2022-06-12T12:22:13Z</time>
      </trkpt>
      <trkpt lat="44.527" lon="6.71659">
        <ele>1734.5</ele>
        <time>2022-06-12T12:22:14Z</time>
      </trkpt>
      <trkpt lat="44.527" lon="6.71657">
        <ele>1734.9</ele>
        <time>2022-06-12T12:22:15Z</time>
      </trkpt>
      <trkpt lat="44.527" lon="6.71654">
        <ele>1735.1</ele>
        <time>2022-06-12T12:22:16Z</time>
      </trkpt>
      <trkpt lat="44.527" lon="6.71651">
        <ele>1735.2</ele>
        <time>2022-06-12T12:22:17Z</time>
      </trkpt>
      <trkpt lat="44.52701" lon="6.71648">
        <ele>1735.6</ele>
        <time>2022-06-12T12:22:18Z</time>
      </trkpt>
      <trkpt lat="44.52701" lon="6.71646">
        <ele>1735.9</ele>
        <time>2022-06-12T12:22:19Z</time>
      </trkpt>
      <trkpt lat="44.52702" lon="6.71643">
        <ele>1736.3</ele>
        <time>2022-06-12T12:22:20Z</time>
      </trkpt>
      <trkpt lat="44.52702" lon="6.7164">
        <ele>1736.5</ele>
        <time>2022-06-12T12:22:21Z</time>
      </trkpt>
      <trkpt lat="44.52702" lon="6.71638">
        <ele>1736.9</ele>
        <time>2022-06-12T12:22:22Z</time>
      </trkpt>
      <trkpt lat="44.52702" lon="6.71635">
        <ele>1737.2</ele>
        <time>2022-06-12T12:22:23Z</time>
      </trkpt>
      <trkpt lat="44.52703" lon="6.71632">
        <ele>1737.5</ele>
        <time>2022-06-12T12:22:24Z</time>
      </trkpt>
      <trkpt lat="44.52703" lon="6.7163">
        <ele>1737.7</ele>
        <time>2022-06-12T12:22:25Z</time>
      </trkpt>
      <trkpt lat="44.52703" lon="6.71627">
        <ele>1737.9</ele>
        <time>2022-06-12T12:22:26Z</time>
      </trkpt>
      <trkpt lat="44.52703" lon="6.71624">
        <ele>1738.3</ele>
        <time>2022-06-12T12:22:27Z</time>
      </trkpt>
      <trkpt lat="44.52703" lon="6.71621">
        <ele>1738.5</ele>
        <time>2022-06-12T12:22:28Z</time>
      </trkpt>
      <trkpt lat="44.52703" lon="6.71618">
        <ele>1738.6</ele>
        <time>2022-06-12T12:22:29Z</time>
      </trkpt>
      <trkpt lat="44.52703" lon="6.71616">
        <ele>1738.7</ele>
        <time>2022-06-12T12:22:30Z</time>
      </trkpt>
      <trkpt lat="44.52702" lon="6.71613">
        <ele>1738.8</ele>
        <time>2022-06-12T12:22:31Z</time>
      </trkpt>
      <trkpt lat="44.52702" lon="6.7161">
        <ele>1739</ele>
        <time>2022-06-12T12:22:32Z</time>
      </trkpt>
      <trkpt lat="44.52702" lon="6.71607">
        <ele>1739.1</ele>
        <time>2022-06-12T12:22:33Z</time>
      </trkpt>
      <trkpt lat="44.52702" lon="6.71604">
        <ele>1739.1</ele>
        <time>2022-06-12T12:22:34Z</time>
      </trkpt>
      <trkpt lat="44.52702" lon="6.71602">
        <ele>1739.1</ele>
        <time>2022-06-12T12:22:35Z</time>
      </trkpt>
      <trkpt lat="44.52702" lon="6.71598">
        <ele>1739.4</ele>
        <time>2022-06-12T12:22:36Z</time>
      </trkpt>
      <trkpt lat="44.52702" lon="6.71596">
        <ele>1739.7</ele>
        <time>2022-06-12T12:22:37Z</time>
      </trkpt>
      <trkpt lat="44.52703" lon="6.71593">
        <ele>1739.9</ele>
        <time>2022-06-12T12:22:38Z</time>
      </trkpt>
      <trkpt lat="44.52703" lon="6.7159">
        <ele>1740</ele>
        <time>2022-06-12T12:22:39Z</time>
      </trkpt>
      <trkpt lat="44.52703" lon="6.71587">
        <ele>1740.2</ele>
        <time>2022-06-12T12:22:40Z</time>
      </trkpt>
      <trkpt lat="44.52703" lon="6.71585">
        <ele>1740.5</ele>
        <time>2022-06-12T12:22:41Z</time>
      </trkpt>
      <trkpt lat="44.52703" lon="6.71582">
        <ele>1740.8</ele>
        <time>2022-06-12T12:22:42Z</time>
      </trkpt>
      <trkpt lat="44.52703" lon="6.71578">
        <ele>1741</ele>
        <time>2022-06-12T12:22:43Z</time>
      </trkpt>
      <trkpt lat="44.52703" lon="6.71576">
        <ele>1741.2</ele>
        <time>2022-06-12T12:22:44Z</time>
      </trkpt>
      <trkpt lat="44.52703" lon="6.71573">
        <ele>1741.6</ele>
        <time>2022-06-12T12:22:45Z</time>
      </trkpt>
      <trkpt lat="44.52703" lon="6.7157">
        <ele>1741.6</ele>
        <time>2022-06-12T12:22:46Z</time>
      </trkpt>
      <trkpt lat="44.52703" lon="6.71567">
        <ele>1741.7</ele>
        <time>2022-06-12T12:22:47Z</time>
      </trkpt>
      <trkpt lat="44.52703" lon="6.71564">
        <ele>1741.7</ele>
        <time>2022-06-12T12:22:48Z</time>
      </trkpt>
      <trkpt lat="44.52702" lon="6.71562">
        <ele>1741.7</ele>
        <time>2022-06-12T12:22:49Z</time>
      </trkpt>
      <trkpt lat="44.52702" lon="6.71559">
        <ele>1741.8</ele>
        <time>2022-06-12T12:22:50Z</time>
      </trkpt>
      <trkpt lat="44.52702" lon="6.71556">
        <ele>1741.8</ele>
        <time>2022-06-12T12:22:51Z</time>
      </trkpt>
      <trkpt lat="44.52701" lon="6.71553">
        <ele>1741.7</ele>
        <time>2022-06-12T12:22:52Z</time>
      </trkpt>
      <trkpt lat="44.52701" lon="6.7155">
        <ele>1741.8</ele>
        <time>2022-06-12T12:22:53Z</time>
      </trkpt>
      <trkpt lat="44.52701" lon="6.71548">
        <ele>1741.9</ele>
        <time>2022-06-12T12:22:54Z</time>
      </trkpt>
      <trkpt lat="44.52701" lon="6.71545">
        <ele>1742.1</ele>
        <time>2022-06-12T12:22:55Z</time>
      </trkpt>
      <trkpt lat="44.52701" lon="6.71542">
        <ele>1742.3</ele>
        <time>2022-06-12T12:22:56Z</time>
      </trkpt>
      <trkpt lat="44.52701" lon="6.71539">
        <ele>1742.3</ele>
        <time>2022-06-12T12:22:57Z</time>
      </trkpt>
      <trkpt lat="44.527" lon="6.71536">
        <ele>1742.3</ele>
        <time>2022-06-12T12:22:58Z</time>
      </trkpt>
      <trkpt lat="44.52699" lon="6.71533">
        <ele>1742.1</ele>
        <time>2022-06-12T12:22:59Z</time>
      </trkpt>
      <trkpt lat="44.52699" lon="6.7153">
        <ele>1741.9</ele>
        <time>2022-06-12T12:23:00Z</time>
      </trkpt>
      <trkpt lat="44.52699" lon="6.71528">
        <ele>1742.1</ele>
        <time>2022-06-12T12:23:01Z</time>
      </trkpt>
      <trkpt lat="44.52698" lon="6.71525">
        <ele>1742</ele>
        <time>2022-06-12T12:23:02Z</time>
      </trkpt>
      <trkpt lat="44.52698" lon="6.71522">
        <ele>1742.1</ele>
        <time>2022-06-12T12:23:03Z</time>
      </trkpt>
      <trkpt lat="44.52698" lon="6.71519">
        <ele>1742.3</ele>
        <time>2022-06-12T12:23:04Z</time>
      </trkpt>
      <trkpt lat="44.52698" lon="6.71516">
        <ele>1742.7</ele>
        <time>2022-06-12T12:23:05Z</time>
      </trkpt>
      <trkpt lat="44.52699" lon="6.71513">
        <ele>1743.2</ele>
        <time>2022-06-12T12:23:06Z</time>
      </trkpt>
      <trkpt lat="44.527" lon="6.71511">
        <ele>1743.9</ele>
        <time>2022-06-12T12:23:07Z</time>
      </trkpt>
      <trkpt lat="44.52701" lon="6.71508">
        <ele>1744.9</ele>
        <time>2022-06-12T12:23:08Z</time>
      </trkpt>
      <trkpt lat="44.52702" lon="6.71506">
        <ele>1745.6</ele>
        <time>2022-06-12T12:23:09Z</time>
      </trkpt>
      <trkpt lat="44.52704" lon="6.71504">
        <ele>1746.7</ele>
        <time>2022-06-12T12:23:10Z</time>
      </trkpt>
      <trkpt lat="44.52706" lon="6.71503">
        <ele>1747.8</ele>
        <time>2022-06-12T12:23:11Z</time>
      </trkpt>
      <trkpt lat="44.52708" lon="6.71502">
        <ele>1749.2</ele>
        <time>2022-06-12T12:23:12Z</time>
      </trkpt>
      <trkpt lat="44.5271" lon="6.71502">
        <ele>1750.3</ele>
        <time>2022-06-12T12:23:13Z</time>
      </trkpt>
      <trkpt lat="44.52712" lon="6.71503">
        <ele>1751.3</ele>
        <time>2022-06-12T12:23:14Z</time>
      </trkpt>
      <trkpt lat="44.52714" lon="6.71505">
        <ele>1752.1</ele>
        <time>2022-06-12T12:23:15Z</time>
      </trkpt>
      <trkpt lat="44.52715" lon="6.71508">
        <ele>1752.4</ele>
        <time>2022-06-12T12:23:16Z</time>
      </trkpt>
      <trkpt lat="44.52716" lon="6.7151">
        <ele>1752.6</ele>
        <time>2022-06-12T12:23:17Z</time>
      </trkpt>
      <trkpt lat="44.52717" lon="6.71513">
        <ele>1752.7</ele>
        <time>2022-06-12T12:23:18Z</time>
      </trkpt>
      <trkpt lat="44.52717" lon="6.71516">
        <ele>1752.7</ele>
        <time>2022-06-12T12:23:19Z</time>
      </trkpt>
      <trkpt lat="44.52718" lon="6.71519">
        <ele>1752.6</ele>
        <time>2022-06-12T12:23:20Z</time>
      </trkpt>
      <trkpt lat="44.52718" lon="6.71523">
        <ele>1752.3</ele>
        <time>2022-06-12T12:23:21Z</time>
      </trkpt>
      <trkpt lat="44.52718" lon="6.71525">
        <ele>1752.3</ele>
        <time>2022-06-12T12:23:22Z</time>
      </trkpt>
      <trkpt lat="44.52719" lon="6.71528">
        <ele>1752.2</ele>
        <time>2022-06-12T12:23:23Z</time>
      </trkpt>
      <trkpt lat="44.52719" lon="6.71531">
        <ele>1752.2</ele>
        <time>2022-06-12T12:23:24Z</time>
      </trkpt>
      <trkpt lat="44.52719" lon="6.71534">
        <ele>1752.3</ele>
        <time>2022-06-12T12:23:25Z</time>
      </trkpt>
      <trkpt lat="44.5272" lon="6.71536">
        <ele>1752.3</ele>
        <time>2022-06-12T12:23:26Z</time>
      </trkpt>
      <trkpt lat="44.5272" lon="6.71539">
        <ele>1752.2</ele>
        <time>2022-06-12T12:23:27Z</time>
      </trkpt>
      <trkpt lat="44.5272" lon="6.71542">
        <ele>1752.1</ele>
        <time>2022-06-12T12:23:28Z</time>
      </trkpt>
      <trkpt lat="44.5272" lon="6.71545">
        <ele>1752.1</ele>
        <time>2022-06-12T12:23:29Z</time>
      </trkpt>
      <trkpt lat="44.5272" lon="6.71548">
        <ele>1752.1</ele>
        <time>2022-06-12T12:23:30Z</time>
      </trkpt>
      <trkpt lat="44.52721" lon="6.71551">
        <ele>1752.5</ele>
        <time>2022-06-12T12:23:31Z</time>
      </trkpt>
      <trkpt lat="44.52722" lon="6.71554">
        <ele>1752.9</ele>
        <time>2022-06-12T12:23:32Z</time>
      </trkpt>
      <trkpt lat="44.52723" lon="6.71557">
        <ele>1753.2</ele>
        <time>2022-06-12T12:23:33Z</time>
      </trkpt>
      <trkpt lat="44.52724" lon="6.71559">
        <ele>1753.5</ele>
        <time>2022-06-12T12:23:34Z</time>
      </trkpt>
      <trkpt lat="44.52725" lon="6.71562">
        <ele>1753.8</ele>
        <time>2022-06-12T12:23:35Z</time>
      </trkpt>
      <trkpt lat="44.52726" lon="6.71565">
        <ele>1754.1</ele>
        <time>2022-06-12T12:23:36Z</time>
      </trkpt>
      <trkpt lat="44.52727" lon="6.71567">
        <ele>1754.4</ele>
        <time>2022-06-12T12:23:37Z</time>
      </trkpt>
      <trkpt lat="44.52727" lon="6.7157">
        <ele>1754.6</ele>
        <time>2022-06-12T12:23:38Z</time>
      </trkpt>
      <trkpt lat="44.52728" lon="6.71573">
        <ele>1754.9</ele>
        <time>2022-06-12T12:23:39Z</time>
      </trkpt>
      <trkpt lat="44.52729" lon="6.71576">
        <ele>1755.2</ele>
        <time>2022-06-12T12:23:40Z</time>
      </trkpt>
      <trkpt lat="44.5273" lon="6.71578">
        <ele>1755.5</ele>
        <time>2022-06-12T12:23:41Z</time>
      </trkpt>
      <trkpt lat="44.52732" lon="6.71581">
        <ele>1755.9</ele>
        <time>2022-06-12T12:23:42Z</time>
      </trkpt>
      <trkpt lat="44.52733" lon="6.71583">
        <ele>1756.2</ele>
        <time>2022-06-12T12:23:43Z</time>
      </trkpt>
      <trkpt lat="44.52734" lon="6.71586">
        <ele>1756.6</ele>
        <time>2022-06-12T12:23:44Z</time>
      </trkpt>
      <trkpt lat="44.52735" lon="6.71589">
        <ele>1757.2</ele>
        <time>2022-06-12T12:23:45Z</time>
      </trkpt>
      <trkpt lat="44.52737" lon="6.71591">
        <ele>1757.7</ele>
        <time>2022-06-12T12:23:46Z</time>
      </trkpt>
      <trkpt lat="44.52738" lon="6.71594">
        <ele>1758.2</ele>
        <time>2022-06-12T12:23:47Z</time>
      </trkpt>
      <trkpt lat="44.52739" lon="6.71596">
        <ele>1758.7</ele>
        <time>2022-06-12T12:23:48Z</time>
      </trkpt>
      <trkpt lat="44.52741" lon="6.71599">
        <ele>1759.1</ele>
        <time>2022-06-12T12:23:49Z</time>
      </trkpt>
      <trkpt lat="44.52742" lon="6.71601">
        <ele>1759.4</ele>
        <time>2022-06-12T12:23:50Z</time>
      </trkpt>
      <trkpt lat="44.52742" lon="6.71604">
        <ele>1759.7</ele>
        <time>2022-06-12T12:23:51Z</time>
      </trkpt>
      <trkpt lat="44.52744" lon="6.71606">
        <ele>1760.1</ele>
        <time>2022-06-12T12:23:52Z</time>
      </trkpt>
      <trkpt lat="44.52745" lon="6.71609">
        <ele>1760.5</ele>
        <time>2022-06-12T12:23:53Z</time>
      </trkpt>
      <trkpt lat="44.52746" lon="6.71612">
        <ele>1760.9</ele>
        <time>2022-06-12T12:23:54Z</time>
      </trkpt>
      <trkpt lat="44.52747" lon="6.71614">
        <ele>1761.2</ele>
        <time>2022-06-12T12:23:55Z</time>
      </trkpt>
      <trkpt lat="44.52748" lon="6.71617">
        <ele>1761.5</ele>
        <time>2022-06-12T12:23:56Z</time>
      </trkpt>
      <trkpt lat="44.5275" lon="6.7162">
        <ele>1761.9</ele>
        <time>2022-06-12T12:23:57Z</time>
      </trkpt>
      <trkpt lat="44.52751" lon="6.71623">
        <ele>1762.2</ele>
        <time>2022-06-12T12:23:58Z</time>
      </trkpt>
      <trkpt lat="44.52752" lon="6.71625">
        <ele>1762.3</ele>
        <time>2022-06-12T12:23:59Z</time>
      </trkpt>
      <trkpt lat="44.52753" lon="6.71628">
        <ele>1762.7</ele>
        <time>2022-06-12T12:24:00Z</time>
      </trkpt>
      <trkpt lat="44.52754" lon="6.7163">
        <ele>1763</ele>
        <time>2022-06-12T12:24:01Z</time>
      </trkpt>
      <trkpt lat="44.52755" lon="6.71633">
        <ele>1763.2</ele>
        <time>2022-06-12T12:24:02Z</time>
      </trkpt>
      <trkpt lat="44.52756" lon="6.71635">
        <ele>1763.5</ele>
        <time>2022-06-12T12:24:03Z</time>
      </trkpt>
      <trkpt lat="44.52757" lon="6.71638">
        <ele>1763.7</ele>
        <time>2022-06-12T12:24:04Z</time>
      </trkpt>
      <trkpt lat="44.52758" lon="6.71641">
        <ele>1763.9</ele>
        <time>2022-06-12T12:24:05Z</time>
      </trkpt>
      <trkpt lat="44.52759" lon="6.71643">
        <ele>1764</ele>
        <time>2022-06-12T12:24:06Z</time>
      </trkpt>
      <trkpt lat="44.5276" lon="6.71646">
        <ele>1764</ele>
        <time>2022-06-12T12:24:07Z</time>
      </trkpt>
      <trkpt lat="44.5276" lon="6.71649">
        <ele>1764.1</ele>
        <time>2022-06-12T12:24:08Z</time>
      </trkpt>
      <trkpt lat="44.52761" lon="6.71652">
        <ele>1764</ele>
        <time>2022-06-12T12:24:09Z</time>
      </trkpt>
      <trkpt lat="44.52762" lon="6.71655">
        <ele>1764</ele>
        <time>2022-06-12T12:24:10Z</time>
      </trkpt>
      <trkpt lat="44.52763" lon="6.71658">
        <ele>1764.3</ele>
        <time>2022-06-12T12:24:11Z</time>
      </trkpt>
      <trkpt lat="44.52763" lon="6.71661">
        <ele>1764.2</ele>
        <time>2022-06-12T12:24:12Z</time>
      </trkpt>
      <trkpt lat="44.52764" lon="6.71664">
        <ele>1764.3</ele>
        <time>2022-06-12T12:24:13Z</time>
      </trkpt>
      <trkpt lat="44.52765" lon="6.71666">
        <ele>1764.3</ele>
        <time>2022-06-12T12:24:14Z</time>
      </trkpt>
      <trkpt lat="44.52766" lon="6.71669">
        <ele>1764.5</ele>
        <time>2022-06-12T12:24:15Z</time>
      </trkpt>
      <trkpt lat="44.52767" lon="6.71672">
        <ele>1764.8</ele>
        <time>2022-06-12T12:24:16Z</time>
      </trkpt>
      <trkpt lat="44.52768" lon="6.71675">
        <ele>1765.3</ele>
        <time>2022-06-12T12:24:17Z</time>
      </trkpt>
      <trkpt lat="44.52769" lon="6.71677">
        <ele>1765.6</ele>
        <time>2022-06-12T12:24:18Z</time>
      </trkpt>
      <trkpt lat="44.5277" lon="6.7168">
        <ele>1765.8</ele>
        <time>2022-06-12T12:24:19Z</time>
      </trkpt>
      <trkpt lat="44.52771" lon="6.71683">
        <ele>1766</ele>
        <time>2022-06-12T12:24:20Z</time>
      </trkpt>
      <trkpt lat="44.52772" lon="6.71686">
        <ele>1766.1</ele>
        <time>2022-06-12T12:24:21Z</time>
      </trkpt>
      <trkpt lat="44.52773" lon="6.71688">
        <ele>1766.3</ele>
        <time>2022-06-12T12:24:22Z</time>
      </trkpt>
      <trkpt lat="44.52774" lon="6.71691">
        <ele>1766.4</ele>
        <time>2022-06-12T12:24:23Z</time>
      </trkpt>
      <trkpt lat="44.52775" lon="6.71693">
        <ele>1766.7</ele>
        <time>2022-06-12T12:24:24Z</time>
      </trkpt>
      <trkpt lat="44.52776" lon="6.71695">
        <ele>1767</ele>
        <time>2022-06-12T12:24:25Z</time>
      </trkpt>
      <trkpt lat="44.52777" lon="6.71698">
        <ele>1767.3</ele>
        <time>2022-06-12T12:24:26Z</time>
      </trkpt>
      <trkpt lat="44.52779" lon="6.717">
        <ele>1767.6</ele>
        <time>2022-06-12T12:24:27Z</time>
      </trkpt>
      <trkpt lat="44.5278" lon="6.71702">
        <ele>1767.9</ele>
        <time>2022-06-12T12:24:28Z</time>
      </trkpt>
      <trkpt lat="44.5278" lon="6.71703">
        <ele>1768</ele>
        <time>2022-06-12T12:24:29Z</time>
      </trkpt>
      <trkpt lat="44.5278" lon="6.71703">
        <ele>1768</ele>
        <time>2022-06-12T12:24:30Z</time>
      </trkpt>
      <trkpt lat="44.5278" lon="6.71703">
        <ele>1768</ele>
        <time>2022-06-12T12:24:31Z</time>
      </trkpt>
      <trkpt lat="44.5278" lon="6.71703">
        <ele>1768</ele>
        <time>2022-06-12T12:24:32Z</time>
      </trkpt>
      <trkpt lat="44.52791" lon="6.7171">
        <ele>1772.5</ele>
        <time>2022-06-12T12:29:41Z</time>
      </trkpt>
      <trkpt lat="44.52792" lon="6.71712">
        <ele>1772.7</ele>
        <time>2022-06-12T12:29:42Z</time>
      </trkpt>
      <trkpt lat="44.52794" lon="6.71714">
        <ele>1773.1</ele>
        <time>2022-06-12T12:29:43Z</time>
      </trkpt>
      <trkpt lat="44.52795" lon="6.71716">
        <ele>1773.5</ele>
        <time>2022-06-12T12:29:44Z</time>
      </trkpt>
      <trkpt lat="44.52796" lon="6.71718">
        <ele>1773.9</ele>
        <time>2022-06-12T12:29:45Z</time>
      </trkpt>
      <trkpt lat="44.52798" lon="6.71721">
        <ele>1774.2</ele>
        <time>2022-06-12T12:29:46Z</time>
      </trkpt>
      <trkpt lat="44.52799" lon="6.71723">
        <ele>1774.4</ele>
        <time>2022-06-12T12:29:47Z</time>
      </trkpt>
      <trkpt lat="44.528" lon="6.71725">
        <ele>1774.8</ele>
        <time>2022-06-12T12:29:48Z</time>
      </trkpt>
      <trkpt lat="44.52801" lon="6.71728">
        <ele>1775.3</ele>
        <time>2022-06-12T12:29:49Z</time>
      </trkpt>
      <trkpt lat="44.52803" lon="6.7173">
        <ele>1775.6</ele>
        <time>2022-06-12T12:29:50Z</time>
      </trkpt>
      <trkpt lat="44.52804" lon="6.71733">
        <ele>1776</ele>
        <time>2022-06-12T12:29:51Z</time>
      </trkpt>
      <trkpt lat="44.52805" lon="6.71735">
        <ele>1776.1</ele>
        <time>2022-06-12T12:29:52Z</time>
      </trkpt>
      <trkpt lat="44.52805" lon="6.71738">
        <ele>1776.2</ele>
        <time>2022-06-12T12:29:53Z</time>
      </trkpt>
      <trkpt lat="44.52806" lon="6.7174">
        <ele>1776.3</ele>
        <time>2022-06-12T12:29:54Z</time>
      </trkpt>
      <trkpt lat="44.52807" lon="6.71743">
        <ele>1776.5</ele>
        <time>2022-06-12T12:29:55Z</time>
      </trkpt>
      <trkpt lat="44.52808" lon="6.71745">
        <ele>1776.7</ele>
        <time>2022-06-12T12:29:56Z</time>
      </trkpt>
      <trkpt lat="44.52808" lon="6.71748">
        <ele>1776.7</ele>
        <time>2022-06-12T12:29:57Z</time>
      </trkpt>
      <trkpt lat="44.52809" lon="6.71751">
        <ele>1776.6</ele>
        <time>2022-06-12T12:29:58Z</time>
      </trkpt>
      <trkpt lat="44.52809" lon="6.71754">
        <ele>1776.6</ele>
        <time>2022-06-12T12:29:59Z</time>
      </trkpt>
      <trkpt lat="44.52809" lon="6.71756">
        <ele>1776.7</ele>
        <time>2022-06-12T12:30:00Z</time>
      </trkpt>
      <trkpt lat="44.52809" lon="6.71759">
        <ele>1776.7</ele>
        <time>2022-06-12T12:30:01Z</time>
      </trkpt>
      <trkpt lat="44.52809" lon="6.71762">
        <ele>1776.8</ele>
        <time>2022-06-12T12:30:02Z</time>
      </trkpt>
      <trkpt lat="44.5281" lon="6.71765">
        <ele>1776.8</ele>
        <time>2022-06-12T12:30:03Z</time>
      </trkpt>
      <trkpt lat="44.5281" lon="6.71768">
        <ele>1776.8</ele>
        <time>2022-06-12T12:30:04Z</time>
      </trkpt>
      <trkpt lat="44.5281" lon="6.7177">
        <ele>1776.7</ele>
        <time>2022-06-12T12:30:05Z</time>
      </trkpt>
      <trkpt lat="44.5281" lon="6.71773">
        <ele>1776.7</ele>
        <time>2022-06-12T12:30:06Z</time>
      </trkpt>
      <trkpt lat="44.5281" lon="6.71776">
        <ele>1776.6</ele>
        <time>2022-06-12T12:30:07Z</time>
      </trkpt>
      <trkpt lat="44.52809" lon="6.71779">
        <ele>1776.3</ele>
        <time>2022-06-12T12:30:08Z</time>
      </trkpt>
      <trkpt lat="44.52809" lon="6.71782">
        <ele>1776.3</ele>
        <time>2022-06-12T12:30:09Z</time>
      </trkpt>
      <trkpt lat="44.52809" lon="6.71785">
        <ele>1776.5</ele>
        <time>2022-06-12T12:30:10Z</time>
      </trkpt>
      <trkpt lat="44.52808" lon="6.71787">
        <ele>1776.5</ele>
        <time>2022-06-12T12:30:11Z</time>
      </trkpt>
      <trkpt lat="44.52808" lon="6.7179">
        <ele>1776.5</ele>
        <time>2022-06-12T12:30:12Z</time>
      </trkpt>
      <trkpt lat="44.52807" lon="6.71793">
        <ele>1776.6</ele>
        <time>2022-06-12T12:30:13Z</time>
      </trkpt>
      <trkpt lat="44.52807" lon="6.71795">
        <ele>1776.7</ele>
        <time>2022-06-12T12:30:14Z</time>
      </trkpt>
      <trkpt lat="44.52807" lon="6.71798">
        <ele>1777</ele>
        <time>2022-06-12T12:30:15Z</time>
      </trkpt>
      <trkpt lat="44.52807" lon="6.71801">
        <ele>1777.1</ele>
        <time>2022-06-12T12:30:16Z</time>
      </trkpt>
      <trkpt lat="44.52807" lon="6.71804">
        <ele>1777.3</ele>
        <time>2022-06-12T12:30:17Z</time>
      </trkpt>
      <trkpt lat="44.52807" lon="6.71806">
        <ele>1777.5</ele>
        <time>2022-06-12T12:30:18Z</time>
      </trkpt>
      <trkpt lat="44.52807" lon="6.71809">
        <ele>1777.5</ele>
        <time>2022-06-12T12:30:19Z</time>
      </trkpt>
      <trkpt lat="44.52807" lon="6.71812">
        <ele>1777.5</ele>
        <time>2022-06-12T12:30:20Z</time>
      </trkpt>
      <trkpt lat="44.52807" lon="6.71814">
        <ele>1777.5</ele>
        <time>2022-06-12T12:30:21Z</time>
      </trkpt>
      <trkpt lat="44.52807" lon="6.71817">
        <ele>1777.6</ele>
        <time>2022-06-12T12:30:22Z</time>
      </trkpt>
      <trkpt lat="44.52807" lon="6.7182">
        <ele>1777.7</ele>
        <time>2022-06-12T12:30:23Z</time>
      </trkpt>
      <trkpt lat="44.52807" lon="6.71823">
        <ele>1777.8</ele>
        <time>2022-06-12T12:30:24Z</time>
      </trkpt>
      <trkpt lat="44.52808" lon="6.71825">
        <ele>1778</ele>
        <time>2022-06-12T12:30:25Z</time>
      </trkpt>
      <trkpt lat="44.52808" lon="6.71828">
        <ele>1778.2</ele>
        <time>2022-06-12T12:30:26Z</time>
      </trkpt>
      <trkpt lat="44.52809" lon="6.7183">
        <ele>1778.4</ele>
        <time>2022-06-12T12:30:27Z</time>
      </trkpt>
      <trkpt lat="44.52809" lon="6.71833">
        <ele>1778.7</ele>
        <time>2022-06-12T12:30:28Z</time>
      </trkpt>
      <trkpt lat="44.5281" lon="6.71836">
        <ele>1778.9</ele>
        <time>2022-06-12T12:30:29Z</time>
      </trkpt>
      <trkpt lat="44.5281" lon="6.71838">
        <ele>1779.1</ele>
        <time>2022-06-12T12:30:30Z</time>
      </trkpt>
      <trkpt lat="44.52811" lon="6.71841">
        <ele>1779.4</ele>
        <time>2022-06-12T12:30:31Z</time>
      </trkpt>
      <trkpt lat="44.52811" lon="6.71844">
        <ele>1779.6</ele>
        <time>2022-06-12T12:30:32Z</time>
      </trkpt>
      <trkpt lat="44.52812" lon="6.71846">
        <ele>1779.9</ele>
        <time>2022-06-12T12:30:33Z</time>
      </trkpt>
      <trkpt lat="44.52813" lon="6.71849">
        <ele>1780.2</ele>
        <time>2022-06-12T12:30:34Z</time>
      </trkpt>
      <trkpt lat="44.52814" lon="6.71851">
        <ele>1780.5</ele>
        <time>2022-06-12T12:30:35Z</time>
      </trkpt>
      <trkpt lat="44.52814" lon="6.71854">
        <ele>1780.8</ele>
        <time>2022-06-12T12:30:36Z</time>
      </trkpt>
      <trkpt lat="44.52815" lon="6.71856">
        <ele>1780.9</ele>
        <time>2022-06-12T12:30:37Z</time>
      </trkpt>
      <trkpt lat="44.52815" lon="6.71859">
        <ele>1781.1</ele>
        <time>2022-06-12T12:30:38Z</time>
      </trkpt>
      <trkpt lat="44.52815" lon="6.71861">
        <ele>1781.2</ele>
        <time>2022-06-12T12:30:39Z</time>
      </trkpt>
      <trkpt lat="44.52816" lon="6.71864">
        <ele>1781.4</ele>
        <time>2022-06-12T12:30:40Z</time>
      </trkpt>
      <trkpt lat="44.52817" lon="6.71866">
        <ele>1781.7</ele>
        <time>2022-06-12T12:30:41Z</time>
      </trkpt>
      <trkpt lat="44.52818" lon="6.71869">
        <ele>1782.2</ele>
        <time>2022-06-12T12:30:42Z</time>
      </trkpt>
      <trkpt lat="44.52818" lon="6.71871">
        <ele>1782.5</ele>
        <time>2022-06-12T12:30:43Z</time>
      </trkpt>
      <trkpt lat="44.52819" lon="6.71874">
        <ele>1782.9</ele>
        <time>2022-06-12T12:30:44Z</time>
      </trkpt>
      <trkpt lat="44.5282" lon="6.71876">
        <ele>1783.2</ele>
        <time>2022-06-12T12:30:45Z</time>
      </trkpt>
      <trkpt lat="44.52821" lon="6.71879">
        <ele>1783.5</ele>
        <time>2022-06-12T12:30:46Z</time>
      </trkpt>
      <trkpt lat="44.52821" lon="6.71881">
        <ele>1783.7</ele>
        <time>2022-06-12T12:30:47Z</time>
      </trkpt>
      <trkpt lat="44.52822" lon="6.71884">
        <ele>1784</ele>
        <time>2022-06-12T12:30:48Z</time>
      </trkpt>
      <trkpt lat="44.52823" lon="6.71886">
        <ele>1784.3</ele>
        <time>2022-06-12T12:30:49Z</time>
      </trkpt>
      <trkpt lat="44.52823" lon="6.71889">
        <ele>1784.7</ele>
        <time>2022-06-12T12:30:50Z</time>
      </trkpt>
      <trkpt lat="44.52824" lon="6.71891">
        <ele>1784.8</ele>
        <time>2022-06-12T12:30:51Z</time>
      </trkpt>
      <trkpt lat="44.52825" lon="6.71894">
        <ele>1785.1</ele>
        <time>2022-06-12T12:30:52Z</time>
      </trkpt>
      <trkpt lat="44.52825" lon="6.71897">
        <ele>1785.2</ele>
        <time>2022-06-12T12:30:53Z</time>
      </trkpt>
      <trkpt lat="44.52826" lon="6.71899">
        <ele>1785.4</ele>
        <time>2022-06-12T12:30:54Z</time>
      </trkpt>
      <trkpt lat="44.52826" lon="6.71902">
        <ele>1785.6</ele>
        <time>2022-06-12T12:30:55Z</time>
      </trkpt>
      <trkpt lat="44.52827" lon="6.71905">
        <ele>1785.8</ele>
        <time>2022-06-12T12:30:56Z</time>
      </trkpt>
      <trkpt lat="44.52828" lon="6.71907">
        <ele>1786.1</ele>
        <time>2022-06-12T12:30:57Z</time>
      </trkpt>
      <trkpt lat="44.52829" lon="6.71909">
        <ele>1786.4</ele>
        <time>2022-06-12T12:30:58Z</time>
      </trkpt>
      <trkpt lat="44.5283" lon="6.71912">
        <ele>1786.8</ele>
        <time>2022-06-12T12:30:59Z</time>
      </trkpt>
      <trkpt lat="44.52831" lon="6.71914">
        <ele>1787</ele>
        <time>2022-06-12T12:31:00Z</time>
      </trkpt>
      <trkpt lat="44.52831" lon="6.71917">
        <ele>1787.1</ele>
        <time>2022-06-12T12:31:01Z</time>
      </trkpt>
      <trkpt lat="44.52831" lon="6.7192">
        <ele>1787.1</ele>
        <time>2022-06-12T12:31:02Z</time>
      </trkpt>
      <trkpt lat="44.52832" lon="6.71922">
        <ele>1787.3</ele>
        <time>2022-06-12T12:31:03Z</time>
      </trkpt>
      <trkpt lat="44.52832" lon="6.71925">
        <ele>1787.5</ele>
        <time>2022-06-12T12:31:04Z</time>
      </trkpt>
      <trkpt lat="44.52833" lon="6.71927">
        <ele>1787.7</ele>
        <time>2022-06-12T12:31:05Z</time>
      </trkpt>
      <trkpt lat="44.52833" lon="6.7193">
        <ele>1787.9</ele>
        <time>2022-06-12T12:31:06Z</time>
      </trkpt>
      <trkpt lat="44.52834" lon="6.71933">
        <ele>1788.1</ele>
        <time>2022-06-12T12:31:07Z</time>
      </trkpt>
      <trkpt lat="44.52834" lon="6.71935">
        <ele>1788.4</ele>
        <time>2022-06-12T12:31:08Z</time>
      </trkpt>
      <trkpt lat="44.52835" lon="6.71938">
        <ele>1788.7</ele>
        <time>2022-06-12T12:31:09Z</time>
      </trkpt>
      <trkpt lat="44.52835" lon="6.71941">
        <ele>1788.8</ele>
        <time>2022-06-12T12:31:10Z</time>
      </trkpt>
      <trkpt lat="44.52835" lon="6.71943">
        <ele>1789</ele>
        <time>2022-06-12T12:31:11Z</time>
      </trkpt>
      <trkpt lat="44.52836" lon="6.71946">
        <ele>1789.2</ele>
        <time>2022-06-12T12:31:12Z</time>
      </trkpt>
      <trkpt lat="44.52837" lon="6.71948">
        <ele>1789.6</ele>
        <time>2022-06-12T12:31:13Z</time>
      </trkpt>
      <trkpt lat="44.52837" lon="6.71951">
        <ele>1789.9</ele>
        <time>2022-06-12T12:31:14Z</time>
      </trkpt>
      <trkpt lat="44.52838" lon="6.71953">
        <ele>1790.1</ele>
        <time>2022-06-12T12:31:15Z</time>
      </trkpt>
      <trkpt lat="44.52838" lon="6.71956">
        <ele>1790.3</ele>
        <time>2022-06-12T12:31:16Z</time>
      </trkpt>
      <trkpt lat="44.52838" lon="6.71959">
        <ele>1790.4</ele>
        <time>2022-06-12T12:31:17Z</time>
      </trkpt>
      <trkpt lat="44.52839" lon="6.71962">
        <ele>1790.5</ele>
        <time>2022-06-12T12:31:18Z</time>
      </trkpt>
      <trkpt lat="44.52839" lon="6.71964">
        <ele>1790.8</ele>
        <time>2022-06-12T12:31:19Z</time>
      </trkpt>
      <trkpt lat="44.5284" lon="6.71967">
        <ele>1790.9</ele>
        <time>2022-06-12T12:31:20Z</time>
      </trkpt>
      <trkpt lat="44.5284" lon="6.7197">
        <ele>1791</ele>
        <time>2022-06-12T12:31:21Z</time>
      </trkpt>
      <trkpt lat="44.5284" lon="6.71973">
        <ele>1791.2</ele>
        <time>2022-06-12T12:31:22Z</time>
      </trkpt>
      <trkpt lat="44.52841" lon="6.71976">
        <ele>1791.5</ele>
        <time>2022-06-12T12:31:23Z</time>
      </trkpt>
      <trkpt lat="44.52841" lon="6.71979">
        <ele>1791.8</ele>
        <time>2022-06-12T12:31:24Z</time>
      </trkpt>
      <trkpt lat="44.52842" lon="6.71981">
        <ele>1792.1</ele>
        <time>2022-06-12T12:31:25Z</time>
      </trkpt>
      <trkpt lat="44.52842" lon="6.71984">
        <ele>1792.4</ele>
        <time>2022-06-12T12:31:26Z</time>
      </trkpt>
      <trkpt lat="44.52842" lon="6.71987">
        <ele>1792.5</ele>
        <time>2022-06-12T12:31:27Z</time>
      </trkpt>
      <trkpt lat="44.52843" lon="6.71989">
        <ele>1792.7</ele>
        <time>2022-06-12T12:31:28Z</time>
      </trkpt>
      <trkpt lat="44.52843" lon="6.71992">
        <ele>1792.8</ele>
        <time>2022-06-12T12:31:29Z</time>
      </trkpt>
      <trkpt lat="44.52843" lon="6.71995">
        <ele>1792.9</ele>
        <time>2022-06-12T12:31:30Z</time>
      </trkpt>
      <trkpt lat="44.52843" lon="6.71997">
        <ele>1793.2</ele>
        <time>2022-06-12T12:31:31Z</time>
      </trkpt>
      <trkpt lat="44.52844" lon="6.72">
        <ele>1793.5</ele>
        <time>2022-06-12T12:31:32Z</time>
      </trkpt>
      <trkpt lat="44.52844" lon="6.72003">
        <ele>1793.7</ele>
        <time>2022-06-12T12:31:33Z</time>
      </trkpt>
      <trkpt lat="44.52845" lon="6.72006">
        <ele>1794</ele>
        <time>2022-06-12T12:31:34Z</time>
      </trkpt>
      <trkpt lat="44.52845" lon="6.72009">
        <ele>1794.1</ele>
        <time>2022-06-12T12:31:35Z</time>
      </trkpt>
      <trkpt lat="44.52846" lon="6.72012">
        <ele>1794.3</ele>
        <time>2022-06-12T12:31:36Z</time>
      </trkpt>
      <trkpt lat="44.52846" lon="6.72014">
        <ele>1794.4</ele>
        <time>2022-06-12T12:31:37Z</time>
      </trkpt>
      <trkpt lat="44.52846" lon="6.72017">
        <ele>1794.6</ele>
        <time>2022-06-12T12:31:38Z</time>
      </trkpt>
      <trkpt lat="44.52847" lon="6.7202">
        <ele>1794.8</ele>
        <time>2022-06-12T12:31:39Z</time>
      </trkpt>
      <trkpt lat="44.52847" lon="6.72023">
        <ele>1795</ele>
        <time>2022-06-12T12:31:40Z</time>
      </trkpt>
      <trkpt lat="44.52848" lon="6.72025">
        <ele>1795.2</ele>
        <time>2022-06-12T12:31:41Z</time>
      </trkpt>
      <trkpt lat="44.52849" lon="6.72028">
        <ele>1795.6</ele>
        <time>2022-06-12T12:31:42Z</time>
      </trkpt>
      <trkpt lat="44.52849" lon="6.72031">
        <ele>1795.8</ele>
        <time>2022-06-12T12:31:43Z</time>
      </trkpt>
      <trkpt lat="44.5285" lon="6.72034">
        <ele>1796.1</ele>
        <time>2022-06-12T12:31:44Z</time>
      </trkpt>
      <trkpt lat="44.5285" lon="6.72037">
        <ele>1796.4</ele>
        <time>2022-06-12T12:31:45Z</time>
      </trkpt>
      <trkpt lat="44.5285" lon="6.7204">
        <ele>1796.6</ele>
        <time>2022-06-12T12:31:46Z</time>
      </trkpt>
      <trkpt lat="44.52851" lon="6.72043">
        <ele>1797</ele>
        <time>2022-06-12T12:31:47Z</time>
      </trkpt>
      <trkpt lat="44.52852" lon="6.72045">
        <ele>1797.3</ele>
        <time>2022-06-12T12:31:48Z</time>
      </trkpt>
      <trkpt lat="44.52852" lon="6.72048">
        <ele>1797.5</ele>
        <time>2022-06-12T12:31:49Z</time>
      </trkpt>
      <trkpt lat="44.52852" lon="6.72051">
        <ele>1797.8</ele>
        <time>2022-06-12T12:31:50Z</time>
      </trkpt>
      <trkpt lat="44.52853" lon="6.72054">
        <ele>1798</ele>
        <time>2022-06-12T12:31:51Z</time>
      </trkpt>
      <trkpt lat="44.52853" lon="6.72057">
        <ele>1798.3</ele>
        <time>2022-06-12T12:31:52Z</time>
      </trkpt>
      <trkpt lat="44.52853" lon="6.7206">
        <ele>1798.5</ele>
        <time>2022-06-12T12:31:53Z</time>
      </trkpt>
      <trkpt lat="44.52854" lon="6.72063">
        <ele>1798.7</ele>
        <time>2022-06-12T12:31:54Z</time>
      </trkpt>
      <trkpt lat="44.52854" lon="6.72066">
        <ele>1799</ele>
        <time>2022-06-12T12:31:55Z</time>
      </trkpt>
      <trkpt lat="44.52855" lon="6.72069">
        <ele>1799.4</ele>
        <time>2022-06-12T12:31:56Z</time>
      </trkpt>
      <trkpt lat="44.52855" lon="6.72072">
        <ele>1799.5</ele>
        <time>2022-06-12T12:31:57Z</time>
      </trkpt>
      <trkpt lat="44.52855" lon="6.72075">
        <ele>1799.8</ele>
        <time>2022-06-12T12:31:58Z</time>
      </trkpt>
      <trkpt lat="44.52856" lon="6.72078">
        <ele>1800.2</ele>
        <time>2022-06-12T12:31:59Z</time>
      </trkpt>
      <trkpt lat="44.52856" lon="6.72081">
        <ele>1800.3</ele>
        <time>2022-06-12T12:32:00Z</time>
      </trkpt>
      <trkpt lat="44.52856" lon="6.72084">
        <ele>1800.5</ele>
        <time>2022-06-12T12:32:01Z</time>
      </trkpt>
      <trkpt lat="44.52856" lon="6.72087">
        <ele>1800.6</ele>
        <time>2022-06-12T12:32:02Z</time>
      </trkpt>
      <trkpt lat="44.52856" lon="6.7209">
        <ele>1800.8</ele>
        <time>2022-06-12T12:32:03Z</time>
      </trkpt>
      <trkpt lat="44.52857" lon="6.72092">
        <ele>1800.9</ele>
        <time>2022-06-12T12:32:04Z</time>
      </trkpt>
      <trkpt lat="44.52857" lon="6.72095">
        <ele>1801.1</ele>
        <time>2022-06-12T12:32:05Z</time>
      </trkpt>
      <trkpt lat="44.52857" lon="6.72098">
        <ele>1801.3</ele>
        <time>2022-06-12T12:32:06Z</time>
      </trkpt>
      <trkpt lat="44.52858" lon="6.72101">
        <ele>1801.5</ele>
        <time>2022-06-12T12:32:07Z</time>
      </trkpt>
      <trkpt lat="44.52858" lon="6.72104">
        <ele>1801.7</ele>
        <time>2022-06-12T12:32:08Z</time>
      </trkpt>
      <trkpt lat="44.52859" lon="6.72107">
        <ele>1801.9</ele>
        <time>2022-06-12T12:32:09Z</time>
      </trkpt>
      <trkpt lat="44.52859" lon="6.72111">
        <ele>1802.2</ele>
        <time>2022-06-12T12:32:10Z</time>
      </trkpt>
      <trkpt lat="44.5286" lon="6.72113">
        <ele>1802.6</ele>
        <time>2022-06-12T12:32:11Z</time>
      </trkpt>
      <trkpt lat="44.52861" lon="6.72116">
        <ele>1802.9</ele>
        <time>2022-06-12T12:32:12Z</time>
      </trkpt>
      <trkpt lat="44.52861" lon="6.72119">
        <ele>1803.1</ele>
        <time>2022-06-12T12:32:13Z</time>
      </trkpt>
      <trkpt lat="44.52861" lon="6.72122">
        <ele>1803.5</ele>
        <time>2022-06-12T12:32:14Z</time>
      </trkpt>
      <trkpt lat="44.52862" lon="6.72125">
        <ele>1803.7</ele>
        <time>2022-06-12T12:32:15Z</time>
      </trkpt>
      <trkpt lat="44.52862" lon="6.72128">
        <ele>1804</ele>
        <time>2022-06-12T12:32:16Z</time>
      </trkpt>
      <trkpt lat="44.52862" lon="6.72131">
        <ele>1804.3</ele>
        <time>2022-06-12T12:32:17Z</time>
      </trkpt>
      <trkpt lat="44.52863" lon="6.72134">
        <ele>1804.5</ele>
        <time>2022-06-12T12:32:18Z</time>
      </trkpt>
      <trkpt lat="44.52863" lon="6.72137">
        <ele>1804.8</ele>
        <time>2022-06-12T12:32:19Z</time>
      </trkpt>
      <trkpt lat="44.52863" lon="6.7214">
        <ele>1805</ele>
        <time>2022-06-12T12:32:20Z</time>
      </trkpt>
      <trkpt lat="44.52864" lon="6.72143">
        <ele>1805.1</ele>
        <time>2022-06-12T12:32:21Z</time>
      </trkpt>
      <trkpt lat="44.52864" lon="6.72146">
        <ele>1805.3</ele>
        <time>2022-06-12T12:32:22Z</time>
      </trkpt>
      <trkpt lat="44.52864" lon="6.72149">
        <ele>1805.4</ele>
        <time>2022-06-12T12:32:23Z</time>
      </trkpt>
      <trkpt lat="44.52865" lon="6.72152">
        <ele>1805.6</ele>
        <time>2022-06-12T12:32:24Z</time>
      </trkpt>
      <trkpt lat="44.52865" lon="6.72155">
        <ele>1805.7</ele>
        <time>2022-06-12T12:32:25Z</time>
      </trkpt>
      <trkpt lat="44.52865" lon="6.72157">
        <ele>1805.8</ele>
        <time>2022-06-12T12:32:26Z</time>
      </trkpt>
      <trkpt lat="44.52866" lon="6.7216">
        <ele>1805.8</ele>
        <time>2022-06-12T12:32:27Z</time>
      </trkpt>
      <trkpt lat="44.52866" lon="6.72163">
        <ele>1805.8</ele>
        <time>2022-06-12T12:32:28Z</time>
      </trkpt>
      <trkpt lat="44.52866" lon="6.72166">
        <ele>1805.7</ele>
        <time>2022-06-12T12:32:29Z</time>
      </trkpt>
      <trkpt lat="44.52865" lon="6.72169">
        <ele>1805.6</ele>
        <time>2022-06-12T12:32:30Z</time>
      </trkpt>
      <trkpt lat="44.52866" lon="6.72172">
        <ele>1805.7</ele>
        <time>2022-06-12T12:32:31Z</time>
      </trkpt>
      <trkpt lat="44.52865" lon="6.72175">
        <ele>1805.6</ele>
        <time>2022-06-12T12:32:32Z</time>
      </trkpt>
      <trkpt lat="44.52865" lon="6.72178">
        <ele>1805.5</ele>
        <time>2022-06-12T12:32:33Z</time>
      </trkpt>
      <trkpt lat="44.52865" lon="6.72181">
        <ele>1805.5</ele>
        <time>2022-06-12T12:32:34Z</time>
      </trkpt>
      <trkpt lat="44.52865" lon="6.72184">
        <ele>1805.4</ele>
        <time>2022-06-12T12:32:35Z</time>
      </trkpt>
      <trkpt lat="44.52865" lon="6.72187">
        <ele>1805.3</ele>
        <time>2022-06-12T12:32:36Z</time>
      </trkpt>
      <trkpt lat="44.52865" lon="6.72191">
        <ele>1805.2</ele>
        <time>2022-06-12T12:32:37Z</time>
      </trkpt>
      <trkpt lat="44.52864" lon="6.72194">
        <ele>1805</ele>
        <time>2022-06-12T12:32:38Z</time>
      </trkpt>
      <trkpt lat="44.52864" lon="6.72198">
        <ele>1804.6</ele>
        <time>2022-06-12T12:32:39Z</time>
      </trkpt>
      <trkpt lat="44.52864" lon="6.722">
        <ele>1804.4</ele>
        <time>2022-06-12T12:32:40Z</time>
      </trkpt>
      <trkpt lat="44.52864" lon="6.72203">
        <ele>1804.2</ele>
        <time>2022-06-12T12:32:41Z</time>
      </trkpt>
      <trkpt lat="44.52864" lon="6.72206">
        <ele>1804.1</ele>
        <time>2022-06-12T12:32:42Z</time>
      </trkpt>
      <trkpt lat="44.52864" lon="6.72208">
        <ele>1803.9</ele>
        <time>2022-06-12T12:32:43Z</time>
      </trkpt>
      <trkpt lat="44.52864" lon="6.72211">
        <ele>1803.8</ele>
        <time>2022-06-12T12:32:44Z</time>
      </trkpt>
      <trkpt lat="44.52865" lon="6.72214">
        <ele>1803.7</ele>
        <time>2022-06-12T12:32:45Z</time>
      </trkpt>
      <trkpt lat="44.52865" lon="6.72217">
        <ele>1803.7</ele>
        <time>2022-06-12T12:32:46Z</time>
      </trkpt>
      <trkpt lat="44.52867" lon="6.7222">
        <ele>1803.9</ele>
        <time>2022-06-12T12:32:47Z</time>
      </trkpt>
      <trkpt lat="44.52868" lon="6.72222">
        <ele>1804.3</ele>
        <time>2022-06-12T12:32:48Z</time>
      </trkpt>
      <trkpt lat="44.5287" lon="6.72224">
        <ele>1804.5</ele>
        <time>2022-06-12T12:32:49Z</time>
      </trkpt>
      <trkpt lat="44.52872" lon="6.72225">
        <ele>1804.6</ele>
        <time>2022-06-12T12:32:50Z</time>
      </trkpt>
      <trkpt lat="44.52874" lon="6.72226">
        <ele>1805</ele>
        <time>2022-06-12T12:32:51Z</time>
      </trkpt>
      <trkpt lat="44.52876" lon="6.72226">
        <ele>1805.8</ele>
        <time>2022-06-12T12:32:52Z</time>
      </trkpt>
      <trkpt lat="44.52879" lon="6.72226">
        <ele>1806.6</ele>
        <time>2022-06-12T12:32:53Z</time>
      </trkpt>
      <trkpt lat="44.52881" lon="6.72225">
        <ele>1807.6</ele>
        <time>2022-06-12T12:32:54Z</time>
      </trkpt>
      <trkpt lat="44.52883" lon="6.72224">
        <ele>1808.5</ele>
        <time>2022-06-12T12:32:55Z</time>
      </trkpt>
      <trkpt lat="44.52885" lon="6.72222">
        <ele>1809.6</ele>
        <time>2022-06-12T12:32:56Z</time>
      </trkpt>
      <trkpt lat="44.52886" lon="6.72221">
        <ele>1810.2</ele>
        <time>2022-06-12T12:32:57Z</time>
      </trkpt>
      <trkpt lat="44.52888" lon="6.72218">
        <ele>1810.9</ele>
        <time>2022-06-12T12:32:58Z</time>
      </trkpt>
      <trkpt lat="44.52889" lon="6.72215">
        <ele>1811.6</ele>
        <time>2022-06-12T12:32:59Z</time>
      </trkpt>
      <trkpt lat="44.5289" lon="6.72213">
        <ele>1812.2</ele>
        <time>2022-06-12T12:33:00Z</time>
      </trkpt>
      <trkpt lat="44.5289" lon="6.72209">
        <ele>1812.8</ele>
        <time>2022-06-12T12:33:01Z</time>
      </trkpt>
      <trkpt lat="44.52891" lon="6.72206">
        <ele>1813.1</ele>
        <time>2022-06-12T12:33:02Z</time>
      </trkpt>
      <trkpt lat="44.52891" lon="6.72203">
        <ele>1813.6</ele>
        <time>2022-06-12T12:33:03Z</time>
      </trkpt>
      <trkpt lat="44.52892" lon="6.722">
        <ele>1814.2</ele>
        <time>2022-06-12T12:33:04Z</time>
      </trkpt>
      <trkpt lat="44.52892" lon="6.72197">
        <ele>1814.5</ele>
        <time>2022-06-12T12:33:05Z</time>
      </trkpt>
      <trkpt lat="44.52891" lon="6.72194">
        <ele>1814.6</ele>
        <time>2022-06-12T12:33:06Z</time>
      </trkpt>
      <trkpt lat="44.52891" lon="6.7219">
        <ele>1814.7</ele>
        <time>2022-06-12T12:33:07Z</time>
      </trkpt>
      <trkpt lat="44.52891" lon="6.72187">
        <ele>1814.9</ele>
        <time>2022-06-12T12:33:08Z</time>
      </trkpt>
      <trkpt lat="44.52891" lon="6.72184">
        <ele>1814.9</ele>
        <time>2022-06-12T12:33:09Z</time>
      </trkpt>
      <trkpt lat="44.52891" lon="6.72181">
        <ele>1815.1</ele>
        <time>2022-06-12T12:33:10Z</time>
      </trkpt>
      <trkpt lat="44.52891" lon="6.72177">
        <ele>1815.3</ele>
        <time>2022-06-12T12:33:11Z</time>
      </trkpt>
      <trkpt lat="44.5289" lon="6.72174">
        <ele>1815.2</ele>
        <time>2022-06-12T12:33:12Z</time>
      </trkpt>
      <trkpt lat="44.5289" lon="6.72171">
        <ele>1815.2</ele>
        <time>2022-06-12T12:33:13Z</time>
      </trkpt>
      <trkpt lat="44.52889" lon="6.72168">
        <ele>1815.2</ele>
        <time>2022-06-12T12:33:14Z</time>
      </trkpt>
      <trkpt lat="44.52889" lon="6.72165">
        <ele>1815.3</ele>
        <time>2022-06-12T12:33:15Z</time>
      </trkpt>
      <trkpt lat="44.52889" lon="6.72161">
        <ele>1815.5</ele>
        <time>2022-06-12T12:33:16Z</time>
      </trkpt>
      <trkpt lat="44.52889" lon="6.72158">
        <ele>1815.7</ele>
        <time>2022-06-12T12:33:17Z</time>
      </trkpt>
      <trkpt lat="44.52889" lon="6.72155">
        <ele>1815.9</ele>
        <time>2022-06-12T12:33:18Z</time>
      </trkpt>
      <trkpt lat="44.52889" lon="6.72152">
        <ele>1816.2</ele>
        <time>2022-06-12T12:33:19Z</time>
      </trkpt>
      <trkpt lat="44.5289" lon="6.72148">
        <ele>1816.8</ele>
        <time>2022-06-12T12:33:20Z</time>
      </trkpt>
      <trkpt lat="44.5289" lon="6.72145">
        <ele>1817.1</ele>
        <time>2022-06-12T12:33:21Z</time>
      </trkpt>
      <trkpt lat="44.5289" lon="6.72142">
        <ele>1817.6</ele>
        <time>2022-06-12T12:33:22Z</time>
      </trkpt>
      <trkpt lat="44.52891" lon="6.72139">
        <ele>1818.1</ele>
        <time>2022-06-12T12:33:23Z</time>
      </trkpt>
      <trkpt lat="44.52891" lon="6.72136">
        <ele>1818.4</ele>
        <time>2022-06-12T12:33:24Z</time>
      </trkpt>
      <trkpt lat="44.52891" lon="6.72132">
        <ele>1818.7</ele>
        <time>2022-06-12T12:33:25Z</time>
      </trkpt>
      <trkpt lat="44.52892" lon="6.72129">
        <ele>1819</ele>
        <time>2022-06-12T12:33:26Z</time>
      </trkpt>
      <trkpt lat="44.52892" lon="6.72126">
        <ele>1819.5</ele>
        <time>2022-06-12T12:33:27Z</time>
      </trkpt>
      <trkpt lat="44.52893" lon="6.72123">
        <ele>1820</ele>
        <time>2022-06-12T12:33:28Z</time>
      </trkpt>
      <trkpt lat="44.52893" lon="6.7212">
        <ele>1820.4</ele>
        <time>2022-06-12T12:33:29Z</time>
      </trkpt>
      <trkpt lat="44.52894" lon="6.72117">
        <ele>1820.8</ele>
        <time>2022-06-12T12:33:30Z</time>
      </trkpt>
      <trkpt lat="44.52894" lon="6.72114">
        <ele>1821.2</ele>
        <time>2022-06-12T12:33:31Z</time>
      </trkpt>
      <trkpt lat="44.52894" lon="6.72111">
        <ele>1821.5</ele>
        <time>2022-06-12T12:33:32Z</time>
      </trkpt>
      <trkpt lat="44.52895" lon="6.72108">
        <ele>1821.8</ele>
        <time>2022-06-12T12:33:33Z</time>
      </trkpt>
      <trkpt lat="44.52896" lon="6.72105">
        <ele>1822.2</ele>
        <time>2022-06-12T12:33:34Z</time>
      </trkpt>
      <trkpt lat="44.52896" lon="6.72102">
        <ele>1822.5</ele>
        <time>2022-06-12T12:33:35Z</time>
      </trkpt>
      <trkpt lat="44.52897" lon="6.72099">
        <ele>1822.9</ele>
        <time>2022-06-12T12:33:36Z</time>
      </trkpt>
      <trkpt lat="44.52897" lon="6.72096">
        <ele>1823</ele>
        <time>2022-06-12T12:33:37Z</time>
      </trkpt>
      <trkpt lat="44.52898" lon="6.72093">
        <ele>1823.2</ele>
        <time>2022-06-12T12:33:38Z</time>
      </trkpt>
      <trkpt lat="44.52898" lon="6.7209">
        <ele>1823.4</ele>
        <time>2022-06-12T12:33:39Z</time>
      </trkpt>
      <trkpt lat="44.52898" lon="6.72087">
        <ele>1823.4</ele>
        <time>2022-06-12T12:33:40Z</time>
      </trkpt>
      <trkpt lat="44.52898" lon="6.72084">
        <ele>1823.4</ele>
        <time>2022-06-12T12:33:41Z</time>
      </trkpt>
      <trkpt lat="44.52899" lon="6.72081">
        <ele>1823.5</ele>
        <time>2022-06-12T12:33:42Z</time>
      </trkpt>
      <trkpt lat="44.52899" lon="6.72078">
        <ele>1823.7</ele>
        <time>2022-06-12T12:33:43Z</time>
      </trkpt>
      <trkpt lat="44.529" lon="6.72075">
        <ele>1824.1</ele>
        <time>2022-06-12T12:33:44Z</time>
      </trkpt>
      <trkpt lat="44.529" lon="6.72072">
        <ele>1824.3</ele>
        <time>2022-06-12T12:33:45Z</time>
      </trkpt>
      <trkpt lat="44.52901" lon="6.72069">
        <ele>1824.4</ele>
        <time>2022-06-12T12:33:46Z</time>
      </trkpt>
      <trkpt lat="44.52901" lon="6.72066">
        <ele>1824.6</ele>
        <time>2022-06-12T12:33:47Z</time>
      </trkpt>
      <trkpt lat="44.52901" lon="6.72063">
        <ele>1824.6</ele>
        <time>2022-06-12T12:33:48Z</time>
      </trkpt>
      <trkpt lat="44.52902" lon="6.7206">
        <ele>1824.8</ele>
        <time>2022-06-12T12:33:49Z</time>
      </trkpt>
      <trkpt lat="44.52902" lon="6.72057">
        <ele>1825</ele>
        <time>2022-06-12T12:33:50Z</time>
      </trkpt>
      <trkpt lat="44.52903" lon="6.72054">
        <ele>1825.4</ele>
        <time>2022-06-12T12:33:51Z</time>
      </trkpt>
      <trkpt lat="44.52903" lon="6.72051">
        <ele>1825.8</ele>
        <time>2022-06-12T12:33:52Z</time>
      </trkpt>
      <trkpt lat="44.52903" lon="6.72049">
        <ele>1826.1</ele>
        <time>2022-06-12T12:33:53Z</time>
      </trkpt>
      <trkpt lat="44.52904" lon="6.72046">
        <ele>1826.3</ele>
        <time>2022-06-12T12:33:54Z</time>
      </trkpt>
      <trkpt lat="44.52904" lon="6.72043">
        <ele>1826.6</ele>
        <time>2022-06-12T12:33:55Z</time>
      </trkpt>
      <trkpt lat="44.52904" lon="6.7204">
        <ele>1826.9</ele>
        <time>2022-06-12T12:33:56Z</time>
      </trkpt>
      <trkpt lat="44.52905" lon="6.72037">
        <ele>1827.4</ele>
        <time>2022-06-12T12:33:57Z</time>
      </trkpt>
      <trkpt lat="44.52905" lon="6.72034">
        <ele>1827.8</ele>
        <time>2022-06-12T12:33:58Z</time>
      </trkpt>
      <trkpt lat="44.52906" lon="6.72031">
        <ele>1828</ele>
        <time>2022-06-12T12:33:59Z</time>
      </trkpt>
      <trkpt lat="44.52906" lon="6.72028">
        <ele>1828.3</ele>
        <time>2022-06-12T12:34:00Z</time>
      </trkpt>
      <trkpt lat="44.52906" lon="6.72025">
        <ele>1828.4</ele>
        <time>2022-06-12T12:34:01Z</time>
      </trkpt>
      <trkpt lat="44.52906" lon="6.72022">
        <ele>1828.5</ele>
        <time>2022-06-12T12:34:02Z</time>
      </trkpt>
      <trkpt lat="44.52907" lon="6.72019">
        <ele>1828.7</ele>
        <time>2022-06-12T12:34:03Z</time>
      </trkpt>
      <trkpt lat="44.52907" lon="6.72016">
        <ele>1828.9</ele>
        <time>2022-06-12T12:34:04Z</time>
      </trkpt>
      <trkpt lat="44.52908" lon="6.72013">
        <ele>1829.2</ele>
        <time>2022-06-12T12:34:05Z</time>
      </trkpt>
      <trkpt lat="44.52908" lon="6.7201">
        <ele>1829.4</ele>
        <time>2022-06-12T12:34:06Z</time>
      </trkpt>
      <trkpt lat="44.52908" lon="6.72007">
        <ele>1829.5</ele>
        <time>2022-06-12T12:34:07Z</time>
      </trkpt>
      <trkpt lat="44.52908" lon="6.72004">
        <ele>1829.5</ele>
        <time>2022-06-12T12:34:08Z</time>
      </trkpt>
      <trkpt lat="44.52909" lon="6.72001">
        <ele>1829.7</ele>
        <time>2022-06-12T12:34:09Z</time>
      </trkpt>
      <trkpt lat="44.52909" lon="6.71998">
        <ele>1829.9</ele>
        <time>2022-06-12T12:34:10Z</time>
      </trkpt>
      <trkpt lat="44.52909" lon="6.71995">
        <ele>1830.1</ele>
        <time>2022-06-12T12:34:11Z</time>
      </trkpt>
      <trkpt lat="44.5291" lon="6.71992">
        <ele>1830.4</ele>
        <time>2022-06-12T12:34:12Z</time>
      </trkpt>
      <trkpt lat="44.5291" lon="6.71989">
        <ele>1830.7</ele>
        <time>2022-06-12T12:34:13Z</time>
      </trkpt>
      <trkpt lat="44.52911" lon="6.71986">
        <ele>1831</ele>
        <time>2022-06-12T12:34:14Z</time>
      </trkpt>
      <trkpt lat="44.52911" lon="6.71983">
        <ele>1831.2</ele>
        <time>2022-06-12T12:34:15Z</time>
      </trkpt>
      <trkpt lat="44.52911" lon="6.7198">
        <ele>1831.3</ele>
        <time>2022-06-12T12:34:16Z</time>
      </trkpt>
      <trkpt lat="44.52912" lon="6.71977">
        <ele>1831.7</ele>
        <time>2022-06-12T12:34:17Z</time>
      </trkpt>
      <trkpt lat="44.52912" lon="6.71974">
        <ele>1831.7</ele>
        <time>2022-06-12T12:34:18Z</time>
      </trkpt>
      <trkpt lat="44.52912" lon="6.71971">
        <ele>1831.9</ele>
        <time>2022-06-12T12:34:19Z</time>
      </trkpt>
      <trkpt lat="44.52912" lon="6.71968">
        <ele>1831.9</ele>
        <time>2022-06-12T12:34:20Z</time>
      </trkpt>
      <trkpt lat="44.52912" lon="6.71965">
        <ele>1832</ele>
        <time>2022-06-12T12:34:21Z</time>
      </trkpt>
      <trkpt lat="44.52913" lon="6.71962">
        <ele>1832.4</ele>
        <time>2022-06-12T12:34:22Z</time>
      </trkpt>
      <trkpt lat="44.52913" lon="6.7196">
        <ele>1832.6</ele>
        <time>2022-06-12T12:34:23Z</time>
      </trkpt>
      <trkpt lat="44.52913" lon="6.71957">
        <ele>1832.9</ele>
        <time>2022-06-12T12:34:24Z</time>
      </trkpt>
      <trkpt lat="44.52914" lon="6.71954">
        <ele>1833.2</ele>
        <time>2022-06-12T12:34:25Z</time>
      </trkpt>
      <trkpt lat="44.52914" lon="6.71951">
        <ele>1833.5</ele>
        <time>2022-06-12T12:34:26Z</time>
      </trkpt>
      <trkpt lat="44.52915" lon="6.71948">
        <ele>1833.7</ele>
        <time>2022-06-12T12:34:27Z</time>
      </trkpt>
      <trkpt lat="44.52915" lon="6.71945">
        <ele>1834</ele>
        <time>2022-06-12T12:34:28Z</time>
      </trkpt>
      <trkpt lat="44.52916" lon="6.71942">
        <ele>1834.3</ele>
        <time>2022-06-12T12:34:29Z</time>
      </trkpt>
      <trkpt lat="44.52917" lon="6.7194">
        <ele>1834.7</ele>
        <time>2022-06-12T12:34:30Z</time>
      </trkpt>
      <trkpt lat="44.52917" lon="6.71937">
        <ele>1834.9</ele>
        <time>2022-06-12T12:34:31Z</time>
      </trkpt>
      <trkpt lat="44.52917" lon="6.71934">
        <ele>1834.9</ele>
        <time>2022-06-12T12:34:32Z</time>
      </trkpt>
      <trkpt lat="44.52918" lon="6.71931">
        <ele>1835.1</ele>
        <time>2022-06-12T12:34:33Z</time>
      </trkpt>
      <trkpt lat="44.52919" lon="6.71928">
        <ele>1835.6</ele>
        <time>2022-06-12T12:34:34Z</time>
      </trkpt>
      <trkpt lat="44.52919" lon="6.71925">
        <ele>1835.8</ele>
        <time>2022-06-12T12:34:35Z</time>
      </trkpt>
      <trkpt lat="44.52919" lon="6.71922">
        <ele>1835.9</ele>
        <time>2022-06-12T12:34:36Z</time>
      </trkpt>
      <trkpt lat="44.5292" lon="6.71919">
        <ele>1836</ele>
        <time>2022-06-12T12:34:37Z</time>
      </trkpt>
      <trkpt lat="44.5292" lon="6.71917">
        <ele>1836.4</ele>
        <time>2022-06-12T12:34:38Z</time>
      </trkpt>
      <trkpt lat="44.52921" lon="6.71914">
        <ele>1836.9</ele>
        <time>2022-06-12T12:34:39Z</time>
      </trkpt>
      <trkpt lat="44.52922" lon="6.7191">
        <ele>1837.3</ele>
        <time>2022-06-12T12:34:40Z</time>
      </trkpt>
      <trkpt lat="44.52922" lon="6.71907">
        <ele>1837.8</ele>
        <time>2022-06-12T12:34:41Z</time>
      </trkpt>
      <trkpt lat="44.52923" lon="6.71904">
        <ele>1838.2</ele>
        <time>2022-06-12T12:34:42Z</time>
      </trkpt>
      <trkpt lat="44.52923" lon="6.71901">
        <ele>1838.6</ele>
        <time>2022-06-12T12:34:43Z</time>
      </trkpt>
      <trkpt lat="44.52923" lon="6.71898">
        <ele>1838.8</ele>
        <time>2022-06-12T12:34:44Z</time>
      </trkpt>
      <trkpt lat="44.52924" lon="6.71895">
        <ele>1839</ele>
        <time>2022-06-12T12:34:45Z</time>
      </trkpt>
      <trkpt lat="44.52924" lon="6.71892">
        <ele>1839.3</ele>
        <time>2022-06-12T12:34:46Z</time>
      </trkpt>
      <trkpt lat="44.52924" lon="6.71889">
        <ele>1839.5</ele>
        <time>2022-06-12T12:34:47Z</time>
      </trkpt>
      <trkpt lat="44.52925" lon="6.71886">
        <ele>1840</ele>
        <time>2022-06-12T12:34:48Z</time>
      </trkpt>
      <trkpt lat="44.52925" lon="6.71883">
        <ele>1840.5</ele>
        <time>2022-06-12T12:34:49Z</time>
      </trkpt>
      <trkpt lat="44.52925" lon="6.7188">
        <ele>1840.7</ele>
        <time>2022-06-12T12:34:50Z</time>
      </trkpt>
      <trkpt lat="44.52926" lon="6.71877">
        <ele>1841</ele>
        <time>2022-06-12T12:34:51Z</time>
      </trkpt>
      <trkpt lat="44.52926" lon="6.71875">
        <ele>1841.3</ele>
        <time>2022-06-12T12:34:52Z</time>
      </trkpt>
      <trkpt lat="44.52926" lon="6.71872">
        <ele>1841.4</ele>
        <time>2022-06-12T12:34:53Z</time>
      </trkpt>
      <trkpt lat="44.52926" lon="6.71869">
        <ele>1841.7</ele>
        <time>2022-06-12T12:34:54Z</time>
      </trkpt>
      <trkpt lat="44.52926" lon="6.71866">
        <ele>1842</ele>
        <time>2022-06-12T12:34:55Z</time>
      </trkpt>
      <trkpt lat="44.52926" lon="6.71863">
        <ele>1842.2</ele>
        <time>2022-06-12T12:34:56Z</time>
      </trkpt>
      <trkpt lat="44.52927" lon="6.7186">
        <ele>1842.4</ele>
        <time>2022-06-12T12:34:57Z</time>
      </trkpt>
      <trkpt lat="44.52927" lon="6.71857">
        <ele>1842.5</ele>
        <time>2022-06-12T12:34:58Z</time>
      </trkpt>
      <trkpt lat="44.52927" lon="6.71854">
        <ele>1842.9</ele>
        <time>2022-06-12T12:34:59Z</time>
      </trkpt>
      <trkpt lat="44.52927" lon="6.71851">
        <ele>1843</ele>
        <time>2022-06-12T12:35:00Z</time>
      </trkpt>
      <trkpt lat="44.52928" lon="6.71848">
        <ele>1843.3</ele>
        <time>2022-06-12T12:35:01Z</time>
      </trkpt>
      <trkpt lat="44.52928" lon="6.71845">
        <ele>1843.6</ele>
        <time>2022-06-12T12:35:02Z</time>
      </trkpt>
      <trkpt lat="44.52928" lon="6.71842">
        <ele>1843.8</ele>
        <time>2022-06-12T12:35:03Z</time>
      </trkpt>
      <trkpt lat="44.52929" lon="6.71839">
        <ele>1844.1</ele>
        <time>2022-06-12T12:35:04Z</time>
      </trkpt>
      <trkpt lat="44.52929" lon="6.71836">
        <ele>1844.2</ele>
        <time>2022-06-12T12:35:05Z</time>
      </trkpt>
      <trkpt lat="44.52929" lon="6.71834">
        <ele>1844.5</ele>
        <time>2022-06-12T12:35:06Z</time>
      </trkpt>
      <trkpt lat="44.52929" lon="6.71831">
        <ele>1844.7</ele>
        <time>2022-06-12T12:35:07Z</time>
      </trkpt>
      <trkpt lat="44.5293" lon="6.71828">
        <ele>1844.8</ele>
        <time>2022-06-12T12:35:08Z</time>
      </trkpt>
      <trkpt lat="44.5293" lon="6.71825">
        <ele>1844.9</ele>
        <time>2022-06-12T12:35:09Z</time>
      </trkpt>
      <trkpt lat="44.5293" lon="6.71822">
        <ele>1845</ele>
        <time>2022-06-12T12:35:10Z</time>
      </trkpt>
      <trkpt lat="44.5293" lon="6.71819">
        <ele>1845</ele>
        <time>2022-06-12T12:35:11Z</time>
      </trkpt>
      <trkpt lat="44.52931" lon="6.71816">
        <ele>1845.2</ele>
        <time>2022-06-12T12:35:12Z</time>
      </trkpt>
      <trkpt lat="44.52931" lon="6.71813">
        <ele>1845.4</ele>
        <time>2022-06-12T12:35:13Z</time>
      </trkpt>
      <trkpt lat="44.52931" lon="6.7181">
        <ele>1845.5</ele>
        <time>2022-06-12T12:35:14Z</time>
      </trkpt>
      <trkpt lat="44.52932" lon="6.71808">
        <ele>1845.6</ele>
        <time>2022-06-12T12:35:15Z</time>
      </trkpt>
      <trkpt lat="44.52932" lon="6.71805">
        <ele>1845.6</ele>
        <time>2022-06-12T12:35:16Z</time>
      </trkpt>
      <trkpt lat="44.52932" lon="6.71802">
        <ele>1845.7</ele>
        <time>2022-06-12T12:35:17Z</time>
      </trkpt>
      <trkpt lat="44.52933" lon="6.71799">
        <ele>1845.9</ele>
        <time>2022-06-12T12:35:18Z</time>
      </trkpt>
      <trkpt lat="44.52933" lon="6.71796">
        <ele>1846.2</ele>
        <time>2022-06-12T12:35:19Z</time>
      </trkpt>
      <trkpt lat="44.52933" lon="6.71793">
        <ele>1846.3</ele>
        <time>2022-06-12T12:35:20Z</time>
      </trkpt>
      <trkpt lat="44.52934" lon="6.7179">
        <ele>1846.4</ele>
        <time>2022-06-12T12:35:21Z</time>
      </trkpt>
      <trkpt lat="44.52934" lon="6.71787">
        <ele>1846.4</ele>
        <time>2022-06-12T12:35:22Z</time>
      </trkpt>
      <trkpt lat="44.52934" lon="6.71784">
        <ele>1846.5</ele>
        <time>2022-06-12T12:35:23Z</time>
      </trkpt>
      <trkpt lat="44.52934" lon="6.71781">
        <ele>1846.5</ele>
        <time>2022-06-12T12:35:24Z</time>
      </trkpt>
      <trkpt lat="44.52935" lon="6.71779">
        <ele>1846.7</ele>
        <time>2022-06-12T12:35:25Z</time>
      </trkpt>
      <trkpt lat="44.52935" lon="6.71776">
        <ele>1846.8</ele>
        <time>2022-06-12T12:35:26Z</time>
      </trkpt>
      <trkpt lat="44.52935" lon="6.71773">
        <ele>1846.9</ele>
        <time>2022-06-12T12:35:27Z</time>
      </trkpt>
      <trkpt lat="44.52936" lon="6.7177">
        <ele>1847</ele>
        <time>2022-06-12T12:35:28Z</time>
      </trkpt>
      <trkpt lat="44.52936" lon="6.71767">
        <ele>1847.1</ele>
        <time>2022-06-12T12:35:29Z</time>
      </trkpt>
      <trkpt lat="44.52936" lon="6.71764">
        <ele>1847.2</ele>
        <time>2022-06-12T12:35:30Z</time>
      </trkpt>
      <trkpt lat="44.52936" lon="6.71761">
        <ele>1847.3</ele>
        <time>2022-06-12T12:35:31Z</time>
      </trkpt>
      <trkpt lat="44.52937" lon="6.71759">
        <ele>1847.4</ele>
        <time>2022-06-12T12:35:32Z</time>
      </trkpt>
      <trkpt lat="44.52937" lon="6.71756">
        <ele>1847.5</ele>
        <time>2022-06-12T12:35:33Z</time>
      </trkpt>
      <trkpt lat="44.52937" lon="6.71753">
        <ele>1847.6</ele>
        <time>2022-06-12T12:35:34Z</time>
      </trkpt>
      <trkpt lat="44.52938" lon="6.7175">
        <ele>1847.7</ele>
        <time>2022-06-12T12:35:35Z</time>
      </trkpt>
      <trkpt lat="44.52938" lon="6.71747">
        <ele>1847.7</ele>
        <time>2022-06-12T12:35:36Z</time>
      </trkpt>
      <trkpt lat="44.52938" lon="6.71744">
        <ele>1847.9</ele>
        <time>2022-06-12T12:35:37Z</time>
      </trkpt>
      <trkpt lat="44.52939" lon="6.71741">
        <ele>1848.3</ele>
        <time>2022-06-12T12:35:38Z</time>
      </trkpt>
      <trkpt lat="44.5294" lon="6.71739">
        <ele>1848.5</ele>
        <time>2022-06-12T12:35:39Z</time>
      </trkpt>
      <trkpt lat="44.5294" lon="6.71736">
        <ele>1848.7</ele>
        <time>2022-06-12T12:35:40Z</time>
      </trkpt>
      <trkpt lat="44.52941" lon="6.71733">
        <ele>1848.9</ele>
        <time>2022-06-12T12:35:41Z</time>
      </trkpt>
      <trkpt lat="44.52941" lon="6.7173">
        <ele>1849.2</ele>
        <time>2022-06-12T12:35:42Z</time>
      </trkpt>
      <trkpt lat="44.52942" lon="6.71727">
        <ele>1849.4</ele>
        <time>2022-06-12T12:35:43Z</time>
      </trkpt>
      <trkpt lat="44.52942" lon="6.71724">
        <ele>1849.8</ele>
        <time>2022-06-12T12:35:44Z</time>
      </trkpt>
      <trkpt lat="44.52943" lon="6.71721">
        <ele>1850.1</ele>
        <time>2022-06-12T12:35:45Z</time>
      </trkpt>
      <trkpt lat="44.52944" lon="6.71718">
        <ele>1850.6</ele>
        <time>2022-06-12T12:35:46Z</time>
      </trkpt>
      <trkpt lat="44.52944" lon="6.71716">
        <ele>1851</ele>
        <time>2022-06-12T12:35:47Z</time>
      </trkpt>
      <trkpt lat="44.52944" lon="6.71713">
        <ele>1851.2</ele>
        <time>2022-06-12T12:35:48Z</time>
      </trkpt>
      <trkpt lat="44.52944" lon="6.7171">
        <ele>1851.3</ele>
        <time>2022-06-12T12:35:49Z</time>
      </trkpt>
      <trkpt lat="44.52944" lon="6.71707">
        <ele>1851.3</ele>
        <time>2022-06-12T12:35:50Z</time>
      </trkpt>
      <trkpt lat="44.52944" lon="6.71704">
        <ele>1851.4</ele>
        <time>2022-06-12T12:35:51Z</time>
      </trkpt>
      <trkpt lat="44.52944" lon="6.71701">
        <ele>1851.6</ele>
        <time>2022-06-12T12:35:52Z</time>
      </trkpt>
      <trkpt lat="44.52944" lon="6.71698">
        <ele>1851.8</ele>
        <time>2022-06-12T12:35:53Z</time>
      </trkpt>
      <trkpt lat="44.52944" lon="6.71695">
        <ele>1851.8</ele>
        <time>2022-06-12T12:35:54Z</time>
      </trkpt>
      <trkpt lat="44.52944" lon="6.71692">
        <ele>1852.2</ele>
        <time>2022-06-12T12:35:55Z</time>
      </trkpt>
      <trkpt lat="44.52944" lon="6.71689">
        <ele>1852.7</ele>
        <time>2022-06-12T12:35:56Z</time>
      </trkpt>
      <trkpt lat="44.52943" lon="6.71686">
        <ele>1853.1</ele>
        <time>2022-06-12T12:35:57Z</time>
      </trkpt>
      <trkpt lat="44.52943" lon="6.71683">
        <ele>1853.6</ele>
        <time>2022-06-12T12:35:58Z</time>
      </trkpt>
      <trkpt lat="44.52943" lon="6.71681">
        <ele>1854.1</ele>
        <time>2022-06-12T12:35:59Z</time>
      </trkpt>
      <trkpt lat="44.52942" lon="6.71678">
        <ele>1854.5</ele>
        <time>2022-06-12T12:36:00Z</time>
      </trkpt>
      <trkpt lat="44.52941" lon="6.71675">
        <ele>1854.8</ele>
        <time>2022-06-12T12:36:01Z</time>
      </trkpt>
      <trkpt lat="44.52941" lon="6.71672">
        <ele>1855.2</ele>
        <time>2022-06-12T12:36:02Z</time>
      </trkpt>
      <trkpt lat="44.5294" lon="6.71669">
        <ele>1855.5</ele>
        <time>2022-06-12T12:36:03Z</time>
      </trkpt>
      <trkpt lat="44.5294" lon="6.71666">
        <ele>1855.8</ele>
        <time>2022-06-12T12:36:04Z</time>
      </trkpt>
      <trkpt lat="44.52939" lon="6.71663">
        <ele>1855.8</ele>
        <time>2022-06-12T12:36:05Z</time>
      </trkpt>
      <trkpt lat="44.52938" lon="6.7166">
        <ele>1856.1</ele>
        <time>2022-06-12T12:36:06Z</time>
      </trkpt>
      <trkpt lat="44.52938" lon="6.71657">
        <ele>1856.4</ele>
        <time>2022-06-12T12:36:07Z</time>
      </trkpt>
      <trkpt lat="44.52937" lon="6.71654">
        <ele>1856.8</ele>
        <time>2022-06-12T12:36:08Z</time>
      </trkpt>
      <trkpt lat="44.52937" lon="6.71651">
        <ele>1857.1</ele>
        <time>2022-06-12T12:36:09Z</time>
      </trkpt>
      <trkpt lat="44.52937" lon="6.71648">
        <ele>1857.4</ele>
        <time>2022-06-12T12:36:10Z</time>
      </trkpt>
      <trkpt lat="44.52936" lon="6.71645">
        <ele>1857.8</ele>
        <time>2022-06-12T12:36:11Z</time>
      </trkpt>
      <trkpt lat="44.52936" lon="6.71642">
        <ele>1858.3</ele>
        <time>2022-06-12T12:36:12Z</time>
      </trkpt>
      <trkpt lat="44.52936" lon="6.71639">
        <ele>1858.7</ele>
        <time>2022-06-12T12:36:13Z</time>
      </trkpt>
      <trkpt lat="44.52936" lon="6.71636">
        <ele>1858.8</ele>
        <time>2022-06-12T12:36:14Z</time>
      </trkpt>
      <trkpt lat="44.52936" lon="6.71633">
        <ele>1859.1</ele>
        <time>2022-06-12T12:36:15Z</time>
      </trkpt>
      <trkpt lat="44.52936" lon="6.7163">
        <ele>1859.4</ele>
        <time>2022-06-12T12:36:16Z</time>
      </trkpt>
      <trkpt lat="44.52936" lon="6.71627">
        <ele>1859.3</ele>
        <time>2022-06-12T12:36:17Z</time>
      </trkpt>
      <trkpt lat="44.52935" lon="6.71624">
        <ele>1859.3</ele>
        <time>2022-06-12T12:36:18Z</time>
      </trkpt>
      <trkpt lat="44.52935" lon="6.71621">
        <ele>1859.4</ele>
        <time>2022-06-12T12:36:19Z</time>
      </trkpt>
      <trkpt lat="44.52935" lon="6.71618">
        <ele>1859.7</ele>
        <time>2022-06-12T12:36:20Z</time>
      </trkpt>
      <trkpt lat="44.52935" lon="6.71616">
        <ele>1859.9</ele>
        <time>2022-06-12T12:36:21Z</time>
      </trkpt>
      <trkpt lat="44.52935" lon="6.71613">
        <ele>1860.1</ele>
        <time>2022-06-12T12:36:22Z</time>
      </trkpt>
      <trkpt lat="44.52935" lon="6.7161">
        <ele>1860.3</ele>
        <time>2022-06-12T12:36:23Z</time>
      </trkpt>
      <trkpt lat="44.52935" lon="6.71608">
        <ele>1860.5</ele>
        <time>2022-06-12T12:36:24Z</time>
      </trkpt>
      <trkpt lat="44.52935" lon="6.71605">
        <ele>1860.7</ele>
        <time>2022-06-12T12:36:25Z</time>
      </trkpt>
      <trkpt lat="44.52936" lon="6.71603">
        <ele>1861.1</ele>
        <time>2022-06-12T12:36:26Z</time>
      </trkpt>
      <trkpt lat="44.52936" lon="6.716">
        <ele>1861.5</ele>
        <time>2022-06-12T12:36:27Z</time>
      </trkpt>
      <trkpt lat="44.52937" lon="6.71597">
        <ele>1861.9</ele>
        <time>2022-06-12T12:36:28Z</time>
      </trkpt>
      <trkpt lat="44.52937" lon="6.71594">
        <ele>1862.2</ele>
        <time>2022-06-12T12:36:29Z</time>
      </trkpt>
      <trkpt lat="44.52937" lon="6.71591">
        <ele>1862.3</ele>
        <time>2022-06-12T12:36:30Z</time>
      </trkpt>
      <trkpt lat="44.52937" lon="6.71588">
        <ele>1862.5</ele>
        <time>2022-06-12T12:36:31Z</time>
      </trkpt>
      <trkpt lat="44.52938" lon="6.71585">
        <ele>1862.9</ele>
        <time>2022-06-12T12:36:32Z</time>
      </trkpt>
      <trkpt lat="44.52938" lon="6.71582">
        <ele>1863.1</ele>
        <time>2022-06-12T12:36:33Z</time>
      </trkpt>
      <trkpt lat="44.52938" lon="6.71579">
        <ele>1863.2</ele>
        <time>2022-06-12T12:36:34Z</time>
      </trkpt>
      <trkpt lat="44.52938" lon="6.71576">
        <ele>1863.3</ele>
        <time>2022-06-12T12:36:35Z</time>
      </trkpt>
      <trkpt lat="44.52938" lon="6.71573">
        <ele>1863.5</ele>
        <time>2022-06-12T12:36:36Z</time>
      </trkpt>
      <trkpt lat="44.52939" lon="6.71571">
        <ele>1863.8</ele>
        <time>2022-06-12T12:36:37Z</time>
      </trkpt>
      <trkpt lat="44.52939" lon="6.71567">
        <ele>1864</ele>
        <time>2022-06-12T12:36:38Z</time>
      </trkpt>
      <trkpt lat="44.5294" lon="6.71564">
        <ele>1864.3</ele>
        <time>2022-06-12T12:36:39Z</time>
      </trkpt>
      <trkpt lat="44.5294" lon="6.71561">
        <ele>1864.5</ele>
        <time>2022-06-12T12:36:40Z</time>
      </trkpt>
      <trkpt lat="44.5294" lon="6.71558">
        <ele>1864.7</ele>
        <time>2022-06-12T12:36:41Z</time>
      </trkpt>
      <trkpt lat="44.52941" lon="6.71556">
        <ele>1865</ele>
        <time>2022-06-12T12:36:42Z</time>
      </trkpt>
      <trkpt lat="44.52941" lon="6.71553">
        <ele>1865.3</ele>
        <time>2022-06-12T12:36:43Z</time>
      </trkpt>
      <trkpt lat="44.52942" lon="6.7155">
        <ele>1865.5</ele>
        <time>2022-06-12T12:36:44Z</time>
      </trkpt>
      <trkpt lat="44.52942" lon="6.71547">
        <ele>1865.7</ele>
        <time>2022-06-12T12:36:45Z</time>
      </trkpt>
      <trkpt lat="44.52943" lon="6.71544">
        <ele>1866.1</ele>
        <time>2022-06-12T12:36:46Z</time>
      </trkpt>
      <trkpt lat="44.52943" lon="6.71541">
        <ele>1866.4</ele>
        <time>2022-06-12T12:36:47Z</time>
      </trkpt>
      <trkpt lat="44.52944" lon="6.71538">
        <ele>1866.5</ele>
        <time>2022-06-12T12:36:48Z</time>
      </trkpt>
      <trkpt lat="44.52944" lon="6.71535">
        <ele>1866.7</ele>
        <time>2022-06-12T12:36:49Z</time>
      </trkpt>
      <trkpt lat="44.52944" lon="6.71531">
        <ele>1866.7</ele>
        <time>2022-06-12T12:36:50Z</time>
      </trkpt>
      <trkpt lat="44.52944" lon="6.71528">
        <ele>1866.5</ele>
        <time>2022-06-12T12:36:51Z</time>
      </trkpt>
      <trkpt lat="44.52944" lon="6.71525">
        <ele>1866.7</ele>
        <time>2022-06-12T12:36:52Z</time>
      </trkpt>
      <trkpt lat="44.52944" lon="6.71522">
        <ele>1867</ele>
        <time>2022-06-12T12:36:53Z</time>
      </trkpt>
      <trkpt lat="44.52945" lon="6.71519">
        <ele>1867.4</ele>
        <time>2022-06-12T12:36:54Z</time>
      </trkpt>
      <trkpt lat="44.52945" lon="6.71516">
        <ele>1867.7</ele>
        <time>2022-06-12T12:36:55Z</time>
      </trkpt>
      <trkpt lat="44.52945" lon="6.71513">
        <ele>1867.9</ele>
        <time>2022-06-12T12:36:56Z</time>
      </trkpt>
      <trkpt lat="44.52945" lon="6.71511">
        <ele>1868.1</ele>
        <time>2022-06-12T12:36:57Z</time>
      </trkpt>
      <trkpt lat="44.52946" lon="6.71508">
        <ele>1868.3</ele>
        <time>2022-06-12T12:36:58Z</time>
      </trkpt>
      <trkpt lat="44.52946" lon="6.71505">
        <ele>1868.5</ele>
        <time>2022-06-12T12:36:59Z</time>
      </trkpt>
      <trkpt lat="44.52946" lon="6.71503">
        <ele>1868.9</ele>
        <time>2022-06-12T12:37:00Z</time>
      </trkpt>
      <trkpt lat="44.52947" lon="6.715">
        <ele>1869.2</ele>
        <time>2022-06-12T12:37:01Z</time>
      </trkpt>
      <trkpt lat="44.52947" lon="6.71497">
        <ele>1869.6</ele>
        <time>2022-06-12T12:37:02Z</time>
      </trkpt>
      <trkpt lat="44.52947" lon="6.71494">
        <ele>1869.9</ele>
        <time>2022-06-12T12:37:03Z</time>
      </trkpt>
      <trkpt lat="44.52947" lon="6.71491">
        <ele>1870.1</ele>
        <time>2022-06-12T12:37:04Z</time>
      </trkpt>
      <trkpt lat="44.52947" lon="6.71489">
        <ele>1870.5</ele>
        <time>2022-06-12T12:37:05Z</time>
      </trkpt>
      <trkpt lat="44.52948" lon="6.71486">
        <ele>1871</ele>
        <time>2022-06-12T12:37:06Z</time>
      </trkpt>
      <trkpt lat="44.52948" lon="6.71483">
        <ele>1871.2</ele>
        <time>2022-06-12T12:37:07Z</time>
      </trkpt>
      <trkpt lat="44.52948" lon="6.7148">
        <ele>1871.6</ele>
        <time>2022-06-12T12:37:08Z</time>
      </trkpt>
      <trkpt lat="44.52948" lon="6.71477">
        <ele>1871.8</ele>
        <time>2022-06-12T12:37:09Z</time>
      </trkpt>
      <trkpt lat="44.52948" lon="6.71474">
        <ele>1872.1</ele>
        <time>2022-06-12T12:37:10Z</time>
      </trkpt>
      <trkpt lat="44.52948" lon="6.71471">
        <ele>1872.3</ele>
        <time>2022-06-12T12:37:11Z</time>
      </trkpt>
      <trkpt lat="44.52949" lon="6.71468">
        <ele>1872.7</ele>
        <time>2022-06-12T12:37:12Z</time>
      </trkpt>
      <trkpt lat="44.52949" lon="6.71465">
        <ele>1872.9</ele>
        <time>2022-06-12T12:37:13Z</time>
      </trkpt>
      <trkpt lat="44.52949" lon="6.71462">
        <ele>1873.1</ele>
        <time>2022-06-12T12:37:14Z</time>
      </trkpt>
      <trkpt lat="44.52949" lon="6.71459">
        <ele>1873.3</ele>
        <time>2022-06-12T12:37:15Z</time>
      </trkpt>
      <trkpt lat="44.52949" lon="6.71457">
        <ele>1873.5</ele>
        <time>2022-06-12T12:37:16Z</time>
      </trkpt>
      <trkpt lat="44.52949" lon="6.71454">
        <ele>1873.8</ele>
        <time>2022-06-12T12:37:17Z</time>
      </trkpt>
      <trkpt lat="44.5295" lon="6.71451">
        <ele>1874.2</ele>
        <time>2022-06-12T12:37:18Z</time>
      </trkpt>
      <trkpt lat="44.5295" lon="6.71448">
        <ele>1874.4</ele>
        <time>2022-06-12T12:37:19Z</time>
      </trkpt>
      <trkpt lat="44.5295" lon="6.71445">
        <ele>1874.6</ele>
        <time>2022-06-12T12:37:20Z</time>
      </trkpt>
      <trkpt lat="44.5295" lon="6.71441">
        <ele>1875</ele>
        <time>2022-06-12T12:37:21Z</time>
      </trkpt>
      <trkpt lat="44.52951" lon="6.7144">
        <ele>1875.2</ele>
        <time>2022-06-12T12:37:22Z</time>
      </trkpt>
      <trkpt lat="44.52951" lon="6.71437">
        <ele>1875.6</ele>
        <time>2022-06-12T12:37:23Z</time>
      </trkpt>
      <trkpt lat="44.52952" lon="6.71434">
        <ele>1875.9</ele>
        <time>2022-06-12T12:37:24Z</time>
      </trkpt>
      <trkpt lat="44.52952" lon="6.71431">
        <ele>1876.1</ele>
        <time>2022-06-12T12:37:25Z</time>
      </trkpt>
      <trkpt lat="44.52952" lon="6.71429">
        <ele>1876.5</ele>
        <time>2022-06-12T12:37:26Z</time>
      </trkpt>
      <trkpt lat="44.52953" lon="6.71426">
        <ele>1876.9</ele>
        <time>2022-06-12T12:37:27Z</time>
      </trkpt>
      <trkpt lat="44.52953" lon="6.71423">
        <ele>1877.2</ele>
        <time>2022-06-12T12:37:28Z</time>
      </trkpt>
      <trkpt lat="44.52953" lon="6.71421">
        <ele>1877.5</ele>
        <time>2022-06-12T12:37:29Z</time>
      </trkpt>
      <trkpt lat="44.52954" lon="6.71418">
        <ele>1878.1</ele>
        <time>2022-06-12T12:37:30Z</time>
      </trkpt>
      <trkpt lat="44.52955" lon="6.71415">
        <ele>1878.4</ele>
        <time>2022-06-12T12:37:31Z</time>
      </trkpt>
      <trkpt lat="44.52955" lon="6.71413">
        <ele>1878.5</ele>
        <time>2022-06-12T12:37:32Z</time>
      </trkpt>
      <trkpt lat="44.52955" lon="6.7141">
        <ele>1878.7</ele>
        <time>2022-06-12T12:37:33Z</time>
      </trkpt>
      <trkpt lat="44.52956" lon="6.71407">
        <ele>1879</ele>
        <time>2022-06-12T12:37:34Z</time>
      </trkpt>
      <trkpt lat="44.52957" lon="6.71404">
        <ele>1879.2</ele>
        <time>2022-06-12T12:37:35Z</time>
      </trkpt>
      <trkpt lat="44.52958" lon="6.71401">
        <ele>1879.6</ele>
        <time>2022-06-12T12:37:36Z</time>
      </trkpt>
      <trkpt lat="44.52958" lon="6.71399">
        <ele>1879.8</ele>
        <time>2022-06-12T12:37:37Z</time>
      </trkpt>
      <trkpt lat="44.52959" lon="6.71396">
        <ele>1880.2</ele>
        <time>2022-06-12T12:37:38Z</time>
      </trkpt>
      <trkpt lat="44.5296" lon="6.71393">
        <ele>1880.5</ele>
        <time>2022-06-12T12:37:39Z</time>
      </trkpt>
      <trkpt lat="44.5296" lon="6.71391">
        <ele>1880.6</ele>
        <time>2022-06-12T12:37:40Z</time>
      </trkpt>
      <trkpt lat="44.52961" lon="6.71388">
        <ele>1880.8</ele>
        <time>2022-06-12T12:37:41Z</time>
      </trkpt>
      <trkpt lat="44.52962" lon="6.71385">
        <ele>1881</ele>
        <time>2022-06-12T12:37:42Z</time>
      </trkpt>
      <trkpt lat="44.52963" lon="6.71383">
        <ele>1881.3</ele>
        <time>2022-06-12T12:37:43Z</time>
      </trkpt>
      <trkpt lat="44.52963" lon="6.7138">
        <ele>1881.4</ele>
        <time>2022-06-12T12:37:44Z</time>
      </trkpt>
      <trkpt lat="44.52964" lon="6.71378">
        <ele>1881.4</ele>
        <time>2022-06-12T12:37:45Z</time>
      </trkpt>
      <trkpt lat="44.52965" lon="6.71375">
        <ele>1881.3</ele>
        <time>2022-06-12T12:37:46Z</time>
      </trkpt>
      <trkpt lat="44.52965" lon="6.71371">
        <ele>1881</ele>
        <time>2022-06-12T12:37:47Z</time>
      </trkpt>
      <trkpt lat="44.52965" lon="6.71368">
        <ele>1880.7</ele>
        <time>2022-06-12T12:37:48Z</time>
      </trkpt>
      <trkpt lat="44.52966" lon="6.71366">
        <ele>1880.5</ele>
        <time>2022-06-12T12:37:49Z</time>
      </trkpt>
      <trkpt lat="44.52966" lon="6.71363">
        <ele>1880.5</ele>
        <time>2022-06-12T12:37:50Z</time>
      </trkpt>
      <trkpt lat="44.52967" lon="6.7136">
        <ele>1880.5</ele>
        <time>2022-06-12T12:37:51Z</time>
      </trkpt>
      <trkpt lat="44.52967" lon="6.71357">
        <ele>1880.6</ele>
        <time>2022-06-12T12:37:52Z</time>
      </trkpt>
      <trkpt lat="44.52967" lon="6.71354">
        <ele>1880.6</ele>
        <time>2022-06-12T12:37:53Z</time>
      </trkpt>
      <trkpt lat="44.52967" lon="6.71351">
        <ele>1880.6</ele>
        <time>2022-06-12T12:37:54Z</time>
      </trkpt>
      <trkpt lat="44.52967" lon="6.71348">
        <ele>1880.6</ele>
        <time>2022-06-12T12:37:55Z</time>
      </trkpt>
      <trkpt lat="44.52967" lon="6.71345">
        <ele>1880.7</ele>
        <time>2022-06-12T12:37:56Z</time>
      </trkpt>
      <trkpt lat="44.52967" lon="6.71343">
        <ele>1880.9</ele>
        <time>2022-06-12T12:37:57Z</time>
      </trkpt>
      <trkpt lat="44.52967" lon="6.7134">
        <ele>1880.9</ele>
        <time>2022-06-12T12:37:58Z</time>
      </trkpt>
      <trkpt lat="44.52967" lon="6.71337">
        <ele>1880.9</ele>
        <time>2022-06-12T12:37:59Z</time>
      </trkpt>
      <trkpt lat="44.52966" lon="6.71334">
        <ele>1880.9</ele>
        <time>2022-06-12T12:38:00Z</time>
      </trkpt>
      <trkpt lat="44.52966" lon="6.71331">
        <ele>1881</ele>
        <time>2022-06-12T12:38:01Z</time>
      </trkpt>
      <trkpt lat="44.52965" lon="6.71329">
        <ele>1881.2</ele>
        <time>2022-06-12T12:38:02Z</time>
      </trkpt>
      <trkpt lat="44.52965" lon="6.71326">
        <ele>1881.5</ele>
        <time>2022-06-12T12:38:03Z</time>
      </trkpt>
      <trkpt lat="44.52964" lon="6.71323">
        <ele>1881.7</ele>
        <time>2022-06-12T12:38:04Z</time>
      </trkpt>
      <trkpt lat="44.52963" lon="6.7132">
        <ele>1881.9</ele>
        <time>2022-06-12T12:38:05Z</time>
      </trkpt>
      <trkpt lat="44.52962" lon="6.71318">
        <ele>1882.1</ele>
        <time>2022-06-12T12:38:06Z</time>
      </trkpt>
      <trkpt lat="44.52961" lon="6.71315">
        <ele>1882.1</ele>
        <time>2022-06-12T12:38:07Z</time>
      </trkpt>
      <trkpt lat="44.5296" lon="6.71312">
        <ele>1882.2</ele>
        <time>2022-06-12T12:38:08Z</time>
      </trkpt>
      <trkpt lat="44.5296" lon="6.7131">
        <ele>1882.3</ele>
        <time>2022-06-12T12:38:09Z</time>
      </trkpt>
      <trkpt lat="44.52959" lon="6.71307">
        <ele>1882.5</ele>
        <time>2022-06-12T12:38:10Z</time>
      </trkpt>
      <trkpt lat="44.52958" lon="6.71304">
        <ele>1882.8</ele>
        <time>2022-06-12T12:38:11Z</time>
      </trkpt>
      <trkpt lat="44.52958" lon="6.71301">
        <ele>1883.2</ele>
        <time>2022-06-12T12:38:12Z</time>
      </trkpt>
      <trkpt lat="44.52957" lon="6.71298">
        <ele>1883.5</ele>
        <time>2022-06-12T12:38:13Z</time>
      </trkpt>
      <trkpt lat="44.52957" lon="6.71295">
        <ele>1883.9</ele>
        <time>2022-06-12T12:38:14Z</time>
      </trkpt>
      <trkpt lat="44.52956" lon="6.71293">
        <ele>1884.2</ele>
        <time>2022-06-12T12:38:15Z</time>
      </trkpt>
      <trkpt lat="44.52956" lon="6.7129">
        <ele>1884.7</ele>
        <time>2022-06-12T12:38:16Z</time>
      </trkpt>
      <trkpt lat="44.52956" lon="6.71287">
        <ele>1885.2</ele>
        <time>2022-06-12T12:38:17Z</time>
      </trkpt>
      <trkpt lat="44.52956" lon="6.71284">
        <ele>1885.7</ele>
        <time>2022-06-12T12:38:18Z</time>
      </trkpt>
      <trkpt lat="44.52956" lon="6.71281">
        <ele>1886.3</ele>
        <time>2022-06-12T12:38:19Z</time>
      </trkpt>
      <trkpt lat="44.52956" lon="6.71278">
        <ele>1886.8</ele>
        <time>2022-06-12T12:38:20Z</time>
      </trkpt>
      <trkpt lat="44.52956" lon="6.71275">
        <ele>1887.1</ele>
        <time>2022-06-12T12:38:21Z</time>
      </trkpt>
      <trkpt lat="44.52956" lon="6.71273">
        <ele>1887.3</ele>
        <time>2022-06-12T12:38:22Z</time>
      </trkpt>
      <trkpt lat="44.52956" lon="6.7127">
        <ele>1887.4</ele>
        <time>2022-06-12T12:38:23Z</time>
      </trkpt>
      <trkpt lat="44.52956" lon="6.71267">
        <ele>1887.7</ele>
        <time>2022-06-12T12:38:24Z</time>
      </trkpt>
      <trkpt lat="44.52956" lon="6.71264">
        <ele>1888</ele>
        <time>2022-06-12T12:38:25Z</time>
      </trkpt>
      <trkpt lat="44.52956" lon="6.71261">
        <ele>1888.3</ele>
        <time>2022-06-12T12:38:26Z</time>
      </trkpt>
      <trkpt lat="44.52956" lon="6.71258">
        <ele>1888.6</ele>
        <time>2022-06-12T12:38:27Z</time>
      </trkpt>
      <trkpt lat="44.52956" lon="6.71255">
        <ele>1888.8</ele>
        <time>2022-06-12T12:38:28Z</time>
      </trkpt>
      <trkpt lat="44.52955" lon="6.71253">
        <ele>1889</ele>
        <time>2022-06-12T12:38:29Z</time>
      </trkpt>
      <trkpt lat="44.52955" lon="6.7125">
        <ele>1889.2</ele>
        <time>2022-06-12T12:38:30Z</time>
      </trkpt>
      <trkpt lat="44.52956" lon="6.71248">
        <ele>1889.4</ele>
        <time>2022-06-12T12:38:31Z</time>
      </trkpt>
      <trkpt lat="44.52955" lon="6.71245">
        <ele>1889.4</ele>
        <time>2022-06-12T12:38:32Z</time>
      </trkpt>
      <trkpt lat="44.52956" lon="6.71242">
        <ele>1889.6</ele>
        <time>2022-06-12T12:38:33Z</time>
      </trkpt>
      <trkpt lat="44.52956" lon="6.71239">
        <ele>1889.7</ele>
        <time>2022-06-12T12:38:34Z</time>
      </trkpt>
      <trkpt lat="44.52956" lon="6.71236">
        <ele>1889.8</ele>
        <time>2022-06-12T12:38:35Z</time>
      </trkpt>
      <trkpt lat="44.52956" lon="6.71233">
        <ele>1890</ele>
        <time>2022-06-12T12:38:36Z</time>
      </trkpt>
      <trkpt lat="44.52956" lon="6.7123">
        <ele>1890.2</ele>
        <time>2022-06-12T12:38:37Z</time>
      </trkpt>
      <trkpt lat="44.52957" lon="6.71228">
        <ele>1890.5</ele>
        <time>2022-06-12T12:38:38Z</time>
      </trkpt>
      <trkpt lat="44.52957" lon="6.71225">
        <ele>1890.7</ele>
        <time>2022-06-12T12:38:39Z</time>
      </trkpt>
      <trkpt lat="44.52957" lon="6.71222">
        <ele>1890.9</ele>
        <time>2022-06-12T12:38:40Z</time>
      </trkpt>
      <trkpt lat="44.52958" lon="6.71219">
        <ele>1891.2</ele>
        <time>2022-06-12T12:38:41Z</time>
      </trkpt>
      <trkpt lat="44.52958" lon="6.71217">
        <ele>1891.5</ele>
        <time>2022-06-12T12:38:42Z</time>
      </trkpt>
      <trkpt lat="44.52959" lon="6.71214">
        <ele>1891.8</ele>
        <time>2022-06-12T12:38:43Z</time>
      </trkpt>
      <trkpt lat="44.52959" lon="6.71211">
        <ele>1892.1</ele>
        <time>2022-06-12T12:38:44Z</time>
      </trkpt>
      <trkpt lat="44.5296" lon="6.71208">
        <ele>1892.5</ele>
        <time>2022-06-12T12:38:45Z</time>
      </trkpt>
      <trkpt lat="44.5296" lon="6.71205">
        <ele>1892.7</ele>
        <time>2022-06-12T12:38:46Z</time>
      </trkpt>
      <trkpt lat="44.52961" lon="6.71203">
        <ele>1892.9</ele>
        <time>2022-06-12T12:38:47Z</time>
      </trkpt>
      <trkpt lat="44.52961" lon="6.712">
        <ele>1893.1</ele>
        <time>2022-06-12T12:38:48Z</time>
      </trkpt>
      <trkpt lat="44.52962" lon="6.71197">
        <ele>1893.4</ele>
        <time>2022-06-12T12:38:49Z</time>
      </trkpt>
      <trkpt lat="44.52962" lon="6.71195">
        <ele>1893.6</ele>
        <time>2022-06-12T12:38:50Z</time>
      </trkpt>
      <trkpt lat="44.52963" lon="6.71192">
        <ele>1893.8</ele>
        <time>2022-06-12T12:38:51Z</time>
      </trkpt>
      <trkpt lat="44.52963" lon="6.7119">
        <ele>1893.9</ele>
        <time>2022-06-12T12:38:52Z</time>
      </trkpt>
      <trkpt lat="44.52964" lon="6.71187">
        <ele>1894.1</ele>
        <time>2022-06-12T12:38:53Z</time>
      </trkpt>
      <trkpt lat="44.52965" lon="6.71185">
        <ele>1894.4</ele>
        <time>2022-06-12T12:38:54Z</time>
      </trkpt>
      <trkpt lat="44.52966" lon="6.71182">
        <ele>1894.8</ele>
        <time>2022-06-12T12:38:55Z</time>
      </trkpt>
      <trkpt lat="44.52966" lon="6.7118">
        <ele>1895</ele>
        <time>2022-06-12T12:38:56Z</time>
      </trkpt>
      <trkpt lat="44.52967" lon="6.71177">
        <ele>1895.3</ele>
        <time>2022-06-12T12:38:57Z</time>
      </trkpt>
      <trkpt lat="44.52968" lon="6.71174">
        <ele>1895.6</ele>
        <time>2022-06-12T12:38:58Z</time>
      </trkpt>
      <trkpt lat="44.52969" lon="6.71172">
        <ele>1895.8</ele>
        <time>2022-06-12T12:38:59Z</time>
      </trkpt>
      <trkpt lat="44.5297" lon="6.71169">
        <ele>1896</ele>
        <time>2022-06-12T12:39:00Z</time>
      </trkpt>
      <trkpt lat="44.52971" lon="6.71167">
        <ele>1896.3</ele>
        <time>2022-06-12T12:39:01Z</time>
      </trkpt>
      <trkpt lat="44.52972" lon="6.71164">
        <ele>1896.6</ele>
        <time>2022-06-12T12:39:02Z</time>
      </trkpt>
      <trkpt lat="44.52973" lon="6.71162">
        <ele>1896.9</ele>
        <time>2022-06-12T12:39:03Z</time>
      </trkpt>
      <trkpt lat="44.52974" lon="6.7116">
        <ele>1897.2</ele>
        <time>2022-06-12T12:39:04Z</time>
      </trkpt>
      <trkpt lat="44.52975" lon="6.71157">
        <ele>1897.4</ele>
        <time>2022-06-12T12:39:05Z</time>
      </trkpt>
      <trkpt lat="44.52976" lon="6.71154">
        <ele>1897.7</ele>
        <time>2022-06-12T12:39:06Z</time>
      </trkpt>
      <trkpt lat="44.52977" lon="6.71152">
        <ele>1897.9</ele>
        <time>2022-06-12T12:39:07Z</time>
      </trkpt>
      <trkpt lat="44.52978" lon="6.71149">
        <ele>1898.2</ele>
        <time>2022-06-12T12:39:08Z</time>
      </trkpt>
      <trkpt lat="44.52979" lon="6.71147">
        <ele>1898.4</ele>
        <time>2022-06-12T12:39:09Z</time>
      </trkpt>
      <trkpt lat="44.52981" lon="6.71145">
        <ele>1898.7</ele>
        <time>2022-06-12T12:39:10Z</time>
      </trkpt>
      <trkpt lat="44.52982" lon="6.71142">
        <ele>1899</ele>
        <time>2022-06-12T12:39:11Z</time>
      </trkpt>
      <trkpt lat="44.52983" lon="6.7114">
        <ele>1899.4</ele>
        <time>2022-06-12T12:39:12Z</time>
      </trkpt>
      <trkpt lat="44.52985" lon="6.71138">
        <ele>1899.8</ele>
        <time>2022-06-12T12:39:13Z</time>
      </trkpt>
      <trkpt lat="44.52986" lon="6.71136">
        <ele>1900.1</ele>
        <time>2022-06-12T12:39:14Z</time>
      </trkpt>
      <trkpt lat="44.52988" lon="6.71134">
        <ele>1900.3</ele>
        <time>2022-06-12T12:39:15Z</time>
      </trkpt>
      <trkpt lat="44.52989" lon="6.71132">
        <ele>1900.5</ele>
        <time>2022-06-12T12:39:16Z</time>
      </trkpt>
      <trkpt lat="44.5299" lon="6.7113">
        <ele>1900.7</ele>
        <time>2022-06-12T12:39:17Z</time>
      </trkpt>
      <trkpt lat="44.52992" lon="6.71128">
        <ele>1900.9</ele>
        <time>2022-06-12T12:39:18Z</time>
      </trkpt>
      <trkpt lat="44.52993" lon="6.71125">
        <ele>1901</ele>
        <time>2022-06-12T12:39:19Z</time>
      </trkpt>
      <trkpt lat="44.52994" lon="6.71123">
        <ele>1901.2</ele>
        <time>2022-06-12T12:39:20Z</time>
      </trkpt>
      <trkpt lat="44.52995" lon="6.71121">
        <ele>1901.5</ele>
        <time>2022-06-12T12:39:21Z</time>
      </trkpt>
      <trkpt lat="44.52997" lon="6.71119">
        <ele>1901.7</ele>
        <time>2022-06-12T12:39:22Z</time>
      </trkpt>
      <trkpt lat="44.52998" lon="6.71117">
        <ele>1902</ele>
        <time>2022-06-12T12:39:23Z</time>
      </trkpt>
      <trkpt lat="44.53" lon="6.71115">
        <ele>1902.3</ele>
        <time>2022-06-12T12:39:24Z</time>
      </trkpt>
      <trkpt lat="44.53001" lon="6.71113">
        <ele>1902.5</ele>
        <time>2022-06-12T12:39:25Z</time>
      </trkpt>
      <trkpt lat="44.53002" lon="6.71111">
        <ele>1902.7</ele>
        <time>2022-06-12T12:39:26Z</time>
      </trkpt>
      <trkpt lat="44.53003" lon="6.71109">
        <ele>1902.7</ele>
        <time>2022-06-12T12:39:27Z</time>
      </trkpt>
      <trkpt lat="44.53005" lon="6.71107">
        <ele>1903</ele>
        <time>2022-06-12T12:39:28Z</time>
      </trkpt>
      <trkpt lat="44.53006" lon="6.71105">
        <ele>1903.2</ele>
        <time>2022-06-12T12:39:29Z</time>
      </trkpt>
      <trkpt lat="44.53008" lon="6.71103">
        <ele>1903.4</ele>
        <time>2022-06-12T12:39:30Z</time>
      </trkpt>
      <trkpt lat="44.53009" lon="6.71101">
        <ele>1903.6</ele>
        <time>2022-06-12T12:39:31Z</time>
      </trkpt>
      <trkpt lat="44.53011" lon="6.71099">
        <ele>1903.7</ele>
        <time>2022-06-12T12:39:32Z</time>
      </trkpt>
      <trkpt lat="44.53012" lon="6.71097">
        <ele>1903.7</ele>
        <time>2022-06-12T12:39:33Z</time>
      </trkpt>
      <trkpt lat="44.53013" lon="6.71095">
        <ele>1903.7</ele>
        <time>2022-06-12T12:39:34Z</time>
      </trkpt>
      <trkpt lat="44.53014" lon="6.71093">
        <ele>1903.8</ele>
        <time>2022-06-12T12:39:35Z</time>
      </trkpt>
      <trkpt lat="44.53015" lon="6.71091">
        <ele>1904</ele>
        <time>2022-06-12T12:39:36Z</time>
      </trkpt>
      <trkpt lat="44.53016" lon="6.71089">
        <ele>1904.1</ele>
        <time>2022-06-12T12:39:37Z</time>
      </trkpt>
      <trkpt lat="44.53018" lon="6.71087">
        <ele>1904.3</ele>
        <time>2022-06-12T12:39:38Z</time>
      </trkpt>
      <trkpt lat="44.53019" lon="6.71085">
        <ele>1904.4</ele>
        <time>2022-06-12T12:39:39Z</time>
      </trkpt>
      <trkpt lat="44.5302" lon="6.71083">
        <ele>1904.5</ele>
        <time>2022-06-12T12:39:40Z</time>
      </trkpt>
      <trkpt lat="44.53021" lon="6.71081">
        <ele>1904.6</ele>
        <time>2022-06-12T12:39:41Z</time>
      </trkpt>
      <trkpt lat="44.53023" lon="6.71079">
        <ele>1904.6</ele>
        <time>2022-06-12T12:39:42Z</time>
      </trkpt>
      <trkpt lat="44.53024" lon="6.71077">
        <ele>1904.6</ele>
        <time>2022-06-12T12:39:43Z</time>
      </trkpt>
      <trkpt lat="44.53025" lon="6.71074">
        <ele>1904.7</ele>
        <time>2022-06-12T12:39:44Z</time>
      </trkpt>
      <trkpt lat="44.53026" lon="6.71072">
        <ele>1904.8</ele>
        <time>2022-06-12T12:39:45Z</time>
      </trkpt>
      <trkpt lat="44.53028" lon="6.7107">
        <ele>1905</ele>
        <time>2022-06-12T12:39:46Z</time>
      </trkpt>
      <trkpt lat="44.53029" lon="6.71068">
        <ele>1905.1</ele>
        <time>2022-06-12T12:39:47Z</time>
      </trkpt>
      <trkpt lat="44.5303" lon="6.71066">
        <ele>1905.2</ele>
        <time>2022-06-12T12:39:48Z</time>
      </trkpt>
      <trkpt lat="44.53032" lon="6.71064">
        <ele>1905.3</ele>
        <time>2022-06-12T12:39:49Z</time>
      </trkpt>
      <trkpt lat="44.53033" lon="6.71062">
        <ele>1905.4</ele>
        <time>2022-06-12T12:39:50Z</time>
      </trkpt>
      <trkpt lat="44.53035" lon="6.7106">
        <ele>1905.6</ele>
        <time>2022-06-12T12:39:51Z</time>
      </trkpt>
      <trkpt lat="44.53036" lon="6.71058">
        <ele>1905.7</ele>
        <time>2022-06-12T12:39:52Z</time>
      </trkpt>
      <trkpt lat="44.53038" lon="6.71055">
        <ele>1905.9</ele>
        <time>2022-06-12T12:39:53Z</time>
      </trkpt>
      <trkpt lat="44.53039" lon="6.71053">
        <ele>1906.2</ele>
        <time>2022-06-12T12:39:54Z</time>
      </trkpt>
      <trkpt lat="44.53041" lon="6.71051">
        <ele>1906.4</ele>
        <time>2022-06-12T12:39:55Z</time>
      </trkpt>
      <trkpt lat="44.53042" lon="6.71049">
        <ele>1906.5</ele>
        <time>2022-06-12T12:39:56Z</time>
      </trkpt>
      <trkpt lat="44.53043" lon="6.71047">
        <ele>1906.6</ele>
        <time>2022-06-12T12:39:57Z</time>
      </trkpt>
      <trkpt lat="44.53044" lon="6.71044">
        <ele>1906.6</ele>
        <time>2022-06-12T12:39:58Z</time>
      </trkpt>
      <trkpt lat="44.53045" lon="6.71041">
        <ele>1906.6</ele>
        <time>2022-06-12T12:39:59Z</time>
      </trkpt>
      <trkpt lat="44.53046" lon="6.71039">
        <ele>1906.4</ele>
        <time>2022-06-12T12:40:00Z</time>
      </trkpt>
      <trkpt lat="44.53047" lon="6.71036">
        <ele>1906.2</ele>
        <time>2022-06-12T12:40:01Z</time>
      </trkpt>
      <trkpt lat="44.53048" lon="6.71033">
        <ele>1906</ele>
        <time>2022-06-12T12:40:02Z</time>
      </trkpt>
      <trkpt lat="44.53048" lon="6.7103">
        <ele>1905.8</ele>
        <time>2022-06-12T12:40:03Z</time>
      </trkpt>
      <trkpt lat="44.53049" lon="6.71027">
        <ele>1905.6</ele>
        <time>2022-06-12T12:40:04Z</time>
      </trkpt>
      <trkpt lat="44.5305" lon="6.71025">
        <ele>1905.8</ele>
        <time>2022-06-12T12:40:05Z</time>
      </trkpt>
      <trkpt lat="44.5305" lon="6.71022">
        <ele>1906.1</ele>
        <time>2022-06-12T12:40:06Z</time>
      </trkpt>
      <trkpt lat="44.53051" lon="6.71019">
        <ele>1906.3</ele>
        <time>2022-06-12T12:40:07Z</time>
      </trkpt>
      <trkpt lat="44.53052" lon="6.71016">
        <ele>1906.7</ele>
        <time>2022-06-12T12:40:08Z</time>
      </trkpt>
      <trkpt lat="44.53053" lon="6.71014">
        <ele>1907.1</ele>
        <time>2022-06-12T12:40:09Z</time>
      </trkpt>
      <trkpt lat="44.53054" lon="6.71011">
        <ele>1907.3</ele>
        <time>2022-06-12T12:40:10Z</time>
      </trkpt>
      <trkpt lat="44.53055" lon="6.71009">
        <ele>1907.6</ele>
        <time>2022-06-12T12:40:11Z</time>
      </trkpt>
      <trkpt lat="44.53056" lon="6.71006">
        <ele>1908</ele>
        <time>2022-06-12T12:40:12Z</time>
      </trkpt>
      <trkpt lat="44.53057" lon="6.71004">
        <ele>1908.2</ele>
        <time>2022-06-12T12:40:13Z</time>
      </trkpt>
      <trkpt lat="44.53058" lon="6.71002">
        <ele>1908.4</ele>
        <time>2022-06-12T12:40:14Z</time>
      </trkpt>
      <trkpt lat="44.5306" lon="6.71">
        <ele>1908.6</ele>
        <time>2022-06-12T12:40:15Z</time>
      </trkpt>
      <trkpt lat="44.53061" lon="6.70998">
        <ele>1909</ele>
        <time>2022-06-12T12:40:16Z</time>
      </trkpt>
      <trkpt lat="44.53063" lon="6.70996">
        <ele>1909.4</ele>
        <time>2022-06-12T12:40:17Z</time>
      </trkpt>
      <trkpt lat="44.53065" lon="6.70995">
        <ele>1909.8</ele>
        <time>2022-06-12T12:40:18Z</time>
      </trkpt>
      <trkpt lat="44.53067" lon="6.70993">
        <ele>1910.2</ele>
        <time>2022-06-12T12:40:19Z</time>
      </trkpt>
      <trkpt lat="44.53069" lon="6.70993">
        <ele>1910.7</ele>
        <time>2022-06-12T12:40:20Z</time>
      </trkpt>
      <trkpt lat="44.53071" lon="6.70992">
        <ele>1911.1</ele>
        <time>2022-06-12T12:40:21Z</time>
      </trkpt>
      <trkpt lat="44.53073" lon="6.70992">
        <ele>1911.5</ele>
        <time>2022-06-12T12:40:22Z</time>
      </trkpt>
      <trkpt lat="44.53075" lon="6.70992">
        <ele>1911.9</ele>
        <time>2022-06-12T12:40:23Z</time>
      </trkpt>
      <trkpt lat="44.53077" lon="6.70993">
        <ele>1912.1</ele>
        <time>2022-06-12T12:40:24Z</time>
      </trkpt>
      <trkpt lat="44.53079" lon="6.70995">
        <ele>1912.2</ele>
        <time>2022-06-12T12:40:25Z</time>
      </trkpt>
      <trkpt lat="44.53081" lon="6.70997">
        <ele>1912.2</ele>
        <time>2022-06-12T12:40:26Z</time>
      </trkpt>
      <trkpt lat="44.53082" lon="6.70999">
        <ele>1912</ele>
        <time>2022-06-12T12:40:27Z</time>
      </trkpt>
      <trkpt lat="44.53083" lon="6.71002">
        <ele>1912.2</ele>
        <time>2022-06-12T12:40:28Z</time>
      </trkpt>
      <trkpt lat="44.53084" lon="6.71004">
        <ele>1913</ele>
        <time>2022-06-12T12:40:29Z</time>
      </trkpt>
      <trkpt lat="44.53084" lon="6.71007">
        <ele>1913.7</ele>
        <time>2022-06-12T12:40:30Z</time>
      </trkpt>
      <trkpt lat="44.53083" lon="6.7101">
        <ele>1914.2</ele>
        <time>2022-06-12T12:40:31Z</time>
      </trkpt>
      <trkpt lat="44.53083" lon="6.71014">
        <ele>1914.8</ele>
        <time>2022-06-12T12:40:32Z</time>
      </trkpt>
      <trkpt lat="44.53082" lon="6.71018">
        <ele>1915.3</ele>
        <time>2022-06-12T12:40:33Z</time>
      </trkpt>
      <trkpt lat="44.53081" lon="6.71019">
        <ele>1915.5</ele>
        <time>2022-06-12T12:40:34Z</time>
      </trkpt>
      <trkpt lat="44.5308" lon="6.71022">
        <ele>1915.7</ele>
        <time>2022-06-12T12:40:35Z</time>
      </trkpt>
      <trkpt lat="44.53079" lon="6.71024">
        <ele>1915.7</ele>
        <time>2022-06-12T12:40:36Z</time>
      </trkpt>
      <trkpt lat="44.53077" lon="6.71027">
        <ele>1915.6</ele>
        <time>2022-06-12T12:40:37Z</time>
      </trkpt>
      <trkpt lat="44.53076" lon="6.71029">
        <ele>1915.6</ele>
        <time>2022-06-12T12:40:38Z</time>
      </trkpt>
      <trkpt lat="44.53075" lon="6.71031">
        <ele>1915.6</ele>
        <time>2022-06-12T12:40:39Z</time>
      </trkpt>
      <trkpt lat="44.53073" lon="6.71033">
        <ele>1915.6</ele>
        <time>2022-06-12T12:40:40Z</time>
      </trkpt>
      <trkpt lat="44.53072" lon="6.71036">
        <ele>1915.7</ele>
        <time>2022-06-12T12:40:41Z</time>
      </trkpt>
      <trkpt lat="44.5307" lon="6.71038">
        <ele>1915.6</ele>
        <time>2022-06-12T12:40:42Z</time>
      </trkpt>
      <trkpt lat="44.53068" lon="6.71041">
        <ele>1915.5</ele>
        <time>2022-06-12T12:40:43Z</time>
      </trkpt>
      <trkpt lat="44.53067" lon="6.71043">
        <ele>1915.5</ele>
        <time>2022-06-12T12:40:44Z</time>
      </trkpt>
      <trkpt lat="44.53065" lon="6.71046">
        <ele>1915.4</ele>
        <time>2022-06-12T12:40:45Z</time>
      </trkpt>
      <trkpt lat="44.53064" lon="6.71048">
        <ele>1915.3</ele>
        <time>2022-06-12T12:40:46Z</time>
      </trkpt>
      <trkpt lat="44.53063" lon="6.7105">
        <ele>1915.2</ele>
        <time>2022-06-12T12:40:47Z</time>
      </trkpt>
      <trkpt lat="44.53061" lon="6.71053">
        <ele>1915</ele>
        <time>2022-06-12T12:40:48Z</time>
      </trkpt>
      <trkpt lat="44.5306" lon="6.71055">
        <ele>1914.8</ele>
        <time>2022-06-12T12:40:49Z</time>
      </trkpt>
      <trkpt lat="44.53058" lon="6.71058">
        <ele>1914.5</ele>
        <time>2022-06-12T12:40:50Z</time>
      </trkpt>
      <trkpt lat="44.53056" lon="6.7106">
        <ele>1914.4</ele>
        <time>2022-06-12T12:40:51Z</time>
      </trkpt>
      <trkpt lat="44.53055" lon="6.71063">
        <ele>1914.3</ele>
        <time>2022-06-12T12:40:52Z</time>
      </trkpt>
      <trkpt lat="44.53054" lon="6.71066">
        <ele>1914.4</ele>
        <time>2022-06-12T12:40:53Z</time>
      </trkpt>
      <trkpt lat="44.53052" lon="6.7107">
        <ele>1914.6</ele>
        <time>2022-06-12T12:40:54Z</time>
      </trkpt>
      <trkpt lat="44.53052" lon="6.71071">
        <ele>1914.7</ele>
        <time>2022-06-12T12:40:55Z</time>
      </trkpt>
      <trkpt lat="44.53051" lon="6.71074">
        <ele>1914.9</ele>
        <time>2022-06-12T12:40:56Z</time>
      </trkpt>
      <trkpt lat="44.5305" lon="6.71077">
        <ele>1915.1</ele>
        <time>2022-06-12T12:40:57Z</time>
      </trkpt>
      <trkpt lat="44.53049" lon="6.7108">
        <ele>1915.4</ele>
        <time>2022-06-12T12:40:58Z</time>
      </trkpt>
      <trkpt lat="44.53048" lon="6.71083">
        <ele>1915.7</ele>
        <time>2022-06-12T12:40:59Z</time>
      </trkpt>
      <trkpt lat="44.53047" lon="6.71085">
        <ele>1915.8</ele>
        <time>2022-06-12T12:41:00Z</time>
      </trkpt>
      <trkpt lat="44.53046" lon="6.71088">
        <ele>1915.8</ele>
        <time>2022-06-12T12:41:01Z</time>
      </trkpt>
      <trkpt lat="44.53045" lon="6.71091">
        <ele>1915.8</ele>
        <time>2022-06-12T12:41:02Z</time>
      </trkpt>
      <trkpt lat="44.53044" lon="6.71094">
        <ele>1915.9</ele>
        <time>2022-06-12T12:41:03Z</time>
      </trkpt>
      <trkpt lat="44.53044" lon="6.71097">
        <ele>1916.1</ele>
        <time>2022-06-12T12:41:04Z</time>
      </trkpt>
      <trkpt lat="44.53043" lon="6.711">
        <ele>1916.3</ele>
        <time>2022-06-12T12:41:05Z</time>
      </trkpt>
      <trkpt lat="44.53042" lon="6.71103">
        <ele>1916.5</ele>
        <time>2022-06-12T12:41:06Z</time>
      </trkpt>
      <trkpt lat="44.53042" lon="6.71106">
        <ele>1916.7</ele>
        <time>2022-06-12T12:41:07Z</time>
      </trkpt>
      <trkpt lat="44.53041" lon="6.71109">
        <ele>1917</ele>
        <time>2022-06-12T12:41:08Z</time>
      </trkpt>
      <trkpt lat="44.5304" lon="6.71112">
        <ele>1917.1</ele>
        <time>2022-06-12T12:41:09Z</time>
      </trkpt>
      <trkpt lat="44.53039" lon="6.71117">
        <ele>1917.1</ele>
        <time>2022-06-12T12:41:10Z</time>
      </trkpt>
      <trkpt lat="44.53039" lon="6.71119">
        <ele>1917.2</ele>
        <time>2022-06-12T12:41:11Z</time>
      </trkpt>
      <trkpt lat="44.53039" lon="6.71123">
        <ele>1917.3</ele>
        <time>2022-06-12T12:41:12Z</time>
      </trkpt>
      <trkpt lat="44.53039" lon="6.71126">
        <ele>1917.5</ele>
        <time>2022-06-12T12:41:13Z</time>
      </trkpt>
      <trkpt lat="44.53039" lon="6.71129">
        <ele>1917.7</ele>
        <time>2022-06-12T12:41:14Z</time>
      </trkpt>
      <trkpt lat="44.53039" lon="6.71133">
        <ele>1917.9</ele>
        <time>2022-06-12T12:41:15Z</time>
      </trkpt>
      <trkpt lat="44.53039" lon="6.71136">
        <ele>1918.1</ele>
        <time>2022-06-12T12:41:16Z</time>
      </trkpt>
      <trkpt lat="44.53039" lon="6.71139">
        <ele>1918.3</ele>
        <time>2022-06-12T12:41:17Z</time>
      </trkpt>
      <trkpt lat="44.5304" lon="6.71143">
        <ele>1918.5</ele>
        <time>2022-06-12T12:41:18Z</time>
      </trkpt>
      <trkpt lat="44.5304" lon="6.71146">
        <ele>1918.7</ele>
        <time>2022-06-12T12:41:19Z</time>
      </trkpt>
      <trkpt lat="44.5304" lon="6.71149">
        <ele>1918.9</ele>
        <time>2022-06-12T12:41:20Z</time>
      </trkpt>
      <trkpt lat="44.5304" lon="6.71152">
        <ele>1919</ele>
        <time>2022-06-12T12:41:21Z</time>
      </trkpt>
      <trkpt lat="44.53041" lon="6.71155">
        <ele>1919.2</ele>
        <time>2022-06-12T12:41:22Z</time>
      </trkpt>
      <trkpt lat="44.53041" lon="6.71158">
        <ele>1919.5</ele>
        <time>2022-06-12T12:41:23Z</time>
      </trkpt>
      <trkpt lat="44.53042" lon="6.71162">
        <ele>1919.8</ele>
        <time>2022-06-12T12:41:24Z</time>
      </trkpt>
      <trkpt lat="44.53042" lon="6.71165">
        <ele>1920.1</ele>
        <time>2022-06-12T12:41:25Z</time>
      </trkpt>
      <trkpt lat="44.53043" lon="6.71168">
        <ele>1920.4</ele>
        <time>2022-06-12T12:41:26Z</time>
      </trkpt>
      <trkpt lat="44.53043" lon="6.71171">
        <ele>1920.6</ele>
        <time>2022-06-12T12:41:27Z</time>
      </trkpt>
      <trkpt lat="44.53044" lon="6.71174">
        <ele>1920.9</ele>
        <time>2022-06-12T12:41:28Z</time>
      </trkpt>
      <trkpt lat="44.53045" lon="6.71177">
        <ele>1921.2</ele>
        <time>2022-06-12T12:41:29Z</time>
      </trkpt>
      <trkpt lat="44.53045" lon="6.71181">
        <ele>1921.5</ele>
        <time>2022-06-12T12:41:30Z</time>
      </trkpt>
      <trkpt lat="44.53046" lon="6.71185">
        <ele>1922</ele>
        <time>2022-06-12T12:41:31Z</time>
      </trkpt>
      <trkpt lat="44.53047" lon="6.71186">
        <ele>1922.2</ele>
        <time>2022-06-12T12:41:32Z</time>
      </trkpt>
      <trkpt lat="44.53048" lon="6.71189">
        <ele>1922.5</ele>
        <time>2022-06-12T12:41:33Z</time>
      </trkpt>
      <trkpt lat="44.53048" lon="6.71192">
        <ele>1922.8</ele>
        <time>2022-06-12T12:41:34Z</time>
      </trkpt>
      <trkpt lat="44.53049" lon="6.71195">
        <ele>1923.1</ele>
        <time>2022-06-12T12:41:35Z</time>
      </trkpt>
      <trkpt lat="44.5305" lon="6.71198">
        <ele>1923.5</ele>
        <time>2022-06-12T12:41:36Z</time>
      </trkpt>
      <trkpt lat="44.53052" lon="6.712">
        <ele>1923.9</ele>
        <time>2022-06-12T12:41:37Z</time>
      </trkpt>
      <trkpt lat="44.53053" lon="6.71203">
        <ele>1924.2</ele>
        <time>2022-06-12T12:41:38Z</time>
      </trkpt>
      <trkpt lat="44.53054" lon="6.71205">
        <ele>1924.7</ele>
        <time>2022-06-12T12:41:39Z</time>
      </trkpt>
      <trkpt lat="44.53056" lon="6.71209">
        <ele>1925.2</ele>
        <time>2022-06-12T12:41:40Z</time>
      </trkpt>
      <trkpt lat="44.53057" lon="6.7121">
        <ele>1925.3</ele>
        <time>2022-06-12T12:41:41Z</time>
      </trkpt>
      <trkpt lat="44.53058" lon="6.71213">
        <ele>1925.6</ele>
        <time>2022-06-12T12:41:42Z</time>
      </trkpt>
      <trkpt lat="44.53059" lon="6.71216">
        <ele>1925.9</ele>
        <time>2022-06-12T12:41:43Z</time>
      </trkpt>
      <trkpt lat="44.53061" lon="6.71218">
        <ele>1926.2</ele>
        <time>2022-06-12T12:41:44Z</time>
      </trkpt>
      <trkpt lat="44.53062" lon="6.71221">
        <ele>1926.4</ele>
        <time>2022-06-12T12:41:45Z</time>
      </trkpt>
      <trkpt lat="44.53063" lon="6.71224">
        <ele>1926.4</ele>
        <time>2022-06-12T12:41:46Z</time>
      </trkpt>
      <trkpt lat="44.53064" lon="6.71227">
        <ele>1926.3</ele>
        <time>2022-06-12T12:41:47Z</time>
      </trkpt>
      <trkpt lat="44.53065" lon="6.7123">
        <ele>1926.2</ele>
        <time>2022-06-12T12:41:48Z</time>
      </trkpt>
      <trkpt lat="44.53066" lon="6.71232">
        <ele>1926.2</ele>
        <time>2022-06-12T12:41:49Z</time>
      </trkpt>
      <trkpt lat="44.53067" lon="6.71235">
        <ele>1926.2</ele>
        <time>2022-06-12T12:41:50Z</time>
      </trkpt>
      <trkpt lat="44.53068" lon="6.71237">
        <ele>1926.2</ele>
        <time>2022-06-12T12:41:51Z</time>
      </trkpt>
      <trkpt lat="44.53069" lon="6.7124">
        <ele>1926.2</ele>
        <time>2022-06-12T12:41:52Z</time>
      </trkpt>
      <trkpt lat="44.5307" lon="6.71243">
        <ele>1926.2</ele>
        <time>2022-06-12T12:41:53Z</time>
      </trkpt>
      <trkpt lat="44.53071" lon="6.71247">
        <ele>1926.2</ele>
        <time>2022-06-12T12:41:54Z</time>
      </trkpt>
      <trkpt lat="44.53071" lon="6.71248">
        <ele>1926.3</ele>
        <time>2022-06-12T12:41:55Z</time>
      </trkpt>
      <trkpt lat="44.53073" lon="6.71251">
        <ele>1926.4</ele>
        <time>2022-06-12T12:41:56Z</time>
      </trkpt>
      <trkpt lat="44.53074" lon="6.71254">
        <ele>1926.6</ele>
        <time>2022-06-12T12:41:57Z</time>
      </trkpt>
      <trkpt lat="44.53075" lon="6.71256">
        <ele>1926.8</ele>
        <time>2022-06-12T12:41:58Z</time>
      </trkpt>
      <trkpt lat="44.53076" lon="6.71259">
        <ele>1927</ele>
        <time>2022-06-12T12:41:59Z</time>
      </trkpt>
      <trkpt lat="44.53077" lon="6.71261">
        <ele>1927.2</ele>
        <time>2022-06-12T12:42:00Z</time>
      </trkpt>
      <trkpt lat="44.53078" lon="6.71264">
        <ele>1927.4</ele>
        <time>2022-06-12T12:42:01Z</time>
      </trkpt>
      <trkpt lat="44.53079" lon="6.71266">
        <ele>1927.6</ele>
        <time>2022-06-12T12:42:02Z</time>
      </trkpt>
      <trkpt lat="44.5308" lon="6.71269">
        <ele>1927.9</ele>
        <time>2022-06-12T12:42:03Z</time>
      </trkpt>
      <trkpt lat="44.53081" lon="6.71271">
        <ele>1928.2</ele>
        <time>2022-06-12T12:42:04Z</time>
      </trkpt>
      <trkpt lat="44.53082" lon="6.71273">
        <ele>1928.7</ele>
        <time>2022-06-12T12:42:05Z</time>
      </trkpt>
      <trkpt lat="44.53084" lon="6.71275">
        <ele>1929.1</ele>
        <time>2022-06-12T12:42:06Z</time>
      </trkpt>
      <trkpt lat="44.53085" lon="6.71278">
        <ele>1929.4</ele>
        <time>2022-06-12T12:42:07Z</time>
      </trkpt>
      <trkpt lat="44.53086" lon="6.7128">
        <ele>1929.3</ele>
        <time>2022-06-12T12:42:08Z</time>
      </trkpt>
      <trkpt lat="44.53087" lon="6.71283">
        <ele>1929.1</ele>
        <time>2022-06-12T12:42:09Z</time>
      </trkpt>
      <trkpt lat="44.53088" lon="6.71286">
        <ele>1929</ele>
        <time>2022-06-12T12:42:10Z</time>
      </trkpt>
      <trkpt lat="44.53089" lon="6.71288">
        <ele>1929</ele>
        <time>2022-06-12T12:42:11Z</time>
      </trkpt>
      <trkpt lat="44.5309" lon="6.7129">
        <ele>1929</ele>
        <time>2022-06-12T12:42:12Z</time>
      </trkpt>
      <trkpt lat="44.53091" lon="6.71293">
        <ele>1929</ele>
        <time>2022-06-12T12:42:13Z</time>
      </trkpt>
      <trkpt lat="44.53093" lon="6.71295">
        <ele>1929.1</ele>
        <time>2022-06-12T12:42:14Z</time>
      </trkpt>
      <trkpt lat="44.53094" lon="6.71297">
        <ele>1929.2</ele>
        <time>2022-06-12T12:42:15Z</time>
      </trkpt>
      <trkpt lat="44.53096" lon="6.71299">
        <ele>1929.4</ele>
        <time>2022-06-12T12:42:16Z</time>
      </trkpt>
      <trkpt lat="44.53098" lon="6.71301">
        <ele>1929.7</ele>
        <time>2022-06-12T12:42:17Z</time>
      </trkpt>
      <trkpt lat="44.53099" lon="6.71303">
        <ele>1929.9</ele>
        <time>2022-06-12T12:42:18Z</time>
      </trkpt>
      <trkpt lat="44.53101" lon="6.71304">
        <ele>1930.3</ele>
        <time>2022-06-12T12:42:19Z</time>
      </trkpt>
      <trkpt lat="44.53103" lon="6.71306">
        <ele>1930.7</ele>
        <time>2022-06-12T12:42:20Z</time>
      </trkpt>
      <trkpt lat="44.53105" lon="6.71307">
        <ele>1931.2</ele>
        <time>2022-06-12T12:42:21Z</time>
      </trkpt>
      <trkpt lat="44.53107" lon="6.71308">
        <ele>1931.6</ele>
        <time>2022-06-12T12:42:22Z</time>
      </trkpt>
      <trkpt lat="44.53109" lon="6.7131">
        <ele>1932.1</ele>
        <time>2022-06-12T12:42:23Z</time>
      </trkpt>
      <trkpt lat="44.53111" lon="6.71311">
        <ele>1932.6</ele>
        <time>2022-06-12T12:42:24Z</time>
      </trkpt>
      <trkpt lat="44.53113" lon="6.71312">
        <ele>1933</ele>
        <time>2022-06-12T12:42:25Z</time>
      </trkpt>
      <trkpt lat="44.53115" lon="6.71312">
        <ele>1933.3</ele>
        <time>2022-06-12T12:42:26Z</time>
      </trkpt>
      <trkpt lat="44.53117" lon="6.71313">
        <ele>1933.7</ele>
        <time>2022-06-12T12:42:27Z</time>
      </trkpt>
      <trkpt lat="44.53119" lon="6.71313">
        <ele>1934.2</ele>
        <time>2022-06-12T12:42:28Z</time>
      </trkpt>
      <trkpt lat="44.53121" lon="6.71312">
        <ele>1934.7</ele>
        <time>2022-06-12T12:42:29Z</time>
      </trkpt>
      <trkpt lat="44.53123" lon="6.71312">
        <ele>1935.1</ele>
        <time>2022-06-12T12:42:30Z</time>
      </trkpt>
      <trkpt lat="44.53125" lon="6.71311">
        <ele>1935.5</ele>
        <time>2022-06-12T12:42:31Z</time>
      </trkpt>
      <trkpt lat="44.53127" lon="6.7131">
        <ele>1935.9</ele>
        <time>2022-06-12T12:42:32Z</time>
      </trkpt>
      <trkpt lat="44.53129" lon="6.71309">
        <ele>1936.2</ele>
        <time>2022-06-12T12:42:33Z</time>
      </trkpt>
      <trkpt lat="44.53131" lon="6.71307">
        <ele>1936.5</ele>
        <time>2022-06-12T12:42:34Z</time>
      </trkpt>
      <trkpt lat="44.53133" lon="6.71306">
        <ele>1936.9</ele>
        <time>2022-06-12T12:42:35Z</time>
      </trkpt>
      <trkpt lat="44.53134" lon="6.71304">
        <ele>1937.2</ele>
        <time>2022-06-12T12:42:36Z</time>
      </trkpt>
      <trkpt lat="44.53136" lon="6.71302">
        <ele>1937.5</ele>
        <time>2022-06-12T12:42:37Z</time>
      </trkpt>
      <trkpt lat="44.53138" lon="6.713">
        <ele>1937.8</ele>
        <time>2022-06-12T12:42:38Z</time>
      </trkpt>
      <trkpt lat="44.53139" lon="6.71298">
        <ele>1938</ele>
        <time>2022-06-12T12:42:39Z</time>
      </trkpt>
      <trkpt lat="44.5314" lon="6.71296">
        <ele>1938.4</ele>
        <time>2022-06-12T12:42:40Z</time>
      </trkpt>
      <trkpt lat="44.53142" lon="6.71293">
        <ele>1938.7</ele>
        <time>2022-06-12T12:42:41Z</time>
      </trkpt>
      <trkpt lat="44.53143" lon="6.71291">
        <ele>1939.1</ele>
        <time>2022-06-12T12:42:42Z</time>
      </trkpt>
      <trkpt lat="44.53144" lon="6.71288">
        <ele>1939.3</ele>
        <time>2022-06-12T12:42:43Z</time>
      </trkpt>
      <trkpt lat="44.53145" lon="6.71285">
        <ele>1939.5</ele>
        <time>2022-06-12T12:42:44Z</time>
      </trkpt>
      <trkpt lat="44.53145" lon="6.71283">
        <ele>1939.6</ele>
        <time>2022-06-12T12:42:45Z</time>
      </trkpt>
      <trkpt lat="44.53146" lon="6.7128">
        <ele>1939.7</ele>
        <time>2022-06-12T12:42:46Z</time>
      </trkpt>
      <trkpt lat="44.53146" lon="6.71277">
        <ele>1939.9</ele>
        <time>2022-06-12T12:42:47Z</time>
      </trkpt>
      <trkpt lat="44.53146" lon="6.71273">
        <ele>1940.1</ele>
        <time>2022-06-12T12:42:48Z</time>
      </trkpt>
      <trkpt lat="44.53146" lon="6.7127">
        <ele>1940.2</ele>
        <time>2022-06-12T12:42:49Z</time>
      </trkpt>
      <trkpt lat="44.53146" lon="6.71267">
        <ele>1940.4</ele>
        <time>2022-06-12T12:42:50Z</time>
      </trkpt>
      <trkpt lat="44.53146" lon="6.71264">
        <ele>1940.4</ele>
        <time>2022-06-12T12:42:51Z</time>
      </trkpt>
      <trkpt lat="44.53145" lon="6.71261">
        <ele>1940.5</ele>
        <time>2022-06-12T12:42:52Z</time>
      </trkpt>
      <trkpt lat="44.53144" lon="6.71259">
        <ele>1940.4</ele>
        <time>2022-06-12T12:42:53Z</time>
      </trkpt>
      <trkpt lat="44.53143" lon="6.71256">
        <ele>1940.4</ele>
        <time>2022-06-12T12:42:54Z</time>
      </trkpt>
      <trkpt lat="44.53142" lon="6.71253">
        <ele>1940.4</ele>
        <time>2022-06-12T12:42:55Z</time>
      </trkpt>
      <trkpt lat="44.53141" lon="6.7125">
        <ele>1940.4</ele>
        <time>2022-06-12T12:42:56Z</time>
      </trkpt>
      <trkpt lat="44.5314" lon="6.71248">
        <ele>1940.4</ele>
        <time>2022-06-12T12:42:57Z</time>
      </trkpt>
      <trkpt lat="44.5314" lon="6.71245">
        <ele>1940.5</ele>
        <time>2022-06-12T12:42:58Z</time>
      </trkpt>
      <trkpt lat="44.53139" lon="6.71242">
        <ele>1940.6</ele>
        <time>2022-06-12T12:42:59Z</time>
      </trkpt>
      <trkpt lat="44.53138" lon="6.71239">
        <ele>1940.7</ele>
        <time>2022-06-12T12:43:00Z</time>
      </trkpt>
      <trkpt lat="44.53137" lon="6.71236">
        <ele>1940.8</ele>
        <time>2022-06-12T12:43:01Z</time>
      </trkpt>
      <trkpt lat="44.53137" lon="6.71233">
        <ele>1940.9</ele>
        <time>2022-06-12T12:43:02Z</time>
      </trkpt>
      <trkpt lat="44.53136" lon="6.7123">
        <ele>1941</ele>
        <time>2022-06-12T12:43:03Z</time>
      </trkpt>
      <trkpt lat="44.53135" lon="6.71227">
        <ele>1941</ele>
        <time>2022-06-12T12:43:04Z</time>
      </trkpt>
      <trkpt lat="44.53134" lon="6.71224">
        <ele>1941</ele>
        <time>2022-06-12T12:43:05Z</time>
      </trkpt>
      <trkpt lat="44.53133" lon="6.71221">
        <ele>1941.2</ele>
        <time>2022-06-12T12:43:06Z</time>
      </trkpt>
      <trkpt lat="44.53132" lon="6.71218">
        <ele>1941.5</ele>
        <time>2022-06-12T12:43:07Z</time>
      </trkpt>
      <trkpt lat="44.53131" lon="6.71215">
        <ele>1941.6</ele>
        <time>2022-06-12T12:43:08Z</time>
      </trkpt>
      <trkpt lat="44.5313" lon="6.71212">
        <ele>1941.9</ele>
        <time>2022-06-12T12:43:09Z</time>
      </trkpt>
      <trkpt lat="44.53129" lon="6.7121">
        <ele>1942</ele>
        <time>2022-06-12T12:43:10Z</time>
      </trkpt>
      <trkpt lat="44.53128" lon="6.71207">
        <ele>1942.2</ele>
        <time>2022-06-12T12:43:11Z</time>
      </trkpt>
      <trkpt lat="44.53127" lon="6.71204">
        <ele>1942.4</ele>
        <time>2022-06-12T12:43:12Z</time>
      </trkpt>
      <trkpt lat="44.53126" lon="6.71201">
        <ele>1942.6</ele>
        <time>2022-06-12T12:43:13Z</time>
      </trkpt>
      <trkpt lat="44.53125" lon="6.71199">
        <ele>1942.8</ele>
        <time>2022-06-12T12:43:14Z</time>
      </trkpt>
      <trkpt lat="44.53124" lon="6.71196">
        <ele>1943.1</ele>
        <time>2022-06-12T12:43:15Z</time>
      </trkpt>
      <trkpt lat="44.53123" lon="6.71193">
        <ele>1943.4</ele>
        <time>2022-06-12T12:43:16Z</time>
      </trkpt>
      <trkpt lat="44.53122" lon="6.7119">
        <ele>1943.7</ele>
        <time>2022-06-12T12:43:17Z</time>
      </trkpt>
      <trkpt lat="44.53121" lon="6.71186">
        <ele>1944.1</ele>
        <time>2022-06-12T12:43:18Z</time>
      </trkpt>
      <trkpt lat="44.5312" lon="6.71184">
        <ele>1944.3</ele>
        <time>2022-06-12T12:43:19Z</time>
      </trkpt>
      <trkpt lat="44.53119" lon="6.71181">
        <ele>1944.5</ele>
        <time>2022-06-12T12:43:20Z</time>
      </trkpt>
      <trkpt lat="44.53119" lon="6.71178">
        <ele>1944.8</ele>
        <time>2022-06-12T12:43:21Z</time>
      </trkpt>
      <trkpt lat="44.53118" lon="6.71175">
        <ele>1945.2</ele>
        <time>2022-06-12T12:43:22Z</time>
      </trkpt>
      <trkpt lat="44.53118" lon="6.71172">
        <ele>1945.6</ele>
        <time>2022-06-12T12:43:23Z</time>
      </trkpt>
      <trkpt lat="44.53118" lon="6.71169">
        <ele>1946</ele>
        <time>2022-06-12T12:43:24Z</time>
      </trkpt>
      <trkpt lat="44.53117" lon="6.71166">
        <ele>1946.4</ele>
        <time>2022-06-12T12:43:25Z</time>
      </trkpt>
      <trkpt lat="44.53117" lon="6.71163">
        <ele>1946.6</ele>
        <time>2022-06-12T12:43:26Z</time>
      </trkpt>
      <trkpt lat="44.53117" lon="6.71159">
        <ele>1946.8</ele>
        <time>2022-06-12T12:43:27Z</time>
      </trkpt>
      <trkpt lat="44.53116" lon="6.71156">
        <ele>1946.9</ele>
        <time>2022-06-12T12:43:28Z</time>
      </trkpt>
      <trkpt lat="44.53115" lon="6.71153">
        <ele>1947</ele>
        <time>2022-06-12T12:43:29Z</time>
      </trkpt>
      <trkpt lat="44.53115" lon="6.7115">
        <ele>1947.1</ele>
        <time>2022-06-12T12:43:30Z</time>
      </trkpt>
      <trkpt lat="44.53114" lon="6.71147">
        <ele>1947.2</ele>
        <time>2022-06-12T12:43:31Z</time>
      </trkpt>
      <trkpt lat="44.53114" lon="6.71144">
        <ele>1947.4</ele>
        <time>2022-06-12T12:43:32Z</time>
      </trkpt>
      <trkpt lat="44.53114" lon="6.7114">
        <ele>1947.7</ele>
        <time>2022-06-12T12:43:33Z</time>
      </trkpt>
      <trkpt lat="44.53114" lon="6.71137">
        <ele>1947.7</ele>
        <time>2022-06-12T12:43:34Z</time>
      </trkpt>
      <trkpt lat="44.53115" lon="6.71134">
        <ele>1947.9</ele>
        <time>2022-06-12T12:43:35Z</time>
      </trkpt>
      <trkpt lat="44.53115" lon="6.71131">
        <ele>1948</ele>
        <time>2022-06-12T12:43:36Z</time>
      </trkpt>
      <trkpt lat="44.53116" lon="6.71128">
        <ele>1948</ele>
        <time>2022-06-12T12:43:37Z</time>
      </trkpt>
      <trkpt lat="44.53116" lon="6.71124">
        <ele>1948</ele>
        <time>2022-06-12T12:43:38Z</time>
      </trkpt>
      <trkpt lat="44.53115" lon="6.71121">
        <ele>1948</ele>
        <time>2022-06-12T12:43:39Z</time>
      </trkpt>
      <trkpt lat="44.53115" lon="6.71118">
        <ele>1947.9</ele>
        <time>2022-06-12T12:43:40Z</time>
      </trkpt>
      <trkpt lat="44.53115" lon="6.71115">
        <ele>1947.9</ele>
        <time>2022-06-12T12:43:41Z</time>
      </trkpt>
      <trkpt lat="44.53116" lon="6.71112">
        <ele>1948.1</ele>
        <time>2022-06-12T12:43:42Z</time>
      </trkpt>
      <trkpt lat="44.53117" lon="6.71109">
        <ele>1948.2</ele>
        <time>2022-06-12T12:43:43Z</time>
      </trkpt>
      <trkpt lat="44.53117" lon="6.71106">
        <ele>1948.4</ele>
        <time>2022-06-12T12:43:44Z</time>
      </trkpt>
      <trkpt lat="44.53118" lon="6.71104">
        <ele>1948.6</ele>
        <time>2022-06-12T12:43:45Z</time>
      </trkpt>
      <trkpt lat="44.53119" lon="6.71101">
        <ele>1948.8</ele>
        <time>2022-06-12T12:43:46Z</time>
      </trkpt>
      <trkpt lat="44.5312" lon="6.71097">
        <ele>1949</ele>
        <time>2022-06-12T12:43:47Z</time>
      </trkpt>
      <trkpt lat="44.5312" lon="6.71094">
        <ele>1949.1</ele>
        <time>2022-06-12T12:43:48Z</time>
      </trkpt>
      <trkpt lat="44.53121" lon="6.71091">
        <ele>1949.3</ele>
        <time>2022-06-12T12:43:49Z</time>
      </trkpt>
      <trkpt lat="44.53121" lon="6.71088">
        <ele>1949.4</ele>
        <time>2022-06-12T12:43:50Z</time>
      </trkpt>
      <trkpt lat="44.53122" lon="6.71085">
        <ele>1949.6</ele>
        <time>2022-06-12T12:43:51Z</time>
      </trkpt>
      <trkpt lat="44.53123" lon="6.71082">
        <ele>1949.9</ele>
        <time>2022-06-12T12:43:52Z</time>
      </trkpt>
      <trkpt lat="44.53124" lon="6.7108">
        <ele>1950.2</ele>
        <time>2022-06-12T12:43:53Z</time>
      </trkpt>
      <trkpt lat="44.53125" lon="6.71077">
        <ele>1950.4</ele>
        <time>2022-06-12T12:43:54Z</time>
      </trkpt>
      <trkpt lat="44.53126" lon="6.71075">
        <ele>1950.7</ele>
        <time>2022-06-12T12:43:55Z</time>
      </trkpt>
      <trkpt lat="44.53127" lon="6.71072">
        <ele>1950.9</ele>
        <time>2022-06-12T12:43:56Z</time>
      </trkpt>
      <trkpt lat="44.53128" lon="6.71069">
        <ele>1951.2</ele>
        <time>2022-06-12T12:43:57Z</time>
      </trkpt>
      <trkpt lat="44.53129" lon="6.71067">
        <ele>1951.5</ele>
        <time>2022-06-12T12:43:58Z</time>
      </trkpt>
      <trkpt lat="44.5313" lon="6.71064">
        <ele>1951.9</ele>
        <time>2022-06-12T12:43:59Z</time>
      </trkpt>
      <trkpt lat="44.53131" lon="6.71062">
        <ele>1952.4</ele>
        <time>2022-06-12T12:44:00Z</time>
      </trkpt>
      <trkpt lat="44.53132" lon="6.71059">
        <ele>1953</ele>
        <time>2022-06-12T12:44:01Z</time>
      </trkpt>
      <trkpt lat="44.53134" lon="6.71057">
        <ele>1953.6</ele>
        <time>2022-06-12T12:44:02Z</time>
      </trkpt>
      <trkpt lat="44.53135" lon="6.71055">
        <ele>1954</ele>
        <time>2022-06-12T12:44:03Z</time>
      </trkpt>
      <trkpt lat="44.53136" lon="6.71053">
        <ele>1954.3</ele>
        <time>2022-06-12T12:44:04Z</time>
      </trkpt>
      <trkpt lat="44.53137" lon="6.71051">
        <ele>1954.4</ele>
        <time>2022-06-12T12:44:05Z</time>
      </trkpt>
      <trkpt lat="44.53138" lon="6.71048">
        <ele>1954.7</ele>
        <time>2022-06-12T12:44:06Z</time>
      </trkpt>
      <trkpt lat="44.5314" lon="6.71046">
        <ele>1954.8</ele>
        <time>2022-06-12T12:44:07Z</time>
      </trkpt>
      <trkpt lat="44.53141" lon="6.71044">
        <ele>1954.9</ele>
        <time>2022-06-12T12:44:08Z</time>
      </trkpt>
      <trkpt lat="44.53142" lon="6.71042">
        <ele>1955.1</ele>
        <time>2022-06-12T12:44:09Z</time>
      </trkpt>
      <trkpt lat="44.53144" lon="6.7104">
        <ele>1955.6</ele>
        <time>2022-06-12T12:44:10Z</time>
      </trkpt>
      <trkpt lat="44.53146" lon="6.71039">
        <ele>1955.9</ele>
        <time>2022-06-12T12:44:11Z</time>
      </trkpt>
      <trkpt lat="44.53147" lon="6.71037">
        <ele>1956.3</ele>
        <time>2022-06-12T12:44:12Z</time>
      </trkpt>
      <trkpt lat="44.53149" lon="6.71036">
        <ele>1956.8</ele>
        <time>2022-06-12T12:44:13Z</time>
      </trkpt>
      <trkpt lat="44.53151" lon="6.71034">
        <ele>1957.3</ele>
        <time>2022-06-12T12:44:14Z</time>
      </trkpt>
      <trkpt lat="44.53152" lon="6.71033">
        <ele>1957.8</ele>
        <time>2022-06-12T12:44:15Z</time>
      </trkpt>
      <trkpt lat="44.53154" lon="6.71031">
        <ele>1958.2</ele>
        <time>2022-06-12T12:44:16Z</time>
      </trkpt>
      <trkpt lat="44.53156" lon="6.71029">
        <ele>1958.7</ele>
        <time>2022-06-12T12:44:17Z</time>
      </trkpt>
      <trkpt lat="44.53157" lon="6.71028">
        <ele>1959.2</ele>
        <time>2022-06-12T12:44:18Z</time>
      </trkpt>
      <trkpt lat="44.53159" lon="6.71026">
        <ele>1959.4</ele>
        <time>2022-06-12T12:44:19Z</time>
      </trkpt>
      <trkpt lat="44.5316" lon="6.71024">
        <ele>1959.6</ele>
        <time>2022-06-12T12:44:20Z</time>
      </trkpt>
      <trkpt lat="44.53162" lon="6.71023">
        <ele>1960</ele>
        <time>2022-06-12T12:44:21Z</time>
      </trkpt>
      <trkpt lat="44.53164" lon="6.71022">
        <ele>1960.3</ele>
        <time>2022-06-12T12:44:22Z</time>
      </trkpt>
      <trkpt lat="44.53165" lon="6.71021">
        <ele>1960.7</ele>
        <time>2022-06-12T12:44:23Z</time>
      </trkpt>
      <trkpt lat="44.53167" lon="6.71019">
        <ele>1961.1</ele>
        <time>2022-06-12T12:44:24Z</time>
      </trkpt>
      <trkpt lat="44.53168" lon="6.71018">
        <ele>1961.3</ele>
        <time>2022-06-12T12:44:25Z</time>
      </trkpt>
      <trkpt lat="44.5317" lon="6.71017">
        <ele>1961.6</ele>
        <time>2022-06-12T12:44:26Z</time>
      </trkpt>
      <trkpt lat="44.53172" lon="6.71015">
        <ele>1961.8</ele>
        <time>2022-06-12T12:44:27Z</time>
      </trkpt>
      <trkpt lat="44.53174" lon="6.71014">
        <ele>1962</ele>
        <time>2022-06-12T12:44:28Z</time>
      </trkpt>
      <trkpt lat="44.53175" lon="6.71012">
        <ele>1962.3</ele>
        <time>2022-06-12T12:44:29Z</time>
      </trkpt>
      <trkpt lat="44.53177" lon="6.71011">
        <ele>1962.6</ele>
        <time>2022-06-12T12:44:30Z</time>
      </trkpt>
      <trkpt lat="44.53179" lon="6.71009">
        <ele>1962.8</ele>
        <time>2022-06-12T12:44:31Z</time>
      </trkpt>
      <trkpt lat="44.5318" lon="6.71008">
        <ele>1963.1</ele>
        <time>2022-06-12T12:44:32Z</time>
      </trkpt>
      <trkpt lat="44.53182" lon="6.71006">
        <ele>1963.5</ele>
        <time>2022-06-12T12:44:33Z</time>
      </trkpt>
      <trkpt lat="44.53184" lon="6.71005">
        <ele>1963.9</ele>
        <time>2022-06-12T12:44:34Z</time>
      </trkpt>
      <trkpt lat="44.53186" lon="6.71003">
        <ele>1964.2</ele>
        <time>2022-06-12T12:44:35Z</time>
      </trkpt>
      <trkpt lat="44.53187" lon="6.71002">
        <ele>1964.6</ele>
        <time>2022-06-12T12:44:36Z</time>
      </trkpt>
      <trkpt lat="44.53189" lon="6.71">
        <ele>1965</ele>
        <time>2022-06-12T12:44:37Z</time>
      </trkpt>
      <trkpt lat="44.53191" lon="6.70998">
        <ele>1965.1</ele>
        <time>2022-06-12T12:44:38Z</time>
      </trkpt>
      <trkpt lat="44.53192" lon="6.70997">
        <ele>1965.3</ele>
        <time>2022-06-12T12:44:39Z</time>
      </trkpt>
      <trkpt lat="44.53194" lon="6.70995">
        <ele>1965.5</ele>
        <time>2022-06-12T12:44:40Z</time>
      </trkpt>
      <trkpt lat="44.53196" lon="6.70994">
        <ele>1965.7</ele>
        <time>2022-06-12T12:44:41Z</time>
      </trkpt>
      <trkpt lat="44.53197" lon="6.70992">
        <ele>1965.8</ele>
        <time>2022-06-12T12:44:42Z</time>
      </trkpt>
      <trkpt lat="44.53199" lon="6.7099">
        <ele>1965.9</ele>
        <time>2022-06-12T12:44:43Z</time>
      </trkpt>
      <trkpt lat="44.532" lon="6.70989">
        <ele>1966.1</ele>
        <time>2022-06-12T12:44:44Z</time>
      </trkpt>
      <trkpt lat="44.53202" lon="6.70987">
        <ele>1966.4</ele>
        <time>2022-06-12T12:44:45Z</time>
      </trkpt>
      <trkpt lat="44.53204" lon="6.70986">
        <ele>1966.8</ele>
        <time>2022-06-12T12:44:46Z</time>
      </trkpt>
      <trkpt lat="44.53206" lon="6.70984">
        <ele>1967.1</ele>
        <time>2022-06-12T12:44:47Z</time>
      </trkpt>
      <trkpt lat="44.53207" lon="6.70983">
        <ele>1967.4</ele>
        <time>2022-06-12T12:44:48Z</time>
      </trkpt>
      <trkpt lat="44.53209" lon="6.70981">
        <ele>1967.7</ele>
        <time>2022-06-12T12:44:49Z</time>
      </trkpt>
      <trkpt lat="44.5321" lon="6.7098">
        <ele>1968.2</ele>
        <time>2022-06-12T12:44:50Z</time>
      </trkpt>
      <trkpt lat="44.53212" lon="6.70978">
        <ele>1968.5</ele>
        <time>2022-06-12T12:44:51Z</time>
      </trkpt>
      <trkpt lat="44.53214" lon="6.70977">
        <ele>1968.9</ele>
        <time>2022-06-12T12:44:52Z</time>
      </trkpt>
      <trkpt lat="44.53215" lon="6.70976">
        <ele>1969.4</ele>
        <time>2022-06-12T12:44:53Z</time>
      </trkpt>
      <trkpt lat="44.53217" lon="6.70974">
        <ele>1969.9</ele>
        <time>2022-06-12T12:44:54Z</time>
      </trkpt>
      <trkpt lat="44.53219" lon="6.70973">
        <ele>1970.5</ele>
        <time>2022-06-12T12:44:55Z</time>
      </trkpt>
      <trkpt lat="44.5322" lon="6.70971">
        <ele>1970.5</ele>
        <time>2022-06-12T12:44:56Z</time>
      </trkpt>
      <trkpt lat="44.53222" lon="6.70969">
        <ele>1970.5</ele>
        <time>2022-06-12T12:44:57Z</time>
      </trkpt>
      <trkpt lat="44.53223" lon="6.70967">
        <ele>1970.5</ele>
        <time>2022-06-12T12:44:58Z</time>
      </trkpt>
      <trkpt lat="44.53225" lon="6.70965">
        <ele>1970.6</ele>
        <time>2022-06-12T12:44:59Z</time>
      </trkpt>
      <trkpt lat="44.53226" lon="6.70963">
        <ele>1970.8</ele>
        <time>2022-06-12T12:45:00Z</time>
      </trkpt>
      <trkpt lat="44.53228" lon="6.70962">
        <ele>1971</ele>
        <time>2022-06-12T12:45:01Z</time>
      </trkpt>
      <trkpt lat="44.53229" lon="6.7096">
        <ele>1971.1</ele>
        <time>2022-06-12T12:45:02Z</time>
      </trkpt>
      <trkpt lat="44.53231" lon="6.70958">
        <ele>1971.5</ele>
        <time>2022-06-12T12:45:03Z</time>
      </trkpt>
      <trkpt lat="44.53233" lon="6.70956">
        <ele>1971.8</ele>
        <time>2022-06-12T12:45:04Z</time>
      </trkpt>
      <trkpt lat="44.53234" lon="6.70953">
        <ele>1972</ele>
        <time>2022-06-12T12:45:05Z</time>
      </trkpt>
      <trkpt lat="44.53236" lon="6.70951">
        <ele>1972.5</ele>
        <time>2022-06-12T12:45:06Z</time>
      </trkpt>
      <trkpt lat="44.53237" lon="6.70949">
        <ele>1973</ele>
        <time>2022-06-12T12:45:07Z</time>
      </trkpt>
      <trkpt lat="44.53238" lon="6.70948">
        <ele>1973.4</ele>
        <time>2022-06-12T12:45:08Z</time>
      </trkpt>
      <trkpt lat="44.5324" lon="6.70945">
        <ele>1973.8</ele>
        <time>2022-06-12T12:45:09Z</time>
      </trkpt>
      <trkpt lat="44.53241" lon="6.70943">
        <ele>1974.1</ele>
        <time>2022-06-12T12:45:10Z</time>
      </trkpt>
      <trkpt lat="44.53242" lon="6.70941">
        <ele>1974.3</ele>
        <time>2022-06-12T12:45:11Z</time>
      </trkpt>
      <trkpt lat="44.53243" lon="6.70939">
        <ele>1974.5</ele>
        <time>2022-06-12T12:45:12Z</time>
      </trkpt>
      <trkpt lat="44.53245" lon="6.70937">
        <ele>1974.8</ele>
        <time>2022-06-12T12:45:13Z</time>
      </trkpt>
      <trkpt lat="44.53246" lon="6.70935">
        <ele>1975</ele>
        <time>2022-06-12T12:45:14Z</time>
      </trkpt>
      <trkpt lat="44.53247" lon="6.70933">
        <ele>1975.2</ele>
        <time>2022-06-12T12:45:15Z</time>
      </trkpt>
      <trkpt lat="44.53248" lon="6.70931">
        <ele>1975.3</ele>
        <time>2022-06-12T12:45:16Z</time>
      </trkpt>
      <trkpt lat="44.53249" lon="6.70928">
        <ele>1975.3</ele>
        <time>2022-06-12T12:45:17Z</time>
      </trkpt>
      <trkpt lat="44.5325" lon="6.70926">
        <ele>1975.4</ele>
        <time>2022-06-12T12:45:18Z</time>
      </trkpt>
      <trkpt lat="44.53251" lon="6.70923">
        <ele>1975.3</ele>
        <time>2022-06-12T12:45:19Z</time>
      </trkpt>
      <trkpt lat="44.53252" lon="6.70921">
        <ele>1975.2</ele>
        <time>2022-06-12T12:45:20Z</time>
      </trkpt>
      <trkpt lat="44.53253" lon="6.70918">
        <ele>1975.3</ele>
        <time>2022-06-12T12:45:21Z</time>
      </trkpt>
      <trkpt lat="44.53254" lon="6.70916">
        <ele>1975.5</ele>
        <time>2022-06-12T12:45:22Z</time>
      </trkpt>
      <trkpt lat="44.53255" lon="6.70914">
        <ele>1975.7</ele>
        <time>2022-06-12T12:45:23Z</time>
      </trkpt>
      <trkpt lat="44.53256" lon="6.70912">
        <ele>1976</ele>
        <time>2022-06-12T12:45:24Z</time>
      </trkpt>
      <trkpt lat="44.53258" lon="6.7091">
        <ele>1976.3</ele>
        <time>2022-06-12T12:45:25Z</time>
      </trkpt>
      <trkpt lat="44.53259" lon="6.70908">
        <ele>1976.8</ele>
        <time>2022-06-12T12:45:26Z</time>
      </trkpt>
      <trkpt lat="44.53261" lon="6.70906">
        <ele>1977.3</ele>
        <time>2022-06-12T12:45:27Z</time>
      </trkpt>
      <trkpt lat="44.53262" lon="6.70904">
        <ele>1977.6</ele>
        <time>2022-06-12T12:45:28Z</time>
      </trkpt>
      <trkpt lat="44.53263" lon="6.70901">
        <ele>1977.8</ele>
        <time>2022-06-12T12:45:29Z</time>
      </trkpt>
      <trkpt lat="44.53264" lon="6.70899">
        <ele>1978</ele>
        <time>2022-06-12T12:45:30Z</time>
      </trkpt>
      <trkpt lat="44.53266" lon="6.70897">
        <ele>1978.3</ele>
        <time>2022-06-12T12:45:31Z</time>
      </trkpt>
      <trkpt lat="44.53267" lon="6.70895">
        <ele>1978.6</ele>
        <time>2022-06-12T12:45:32Z</time>
      </trkpt>
      <trkpt lat="44.53268" lon="6.70892">
        <ele>1978.8</ele>
        <time>2022-06-12T12:45:33Z</time>
      </trkpt>
      <trkpt lat="44.53269" lon="6.7089">
        <ele>1979.1</ele>
        <time>2022-06-12T12:45:34Z</time>
      </trkpt>
      <trkpt lat="44.53271" lon="6.70888">
        <ele>1979.3</ele>
        <time>2022-06-12T12:45:35Z</time>
      </trkpt>
      <trkpt lat="44.53272" lon="6.70886">
        <ele>1979.3</ele>
        <time>2022-06-12T12:45:36Z</time>
      </trkpt>
      <trkpt lat="44.53273" lon="6.70883">
        <ele>1979.5</ele>
        <time>2022-06-12T12:45:37Z</time>
      </trkpt>
      <trkpt lat="44.53274" lon="6.70881">
        <ele>1979.6</ele>
        <time>2022-06-12T12:45:38Z</time>
      </trkpt>
      <trkpt lat="44.53275" lon="6.70879">
        <ele>1979.8</ele>
        <time>2022-06-12T12:45:39Z</time>
      </trkpt>
      <trkpt lat="44.53277" lon="6.70878">
        <ele>1980.2</ele>
        <time>2022-06-12T12:45:40Z</time>
      </trkpt>
      <trkpt lat="44.53279" lon="6.70876">
        <ele>1980.5</ele>
        <time>2022-06-12T12:45:41Z</time>
      </trkpt>
      <trkpt lat="44.5328" lon="6.70874">
        <ele>1980.6</ele>
        <time>2022-06-12T12:45:42Z</time>
      </trkpt>
      <trkpt lat="44.53281" lon="6.70872">
        <ele>1980.6</ele>
        <time>2022-06-12T12:45:43Z</time>
      </trkpt>
      <trkpt lat="44.53283" lon="6.7087">
        <ele>1980.7</ele>
        <time>2022-06-12T12:45:44Z</time>
      </trkpt>
      <trkpt lat="44.53284" lon="6.70868">
        <ele>1981</ele>
        <time>2022-06-12T12:45:45Z</time>
      </trkpt>
      <trkpt lat="44.53286" lon="6.70866">
        <ele>1981.1</ele>
        <time>2022-06-12T12:45:46Z</time>
      </trkpt>
      <trkpt lat="44.53287" lon="6.70863">
        <ele>1981</ele>
        <time>2022-06-12T12:45:47Z</time>
      </trkpt>
      <trkpt lat="44.53288" lon="6.70861">
        <ele>1980.9</ele>
        <time>2022-06-12T12:45:48Z</time>
      </trkpt>
      <trkpt lat="44.53289" lon="6.70858">
        <ele>1981.3</ele>
        <time>2022-06-12T12:45:49Z</time>
      </trkpt>
      <trkpt lat="44.5329" lon="6.70856">
        <ele>1981.6</ele>
        <time>2022-06-12T12:45:50Z</time>
      </trkpt>
      <trkpt lat="44.53291" lon="6.70853">
        <ele>1981.8</ele>
        <time>2022-06-12T12:45:51Z</time>
      </trkpt>
      <trkpt lat="44.53292" lon="6.7085">
        <ele>1982.3</ele>
        <time>2022-06-12T12:45:52Z</time>
      </trkpt>
      <trkpt lat="44.53293" lon="6.70847">
        <ele>1982.6</ele>
        <time>2022-06-12T12:45:53Z</time>
      </trkpt>
      <trkpt lat="44.53293" lon="6.70844">
        <ele>1982.7</ele>
        <time>2022-06-12T12:45:54Z</time>
      </trkpt>
      <trkpt lat="44.53294" lon="6.70841">
        <ele>1982.6</ele>
        <time>2022-06-12T12:45:55Z</time>
      </trkpt>
      <trkpt lat="44.53294" lon="6.70838">
        <ele>1982.7</ele>
        <time>2022-06-12T12:45:56Z</time>
      </trkpt>
      <trkpt lat="44.53295" lon="6.70835">
        <ele>1982.7</ele>
        <time>2022-06-12T12:45:57Z</time>
      </trkpt>
      <trkpt lat="44.53295" lon="6.70832">
        <ele>1983.1</ele>
        <time>2022-06-12T12:45:58Z</time>
      </trkpt>
      <trkpt lat="44.53296" lon="6.70829">
        <ele>1983.5</ele>
        <time>2022-06-12T12:45:59Z</time>
      </trkpt>
      <trkpt lat="44.53296" lon="6.70826">
        <ele>1984.1</ele>
        <time>2022-06-12T12:46:00Z</time>
      </trkpt>
      <trkpt lat="44.53296" lon="6.70823">
        <ele>1984.4</ele>
        <time>2022-06-12T12:46:01Z</time>
      </trkpt>
      <trkpt lat="44.53297" lon="6.7082">
        <ele>1984.8</ele>
        <time>2022-06-12T12:46:02Z</time>
      </trkpt>
      <trkpt lat="44.53297" lon="6.70817">
        <ele>1985</ele>
        <time>2022-06-12T12:46:03Z</time>
      </trkpt>
      <trkpt lat="44.53296" lon="6.70814">
        <ele>1985.1</ele>
        <time>2022-06-12T12:46:04Z</time>
      </trkpt>
      <trkpt lat="44.53296" lon="6.70811">
        <ele>1985.2</ele>
        <time>2022-06-12T12:46:05Z</time>
      </trkpt>
      <trkpt lat="44.53295" lon="6.70808">
        <ele>1984.9</ele>
        <time>2022-06-12T12:46:06Z</time>
      </trkpt>
      <trkpt lat="44.53294" lon="6.70805">
        <ele>1984.6</ele>
        <time>2022-06-12T12:46:07Z</time>
      </trkpt>
      <trkpt lat="44.53293" lon="6.70803">
        <ele>1984.5</ele>
        <time>2022-06-12T12:46:08Z</time>
      </trkpt>
      <trkpt lat="44.53293" lon="6.708">
        <ele>1984.5</ele>
        <time>2022-06-12T12:46:09Z</time>
      </trkpt>
      <trkpt lat="44.53292" lon="6.70797">
        <ele>1984.5</ele>
        <time>2022-06-12T12:46:10Z</time>
      </trkpt>
      <trkpt lat="44.53291" lon="6.70795">
        <ele>1984.4</ele>
        <time>2022-06-12T12:46:11Z</time>
      </trkpt>
      <trkpt lat="44.5329" lon="6.70792">
        <ele>1984.4</ele>
        <time>2022-06-12T12:46:12Z</time>
      </trkpt>
      <trkpt lat="44.53289" lon="6.70789">
        <ele>1984.2</ele>
        <time>2022-06-12T12:46:13Z</time>
      </trkpt>
      <trkpt lat="44.53288" lon="6.70787">
        <ele>1984</ele>
        <time>2022-06-12T12:46:14Z</time>
      </trkpt>
      <trkpt lat="44.53286" lon="6.70784">
        <ele>1983.9</ele>
        <time>2022-06-12T12:46:15Z</time>
      </trkpt>
      <trkpt lat="44.53285" lon="6.70782">
        <ele>1983.7</ele>
        <time>2022-06-12T12:46:16Z</time>
      </trkpt>
      <trkpt lat="44.53284" lon="6.7078">
        <ele>1983.6</ele>
        <time>2022-06-12T12:46:17Z</time>
      </trkpt>
      <trkpt lat="44.53282" lon="6.70778">
        <ele>1983.5</ele>
        <time>2022-06-12T12:46:18Z</time>
      </trkpt>
      <trkpt lat="44.5328" lon="6.70776">
        <ele>1983.5</ele>
        <time>2022-06-12T12:46:19Z</time>
      </trkpt>
      <trkpt lat="44.53279" lon="6.70774">
        <ele>1983.6</ele>
        <time>2022-06-12T12:46:20Z</time>
      </trkpt>
      <trkpt lat="44.53277" lon="6.70773">
        <ele>1983.8</ele>
        <time>2022-06-12T12:46:21Z</time>
      </trkpt>
      <trkpt lat="44.53275" lon="6.70771">
        <ele>1984.4</ele>
        <time>2022-06-12T12:46:22Z</time>
      </trkpt>
      <trkpt lat="44.53273" lon="6.7077">
        <ele>1984.9</ele>
        <time>2022-06-12T12:46:23Z</time>
      </trkpt>
      <trkpt lat="44.53271" lon="6.70769">
        <ele>1985.2</ele>
        <time>2022-06-12T12:46:24Z</time>
      </trkpt>
      <trkpt lat="44.53269" lon="6.70768">
        <ele>1985.5</ele>
        <time>2022-06-12T12:46:25Z</time>
      </trkpt>
      <trkpt lat="44.53267" lon="6.70767">
        <ele>1985.8</ele>
        <time>2022-06-12T12:46:26Z</time>
      </trkpt>
      <trkpt lat="44.53265" lon="6.70766">
        <ele>1986.2</ele>
        <time>2022-06-12T12:46:27Z</time>
      </trkpt>
      <trkpt lat="44.53263" lon="6.70765">
        <ele>1986.5</ele>
        <time>2022-06-12T12:46:28Z</time>
      </trkpt>
      <trkpt lat="44.53261" lon="6.70764">
        <ele>1986.8</ele>
        <time>2022-06-12T12:46:29Z</time>
      </trkpt>
      <trkpt lat="44.53259" lon="6.70762">
        <ele>1987.1</ele>
        <time>2022-06-12T12:46:30Z</time>
      </trkpt>
      <trkpt lat="44.53257" lon="6.70761">
        <ele>1987.3</ele>
        <time>2022-06-12T12:46:31Z</time>
      </trkpt>
      <trkpt lat="44.53255" lon="6.70759">
        <ele>1987.6</ele>
        <time>2022-06-12T12:46:32Z</time>
      </trkpt>
      <trkpt lat="44.53254" lon="6.70758">
        <ele>1987.9</ele>
        <time>2022-06-12T12:46:33Z</time>
      </trkpt>
      <trkpt lat="44.53252" lon="6.70755">
        <ele>1988.2</ele>
        <time>2022-06-12T12:46:34Z</time>
      </trkpt>
      <trkpt lat="44.53251" lon="6.70753">
        <ele>1988.5</ele>
        <time>2022-06-12T12:46:35Z</time>
      </trkpt>
      <trkpt lat="44.53249" lon="6.70751">
        <ele>1988.7</ele>
        <time>2022-06-12T12:46:36Z</time>
      </trkpt>
      <trkpt lat="44.53248" lon="6.70748">
        <ele>1988.8</ele>
        <time>2022-06-12T12:46:37Z</time>
      </trkpt>
      <trkpt lat="44.53246" lon="6.70746">
        <ele>1988.9</ele>
        <time>2022-06-12T12:46:38Z</time>
      </trkpt>
      <trkpt lat="44.53245" lon="6.70744">
        <ele>1989</ele>
        <time>2022-06-12T12:46:39Z</time>
      </trkpt>
      <trkpt lat="44.53244" lon="6.70741">
        <ele>1989.2</ele>
        <time>2022-06-12T12:46:40Z</time>
      </trkpt>
      <trkpt lat="44.53243" lon="6.70738">
        <ele>1989.3</ele>
        <time>2022-06-12T12:46:41Z</time>
      </trkpt>
      <trkpt lat="44.53242" lon="6.70736">
        <ele>1989.4</ele>
        <time>2022-06-12T12:46:42Z</time>
      </trkpt>
      <trkpt lat="44.53241" lon="6.70733">
        <ele>1989.5</ele>
        <time>2022-06-12T12:46:43Z</time>
      </trkpt>
      <trkpt lat="44.5324" lon="6.7073">
        <ele>1989.6</ele>
        <time>2022-06-12T12:46:44Z</time>
      </trkpt>
      <trkpt lat="44.53239" lon="6.70727">
        <ele>1989.8</ele>
        <time>2022-06-12T12:46:45Z</time>
      </trkpt>
      <trkpt lat="44.53239" lon="6.70724">
        <ele>1990</ele>
        <time>2022-06-12T12:46:46Z</time>
      </trkpt>
      <trkpt lat="44.53238" lon="6.70721">
        <ele>1990.3</ele>
        <time>2022-06-12T12:46:47Z</time>
      </trkpt>
      <trkpt lat="44.53238" lon="6.70718">
        <ele>1990.5</ele>
        <time>2022-06-12T12:46:48Z</time>
      </trkpt>
      <trkpt lat="44.53238" lon="6.70715">
        <ele>1990.8</ele>
        <time>2022-06-12T12:46:49Z</time>
      </trkpt>
      <trkpt lat="44.53238" lon="6.70712">
        <ele>1991</ele>
        <time>2022-06-12T12:46:50Z</time>
      </trkpt>
      <trkpt lat="44.53238" lon="6.70709">
        <ele>1991.2</ele>
        <time>2022-06-12T12:46:51Z</time>
      </trkpt>
      <trkpt lat="44.53238" lon="6.70706">
        <ele>1991.4</ele>
        <time>2022-06-12T12:46:52Z</time>
      </trkpt>
      <trkpt lat="44.53238" lon="6.70703">
        <ele>1991.6</ele>
        <time>2022-06-12T12:46:53Z</time>
      </trkpt>
      <trkpt lat="44.53238" lon="6.70699">
        <ele>1991.7</ele>
        <time>2022-06-12T12:46:54Z</time>
      </trkpt>
      <trkpt lat="44.53238" lon="6.70696">
        <ele>1991.9</ele>
        <time>2022-06-12T12:46:55Z</time>
      </trkpt>
      <trkpt lat="44.53238" lon="6.70693">
        <ele>1992.2</ele>
        <time>2022-06-12T12:46:56Z</time>
      </trkpt>
      <trkpt lat="44.53237" lon="6.7069">
        <ele>1992.4</ele>
        <time>2022-06-12T12:46:57Z</time>
      </trkpt>
      <trkpt lat="44.53237" lon="6.70687">
        <ele>1992.7</ele>
        <time>2022-06-12T12:46:58Z</time>
      </trkpt>
      <trkpt lat="44.53237" lon="6.70684">
        <ele>1993</ele>
        <time>2022-06-12T12:46:59Z</time>
      </trkpt>
      <trkpt lat="44.53237" lon="6.70681">
        <ele>1993.4</ele>
        <time>2022-06-12T12:47:00Z</time>
      </trkpt>
      <trkpt lat="44.53237" lon="6.70678">
        <ele>1993.8</ele>
        <time>2022-06-12T12:47:01Z</time>
      </trkpt>
      <trkpt lat="44.53236" lon="6.70675">
        <ele>1994.1</ele>
        <time>2022-06-12T12:47:02Z</time>
      </trkpt>
      <trkpt lat="44.53236" lon="6.70672">
        <ele>1994.3</ele>
        <time>2022-06-12T12:47:03Z</time>
      </trkpt>
      <trkpt lat="44.53236" lon="6.70669">
        <ele>1994.6</ele>
        <time>2022-06-12T12:47:04Z</time>
      </trkpt>
      <trkpt lat="44.53236" lon="6.70666">
        <ele>1994.8</ele>
        <time>2022-06-12T12:47:05Z</time>
      </trkpt>
      <trkpt lat="44.53236" lon="6.70663">
        <ele>1995</ele>
        <time>2022-06-12T12:47:06Z</time>
      </trkpt>
      <trkpt lat="44.53236" lon="6.7066">
        <ele>1995.4</ele>
        <time>2022-06-12T12:47:07Z</time>
      </trkpt>
      <trkpt lat="44.53236" lon="6.70656">
        <ele>1995.7</ele>
        <time>2022-06-12T12:47:08Z</time>
      </trkpt>
      <trkpt lat="44.53236" lon="6.70654">
        <ele>1995.9</ele>
        <time>2022-06-12T12:47:09Z</time>
      </trkpt>
      <trkpt lat="44.53236" lon="6.7065">
        <ele>1996.3</ele>
        <time>2022-06-12T12:47:10Z</time>
      </trkpt>
      <trkpt lat="44.53237" lon="6.70647">
        <ele>1996.7</ele>
        <time>2022-06-12T12:47:11Z</time>
      </trkpt>
      <trkpt lat="44.53237" lon="6.70644">
        <ele>1996.9</ele>
        <time>2022-06-12T12:47:12Z</time>
      </trkpt>
      <trkpt lat="44.53237" lon="6.70641">
        <ele>1997.1</ele>
        <time>2022-06-12T12:47:13Z</time>
      </trkpt>
      <trkpt lat="44.53237" lon="6.70638">
        <ele>1997.4</ele>
        <time>2022-06-12T12:47:14Z</time>
      </trkpt>
      <trkpt lat="44.53237" lon="6.70634">
        <ele>1997.5</ele>
        <time>2022-06-12T12:47:15Z</time>
      </trkpt>
      <trkpt lat="44.53236" lon="6.70631">
        <ele>1997.4</ele>
        <time>2022-06-12T12:47:16Z</time>
      </trkpt>
      <trkpt lat="44.53236" lon="6.70628">
        <ele>1997.5</ele>
        <time>2022-06-12T12:47:17Z</time>
      </trkpt>
      <trkpt lat="44.53236" lon="6.70625">
        <ele>1997.6</ele>
        <time>2022-06-12T12:47:18Z</time>
      </trkpt>
      <trkpt lat="44.53236" lon="6.70622">
        <ele>1997.7</ele>
        <time>2022-06-12T12:47:19Z</time>
      </trkpt>
      <trkpt lat="44.53236" lon="6.70619">
        <ele>1997.8</ele>
        <time>2022-06-12T12:47:20Z</time>
      </trkpt>
      <trkpt lat="44.53236" lon="6.70616">
        <ele>1998.1</ele>
        <time>2022-06-12T12:47:21Z</time>
      </trkpt>
      <trkpt lat="44.53236" lon="6.70613">
        <ele>1998.4</ele>
        <time>2022-06-12T12:47:22Z</time>
      </trkpt>
      <trkpt lat="44.53236" lon="6.7061">
        <ele>1998.6</ele>
        <time>2022-06-12T12:47:23Z</time>
      </trkpt>
      <trkpt lat="44.53236" lon="6.70606">
        <ele>1998.9</ele>
        <time>2022-06-12T12:47:24Z</time>
      </trkpt>
      <trkpt lat="44.53236" lon="6.70603">
        <ele>1999</ele>
        <time>2022-06-12T12:47:25Z</time>
      </trkpt>
      <trkpt lat="44.53236" lon="6.706">
        <ele>1999.1</ele>
        <time>2022-06-12T12:47:26Z</time>
      </trkpt>
      <trkpt lat="44.53235" lon="6.70598">
        <ele>1999.1</ele>
        <time>2022-06-12T12:47:27Z</time>
      </trkpt>
      <trkpt lat="44.53235" lon="6.70594">
        <ele>1999.4</ele>
        <time>2022-06-12T12:47:28Z</time>
      </trkpt>
      <trkpt lat="44.53235" lon="6.70591">
        <ele>1999.4</ele>
        <time>2022-06-12T12:47:29Z</time>
      </trkpt>
      <trkpt lat="44.53234" lon="6.70588">
        <ele>1999.5</ele>
        <time>2022-06-12T12:47:30Z</time>
      </trkpt>
      <trkpt lat="44.53234" lon="6.70585">
        <ele>1999.7</ele>
        <time>2022-06-12T12:47:31Z</time>
      </trkpt>
      <trkpt lat="44.53234" lon="6.70582">
        <ele>1999.9</ele>
        <time>2022-06-12T12:47:32Z</time>
      </trkpt>
      <trkpt lat="44.53235" lon="6.70579">
        <ele>2000.4</ele>
        <time>2022-06-12T12:47:33Z</time>
      </trkpt>
      <trkpt lat="44.53235" lon="6.70576">
        <ele>2000.8</ele>
        <time>2022-06-12T12:47:34Z</time>
      </trkpt>
      <trkpt lat="44.53235" lon="6.70573">
        <ele>2001.2</ele>
        <time>2022-06-12T12:47:35Z</time>
      </trkpt>
      <trkpt lat="44.53236" lon="6.7057">
        <ele>2001.6</ele>
        <time>2022-06-12T12:47:36Z</time>
      </trkpt>
      <trkpt lat="44.53236" lon="6.70567">
        <ele>2001.9</ele>
        <time>2022-06-12T12:47:37Z</time>
      </trkpt>
      <trkpt lat="44.53236" lon="6.70563">
        <ele>2002.1</ele>
        <time>2022-06-12T12:47:38Z</time>
      </trkpt>
      <trkpt lat="44.53236" lon="6.7056">
        <ele>2002.3</ele>
        <time>2022-06-12T12:47:39Z</time>
      </trkpt>
      <trkpt lat="44.53236" lon="6.70557">
        <ele>2002.5</ele>
        <time>2022-06-12T12:47:40Z</time>
      </trkpt>
      <trkpt lat="44.53235" lon="6.70554">
        <ele>2002.6</ele>
        <time>2022-06-12T12:47:41Z</time>
      </trkpt>
      <trkpt lat="44.53235" lon="6.70551">
        <ele>2002.9</ele>
        <time>2022-06-12T12:47:42Z</time>
      </trkpt>
      <trkpt lat="44.53235" lon="6.70548">
        <ele>2003</ele>
        <time>2022-06-12T12:47:43Z</time>
      </trkpt>
      <trkpt lat="44.53235" lon="6.70545">
        <ele>2003.2</ele>
        <time>2022-06-12T12:47:44Z</time>
      </trkpt>
      <trkpt lat="44.53235" lon="6.70542">
        <ele>2003.4</ele>
        <time>2022-06-12T12:47:45Z</time>
      </trkpt>
      <trkpt lat="44.53235" lon="6.70539">
        <ele>2003.6</ele>
        <time>2022-06-12T12:47:46Z</time>
      </trkpt>
      <trkpt lat="44.53235" lon="6.70536">
        <ele>2003.6</ele>
        <time>2022-06-12T12:47:47Z</time>
      </trkpt>
      <trkpt lat="44.53234" lon="6.70533">
        <ele>2003.5</ele>
        <time>2022-06-12T12:47:48Z</time>
      </trkpt>
      <trkpt lat="44.53233" lon="6.7053">
        <ele>2003.4</ele>
        <time>2022-06-12T12:47:49Z</time>
      </trkpt>
      <trkpt lat="44.53233" lon="6.70527">
        <ele>2003.4</ele>
        <time>2022-06-12T12:47:50Z</time>
      </trkpt>
      <trkpt lat="44.53232" lon="6.70524">
        <ele>2003.7</ele>
        <time>2022-06-12T12:47:51Z</time>
      </trkpt>
      <trkpt lat="44.53232" lon="6.70521">
        <ele>2004</ele>
        <time>2022-06-12T12:47:52Z</time>
      </trkpt>
      <trkpt lat="44.53231" lon="6.70518">
        <ele>2004</ele>
        <time>2022-06-12T12:47:53Z</time>
      </trkpt>
      <trkpt lat="44.5323" lon="6.70515">
        <ele>2004</ele>
        <time>2022-06-12T12:47:54Z</time>
      </trkpt>
      <trkpt lat="44.53229" lon="6.70512">
        <ele>2004</ele>
        <time>2022-06-12T12:47:55Z</time>
      </trkpt>
      <trkpt lat="44.53228" lon="6.70509">
        <ele>2004</ele>
        <time>2022-06-12T12:47:56Z</time>
      </trkpt>
      <trkpt lat="44.53227" lon="6.70507">
        <ele>2004.1</ele>
        <time>2022-06-12T12:47:57Z</time>
      </trkpt>
      <trkpt lat="44.53227" lon="6.70504">
        <ele>2004.3</ele>
        <time>2022-06-12T12:47:58Z</time>
      </trkpt>
      <trkpt lat="44.53226" lon="6.705">
        <ele>2004.6</ele>
        <time>2022-06-12T12:47:59Z</time>
      </trkpt>
      <trkpt lat="44.53225" lon="6.70497">
        <ele>2004.5</ele>
        <time>2022-06-12T12:48:00Z</time>
      </trkpt>
      <trkpt lat="44.53224" lon="6.70495">
        <ele>2004.4</ele>
        <time>2022-06-12T12:48:01Z</time>
      </trkpt>
      <trkpt lat="44.53223" lon="6.70492">
        <ele>2004.4</ele>
        <time>2022-06-12T12:48:02Z</time>
      </trkpt>
      <trkpt lat="44.53223" lon="6.70489">
        <ele>2004.3</ele>
        <time>2022-06-12T12:48:03Z</time>
      </trkpt>
      <trkpt lat="44.53222" lon="6.70486">
        <ele>2004.3</ele>
        <time>2022-06-12T12:48:04Z</time>
      </trkpt>
      <trkpt lat="44.53221" lon="6.70483">
        <ele>2004.3</ele>
        <time>2022-06-12T12:48:05Z</time>
      </trkpt>
      <trkpt lat="44.5322" lon="6.70481">
        <ele>2004.3</ele>
        <time>2022-06-12T12:48:06Z</time>
      </trkpt>
      <trkpt lat="44.53219" lon="6.70478">
        <ele>2004.3</ele>
        <time>2022-06-12T12:48:07Z</time>
      </trkpt>
      <trkpt lat="44.53218" lon="6.70475">
        <ele>2004.4</ele>
        <time>2022-06-12T12:48:08Z</time>
      </trkpt>
      <trkpt lat="44.53217" lon="6.70472">
        <ele>2004.4</ele>
        <time>2022-06-12T12:48:09Z</time>
      </trkpt>
      <trkpt lat="44.53217" lon="6.70469">
        <ele>2004.5</ele>
        <time>2022-06-12T12:48:10Z</time>
      </trkpt>
      <trkpt lat="44.53216" lon="6.70466">
        <ele>2004.7</ele>
        <time>2022-06-12T12:48:11Z</time>
      </trkpt>
      <trkpt lat="44.53215" lon="6.70463">
        <ele>2004.8</ele>
        <time>2022-06-12T12:48:12Z</time>
      </trkpt>
      <trkpt lat="44.53215" lon="6.7046">
        <ele>2005.1</ele>
        <time>2022-06-12T12:48:13Z</time>
      </trkpt>
      <trkpt lat="44.53215" lon="6.70457">
        <ele>2005.3</ele>
        <time>2022-06-12T12:48:14Z</time>
      </trkpt>
      <trkpt lat="44.53214" lon="6.70454">
        <ele>2005.5</ele>
        <time>2022-06-12T12:48:15Z</time>
      </trkpt>
      <trkpt lat="44.53214" lon="6.70451">
        <ele>2005.8</ele>
        <time>2022-06-12T12:48:16Z</time>
      </trkpt>
      <trkpt lat="44.53214" lon="6.70447">
        <ele>2006</ele>
        <time>2022-06-12T12:48:17Z</time>
      </trkpt>
      <trkpt lat="44.53214" lon="6.70444">
        <ele>2006.3</ele>
        <time>2022-06-12T12:48:18Z</time>
      </trkpt>
      <trkpt lat="44.53213" lon="6.70441">
        <ele>2006.4</ele>
        <time>2022-06-12T12:48:19Z</time>
      </trkpt>
      <trkpt lat="44.53214" lon="6.70438">
        <ele>2006.7</ele>
        <time>2022-06-12T12:48:20Z</time>
      </trkpt>
      <trkpt lat="44.53214" lon="6.70435">
        <ele>2007.1</ele>
        <time>2022-06-12T12:48:21Z</time>
      </trkpt>
      <trkpt lat="44.53214" lon="6.70432">
        <ele>2007.5</ele>
        <time>2022-06-12T12:48:22Z</time>
      </trkpt>
      <trkpt lat="44.53215" lon="6.70429">
        <ele>2007.9</ele>
        <time>2022-06-12T12:48:23Z</time>
      </trkpt>
      <trkpt lat="44.53215" lon="6.70426">
        <ele>2008.2</ele>
        <time>2022-06-12T12:48:24Z</time>
      </trkpt>
      <trkpt lat="44.53215" lon="6.70423">
        <ele>2008.5</ele>
        <time>2022-06-12T12:48:25Z</time>
      </trkpt>
      <trkpt lat="44.53215" lon="6.7042">
        <ele>2008.9</ele>
        <time>2022-06-12T12:48:26Z</time>
      </trkpt>
      <trkpt lat="44.53215" lon="6.70416">
        <ele>2009.2</ele>
        <time>2022-06-12T12:48:27Z</time>
      </trkpt>
      <trkpt lat="44.53216" lon="6.70413">
        <ele>2009.5</ele>
        <time>2022-06-12T12:48:28Z</time>
      </trkpt>
      <trkpt lat="44.53216" lon="6.7041">
        <ele>2009.7</ele>
        <time>2022-06-12T12:48:29Z</time>
      </trkpt>
      <trkpt lat="44.53216" lon="6.70407">
        <ele>2010</ele>
        <time>2022-06-12T12:48:30Z</time>
      </trkpt>
      <trkpt lat="44.53216" lon="6.70404">
        <ele>2010.2</ele>
        <time>2022-06-12T12:48:31Z</time>
      </trkpt>
      <trkpt lat="44.53217" lon="6.70401">
        <ele>2010.4</ele>
        <time>2022-06-12T12:48:32Z</time>
      </trkpt>
      <trkpt lat="44.53217" lon="6.70398">
        <ele>2010.8</ele>
        <time>2022-06-12T12:48:33Z</time>
      </trkpt>
      <trkpt lat="44.53218" lon="6.70395">
        <ele>2011.1</ele>
        <time>2022-06-12T12:48:34Z</time>
      </trkpt>
      <trkpt lat="44.53218" lon="6.70392">
        <ele>2011.4</ele>
        <time>2022-06-12T12:48:35Z</time>
      </trkpt>
      <trkpt lat="44.53218" lon="6.70388">
        <ele>2011.6</ele>
        <time>2022-06-12T12:48:36Z</time>
      </trkpt>
      <trkpt lat="44.53218" lon="6.70385">
        <ele>2011.8</ele>
        <time>2022-06-12T12:48:37Z</time>
      </trkpt>
      <trkpt lat="44.53218" lon="6.70382">
        <ele>2012</ele>
        <time>2022-06-12T12:48:38Z</time>
      </trkpt>
      <trkpt lat="44.53219" lon="6.70379">
        <ele>2012.3</ele>
        <time>2022-06-12T12:48:39Z</time>
      </trkpt>
      <trkpt lat="44.53219" lon="6.70376">
        <ele>2012.5</ele>
        <time>2022-06-12T12:48:40Z</time>
      </trkpt>
      <trkpt lat="44.53219" lon="6.70373">
        <ele>2012.8</ele>
        <time>2022-06-12T12:48:41Z</time>
      </trkpt>
      <trkpt lat="44.5322" lon="6.7037">
        <ele>2013.1</ele>
        <time>2022-06-12T12:48:42Z</time>
      </trkpt>
      <trkpt lat="44.5322" lon="6.70367">
        <ele>2013.4</ele>
        <time>2022-06-12T12:48:43Z</time>
      </trkpt>
      <trkpt lat="44.5322" lon="6.70364">
        <ele>2013.8</ele>
        <time>2022-06-12T12:48:44Z</time>
      </trkpt>
      <trkpt lat="44.53221" lon="6.70361">
        <ele>2014.1</ele>
        <time>2022-06-12T12:48:45Z</time>
      </trkpt>
      <trkpt lat="44.53221" lon="6.70358">
        <ele>2014.3</ele>
        <time>2022-06-12T12:48:46Z</time>
      </trkpt>
      <trkpt lat="44.53221" lon="6.70355">
        <ele>2014.3</ele>
        <time>2022-06-12T12:48:47Z</time>
      </trkpt>
      <trkpt lat="44.53221" lon="6.70352">
        <ele>2014.4</ele>
        <time>2022-06-12T12:48:48Z</time>
      </trkpt>
      <trkpt lat="44.53221" lon="6.70348">
        <ele>2014.6</ele>
        <time>2022-06-12T12:48:49Z</time>
      </trkpt>
      <trkpt lat="44.53221" lon="6.70345">
        <ele>2014.8</ele>
        <time>2022-06-12T12:48:50Z</time>
      </trkpt>
      <trkpt lat="44.53221" lon="6.70342">
        <ele>2015</ele>
        <time>2022-06-12T12:48:51Z</time>
      </trkpt>
      <trkpt lat="44.53221" lon="6.70339">
        <ele>2015.2</ele>
        <time>2022-06-12T12:48:52Z</time>
      </trkpt>
      <trkpt lat="44.53221" lon="6.70336">
        <ele>2015.4</ele>
        <time>2022-06-12T12:48:53Z</time>
      </trkpt>
      <trkpt lat="44.53221" lon="6.70333">
        <ele>2015.5</ele>
        <time>2022-06-12T12:48:54Z</time>
      </trkpt>
      <trkpt lat="44.53222" lon="6.7033">
        <ele>2015.9</ele>
        <time>2022-06-12T12:48:55Z</time>
      </trkpt>
      <trkpt lat="44.53222" lon="6.70327">
        <ele>2016.1</ele>
        <time>2022-06-12T12:48:56Z</time>
      </trkpt>
      <trkpt lat="44.53222" lon="6.70324">
        <ele>2016.5</ele>
        <time>2022-06-12T12:48:57Z</time>
      </trkpt>
      <trkpt lat="44.53222" lon="6.70321">
        <ele>2016.7</ele>
        <time>2022-06-12T12:48:58Z</time>
      </trkpt>
      <trkpt lat="44.53222" lon="6.70318">
        <ele>2017</ele>
        <time>2022-06-12T12:48:59Z</time>
      </trkpt>
      <trkpt lat="44.53222" lon="6.70315">
        <ele>2017.3</ele>
        <time>2022-06-12T12:49:00Z</time>
      </trkpt>
      <trkpt lat="44.53222" lon="6.70312">
        <ele>2017.4</ele>
        <time>2022-06-12T12:49:01Z</time>
      </trkpt>
      <trkpt lat="44.53222" lon="6.70309">
        <ele>2017.6</ele>
        <time>2022-06-12T12:49:02Z</time>
      </trkpt>
      <trkpt lat="44.53222" lon="6.70306">
        <ele>2017.7</ele>
        <time>2022-06-12T12:49:03Z</time>
      </trkpt>
      <trkpt lat="44.53222" lon="6.70303">
        <ele>2018</ele>
        <time>2022-06-12T12:49:04Z</time>
      </trkpt>
      <trkpt lat="44.53221" lon="6.703">
        <ele>2018.3</ele>
        <time>2022-06-12T12:49:05Z</time>
      </trkpt>
      <trkpt lat="44.53221" lon="6.70297">
        <ele>2018.6</ele>
        <time>2022-06-12T12:49:06Z</time>
      </trkpt>
      <trkpt lat="44.53221" lon="6.70294">
        <ele>2018.9</ele>
        <time>2022-06-12T12:49:07Z</time>
      </trkpt>
      <trkpt lat="44.5322" lon="6.70291">
        <ele>2019.2</ele>
        <time>2022-06-12T12:49:08Z</time>
      </trkpt>
      <trkpt lat="44.5322" lon="6.70288">
        <ele>2019.3</ele>
        <time>2022-06-12T12:49:09Z</time>
      </trkpt>
      <trkpt lat="44.53219" lon="6.70285">
        <ele>2019.4</ele>
        <time>2022-06-12T12:49:10Z</time>
      </trkpt>
      <trkpt lat="44.53219" lon="6.70282">
        <ele>2019.6</ele>
        <time>2022-06-12T12:49:11Z</time>
      </trkpt>
      <trkpt lat="44.53218" lon="6.70279">
        <ele>2019.7</ele>
        <time>2022-06-12T12:49:12Z</time>
      </trkpt>
      <trkpt lat="44.53218" lon="6.70276">
        <ele>2019.9</ele>
        <time>2022-06-12T12:49:13Z</time>
      </trkpt>
      <trkpt lat="44.53217" lon="6.70273">
        <ele>2020</ele>
        <time>2022-06-12T12:49:14Z</time>
      </trkpt>
      <trkpt lat="44.53217" lon="6.7027">
        <ele>2020.1</ele>
        <time>2022-06-12T12:49:15Z</time>
      </trkpt>
      <trkpt lat="44.53216" lon="6.70267">
        <ele>2020.2</ele>
        <time>2022-06-12T12:49:16Z</time>
      </trkpt>
      <trkpt lat="44.53216" lon="6.70264">
        <ele>2020.3</ele>
        <time>2022-06-12T12:49:17Z</time>
      </trkpt>
      <trkpt lat="44.53215" lon="6.70261">
        <ele>2020.4</ele>
        <time>2022-06-12T12:49:18Z</time>
      </trkpt>
      <trkpt lat="44.53214" lon="6.70258">
        <ele>2020.5</ele>
        <time>2022-06-12T12:49:19Z</time>
      </trkpt>
      <trkpt lat="44.53214" lon="6.70256">
        <ele>2020.6</ele>
        <time>2022-06-12T12:49:20Z</time>
      </trkpt>
      <trkpt lat="44.53213" lon="6.70253">
        <ele>2020.6</ele>
        <time>2022-06-12T12:49:21Z</time>
      </trkpt>
      <trkpt lat="44.53212" lon="6.7025">
        <ele>2020.6</ele>
        <time>2022-06-12T12:49:22Z</time>
      </trkpt>
      <trkpt lat="44.53211" lon="6.70247">
        <ele>2020.6</ele>
        <time>2022-06-12T12:49:23Z</time>
      </trkpt>
      <trkpt lat="44.5321" lon="6.70244">
        <ele>2020.7</ele>
        <time>2022-06-12T12:49:24Z</time>
      </trkpt>
      <trkpt lat="44.5321" lon="6.70241">
        <ele>2020.8</ele>
        <time>2022-06-12T12:49:25Z</time>
      </trkpt>
      <trkpt lat="44.53209" lon="6.70239">
        <ele>2020.9</ele>
        <time>2022-06-12T12:49:26Z</time>
      </trkpt>
      <trkpt lat="44.53208" lon="6.70236">
        <ele>2021</ele>
        <time>2022-06-12T12:49:27Z</time>
      </trkpt>
      <trkpt lat="44.53207" lon="6.70233">
        <ele>2021.1</ele>
        <time>2022-06-12T12:49:28Z</time>
      </trkpt>
      <trkpt lat="44.53207" lon="6.7023">
        <ele>2021.1</ele>
        <time>2022-06-12T12:49:29Z</time>
      </trkpt>
      <trkpt lat="44.53206" lon="6.70227">
        <ele>2021.1</ele>
        <time>2022-06-12T12:49:30Z</time>
      </trkpt>
      <trkpt lat="44.53204" lon="6.70224">
        <ele>2021</ele>
        <time>2022-06-12T12:49:31Z</time>
      </trkpt>
      <trkpt lat="44.53203" lon="6.70222">
        <ele>2020.9</ele>
        <time>2022-06-12T12:49:32Z</time>
      </trkpt>
      <trkpt lat="44.53202" lon="6.70219">
        <ele>2020.9</ele>
        <time>2022-06-12T12:49:33Z</time>
      </trkpt>
      <trkpt lat="44.53201" lon="6.70216">
        <ele>2020.8</ele>
        <time>2022-06-12T12:49:34Z</time>
      </trkpt>
      <trkpt lat="44.532" lon="6.70213">
        <ele>2020.8</ele>
        <time>2022-06-12T12:49:35Z</time>
      </trkpt>
      <trkpt lat="44.53199" lon="6.70211">
        <ele>2020.8</ele>
        <time>2022-06-12T12:49:36Z</time>
      </trkpt>
      <trkpt lat="44.53198" lon="6.70208">
        <ele>2021</ele>
        <time>2022-06-12T12:49:37Z</time>
      </trkpt>
      <trkpt lat="44.53197" lon="6.70205">
        <ele>2021.1</ele>
        <time>2022-06-12T12:49:38Z</time>
      </trkpt>
      <trkpt lat="44.53196" lon="6.70202">
        <ele>2021.2</ele>
        <time>2022-06-12T12:49:39Z</time>
      </trkpt>
      <trkpt lat="44.53195" lon="6.70199">
        <ele>2021.2</ele>
        <time>2022-06-12T12:49:40Z</time>
      </trkpt>
      <trkpt lat="44.53194" lon="6.70196">
        <ele>2021.4</ele>
        <time>2022-06-12T12:49:41Z</time>
      </trkpt>
      <trkpt lat="44.53193" lon="6.70193">
        <ele>2021.6</ele>
        <time>2022-06-12T12:49:42Z</time>
      </trkpt>
      <trkpt lat="44.53191" lon="6.70191">
        <ele>2021.6</ele>
        <time>2022-06-12T12:49:43Z</time>
      </trkpt>
      <trkpt lat="44.5319" lon="6.70188">
        <ele>2021.6</ele>
        <time>2022-06-12T12:49:44Z</time>
      </trkpt>
      <trkpt lat="44.53189" lon="6.70185">
        <ele>2021.6</ele>
        <time>2022-06-12T12:49:45Z</time>
      </trkpt>
      <trkpt lat="44.53187" lon="6.70183">
        <ele>2021.6</ele>
        <time>2022-06-12T12:49:46Z</time>
      </trkpt>
      <trkpt lat="44.53186" lon="6.7018">
        <ele>2021.6</ele>
        <time>2022-06-12T12:49:47Z</time>
      </trkpt>
      <trkpt lat="44.53185" lon="6.70178">
        <ele>2021.6</ele>
        <time>2022-06-12T12:49:48Z</time>
      </trkpt>
      <trkpt lat="44.53184" lon="6.70175">
        <ele>2021.8</ele>
        <time>2022-06-12T12:49:49Z</time>
      </trkpt>
      <trkpt lat="44.53182" lon="6.70172">
        <ele>2022</ele>
        <time>2022-06-12T12:49:50Z</time>
      </trkpt>
      <trkpt lat="44.53182" lon="6.70169">
        <ele>2022.3</ele>
        <time>2022-06-12T12:49:51Z</time>
      </trkpt>
      <trkpt lat="44.53181" lon="6.70166">
        <ele>2022.6</ele>
        <time>2022-06-12T12:49:52Z</time>
      </trkpt>
      <trkpt lat="44.5318" lon="6.70163">
        <ele>2022.7</ele>
        <time>2022-06-12T12:49:53Z</time>
      </trkpt>
      <trkpt lat="44.5318" lon="6.7016">
        <ele>2022.9</ele>
        <time>2022-06-12T12:49:54Z</time>
      </trkpt>
      <trkpt lat="44.5318" lon="6.70157">
        <ele>2023.2</ele>
        <time>2022-06-12T12:49:55Z</time>
      </trkpt>
      <trkpt lat="44.5318" lon="6.70154">
        <ele>2023.5</ele>
        <time>2022-06-12T12:49:56Z</time>
      </trkpt>
      <trkpt lat="44.5318" lon="6.70151">
        <ele>2023.9</ele>
        <time>2022-06-12T12:49:57Z</time>
      </trkpt>
      <trkpt lat="44.53181" lon="6.70148">
        <ele>2024.3</ele>
        <time>2022-06-12T12:49:58Z</time>
      </trkpt>
      <trkpt lat="44.53183" lon="6.70146">
        <ele>2024.8</ele>
        <time>2022-06-12T12:49:59Z</time>
      </trkpt>
      <trkpt lat="44.53185" lon="6.70144">
        <ele>2025.2</ele>
        <time>2022-06-12T12:50:00Z</time>
      </trkpt>
      <trkpt lat="44.53187" lon="6.70143">
        <ele>2025.6</ele>
        <time>2022-06-12T12:50:01Z</time>
      </trkpt>
      <trkpt lat="44.5319" lon="6.70143">
        <ele>2026</ele>
        <time>2022-06-12T12:50:02Z</time>
      </trkpt>
      <trkpt lat="44.53192" lon="6.70144">
        <ele>2026.3</ele>
        <time>2022-06-12T12:50:03Z</time>
      </trkpt>
      <trkpt lat="44.53195" lon="6.70145">
        <ele>2026.6</ele>
        <time>2022-06-12T12:50:04Z</time>
      </trkpt>
      <trkpt lat="44.53197" lon="6.70146">
        <ele>2027.6</ele>
        <time>2022-06-12T12:50:05Z</time>
      </trkpt>
      <trkpt lat="44.53199" lon="6.70147">
        <ele>2028.3</ele>
        <time>2022-06-12T12:50:06Z</time>
      </trkpt>
      <trkpt lat="44.53201" lon="6.70149">
        <ele>2029.1</ele>
        <time>2022-06-12T12:50:07Z</time>
      </trkpt>
      <trkpt lat="44.53203" lon="6.70151">
        <ele>2029.7</ele>
        <time>2022-06-12T12:50:08Z</time>
      </trkpt>
      <trkpt lat="44.53205" lon="6.70153">
        <ele>2030.1</ele>
        <time>2022-06-12T12:50:09Z</time>
      </trkpt>
      <trkpt lat="44.53206" lon="6.70156">
        <ele>2030.4</ele>
        <time>2022-06-12T12:50:10Z</time>
      </trkpt>
      <trkpt lat="44.53208" lon="6.70159">
        <ele>2030.6</ele>
        <time>2022-06-12T12:50:11Z</time>
      </trkpt>
      <trkpt lat="44.53209" lon="6.70162">
        <ele>2030.7</ele>
        <time>2022-06-12T12:50:12Z</time>
      </trkpt>
      <trkpt lat="44.5321" lon="6.70165">
        <ele>2030.7</ele>
        <time>2022-06-12T12:50:13Z</time>
      </trkpt>
      <trkpt lat="44.53211" lon="6.70168">
        <ele>2030.7</ele>
        <time>2022-06-12T12:50:14Z</time>
      </trkpt>
      <trkpt lat="44.53212" lon="6.70172">
        <ele>2030.8</ele>
        <time>2022-06-12T12:50:15Z</time>
      </trkpt>
      <trkpt lat="44.53213" lon="6.70175">
        <ele>2030.8</ele>
        <time>2022-06-12T12:50:16Z</time>
      </trkpt>
      <trkpt lat="44.53214" lon="6.70178">
        <ele>2030.8</ele>
        <time>2022-06-12T12:50:17Z</time>
      </trkpt>
      <trkpt lat="44.53215" lon="6.70181">
        <ele>2030.7</ele>
        <time>2022-06-12T12:50:18Z</time>
      </trkpt>
      <trkpt lat="44.53216" lon="6.70184">
        <ele>2030.7</ele>
        <time>2022-06-12T12:50:19Z</time>
      </trkpt>
      <trkpt lat="44.53217" lon="6.70187">
        <ele>2030.7</ele>
        <time>2022-06-12T12:50:20Z</time>
      </trkpt>
      <trkpt lat="44.53218" lon="6.7019">
        <ele>2030.8</ele>
        <time>2022-06-12T12:50:21Z</time>
      </trkpt>
      <trkpt lat="44.53218" lon="6.70193">
        <ele>2030.7</ele>
        <time>2022-06-12T12:50:22Z</time>
      </trkpt>
      <trkpt lat="44.53219" lon="6.70196">
        <ele>2030.7</ele>
        <time>2022-06-12T12:50:23Z</time>
      </trkpt>
      <trkpt lat="44.5322" lon="6.70199">
        <ele>2030.6</ele>
        <time>2022-06-12T12:50:24Z</time>
      </trkpt>
      <trkpt lat="44.53221" lon="6.70203">
        <ele>2030.6</ele>
        <time>2022-06-12T12:50:25Z</time>
      </trkpt>
      <trkpt lat="44.53222" lon="6.70206">
        <ele>2030.6</ele>
        <time>2022-06-12T12:50:26Z</time>
      </trkpt>
      <trkpt lat="44.53223" lon="6.70209">
        <ele>2030.9</ele>
        <time>2022-06-12T12:50:27Z</time>
      </trkpt>
      <trkpt lat="44.53224" lon="6.70212">
        <ele>2031</ele>
        <time>2022-06-12T12:50:28Z</time>
      </trkpt>
      <trkpt lat="44.53225" lon="6.70215">
        <ele>2031.1</ele>
        <time>2022-06-12T12:50:29Z</time>
      </trkpt>
      <trkpt lat="44.53226" lon="6.70218">
        <ele>2031.3</ele>
        <time>2022-06-12T12:50:30Z</time>
      </trkpt>
      <trkpt lat="44.53227" lon="6.70221">
        <ele>2031.6</ele>
        <time>2022-06-12T12:50:31Z</time>
      </trkpt>
      <trkpt lat="44.53227" lon="6.70224">
        <ele>2031.6</ele>
        <time>2022-06-12T12:50:32Z</time>
      </trkpt>
      <trkpt lat="44.53228" lon="6.70228">
        <ele>2031.6</ele>
        <time>2022-06-12T12:50:33Z</time>
      </trkpt>
      <trkpt lat="44.53229" lon="6.70231">
        <ele>2031.8</ele>
        <time>2022-06-12T12:50:34Z</time>
      </trkpt>
      <trkpt lat="44.53231" lon="6.70234">
        <ele>2032</ele>
        <time>2022-06-12T12:50:35Z</time>
      </trkpt>
      <trkpt lat="44.53231" lon="6.70237">
        <ele>2031.9</ele>
        <time>2022-06-12T12:50:36Z</time>
      </trkpt>
      <trkpt lat="44.53232" lon="6.7024">
        <ele>2032</ele>
        <time>2022-06-12T12:50:37Z</time>
      </trkpt>
      <trkpt lat="44.53233" lon="6.70244">
        <ele>2031.9</ele>
        <time>2022-06-12T12:50:38Z</time>
      </trkpt>
      <trkpt lat="44.53234" lon="6.70248">
        <ele>2031.8</ele>
        <time>2022-06-12T12:50:39Z</time>
      </trkpt>
      <trkpt lat="44.53236" lon="6.70251">
        <ele>2032.1</ele>
        <time>2022-06-12T12:50:40Z</time>
      </trkpt>
      <trkpt lat="44.53237" lon="6.70254">
        <ele>2032.3</ele>
        <time>2022-06-12T12:50:41Z</time>
      </trkpt>
      <trkpt lat="44.53238" lon="6.70258">
        <ele>2032.6</ele>
        <time>2022-06-12T12:50:42Z</time>
      </trkpt>
      <trkpt lat="44.53239" lon="6.70261">
        <ele>2032.8</ele>
        <time>2022-06-12T12:50:43Z</time>
      </trkpt>
      <trkpt lat="44.5324" lon="6.70264">
        <ele>2033.1</ele>
        <time>2022-06-12T12:50:44Z</time>
      </trkpt>
      <trkpt lat="44.53241" lon="6.70267">
        <ele>2033.3</ele>
        <time>2022-06-12T12:50:45Z</time>
      </trkpt>
      <trkpt lat="44.53242" lon="6.7027">
        <ele>2033.5</ele>
        <time>2022-06-12T12:50:46Z</time>
      </trkpt>
      <trkpt lat="44.53243" lon="6.70273">
        <ele>2033.7</ele>
        <time>2022-06-12T12:50:47Z</time>
      </trkpt>
      <trkpt lat="44.53244" lon="6.70276">
        <ele>2033.9</ele>
        <time>2022-06-12T12:50:48Z</time>
      </trkpt>
      <trkpt lat="44.53245" lon="6.70279">
        <ele>2034.1</ele>
        <time>2022-06-12T12:50:49Z</time>
      </trkpt>
      <trkpt lat="44.53246" lon="6.70282">
        <ele>2034.2</ele>
        <time>2022-06-12T12:50:50Z</time>
      </trkpt>
      <trkpt lat="44.53247" lon="6.70285">
        <ele>2034.3</ele>
        <time>2022-06-12T12:50:51Z</time>
      </trkpt>
      <trkpt lat="44.53248" lon="6.70288">
        <ele>2034.6</ele>
        <time>2022-06-12T12:50:52Z</time>
      </trkpt>
      <trkpt lat="44.53249" lon="6.70291">
        <ele>2034.9</ele>
        <time>2022-06-12T12:50:53Z</time>
      </trkpt>
      <trkpt lat="44.5325" lon="6.70294">
        <ele>2035.2</ele>
        <time>2022-06-12T12:50:54Z</time>
      </trkpt>
      <trkpt lat="44.53251" lon="6.70297">
        <ele>2035.3</ele>
        <time>2022-06-12T12:50:55Z</time>
      </trkpt>
      <trkpt lat="44.53252" lon="6.703">
        <ele>2035.4</ele>
        <time>2022-06-12T12:50:56Z</time>
      </trkpt>
      <trkpt lat="44.53253" lon="6.70303">
        <ele>2035.4</ele>
        <time>2022-06-12T12:50:57Z</time>
      </trkpt>
      <trkpt lat="44.53254" lon="6.70306">
        <ele>2035.4</ele>
        <time>2022-06-12T12:50:58Z</time>
      </trkpt>
      <trkpt lat="44.53255" lon="6.70309">
        <ele>2035.6</ele>
        <time>2022-06-12T12:50:59Z</time>
      </trkpt>
      <trkpt lat="44.53257" lon="6.70312">
        <ele>2035.7</ele>
        <time>2022-06-12T12:51:00Z</time>
      </trkpt>
      <trkpt lat="44.53258" lon="6.70314">
        <ele>2035.8</ele>
        <time>2022-06-12T12:51:01Z</time>
      </trkpt>
      <trkpt lat="44.53259" lon="6.70317">
        <ele>2036</ele>
        <time>2022-06-12T12:51:02Z</time>
      </trkpt>
      <trkpt lat="44.53261" lon="6.7032">
        <ele>2036.2</ele>
        <time>2022-06-12T12:51:03Z</time>
      </trkpt>
      <trkpt lat="44.53262" lon="6.70323">
        <ele>2036.4</ele>
        <time>2022-06-12T12:51:04Z</time>
      </trkpt>
      <trkpt lat="44.53263" lon="6.70325">
        <ele>2036.7</ele>
        <time>2022-06-12T12:51:05Z</time>
      </trkpt>
      <trkpt lat="44.53265" lon="6.70328">
        <ele>2036.9</ele>
        <time>2022-06-12T12:51:06Z</time>
      </trkpt>
      <trkpt lat="44.53267" lon="6.70331">
        <ele>2037.2</ele>
        <time>2022-06-12T12:51:07Z</time>
      </trkpt>
      <trkpt lat="44.53268" lon="6.70333">
        <ele>2037.5</ele>
        <time>2022-06-12T12:51:08Z</time>
      </trkpt>
      <trkpt lat="44.5327" lon="6.70336">
        <ele>2038</ele>
        <time>2022-06-12T12:51:09Z</time>
      </trkpt>
      <trkpt lat="44.53271" lon="6.70338">
        <ele>2038.3</ele>
        <time>2022-06-12T12:51:10Z</time>
      </trkpt>
      <trkpt lat="44.53273" lon="6.70341">
        <ele>2038.6</ele>
        <time>2022-06-12T12:51:11Z</time>
      </trkpt>
      <trkpt lat="44.53274" lon="6.70344">
        <ele>2038.9</ele>
        <time>2022-06-12T12:51:12Z</time>
      </trkpt>
      <trkpt lat="44.53275" lon="6.70346">
        <ele>2039.2</ele>
        <time>2022-06-12T12:51:13Z</time>
      </trkpt>
      <trkpt lat="44.53277" lon="6.70349">
        <ele>2039.5</ele>
        <time>2022-06-12T12:51:14Z</time>
      </trkpt>
      <trkpt lat="44.53278" lon="6.70352">
        <ele>2039.9</ele>
        <time>2022-06-12T12:51:15Z</time>
      </trkpt>
      <trkpt lat="44.5328" lon="6.70354">
        <ele>2040</ele>
        <time>2022-06-12T12:51:16Z</time>
      </trkpt>
      <trkpt lat="44.53281" lon="6.70357">
        <ele>2040.1</ele>
        <time>2022-06-12T12:51:17Z</time>
      </trkpt>
      <trkpt lat="44.53282" lon="6.7036">
        <ele>2040.2</ele>
        <time>2022-06-12T12:51:18Z</time>
      </trkpt>
      <trkpt lat="44.53283" lon="6.70363">
        <ele>2040.4</ele>
        <time>2022-06-12T12:51:19Z</time>
      </trkpt>
      <trkpt lat="44.53284" lon="6.70366">
        <ele>2040.7</ele>
        <time>2022-06-12T12:51:20Z</time>
      </trkpt>
      <trkpt lat="44.53285" lon="6.70368">
        <ele>2041</ele>
        <time>2022-06-12T12:51:21Z</time>
      </trkpt>
      <trkpt lat="44.53286" lon="6.70371">
        <ele>2041.2</ele>
        <time>2022-06-12T12:51:22Z</time>
      </trkpt>
      <trkpt lat="44.53287" lon="6.70374">
        <ele>2041.4</ele>
        <time>2022-06-12T12:51:23Z</time>
      </trkpt>
      <trkpt lat="44.53288" lon="6.70377">
        <ele>2041.6</ele>
        <time>2022-06-12T12:51:24Z</time>
      </trkpt>
      <trkpt lat="44.53289" lon="6.7038">
        <ele>2041.7</ele>
        <time>2022-06-12T12:51:25Z</time>
      </trkpt>
      <trkpt lat="44.53289" lon="6.70383">
        <ele>2041.9</ele>
        <time>2022-06-12T12:51:26Z</time>
      </trkpt>
      <trkpt lat="44.5329" lon="6.70386">
        <ele>2042</ele>
        <time>2022-06-12T12:51:27Z</time>
      </trkpt>
      <trkpt lat="44.53291" lon="6.70389">
        <ele>2042.2</ele>
        <time>2022-06-12T12:51:28Z</time>
      </trkpt>
      <trkpt lat="44.53292" lon="6.70392">
        <ele>2042.4</ele>
        <time>2022-06-12T12:51:29Z</time>
      </trkpt>
      <trkpt lat="44.53292" lon="6.70396">
        <ele>2042.6</ele>
        <time>2022-06-12T12:51:30Z</time>
      </trkpt>
      <trkpt lat="44.53293" lon="6.70399">
        <ele>2042.8</ele>
        <time>2022-06-12T12:51:31Z</time>
      </trkpt>
      <trkpt lat="44.53294" lon="6.70402">
        <ele>2042.9</ele>
        <time>2022-06-12T12:51:32Z</time>
      </trkpt>
      <trkpt lat="44.53294" lon="6.70405">
        <ele>2043</ele>
        <time>2022-06-12T12:51:33Z</time>
      </trkpt>
      <trkpt lat="44.53295" lon="6.70408">
        <ele>2043.2</ele>
        <time>2022-06-12T12:51:34Z</time>
      </trkpt>
      <trkpt lat="44.53296" lon="6.70411">
        <ele>2043.4</ele>
        <time>2022-06-12T12:51:35Z</time>
      </trkpt>
      <trkpt lat="44.53296" lon="6.70414">
        <ele>2043.6</ele>
        <time>2022-06-12T12:51:36Z</time>
      </trkpt>
      <trkpt lat="44.53297" lon="6.70418">
        <ele>2043.8</ele>
        <time>2022-06-12T12:51:37Z</time>
      </trkpt>
      <trkpt lat="44.53298" lon="6.70421">
        <ele>2044.1</ele>
        <time>2022-06-12T12:51:38Z</time>
      </trkpt>
      <trkpt lat="44.53298" lon="6.70424">
        <ele>2044.3</ele>
        <time>2022-06-12T12:51:39Z</time>
      </trkpt>
      <trkpt lat="44.53299" lon="6.70427">
        <ele>2044.6</ele>
        <time>2022-06-12T12:51:40Z</time>
      </trkpt>
      <trkpt lat="44.533" lon="6.7043">
        <ele>2044.8</ele>
        <time>2022-06-12T12:51:41Z</time>
      </trkpt>
      <trkpt lat="44.53301" lon="6.70433">
        <ele>2045.2</ele>
        <time>2022-06-12T12:51:42Z</time>
      </trkpt>
      <trkpt lat="44.53302" lon="6.70436">
        <ele>2045.5</ele>
        <time>2022-06-12T12:51:43Z</time>
      </trkpt>
      <trkpt lat="44.53303" lon="6.70439">
        <ele>2045.8</ele>
        <time>2022-06-12T12:51:44Z</time>
      </trkpt>
      <trkpt lat="44.53303" lon="6.70443">
        <ele>2046.1</ele>
        <time>2022-06-12T12:51:45Z</time>
      </trkpt>
      <trkpt lat="44.53304" lon="6.70446">
        <ele>2046.3</ele>
        <time>2022-06-12T12:51:46Z</time>
      </trkpt>
      <trkpt lat="44.53305" lon="6.70449">
        <ele>2046.5</ele>
        <time>2022-06-12T12:51:47Z</time>
      </trkpt>
      <trkpt lat="44.53306" lon="6.70452">
        <ele>2046.6</ele>
        <time>2022-06-12T12:51:48Z</time>
      </trkpt>
      <trkpt lat="44.53308" lon="6.70455">
        <ele>2046.7</ele>
        <time>2022-06-12T12:51:49Z</time>
      </trkpt>
      <trkpt lat="44.53309" lon="6.70457">
        <ele>2046.9</ele>
        <time>2022-06-12T12:51:50Z</time>
      </trkpt>
      <trkpt lat="44.53311" lon="6.7046">
        <ele>2047.1</ele>
        <time>2022-06-12T12:51:51Z</time>
      </trkpt>
      <trkpt lat="44.53313" lon="6.70462">
        <ele>2047.3</ele>
        <time>2022-06-12T12:51:52Z</time>
      </trkpt>
      <trkpt lat="44.53315" lon="6.70465">
        <ele>2047.6</ele>
        <time>2022-06-12T12:51:53Z</time>
      </trkpt>
      <trkpt lat="44.53317" lon="6.70467">
        <ele>2047.8</ele>
        <time>2022-06-12T12:51:54Z</time>
      </trkpt>
      <trkpt lat="44.53318" lon="6.70469">
        <ele>2048.1</ele>
        <time>2022-06-12T12:51:55Z</time>
      </trkpt>
      <trkpt lat="44.5332" lon="6.7047">
        <ele>2048.4</ele>
        <time>2022-06-12T12:51:56Z</time>
      </trkpt>
      <trkpt lat="44.53323" lon="6.70472">
        <ele>2048.7</ele>
        <time>2022-06-12T12:51:57Z</time>
      </trkpt>
      <trkpt lat="44.53325" lon="6.70473">
        <ele>2049</ele>
        <time>2022-06-12T12:51:58Z</time>
      </trkpt>
      <trkpt lat="44.53327" lon="6.70474">
        <ele>2049.4</ele>
        <time>2022-06-12T12:51:59Z</time>
      </trkpt>
      <trkpt lat="44.53329" lon="6.70475">
        <ele>2049.7</ele>
        <time>2022-06-12T12:52:00Z</time>
      </trkpt>
      <trkpt lat="44.53332" lon="6.70475">
        <ele>2050.1</ele>
        <time>2022-06-12T12:52:01Z</time>
      </trkpt>
      <trkpt lat="44.53334" lon="6.70476">
        <ele>2050.4</ele>
        <time>2022-06-12T12:52:02Z</time>
      </trkpt>
      <trkpt lat="44.53336" lon="6.70476">
        <ele>2050.5</ele>
        <time>2022-06-12T12:52:03Z</time>
      </trkpt>
      <trkpt lat="44.53339" lon="6.70476">
        <ele>2050.5</ele>
        <time>2022-06-12T12:52:04Z</time>
      </trkpt>
      <trkpt lat="44.53341" lon="6.70476">
        <ele>2050.6</ele>
        <time>2022-06-12T12:52:05Z</time>
      </trkpt>
      <trkpt lat="44.53343" lon="6.70475">
        <ele>2050.8</ele>
        <time>2022-06-12T12:52:06Z</time>
      </trkpt>
      <trkpt lat="44.53345" lon="6.70475">
        <ele>2051</ele>
        <time>2022-06-12T12:52:07Z</time>
      </trkpt>
      <trkpt lat="44.53348" lon="6.70474">
        <ele>2051.1</ele>
        <time>2022-06-12T12:52:08Z</time>
      </trkpt>
      <trkpt lat="44.5335" lon="6.70474">
        <ele>2051.3</ele>
        <time>2022-06-12T12:52:09Z</time>
      </trkpt>
      <trkpt lat="44.53352" lon="6.70474">
        <ele>2051.4</ele>
        <time>2022-06-12T12:52:10Z</time>
      </trkpt>
      <trkpt lat="44.53354" lon="6.70473">
        <ele>2051.7</ele>
        <time>2022-06-12T12:52:11Z</time>
      </trkpt>
      <trkpt lat="44.53356" lon="6.70472">
        <ele>2051.9</ele>
        <time>2022-06-12T12:52:12Z</time>
      </trkpt>
      <trkpt lat="44.53359" lon="6.7047">
        <ele>2052</ele>
        <time>2022-06-12T12:52:13Z</time>
      </trkpt>
      <trkpt lat="44.53361" lon="6.70469">
        <ele>2052.1</ele>
        <time>2022-06-12T12:52:14Z</time>
      </trkpt>
      <trkpt lat="44.53363" lon="6.70468">
        <ele>2052.2</ele>
        <time>2022-06-12T12:52:15Z</time>
      </trkpt>
      <trkpt lat="44.53365" lon="6.70467">
        <ele>2052.3</ele>
        <time>2022-06-12T12:52:16Z</time>
      </trkpt>
      <trkpt lat="44.53367" lon="6.70465">
        <ele>2052.4</ele>
        <time>2022-06-12T12:52:17Z</time>
      </trkpt>
      <trkpt lat="44.53369" lon="6.70464">
        <ele>2052.5</ele>
        <time>2022-06-12T12:52:18Z</time>
      </trkpt>
      <trkpt lat="44.53371" lon="6.70463">
        <ele>2052.7</ele>
        <time>2022-06-12T12:52:19Z</time>
      </trkpt>
      <trkpt lat="44.53374" lon="6.70462">
        <ele>2052.9</ele>
        <time>2022-06-12T12:52:20Z</time>
      </trkpt>
      <trkpt lat="44.53376" lon="6.70461">
        <ele>2053.1</ele>
        <time>2022-06-12T12:52:21Z</time>
      </trkpt>
      <trkpt lat="44.53378" lon="6.7046">
        <ele>2053.3</ele>
        <time>2022-06-12T12:52:22Z</time>
      </trkpt>
      <trkpt lat="44.5338" lon="6.70459">
        <ele>2053.5</ele>
        <time>2022-06-12T12:52:23Z</time>
      </trkpt>
      <trkpt lat="44.53382" lon="6.70458">
        <ele>2053.7</ele>
        <time>2022-06-12T12:52:24Z</time>
      </trkpt>
      <trkpt lat="44.53385" lon="6.70457">
        <ele>2054</ele>
        <time>2022-06-12T12:52:25Z</time>
      </trkpt>
      <trkpt lat="44.53387" lon="6.70456">
        <ele>2054.2</ele>
        <time>2022-06-12T12:52:26Z</time>
      </trkpt>
      <trkpt lat="44.53389" lon="6.70455">
        <ele>2054.5</ele>
        <time>2022-06-12T12:52:27Z</time>
      </trkpt>
      <trkpt lat="44.53391" lon="6.70454">
        <ele>2054.9</ele>
        <time>2022-06-12T12:52:28Z</time>
      </trkpt>
      <trkpt lat="44.53393" lon="6.70454">
        <ele>2055.3</ele>
        <time>2022-06-12T12:52:29Z</time>
      </trkpt>
      <trkpt lat="44.53396" lon="6.70453">
        <ele>2055.7</ele>
        <time>2022-06-12T12:52:30Z</time>
      </trkpt>
      <trkpt lat="44.53398" lon="6.70452">
        <ele>2056.2</ele>
        <time>2022-06-12T12:52:31Z</time>
      </trkpt>
      <trkpt lat="44.534" lon="6.70452">
        <ele>2056.6</ele>
        <time>2022-06-12T12:52:32Z</time>
      </trkpt>
      <trkpt lat="44.53402" lon="6.70452">
        <ele>2056.9</ele>
        <time>2022-06-12T12:52:33Z</time>
      </trkpt>
      <trkpt lat="44.53404" lon="6.70452">
        <ele>2057.2</ele>
        <time>2022-06-12T12:52:34Z</time>
      </trkpt>
      <trkpt lat="44.53407" lon="6.70452">
        <ele>2057.4</ele>
        <time>2022-06-12T12:52:35Z</time>
      </trkpt>
      <trkpt lat="44.53409" lon="6.70452">
        <ele>2057.7</ele>
        <time>2022-06-12T12:52:36Z</time>
      </trkpt>
      <trkpt lat="44.53411" lon="6.70453">
        <ele>2058</ele>
        <time>2022-06-12T12:52:37Z</time>
      </trkpt>
      <trkpt lat="44.53413" lon="6.70454">
        <ele>2058.2</ele>
        <time>2022-06-12T12:52:38Z</time>
      </trkpt>
      <trkpt lat="44.53416" lon="6.70454">
        <ele>2058.5</ele>
        <time>2022-06-12T12:52:39Z</time>
      </trkpt>
      <trkpt lat="44.53418" lon="6.70455">
        <ele>2058.8</ele>
        <time>2022-06-12T12:52:40Z</time>
      </trkpt>
      <trkpt lat="44.5342" lon="6.70455">
        <ele>2059.1</ele>
        <time>2022-06-12T12:52:41Z</time>
      </trkpt>
      <trkpt lat="44.53422" lon="6.70456">
        <ele>2059.4</ele>
        <time>2022-06-12T12:52:42Z</time>
      </trkpt>
      <trkpt lat="44.53425" lon="6.70457">
        <ele>2059.8</ele>
        <time>2022-06-12T12:52:43Z</time>
      </trkpt>
      <trkpt lat="44.53427" lon="6.70458">
        <ele>2060.1</ele>
        <time>2022-06-12T12:52:44Z</time>
      </trkpt>
      <trkpt lat="44.53429" lon="6.70459">
        <ele>2060.3</ele>
        <time>2022-06-12T12:52:45Z</time>
      </trkpt>
      <trkpt lat="44.53431" lon="6.7046">
        <ele>2060.6</ele>
        <time>2022-06-12T12:52:46Z</time>
      </trkpt>
      <trkpt lat="44.53433" lon="6.70461">
        <ele>2060.8</ele>
        <time>2022-06-12T12:52:47Z</time>
      </trkpt>
      <trkpt lat="44.53435" lon="6.70462">
        <ele>2061.1</ele>
        <time>2022-06-12T12:52:48Z</time>
      </trkpt>
      <trkpt lat="44.53437" lon="6.70463">
        <ele>2061.4</ele>
        <time>2022-06-12T12:52:49Z</time>
      </trkpt>
      <trkpt lat="44.53439" lon="6.70464">
        <ele>2061.7</ele>
        <time>2022-06-12T12:52:50Z</time>
      </trkpt>
      <trkpt lat="44.53441" lon="6.70466">
        <ele>2061.9</ele>
        <time>2022-06-12T12:52:51Z</time>
      </trkpt>
      <trkpt lat="44.53443" lon="6.70468">
        <ele>2062.1</ele>
        <time>2022-06-12T12:52:52Z</time>
      </trkpt>
      <trkpt lat="44.53445" lon="6.70469">
        <ele>2062.4</ele>
        <time>2022-06-12T12:52:53Z</time>
      </trkpt>
      <trkpt lat="44.53447" lon="6.70471">
        <ele>2062.7</ele>
        <time>2022-06-12T12:52:54Z</time>
      </trkpt>
      <trkpt lat="44.53449" lon="6.70472">
        <ele>2062.9</ele>
        <time>2022-06-12T12:52:55Z</time>
      </trkpt>
      <trkpt lat="44.53451" lon="6.70473">
        <ele>2063.2</ele>
        <time>2022-06-12T12:52:56Z</time>
      </trkpt>
      <trkpt lat="44.53453" lon="6.70475">
        <ele>2063.4</ele>
        <time>2022-06-12T12:52:57Z</time>
      </trkpt>
      <trkpt lat="44.53455" lon="6.70476">
        <ele>2063.5</ele>
        <time>2022-06-12T12:52:58Z</time>
      </trkpt>
      <trkpt lat="44.53457" lon="6.70478">
        <ele>2063.7</ele>
        <time>2022-06-12T12:52:59Z</time>
      </trkpt>
      <trkpt lat="44.53459" lon="6.70479">
        <ele>2063.9</ele>
        <time>2022-06-12T12:53:00Z</time>
      </trkpt>
      <trkpt lat="44.53461" lon="6.7048">
        <ele>2064</ele>
        <time>2022-06-12T12:53:01Z</time>
      </trkpt>
      <trkpt lat="44.53463" lon="6.70482">
        <ele>2064.1</ele>
        <time>2022-06-12T12:53:02Z</time>
      </trkpt>
      <trkpt lat="44.53465" lon="6.70483">
        <ele>2064.3</ele>
        <time>2022-06-12T12:53:03Z</time>
      </trkpt>
      <trkpt lat="44.53467" lon="6.70484">
        <ele>2064.5</ele>
        <time>2022-06-12T12:53:04Z</time>
      </trkpt>
      <trkpt lat="44.53469" lon="6.70485">
        <ele>2064.6</ele>
        <time>2022-06-12T12:53:05Z</time>
      </trkpt>
      <trkpt lat="44.53471" lon="6.70486">
        <ele>2064.8</ele>
        <time>2022-06-12T12:53:06Z</time>
      </trkpt>
      <trkpt lat="44.53474" lon="6.70487">
        <ele>2064.9</ele>
        <time>2022-06-12T12:53:07Z</time>
      </trkpt>
      <trkpt lat="44.53476" lon="6.70487">
        <ele>2064.9</ele>
        <time>2022-06-12T12:53:08Z</time>
      </trkpt>
      <trkpt lat="44.53478" lon="6.70488">
        <ele>2064.8</ele>
        <time>2022-06-12T12:53:09Z</time>
      </trkpt>
      <trkpt lat="44.5348" lon="6.70489">
        <ele>2064.7</ele>
        <time>2022-06-12T12:53:10Z</time>
      </trkpt>
      <trkpt lat="44.53482" lon="6.70489">
        <ele>2064.7</ele>
        <time>2022-06-12T12:53:11Z</time>
      </trkpt>
      <trkpt lat="44.53485" lon="6.7049">
        <ele>2064.6</ele>
        <time>2022-06-12T12:53:12Z</time>
      </trkpt>
      <trkpt lat="44.53487" lon="6.7049">
        <ele>2064.6</ele>
        <time>2022-06-12T12:53:13Z</time>
      </trkpt>
      <trkpt lat="44.53489" lon="6.7049">
        <ele>2064.6</ele>
        <time>2022-06-12T12:53:14Z</time>
      </trkpt>
      <trkpt lat="44.53491" lon="6.7049">
        <ele>2064.7</ele>
        <time>2022-06-12T12:53:15Z</time>
      </trkpt>
      <trkpt lat="44.53494" lon="6.7049">
        <ele>2064.8</ele>
        <time>2022-06-12T12:53:16Z</time>
      </trkpt>
      <trkpt lat="44.53496" lon="6.7049">
        <ele>2064.8</ele>
        <time>2022-06-12T12:53:17Z</time>
      </trkpt>
      <trkpt lat="44.53498" lon="6.7049">
        <ele>2064.9</ele>
        <time>2022-06-12T12:53:18Z</time>
      </trkpt>
      <trkpt lat="44.535" lon="6.70489">
        <ele>2065.1</ele>
        <time>2022-06-12T12:53:19Z</time>
      </trkpt>
      <trkpt lat="44.53502" lon="6.70489">
        <ele>2065</ele>
        <time>2022-06-12T12:53:20Z</time>
      </trkpt>
      <trkpt lat="44.53504" lon="6.70488">
        <ele>2064.8</ele>
        <time>2022-06-12T12:53:21Z</time>
      </trkpt>
      <trkpt lat="44.53507" lon="6.70487">
        <ele>2064.8</ele>
        <time>2022-06-12T12:53:22Z</time>
      </trkpt>
      <trkpt lat="44.53509" lon="6.70487">
        <ele>2064.6</ele>
        <time>2022-06-12T12:53:23Z</time>
      </trkpt>
      <trkpt lat="44.53511" lon="6.70486">
        <ele>2064.6</ele>
        <time>2022-06-12T12:53:24Z</time>
      </trkpt>
      <trkpt lat="44.53513" lon="6.70485">
        <ele>2064.6</ele>
        <time>2022-06-12T12:53:25Z</time>
      </trkpt>
      <trkpt lat="44.53515" lon="6.70484">
        <ele>2064.6</ele>
        <time>2022-06-12T12:53:26Z</time>
      </trkpt>
      <trkpt lat="44.53517" lon="6.70483">
        <ele>2064.7</ele>
        <time>2022-06-12T12:53:27Z</time>
      </trkpt>
      <trkpt lat="44.53519" lon="6.70482">
        <ele>2064.8</ele>
        <time>2022-06-12T12:53:28Z</time>
      </trkpt>
      <trkpt lat="44.53521" lon="6.7048">
        <ele>2065</ele>
        <time>2022-06-12T12:53:29Z</time>
      </trkpt>
      <trkpt lat="44.53523" lon="6.70479">
        <ele>2065.3</ele>
        <time>2022-06-12T12:53:30Z</time>
      </trkpt>
      <trkpt lat="44.53525" lon="6.70477">
        <ele>2065.5</ele>
        <time>2022-06-12T12:53:31Z</time>
      </trkpt>
      <trkpt lat="44.53527" lon="6.70476">
        <ele>2065.9</ele>
        <time>2022-06-12T12:53:32Z</time>
      </trkpt>
      <trkpt lat="44.53529" lon="6.70474">
        <ele>2066.2</ele>
        <time>2022-06-12T12:53:33Z</time>
      </trkpt>
      <trkpt lat="44.53531" lon="6.70473">
        <ele>2066.5</ele>
        <time>2022-06-12T12:53:34Z</time>
      </trkpt>
      <trkpt lat="44.53532" lon="6.70471">
        <ele>2066.7</ele>
        <time>2022-06-12T12:53:35Z</time>
      </trkpt>
      <trkpt lat="44.53534" lon="6.70469">
        <ele>2067.1</ele>
        <time>2022-06-12T12:53:36Z</time>
      </trkpt>
      <trkpt lat="44.53536" lon="6.70468">
        <ele>2067.2</ele>
        <time>2022-06-12T12:53:37Z</time>
      </trkpt>
      <trkpt lat="44.53538" lon="6.70466">
        <ele>2067.5</ele>
        <time>2022-06-12T12:53:38Z</time>
      </trkpt>
      <trkpt lat="44.5354" lon="6.70464">
        <ele>2067.7</ele>
        <time>2022-06-12T12:53:39Z</time>
      </trkpt>
      <trkpt lat="44.53541" lon="6.70462">
        <ele>2068</ele>
        <time>2022-06-12T12:53:40Z</time>
      </trkpt>
      <trkpt lat="44.53543" lon="6.7046">
        <ele>2068.3</ele>
        <time>2022-06-12T12:53:41Z</time>
      </trkpt>
      <trkpt lat="44.53545" lon="6.70458">
        <ele>2068.6</ele>
        <time>2022-06-12T12:53:42Z</time>
      </trkpt>
      <trkpt lat="44.53546" lon="6.70456">
        <ele>2068.9</ele>
        <time>2022-06-12T12:53:43Z</time>
      </trkpt>
      <trkpt lat="44.53548" lon="6.70454">
        <ele>2069.2</ele>
        <time>2022-06-12T12:53:44Z</time>
      </trkpt>
      <trkpt lat="44.53549" lon="6.70451">
        <ele>2069.6</ele>
        <time>2022-06-12T12:53:45Z</time>
      </trkpt>
      <trkpt lat="44.53551" lon="6.70449">
        <ele>2069.9</ele>
        <time>2022-06-12T12:53:46Z</time>
      </trkpt>
      <trkpt lat="44.53552" lon="6.70446">
        <ele>2070.3</ele>
        <time>2022-06-12T12:53:47Z</time>
      </trkpt>
      <trkpt lat="44.53553" lon="6.70444">
        <ele>2070.7</ele>
        <time>2022-06-12T12:53:48Z</time>
      </trkpt>
      <trkpt lat="44.53555" lon="6.70442">
        <ele>2070.9</ele>
        <time>2022-06-12T12:53:49Z</time>
      </trkpt>
      <trkpt lat="44.53556" lon="6.70439">
        <ele>2071.2</ele>
        <time>2022-06-12T12:53:50Z</time>
      </trkpt>
      <trkpt lat="44.53558" lon="6.70437">
        <ele>2071.9</ele>
        <time>2022-06-12T12:53:51Z</time>
      </trkpt>
      <trkpt lat="44.53559" lon="6.70434">
        <ele>2072.5</ele>
        <time>2022-06-12T12:53:52Z</time>
      </trkpt>
      <trkpt lat="44.5356" lon="6.70432">
        <ele>2073</ele>
        <time>2022-06-12T12:53:53Z</time>
      </trkpt>
      <trkpt lat="44.53562" lon="6.7043">
        <ele>2073.5</ele>
        <time>2022-06-12T12:53:54Z</time>
      </trkpt>
      <trkpt lat="44.53563" lon="6.70427">
        <ele>2073.9</ele>
        <time>2022-06-12T12:53:55Z</time>
      </trkpt>
      <trkpt lat="44.53564" lon="6.70425">
        <ele>2074.2</ele>
        <time>2022-06-12T12:53:56Z</time>
      </trkpt>
      <trkpt lat="44.53566" lon="6.70423">
        <ele>2074.5</ele>
        <time>2022-06-12T12:53:57Z</time>
      </trkpt>
      <trkpt lat="44.53568" lon="6.7042">
        <ele>2074.7</ele>
        <time>2022-06-12T12:53:58Z</time>
      </trkpt>
      <trkpt lat="44.53569" lon="6.70418">
        <ele>2074.9</ele>
        <time>2022-06-12T12:53:59Z</time>
      </trkpt>
      <trkpt lat="44.5357" lon="6.70415">
        <ele>2075.2</ele>
        <time>2022-06-12T12:54:00Z</time>
      </trkpt>
      <trkpt lat="44.53572" lon="6.70413">
        <ele>2075.5</ele>
        <time>2022-06-12T12:54:01Z</time>
      </trkpt>
      <trkpt lat="44.53573" lon="6.7041">
        <ele>2075.8</ele>
        <time>2022-06-12T12:54:02Z</time>
      </trkpt>
      <trkpt lat="44.53574" lon="6.70408">
        <ele>2076.2</ele>
        <time>2022-06-12T12:54:03Z</time>
      </trkpt>
      <trkpt lat="44.53576" lon="6.70406">
        <ele>2076.4</ele>
        <time>2022-06-12T12:54:04Z</time>
      </trkpt>
      <trkpt lat="44.53577" lon="6.70403">
        <ele>2076.6</ele>
        <time>2022-06-12T12:54:05Z</time>
      </trkpt>
      <trkpt lat="44.53579" lon="6.70401">
        <ele>2076.9</ele>
        <time>2022-06-12T12:54:06Z</time>
      </trkpt>
      <trkpt lat="44.5358" lon="6.70398">
        <ele>2077.1</ele>
        <time>2022-06-12T12:54:07Z</time>
      </trkpt>
      <trkpt lat="44.53582" lon="6.70396">
        <ele>2077.2</ele>
        <time>2022-06-12T12:54:08Z</time>
      </trkpt>
      <trkpt lat="44.53583" lon="6.70394">
        <ele>2077.4</ele>
        <time>2022-06-12T12:54:09Z</time>
      </trkpt>
      <trkpt lat="44.53585" lon="6.70391">
        <ele>2077.9</ele>
        <time>2022-06-12T12:54:10Z</time>
      </trkpt>
      <trkpt lat="44.53586" lon="6.70389">
        <ele>2078.4</ele>
        <time>2022-06-12T12:54:11Z</time>
      </trkpt>
      <trkpt lat="44.53588" lon="6.70386">
        <ele>2078.9</ele>
        <time>2022-06-12T12:54:12Z</time>
      </trkpt>
      <trkpt lat="44.53589" lon="6.70384">
        <ele>2079.4</ele>
        <time>2022-06-12T12:54:13Z</time>
      </trkpt>
      <trkpt lat="44.53591" lon="6.70381">
        <ele>2079.7</ele>
        <time>2022-06-12T12:54:14Z</time>
      </trkpt>
      <trkpt lat="44.53592" lon="6.70379">
        <ele>2080.1</ele>
        <time>2022-06-12T12:54:15Z</time>
      </trkpt>
      <trkpt lat="44.53594" lon="6.70376">
        <ele>2080.4</ele>
        <time>2022-06-12T12:54:16Z</time>
      </trkpt>
      <trkpt lat="44.53595" lon="6.70374">
        <ele>2080.6</ele>
        <time>2022-06-12T12:54:17Z</time>
      </trkpt>
      <trkpt lat="44.53597" lon="6.70371">
        <ele>2080.8</ele>
        <time>2022-06-12T12:54:18Z</time>
      </trkpt>
      <trkpt lat="44.53598" lon="6.70369">
        <ele>2080.9</ele>
        <time>2022-06-12T12:54:19Z</time>
      </trkpt>
      <trkpt lat="44.536" lon="6.70366">
        <ele>2081</ele>
        <time>2022-06-12T12:54:20Z</time>
      </trkpt>
      <trkpt lat="44.53601" lon="6.70364">
        <ele>2081</ele>
        <time>2022-06-12T12:54:21Z</time>
      </trkpt>
      <trkpt lat="44.53603" lon="6.70362">
        <ele>2080.9</ele>
        <time>2022-06-12T12:54:22Z</time>
      </trkpt>
      <trkpt lat="44.53605" lon="6.70359">
        <ele>2080.8</ele>
        <time>2022-06-12T12:54:23Z</time>
      </trkpt>
      <trkpt lat="44.53607" lon="6.70357">
        <ele>2080.8</ele>
        <time>2022-06-12T12:54:24Z</time>
      </trkpt>
      <trkpt lat="44.53609" lon="6.70356">
        <ele>2080.7</ele>
        <time>2022-06-12T12:54:25Z</time>
      </trkpt>
      <trkpt lat="44.5361" lon="6.70354">
        <ele>2080.6</ele>
        <time>2022-06-12T12:54:26Z</time>
      </trkpt>
      <trkpt lat="44.53612" lon="6.70352">
        <ele>2080.9</ele>
        <time>2022-06-12T12:54:27Z</time>
      </trkpt>
      <trkpt lat="44.53614" lon="6.7035">
        <ele>2081.2</ele>
        <time>2022-06-12T12:54:28Z</time>
      </trkpt>
      <trkpt lat="44.53616" lon="6.70348">
        <ele>2081.6</ele>
        <time>2022-06-12T12:54:29Z</time>
      </trkpt>
      <trkpt lat="44.53618" lon="6.70346">
        <ele>2081.9</ele>
        <time>2022-06-12T12:54:30Z</time>
      </trkpt>
      <trkpt lat="44.5362" lon="6.70345">
        <ele>2082.2</ele>
        <time>2022-06-12T12:54:31Z</time>
      </trkpt>
      <trkpt lat="44.53622" lon="6.70344">
        <ele>2082.5</ele>
        <time>2022-06-12T12:54:32Z</time>
      </trkpt>
      <trkpt lat="44.53625" lon="6.70343">
        <ele>2082.8</ele>
        <time>2022-06-12T12:54:33Z</time>
      </trkpt>
      <trkpt lat="44.53627" lon="6.70343">
        <ele>2083</ele>
        <time>2022-06-12T12:54:34Z</time>
      </trkpt>
      <trkpt lat="44.53629" lon="6.70343">
        <ele>2083.3</ele>
        <time>2022-06-12T12:54:35Z</time>
      </trkpt>
      <trkpt lat="44.53632" lon="6.70342">
        <ele>2083.5</ele>
        <time>2022-06-12T12:54:36Z</time>
      </trkpt>
      <trkpt lat="44.53634" lon="6.70341">
        <ele>2083.8</ele>
        <time>2022-06-12T12:54:37Z</time>
      </trkpt>
      <trkpt lat="44.53636" lon="6.7034">
        <ele>2084</ele>
        <time>2022-06-12T12:54:38Z</time>
      </trkpt>
      <trkpt lat="44.53638" lon="6.70339">
        <ele>2084.1</ele>
        <time>2022-06-12T12:54:39Z</time>
      </trkpt>
      <trkpt lat="44.53641" lon="6.70339">
        <ele>2084.4</ele>
        <time>2022-06-12T12:54:40Z</time>
      </trkpt>
      <trkpt lat="44.53643" lon="6.70339">
        <ele>2084.8</ele>
        <time>2022-06-12T12:54:41Z</time>
      </trkpt>
      <trkpt lat="44.53645" lon="6.70338">
        <ele>2085.1</ele>
        <time>2022-06-12T12:54:42Z</time>
      </trkpt>
      <trkpt lat="44.53647" lon="6.70338">
        <ele>2085.4</ele>
        <time>2022-06-12T12:54:43Z</time>
      </trkpt>
      <trkpt lat="44.5365" lon="6.70338">
        <ele>2085.7</ele>
        <time>2022-06-12T12:54:44Z</time>
      </trkpt>
      <trkpt lat="44.53652" lon="6.70337">
        <ele>2086</ele>
        <time>2022-06-12T12:54:45Z</time>
      </trkpt>
      <trkpt lat="44.53654" lon="6.70337">
        <ele>2086.3</ele>
        <time>2022-06-12T12:54:46Z</time>
      </trkpt>
      <trkpt lat="44.53656" lon="6.70336">
        <ele>2086.6</ele>
        <time>2022-06-12T12:54:47Z</time>
      </trkpt>
      <trkpt lat="44.53659" lon="6.70336">
        <ele>2086.9</ele>
        <time>2022-06-12T12:54:48Z</time>
      </trkpt>
      <trkpt lat="44.53661" lon="6.70335">
        <ele>2087.3</ele>
        <time>2022-06-12T12:54:49Z</time>
      </trkpt>
      <trkpt lat="44.53663" lon="6.70335">
        <ele>2087.5</ele>
        <time>2022-06-12T12:54:50Z</time>
      </trkpt>
      <trkpt lat="44.53665" lon="6.70335">
        <ele>2087.8</ele>
        <time>2022-06-12T12:54:51Z</time>
      </trkpt>
      <trkpt lat="44.53668" lon="6.70335">
        <ele>2088.2</ele>
        <time>2022-06-12T12:54:52Z</time>
      </trkpt>
      <trkpt lat="44.5367" lon="6.70335">
        <ele>2088.4</ele>
        <time>2022-06-12T12:54:53Z</time>
      </trkpt>
      <trkpt lat="44.53672" lon="6.70334">
        <ele>2088.6</ele>
        <time>2022-06-12T12:54:54Z</time>
      </trkpt>
      <trkpt lat="44.53675" lon="6.70334">
        <ele>2088.9</ele>
        <time>2022-06-12T12:54:55Z</time>
      </trkpt>
      <trkpt lat="44.53677" lon="6.70334">
        <ele>2089.1</ele>
        <time>2022-06-12T12:54:56Z</time>
      </trkpt>
      <trkpt lat="44.53679" lon="6.70333">
        <ele>2089.3</ele>
        <time>2022-06-12T12:54:57Z</time>
      </trkpt>
      <trkpt lat="44.53681" lon="6.70333">
        <ele>2089.5</ele>
        <time>2022-06-12T12:54:58Z</time>
      </trkpt>
      <trkpt lat="44.53683" lon="6.70332">
        <ele>2089.8</ele>
        <time>2022-06-12T12:54:59Z</time>
      </trkpt>
      <trkpt lat="44.53686" lon="6.70332">
        <ele>2090</ele>
        <time>2022-06-12T12:55:00Z</time>
      </trkpt>
      <trkpt lat="44.53688" lon="6.70331">
        <ele>2090.2</ele>
        <time>2022-06-12T12:55:01Z</time>
      </trkpt>
      <trkpt lat="44.5369" lon="6.7033">
        <ele>2090.4</ele>
        <time>2022-06-12T12:55:02Z</time>
      </trkpt>
      <trkpt lat="44.53693" lon="6.7033">
        <ele>2090.7</ele>
        <time>2022-06-12T12:55:03Z</time>
      </trkpt>
      <trkpt lat="44.53695" lon="6.70329">
        <ele>2090.8</ele>
        <time>2022-06-12T12:55:04Z</time>
      </trkpt>
      <trkpt lat="44.53697" lon="6.70328">
        <ele>2091.2</ele>
        <time>2022-06-12T12:55:05Z</time>
      </trkpt>
      <trkpt lat="44.53699" lon="6.70327">
        <ele>2091.4</ele>
        <time>2022-06-12T12:55:06Z</time>
      </trkpt>
      <trkpt lat="44.53701" lon="6.70326">
        <ele>2091.7</ele>
        <time>2022-06-12T12:55:07Z</time>
      </trkpt>
      <trkpt lat="44.53704" lon="6.70325">
        <ele>2092</ele>
        <time>2022-06-12T12:55:08Z</time>
      </trkpt>
      <trkpt lat="44.53706" lon="6.70324">
        <ele>2092.3</ele>
        <time>2022-06-12T12:55:09Z</time>
      </trkpt>
      <trkpt lat="44.53708" lon="6.70323">
        <ele>2092.5</ele>
        <time>2022-06-12T12:55:10Z</time>
      </trkpt>
      <trkpt lat="44.5371" lon="6.70322">
        <ele>2092.8</ele>
        <time>2022-06-12T12:55:11Z</time>
      </trkpt>
      <trkpt lat="44.53712" lon="6.7032">
        <ele>2093</ele>
        <time>2022-06-12T12:55:12Z</time>
      </trkpt>
      <trkpt lat="44.53714" lon="6.70319">
        <ele>2093.3</ele>
        <time>2022-06-12T12:55:13Z</time>
      </trkpt>
      <trkpt lat="44.53716" lon="6.70317">
        <ele>2093.5</ele>
        <time>2022-06-12T12:55:14Z</time>
      </trkpt>
      <trkpt lat="44.53718" lon="6.70316">
        <ele>2093.7</ele>
        <time>2022-06-12T12:55:15Z</time>
      </trkpt>
      <trkpt lat="44.5372" lon="6.70315">
        <ele>2094</ele>
        <time>2022-06-12T12:55:16Z</time>
      </trkpt>
      <trkpt lat="44.53722" lon="6.70314">
        <ele>2094.3</ele>
        <time>2022-06-12T12:55:17Z</time>
      </trkpt>
      <trkpt lat="44.53724" lon="6.70313">
        <ele>2094.5</ele>
        <time>2022-06-12T12:55:18Z</time>
      </trkpt>
      <trkpt lat="44.53726" lon="6.70311">
        <ele>2094.7</ele>
        <time>2022-06-12T12:55:19Z</time>
      </trkpt>
      <trkpt lat="44.53728" lon="6.7031">
        <ele>2094.9</ele>
        <time>2022-06-12T12:55:20Z</time>
      </trkpt>
      <trkpt lat="44.53731" lon="6.70309">
        <ele>2095.1</ele>
        <time>2022-06-12T12:55:21Z</time>
      </trkpt>
      <trkpt lat="44.53733" lon="6.70308">
        <ele>2095.3</ele>
        <time>2022-06-12T12:55:22Z</time>
      </trkpt>
      <trkpt lat="44.53735" lon="6.70307">
        <ele>2095.5</ele>
        <time>2022-06-12T12:55:23Z</time>
      </trkpt>
      <trkpt lat="44.53737" lon="6.70306">
        <ele>2095.7</ele>
        <time>2022-06-12T12:55:24Z</time>
      </trkpt>
      <trkpt lat="44.5374" lon="6.70305">
        <ele>2095.9</ele>
        <time>2022-06-12T12:55:25Z</time>
      </trkpt>
      <trkpt lat="44.53742" lon="6.70304">
        <ele>2096.2</ele>
        <time>2022-06-12T12:55:26Z</time>
      </trkpt>
      <trkpt lat="44.53744" lon="6.70303">
        <ele>2096.5</ele>
        <time>2022-06-12T12:55:27Z</time>
      </trkpt>
      <trkpt lat="44.53746" lon="6.70303">
        <ele>2096.8</ele>
        <time>2022-06-12T12:55:28Z</time>
      </trkpt>
      <trkpt lat="44.53748" lon="6.70302">
        <ele>2097</ele>
        <time>2022-06-12T12:55:29Z</time>
      </trkpt>
      <trkpt lat="44.5375" lon="6.70302">
        <ele>2097.3</ele>
        <time>2022-06-12T12:55:30Z</time>
      </trkpt>
      <trkpt lat="44.53753" lon="6.70301">
        <ele>2097.6</ele>
        <time>2022-06-12T12:55:31Z</time>
      </trkpt>
      <trkpt lat="44.53755" lon="6.70302">
        <ele>2097.8</ele>
        <time>2022-06-12T12:55:32Z</time>
      </trkpt>
      <trkpt lat="44.53757" lon="6.70302">
        <ele>2098</ele>
        <time>2022-06-12T12:55:33Z</time>
      </trkpt>
      <trkpt lat="44.53759" lon="6.70302">
        <ele>2098.3</ele>
        <time>2022-06-12T12:55:34Z</time>
      </trkpt>
      <trkpt lat="44.53762" lon="6.70302">
        <ele>2098.5</ele>
        <time>2022-06-12T12:55:35Z</time>
      </trkpt>
      <trkpt lat="44.53764" lon="6.70302">
        <ele>2098.8</ele>
        <time>2022-06-12T12:55:36Z</time>
      </trkpt>
      <trkpt lat="44.53766" lon="6.70302">
        <ele>2099</ele>
        <time>2022-06-12T12:55:37Z</time>
      </trkpt>
      <trkpt lat="44.53769" lon="6.70302">
        <ele>2099.3</ele>
        <time>2022-06-12T12:55:38Z</time>
      </trkpt>
      <trkpt lat="44.53771" lon="6.70302">
        <ele>2099.5</ele>
        <time>2022-06-12T12:55:39Z</time>
      </trkpt>
      <trkpt lat="44.53773" lon="6.70301">
        <ele>2099.8</ele>
        <time>2022-06-12T12:55:40Z</time>
      </trkpt>
      <trkpt lat="44.53775" lon="6.70301">
        <ele>2100</ele>
        <time>2022-06-12T12:55:41Z</time>
      </trkpt>
      <trkpt lat="44.53778" lon="6.70302">
        <ele>2100.3</ele>
        <time>2022-06-12T12:55:42Z</time>
      </trkpt>
      <trkpt lat="44.5378" lon="6.70302">
        <ele>2100.5</ele>
        <time>2022-06-12T12:55:43Z</time>
      </trkpt>
      <trkpt lat="44.53782" lon="6.70302">
        <ele>2100.7</ele>
        <time>2022-06-12T12:55:44Z</time>
      </trkpt>
      <trkpt lat="44.53785" lon="6.70302">
        <ele>2101</ele>
        <time>2022-06-12T12:55:45Z</time>
      </trkpt>
      <trkpt lat="44.53787" lon="6.70302">
        <ele>2101.2</ele>
        <time>2022-06-12T12:55:46Z</time>
      </trkpt>
      <trkpt lat="44.53789" lon="6.70302">
        <ele>2101.5</ele>
        <time>2022-06-12T12:55:47Z</time>
      </trkpt>
      <trkpt lat="44.53791" lon="6.70302">
        <ele>2101.7</ele>
        <time>2022-06-12T12:55:48Z</time>
      </trkpt>
      <trkpt lat="44.53793" lon="6.70303">
        <ele>2101.9</ele>
        <time>2022-06-12T12:55:49Z</time>
      </trkpt>
      <trkpt lat="44.53796" lon="6.70302">
        <ele>2102.2</ele>
        <time>2022-06-12T12:55:50Z</time>
      </trkpt>
      <trkpt lat="44.53798" lon="6.70302">
        <ele>2102.4</ele>
        <time>2022-06-12T12:55:51Z</time>
      </trkpt>
      <trkpt lat="44.538" lon="6.70302">
        <ele>2102.7</ele>
        <time>2022-06-12T12:55:52Z</time>
      </trkpt>
      <trkpt lat="44.53802" lon="6.70301">
        <ele>2102.9</ele>
        <time>2022-06-12T12:55:53Z</time>
      </trkpt>
      <trkpt lat="44.53804" lon="6.70301">
        <ele>2103.2</ele>
        <time>2022-06-12T12:55:54Z</time>
      </trkpt>
      <trkpt lat="44.53807" lon="6.70302">
        <ele>2103.4</ele>
        <time>2022-06-12T12:55:55Z</time>
      </trkpt>
      <trkpt lat="44.53809" lon="6.70302">
        <ele>2103.6</ele>
        <time>2022-06-12T12:55:56Z</time>
      </trkpt>
      <trkpt lat="44.53811" lon="6.70302">
        <ele>2103.9</ele>
        <time>2022-06-12T12:55:57Z</time>
      </trkpt>
      <trkpt lat="44.53813" lon="6.70302">
        <ele>2104.1</ele>
        <time>2022-06-12T12:55:58Z</time>
      </trkpt>
      <trkpt lat="44.53816" lon="6.70302">
        <ele>2104.4</ele>
        <time>2022-06-12T12:55:59Z</time>
      </trkpt>
      <trkpt lat="44.53818" lon="6.70301">
        <ele>2104.7</ele>
        <time>2022-06-12T12:56:00Z</time>
      </trkpt>
      <trkpt lat="44.5382" lon="6.70301">
        <ele>2104.9</ele>
        <time>2022-06-12T12:56:01Z</time>
      </trkpt>
      <trkpt lat="44.53823" lon="6.70301">
        <ele>2105.2</ele>
        <time>2022-06-12T12:56:02Z</time>
      </trkpt>
      <trkpt lat="44.53825" lon="6.70301">
        <ele>2105.4</ele>
        <time>2022-06-12T12:56:03Z</time>
      </trkpt>
      <trkpt lat="44.53827" lon="6.70301">
        <ele>2105.7</ele>
        <time>2022-06-12T12:56:04Z</time>
      </trkpt>
      <trkpt lat="44.5383" lon="6.70301">
        <ele>2105.9</ele>
        <time>2022-06-12T12:56:05Z</time>
      </trkpt>
      <trkpt lat="44.53832" lon="6.70301">
        <ele>2106.2</ele>
        <time>2022-06-12T12:56:06Z</time>
      </trkpt>
      <trkpt lat="44.53834" lon="6.70301">
        <ele>2106.5</ele>
        <time>2022-06-12T12:56:07Z</time>
      </trkpt>
      <trkpt lat="44.53837" lon="6.703">
        <ele>2107</ele>
        <time>2022-06-12T12:56:08Z</time>
      </trkpt>
      <trkpt lat="44.53839" lon="6.703">
        <ele>2107.2</ele>
        <time>2022-06-12T12:56:09Z</time>
      </trkpt>
      <trkpt lat="44.53841" lon="6.703">
        <ele>2107.6</ele>
        <time>2022-06-12T12:56:10Z</time>
      </trkpt>
      <trkpt lat="44.53844" lon="6.70299">
        <ele>2108.1</ele>
        <time>2022-06-12T12:56:11Z</time>
      </trkpt>
      <trkpt lat="44.53846" lon="6.70299">
        <ele>2108.3</ele>
        <time>2022-06-12T12:56:12Z</time>
      </trkpt>
      <trkpt lat="44.53848" lon="6.70298">
        <ele>2108.6</ele>
        <time>2022-06-12T12:56:13Z</time>
      </trkpt>
      <trkpt lat="44.5385" lon="6.70297">
        <ele>2108.9</ele>
        <time>2022-06-12T12:56:14Z</time>
      </trkpt>
      <trkpt lat="44.53852" lon="6.70297">
        <ele>2109.1</ele>
        <time>2022-06-12T12:56:15Z</time>
      </trkpt>
      <trkpt lat="44.53854" lon="6.70297">
        <ele>2109.4</ele>
        <time>2022-06-12T12:56:16Z</time>
      </trkpt>
      <trkpt lat="44.53856" lon="6.70296">
        <ele>2109.6</ele>
        <time>2022-06-12T12:56:17Z</time>
      </trkpt>
      <trkpt lat="44.53858" lon="6.70296">
        <ele>2109.9</ele>
        <time>2022-06-12T12:56:18Z</time>
      </trkpt>
      <trkpt lat="44.53861" lon="6.70295">
        <ele>2110.2</ele>
        <time>2022-06-12T12:56:19Z</time>
      </trkpt>
      <trkpt lat="44.53863" lon="6.70295">
        <ele>2110.4</ele>
        <time>2022-06-12T12:56:20Z</time>
      </trkpt>
      <trkpt lat="44.53865" lon="6.70294">
        <ele>2110.5</ele>
        <time>2022-06-12T12:56:21Z</time>
      </trkpt>
      <trkpt lat="44.53868" lon="6.70293">
        <ele>2110.7</ele>
        <time>2022-06-12T12:56:22Z</time>
      </trkpt>
      <trkpt lat="44.53869" lon="6.70293">
        <ele>2110.7</ele>
        <time>2022-06-12T12:56:23Z</time>
      </trkpt>
      <trkpt lat="44.53871" lon="6.70292">
        <ele>2110.8</ele>
        <time>2022-06-12T12:56:24Z</time>
      </trkpt>
      <trkpt lat="44.53873" lon="6.70291">
        <ele>2110.7</ele>
        <time>2022-06-12T12:56:25Z</time>
      </trkpt>
      <trkpt lat="44.53874" lon="6.70289">
        <ele>2110.6</ele>
        <time>2022-06-12T12:56:26Z</time>
      </trkpt>
      <trkpt lat="44.53875" lon="6.70287">
        <ele>2110.3</ele>
        <time>2022-06-12T12:56:27Z</time>
      </trkpt>
      <trkpt lat="44.53876" lon="6.70285">
        <ele>2110</ele>
        <time>2022-06-12T12:56:28Z</time>
      </trkpt>
      <trkpt lat="44.53878" lon="6.70283">
        <ele>2109.8</ele>
        <time>2022-06-12T12:56:29Z</time>
      </trkpt>
      <trkpt lat="44.53879" lon="6.70281">
        <ele>2109.5</ele>
        <time>2022-06-12T12:56:30Z</time>
      </trkpt>
      <trkpt lat="44.53879" lon="6.7028">
        <ele>2109.3</ele>
        <time>2022-06-12T12:56:31Z</time>
      </trkpt>
      <trkpt lat="44.5388" lon="6.70278">
        <ele>2109.1</ele>
        <time>2022-06-12T12:56:32Z</time>
      </trkpt>
      <trkpt lat="44.5388" lon="6.70277">
        <ele>2109</ele>
        <time>2022-06-12T12:56:33Z</time>
      </trkpt>
      <trkpt lat="44.5388" lon="6.70277">
        <ele>2108.9</ele>
        <time>2022-06-12T12:56:34Z</time>
      </trkpt>
      <trkpt lat="44.5388" lon="6.70277">
        <ele>2108.9</ele>
        <time>2022-06-12T12:56:35Z</time>
      </trkpt>
      <trkpt lat="44.53887" lon="6.70278">
        <ele>2109.1</ele>
        <time>2022-06-12T12:58:35Z</time>
      </trkpt>
      <trkpt lat="44.53889" lon="6.70278">
        <ele>2109.1</ele>
        <time>2022-06-12T12:58:36Z</time>
      </trkpt>
      <trkpt lat="44.53891" lon="6.70277">
        <ele>2109</ele>
        <time>2022-06-12T12:58:37Z</time>
      </trkpt>
      <trkpt lat="44.53894" lon="6.70275">
        <ele>2109.1</ele>
        <time>2022-06-12T12:58:38Z</time>
      </trkpt>
      <trkpt lat="44.53896" lon="6.70273">
        <ele>2109</ele>
        <time>2022-06-12T12:58:39Z</time>
      </trkpt>
      <trkpt lat="44.53898" lon="6.70271">
        <ele>2109</ele>
        <time>2022-06-12T12:58:40Z</time>
      </trkpt>
      <trkpt lat="44.539" lon="6.70269">
        <ele>2108.9</ele>
        <time>2022-06-12T12:58:41Z</time>
      </trkpt>
      <trkpt lat="44.53903" lon="6.70267">
        <ele>2108.9</ele>
        <time>2022-06-12T12:58:42Z</time>
      </trkpt>
      <trkpt lat="44.53906" lon="6.70265">
        <ele>2108.8</ele>
        <time>2022-06-12T12:58:43Z</time>
      </trkpt>
      <trkpt lat="44.53909" lon="6.70262">
        <ele>2108.7</ele>
        <time>2022-06-12T12:58:44Z</time>
      </trkpt>
      <trkpt lat="44.53912" lon="6.7026">
        <ele>2108.6</ele>
        <time>2022-06-12T12:58:45Z</time>
      </trkpt>
      <trkpt lat="44.53916" lon="6.70257">
        <ele>2108.5</ele>
        <time>2022-06-12T12:58:46Z</time>
      </trkpt>
      <trkpt lat="44.53919" lon="6.70254">
        <ele>2108.5</ele>
        <time>2022-06-12T12:58:47Z</time>
      </trkpt>
      <trkpt lat="44.53922" lon="6.70251">
        <ele>2108.6</ele>
        <time>2022-06-12T12:58:48Z</time>
      </trkpt>
      <trkpt lat="44.53925" lon="6.70249">
        <ele>2108.9</ele>
        <time>2022-06-12T12:58:49Z</time>
      </trkpt>
      <trkpt lat="44.53929" lon="6.70246">
        <ele>2109.1</ele>
        <time>2022-06-12T12:58:50Z</time>
      </trkpt>
      <trkpt lat="44.53933" lon="6.70244">
        <ele>2109.4</ele>
        <time>2022-06-12T12:58:51Z</time>
      </trkpt>
      <trkpt lat="44.53937" lon="6.70242">
        <ele>2109.5</ele>
        <time>2022-06-12T12:58:52Z</time>
      </trkpt>
      <trkpt lat="44.53941" lon="6.70239">
        <ele>2109.6</ele>
        <time>2022-06-12T12:58:53Z</time>
      </trkpt>
      <trkpt lat="44.53946" lon="6.70237">
        <ele>2109.7</ele>
        <time>2022-06-12T12:58:54Z</time>
      </trkpt>
      <trkpt lat="44.5395" lon="6.70235">
        <ele>2109.6</ele>
        <time>2022-06-12T12:58:55Z</time>
      </trkpt>
      <trkpt lat="44.53955" lon="6.70233">
        <ele>2109.4</ele>
        <time>2022-06-12T12:58:56Z</time>
      </trkpt>
      <trkpt lat="44.5396" lon="6.70232">
        <ele>2109.3</ele>
        <time>2022-06-12T12:58:57Z</time>
      </trkpt>
      <trkpt lat="44.53964" lon="6.70231">
        <ele>2109</ele>
        <time>2022-06-12T12:58:58Z</time>
      </trkpt>
      <trkpt lat="44.53969" lon="6.70229">
        <ele>2108.7</ele>
        <time>2022-06-12T12:58:59Z</time>
      </trkpt>
      <trkpt lat="44.53975" lon="6.70227">
        <ele>2108.1</ele>
        <time>2022-06-12T12:59:00Z</time>
      </trkpt>
      <trkpt lat="44.5398" lon="6.70226">
        <ele>2107.3</ele>
        <time>2022-06-12T12:59:01Z</time>
      </trkpt>
      <trkpt lat="44.53985" lon="6.70223">
        <ele>2106.2</ele>
        <time>2022-06-12T12:59:02Z</time>
      </trkpt>
      <trkpt lat="44.53989" lon="6.7022">
        <ele>2105.3</ele>
        <time>2022-06-12T12:59:03Z</time>
      </trkpt>
      <trkpt lat="44.53994" lon="6.70218">
        <ele>2104.6</ele>
        <time>2022-06-12T12:59:04Z</time>
      </trkpt>
      <trkpt lat="44.53997" lon="6.70216">
        <ele>2104</ele>
        <time>2022-06-12T12:59:05Z</time>
      </trkpt>
      <trkpt lat="44.54" lon="6.70216">
        <ele>2103.6</ele>
        <time>2022-06-12T12:59:06Z</time>
      </trkpt>
      <trkpt lat="44.54004" lon="6.70217">
        <ele>2103</ele>
        <time>2022-06-12T12:59:07Z</time>
      </trkpt>
      <trkpt lat="44.54006" lon="6.70218">
        <ele>2103</ele>
        <time>2022-06-12T12:59:08Z</time>
      </trkpt>
      <trkpt lat="44.54008" lon="6.7022">
        <ele>2103</ele>
        <time>2022-06-12T12:59:09Z</time>
      </trkpt>
      <trkpt lat="44.5401" lon="6.70221">
        <ele>2103</ele>
        <time>2022-06-12T12:59:10Z</time>
      </trkpt>
      <trkpt lat="44.54011" lon="6.70222">
        <ele>2103</ele>
        <time>2022-06-12T13:01:37Z</time>
      </trkpt>
      <trkpt lat="44.54013" lon="6.70224">
        <ele>2103</ele>
        <time>2022-06-12T13:01:38Z</time>
      </trkpt>
      <trkpt lat="44.54017" lon="6.70228">
        <ele>2103</ele>
        <time>2022-06-12T13:01:39Z</time>
      </trkpt>
      <trkpt lat="44.54022" lon="6.70231">
        <ele>2102.9</ele>
        <time>2022-06-12T13:01:40Z</time>
      </trkpt>
      <trkpt lat="44.54027" lon="6.70236">
        <ele>2102.6</ele>
        <time>2022-06-12T13:01:41Z</time>
      </trkpt>
      <trkpt lat="44.54033" lon="6.7024">
        <ele>2101.9</ele>
        <time>2022-06-12T13:01:42Z</time>
      </trkpt>
      <trkpt lat="44.5404" lon="6.70244">
        <ele>2101.1</ele>
        <time>2022-06-12T13:01:43Z</time>
      </trkpt>
      <trkpt lat="44.54048" lon="6.70248">
        <ele>2100.2</ele>
        <time>2022-06-12T13:01:44Z</time>
      </trkpt>
      <trkpt lat="44.54056" lon="6.70251">
        <ele>2099.3</ele>
        <time>2022-06-12T13:01:45Z</time>
      </trkpt>
      <trkpt lat="44.54065" lon="6.70253">
        <ele>2098.7</ele>
        <time>2022-06-12T13:01:46Z</time>
      </trkpt>
      <trkpt lat="44.54075" lon="6.70254">
        <ele>2097.6</ele>
        <time>2022-06-12T13:01:47Z</time>
      </trkpt>
      <trkpt lat="44.54086" lon="6.70255">
        <ele>2096.4</ele>
        <time>2022-06-12T13:01:48Z</time>
      </trkpt>
      <trkpt lat="44.54096" lon="6.70255">
        <ele>2095.5</ele>
        <time>2022-06-12T13:01:49Z</time>
      </trkpt>
      <trkpt lat="44.54106" lon="6.70255">
        <ele>2094.6</ele>
        <time>2022-06-12T13:01:50Z</time>
      </trkpt>
      <trkpt lat="44.54115" lon="6.70256">
        <ele>2094</ele>
        <time>2022-06-12T13:01:51Z</time>
      </trkpt>
      <trkpt lat="44.54123" lon="6.70255">
        <ele>2093.5</ele>
        <time>2022-06-12T13:01:52Z</time>
      </trkpt>
      <trkpt lat="44.54129" lon="6.70254">
        <ele>2092.7</ele>
        <time>2022-06-12T13:01:53Z</time>
      </trkpt>
      <trkpt lat="44.54135" lon="6.70251">
        <ele>2091.6</ele>
        <time>2022-06-12T13:01:54Z</time>
      </trkpt>
      <trkpt lat="44.54139" lon="6.7025">
        <ele>2091</ele>
        <time>2022-06-12T13:01:55Z</time>
      </trkpt>
      <trkpt lat="44.54143" lon="6.70249">
        <ele>2090.6</ele>
        <time>2022-06-12T13:01:56Z</time>
      </trkpt>
      <trkpt lat="44.54145" lon="6.70249">
        <ele>2090.5</ele>
        <time>2022-06-12T13:01:57Z</time>
      </trkpt>
      <trkpt lat="44.54147" lon="6.70249">
        <ele>2090.3</ele>
        <time>2022-06-12T13:01:58Z</time>
      </trkpt>
      <trkpt lat="44.54148" lon="6.7025">
        <ele>2090.3</ele>
        <time>2022-06-12T13:01:59Z</time>
      </trkpt>
      <trkpt lat="44.54148" lon="6.7025">
        <ele>2090.3</ele>
        <time>2022-06-12T13:02:00Z</time>
      </trkpt>
      <trkpt lat="44.54149" lon="6.7025">
        <ele>2090.3</ele>
        <time>2022-06-12T13:02:01Z</time>
      </trkpt>
      <trkpt lat="44.54149" lon="6.7025">
        <ele>2090.3</ele>
        <time>2022-06-12T13:02:18Z</time>
      </trkpt>
      <trkpt lat="44.5415" lon="6.7025">
        <ele>2090.3</ele>
        <time>2022-06-12T13:02:19Z</time>
      </trkpt>
      <trkpt lat="44.5415" lon="6.70251">
        <ele>2090.4</ele>
        <time>2022-06-12T13:02:20Z</time>
      </trkpt>
      <trkpt lat="44.54151" lon="6.70251">
        <ele>2090.4</ele>
        <time>2022-06-12T13:02:21Z</time>
      </trkpt>
      <trkpt lat="44.54151" lon="6.70251">
        <ele>2090.4</ele>
        <time>2022-06-12T13:02:22Z</time>
      </trkpt>
      <trkpt lat="44.54151" lon="6.70251">
        <ele>2090.5</ele>
        <time>2022-06-12T13:02:23Z</time>
      </trkpt>
      <trkpt lat="44.54152" lon="6.70252">
        <ele>2090.5</ele>
        <time>2022-06-12T13:02:24Z</time>
      </trkpt>
      <trkpt lat="44.54152" lon="6.70252">
        <ele>2090.5</ele>
        <time>2022-06-12T13:02:25Z</time>
      </trkpt>
      <trkpt lat="44.54153" lon="6.70252">
        <ele>2090.5</ele>
        <time>2022-06-12T13:02:26Z</time>
      </trkpt>
      <trkpt lat="44.54153" lon="6.70252">
        <ele>2090.6</ele>
        <time>2022-06-12T13:02:27Z</time>
      </trkpt>
      <trkpt lat="44.54154" lon="6.70252">
        <ele>2090.6</ele>
        <time>2022-06-12T13:02:28Z</time>
      </trkpt>
      <trkpt lat="44.54154" lon="6.70253">
        <ele>2090.6</ele>
        <time>2022-06-12T13:02:29Z</time>
      </trkpt>
      <trkpt lat="44.54155" lon="6.70253">
        <ele>2090.6</ele>
        <time>2022-06-12T13:02:30Z</time>
      </trkpt>
      <trkpt lat="44.54155" lon="6.70253">
        <ele>2090.6</ele>
        <time>2022-06-12T13:02:31Z</time>
      </trkpt>
      <trkpt lat="44.54156" lon="6.70253">
        <ele>2090.7</ele>
        <time>2022-06-12T13:02:32Z</time>
      </trkpt>
      <trkpt lat="44.54156" lon="6.70254">
        <ele>2090.7</ele>
        <time>2022-06-12T13:02:33Z</time>
      </trkpt>
      <trkpt lat="44.54156" lon="6.70254">
        <ele>2090.7</ele>
        <time>2022-06-12T13:04:35Z</time>
      </trkpt>
      <trkpt lat="44.54157" lon="6.70254">
        <ele>2090.7</ele>
        <time>2022-06-12T13:04:36Z</time>
      </trkpt>
      <trkpt lat="44.54157" lon="6.70254">
        <ele>2090.8</ele>
        <time>2022-06-12T13:04:37Z</time>
      </trkpt>
      <trkpt lat="44.54158" lon="6.70255">
        <ele>2090.8</ele>
        <time>2022-06-12T13:04:38Z</time>
      </trkpt>
      <trkpt lat="44.54158" lon="6.70255">
        <ele>2090.8</ele>
        <time>2022-06-12T13:04:39Z</time>
      </trkpt>
      <trkpt lat="44.54159" lon="6.70255">
        <ele>2090.8</ele>
        <time>2022-06-12T13:04:40Z</time>
      </trkpt>
      <trkpt lat="44.54159" lon="6.70255">
        <ele>2090.8</ele>
        <time>2022-06-12T13:04:41Z</time>
      </trkpt>
      <trkpt lat="44.5416" lon="6.70255">
        <ele>2090.8</ele>
        <time>2022-06-12T13:04:42Z</time>
      </trkpt>
      <trkpt lat="44.5416" lon="6.70256">
        <ele>2090.8</ele>
        <time>2022-06-12T13:04:43Z</time>
      </trkpt>
      <trkpt lat="44.54161" lon="6.70256">
        <ele>2090.9</ele>
        <time>2022-06-12T13:04:44Z</time>
      </trkpt>
      <trkpt lat="44.54161" lon="6.70256">
        <ele>2090.9</ele>
        <time>2022-06-12T13:04:45Z</time>
      </trkpt>
      <trkpt lat="44.54162" lon="6.70256">
        <ele>2090.9</ele>
        <time>2022-06-12T13:04:46Z</time>
      </trkpt>
      <trkpt lat="44.54162" lon="6.70257">
        <ele>2090.9</ele>
        <time>2022-06-12T13:04:47Z</time>
      </trkpt>
      <trkpt lat="44.54162" lon="6.70257">
        <ele>2090.9</ele>
        <time>2022-06-12T13:04:48Z</time>
      </trkpt>
      <trkpt lat="44.54163" lon="6.70257">
        <ele>2090.9</ele>
        <time>2022-06-12T13:04:49Z</time>
      </trkpt>
      <trkpt lat="44.54163" lon="6.70257">
        <ele>2090.9</ele>
        <time>2022-06-12T13:04:50Z</time>
      </trkpt>
      <trkpt lat="44.54164" lon="6.70258">
        <ele>2090.9</ele>
        <time>2022-06-12T13:04:51Z</time>
      </trkpt>
      <trkpt lat="44.54164" lon="6.70258">
        <ele>2090.9</ele>
        <time>2022-06-12T13:04:52Z</time>
      </trkpt>
      <trkpt lat="44.54165" lon="6.70258">
        <ele>2090.9</ele>
        <time>2022-06-12T13:04:53Z</time>
      </trkpt>
      <trkpt lat="44.54165" lon="6.70258">
        <ele>2090.9</ele>
        <time>2022-06-12T13:04:54Z</time>
      </trkpt>
      <trkpt lat="44.54166" lon="6.70258">
        <ele>2090.9</ele>
        <time>2022-06-12T13:06:03Z</time>
      </trkpt>
      <trkpt lat="44.54166" lon="6.70259">
        <ele>2090.9</ele>
        <time>2022-06-12T13:06:04Z</time>
      </trkpt>
      <trkpt lat="44.5417" lon="6.7026">
        <ele>2090.6</ele>
        <time>2022-06-12T13:06:05Z</time>
      </trkpt>
      <trkpt lat="44.54175" lon="6.70262">
        <ele>2090.2</ele>
        <time>2022-06-12T13:06:06Z</time>
      </trkpt>
      <trkpt lat="44.5418" lon="6.70264">
        <ele>2089.7</ele>
        <time>2022-06-12T13:06:07Z</time>
      </trkpt>
      <trkpt lat="44.54185" lon="6.70267">
        <ele>2089.4</ele>
        <time>2022-06-12T13:06:08Z</time>
      </trkpt>
      <trkpt lat="44.5419" lon="6.7027">
        <ele>2089.1</ele>
        <time>2022-06-12T13:06:09Z</time>
      </trkpt>
      <trkpt lat="44.54196" lon="6.70274">
        <ele>2088.8</ele>
        <time>2022-06-12T13:06:10Z</time>
      </trkpt>
      <trkpt lat="44.54202" lon="6.70278">
        <ele>2088.4</ele>
        <time>2022-06-12T13:06:11Z</time>
      </trkpt>
      <trkpt lat="44.54209" lon="6.70282">
        <ele>2088.3</ele>
        <time>2022-06-12T13:06:12Z</time>
      </trkpt>
      <trkpt lat="44.54215" lon="6.70286">
        <ele>2088.1</ele>
        <time>2022-06-12T13:06:13Z</time>
      </trkpt>
      <trkpt lat="44.54222" lon="6.70289">
        <ele>2087.7</ele>
        <time>2022-06-12T13:06:14Z</time>
      </trkpt>
      <trkpt lat="44.54229" lon="6.70292">
        <ele>2087.6</ele>
        <time>2022-06-12T13:06:15Z</time>
      </trkpt>
      <trkpt lat="44.54236" lon="6.70293">
        <ele>2087</ele>
        <time>2022-06-12T13:06:16Z</time>
      </trkpt>
      <trkpt lat="44.54244" lon="6.70292">
        <ele>2085.9</ele>
        <time>2022-06-12T13:06:17Z</time>
      </trkpt>
      <trkpt lat="44.54251" lon="6.7029">
        <ele>2084.8</ele>
        <time>2022-06-12T13:06:18Z</time>
      </trkpt>
      <trkpt lat="44.54259" lon="6.70288">
        <ele>2084.6</ele>
        <time>2022-06-12T13:06:19Z</time>
      </trkpt>
      <trkpt lat="44.54268" lon="6.70285">
        <ele>2084.2</ele>
        <time>2022-06-12T13:06:20Z</time>
      </trkpt>
      <trkpt lat="44.54276" lon="6.70281">
        <ele>2083.7</ele>
        <time>2022-06-12T13:06:21Z</time>
      </trkpt>
      <trkpt lat="44.54285" lon="6.70277">
        <ele>2083.2</ele>
        <time>2022-06-12T13:06:22Z</time>
      </trkpt>
      <trkpt lat="44.54294" lon="6.70274">
        <ele>2083.1</ele>
        <time>2022-06-12T13:06:23Z</time>
      </trkpt>
      <trkpt lat="44.54303" lon="6.70271">
        <ele>2083</ele>
        <time>2022-06-12T13:06:24Z</time>
      </trkpt>
      <trkpt lat="44.54312" lon="6.7027">
        <ele>2082.8</ele>
        <time>2022-06-12T13:06:25Z</time>
      </trkpt>
      <trkpt lat="44.54321" lon="6.70271">
        <ele>2082.6</ele>
        <time>2022-06-12T13:06:26Z</time>
      </trkpt>
      <trkpt lat="44.5433" lon="6.70271">
        <ele>2082.4</ele>
        <time>2022-06-12T13:06:27Z</time>
      </trkpt>
      <trkpt lat="44.5434" lon="6.70271">
        <ele>2082.4</ele>
        <time>2022-06-12T13:06:28Z</time>
      </trkpt>
      <trkpt lat="44.54349" lon="6.70269">
        <ele>2082.5</ele>
        <time>2022-06-12T13:06:29Z</time>
      </trkpt>
      <trkpt lat="44.54358" lon="6.70265">
        <ele>2082.1</ele>
        <time>2022-06-12T13:06:30Z</time>
      </trkpt>
      <trkpt lat="44.54367" lon="6.7026">
        <ele>2081.6</ele>
        <time>2022-06-12T13:06:31Z</time>
      </trkpt>
      <trkpt lat="44.54376" lon="6.70255">
        <ele>2080.9</ele>
        <time>2022-06-12T13:06:32Z</time>
      </trkpt>
      <trkpt lat="44.54385" lon="6.70251">
        <ele>2080.3</ele>
        <time>2022-06-12T13:06:33Z</time>
      </trkpt>
      <trkpt lat="44.54394" lon="6.70249">
        <ele>2080</ele>
        <time>2022-06-12T13:06:34Z</time>
      </trkpt>
      <trkpt lat="44.54403" lon="6.70249">
        <ele>2080</ele>
        <time>2022-06-12T13:06:35Z</time>
      </trkpt>
      <trkpt lat="44.54413" lon="6.70249">
        <ele>2080</ele>
        <time>2022-06-12T13:06:36Z</time>
      </trkpt>
      <trkpt lat="44.54423" lon="6.7025">
        <ele>2079.1</ele>
        <time>2022-06-12T13:06:37Z</time>
      </trkpt>
      <trkpt lat="44.54433" lon="6.7025">
        <ele>2077.7</ele>
        <time>2022-06-12T13:06:38Z</time>
      </trkpt>
      <trkpt lat="44.54444" lon="6.7025">
        <ele>2076.1</ele>
        <time>2022-06-12T13:06:39Z</time>
      </trkpt>
      <trkpt lat="44.54454" lon="6.70248">
        <ele>2077</ele>
        <time>2022-06-12T13:06:40Z</time>
      </trkpt>
      <trkpt lat="44.54465" lon="6.70245">
        <ele>2077.5</ele>
        <time>2022-06-12T13:06:41Z</time>
      </trkpt>
      <trkpt lat="44.54477" lon="6.70241">
        <ele>2077</ele>
        <time>2022-06-12T13:06:42Z</time>
      </trkpt>
      <trkpt lat="44.54488" lon="6.70237">
        <ele>2075.7</ele>
        <time>2022-06-12T13:06:43Z</time>
      </trkpt>
      <trkpt lat="44.545" lon="6.70233">
        <ele>2074.2</ele>
        <time>2022-06-12T13:06:44Z</time>
      </trkpt>
      <trkpt lat="44.54512" lon="6.7023">
        <ele>2072.9</ele>
        <time>2022-06-12T13:06:45Z</time>
      </trkpt>
      <trkpt lat="44.54524" lon="6.70225">
        <ele>2071.7</ele>
        <time>2022-06-12T13:06:46Z</time>
      </trkpt>
      <trkpt lat="44.54536" lon="6.70222">
        <ele>2070.4</ele>
        <time>2022-06-12T13:06:47Z</time>
      </trkpt>
      <trkpt lat="44.54549" lon="6.70222">
        <ele>2069.5</ele>
        <time>2022-06-12T13:06:48Z</time>
      </trkpt>
      <trkpt lat="44.54561" lon="6.70223">
        <ele>2068.9</ele>
        <time>2022-06-12T13:06:49Z</time>
      </trkpt>
      <trkpt lat="44.54573" lon="6.70225">
        <ele>2068.7</ele>
        <time>2022-06-12T13:06:50Z</time>
      </trkpt>
      <trkpt lat="44.54585" lon="6.70227">
        <ele>2068.7</ele>
        <time>2022-06-12T13:06:51Z</time>
      </trkpt>
      <trkpt lat="44.54597" lon="6.70227">
        <ele>2068.4</ele>
        <time>2022-06-12T13:06:52Z</time>
      </trkpt>
      <trkpt lat="44.54609" lon="6.70227">
        <ele>2068.3</ele>
        <time>2022-06-12T13:06:53Z</time>
      </trkpt>
      <trkpt lat="44.54621" lon="6.70228">
        <ele>2067.8</ele>
        <time>2022-06-12T13:06:54Z</time>
      </trkpt>
      <trkpt lat="44.54633" lon="6.7023">
        <ele>2067.7</ele>
        <time>2022-06-12T13:06:55Z</time>
      </trkpt>
      <trkpt lat="44.54645" lon="6.70232">
        <ele>2067.4</ele>
        <time>2022-06-12T13:06:56Z</time>
      </trkpt>
      <trkpt lat="44.54658" lon="6.70234">
        <ele>2066.8</ele>
        <time>2022-06-12T13:06:57Z</time>
      </trkpt>
      <trkpt lat="44.5467" lon="6.70236">
        <ele>2066.1</ele>
        <time>2022-06-12T13:06:58Z</time>
      </trkpt>
      <trkpt lat="44.54681" lon="6.70237">
        <ele>2065.8</ele>
        <time>2022-06-12T13:06:59Z</time>
      </trkpt>
      <trkpt lat="44.54694" lon="6.70239">
        <ele>2065.7</ele>
        <time>2022-06-12T13:07:00Z</time>
      </trkpt>
      <trkpt lat="44.54706" lon="6.70242">
        <ele>2064</ele>
        <time>2022-06-12T13:07:01Z</time>
      </trkpt>
      <trkpt lat="44.54717" lon="6.70246">
        <ele>2062.6</ele>
        <time>2022-06-12T13:07:02Z</time>
      </trkpt>
      <trkpt lat="44.54729" lon="6.70252">
        <ele>2061.5</ele>
        <time>2022-06-12T13:07:03Z</time>
      </trkpt>
      <trkpt lat="44.54742" lon="6.70258">
        <ele>2059.5</ele>
        <time>2022-06-12T13:07:04Z</time>
      </trkpt>
      <trkpt lat="44.54754" lon="6.70264">
        <ele>2058.1</ele>
        <time>2022-06-12T13:07:05Z</time>
      </trkpt>
      <trkpt lat="44.54765" lon="6.70271">
        <ele>2057.3</ele>
        <time>2022-06-12T13:07:06Z</time>
      </trkpt>
      <trkpt lat="44.54776" lon="6.70277">
        <ele>2056.2</ele>
        <time>2022-06-12T13:07:07Z</time>
      </trkpt>
      <trkpt lat="44.54788" lon="6.70281">
        <ele>2055.3</ele>
        <time>2022-06-12T13:07:08Z</time>
      </trkpt>
      <trkpt lat="44.54799" lon="6.70282">
        <ele>2054.8</ele>
        <time>2022-06-12T13:07:09Z</time>
      </trkpt>
      <trkpt lat="44.5481" lon="6.70279">
        <ele>2054.7</ele>
        <time>2022-06-12T13:07:10Z</time>
      </trkpt>
      <trkpt lat="44.5482" lon="6.70274">
        <ele>2054.7</ele>
        <time>2022-06-12T13:07:11Z</time>
      </trkpt>
      <trkpt lat="44.54831" lon="6.70266">
        <ele>2054.1</ele>
        <time>2022-06-12T13:07:12Z</time>
      </trkpt>
      <trkpt lat="44.54841" lon="6.70257">
        <ele>2053.6</ele>
        <time>2022-06-12T13:07:13Z</time>
      </trkpt>
      <trkpt lat="44.54852" lon="6.70248">
        <ele>2053</ele>
        <time>2022-06-12T13:07:14Z</time>
      </trkpt>
      <trkpt lat="44.54862" lon="6.70238">
        <ele>2052.2</ele>
        <time>2022-06-12T13:07:15Z</time>
      </trkpt>
      <trkpt lat="44.54873" lon="6.70229">
        <ele>2051.8</ele>
        <time>2022-06-12T13:07:16Z</time>
      </trkpt>
      <trkpt lat="44.54884" lon="6.7022">
        <ele>2051.4</ele>
        <time>2022-06-12T13:07:17Z</time>
      </trkpt>
      <trkpt lat="44.54896" lon="6.70212">
        <ele>2050.6</ele>
        <time>2022-06-12T13:07:18Z</time>
      </trkpt>
      <trkpt lat="44.54908" lon="6.70204">
        <ele>2049.1</ele>
        <time>2022-06-12T13:07:19Z</time>
      </trkpt>
      <trkpt lat="44.5492" lon="6.70196">
        <ele>2047.2</ele>
        <time>2022-06-12T13:07:20Z</time>
      </trkpt>
      <trkpt lat="44.54932" lon="6.70188">
        <ele>2047.1</ele>
        <time>2022-06-12T13:07:21Z</time>
      </trkpt>
      <trkpt lat="44.54944" lon="6.70179">
        <ele>2046</ele>
        <time>2022-06-12T13:07:22Z</time>
      </trkpt>
      <trkpt lat="44.54956" lon="6.70168">
        <ele>2045</ele>
        <time>2022-06-12T13:07:23Z</time>
      </trkpt>
      <trkpt lat="44.54967" lon="6.70158">
        <ele>2043.8</ele>
        <time>2022-06-12T13:07:24Z</time>
      </trkpt>
      <trkpt lat="44.54979" lon="6.70148">
        <ele>2041.5</ele>
        <time>2022-06-12T13:07:25Z</time>
      </trkpt>
      <trkpt lat="44.54992" lon="6.70139">
        <ele>2040.1</ele>
        <time>2022-06-12T13:07:26Z</time>
      </trkpt>
      <trkpt lat="44.55005" lon="6.70131">
        <ele>2038.4</ele>
        <time>2022-06-12T13:07:27Z</time>
      </trkpt>
      <trkpt lat="44.55018" lon="6.70123">
        <ele>2036.5</ele>
        <time>2022-06-12T13:07:28Z</time>
      </trkpt>
      <trkpt lat="44.55031" lon="6.70116">
        <ele>2035.1</ele>
        <time>2022-06-12T13:07:29Z</time>
      </trkpt>
      <trkpt lat="44.55045" lon="6.70109">
        <ele>2033.3</ele>
        <time>2022-06-12T13:07:30Z</time>
      </trkpt>
      <trkpt lat="44.55058" lon="6.70101">
        <ele>2031.4</ele>
        <time>2022-06-12T13:07:31Z</time>
      </trkpt>
      <trkpt lat="44.5507" lon="6.70093">
        <ele>2030.2</ele>
        <time>2022-06-12T13:07:32Z</time>
      </trkpt>
      <trkpt lat="44.55082" lon="6.70084">
        <ele>2029.1</ele>
        <time>2022-06-12T13:07:33Z</time>
      </trkpt>
      <trkpt lat="44.55093" lon="6.70075">
        <ele>2027.7</ele>
        <time>2022-06-12T13:07:34Z</time>
      </trkpt>
      <trkpt lat="44.55104" lon="6.70065">
        <ele>2026.9</ele>
        <time>2022-06-12T13:07:35Z</time>
      </trkpt>
      <trkpt lat="44.55114" lon="6.70056">
        <ele>2026.3</ele>
        <time>2022-06-12T13:07:36Z</time>
      </trkpt>
      <trkpt lat="44.55125" lon="6.70049">
        <ele>2024.9</ele>
        <time>2022-06-12T13:07:37Z</time>
      </trkpt>
      <trkpt lat="44.55135" lon="6.70044">
        <ele>2023.8</ele>
        <time>2022-06-12T13:07:38Z</time>
      </trkpt>
      <trkpt lat="44.55146" lon="6.70042">
        <ele>2022.1</ele>
        <time>2022-06-12T13:07:39Z</time>
      </trkpt>
      <trkpt lat="44.55157" lon="6.70041">
        <ele>2020.7</ele>
        <time>2022-06-12T13:07:40Z</time>
      </trkpt>
      <trkpt lat="44.55167" lon="6.70043">
        <ele>2020</ele>
        <time>2022-06-12T13:07:41Z</time>
      </trkpt>
      <trkpt lat="44.55176" lon="6.70045">
        <ele>2019.3</ele>
        <time>2022-06-12T13:07:42Z</time>
      </trkpt>
      <trkpt lat="44.55186" lon="6.70047">
        <ele>2018.5</ele>
        <time>2022-06-12T13:07:43Z</time>
      </trkpt>
      <trkpt lat="44.55195" lon="6.70049">
        <ele>2017.6</ele>
        <time>2022-06-12T13:07:44Z</time>
      </trkpt>
      <trkpt lat="44.55206" lon="6.7005">
        <ele>2016.1</ele>
        <time>2022-06-12T13:07:45Z</time>
      </trkpt>
      <trkpt lat="44.55216" lon="6.70052">
        <ele>2014.3</ele>
        <time>2022-06-12T13:07:46Z</time>
      </trkpt>
      <trkpt lat="44.55227" lon="6.70052">
        <ele>2013.4</ele>
        <time>2022-06-12T13:07:47Z</time>
      </trkpt>
      <trkpt lat="44.55237" lon="6.70049">
        <ele>2013.1</ele>
        <time>2022-06-12T13:07:48Z</time>
      </trkpt>
      <trkpt lat="44.55246" lon="6.70043">
        <ele>2012.2</ele>
        <time>2022-06-12T13:07:49Z</time>
      </trkpt>
      <trkpt lat="44.55254" lon="6.70035">
        <ele>2011.1</ele>
        <time>2022-06-12T13:07:50Z</time>
      </trkpt>
      <trkpt lat="44.5526" lon="6.70025">
        <ele>2010.3</ele>
        <time>2022-06-12T13:07:51Z</time>
      </trkpt>
      <trkpt lat="44.55266" lon="6.70013">
        <ele>2009.6</ele>
        <time>2022-06-12T13:07:52Z</time>
      </trkpt>
      <trkpt lat="44.5527" lon="6.7">
        <ele>2008.6</ele>
        <time>2022-06-12T13:07:53Z</time>
      </trkpt>
      <trkpt lat="44.55275" lon="6.69987">
        <ele>2007.6</ele>
        <time>2022-06-12T13:07:54Z</time>
      </trkpt>
      <trkpt lat="44.55279" lon="6.69976">
        <ele>2006.6</ele>
        <time>2022-06-12T13:07:55Z</time>
      </trkpt>
      <trkpt lat="44.55283" lon="6.69966">
        <ele>2005.1</ele>
        <time>2022-06-12T13:07:56Z</time>
      </trkpt>
      <trkpt lat="44.55286" lon="6.69957">
        <ele>2003.5</ele>
        <time>2022-06-12T13:07:57Z</time>
      </trkpt>
      <trkpt lat="44.55289" lon="6.6995">
        <ele>2002</ele>
        <time>2022-06-12T13:07:58Z</time>
      </trkpt>
      <trkpt lat="44.55291" lon="6.69945">
        <ele>2001.1</ele>
        <time>2022-06-12T13:07:59Z</time>
      </trkpt>
      <trkpt lat="44.55292" lon="6.69943">
        <ele>2000.8</ele>
        <time>2022-06-12T13:08:00Z</time>
      </trkpt>
      <trkpt lat="44.55296" lon="6.69941">
        <ele>2000.7</ele>
        <time>2022-06-12T13:08:01Z</time>
      </trkpt>
      <trkpt lat="44.55299" lon="6.69939">
        <ele>2000.6</ele>
        <time>2022-06-12T13:08:02Z</time>
      </trkpt>
      <trkpt lat="44.55302" lon="6.69938">
        <ele>2000.6</ele>
        <time>2022-06-12T13:08:33Z</time>
      </trkpt>
      <trkpt lat="44.55306" lon="6.69936">
        <ele>2000.5</ele>
        <time>2022-06-12T13:08:34Z</time>
      </trkpt>
      <trkpt lat="44.55309" lon="6.69935">
        <ele>2000.5</ele>
        <time>2022-06-12T13:08:35Z</time>
      </trkpt>
      <trkpt lat="44.55314" lon="6.69933">
        <ele>2000.5</ele>
        <time>2022-06-12T13:08:36Z</time>
      </trkpt>
      <trkpt lat="44.5532" lon="6.6993">
        <ele>2000.3</ele>
        <time>2022-06-12T13:08:37Z</time>
      </trkpt>
      <trkpt lat="44.55326" lon="6.69926">
        <ele>2000.2</ele>
        <time>2022-06-12T13:08:38Z</time>
      </trkpt>
      <trkpt lat="44.55333" lon="6.69922">
        <ele>1999.9</ele>
        <time>2022-06-12T13:08:39Z</time>
      </trkpt>
      <trkpt lat="44.5534" lon="6.69918">
        <ele>1999.7</ele>
        <time>2022-06-12T13:08:40Z</time>
      </trkpt>
      <trkpt lat="44.55348" lon="6.69914">
        <ele>1999.6</ele>
        <time>2022-06-12T13:08:41Z</time>
      </trkpt>
      <trkpt lat="44.55357" lon="6.69911">
        <ele>1999.5</ele>
        <time>2022-06-12T13:08:42Z</time>
      </trkpt>
      <trkpt lat="44.55365" lon="6.69908">
        <ele>1999.2</ele>
        <time>2022-06-12T13:08:43Z</time>
      </trkpt>
      <trkpt lat="44.55374" lon="6.69905">
        <ele>1998.8</ele>
        <time>2022-06-12T13:08:44Z</time>
      </trkpt>
      <trkpt lat="44.55387" lon="6.69902">
        <ele>1998.3</ele>
        <time>2022-06-12T13:08:45Z</time>
      </trkpt>
      <trkpt lat="44.55392" lon="6.69901">
        <ele>1998.1</ele>
        <time>2022-06-12T13:08:46Z</time>
      </trkpt>
      <trkpt lat="44.55401" lon="6.69899">
        <ele>1997.6</ele>
        <time>2022-06-12T13:08:47Z</time>
      </trkpt>
      <trkpt lat="44.55411" lon="6.69897">
        <ele>1997.1</ele>
        <time>2022-06-12T13:08:48Z</time>
      </trkpt>
      <trkpt lat="44.5542" lon="6.69896">
        <ele>1996.8</ele>
        <time>2022-06-12T13:08:49Z</time>
      </trkpt>
      <trkpt lat="44.55429" lon="6.69894">
        <ele>1996.5</ele>
        <time>2022-06-12T13:08:50Z</time>
      </trkpt>
      <trkpt lat="44.55438" lon="6.69892">
        <ele>1996.4</ele>
        <time>2022-06-12T13:08:51Z</time>
      </trkpt>
      <trkpt lat="44.55448" lon="6.6989">
        <ele>1996.3</ele>
        <time>2022-06-12T13:08:52Z</time>
      </trkpt>
      <trkpt lat="44.55456" lon="6.69888">
        <ele>1996.2</ele>
        <time>2022-06-12T13:08:53Z</time>
      </trkpt>
      <trkpt lat="44.5547" lon="6.69885">
        <ele>1996.2</ele>
        <time>2022-06-12T13:08:54Z</time>
      </trkpt>
      <trkpt lat="44.55474" lon="6.69884">
        <ele>1996.2</ele>
        <time>2022-06-12T13:08:55Z</time>
      </trkpt>
      <trkpt lat="44.55483" lon="6.69882">
        <ele>1996.2</ele>
        <time>2022-06-12T13:08:56Z</time>
      </trkpt>
      <trkpt lat="44.55492" lon="6.6988">
        <ele>1996.1</ele>
        <time>2022-06-12T13:08:57Z</time>
      </trkpt>
      <trkpt lat="44.55501" lon="6.69877">
        <ele>1995.9</ele>
        <time>2022-06-12T13:08:58Z</time>
      </trkpt>
      <trkpt lat="44.55509" lon="6.69874">
        <ele>1995.9</ele>
        <time>2022-06-12T13:08:59Z</time>
      </trkpt>
      <trkpt lat="44.55518" lon="6.6987">
        <ele>1995.9</ele>
        <time>2022-06-12T13:09:00Z</time>
      </trkpt>
      <trkpt lat="44.55526" lon="6.69866">
        <ele>1995.7</ele>
        <time>2022-06-12T13:09:01Z</time>
      </trkpt>
      <trkpt lat="44.55534" lon="6.69861">
        <ele>1995.7</ele>
        <time>2022-06-12T13:09:02Z</time>
      </trkpt>
      <trkpt lat="44.55541" lon="6.69856">
        <ele>1995.7</ele>
        <time>2022-06-12T13:09:03Z</time>
      </trkpt>
      <trkpt lat="44.55552" lon="6.69847">
        <ele>1995.2</ele>
        <time>2022-06-12T13:09:04Z</time>
      </trkpt>
      <trkpt lat="44.55556" lon="6.69844">
        <ele>1994.8</ele>
        <time>2022-06-12T13:09:05Z</time>
      </trkpt>
      <trkpt lat="44.55563" lon="6.69837">
        <ele>1994.5</ele>
        <time>2022-06-12T13:09:06Z</time>
      </trkpt>
      <trkpt lat="44.5557" lon="6.6983">
        <ele>1994.1</ele>
        <time>2022-06-12T13:09:07Z</time>
      </trkpt>
      <trkpt lat="44.5558" lon="6.69818">
        <ele>1993.5</ele>
        <time>2022-06-12T13:09:08Z</time>
      </trkpt>
      <trkpt lat="44.55583" lon="6.69814">
        <ele>1993.1</ele>
        <time>2022-06-12T13:09:09Z</time>
      </trkpt>
      <trkpt lat="44.55589" lon="6.69805">
        <ele>1993.5</ele>
        <time>2022-06-12T13:09:10Z</time>
      </trkpt>
      <trkpt lat="44.55599" lon="6.69792">
        <ele>1993.9</ele>
        <time>2022-06-12T13:09:11Z</time>
      </trkpt>
      <trkpt lat="44.55602" lon="6.69788">
        <ele>1994</ele>
        <time>2022-06-12T13:09:12Z</time>
      </trkpt>
      <trkpt lat="44.55608" lon="6.6978">
        <ele>1993.8</ele>
        <time>2022-06-12T13:09:13Z</time>
      </trkpt>
      <trkpt lat="44.55614" lon="6.69771">
        <ele>1993.4</ele>
        <time>2022-06-12T13:09:14Z</time>
      </trkpt>
      <trkpt lat="44.5562" lon="6.69763">
        <ele>1993</ele>
        <time>2022-06-12T13:09:15Z</time>
      </trkpt>
      <trkpt lat="44.55626" lon="6.69754">
        <ele>1992.4</ele>
        <time>2022-06-12T13:09:16Z</time>
      </trkpt>
      <trkpt lat="44.55631" lon="6.69745">
        <ele>1992</ele>
        <time>2022-06-12T13:09:17Z</time>
      </trkpt>
      <trkpt lat="44.55636" lon="6.69735">
        <ele>1991.5</ele>
        <time>2022-06-12T13:09:18Z</time>
      </trkpt>
      <trkpt lat="44.55641" lon="6.69726">
        <ele>1990.8</ele>
        <time>2022-06-12T13:09:19Z</time>
      </trkpt>
      <trkpt lat="44.55646" lon="6.6971">
        <ele>1990.5</ele>
        <time>2022-06-12T13:09:20Z</time>
      </trkpt>
      <trkpt lat="44.55648" lon="6.69705">
        <ele>1990.4</ele>
        <time>2022-06-12T13:09:21Z</time>
      </trkpt>
      <trkpt lat="44.55652" lon="6.69695">
        <ele>1989.9</ele>
        <time>2022-06-12T13:09:22Z</time>
      </trkpt>
      <trkpt lat="44.55655" lon="6.69685">
        <ele>1989.2</ele>
        <time>2022-06-12T13:09:23Z</time>
      </trkpt>
      <trkpt lat="44.55658" lon="6.69675">
        <ele>1988.3</ele>
        <time>2022-06-12T13:09:24Z</time>
      </trkpt>
      <trkpt lat="44.55661" lon="6.69665">
        <ele>1987.5</ele>
        <time>2022-06-12T13:09:25Z</time>
      </trkpt>
      <trkpt lat="44.55663" lon="6.69655">
        <ele>1987.4</ele>
        <time>2022-06-12T13:09:26Z</time>
      </trkpt>
      <trkpt lat="44.55666" lon="6.69645">
        <ele>1987.2</ele>
        <time>2022-06-12T13:09:27Z</time>
      </trkpt>
      <trkpt lat="44.55669" lon="6.69635">
        <ele>1986.9</ele>
        <time>2022-06-12T13:09:28Z</time>
      </trkpt>
      <trkpt lat="44.55672" lon="6.69626">
        <ele>1987</ele>
        <time>2022-06-12T13:09:29Z</time>
      </trkpt>
      <trkpt lat="44.55675" lon="6.69617">
        <ele>1987.4</ele>
        <time>2022-06-12T13:09:30Z</time>
      </trkpt>
      <trkpt lat="44.55678" lon="6.69608">
        <ele>1987.8</ele>
        <time>2022-06-12T13:09:31Z</time>
      </trkpt>
      <trkpt lat="44.55681" lon="6.69599">
        <ele>1987.8</ele>
        <time>2022-06-12T13:09:32Z</time>
      </trkpt>
      <trkpt lat="44.55683" lon="6.6959">
        <ele>1987.7</ele>
        <time>2022-06-12T13:09:33Z</time>
      </trkpt>
      <trkpt lat="44.55686" lon="6.69581">
        <ele>1987.7</ele>
        <time>2022-06-12T13:09:34Z</time>
      </trkpt>
      <trkpt lat="44.55689" lon="6.69572">
        <ele>1987.7</ele>
        <time>2022-06-12T13:09:35Z</time>
      </trkpt>
      <trkpt lat="44.55692" lon="6.69564">
        <ele>1987.8</ele>
        <time>2022-06-12T13:09:36Z</time>
      </trkpt>
      <trkpt lat="44.55695" lon="6.69555">
        <ele>1988</ele>
        <time>2022-06-12T13:09:37Z</time>
      </trkpt>
      <trkpt lat="44.55699" lon="6.69542">
        <ele>1988.2</ele>
        <time>2022-06-12T13:09:38Z</time>
      </trkpt>
      <trkpt lat="44.557" lon="6.69538">
        <ele>1988.4</ele>
        <time>2022-06-12T13:09:39Z</time>
      </trkpt>
      <trkpt lat="44.55703" lon="6.69529">
        <ele>1988.6</ele>
        <time>2022-06-12T13:09:40Z</time>
      </trkpt>
      <trkpt lat="44.55706" lon="6.6952">
        <ele>1988.6</ele>
        <time>2022-06-12T13:09:41Z</time>
      </trkpt>
      <trkpt lat="44.55709" lon="6.69512">
        <ele>1988.8</ele>
        <time>2022-06-12T13:09:42Z</time>
      </trkpt>
      <trkpt lat="44.55712" lon="6.69504">
        <ele>1989.2</ele>
        <time>2022-06-12T13:09:43Z</time>
      </trkpt>
      <trkpt lat="44.55715" lon="6.69497">
        <ele>1989.5</ele>
        <time>2022-06-12T13:09:44Z</time>
      </trkpt>
      <trkpt lat="44.55719" lon="6.69489">
        <ele>1989.4</ele>
        <time>2022-06-12T13:09:45Z</time>
      </trkpt>
      <trkpt lat="44.55722" lon="6.69482">
        <ele>1989</ele>
        <time>2022-06-12T13:09:46Z</time>
      </trkpt>
      <trkpt lat="44.55726" lon="6.69474">
        <ele>1989.2</ele>
        <time>2022-06-12T13:09:47Z</time>
      </trkpt>
      <trkpt lat="44.5573" lon="6.69467">
        <ele>1989.6</ele>
        <time>2022-06-12T13:09:48Z</time>
      </trkpt>
      <trkpt lat="44.55735" lon="6.6946">
        <ele>1989.9</ele>
        <time>2022-06-12T13:09:49Z</time>
      </trkpt>
      <trkpt lat="44.55739" lon="6.69452">
        <ele>1989.7</ele>
        <time>2022-06-12T13:09:50Z</time>
      </trkpt>
      <trkpt lat="44.55743" lon="6.69445">
        <ele>1989.3</ele>
        <time>2022-06-12T13:09:51Z</time>
      </trkpt>
      <trkpt lat="44.55748" lon="6.69438">
        <ele>1989.4</ele>
        <time>2022-06-12T13:09:52Z</time>
      </trkpt>
      <trkpt lat="44.55753" lon="6.69431">
        <ele>1989.5</ele>
        <time>2022-06-12T13:09:53Z</time>
      </trkpt>
      <trkpt lat="44.55758" lon="6.69424">
        <ele>1989.6</ele>
        <time>2022-06-12T13:09:54Z</time>
      </trkpt>
      <trkpt lat="44.55763" lon="6.69419">
        <ele>1989.6</ele>
        <time>2022-06-12T13:09:55Z</time>
      </trkpt>
      <trkpt lat="44.55769" lon="6.69413">
        <ele>1989.5</ele>
        <time>2022-06-12T13:09:56Z</time>
      </trkpt>
      <trkpt lat="44.55774" lon="6.69408">
        <ele>1989.1</ele>
        <time>2022-06-12T13:09:57Z</time>
      </trkpt>
      <trkpt lat="44.55779" lon="6.69403">
        <ele>1988.7</ele>
        <time>2022-06-12T13:09:58Z</time>
      </trkpt>
      <trkpt lat="44.55785" lon="6.69398">
        <ele>1988.6</ele>
        <time>2022-06-12T13:09:59Z</time>
      </trkpt>
      <trkpt lat="44.5579" lon="6.69394">
        <ele>1988.3</ele>
        <time>2022-06-12T13:10:00Z</time>
      </trkpt>
      <trkpt lat="44.55795" lon="6.69389">
        <ele>1988</ele>
        <time>2022-06-12T13:10:01Z</time>
      </trkpt>
      <trkpt lat="44.558" lon="6.69385">
        <ele>1987.9</ele>
        <time>2022-06-12T13:10:02Z</time>
      </trkpt>
      <trkpt lat="44.55806" lon="6.6938">
        <ele>1987.8</ele>
        <time>2022-06-12T13:10:03Z</time>
      </trkpt>
      <trkpt lat="44.55811" lon="6.69376">
        <ele>1987.6</ele>
        <time>2022-06-12T13:10:04Z</time>
      </trkpt>
      <trkpt lat="44.55816" lon="6.69372">
        <ele>1987.4</ele>
        <time>2022-06-12T13:10:05Z</time>
      </trkpt>
      <trkpt lat="44.55821" lon="6.69367">
        <ele>1987.1</ele>
        <time>2022-06-12T13:10:06Z</time>
      </trkpt>
      <trkpt lat="44.55826" lon="6.69362">
        <ele>1986.6</ele>
        <time>2022-06-12T13:10:07Z</time>
      </trkpt>
      <trkpt lat="44.55832" lon="6.69358">
        <ele>1986.5</ele>
        <time>2022-06-12T13:10:08Z</time>
      </trkpt>
      <trkpt lat="44.55837" lon="6.69353">
        <ele>1986.4</ele>
        <time>2022-06-12T13:10:09Z</time>
      </trkpt>
      <trkpt lat="44.55842" lon="6.69348">
        <ele>1986.3</ele>
        <time>2022-06-12T13:10:10Z</time>
      </trkpt>
      <trkpt lat="44.55848" lon="6.69343">
        <ele>1986</ele>
        <time>2022-06-12T13:10:11Z</time>
      </trkpt>
      <trkpt lat="44.55854" lon="6.69338">
        <ele>1985.5</ele>
        <time>2022-06-12T13:10:12Z</time>
      </trkpt>
      <trkpt lat="44.55861" lon="6.69333">
        <ele>1985</ele>
        <time>2022-06-12T13:10:13Z</time>
      </trkpt>
      <trkpt lat="44.55868" lon="6.69327">
        <ele>1985.2</ele>
        <time>2022-06-12T13:10:14Z</time>
      </trkpt>
      <trkpt lat="44.55875" lon="6.69321">
        <ele>1985</ele>
        <time>2022-06-12T13:10:15Z</time>
      </trkpt>
      <trkpt lat="44.55883" lon="6.69315">
        <ele>1984.1</ele>
        <time>2022-06-12T13:10:16Z</time>
      </trkpt>
      <trkpt lat="44.55892" lon="6.69309">
        <ele>1983</ele>
        <time>2022-06-12T13:10:17Z</time>
      </trkpt>
      <trkpt lat="44.559" lon="6.69303">
        <ele>1982.6</ele>
        <time>2022-06-12T13:10:18Z</time>
      </trkpt>
      <trkpt lat="44.55909" lon="6.69295">
        <ele>1981.7</ele>
        <time>2022-06-12T13:10:19Z</time>
      </trkpt>
      <trkpt lat="44.55917" lon="6.69288">
        <ele>1979.5</ele>
        <time>2022-06-12T13:10:20Z</time>
      </trkpt>
      <trkpt lat="44.55926" lon="6.6928">
        <ele>1978.2</ele>
        <time>2022-06-12T13:10:21Z</time>
      </trkpt>
      <trkpt lat="44.55935" lon="6.69271">
        <ele>1977.7</ele>
        <time>2022-06-12T13:10:22Z</time>
      </trkpt>
      <trkpt lat="44.55944" lon="6.69262">
        <ele>1976.1</ele>
        <time>2022-06-12T13:10:23Z</time>
      </trkpt>
      <trkpt lat="44.55954" lon="6.69252">
        <ele>1975</ele>
        <time>2022-06-12T13:10:24Z</time>
      </trkpt>
      <trkpt lat="44.55963" lon="6.69241">
        <ele>1974</ele>
        <time>2022-06-12T13:10:25Z</time>
      </trkpt>
      <trkpt lat="44.55974" lon="6.6923">
        <ele>1971</ele>
        <time>2022-06-12T13:10:26Z</time>
      </trkpt>
      <trkpt lat="44.55984" lon="6.69219">
        <ele>1969.2</ele>
        <time>2022-06-12T13:10:27Z</time>
      </trkpt>
      <trkpt lat="44.55995" lon="6.69208">
        <ele>1967.4</ele>
        <time>2022-06-12T13:10:28Z</time>
      </trkpt>
      <trkpt lat="44.56005" lon="6.69196">
        <ele>1964.6</ele>
        <time>2022-06-12T13:10:29Z</time>
      </trkpt>
      <trkpt lat="44.56015" lon="6.69182">
        <ele>1963.8</ele>
        <time>2022-06-12T13:10:30Z</time>
      </trkpt>
      <trkpt lat="44.56023" lon="6.69166">
        <ele>1962.3</ele>
        <time>2022-06-12T13:10:31Z</time>
      </trkpt>
      <trkpt lat="44.5603" lon="6.69148">
        <ele>1961</ele>
        <time>2022-06-12T13:10:32Z</time>
      </trkpt>
      <trkpt lat="44.56035" lon="6.6913">
        <ele>1958.5</ele>
        <time>2022-06-12T13:10:33Z</time>
      </trkpt>
      <trkpt lat="44.56042" lon="6.69111">
        <ele>1955.5</ele>
        <time>2022-06-12T13:10:34Z</time>
      </trkpt>
      <trkpt lat="44.5605" lon="6.69094">
        <ele>1954.4</ele>
        <time>2022-06-12T13:10:35Z</time>
      </trkpt>
      <trkpt lat="44.5606" lon="6.69078">
        <ele>1953.3</ele>
        <time>2022-06-12T13:10:36Z</time>
      </trkpt>
      <trkpt lat="44.56072" lon="6.69065">
        <ele>1951.9</ele>
        <time>2022-06-12T13:10:37Z</time>
      </trkpt>
      <trkpt lat="44.56085" lon="6.69052">
        <ele>1951.3</ele>
        <time>2022-06-12T13:10:38Z</time>
      </trkpt>
      <trkpt lat="44.56098" lon="6.69042">
        <ele>1950.6</ele>
        <time>2022-06-12T13:10:39Z</time>
      </trkpt>
      <trkpt lat="44.56111" lon="6.69031">
        <ele>1949.6</ele>
        <time>2022-06-12T13:10:40Z</time>
      </trkpt>
      <trkpt lat="44.56124" lon="6.69021">
        <ele>1949.3</ele>
        <time>2022-06-12T13:10:41Z</time>
      </trkpt>
      <trkpt lat="44.56136" lon="6.6901">
        <ele>1949.1</ele>
        <time>2022-06-12T13:10:42Z</time>
      </trkpt>
      <trkpt lat="44.56149" lon="6.69">
        <ele>1948.5</ele>
        <time>2022-06-12T13:10:43Z</time>
      </trkpt>
      <trkpt lat="44.56162" lon="6.6899">
        <ele>1948.4</ele>
        <time>2022-06-12T13:10:44Z</time>
      </trkpt>
      <trkpt lat="44.56174" lon="6.68981">
        <ele>1948.6</ele>
        <time>2022-06-12T13:10:45Z</time>
      </trkpt>
      <trkpt lat="44.56186" lon="6.68973">
        <ele>1949.1</ele>
        <time>2022-06-12T13:10:46Z</time>
      </trkpt>
      <trkpt lat="44.56199" lon="6.68966">
        <ele>1949</ele>
        <time>2022-06-12T13:10:47Z</time>
      </trkpt>
      <trkpt lat="44.56211" lon="6.68961">
        <ele>1949</ele>
        <time>2022-06-12T13:10:48Z</time>
      </trkpt>
      <trkpt lat="44.56223" lon="6.68957">
        <ele>1948.7</ele>
        <time>2022-06-12T13:10:49Z</time>
      </trkpt>
      <trkpt lat="44.56235" lon="6.68954">
        <ele>1949.4</ele>
        <time>2022-06-12T13:10:50Z</time>
      </trkpt>
      <trkpt lat="44.56246" lon="6.6895">
        <ele>1949.9</ele>
        <time>2022-06-12T13:10:51Z</time>
      </trkpt>
      <trkpt lat="44.56257" lon="6.68947">
        <ele>1950.3</ele>
        <time>2022-06-12T13:10:52Z</time>
      </trkpt>
      <trkpt lat="44.56268" lon="6.68944">
        <ele>1950.5</ele>
        <time>2022-06-12T13:10:53Z</time>
      </trkpt>
      <trkpt lat="44.56278" lon="6.68941">
        <ele>1950.6</ele>
        <time>2022-06-12T13:10:54Z</time>
      </trkpt>
      <trkpt lat="44.56287" lon="6.68937">
        <ele>1950.9</ele>
        <time>2022-06-12T13:10:55Z</time>
      </trkpt>
      <trkpt lat="44.56296" lon="6.68932">
        <ele>1951.2</ele>
        <time>2022-06-12T13:10:56Z</time>
      </trkpt>
      <trkpt lat="44.56304" lon="6.68926">
        <ele>1951.4</ele>
        <time>2022-06-12T13:10:57Z</time>
      </trkpt>
      <trkpt lat="44.56312" lon="6.68919">
        <ele>1952</ele>
        <time>2022-06-12T13:10:58Z</time>
      </trkpt>
      <trkpt lat="44.56319" lon="6.68911">
        <ele>1952.7</ele>
        <time>2022-06-12T13:10:59Z</time>
      </trkpt>
      <trkpt lat="44.56325" lon="6.68903">
        <ele>1953</ele>
        <time>2022-06-12T13:11:00Z</time>
      </trkpt>
      <trkpt lat="44.56331" lon="6.68895">
        <ele>1953.1</ele>
        <time>2022-06-12T13:11:01Z</time>
      </trkpt>
      <trkpt lat="44.56337" lon="6.68887">
        <ele>1953.3</ele>
        <time>2022-06-12T13:11:02Z</time>
      </trkpt>
      <trkpt lat="44.56343" lon="6.68879">
        <ele>1953.7</ele>
        <time>2022-06-12T13:11:03Z</time>
      </trkpt>
      <trkpt lat="44.56349" lon="6.6887">
        <ele>1953.5</ele>
        <time>2022-06-12T13:11:04Z</time>
      </trkpt>
      <trkpt lat="44.56355" lon="6.68861">
        <ele>1953</ele>
        <time>2022-06-12T13:11:05Z</time>
      </trkpt>
      <trkpt lat="44.56361" lon="6.68853">
        <ele>1952.1</ele>
        <time>2022-06-12T13:11:06Z</time>
      </trkpt>
      <trkpt lat="44.56367" lon="6.68843">
        <ele>1951.6</ele>
        <time>2022-06-12T13:11:07Z</time>
      </trkpt>
      <trkpt lat="44.56373" lon="6.68834">
        <ele>1950.9</ele>
        <time>2022-06-12T13:11:08Z</time>
      </trkpt>
      <trkpt lat="44.5638" lon="6.68824">
        <ele>1950.2</ele>
        <time>2022-06-12T13:11:09Z</time>
      </trkpt>
      <trkpt lat="44.56386" lon="6.68815">
        <ele>1949.3</ele>
        <time>2022-06-12T13:11:10Z</time>
      </trkpt>
      <trkpt lat="44.56393" lon="6.68805">
        <ele>1948.6</ele>
        <time>2022-06-12T13:11:11Z</time>
      </trkpt>
      <trkpt lat="44.56401" lon="6.68796">
        <ele>1948</ele>
        <time>2022-06-12T13:11:12Z</time>
      </trkpt>
      <trkpt lat="44.56409" lon="6.68787">
        <ele>1947.2</ele>
        <time>2022-06-12T13:11:13Z</time>
      </trkpt>
      <trkpt lat="44.56418" lon="6.68779">
        <ele>1946.2</ele>
        <time>2022-06-12T13:11:14Z</time>
      </trkpt>
      <trkpt lat="44.56428" lon="6.68772">
        <ele>1944.5</ele>
        <time>2022-06-12T13:11:15Z</time>
      </trkpt>
      <trkpt lat="44.56438" lon="6.68768">
        <ele>1943.1</ele>
        <time>2022-06-12T13:11:16Z</time>
      </trkpt>
      <trkpt lat="44.56449" lon="6.68764">
        <ele>1942.1</ele>
        <time>2022-06-12T13:11:17Z</time>
      </trkpt>
      <trkpt lat="44.5646" lon="6.68761">
        <ele>1941.3</ele>
        <time>2022-06-12T13:11:18Z</time>
      </trkpt>
      <trkpt lat="44.56472" lon="6.68758">
        <ele>1940.4</ele>
        <time>2022-06-12T13:11:19Z</time>
      </trkpt>
      <trkpt lat="44.56483" lon="6.68755">
        <ele>1939.3</ele>
        <time>2022-06-12T13:11:20Z</time>
      </trkpt>
      <trkpt lat="44.56494" lon="6.6875">
        <ele>1938</ele>
        <time>2022-06-12T13:11:21Z</time>
      </trkpt>
      <trkpt lat="44.56505" lon="6.68745">
        <ele>1937.6</ele>
        <time>2022-06-12T13:11:22Z</time>
      </trkpt>
      <trkpt lat="44.56516" lon="6.68738">
        <ele>1937.7</ele>
        <time>2022-06-12T13:11:23Z</time>
      </trkpt>
      <trkpt lat="44.56526" lon="6.68728">
        <ele>1937.1</ele>
        <time>2022-06-12T13:11:24Z</time>
      </trkpt>
      <trkpt lat="44.56535" lon="6.68718">
        <ele>1936.7</ele>
        <time>2022-06-12T13:11:25Z</time>
      </trkpt>
      <trkpt lat="44.56543" lon="6.68706">
        <ele>1936.1</ele>
        <time>2022-06-12T13:11:26Z</time>
      </trkpt>
      <trkpt lat="44.56551" lon="6.68695">
        <ele>1935.2</ele>
        <time>2022-06-12T13:11:27Z</time>
      </trkpt>
      <trkpt lat="44.56559" lon="6.68684">
        <ele>1934.8</ele>
        <time>2022-06-12T13:11:28Z</time>
      </trkpt>
      <trkpt lat="44.56567" lon="6.68673">
        <ele>1934</ele>
        <time>2022-06-12T13:11:29Z</time>
      </trkpt>
      <trkpt lat="44.56576" lon="6.68663">
        <ele>1933.4</ele>
        <time>2022-06-12T13:11:30Z</time>
      </trkpt>
      <trkpt lat="44.56585" lon="6.68655">
        <ele>1933</ele>
        <time>2022-06-12T13:11:31Z</time>
      </trkpt>
      <trkpt lat="44.56594" lon="6.68646">
        <ele>1932.5</ele>
        <time>2022-06-12T13:11:32Z</time>
      </trkpt>
      <trkpt lat="44.56603" lon="6.68637">
        <ele>1931.9</ele>
        <time>2022-06-12T13:11:33Z</time>
      </trkpt>
      <trkpt lat="44.56612" lon="6.68627">
        <ele>1931.4</ele>
        <time>2022-06-12T13:11:34Z</time>
      </trkpt>
      <trkpt lat="44.56621" lon="6.68618">
        <ele>1931.1</ele>
        <time>2022-06-12T13:11:35Z</time>
      </trkpt>
      <trkpt lat="44.5663" lon="6.6861">
        <ele>1930.9</ele>
        <time>2022-06-12T13:11:36Z</time>
      </trkpt>
      <trkpt lat="44.56639" lon="6.68602">
        <ele>1930.7</ele>
        <time>2022-06-12T13:11:37Z</time>
      </trkpt>
      <trkpt lat="44.56648" lon="6.68593">
        <ele>1929.6</ele>
        <time>2022-06-12T13:11:38Z</time>
      </trkpt>
      <trkpt lat="44.56655" lon="6.68583">
        <ele>1928.6</ele>
        <time>2022-06-12T13:11:39Z</time>
      </trkpt>
      <trkpt lat="44.56662" lon="6.68572">
        <ele>1928.5</ele>
        <time>2022-06-12T13:11:40Z</time>
      </trkpt>
      <trkpt lat="44.56669" lon="6.6856">
        <ele>1928</ele>
        <time>2022-06-12T13:11:41Z</time>
      </trkpt>
      <trkpt lat="44.56677" lon="6.68549">
        <ele>1927.1</ele>
        <time>2022-06-12T13:11:42Z</time>
      </trkpt>
      <trkpt lat="44.56684" lon="6.68537">
        <ele>1926.5</ele>
        <time>2022-06-12T13:11:43Z</time>
      </trkpt>
      <trkpt lat="44.56691" lon="6.68526">
        <ele>1926.1</ele>
        <time>2022-06-12T13:11:44Z</time>
      </trkpt>
      <trkpt lat="44.56698" lon="6.68516">
        <ele>1925.8</ele>
        <time>2022-06-12T13:11:45Z</time>
      </trkpt>
      <trkpt lat="44.56706" lon="6.68508">
        <ele>1925.2</ele>
        <time>2022-06-12T13:11:46Z</time>
      </trkpt>
      <trkpt lat="44.56714" lon="6.68502">
        <ele>1924.6</ele>
        <time>2022-06-12T13:11:47Z</time>
      </trkpt>
      <trkpt lat="44.56724" lon="6.68498">
        <ele>1924.1</ele>
        <time>2022-06-12T13:11:48Z</time>
      </trkpt>
      <trkpt lat="44.56734" lon="6.68498">
        <ele>1923.4</ele>
        <time>2022-06-12T13:11:49Z</time>
      </trkpt>
      <trkpt lat="44.56745" lon="6.68499">
        <ele>1922.5</ele>
        <time>2022-06-12T13:11:50Z</time>
      </trkpt>
      <trkpt lat="44.56755" lon="6.68501">
        <ele>1921.8</ele>
        <time>2022-06-12T13:11:51Z</time>
      </trkpt>
      <trkpt lat="44.56766" lon="6.68504">
        <ele>1921.3</ele>
        <time>2022-06-12T13:11:52Z</time>
      </trkpt>
      <trkpt lat="44.56776" lon="6.68505">
        <ele>1920.9</ele>
        <time>2022-06-12T13:11:53Z</time>
      </trkpt>
      <trkpt lat="44.56787" lon="6.68506">
        <ele>1920.1</ele>
        <time>2022-06-12T13:11:54Z</time>
      </trkpt>
      <trkpt lat="44.56798" lon="6.68505">
        <ele>1919.4</ele>
        <time>2022-06-12T13:11:55Z</time>
      </trkpt>
      <trkpt lat="44.56809" lon="6.68504">
        <ele>1918.5</ele>
        <time>2022-06-12T13:11:56Z</time>
      </trkpt>
      <trkpt lat="44.56821" lon="6.68501">
        <ele>1917.3</ele>
        <time>2022-06-12T13:11:57Z</time>
      </trkpt>
      <trkpt lat="44.56833" lon="6.68497">
        <ele>1916.3</ele>
        <time>2022-06-12T13:11:58Z</time>
      </trkpt>
      <trkpt lat="44.56844" lon="6.68493">
        <ele>1914.9</ele>
        <time>2022-06-12T13:11:59Z</time>
      </trkpt>
      <trkpt lat="44.56856" lon="6.68489">
        <ele>1913.6</ele>
        <time>2022-06-12T13:12:00Z</time>
      </trkpt>
      <trkpt lat="44.56867" lon="6.68484">
        <ele>1911.9</ele>
        <time>2022-06-12T13:12:01Z</time>
      </trkpt>
      <trkpt lat="44.56879" lon="6.68479">
        <ele>1910.1</ele>
        <time>2022-06-12T13:12:02Z</time>
      </trkpt>
      <trkpt lat="44.5689" lon="6.68474">
        <ele>1908.6</ele>
        <time>2022-06-12T13:12:03Z</time>
      </trkpt>
      <trkpt lat="44.56901" lon="6.68468">
        <ele>1907.2</ele>
        <time>2022-06-12T13:12:04Z</time>
      </trkpt>
      <trkpt lat="44.5691" lon="6.68462">
        <ele>1905.9</ele>
        <time>2022-06-12T13:12:05Z</time>
      </trkpt>
      <trkpt lat="44.5692" lon="6.68456">
        <ele>1904.6</ele>
        <time>2022-06-12T13:12:06Z</time>
      </trkpt>
      <trkpt lat="44.56928" lon="6.6845">
        <ele>1903.6</ele>
        <time>2022-06-12T13:12:07Z</time>
      </trkpt>
      <trkpt lat="44.56934" lon="6.68442">
        <ele>1902.8</ele>
        <time>2022-06-12T13:12:08Z</time>
      </trkpt>
      <trkpt lat="44.5694" lon="6.68434">
        <ele>1901.8</ele>
        <time>2022-06-12T13:12:09Z</time>
      </trkpt>
      <trkpt lat="44.56943" lon="6.68423">
        <ele>1901.2</ele>
        <time>2022-06-12T13:12:10Z</time>
      </trkpt>
      <trkpt lat="44.56944" lon="6.68411">
        <ele>1900.4</ele>
        <time>2022-06-12T13:12:11Z</time>
      </trkpt>
      <trkpt lat="44.56943" lon="6.68398">
        <ele>1899.2</ele>
        <time>2022-06-12T13:12:12Z</time>
      </trkpt>
      <trkpt lat="44.56939" lon="6.68386">
        <ele>1898.4</ele>
        <time>2022-06-12T13:12:13Z</time>
      </trkpt>
      <trkpt lat="44.56933" lon="6.68375">
        <ele>1898</ele>
        <time>2022-06-12T13:12:14Z</time>
      </trkpt>
      <trkpt lat="44.56927" lon="6.68363">
        <ele>1897.5</ele>
        <time>2022-06-12T13:12:15Z</time>
      </trkpt>
      <trkpt lat="44.56922" lon="6.68352">
        <ele>1896.6</ele>
        <time>2022-06-12T13:12:16Z</time>
      </trkpt>
      <trkpt lat="44.5692" lon="6.68341">
        <ele>1895.6</ele>
        <time>2022-06-12T13:12:17Z</time>
      </trkpt>
      <trkpt lat="44.5692" lon="6.6833">
        <ele>1894.6</ele>
        <time>2022-06-12T13:12:18Z</time>
      </trkpt>
      <trkpt lat="44.56922" lon="6.6832">
        <ele>1893.7</ele>
        <time>2022-06-12T13:12:19Z</time>
      </trkpt>
      <trkpt lat="44.56926" lon="6.68311">
        <ele>1892.7</ele>
        <time>2022-06-12T13:12:20Z</time>
      </trkpt>
      <trkpt lat="44.56933" lon="6.68302">
        <ele>1891.7</ele>
        <time>2022-06-12T13:12:21Z</time>
      </trkpt>
      <trkpt lat="44.5694" lon="6.68294">
        <ele>1890.9</ele>
        <time>2022-06-12T13:12:22Z</time>
      </trkpt>
      <trkpt lat="44.56948" lon="6.68286">
        <ele>1890.2</ele>
        <time>2022-06-12T13:12:23Z</time>
      </trkpt>
      <trkpt lat="44.56956" lon="6.68278">
        <ele>1889.6</ele>
        <time>2022-06-12T13:12:24Z</time>
      </trkpt>
      <trkpt lat="44.56964" lon="6.6827">
        <ele>1889.1</ele>
        <time>2022-06-12T13:12:25Z</time>
      </trkpt>
      <trkpt lat="44.56977" lon="6.68262">
        <ele>1888.1</ele>
        <time>2022-06-12T13:12:26Z</time>
      </trkpt>
      <trkpt lat="44.56981" lon="6.68261">
        <ele>1887.7</ele>
        <time>2022-06-12T13:12:27Z</time>
      </trkpt>
      <trkpt lat="44.56991" lon="6.6826">
        <ele>1887</ele>
        <time>2022-06-12T13:12:28Z</time>
      </trkpt>
      <trkpt lat="44.57002" lon="6.68262">
        <ele>1886.2</ele>
        <time>2022-06-12T13:12:29Z</time>
      </trkpt>
      <trkpt lat="44.57013" lon="6.68265">
        <ele>1885.1</ele>
        <time>2022-06-12T13:12:30Z</time>
      </trkpt>
      <trkpt lat="44.57025" lon="6.68268">
        <ele>1884</ele>
        <time>2022-06-12T13:12:31Z</time>
      </trkpt>
      <trkpt lat="44.57037" lon="6.68273">
        <ele>1882.9</ele>
        <time>2022-06-12T13:12:32Z</time>
      </trkpt>
      <trkpt lat="44.57048" lon="6.68277">
        <ele>1881.8</ele>
        <time>2022-06-12T13:12:33Z</time>
      </trkpt>
      <trkpt lat="44.57059" lon="6.68279">
        <ele>1880.7</ele>
        <time>2022-06-12T13:12:34Z</time>
      </trkpt>
      <trkpt lat="44.5707" lon="6.6828">
        <ele>1879.5</ele>
        <time>2022-06-12T13:12:35Z</time>
      </trkpt>
      <trkpt lat="44.57081" lon="6.68278">
        <ele>1878.2</ele>
        <time>2022-06-12T13:12:36Z</time>
      </trkpt>
      <trkpt lat="44.57092" lon="6.68274">
        <ele>1876.7</ele>
        <time>2022-06-12T13:12:37Z</time>
      </trkpt>
      <trkpt lat="44.57102" lon="6.68269">
        <ele>1875.2</ele>
        <time>2022-06-12T13:12:38Z</time>
      </trkpt>
      <trkpt lat="44.57112" lon="6.68261">
        <ele>1873.9</ele>
        <time>2022-06-12T13:12:39Z</time>
      </trkpt>
      <trkpt lat="44.57121" lon="6.68252">
        <ele>1872.8</ele>
        <time>2022-06-12T13:12:40Z</time>
      </trkpt>
      <trkpt lat="44.5713" lon="6.68241">
        <ele>1872</ele>
        <time>2022-06-12T13:12:41Z</time>
      </trkpt>
      <trkpt lat="44.57138" lon="6.68229">
        <ele>1871.1</ele>
        <time>2022-06-12T13:12:42Z</time>
      </trkpt>
      <trkpt lat="44.57147" lon="6.68217">
        <ele>1870</ele>
        <time>2022-06-12T13:12:43Z</time>
      </trkpt>
      <trkpt lat="44.57155" lon="6.68205">
        <ele>1869</ele>
        <time>2022-06-12T13:12:44Z</time>
      </trkpt>
      <trkpt lat="44.57162" lon="6.68193">
        <ele>1868.3</ele>
        <time>2022-06-12T13:12:45Z</time>
      </trkpt>
      <trkpt lat="44.57168" lon="6.68179">
        <ele>1867.3</ele>
        <time>2022-06-12T13:12:46Z</time>
      </trkpt>
      <trkpt lat="44.57172" lon="6.68164">
        <ele>1866.3</ele>
        <time>2022-06-12T13:12:47Z</time>
      </trkpt>
      <trkpt lat="44.57174" lon="6.68148">
        <ele>1865.6</ele>
        <time>2022-06-12T13:12:48Z</time>
      </trkpt>
      <trkpt lat="44.57174" lon="6.68132">
        <ele>1864.8</ele>
        <time>2022-06-12T13:12:49Z</time>
      </trkpt>
      <trkpt lat="44.57174" lon="6.68115">
        <ele>1864</ele>
        <time>2022-06-12T13:12:50Z</time>
      </trkpt>
      <trkpt lat="44.57172" lon="6.68099">
        <ele>1863.4</ele>
        <time>2022-06-12T13:12:51Z</time>
      </trkpt>
      <trkpt lat="44.57171" lon="6.68082">
        <ele>1862.9</ele>
        <time>2022-06-12T13:12:52Z</time>
      </trkpt>
      <trkpt lat="44.57172" lon="6.68066">
        <ele>1861.6</ele>
        <time>2022-06-12T13:12:53Z</time>
      </trkpt>
      <trkpt lat="44.57174" lon="6.6805">
        <ele>1860.1</ele>
        <time>2022-06-12T13:12:54Z</time>
      </trkpt>
      <trkpt lat="44.57179" lon="6.68036">
        <ele>1858.5</ele>
        <time>2022-06-12T13:12:55Z</time>
      </trkpt>
      <trkpt lat="44.57186" lon="6.68024">
        <ele>1857.4</ele>
        <time>2022-06-12T13:12:56Z</time>
      </trkpt>
      <trkpt lat="44.57194" lon="6.68014">
        <ele>1856.5</ele>
        <time>2022-06-12T13:12:57Z</time>
      </trkpt>
      <trkpt lat="44.57203" lon="6.68008">
        <ele>1855.8</ele>
        <time>2022-06-12T13:12:58Z</time>
      </trkpt>
      <trkpt lat="44.57213" lon="6.68005">
        <ele>1854.9</ele>
        <time>2022-06-12T13:12:59Z</time>
      </trkpt>
      <trkpt lat="44.57222" lon="6.68004">
        <ele>1853.9</ele>
        <time>2022-06-12T13:13:00Z</time>
      </trkpt>
      <trkpt lat="44.57232" lon="6.68004">
        <ele>1853.4</ele>
        <time>2022-06-12T13:13:01Z</time>
      </trkpt>
      <trkpt lat="44.57242" lon="6.68003">
        <ele>1853</ele>
        <time>2022-06-12T13:13:02Z</time>
      </trkpt>
      <trkpt lat="44.57251" lon="6.68003">
        <ele>1852.6</ele>
        <time>2022-06-12T13:13:03Z</time>
      </trkpt>
      <trkpt lat="44.5726" lon="6.68004">
        <ele>1851.9</ele>
        <time>2022-06-12T13:13:04Z</time>
      </trkpt>
      <trkpt lat="44.57269" lon="6.68006">
        <ele>1851.1</ele>
        <time>2022-06-12T13:13:05Z</time>
      </trkpt>
      <trkpt lat="44.57278" lon="6.68011">
        <ele>1850.2</ele>
        <time>2022-06-12T13:13:06Z</time>
      </trkpt>
      <trkpt lat="44.57287" lon="6.68019">
        <ele>1849.2</ele>
        <time>2022-06-12T13:13:07Z</time>
      </trkpt>
      <trkpt lat="44.57294" lon="6.6803">
        <ele>1848.3</ele>
        <time>2022-06-12T13:13:08Z</time>
      </trkpt>
      <trkpt lat="44.573" lon="6.68043">
        <ele>1847.7</ele>
        <time>2022-06-12T13:13:09Z</time>
      </trkpt>
      <trkpt lat="44.57305" lon="6.68057">
        <ele>1847</ele>
        <time>2022-06-12T13:13:10Z</time>
      </trkpt>
      <trkpt lat="44.57309" lon="6.68072">
        <ele>1846.8</ele>
        <time>2022-06-12T13:13:11Z</time>
      </trkpt>
      <trkpt lat="44.57313" lon="6.68087">
        <ele>1846.4</ele>
        <time>2022-06-12T13:13:12Z</time>
      </trkpt>
      <trkpt lat="44.57317" lon="6.68102">
        <ele>1845.5</ele>
        <time>2022-06-12T13:13:13Z</time>
      </trkpt>
      <trkpt lat="44.57322" lon="6.68117">
        <ele>1844.7</ele>
        <time>2022-06-12T13:13:14Z</time>
      </trkpt>
      <trkpt lat="44.57326" lon="6.68131">
        <ele>1843.8</ele>
        <time>2022-06-12T13:13:15Z</time>
      </trkpt>
      <trkpt lat="44.5733" lon="6.68144">
        <ele>1842.9</ele>
        <time>2022-06-12T13:13:16Z</time>
      </trkpt>
      <trkpt lat="44.57333" lon="6.68157">
        <ele>1841.7</ele>
        <time>2022-06-12T13:13:17Z</time>
      </trkpt>
      <trkpt lat="44.57338" lon="6.68168">
        <ele>1840.6</ele>
        <time>2022-06-12T13:13:18Z</time>
      </trkpt>
      <trkpt lat="44.57343" lon="6.68179">
        <ele>1839.9</ele>
        <time>2022-06-12T13:13:19Z</time>
      </trkpt>
      <trkpt lat="44.5735" lon="6.68188">
        <ele>1839</ele>
        <time>2022-06-12T13:13:20Z</time>
      </trkpt>
      <trkpt lat="44.5736" lon="6.68194">
        <ele>1838.1</ele>
        <time>2022-06-12T13:13:21Z</time>
      </trkpt>
      <trkpt lat="44.5737" lon="6.68197">
        <ele>1837.1</ele>
        <time>2022-06-12T13:13:22Z</time>
      </trkpt>
      <trkpt lat="44.57382" lon="6.68198">
        <ele>1836.2</ele>
        <time>2022-06-12T13:13:23Z</time>
      </trkpt>
      <trkpt lat="44.57393" lon="6.68197">
        <ele>1835.1</ele>
        <time>2022-06-12T13:13:24Z</time>
      </trkpt>
      <trkpt lat="44.57406" lon="6.68195">
        <ele>1833.5</ele>
        <time>2022-06-12T13:13:25Z</time>
      </trkpt>
      <trkpt lat="44.57418" lon="6.68194">
        <ele>1831.8</ele>
        <time>2022-06-12T13:13:26Z</time>
      </trkpt>
      <trkpt lat="44.57431" lon="6.68191">
        <ele>1830.1</ele>
        <time>2022-06-12T13:13:27Z</time>
      </trkpt>
      <trkpt lat="44.57444" lon="6.68188">
        <ele>1828.5</ele>
        <time>2022-06-12T13:13:28Z</time>
      </trkpt>
      <trkpt lat="44.57458" lon="6.68185">
        <ele>1827.3</ele>
        <time>2022-06-12T13:13:29Z</time>
      </trkpt>
      <trkpt lat="44.57471" lon="6.68183">
        <ele>1826.3</ele>
        <time>2022-06-12T13:13:30Z</time>
      </trkpt>
      <trkpt lat="44.57485" lon="6.68182">
        <ele>1826</ele>
        <time>2022-06-12T13:13:31Z</time>
      </trkpt>
      <trkpt lat="44.57498" lon="6.68184">
        <ele>1825.2</ele>
        <time>2022-06-12T13:13:32Z</time>
      </trkpt>
      <trkpt lat="44.57512" lon="6.6819">
        <ele>1824</ele>
        <time>2022-06-12T13:13:33Z</time>
      </trkpt>
      <trkpt lat="44.57525" lon="6.68197">
        <ele>1822.6</ele>
        <time>2022-06-12T13:13:34Z</time>
      </trkpt>
      <trkpt lat="44.57538" lon="6.68203">
        <ele>1821.5</ele>
        <time>2022-06-12T13:13:35Z</time>
      </trkpt>
      <trkpt lat="44.57552" lon="6.68208">
        <ele>1820.6</ele>
        <time>2022-06-12T13:13:36Z</time>
      </trkpt>
      <trkpt lat="44.57565" lon="6.68211">
        <ele>1819.1</ele>
        <time>2022-06-12T13:13:37Z</time>
      </trkpt>
      <trkpt lat="44.5758" lon="6.68213">
        <ele>1817.7</ele>
        <time>2022-06-12T13:13:38Z</time>
      </trkpt>
      <trkpt lat="44.57594" lon="6.68212">
        <ele>1816.4</ele>
        <time>2022-06-12T13:13:39Z</time>
      </trkpt>
      <trkpt lat="44.57608" lon="6.6821">
        <ele>1815.1</ele>
        <time>2022-06-12T13:13:40Z</time>
      </trkpt>
      <trkpt lat="44.57622" lon="6.68208">
        <ele>1814.5</ele>
        <time>2022-06-12T13:13:41Z</time>
      </trkpt>
      <trkpt lat="44.57636" lon="6.68209">
        <ele>1813.6</ele>
        <time>2022-06-12T13:13:42Z</time>
      </trkpt>
      <trkpt lat="44.5765" lon="6.68212">
        <ele>1812.9</ele>
        <time>2022-06-12T13:13:43Z</time>
      </trkpt>
      <trkpt lat="44.57664" lon="6.6822">
        <ele>1811.4</ele>
        <time>2022-06-12T13:13:44Z</time>
      </trkpt>
      <trkpt lat="44.57676" lon="6.68231">
        <ele>1810.2</ele>
        <time>2022-06-12T13:13:45Z</time>
      </trkpt>
      <trkpt lat="44.57689" lon="6.68241">
        <ele>1809.3</ele>
        <time>2022-06-12T13:13:46Z</time>
      </trkpt>
      <trkpt lat="44.57701" lon="6.6825">
        <ele>1808.2</ele>
        <time>2022-06-12T13:13:47Z</time>
      </trkpt>
      <trkpt lat="44.57713" lon="6.68259">
        <ele>1806.8</ele>
        <time>2022-06-12T13:13:48Z</time>
      </trkpt>
      <trkpt lat="44.57725" lon="6.68268">
        <ele>1805.4</ele>
        <time>2022-06-12T13:13:49Z</time>
      </trkpt>
      <trkpt lat="44.57736" lon="6.68277">
        <ele>1804.1</ele>
        <time>2022-06-12T13:13:50Z</time>
      </trkpt>
      <trkpt lat="44.57746" lon="6.68286">
        <ele>1803.2</ele>
        <time>2022-06-12T13:13:51Z</time>
      </trkpt>
      <trkpt lat="44.57757" lon="6.68293">
        <ele>1802.3</ele>
        <time>2022-06-12T13:13:52Z</time>
      </trkpt>
      <trkpt lat="44.57767" lon="6.68297">
        <ele>1801.6</ele>
        <time>2022-06-12T13:13:53Z</time>
      </trkpt>
      <trkpt lat="44.57779" lon="6.68297">
        <ele>1801.5</ele>
        <time>2022-06-12T13:13:54Z</time>
      </trkpt>
      <trkpt lat="44.57791" lon="6.68294">
        <ele>1801.1</ele>
        <time>2022-06-12T13:13:55Z</time>
      </trkpt>
      <trkpt lat="44.57803" lon="6.68291">
        <ele>1800.8</ele>
        <time>2022-06-12T13:13:56Z</time>
      </trkpt>
      <trkpt lat="44.57815" lon="6.6829">
        <ele>1800.3</ele>
        <time>2022-06-12T13:13:57Z</time>
      </trkpt>
      <trkpt lat="44.57827" lon="6.68291">
        <ele>1799.4</ele>
        <time>2022-06-12T13:13:58Z</time>
      </trkpt>
      <trkpt lat="44.57838" lon="6.68297">
        <ele>1798.7</ele>
        <time>2022-06-12T13:13:59Z</time>
      </trkpt>
      <trkpt lat="44.57847" lon="6.68306">
        <ele>1798.5</ele>
        <time>2022-06-12T13:14:00Z</time>
      </trkpt>
      <trkpt lat="44.57855" lon="6.68317">
        <ele>1798.6</ele>
        <time>2022-06-12T13:14:01Z</time>
      </trkpt>
      <trkpt lat="44.57863" lon="6.6833">
        <ele>1798.4</ele>
        <time>2022-06-12T13:14:02Z</time>
      </trkpt>
      <trkpt lat="44.5787" lon="6.68344">
        <ele>1796.3</ele>
        <time>2022-06-12T13:14:03Z</time>
      </trkpt>
      <trkpt lat="44.57877" lon="6.68359">
        <ele>1793.7</ele>
        <time>2022-06-12T13:14:04Z</time>
      </trkpt>
      <trkpt lat="44.57885" lon="6.68374">
        <ele>1791.9</ele>
        <time>2022-06-12T13:14:05Z</time>
      </trkpt>
      <trkpt lat="44.57893" lon="6.68388">
        <ele>1790.3</ele>
        <time>2022-06-12T13:14:06Z</time>
      </trkpt>
      <trkpt lat="44.57902" lon="6.68401">
        <ele>1789.2</ele>
        <time>2022-06-12T13:14:07Z</time>
      </trkpt>
      <trkpt lat="44.57913" lon="6.68412">
        <ele>1788.4</ele>
        <time>2022-06-12T13:14:08Z</time>
      </trkpt>
      <trkpt lat="44.57925" lon="6.68422">
        <ele>1786.7</ele>
        <time>2022-06-12T13:14:09Z</time>
      </trkpt>
      <trkpt lat="44.57938" lon="6.68429">
        <ele>1785.5</ele>
        <time>2022-06-12T13:14:10Z</time>
      </trkpt>
      <trkpt lat="44.57951" lon="6.68434">
        <ele>1784.9</ele>
        <time>2022-06-12T13:14:11Z</time>
      </trkpt>
      <trkpt lat="44.57965" lon="6.68437">
        <ele>1784.1</ele>
        <time>2022-06-12T13:14:12Z</time>
      </trkpt>
      <trkpt lat="44.57979" lon="6.6844">
        <ele>1783.4</ele>
        <time>2022-06-12T13:14:13Z</time>
      </trkpt>
      <trkpt lat="44.57993" lon="6.68444">
        <ele>1782.4</ele>
        <time>2022-06-12T13:14:14Z</time>
      </trkpt>
      <trkpt lat="44.58006" lon="6.68447">
        <ele>1780.9</ele>
        <time>2022-06-12T13:14:15Z</time>
      </trkpt>
      <trkpt lat="44.58019" lon="6.6845">
        <ele>1779.8</ele>
        <time>2022-06-12T13:14:16Z</time>
      </trkpt>
      <trkpt lat="44.58031" lon="6.68452">
        <ele>1779.2</ele>
        <time>2022-06-12T13:14:17Z</time>
      </trkpt>
      <trkpt lat="44.58043" lon="6.68452">
        <ele>1778.4</ele>
        <time>2022-06-12T13:14:18Z</time>
      </trkpt>
      <trkpt lat="44.58055" lon="6.68448">
        <ele>1777.8</ele>
        <time>2022-06-12T13:14:19Z</time>
      </trkpt>
      <trkpt lat="44.58066" lon="6.68443">
        <ele>1777.4</ele>
        <time>2022-06-12T13:14:20Z</time>
      </trkpt>
      <trkpt lat="44.58078" lon="6.68436">
        <ele>1777.1</ele>
        <time>2022-06-12T13:14:21Z</time>
      </trkpt>
      <trkpt lat="44.58089" lon="6.68427">
        <ele>1776.6</ele>
        <time>2022-06-12T13:14:22Z</time>
      </trkpt>
      <trkpt lat="44.581" lon="6.68418">
        <ele>1776.1</ele>
        <time>2022-06-12T13:14:23Z</time>
      </trkpt>
      <trkpt lat="44.5811" lon="6.68409">
        <ele>1775.7</ele>
        <time>2022-06-12T13:14:24Z</time>
      </trkpt>
      <trkpt lat="44.58121" lon="6.684">
        <ele>1774.6</ele>
        <time>2022-06-12T13:14:25Z</time>
      </trkpt>
      <trkpt lat="44.58132" lon="6.68391">
        <ele>1773.7</ele>
        <time>2022-06-12T13:14:26Z</time>
      </trkpt>
      <trkpt lat="44.58144" lon="6.68384">
        <ele>1773.1</ele>
        <time>2022-06-12T13:14:27Z</time>
      </trkpt>
      <trkpt lat="44.58155" lon="6.68377">
        <ele>1772.3</ele>
        <time>2022-06-12T13:14:28Z</time>
      </trkpt>
      <trkpt lat="44.58168" lon="6.68372">
        <ele>1771.4</ele>
        <time>2022-06-12T13:14:29Z</time>
      </trkpt>
      <trkpt lat="44.5818" lon="6.68367">
        <ele>1770.4</ele>
        <time>2022-06-12T13:14:30Z</time>
      </trkpt>
      <trkpt lat="44.58193" lon="6.68361">
        <ele>1769.2</ele>
        <time>2022-06-12T13:14:31Z</time>
      </trkpt>
      <trkpt lat="44.58206" lon="6.68355">
        <ele>1768.3</ele>
        <time>2022-06-12T13:14:32Z</time>
      </trkpt>
      <trkpt lat="44.58219" lon="6.68349">
        <ele>1767.3</ele>
        <time>2022-06-12T13:14:33Z</time>
      </trkpt>
      <trkpt lat="44.58231" lon="6.68343">
        <ele>1766.6</ele>
        <time>2022-06-12T13:14:34Z</time>
      </trkpt>
      <trkpt lat="44.58244" lon="6.68334">
        <ele>1766.4</ele>
        <time>2022-06-12T13:14:35Z</time>
      </trkpt>
      <trkpt lat="44.58256" lon="6.68324">
        <ele>1765.3</ele>
        <time>2022-06-12T13:14:36Z</time>
      </trkpt>
      <trkpt lat="44.58268" lon="6.68314">
        <ele>1763.4</ele>
        <time>2022-06-12T13:14:37Z</time>
      </trkpt>
      <trkpt lat="44.5828" lon="6.68304">
        <ele>1762</ele>
        <time>2022-06-12T13:14:38Z</time>
      </trkpt>
      <trkpt lat="44.58293" lon="6.68295">
        <ele>1761.7</ele>
        <time>2022-06-12T13:14:39Z</time>
      </trkpt>
      <trkpt lat="44.58305" lon="6.68288">
        <ele>1760.9</ele>
        <time>2022-06-12T13:14:40Z</time>
      </trkpt>
      <trkpt lat="44.58318" lon="6.68285">
        <ele>1760.8</ele>
        <time>2022-06-12T13:14:41Z</time>
      </trkpt>
      <trkpt lat="44.5833" lon="6.68284">
        <ele>1760.1</ele>
        <time>2022-06-12T13:14:42Z</time>
      </trkpt>
      <trkpt lat="44.58343" lon="6.68286">
        <ele>1759.5</ele>
        <time>2022-06-12T13:14:43Z</time>
      </trkpt>
      <trkpt lat="44.58355" lon="6.68292">
        <ele>1758.5</ele>
        <time>2022-06-12T13:14:44Z</time>
      </trkpt>
      <trkpt lat="44.58367" lon="6.683">
        <ele>1757.6</ele>
        <time>2022-06-12T13:14:45Z</time>
      </trkpt>
      <trkpt lat="44.58378" lon="6.68308">
        <ele>1756.6</ele>
        <time>2022-06-12T13:14:46Z</time>
      </trkpt>
      <trkpt lat="44.5839" lon="6.68317">
        <ele>1755.2</ele>
        <time>2022-06-12T13:14:47Z</time>
      </trkpt>
      <trkpt lat="44.58402" lon="6.68326">
        <ele>1753.6</ele>
        <time>2022-06-12T13:14:48Z</time>
      </trkpt>
      <trkpt lat="44.58414" lon="6.68334">
        <ele>1751.7</ele>
        <time>2022-06-12T13:14:49Z</time>
      </trkpt>
      <trkpt lat="44.58426" lon="6.68344">
        <ele>1751.1</ele>
        <time>2022-06-12T13:14:50Z</time>
      </trkpt>
      <trkpt lat="44.58439" lon="6.68353">
        <ele>1750.4</ele>
        <time>2022-06-12T13:14:51Z</time>
      </trkpt>
      <trkpt lat="44.58451" lon="6.68363">
        <ele>1749.5</ele>
        <time>2022-06-12T13:14:52Z</time>
      </trkpt>
      <trkpt lat="44.58463" lon="6.68376">
        <ele>1748.3</ele>
        <time>2022-06-12T13:14:53Z</time>
      </trkpt>
      <trkpt lat="44.58473" lon="6.6839">
        <ele>1746.9</ele>
        <time>2022-06-12T13:14:54Z</time>
      </trkpt>
      <trkpt lat="44.58483" lon="6.68406">
        <ele>1745.6</ele>
        <time>2022-06-12T13:14:55Z</time>
      </trkpt>
      <trkpt lat="44.58493" lon="6.68421">
        <ele>1744.5</ele>
        <time>2022-06-12T13:14:56Z</time>
      </trkpt>
      <trkpt lat="44.58504" lon="6.68435">
        <ele>1743.3</ele>
        <time>2022-06-12T13:14:57Z</time>
      </trkpt>
      <trkpt lat="44.58516" lon="6.68449">
        <ele>1742.3</ele>
        <time>2022-06-12T13:14:58Z</time>
      </trkpt>
      <trkpt lat="44.58528" lon="6.68463">
        <ele>1740.7</ele>
        <time>2022-06-12T13:14:59Z</time>
      </trkpt>
      <trkpt lat="44.5854" lon="6.68478">
        <ele>1739.2</ele>
        <time>2022-06-12T13:15:00Z</time>
      </trkpt>
      <trkpt lat="44.58552" lon="6.68494">
        <ele>1737.2</ele>
        <time>2022-06-12T13:15:01Z</time>
      </trkpt>
      <trkpt lat="44.58564" lon="6.6851">
        <ele>1735.6</ele>
        <time>2022-06-12T13:15:02Z</time>
      </trkpt>
      <trkpt lat="44.58575" lon="6.68526">
        <ele>1734.6</ele>
        <time>2022-06-12T13:15:03Z</time>
      </trkpt>
      <trkpt lat="44.58587" lon="6.68542">
        <ele>1733</ele>
        <time>2022-06-12T13:15:04Z</time>
      </trkpt>
      <trkpt lat="44.58598" lon="6.68558">
        <ele>1731.6</ele>
        <time>2022-06-12T13:15:05Z</time>
      </trkpt>
      <trkpt lat="44.58608" lon="6.68574">
        <ele>1730.3</ele>
        <time>2022-06-12T13:15:06Z</time>
      </trkpt>
      <trkpt lat="44.58617" lon="6.68591">
        <ele>1728.6</ele>
        <time>2022-06-12T13:15:07Z</time>
      </trkpt>
      <trkpt lat="44.58625" lon="6.68608">
        <ele>1727.4</ele>
        <time>2022-06-12T13:15:08Z</time>
      </trkpt>
      <trkpt lat="44.58632" lon="6.68625">
        <ele>1726.3</ele>
        <time>2022-06-12T13:15:09Z</time>
      </trkpt>
      <trkpt lat="44.5864" lon="6.68639">
        <ele>1725.1</ele>
        <time>2022-06-12T13:15:10Z</time>
      </trkpt>
      <trkpt lat="44.58649" lon="6.68651">
        <ele>1723.4</ele>
        <time>2022-06-12T13:15:11Z</time>
      </trkpt>
      <trkpt lat="44.5866" lon="6.68662">
        <ele>1722.2</ele>
        <time>2022-06-12T13:15:12Z</time>
      </trkpt>
      <trkpt lat="44.58671" lon="6.68671">
        <ele>1720.9</ele>
        <time>2022-06-12T13:15:13Z</time>
      </trkpt>
      <trkpt lat="44.58684" lon="6.68678">
        <ele>1719.5</ele>
        <time>2022-06-12T13:15:14Z</time>
      </trkpt>
      <trkpt lat="44.58697" lon="6.68684">
        <ele>1718.7</ele>
        <time>2022-06-12T13:15:15Z</time>
      </trkpt>
      <trkpt lat="44.58711" lon="6.68691">
        <ele>1717.9</ele>
        <time>2022-06-12T13:15:16Z</time>
      </trkpt>
      <trkpt lat="44.58725" lon="6.68699">
        <ele>1716.7</ele>
        <time>2022-06-12T13:15:17Z</time>
      </trkpt>
      <trkpt lat="44.58739" lon="6.68707">
        <ele>1714.9</ele>
        <time>2022-06-12T13:15:18Z</time>
      </trkpt>
      <trkpt lat="44.58754" lon="6.68716">
        <ele>1713.5</ele>
        <time>2022-06-12T13:15:19Z</time>
      </trkpt>
      <trkpt lat="44.58769" lon="6.68724">
        <ele>1711.7</ele>
        <time>2022-06-12T13:15:20Z</time>
      </trkpt>
      <trkpt lat="44.58784" lon="6.68732">
        <ele>1710.4</ele>
        <time>2022-06-12T13:15:21Z</time>
      </trkpt>
      <trkpt lat="44.58799" lon="6.68741">
        <ele>1709.5</ele>
        <time>2022-06-12T13:15:22Z</time>
      </trkpt>
      <trkpt lat="44.58815" lon="6.68749">
        <ele>1708.2</ele>
        <time>2022-06-12T13:15:23Z</time>
      </trkpt>
      <trkpt lat="44.58831" lon="6.68757">
        <ele>1706.8</ele>
        <time>2022-06-12T13:15:24Z</time>
      </trkpt>
      <trkpt lat="44.58847" lon="6.68764">
        <ele>1705</ele>
        <time>2022-06-12T13:15:25Z</time>
      </trkpt>
      <trkpt lat="44.58863" lon="6.6877">
        <ele>1703.4</ele>
        <time>2022-06-12T13:15:26Z</time>
      </trkpt>
      <trkpt lat="44.5888" lon="6.68774">
        <ele>1702</ele>
        <time>2022-06-12T13:15:27Z</time>
      </trkpt>
      <trkpt lat="44.58897" lon="6.68777">
        <ele>1700.6</ele>
        <time>2022-06-12T13:15:28Z</time>
      </trkpt>
      <trkpt lat="44.58914" lon="6.68779">
        <ele>1699</ele>
        <time>2022-06-12T13:15:29Z</time>
      </trkpt>
      <trkpt lat="44.5893" lon="6.68781">
        <ele>1697.5</ele>
        <time>2022-06-12T13:15:30Z</time>
      </trkpt>
      <trkpt lat="44.58945" lon="6.68783">
        <ele>1696.2</ele>
        <time>2022-06-12T13:15:31Z</time>
      </trkpt>
      <trkpt lat="44.58961" lon="6.68783">
        <ele>1695.1</ele>
        <time>2022-06-12T13:15:32Z</time>
      </trkpt>
      <trkpt lat="44.58976" lon="6.68782">
        <ele>1694</ele>
        <time>2022-06-12T13:15:33Z</time>
      </trkpt>
      <trkpt lat="44.5899" lon="6.68781">
        <ele>1692.8</ele>
        <time>2022-06-12T13:15:34Z</time>
      </trkpt>
      <trkpt lat="44.59004" lon="6.68778">
        <ele>1691.5</ele>
        <time>2022-06-12T13:15:35Z</time>
      </trkpt>
      <trkpt lat="44.59017" lon="6.68775">
        <ele>1690</ele>
        <time>2022-06-12T13:15:36Z</time>
      </trkpt>
      <trkpt lat="44.5903" lon="6.68774">
        <ele>1688.5</ele>
        <time>2022-06-12T13:15:37Z</time>
      </trkpt>
      <trkpt lat="44.59044" lon="6.68774">
        <ele>1687.1</ele>
        <time>2022-06-12T13:15:38Z</time>
      </trkpt>
      <trkpt lat="44.59057" lon="6.68775">
        <ele>1685.6</ele>
        <time>2022-06-12T13:15:39Z</time>
      </trkpt>
      <trkpt lat="44.59069" lon="6.68777">
        <ele>1684.2</ele>
        <time>2022-06-12T13:15:40Z</time>
      </trkpt>
      <trkpt lat="44.5908" lon="6.68781">
        <ele>1683</ele>
        <time>2022-06-12T13:15:41Z</time>
      </trkpt>
      <trkpt lat="44.5909" lon="6.68789">
        <ele>1682.3</ele>
        <time>2022-06-12T13:15:42Z</time>
      </trkpt>
      <trkpt lat="44.591" lon="6.688">
        <ele>1681.1</ele>
        <time>2022-06-12T13:15:43Z</time>
      </trkpt>
      <trkpt lat="44.59106" lon="6.68812">
        <ele>1679.6</ele>
        <time>2022-06-12T13:15:44Z</time>
      </trkpt>
      <trkpt lat="44.5911" lon="6.68826">
        <ele>1678.5</ele>
        <time>2022-06-12T13:15:45Z</time>
      </trkpt>
      <trkpt lat="44.59114" lon="6.6884">
        <ele>1677.3</ele>
        <time>2022-06-12T13:15:46Z</time>
      </trkpt>
      <trkpt lat="44.59117" lon="6.68854">
        <ele>1675.7</ele>
        <time>2022-06-12T13:15:47Z</time>
      </trkpt>
      <trkpt lat="44.59123" lon="6.68865">
        <ele>1674.7</ele>
        <time>2022-06-12T13:15:48Z</time>
      </trkpt>
      <trkpt lat="44.5913" lon="6.68874">
        <ele>1674.9</ele>
        <time>2022-06-12T13:15:49Z</time>
      </trkpt>
      <trkpt lat="44.59139" lon="6.6888">
        <ele>1675.3</ele>
        <time>2022-06-12T13:15:50Z</time>
      </trkpt>
      <trkpt lat="44.5915" lon="6.68882">
        <ele>1674.4</ele>
        <time>2022-06-12T13:15:51Z</time>
      </trkpt>
      <trkpt lat="44.59161" lon="6.68883">
        <ele>1673.3</ele>
        <time>2022-06-12T13:15:52Z</time>
      </trkpt>
      <trkpt lat="44.59173" lon="6.68883">
        <ele>1671.9</ele>
        <time>2022-06-12T13:15:53Z</time>
      </trkpt>
      <trkpt lat="44.59184" lon="6.68885">
        <ele>1670.1</ele>
        <time>2022-06-12T13:15:54Z</time>
      </trkpt>
      <trkpt lat="44.59196" lon="6.68887">
        <ele>1668.1</ele>
        <time>2022-06-12T13:15:55Z</time>
      </trkpt>
      <trkpt lat="44.59207" lon="6.68891">
        <ele>1666.7</ele>
        <time>2022-06-12T13:15:56Z</time>
      </trkpt>
      <trkpt lat="44.59218" lon="6.68895">
        <ele>1665.3</ele>
        <time>2022-06-12T13:15:57Z</time>
      </trkpt>
      <trkpt lat="44.59228" lon="6.68902">
        <ele>1664.4</ele>
        <time>2022-06-12T13:15:58Z</time>
      </trkpt>
      <trkpt lat="44.59239" lon="6.6891">
        <ele>1663</ele>
        <time>2022-06-12T13:15:59Z</time>
      </trkpt>
      <trkpt lat="44.59249" lon="6.68919">
        <ele>1661.2</ele>
        <time>2022-06-12T13:16:00Z</time>
      </trkpt>
      <trkpt lat="44.5926" lon="6.68928">
        <ele>1660.6</ele>
        <time>2022-06-12T13:16:01Z</time>
      </trkpt>
      <trkpt lat="44.5927" lon="6.68935">
        <ele>1659.7</ele>
        <time>2022-06-12T13:16:02Z</time>
      </trkpt>
      <trkpt lat="44.5928" lon="6.6894">
        <ele>1658.8</ele>
        <time>2022-06-12T13:16:03Z</time>
      </trkpt>
      <trkpt lat="44.59291" lon="6.68942">
        <ele>1658.1</ele>
        <time>2022-06-12T13:16:04Z</time>
      </trkpt>
      <trkpt lat="44.593" lon="6.68943">
        <ele>1657.4</ele>
        <time>2022-06-12T13:16:05Z</time>
      </trkpt>
      <trkpt lat="44.5931" lon="6.68943">
        <ele>1656.8</ele>
        <time>2022-06-12T13:16:06Z</time>
      </trkpt>
      <trkpt lat="44.59319" lon="6.68942">
        <ele>1656.1</ele>
        <time>2022-06-12T13:16:07Z</time>
      </trkpt>
      <trkpt lat="44.59327" lon="6.68941">
        <ele>1655.5</ele>
        <time>2022-06-12T13:16:08Z</time>
      </trkpt>
      <trkpt lat="44.59334" lon="6.6894">
        <ele>1655</ele>
        <time>2022-06-12T13:16:09Z</time>
      </trkpt>
      <trkpt lat="44.59339" lon="6.6894">
        <ele>1654.6</ele>
        <time>2022-06-12T13:16:10Z</time>
      </trkpt>
      <trkpt lat="44.59345" lon="6.6894">
        <ele>1654.1</ele>
        <time>2022-06-12T13:16:11Z</time>
      </trkpt>
      <trkpt lat="44.59351" lon="6.68941">
        <ele>1653.7</ele>
        <time>2022-06-12T13:16:12Z</time>
      </trkpt>
      <trkpt lat="44.59357" lon="6.68943">
        <ele>1653.2</ele>
        <time>2022-06-12T13:16:13Z</time>
      </trkpt>
      <trkpt lat="44.59364" lon="6.68944">
        <ele>1652.8</ele>
        <time>2022-06-12T13:16:14Z</time>
      </trkpt>
      <trkpt lat="44.5937" lon="6.68945">
        <ele>1652.4</ele>
        <time>2022-06-12T13:16:15Z</time>
      </trkpt>
      <trkpt lat="44.59377" lon="6.68946">
        <ele>1652</ele>
        <time>2022-06-12T13:16:16Z</time>
      </trkpt>
      <trkpt lat="44.59384" lon="6.68947">
        <ele>1651.5</ele>
        <time>2022-06-12T13:16:17Z</time>
      </trkpt>
      <trkpt lat="44.5939" lon="6.68948">
        <ele>1651.2</ele>
        <time>2022-06-12T13:16:18Z</time>
      </trkpt>
      <trkpt lat="44.59396" lon="6.6895">
        <ele>1651.1</ele>
        <time>2022-06-12T13:16:19Z</time>
      </trkpt>
      <trkpt lat="44.59401" lon="6.68951">
        <ele>1651</ele>
        <time>2022-06-12T13:16:20Z</time>
      </trkpt>
      <trkpt lat="44.59407" lon="6.68954">
        <ele>1651</ele>
        <time>2022-06-12T13:16:21Z</time>
      </trkpt>
      <trkpt lat="44.59413" lon="6.68958">
        <ele>1651.1</ele>
        <time>2022-06-12T13:16:22Z</time>
      </trkpt>
      <trkpt lat="44.59419" lon="6.68962">
        <ele>1651.2</ele>
        <time>2022-06-12T13:16:23Z</time>
      </trkpt>
      <trkpt lat="44.59424" lon="6.68968">
        <ele>1651.4</ele>
        <time>2022-06-12T13:16:24Z</time>
      </trkpt>
      <trkpt lat="44.5943" lon="6.68973">
        <ele>1651.6</ele>
        <time>2022-06-12T13:16:25Z</time>
      </trkpt>
      <trkpt lat="44.59436" lon="6.68979">
        <ele>1651.8</ele>
        <time>2022-06-12T13:16:26Z</time>
      </trkpt>
      <trkpt lat="44.59442" lon="6.68984">
        <ele>1651.9</ele>
        <time>2022-06-12T13:16:27Z</time>
      </trkpt>
      <trkpt lat="44.59449" lon="6.68987">
        <ele>1652.2</ele>
        <time>2022-06-12T13:16:28Z</time>
      </trkpt>
      <trkpt lat="44.59457" lon="6.68989">
        <ele>1652.5</ele>
        <time>2022-06-12T13:16:29Z</time>
      </trkpt>
      <trkpt lat="44.59465" lon="6.6899">
        <ele>1652.8</ele>
        <time>2022-06-12T13:16:30Z</time>
      </trkpt>
      <trkpt lat="44.59472" lon="6.68991">
        <ele>1653</ele>
        <time>2022-06-12T13:16:31Z</time>
      </trkpt>
      <trkpt lat="44.5948" lon="6.68991">
        <ele>1653.2</ele>
        <time>2022-06-12T13:16:32Z</time>
      </trkpt>
      <trkpt lat="44.59488" lon="6.68991">
        <ele>1653.4</ele>
        <time>2022-06-12T13:16:33Z</time>
      </trkpt>
      <trkpt lat="44.59495" lon="6.68991">
        <ele>1653.6</ele>
        <time>2022-06-12T13:16:34Z</time>
      </trkpt>
      <trkpt lat="44.59503" lon="6.68991">
        <ele>1653.9</ele>
        <time>2022-06-12T13:16:35Z</time>
      </trkpt>
      <trkpt lat="44.5951" lon="6.68991">
        <ele>1654.4</ele>
        <time>2022-06-12T13:16:36Z</time>
      </trkpt>
      <trkpt lat="44.59517" lon="6.68992">
        <ele>1655</ele>
        <time>2022-06-12T13:16:37Z</time>
      </trkpt>
      <trkpt lat="44.59525" lon="6.68992">
        <ele>1655.6</ele>
        <time>2022-06-12T13:16:38Z</time>
      </trkpt>
      <trkpt lat="44.59532" lon="6.68992">
        <ele>1655.9</ele>
        <time>2022-06-12T13:16:39Z</time>
      </trkpt>
      <trkpt lat="44.59538" lon="6.68992">
        <ele>1656.1</ele>
        <time>2022-06-12T13:16:40Z</time>
      </trkpt>
      <trkpt lat="44.59544" lon="6.68992">
        <ele>1656.3</ele>
        <time>2022-06-12T13:16:41Z</time>
      </trkpt>
      <trkpt lat="44.5955" lon="6.68992">
        <ele>1656.5</ele>
        <time>2022-06-12T13:16:42Z</time>
      </trkpt>
      <trkpt lat="44.59556" lon="6.68993">
        <ele>1656.7</ele>
        <time>2022-06-12T13:16:43Z</time>
      </trkpt>
      <trkpt lat="44.59562" lon="6.68993">
        <ele>1656.9</ele>
        <time>2022-06-12T13:16:44Z</time>
      </trkpt>
      <trkpt lat="44.59568" lon="6.68993">
        <ele>1657</ele>
        <time>2022-06-12T13:16:45Z</time>
      </trkpt>
      <trkpt lat="44.59573" lon="6.68993">
        <ele>1657.1</ele>
        <time>2022-06-12T13:16:46Z</time>
      </trkpt>
      <trkpt lat="44.59579" lon="6.68993">
        <ele>1657.3</ele>
        <time>2022-06-12T13:16:47Z</time>
      </trkpt>
      <trkpt lat="44.59583" lon="6.68993">
        <ele>1657.4</ele>
        <time>2022-06-12T13:16:48Z</time>
      </trkpt>
      <trkpt lat="44.59588" lon="6.68993">
        <ele>1657.6</ele>
        <time>2022-06-12T13:16:49Z</time>
      </trkpt>
      <trkpt lat="44.59593" lon="6.68994">
        <ele>1657.9</ele>
        <time>2022-06-12T13:16:50Z</time>
      </trkpt>
      <trkpt lat="44.59597" lon="6.68994">
        <ele>1658.1</ele>
        <time>2022-06-12T13:16:51Z</time>
      </trkpt>
      <trkpt lat="44.59602" lon="6.68995">
        <ele>1658.4</ele>
        <time>2022-06-12T13:16:52Z</time>
      </trkpt>
      <trkpt lat="44.59607" lon="6.68995">
        <ele>1658.6</ele>
        <time>2022-06-12T13:16:53Z</time>
      </trkpt>
      <trkpt lat="44.59611" lon="6.68996">
        <ele>1659</ele>
        <time>2022-06-12T13:16:54Z</time>
      </trkpt>
      <trkpt lat="44.59615" lon="6.68997">
        <ele>1659.4</ele>
        <time>2022-06-12T13:16:55Z</time>
      </trkpt>
      <trkpt lat="44.5962" lon="6.68998">
        <ele>1659.9</ele>
        <time>2022-06-12T13:16:56Z</time>
      </trkpt>
      <trkpt lat="44.59624" lon="6.69">
        <ele>1660.4</ele>
        <time>2022-06-12T13:16:57Z</time>
      </trkpt>
      <trkpt lat="44.59628" lon="6.69001">
        <ele>1660.8</ele>
        <time>2022-06-12T13:16:58Z</time>
      </trkpt>
      <trkpt lat="44.59632" lon="6.69002">
        <ele>1661.2</ele>
        <time>2022-06-12T13:16:59Z</time>
      </trkpt>
      <trkpt lat="44.59635" lon="6.69003">
        <ele>1661.5</ele>
        <time>2022-06-12T13:17:00Z</time>
      </trkpt>
      <trkpt lat="44.59639" lon="6.69003">
        <ele>1661.7</ele>
        <time>2022-06-12T13:17:01Z</time>
      </trkpt>
      <trkpt lat="44.59642" lon="6.69003">
        <ele>1662</ele>
        <time>2022-06-12T13:17:02Z</time>
      </trkpt>
      <trkpt lat="44.59645" lon="6.69004">
        <ele>1662.3</ele>
        <time>2022-06-12T13:17:03Z</time>
      </trkpt>
      <trkpt lat="44.59648" lon="6.69004">
        <ele>1662.6</ele>
        <time>2022-06-12T13:17:04Z</time>
      </trkpt>
      <trkpt lat="44.59651" lon="6.69004">
        <ele>1663</ele>
        <time>2022-06-12T13:17:05Z</time>
      </trkpt>
      <trkpt lat="44.59654" lon="6.69005">
        <ele>1663.3</ele>
        <time>2022-06-12T13:17:06Z</time>
      </trkpt>
      <trkpt lat="44.59657" lon="6.69005">
        <ele>1663.5</ele>
        <time>2022-06-12T13:17:07Z</time>
      </trkpt>
      <trkpt lat="44.5966" lon="6.69005">
        <ele>1663.7</ele>
        <time>2022-06-12T13:17:08Z</time>
      </trkpt>
      <trkpt lat="44.59662" lon="6.69004">
        <ele>1663.9</ele>
        <time>2022-06-12T13:17:09Z</time>
      </trkpt>
      <trkpt lat="44.59665" lon="6.69004">
        <ele>1664</ele>
        <time>2022-06-12T13:17:10Z</time>
      </trkpt>
      <trkpt lat="44.59668" lon="6.69003">
        <ele>1664.1</ele>
        <time>2022-06-12T13:17:11Z</time>
      </trkpt>
      <trkpt lat="44.59671" lon="6.69003">
        <ele>1664.3</ele>
        <time>2022-06-12T13:17:12Z</time>
      </trkpt>
      <trkpt lat="44.59674" lon="6.69002">
        <ele>1664.5</ele>
        <time>2022-06-12T13:17:13Z</time>
      </trkpt>
      <trkpt lat="44.59677" lon="6.69002">
        <ele>1664.5</ele>
        <time>2022-06-12T13:17:14Z</time>
      </trkpt>
      <trkpt lat="44.5968" lon="6.69001">
        <ele>1664.6</ele>
        <time>2022-06-12T13:17:15Z</time>
      </trkpt>
      <trkpt lat="44.59683" lon="6.69">
        <ele>1664.6</ele>
        <time>2022-06-12T13:17:16Z</time>
      </trkpt>
      <trkpt lat="44.59686" lon="6.68999">
        <ele>1664.7</ele>
        <time>2022-06-12T13:17:17Z</time>
      </trkpt>
      <trkpt lat="44.59689" lon="6.68999">
        <ele>1664.8</ele>
        <time>2022-06-12T13:17:18Z</time>
      </trkpt>
      <trkpt lat="44.59692" lon="6.68998">
        <ele>1664.9</ele>
        <time>2022-06-12T13:17:19Z</time>
      </trkpt>
      <trkpt lat="44.59695" lon="6.68998">
        <ele>1665</ele>
        <time>2022-06-12T13:17:20Z</time>
      </trkpt>
      <trkpt lat="44.59698" lon="6.68997">
        <ele>1665.1</ele>
        <time>2022-06-12T13:17:21Z</time>
      </trkpt>
      <trkpt lat="44.59701" lon="6.68996">
        <ele>1665</ele>
        <time>2022-06-12T13:17:22Z</time>
      </trkpt>
      <trkpt lat="44.59704" lon="6.68995">
        <ele>1664.9</ele>
        <time>2022-06-12T13:17:23Z</time>
      </trkpt>
      <trkpt lat="44.59707" lon="6.68994">
        <ele>1664.9</ele>
        <time>2022-06-12T13:17:24Z</time>
      </trkpt>
      <trkpt lat="44.59709" lon="6.68993">
        <ele>1664.8</ele>
        <time>2022-06-12T13:17:25Z</time>
      </trkpt>
      <trkpt lat="44.59713" lon="6.68993">
        <ele>1664.8</ele>
        <time>2022-06-12T13:17:26Z</time>
      </trkpt>
      <trkpt lat="44.59716" lon="6.68992">
        <ele>1664.8</ele>
        <time>2022-06-12T13:17:27Z</time>
      </trkpt>
      <trkpt lat="44.59719" lon="6.68991">
        <ele>1664.7</ele>
        <time>2022-06-12T13:17:28Z</time>
      </trkpt>
      <trkpt lat="44.59722" lon="6.6899">
        <ele>1664.6</ele>
        <time>2022-06-12T13:17:29Z</time>
      </trkpt>
      <trkpt lat="44.59725" lon="6.68989">
        <ele>1664.5</ele>
        <time>2022-06-12T13:17:30Z</time>
      </trkpt>
      <trkpt lat="44.59729" lon="6.68988">
        <ele>1664.3</ele>
        <time>2022-06-12T13:17:31Z</time>
      </trkpt>
      <trkpt lat="44.59732" lon="6.68987">
        <ele>1664.4</ele>
        <time>2022-06-12T13:17:32Z</time>
      </trkpt>
      <trkpt lat="44.59735" lon="6.68986">
        <ele>1664.4</ele>
        <time>2022-06-12T13:17:33Z</time>
      </trkpt>
      <trkpt lat="44.59739" lon="6.68986">
        <ele>1664.5</ele>
        <time>2022-06-12T13:17:34Z</time>
      </trkpt>
      <trkpt lat="44.59742" lon="6.68985">
        <ele>1664.7</ele>
        <time>2022-06-12T13:17:35Z</time>
      </trkpt>
      <trkpt lat="44.59746" lon="6.68985">
        <ele>1664.9</ele>
        <time>2022-06-12T13:17:36Z</time>
      </trkpt>
      <trkpt lat="44.5975" lon="6.68984">
        <ele>1665.1</ele>
        <time>2022-06-12T13:17:37Z</time>
      </trkpt>
      <trkpt lat="44.59754" lon="6.68984">
        <ele>1664.8</ele>
        <time>2022-06-12T13:17:38Z</time>
      </trkpt>
      <trkpt lat="44.59757" lon="6.68983">
        <ele>1664.6</ele>
        <time>2022-06-12T13:17:39Z</time>
      </trkpt>
      <trkpt lat="44.59761" lon="6.68983">
        <ele>1664.5</ele>
        <time>2022-06-12T13:17:40Z</time>
      </trkpt>
      <trkpt lat="44.59764" lon="6.68983">
        <ele>1664.5</ele>
        <time>2022-06-12T13:17:41Z</time>
      </trkpt>
      <trkpt lat="44.59768" lon="6.68983">
        <ele>1664.2</ele>
        <time>2022-06-12T13:17:42Z</time>
      </trkpt>
      <trkpt lat="44.59773" lon="6.68982">
        <ele>1663.9</ele>
        <time>2022-06-12T13:17:43Z</time>
      </trkpt>
      <trkpt lat="44.59777" lon="6.68982">
        <ele>1663.7</ele>
        <time>2022-06-12T13:17:44Z</time>
      </trkpt>
      <trkpt lat="44.59782" lon="6.68982">
        <ele>1663.7</ele>
        <time>2022-06-12T13:17:45Z</time>
      </trkpt>
      <trkpt lat="44.59787" lon="6.68982">
        <ele>1663.7</ele>
        <time>2022-06-12T13:17:46Z</time>
      </trkpt>
      <trkpt lat="44.59792" lon="6.68981">
        <ele>1663.6</ele>
        <time>2022-06-12T13:17:47Z</time>
      </trkpt>
      <trkpt lat="44.59797" lon="6.68981">
        <ele>1663.5</ele>
        <time>2022-06-12T13:17:48Z</time>
      </trkpt>
      <trkpt lat="44.59802" lon="6.6898">
        <ele>1663.3</ele>
        <time>2022-06-12T13:17:49Z</time>
      </trkpt>
      <trkpt lat="44.59808" lon="6.6898">
        <ele>1663.2</ele>
        <time>2022-06-12T13:17:50Z</time>
      </trkpt>
      <trkpt lat="44.59813" lon="6.68979">
        <ele>1663.4</ele>
        <time>2022-06-12T13:17:51Z</time>
      </trkpt>
      <trkpt lat="44.59819" lon="6.68978">
        <ele>1663.5</ele>
        <time>2022-06-12T13:17:52Z</time>
      </trkpt>
      <trkpt lat="44.59825" lon="6.68978">
        <ele>1663.7</ele>
        <time>2022-06-12T13:17:53Z</time>
      </trkpt>
      <trkpt lat="44.59831" lon="6.68977">
        <ele>1663.9</ele>
        <time>2022-06-12T13:17:54Z</time>
      </trkpt>
      <trkpt lat="44.59837" lon="6.68977">
        <ele>1664</ele>
        <time>2022-06-12T13:17:55Z</time>
      </trkpt>
      <trkpt lat="44.59844" lon="6.68976">
        <ele>1663.9</ele>
        <time>2022-06-12T13:17:56Z</time>
      </trkpt>
      <trkpt lat="44.59851" lon="6.68976">
        <ele>1663.8</ele>
        <time>2022-06-12T13:17:57Z</time>
      </trkpt>
      <trkpt lat="44.59858" lon="6.68976">
        <ele>1663.8</ele>
        <time>2022-06-12T13:17:58Z</time>
      </trkpt>
      <trkpt lat="44.59866" lon="6.68977">
        <ele>1663.5</ele>
        <time>2022-06-12T13:17:59Z</time>
      </trkpt>
      <trkpt lat="44.59874" lon="6.68978">
        <ele>1663</ele>
        <time>2022-06-12T13:18:00Z</time>
      </trkpt>
      <trkpt lat="44.59887" lon="6.6898">
        <ele>1662.3</ele>
        <time>2022-06-12T13:18:01Z</time>
      </trkpt>
      <trkpt lat="44.59891" lon="6.6898">
        <ele>1662.1</ele>
        <time>2022-06-12T13:18:02Z</time>
      </trkpt>
      <trkpt lat="44.599" lon="6.68981">
        <ele>1661.8</ele>
        <time>2022-06-12T13:18:03Z</time>
      </trkpt>
      <trkpt lat="44.59915" lon="6.68983">
        <ele>1661.3</ele>
        <time>2022-06-12T13:18:04Z</time>
      </trkpt>
      <trkpt lat="44.5992" lon="6.68984">
        <ele>1661.2</ele>
        <time>2022-06-12T13:18:05Z</time>
      </trkpt>
      <trkpt lat="44.5993" lon="6.68986">
        <ele>1660.9</ele>
        <time>2022-06-12T13:18:06Z</time>
      </trkpt>
      <trkpt lat="44.5994" lon="6.68987">
        <ele>1660.7</ele>
        <time>2022-06-12T13:18:07Z</time>
      </trkpt>
      <trkpt lat="44.5995" lon="6.68988">
        <ele>1660.7</ele>
        <time>2022-06-12T13:18:08Z</time>
      </trkpt>
      <trkpt lat="44.59966" lon="6.68988">
        <ele>1660.4</ele>
        <time>2022-06-12T13:18:09Z</time>
      </trkpt>
      <trkpt lat="44.59972" lon="6.68988">
        <ele>1660.1</ele>
        <time>2022-06-12T13:18:10Z</time>
      </trkpt>
      <trkpt lat="44.59983" lon="6.68987">
        <ele>1659.8</ele>
        <time>2022-06-12T13:18:11Z</time>
      </trkpt>
      <trkpt lat="44.59993" lon="6.68984">
        <ele>1658.9</ele>
        <time>2022-06-12T13:18:12Z</time>
      </trkpt>
      <trkpt lat="44.60004" lon="6.68981">
        <ele>1658.3</ele>
        <time>2022-06-12T13:18:13Z</time>
      </trkpt>
      <trkpt lat="44.60014" lon="6.68977">
        <ele>1658</ele>
        <time>2022-06-12T13:18:14Z</time>
      </trkpt>
      <trkpt lat="44.60025" lon="6.68973">
        <ele>1657.8</ele>
        <time>2022-06-12T13:18:15Z</time>
      </trkpt>
      <trkpt lat="44.60035" lon="6.68969">
        <ele>1656.7</ele>
        <time>2022-06-12T13:18:16Z</time>
      </trkpt>
      <trkpt lat="44.60045" lon="6.68964">
        <ele>1655.5</ele>
        <time>2022-06-12T13:18:17Z</time>
      </trkpt>
      <trkpt lat="44.60054" lon="6.6896">
        <ele>1654.8</ele>
        <time>2022-06-12T13:18:18Z</time>
      </trkpt>
      <trkpt lat="44.60064" lon="6.68956">
        <ele>1654.8</ele>
        <time>2022-06-12T13:18:19Z</time>
      </trkpt>
      <trkpt lat="44.60078" lon="6.68949">
        <ele>1655.1</ele>
        <time>2022-06-12T13:18:20Z</time>
      </trkpt>
      <trkpt lat="44.60083" lon="6.68947">
        <ele>1655.3</ele>
        <time>2022-06-12T13:18:21Z</time>
      </trkpt>
      <trkpt lat="44.60092" lon="6.68943">
        <ele>1655.8</ele>
        <time>2022-06-12T13:18:22Z</time>
      </trkpt>
      <trkpt lat="44.60101" lon="6.68939">
        <ele>1655.8</ele>
        <time>2022-06-12T13:18:23Z</time>
      </trkpt>
      <trkpt lat="44.6011" lon="6.68935">
        <ele>1655.8</ele>
        <time>2022-06-12T13:18:24Z</time>
      </trkpt>
      <trkpt lat="44.60119" lon="6.68931">
        <ele>1655.9</ele>
        <time>2022-06-12T13:18:25Z</time>
      </trkpt>
      <trkpt lat="44.60128" lon="6.68927">
        <ele>1656.2</ele>
        <time>2022-06-12T13:18:26Z</time>
      </trkpt>
      <trkpt lat="44.60137" lon="6.68923">
        <ele>1656.6</ele>
        <time>2022-06-12T13:18:27Z</time>
      </trkpt>
      <trkpt lat="44.60146" lon="6.6892">
        <ele>1656</ele>
        <time>2022-06-12T13:18:28Z</time>
      </trkpt>
      <trkpt lat="44.60155" lon="6.68915">
        <ele>1655.2</ele>
        <time>2022-06-12T13:18:29Z</time>
      </trkpt>
      <trkpt lat="44.60164" lon="6.68911">
        <ele>1654.5</ele>
        <time>2022-06-12T13:18:30Z</time>
      </trkpt>
      <trkpt lat="44.60173" lon="6.68908">
        <ele>1653.8</ele>
        <time>2022-06-12T13:18:31Z</time>
      </trkpt>
      <trkpt lat="44.60182" lon="6.68905">
        <ele>1653.2</ele>
        <time>2022-06-12T13:18:32Z</time>
      </trkpt>
      <trkpt lat="44.60192" lon="6.68902">
        <ele>1652.8</ele>
        <time>2022-06-12T13:18:33Z</time>
      </trkpt>
      <trkpt lat="44.60202" lon="6.68901">
        <ele>1652.2</ele>
        <time>2022-06-12T13:18:34Z</time>
      </trkpt>
      <trkpt lat="44.60212" lon="6.68901">
        <ele>1651.4</ele>
        <time>2022-06-12T13:18:35Z</time>
      </trkpt>
      <trkpt lat="44.60222" lon="6.68901">
        <ele>1651</ele>
        <time>2022-06-12T13:18:36Z</time>
      </trkpt>
      <trkpt lat="44.60232" lon="6.68903">
        <ele>1650.6</ele>
        <time>2022-06-12T13:18:37Z</time>
      </trkpt>
      <trkpt lat="44.60243" lon="6.68904">
        <ele>1650.2</ele>
        <time>2022-06-12T13:18:38Z</time>
      </trkpt>
      <trkpt lat="44.60254" lon="6.68905">
        <ele>1649.8</ele>
        <time>2022-06-12T13:18:39Z</time>
      </trkpt>
      <trkpt lat="44.60265" lon="6.68905">
        <ele>1649.5</ele>
        <time>2022-06-12T13:18:40Z</time>
      </trkpt>
      <trkpt lat="44.60276" lon="6.68903">
        <ele>1648.4</ele>
        <time>2022-06-12T13:18:41Z</time>
      </trkpt>
      <trkpt lat="44.60287" lon="6.68898">
        <ele>1647.4</ele>
        <time>2022-06-12T13:18:42Z</time>
      </trkpt>
      <trkpt lat="44.60297" lon="6.68891">
        <ele>1646.1</ele>
        <time>2022-06-12T13:18:43Z</time>
      </trkpt>
      <trkpt lat="44.60307" lon="6.68883">
        <ele>1644.7</ele>
        <time>2022-06-12T13:18:44Z</time>
      </trkpt>
      <trkpt lat="44.60318" lon="6.68874">
        <ele>1643.9</ele>
        <time>2022-06-12T13:18:45Z</time>
      </trkpt>
      <trkpt lat="44.60329" lon="6.68868">
        <ele>1643.4</ele>
        <time>2022-06-12T13:18:46Z</time>
      </trkpt>
      <trkpt lat="44.60342" lon="6.68863">
        <ele>1642.5</ele>
        <time>2022-06-12T13:18:47Z</time>
      </trkpt>
      <trkpt lat="44.60354" lon="6.68861">
        <ele>1642</ele>
        <time>2022-06-12T13:18:48Z</time>
      </trkpt>
      <trkpt lat="44.60367" lon="6.68861">
        <ele>1641.6</ele>
        <time>2022-06-12T13:18:49Z</time>
      </trkpt>
      <trkpt lat="44.6038" lon="6.68862">
        <ele>1641</ele>
        <time>2022-06-12T13:18:50Z</time>
      </trkpt>
      <trkpt lat="44.60393" lon="6.68864">
        <ele>1640.4</ele>
        <time>2022-06-12T13:18:51Z</time>
      </trkpt>
      <trkpt lat="44.60406" lon="6.68867">
        <ele>1639.8</ele>
        <time>2022-06-12T13:18:52Z</time>
      </trkpt>
      <trkpt lat="44.60419" lon="6.68871">
        <ele>1639.4</ele>
        <time>2022-06-12T13:18:53Z</time>
      </trkpt>
      <trkpt lat="44.60432" lon="6.68876">
        <ele>1638</ele>
        <time>2022-06-12T13:18:54Z</time>
      </trkpt>
      <trkpt lat="44.60444" lon="6.68884">
        <ele>1636.9</ele>
        <time>2022-06-12T13:18:55Z</time>
      </trkpt>
      <trkpt lat="44.60456" lon="6.68894">
        <ele>1636.1</ele>
        <time>2022-06-12T13:18:56Z</time>
      </trkpt>
      <trkpt lat="44.60467" lon="6.68906">
        <ele>1635.7</ele>
        <time>2022-06-12T13:18:57Z</time>
      </trkpt>
      <trkpt lat="44.60477" lon="6.68918">
        <ele>1635</ele>
        <time>2022-06-12T13:18:58Z</time>
      </trkpt>
      <trkpt lat="44.60489" lon="6.68929">
        <ele>1633.9</ele>
        <time>2022-06-12T13:18:59Z</time>
      </trkpt>
      <trkpt lat="44.60501" lon="6.68935">
        <ele>1632.3</ele>
        <time>2022-06-12T13:19:00Z</time>
      </trkpt>
      <trkpt lat="44.60514" lon="6.68937">
        <ele>1632.7</ele>
        <time>2022-06-12T13:19:01Z</time>
      </trkpt>
      <trkpt lat="44.60527" lon="6.68936">
        <ele>1632.4</ele>
        <time>2022-06-12T13:19:02Z</time>
      </trkpt>
      <trkpt lat="44.60539" lon="6.68931">
        <ele>1632.6</ele>
        <time>2022-06-12T13:19:03Z</time>
      </trkpt>
      <trkpt lat="44.60551" lon="6.68926">
        <ele>1632.9</ele>
        <time>2022-06-12T13:19:04Z</time>
      </trkpt>
      <trkpt lat="44.60563" lon="6.68921">
        <ele>1632.9</ele>
        <time>2022-06-12T13:19:05Z</time>
      </trkpt>
      <trkpt lat="44.60575" lon="6.68915">
        <ele>1632.4</ele>
        <time>2022-06-12T13:19:06Z</time>
      </trkpt>
      <trkpt lat="44.60586" lon="6.68909">
        <ele>1632</ele>
        <time>2022-06-12T13:19:07Z</time>
      </trkpt>
      <trkpt lat="44.60597" lon="6.68904">
        <ele>1631.6</ele>
        <time>2022-06-12T13:19:08Z</time>
      </trkpt>
      <trkpt lat="44.60609" lon="6.68898">
        <ele>1631.3</ele>
        <time>2022-06-12T13:19:09Z</time>
      </trkpt>
      <trkpt lat="44.6062" lon="6.68893">
        <ele>1631.2</ele>
        <time>2022-06-12T13:19:10Z</time>
      </trkpt>
      <trkpt lat="44.6063" lon="6.68889">
        <ele>1631.3</ele>
        <time>2022-06-12T13:19:11Z</time>
      </trkpt>
      <trkpt lat="44.60641" lon="6.68884">
        <ele>1631.5</ele>
        <time>2022-06-12T13:19:12Z</time>
      </trkpt>
      <trkpt lat="44.60652" lon="6.6888">
        <ele>1631</ele>
        <time>2022-06-12T13:19:13Z</time>
      </trkpt>
      <trkpt lat="44.60662" lon="6.68875">
        <ele>1630.5</ele>
        <time>2022-06-12T13:19:14Z</time>
      </trkpt>
      <trkpt lat="44.60672" lon="6.68871">
        <ele>1630.3</ele>
        <time>2022-06-12T13:19:15Z</time>
      </trkpt>
      <trkpt lat="44.60682" lon="6.68867">
        <ele>1630.3</ele>
        <time>2022-06-12T13:19:16Z</time>
      </trkpt>
      <trkpt lat="44.60692" lon="6.68863">
        <ele>1630.1</ele>
        <time>2022-06-12T13:19:17Z</time>
      </trkpt>
      <trkpt lat="44.60701" lon="6.68859">
        <ele>1630.2</ele>
        <time>2022-06-12T13:19:18Z</time>
      </trkpt>
      <trkpt lat="44.6071" lon="6.68855">
        <ele>1630.4</ele>
        <time>2022-06-12T13:19:19Z</time>
      </trkpt>
      <trkpt lat="44.60719" lon="6.68852">
        <ele>1630.5</ele>
        <time>2022-06-12T13:19:20Z</time>
      </trkpt>
      <trkpt lat="44.60728" lon="6.68849">
        <ele>1630.4</ele>
        <time>2022-06-12T13:19:21Z</time>
      </trkpt>
      <trkpt lat="44.60737" lon="6.68845">
        <ele>1630.2</ele>
        <time>2022-06-12T13:19:22Z</time>
      </trkpt>
      <trkpt lat="44.60746" lon="6.68842">
        <ele>1630.1</ele>
        <time>2022-06-12T13:19:23Z</time>
      </trkpt>
      <trkpt lat="44.60755" lon="6.68841">
        <ele>1630.5</ele>
        <time>2022-06-12T13:19:24Z</time>
      </trkpt>
      <trkpt lat="44.60765" lon="6.68841">
        <ele>1631.2</ele>
        <time>2022-06-12T13:19:25Z</time>
      </trkpt>
      <trkpt lat="44.60774" lon="6.68841">
        <ele>1632.1</ele>
        <time>2022-06-12T13:19:26Z</time>
      </trkpt>
      <trkpt lat="44.60783" lon="6.68843">
        <ele>1632.9</ele>
        <time>2022-06-12T13:19:27Z</time>
      </trkpt>
      <trkpt lat="44.60792" lon="6.68845">
        <ele>1633.5</ele>
        <time>2022-06-12T13:19:28Z</time>
      </trkpt>
      <trkpt lat="44.60801" lon="6.68846">
        <ele>1634.2</ele>
        <time>2022-06-12T13:19:29Z</time>
      </trkpt>
      <trkpt lat="44.6081" lon="6.68847">
        <ele>1634.3</ele>
        <time>2022-06-12T13:19:30Z</time>
      </trkpt>
      <trkpt lat="44.60818" lon="6.68846">
        <ele>1634.1</ele>
        <time>2022-06-12T13:19:31Z</time>
      </trkpt>
      <trkpt lat="44.60825" lon="6.68845">
        <ele>1633.7</ele>
        <time>2022-06-12T13:19:32Z</time>
      </trkpt>
      <trkpt lat="44.60833" lon="6.68842">
        <ele>1633.3</ele>
        <time>2022-06-12T13:19:33Z</time>
      </trkpt>
      <trkpt lat="44.6084" lon="6.6884">
        <ele>1633.2</ele>
        <time>2022-06-12T13:19:34Z</time>
      </trkpt>
      <trkpt lat="44.60848" lon="6.68839">
        <ele>1633.3</ele>
        <time>2022-06-12T13:19:35Z</time>
      </trkpt>
      <trkpt lat="44.60855" lon="6.68839">
        <ele>1633.6</ele>
        <time>2022-06-12T13:19:36Z</time>
      </trkpt>
      <trkpt lat="44.60863" lon="6.6884">
        <ele>1633.9</ele>
        <time>2022-06-12T13:19:37Z</time>
      </trkpt>
      <trkpt lat="44.6087" lon="6.68842">
        <ele>1634.2</ele>
        <time>2022-06-12T13:19:38Z</time>
      </trkpt>
      <trkpt lat="44.60877" lon="6.68845">
        <ele>1634.5</ele>
        <time>2022-06-12T13:19:39Z</time>
      </trkpt>
      <trkpt lat="44.60884" lon="6.68847">
        <ele>1634.9</ele>
        <time>2022-06-12T13:19:40Z</time>
      </trkpt>
      <trkpt lat="44.6089" lon="6.68848">
        <ele>1635.1</ele>
        <time>2022-06-12T13:19:41Z</time>
      </trkpt>
      <trkpt lat="44.609" lon="6.68849">
        <ele>1635.2</ele>
        <time>2022-06-12T13:19:42Z</time>
      </trkpt>
      <trkpt lat="44.60904" lon="6.6885">
        <ele>1635.3</ele>
        <time>2022-06-12T13:19:43Z</time>
      </trkpt>
      <trkpt lat="44.6091" lon="6.6885">
        <ele>1635.3</ele>
        <time>2022-06-12T13:19:44Z</time>
      </trkpt>
      <trkpt lat="44.60916" lon="6.6885">
        <ele>1635.2</ele>
        <time>2022-06-12T13:19:45Z</time>
      </trkpt>
      <trkpt lat="44.60921" lon="6.6885">
        <ele>1635.3</ele>
        <time>2022-06-12T13:19:46Z</time>
      </trkpt>
      <trkpt lat="44.60926" lon="6.6885">
        <ele>1635.3</ele>
        <time>2022-06-12T13:19:47Z</time>
      </trkpt>
      <trkpt lat="44.60931" lon="6.68849">
        <ele>1635.2</ele>
        <time>2022-06-12T13:19:48Z</time>
      </trkpt>
      <trkpt lat="44.60937" lon="6.68849">
        <ele>1635.2</ele>
        <time>2022-06-12T13:19:49Z</time>
      </trkpt>
      <trkpt lat="44.60942" lon="6.68849">
        <ele>1635.2</ele>
        <time>2022-06-12T13:19:50Z</time>
      </trkpt>
      <trkpt lat="44.60947" lon="6.68849">
        <ele>1635.4</ele>
        <time>2022-06-12T13:19:51Z</time>
      </trkpt>
      <trkpt lat="44.60952" lon="6.68849">
        <ele>1635.6</ele>
        <time>2022-06-12T13:19:52Z</time>
      </trkpt>
      <trkpt lat="44.60958" lon="6.6885">
        <ele>1636</ele>
        <time>2022-06-12T13:19:53Z</time>
      </trkpt>
      <trkpt lat="44.60963" lon="6.68851">
        <ele>1636.4</ele>
        <time>2022-06-12T13:19:54Z</time>
      </trkpt>
      <trkpt lat="44.60968" lon="6.68851">
        <ele>1636.7</ele>
        <time>2022-06-12T13:19:55Z</time>
      </trkpt>
      <trkpt lat="44.60973" lon="6.68851">
        <ele>1636.9</ele>
        <time>2022-06-12T13:19:56Z</time>
      </trkpt>
      <trkpt lat="44.60978" lon="6.68852">
        <ele>1637.3</ele>
        <time>2022-06-12T13:19:57Z</time>
      </trkpt>
      <trkpt lat="44.60983" lon="6.6885">
        <ele>1637.4</ele>
        <time>2022-06-12T13:19:58Z</time>
      </trkpt>
      <trkpt lat="44.60987" lon="6.68848">
        <ele>1637.2</ele>
        <time>2022-06-12T13:19:59Z</time>
      </trkpt>
      <trkpt lat="44.60992" lon="6.68844">
        <ele>1636.8</ele>
        <time>2022-06-12T13:20:00Z</time>
      </trkpt>
      <trkpt lat="44.60995" lon="6.68838">
        <ele>1636.2</ele>
        <time>2022-06-12T13:20:01Z</time>
      </trkpt>
      <trkpt lat="44.60999" lon="6.68832">
        <ele>1635.7</ele>
        <time>2022-06-12T13:20:02Z</time>
      </trkpt>
      <trkpt lat="44.61003" lon="6.68827">
        <ele>1635.6</ele>
        <time>2022-06-12T13:20:03Z</time>
      </trkpt>
      <trkpt lat="44.61007" lon="6.6882">
        <ele>1635.3</ele>
        <time>2022-06-12T13:20:04Z</time>
      </trkpt>
      <trkpt lat="44.61011" lon="6.68815">
        <ele>1635.1</ele>
        <time>2022-06-12T13:20:05Z</time>
      </trkpt>
      <trkpt lat="44.61016" lon="6.68811">
        <ele>1635.3</ele>
        <time>2022-06-12T13:20:06Z</time>
      </trkpt>
      <trkpt lat="44.61021" lon="6.68809">
        <ele>1635.6</ele>
        <time>2022-06-12T13:20:07Z</time>
      </trkpt>
      <trkpt lat="44.61027" lon="6.68809">
        <ele>1636.2</ele>
        <time>2022-06-12T13:20:08Z</time>
      </trkpt>
      <trkpt lat="44.61033" lon="6.68809">
        <ele>1636.7</ele>
        <time>2022-06-12T13:20:09Z</time>
      </trkpt>
      <trkpt lat="44.61039" lon="6.68808">
        <ele>1637</ele>
        <time>2022-06-12T13:20:10Z</time>
      </trkpt>
      <trkpt lat="44.61044" lon="6.68806">
        <ele>1637.2</ele>
        <time>2022-06-12T13:20:11Z</time>
      </trkpt>
      <trkpt lat="44.6105" lon="6.68804">
        <ele>1637.3</ele>
        <time>2022-06-12T13:20:12Z</time>
      </trkpt>
      <trkpt lat="44.61056" lon="6.68801">
        <ele>1637.4</ele>
        <time>2022-06-12T13:20:13Z</time>
      </trkpt>
      <trkpt lat="44.61062" lon="6.68798">
        <ele>1637.5</ele>
        <time>2022-06-12T13:20:14Z</time>
      </trkpt>
      <trkpt lat="44.61068" lon="6.68795">
        <ele>1637.6</ele>
        <time>2022-06-12T13:20:15Z</time>
      </trkpt>
      <trkpt lat="44.61074" lon="6.68791">
        <ele>1637.4</ele>
        <time>2022-06-12T13:20:16Z</time>
      </trkpt>
      <trkpt lat="44.6108" lon="6.68787">
        <ele>1637.4</ele>
        <time>2022-06-12T13:20:17Z</time>
      </trkpt>
      <trkpt lat="44.61087" lon="6.68784">
        <ele>1637.3</ele>
        <time>2022-06-12T13:20:18Z</time>
      </trkpt>
      <trkpt lat="44.61093" lon="6.6878">
        <ele>1637.2</ele>
        <time>2022-06-12T13:20:19Z</time>
      </trkpt>
      <trkpt lat="44.61099" lon="6.68777">
        <ele>1637</ele>
        <time>2022-06-12T13:20:20Z</time>
      </trkpt>
      <trkpt lat="44.61106" lon="6.68774">
        <ele>1636.9</ele>
        <time>2022-06-12T13:20:21Z</time>
      </trkpt>
      <trkpt lat="44.61112" lon="6.6877">
        <ele>1636.8</ele>
        <time>2022-06-12T13:20:22Z</time>
      </trkpt>
      <trkpt lat="44.61119" lon="6.68766">
        <ele>1636.6</ele>
        <time>2022-06-12T13:20:23Z</time>
      </trkpt>
      <trkpt lat="44.61126" lon="6.68763">
        <ele>1636.6</ele>
        <time>2022-06-12T13:20:24Z</time>
      </trkpt>
      <trkpt lat="44.61133" lon="6.6876">
        <ele>1636.6</ele>
        <time>2022-06-12T13:20:25Z</time>
      </trkpt>
      <trkpt lat="44.61139" lon="6.68757">
        <ele>1636.5</ele>
        <time>2022-06-12T13:20:26Z</time>
      </trkpt>
      <trkpt lat="44.61146" lon="6.68753">
        <ele>1636.2</ele>
        <time>2022-06-12T13:20:27Z</time>
      </trkpt>
      <trkpt lat="44.61153" lon="6.68749">
        <ele>1635.8</ele>
        <time>2022-06-12T13:20:28Z</time>
      </trkpt>
      <trkpt lat="44.6116" lon="6.68746">
        <ele>1635.7</ele>
        <time>2022-06-12T13:20:29Z</time>
      </trkpt>
      <trkpt lat="44.61167" lon="6.68743">
        <ele>1635.5</ele>
        <time>2022-06-12T13:20:30Z</time>
      </trkpt>
      <trkpt lat="44.61174" lon="6.6874">
        <ele>1635.2</ele>
        <time>2022-06-12T13:20:31Z</time>
      </trkpt>
      <trkpt lat="44.61181" lon="6.68736">
        <ele>1634.8</ele>
        <time>2022-06-12T13:20:32Z</time>
      </trkpt>
      <trkpt lat="44.61188" lon="6.68733">
        <ele>1634.4</ele>
        <time>2022-06-12T13:20:33Z</time>
      </trkpt>
      <trkpt lat="44.61195" lon="6.68729">
        <ele>1633.8</ele>
        <time>2022-06-12T13:20:34Z</time>
      </trkpt>
      <trkpt lat="44.61203" lon="6.68726">
        <ele>1633.2</ele>
        <time>2022-06-12T13:20:35Z</time>
      </trkpt>
      <trkpt lat="44.6121" lon="6.68723">
        <ele>1632.7</ele>
        <time>2022-06-12T13:20:36Z</time>
      </trkpt>
      <trkpt lat="44.61217" lon="6.6872">
        <ele>1632.3</ele>
        <time>2022-06-12T13:20:37Z</time>
      </trkpt>
      <trkpt lat="44.61224" lon="6.68718">
        <ele>1631.7</ele>
        <time>2022-06-12T13:20:38Z</time>
      </trkpt>
      <trkpt lat="44.61231" lon="6.68715">
        <ele>1631.3</ele>
        <time>2022-06-12T13:20:39Z</time>
      </trkpt>
      <trkpt lat="44.61238" lon="6.68713">
        <ele>1630.8</ele>
        <time>2022-06-12T13:20:40Z</time>
      </trkpt>
      <trkpt lat="44.61244" lon="6.68711">
        <ele>1630.4</ele>
        <time>2022-06-12T13:20:41Z</time>
      </trkpt>
      <trkpt lat="44.61252" lon="6.68709">
        <ele>1630.3</ele>
        <time>2022-06-12T13:20:42Z</time>
      </trkpt>
      <trkpt lat="44.61259" lon="6.68708">
        <ele>1630.6</ele>
        <time>2022-06-12T13:20:43Z</time>
      </trkpt>
      <trkpt lat="44.61266" lon="6.68707">
        <ele>1630.9</ele>
        <time>2022-06-12T13:20:44Z</time>
      </trkpt>
      <trkpt lat="44.61273" lon="6.68706">
        <ele>1631.2</ele>
        <time>2022-06-12T13:20:45Z</time>
      </trkpt>
      <trkpt lat="44.6128" lon="6.68705">
        <ele>1631.7</ele>
        <time>2022-06-12T13:20:46Z</time>
      </trkpt>
      <trkpt lat="44.61287" lon="6.68704">
        <ele>1632.5</ele>
        <time>2022-06-12T13:20:47Z</time>
      </trkpt>
      <trkpt lat="44.61294" lon="6.68703">
        <ele>1633.2</ele>
        <time>2022-06-12T13:20:48Z</time>
      </trkpt>
      <trkpt lat="44.61301" lon="6.68701">
        <ele>1633.7</ele>
        <time>2022-06-12T13:20:49Z</time>
      </trkpt>
      <trkpt lat="44.61307" lon="6.687">
        <ele>1634.3</ele>
        <time>2022-06-12T13:20:50Z</time>
      </trkpt>
      <trkpt lat="44.61314" lon="6.68697">
        <ele>1635</ele>
        <time>2022-06-12T13:20:51Z</time>
      </trkpt>
      <trkpt lat="44.6132" lon="6.68694">
        <ele>1635.5</ele>
        <time>2022-06-12T13:20:52Z</time>
      </trkpt>
      <trkpt lat="44.61326" lon="6.6869">
        <ele>1635.7</ele>
        <time>2022-06-12T13:20:53Z</time>
      </trkpt>
      <trkpt lat="44.61332" lon="6.68684">
        <ele>1635.6</ele>
        <time>2022-06-12T13:20:54Z</time>
      </trkpt>
      <trkpt lat="44.61337" lon="6.68679">
        <ele>1635.8</ele>
        <time>2022-06-12T13:20:55Z</time>
      </trkpt>
      <trkpt lat="44.61342" lon="6.68673">
        <ele>1636.2</ele>
        <time>2022-06-12T13:20:56Z</time>
      </trkpt>
      <trkpt lat="44.61347" lon="6.68667">
        <ele>1636.5</ele>
        <time>2022-06-12T13:20:57Z</time>
      </trkpt>
      <trkpt lat="44.61352" lon="6.68661">
        <ele>1637.5</ele>
        <time>2022-06-12T13:20:58Z</time>
      </trkpt>
      <trkpt lat="44.61357" lon="6.68654">
        <ele>1638.4</ele>
        <time>2022-06-12T13:20:59Z</time>
      </trkpt>
      <trkpt lat="44.6136" lon="6.68647">
        <ele>1638.8</ele>
        <time>2022-06-12T13:21:00Z</time>
      </trkpt>
      <trkpt lat="44.61364" lon="6.68641">
        <ele>1639.2</ele>
        <time>2022-06-12T13:21:01Z</time>
      </trkpt>
      <trkpt lat="44.61368" lon="6.68635">
        <ele>1639.7</ele>
        <time>2022-06-12T13:21:02Z</time>
      </trkpt>
      <trkpt lat="44.61371" lon="6.68629">
        <ele>1640.2</ele>
        <time>2022-06-12T13:21:03Z</time>
      </trkpt>
      <trkpt lat="44.61375" lon="6.68624">
        <ele>1640.6</ele>
        <time>2022-06-12T13:21:04Z</time>
      </trkpt>
      <trkpt lat="44.61379" lon="6.68619">
        <ele>1641</ele>
        <time>2022-06-12T13:21:05Z</time>
      </trkpt>
      <trkpt lat="44.61383" lon="6.68615">
        <ele>1641.3</ele>
        <time>2022-06-12T13:21:06Z</time>
      </trkpt>
      <trkpt lat="44.61387" lon="6.68611">
        <ele>1641.5</ele>
        <time>2022-06-12T13:21:07Z</time>
      </trkpt>
      <trkpt lat="44.61391" lon="6.68607">
        <ele>1641.6</ele>
        <time>2022-06-12T13:21:08Z</time>
      </trkpt>
      <trkpt lat="44.61395" lon="6.68604">
        <ele>1641.7</ele>
        <time>2022-06-12T13:21:09Z</time>
      </trkpt>
      <trkpt lat="44.61399" lon="6.68601">
        <ele>1641.8</ele>
        <time>2022-06-12T13:21:10Z</time>
      </trkpt>
      <trkpt lat="44.61403" lon="6.68599">
        <ele>1642.1</ele>
        <time>2022-06-12T13:21:11Z</time>
      </trkpt>
      <trkpt lat="44.61406" lon="6.68597">
        <ele>1642.4</ele>
        <time>2022-06-12T13:21:12Z</time>
      </trkpt>
      <trkpt lat="44.6141" lon="6.68596">
        <ele>1642.8</ele>
        <time>2022-06-12T13:21:13Z</time>
      </trkpt>
      <trkpt lat="44.61414" lon="6.68594">
        <ele>1643.1</ele>
        <time>2022-06-12T13:21:14Z</time>
      </trkpt>
      <trkpt lat="44.61417" lon="6.68593">
        <ele>1643.4</ele>
        <time>2022-06-12T13:21:15Z</time>
      </trkpt>
      <trkpt lat="44.61421" lon="6.68591">
        <ele>1643.7</ele>
        <time>2022-06-12T13:21:16Z</time>
      </trkpt>
      <trkpt lat="44.61424" lon="6.6859">
        <ele>1644</ele>
        <time>2022-06-12T13:21:17Z</time>
      </trkpt>
      <trkpt lat="44.61427" lon="6.68589">
        <ele>1644.2</ele>
        <time>2022-06-12T13:21:18Z</time>
      </trkpt>
      <trkpt lat="44.6143" lon="6.68588">
        <ele>1644.5</ele>
        <time>2022-06-12T13:21:19Z</time>
      </trkpt>
      <trkpt lat="44.61434" lon="6.68587">
        <ele>1644.9</ele>
        <time>2022-06-12T13:21:20Z</time>
      </trkpt>
      <trkpt lat="44.61437" lon="6.68586">
        <ele>1645.1</ele>
        <time>2022-06-12T13:21:21Z</time>
      </trkpt>
      <trkpt lat="44.6144" lon="6.68584">
        <ele>1645.4</ele>
        <time>2022-06-12T13:21:22Z</time>
      </trkpt>
      <trkpt lat="44.61443" lon="6.68583">
        <ele>1645.6</ele>
        <time>2022-06-12T13:21:23Z</time>
      </trkpt>
      <trkpt lat="44.61446" lon="6.68582">
        <ele>1645.8</ele>
        <time>2022-06-12T13:21:24Z</time>
      </trkpt>
      <trkpt lat="44.61449" lon="6.68581">
        <ele>1645.9</ele>
        <time>2022-06-12T13:21:25Z</time>
      </trkpt>
      <trkpt lat="44.61452" lon="6.6858">
        <ele>1645.8</ele>
        <time>2022-06-12T13:21:26Z</time>
      </trkpt>
      <trkpt lat="44.61455" lon="6.68579">
        <ele>1645.9</ele>
        <time>2022-06-12T13:21:27Z</time>
      </trkpt>
      <trkpt lat="44.61458" lon="6.68578">
        <ele>1646</ele>
        <time>2022-06-12T13:21:28Z</time>
      </trkpt>
      <trkpt lat="44.6146" lon="6.68577">
        <ele>1646</ele>
        <time>2022-06-12T13:21:29Z</time>
      </trkpt>
      <trkpt lat="44.61463" lon="6.68577">
        <ele>1646</ele>
        <time>2022-06-12T13:21:30Z</time>
      </trkpt>
      <trkpt lat="44.61466" lon="6.68576">
        <ele>1646.1</ele>
        <time>2022-06-12T13:21:31Z</time>
      </trkpt>
      <trkpt lat="44.61469" lon="6.68575">
        <ele>1646.2</ele>
        <time>2022-06-12T13:21:32Z</time>
      </trkpt>
      <trkpt lat="44.61472" lon="6.68574">
        <ele>1646.3</ele>
        <time>2022-06-12T13:21:33Z</time>
      </trkpt>
      <trkpt lat="44.61475" lon="6.68574">
        <ele>1646.3</ele>
        <time>2022-06-12T13:21:34Z</time>
      </trkpt>
      <trkpt lat="44.61478" lon="6.68573">
        <ele>1646.3</ele>
        <time>2022-06-12T13:21:35Z</time>
      </trkpt>
      <trkpt lat="44.61481" lon="6.68572">
        <ele>1646.3</ele>
        <time>2022-06-12T13:21:36Z</time>
      </trkpt>
      <trkpt lat="44.61484" lon="6.68572">
        <ele>1646.3</ele>
        <time>2022-06-12T13:21:37Z</time>
      </trkpt>
      <trkpt lat="44.61487" lon="6.68571">
        <ele>1646.4</ele>
        <time>2022-06-12T13:21:38Z</time>
      </trkpt>
      <trkpt lat="44.6149" lon="6.68572">
        <ele>1646.6</ele>
        <time>2022-06-12T13:21:39Z</time>
      </trkpt>
      <trkpt lat="44.61492" lon="6.68572">
        <ele>1647</ele>
        <time>2022-06-12T13:21:40Z</time>
      </trkpt>
      <trkpt lat="44.61495" lon="6.68573">
        <ele>1647.3</ele>
        <time>2022-06-12T13:21:41Z</time>
      </trkpt>
      <trkpt lat="44.61498" lon="6.68573">
        <ele>1647.6</ele>
        <time>2022-06-12T13:21:42Z</time>
      </trkpt>
      <trkpt lat="44.615" lon="6.68574">
        <ele>1648</ele>
        <time>2022-06-12T13:21:43Z</time>
      </trkpt>
      <trkpt lat="44.61503" lon="6.68575">
        <ele>1648.3</ele>
        <time>2022-06-12T13:21:44Z</time>
      </trkpt>
      <trkpt lat="44.61506" lon="6.68575">
        <ele>1648.7</ele>
        <time>2022-06-12T13:21:45Z</time>
      </trkpt>
      <trkpt lat="44.61509" lon="6.68576">
        <ele>1649.2</ele>
        <time>2022-06-12T13:21:46Z</time>
      </trkpt>
      <trkpt lat="44.61511" lon="6.68577">
        <ele>1649.5</ele>
        <time>2022-06-12T13:21:47Z</time>
      </trkpt>
      <trkpt lat="44.61514" lon="6.68578">
        <ele>1650</ele>
        <time>2022-06-12T13:21:48Z</time>
      </trkpt>
      <trkpt lat="44.61517" lon="6.68578">
        <ele>1650.5</ele>
        <time>2022-06-12T13:21:49Z</time>
      </trkpt>
      <trkpt lat="44.61519" lon="6.68579">
        <ele>1650.9</ele>
        <time>2022-06-12T13:21:50Z</time>
      </trkpt>
      <trkpt lat="44.61522" lon="6.6858">
        <ele>1651.3</ele>
        <time>2022-06-12T13:21:51Z</time>
      </trkpt>
      <trkpt lat="44.61525" lon="6.6858">
        <ele>1651.6</ele>
        <time>2022-06-12T13:21:52Z</time>
      </trkpt>
      <trkpt lat="44.61528" lon="6.68581">
        <ele>1652</ele>
        <time>2022-06-12T13:21:53Z</time>
      </trkpt>
      <trkpt lat="44.6153" lon="6.68581">
        <ele>1652.5</ele>
        <time>2022-06-12T13:21:54Z</time>
      </trkpt>
      <trkpt lat="44.61533" lon="6.68582">
        <ele>1652.9</ele>
        <time>2022-06-12T13:21:55Z</time>
      </trkpt>
      <trkpt lat="44.61535" lon="6.68583">
        <ele>1653.5</ele>
        <time>2022-06-12T13:21:56Z</time>
      </trkpt>
      <trkpt lat="44.61538" lon="6.68583">
        <ele>1654</ele>
        <time>2022-06-12T13:21:57Z</time>
      </trkpt>
      <trkpt lat="44.61541" lon="6.68583">
        <ele>1654.4</ele>
        <time>2022-06-12T13:21:58Z</time>
      </trkpt>
      <trkpt lat="44.61544" lon="6.68584">
        <ele>1654.8</ele>
        <time>2022-06-12T13:21:59Z</time>
      </trkpt>
      <trkpt lat="44.61547" lon="6.68584">
        <ele>1655.1</ele>
        <time>2022-06-12T13:22:00Z</time>
      </trkpt>
      <trkpt lat="44.6155" lon="6.68584">
        <ele>1655.4</ele>
        <time>2022-06-12T13:22:01Z</time>
      </trkpt>
      <trkpt lat="44.61552" lon="6.68584">
        <ele>1655.7</ele>
        <time>2022-06-12T13:22:02Z</time>
      </trkpt>
      <trkpt lat="44.61555" lon="6.68583">
        <ele>1655.9</ele>
        <time>2022-06-12T13:22:03Z</time>
      </trkpt>
      <trkpt lat="44.61558" lon="6.68583">
        <ele>1656.3</ele>
        <time>2022-06-12T13:22:04Z</time>
      </trkpt>
      <trkpt lat="44.61561" lon="6.68583">
        <ele>1656.5</ele>
        <time>2022-06-12T13:22:05Z</time>
      </trkpt>
      <trkpt lat="44.61564" lon="6.68582">
        <ele>1656.7</ele>
        <time>2022-06-12T13:22:06Z</time>
      </trkpt>
      <trkpt lat="44.61568" lon="6.68582">
        <ele>1657</ele>
        <time>2022-06-12T13:22:07Z</time>
      </trkpt>
      <trkpt lat="44.61571" lon="6.68581">
        <ele>1657.1</ele>
        <time>2022-06-12T13:22:08Z</time>
      </trkpt>
      <trkpt lat="44.61574" lon="6.6858">
        <ele>1657.2</ele>
        <time>2022-06-12T13:22:09Z</time>
      </trkpt>
      <trkpt lat="44.61577" lon="6.68579">
        <ele>1657.2</ele>
        <time>2022-06-12T13:22:10Z</time>
      </trkpt>
      <trkpt lat="44.6158" lon="6.68579">
        <ele>1657.4</ele>
        <time>2022-06-12T13:22:11Z</time>
      </trkpt>
      <trkpt lat="44.61583" lon="6.68578">
        <ele>1657.4</ele>
        <time>2022-06-12T13:22:12Z</time>
      </trkpt>
      <trkpt lat="44.61586" lon="6.68577">
        <ele>1657.8</ele>
        <time>2022-06-12T13:22:13Z</time>
      </trkpt>
      <trkpt lat="44.61589" lon="6.68576">
        <ele>1658.1</ele>
        <time>2022-06-12T13:22:14Z</time>
      </trkpt>
      <trkpt lat="44.61593" lon="6.68575">
        <ele>1658.3</ele>
        <time>2022-06-12T13:22:15Z</time>
      </trkpt>
      <trkpt lat="44.61596" lon="6.68573">
        <ele>1658.6</ele>
        <time>2022-06-12T13:22:16Z</time>
      </trkpt>
      <trkpt lat="44.616" lon="6.68571">
        <ele>1658.5</ele>
        <time>2022-06-12T13:22:17Z</time>
      </trkpt>
      <trkpt lat="44.61603" lon="6.68569">
        <ele>1658.3</ele>
        <time>2022-06-12T13:22:18Z</time>
      </trkpt>
      <trkpt lat="44.61606" lon="6.68567">
        <ele>1658.2</ele>
        <time>2022-06-12T13:22:19Z</time>
      </trkpt>
      <trkpt lat="44.61609" lon="6.68564">
        <ele>1657.9</ele>
        <time>2022-06-12T13:22:20Z</time>
      </trkpt>
      <trkpt lat="44.61613" lon="6.68561">
        <ele>1657.5</ele>
        <time>2022-06-12T13:22:21Z</time>
      </trkpt>
      <trkpt lat="44.61616" lon="6.68558">
        <ele>1657</ele>
        <time>2022-06-12T13:22:22Z</time>
      </trkpt>
      <trkpt lat="44.61619" lon="6.68554">
        <ele>1656.3</ele>
        <time>2022-06-12T13:22:23Z</time>
      </trkpt>
      <trkpt lat="44.61621" lon="6.68551">
        <ele>1655.6</ele>
        <time>2022-06-12T13:22:24Z</time>
      </trkpt>
      <trkpt lat="44.61624" lon="6.68548">
        <ele>1654.7</ele>
        <time>2022-06-12T13:22:25Z</time>
      </trkpt>
      <trkpt lat="44.61627" lon="6.68545">
        <ele>1654.1</ele>
        <time>2022-06-12T13:22:26Z</time>
      </trkpt>
      <trkpt lat="44.6163" lon="6.68542">
        <ele>1653.4</ele>
        <time>2022-06-12T13:22:27Z</time>
      </trkpt>
      <trkpt lat="44.61633" lon="6.6854">
        <ele>1652.7</ele>
        <time>2022-06-12T13:22:28Z</time>
      </trkpt>
      <trkpt lat="44.61635" lon="6.68537">
        <ele>1651.9</ele>
        <time>2022-06-12T13:22:29Z</time>
      </trkpt>
      <trkpt lat="44.61637" lon="6.68535">
        <ele>1651.2</ele>
        <time>2022-06-12T13:22:30Z</time>
      </trkpt>
      <trkpt lat="44.61639" lon="6.68533">
        <ele>1650.7</ele>
        <time>2022-06-12T13:22:31Z</time>
      </trkpt>
      <trkpt lat="44.61641" lon="6.68531">
        <ele>1649.9</ele>
        <time>2022-06-12T13:22:32Z</time>
      </trkpt>
      <trkpt lat="44.61643" lon="6.6853">
        <ele>1649.6</ele>
        <time>2022-06-12T13:22:33Z</time>
      </trkpt>
      <trkpt lat="44.61645" lon="6.6853">
        <ele>1649.5</ele>
        <time>2022-06-12T13:22:34Z</time>
      </trkpt>
      <trkpt lat="44.61647" lon="6.68529">
        <ele>1649.5</ele>
        <time>2022-06-12T13:22:35Z</time>
      </trkpt>
      <trkpt lat="44.6165" lon="6.68529">
        <ele>1649.9</ele>
        <time>2022-06-12T13:22:36Z</time>
      </trkpt>
      <trkpt lat="44.61653" lon="6.6853">
        <ele>1650.3</ele>
        <time>2022-06-12T13:22:37Z</time>
      </trkpt>
      <trkpt lat="44.61655" lon="6.6853">
        <ele>1650.8</ele>
        <time>2022-06-12T13:22:38Z</time>
      </trkpt>
      <trkpt lat="44.61657" lon="6.6853">
        <ele>1651.3</ele>
        <time>2022-06-12T13:22:39Z</time>
      </trkpt>
      <trkpt lat="44.61659" lon="6.68531">
        <ele>1651.8</ele>
        <time>2022-06-12T13:23:24Z</time>
      </trkpt>
      <trkpt lat="44.61661" lon="6.68531">
        <ele>1652.2</ele>
        <time>2022-06-12T13:23:25Z</time>
      </trkpt>
      <trkpt lat="44.61664" lon="6.68532">
        <ele>1652.7</ele>
        <time>2022-06-12T13:23:26Z</time>
      </trkpt>
      <trkpt lat="44.61668" lon="6.68532">
        <ele>1653.1</ele>
        <time>2022-06-12T13:23:27Z</time>
      </trkpt>
      <trkpt lat="44.61672" lon="6.68531">
        <ele>1653.6</ele>
        <time>2022-06-12T13:23:28Z</time>
      </trkpt>
      <trkpt lat="44.61676" lon="6.6853">
        <ele>1653.9</ele>
        <time>2022-06-12T13:23:29Z</time>
      </trkpt>
      <trkpt lat="44.6168" lon="6.68528">
        <ele>1654.2</ele>
        <time>2022-06-12T13:23:30Z</time>
      </trkpt>
      <trkpt lat="44.61685" lon="6.68527">
        <ele>1654.3</ele>
        <time>2022-06-12T13:23:31Z</time>
      </trkpt>
      <trkpt lat="44.61689" lon="6.68525">
        <ele>1654.4</ele>
        <time>2022-06-12T13:23:32Z</time>
      </trkpt>
      <trkpt lat="44.61694" lon="6.68522">
        <ele>1654.4</ele>
        <time>2022-06-12T13:23:33Z</time>
      </trkpt>
      <trkpt lat="44.61698" lon="6.6852">
        <ele>1655.1</ele>
        <time>2022-06-12T13:23:34Z</time>
      </trkpt>
      <trkpt lat="44.61702" lon="6.68517">
        <ele>1656</ele>
        <time>2022-06-12T13:23:35Z</time>
      </trkpt>
      <trkpt lat="44.61707" lon="6.68514">
        <ele>1656.5</ele>
        <time>2022-06-12T13:23:36Z</time>
      </trkpt>
      <trkpt lat="44.61711" lon="6.68511">
        <ele>1656.8</ele>
        <time>2022-06-12T13:23:37Z</time>
      </trkpt>
      <trkpt lat="44.61715" lon="6.68508">
        <ele>1657.1</ele>
        <time>2022-06-12T13:23:38Z</time>
      </trkpt>
      <trkpt lat="44.61719" lon="6.68505">
        <ele>1657.6</ele>
        <time>2022-06-12T13:23:39Z</time>
      </trkpt>
      <trkpt lat="44.61723" lon="6.68501">
        <ele>1658.1</ele>
        <time>2022-06-12T13:23:40Z</time>
      </trkpt>
      <trkpt lat="44.61727" lon="6.68498">
        <ele>1658.5</ele>
        <time>2022-06-12T13:23:41Z</time>
      </trkpt>
      <trkpt lat="44.61731" lon="6.68495">
        <ele>1659</ele>
        <time>2022-06-12T13:23:42Z</time>
      </trkpt>
      <trkpt lat="44.61735" lon="6.68491">
        <ele>1659.3</ele>
        <time>2022-06-12T13:23:43Z</time>
      </trkpt>
      <trkpt lat="44.61739" lon="6.68488">
        <ele>1659.6</ele>
        <time>2022-06-12T13:23:44Z</time>
      </trkpt>
      <trkpt lat="44.61743" lon="6.68484">
        <ele>1659.7</ele>
        <time>2022-06-12T13:23:45Z</time>
      </trkpt>
      <trkpt lat="44.61747" lon="6.68481">
        <ele>1659.7</ele>
        <time>2022-06-12T13:23:46Z</time>
      </trkpt>
      <trkpt lat="44.61751" lon="6.68477">
        <ele>1660</ele>
        <time>2022-06-12T13:23:47Z</time>
      </trkpt>
      <trkpt lat="44.61755" lon="6.68474">
        <ele>1659.8</ele>
        <time>2022-06-12T13:23:48Z</time>
      </trkpt>
      <trkpt lat="44.61759" lon="6.6847">
        <ele>1659.6</ele>
        <time>2022-06-12T13:23:49Z</time>
      </trkpt>
      <trkpt lat="44.61762" lon="6.68466">
        <ele>1659.5</ele>
        <time>2022-06-12T13:23:50Z</time>
      </trkpt>
      <trkpt lat="44.61766" lon="6.68462">
        <ele>1659.3</ele>
        <time>2022-06-12T13:23:51Z</time>
      </trkpt>
      <trkpt lat="44.6177" lon="6.68458">
        <ele>1659</ele>
        <time>2022-06-12T13:23:52Z</time>
      </trkpt>
      <trkpt lat="44.61773" lon="6.68454">
        <ele>1658.6</ele>
        <time>2022-06-12T13:23:53Z</time>
      </trkpt>
      <trkpt lat="44.61777" lon="6.6845">
        <ele>1658.3</ele>
        <time>2022-06-12T13:23:54Z</time>
      </trkpt>
      <trkpt lat="44.61781" lon="6.68447">
        <ele>1658</ele>
        <time>2022-06-12T13:23:55Z</time>
      </trkpt>
      <trkpt lat="44.61785" lon="6.68443">
        <ele>1657.6</ele>
        <time>2022-06-12T13:23:56Z</time>
      </trkpt>
      <trkpt lat="44.61788" lon="6.68439">
        <ele>1657</ele>
        <time>2022-06-12T13:23:57Z</time>
      </trkpt>
      <trkpt lat="44.61792" lon="6.68435">
        <ele>1656.5</ele>
        <time>2022-06-12T13:23:58Z</time>
      </trkpt>
      <trkpt lat="44.61796" lon="6.68431">
        <ele>1656</ele>
        <time>2022-06-12T13:23:59Z</time>
      </trkpt>
      <trkpt lat="44.618" lon="6.68427">
        <ele>1655.5</ele>
        <time>2022-06-12T13:24:00Z</time>
      </trkpt>
      <trkpt lat="44.61804" lon="6.68424">
        <ele>1655</ele>
        <time>2022-06-12T13:24:01Z</time>
      </trkpt>
      <trkpt lat="44.61809" lon="6.6842">
        <ele>1654.7</ele>
        <time>2022-06-12T13:24:02Z</time>
      </trkpt>
      <trkpt lat="44.61813" lon="6.68417">
        <ele>1654.6</ele>
        <time>2022-06-12T13:24:03Z</time>
      </trkpt>
      <trkpt lat="44.61818" lon="6.68414">
        <ele>1654.8</ele>
        <time>2022-06-12T13:24:04Z</time>
      </trkpt>
      <trkpt lat="44.61823" lon="6.68411">
        <ele>1654.9</ele>
        <time>2022-06-12T13:24:05Z</time>
      </trkpt>
      <trkpt lat="44.61829" lon="6.68409">
        <ele>1655.2</ele>
        <time>2022-06-12T13:24:06Z</time>
      </trkpt>
      <trkpt lat="44.61834" lon="6.68406">
        <ele>1655.6</ele>
        <time>2022-06-12T13:24:07Z</time>
      </trkpt>
      <trkpt lat="44.6184" lon="6.68404">
        <ele>1655.4</ele>
        <time>2022-06-12T13:24:08Z</time>
      </trkpt>
      <trkpt lat="44.61845" lon="6.68401">
        <ele>1654.9</ele>
        <time>2022-06-12T13:24:09Z</time>
      </trkpt>
      <trkpt lat="44.61851" lon="6.68398">
        <ele>1654.6</ele>
        <time>2022-06-12T13:24:10Z</time>
      </trkpt>
      <trkpt lat="44.61857" lon="6.68397">
        <ele>1654.8</ele>
        <time>2022-06-12T13:24:11Z</time>
      </trkpt>
      <trkpt lat="44.61863" lon="6.68395">
        <ele>1655</ele>
        <time>2022-06-12T13:24:12Z</time>
      </trkpt>
      <trkpt lat="44.61869" lon="6.68394">
        <ele>1654.6</ele>
        <time>2022-06-12T13:24:13Z</time>
      </trkpt>
      <trkpt lat="44.61875" lon="6.68394">
        <ele>1654.5</ele>
        <time>2022-06-12T13:24:14Z</time>
      </trkpt>
      <trkpt lat="44.61881" lon="6.68394">
        <ele>1654.9</ele>
        <time>2022-06-12T13:24:15Z</time>
      </trkpt>
      <trkpt lat="44.61888" lon="6.68395">
        <ele>1655.6</ele>
        <time>2022-06-12T13:24:16Z</time>
      </trkpt>
      <trkpt lat="44.61894" lon="6.68395">
        <ele>1655.7</ele>
        <time>2022-06-12T13:24:17Z</time>
      </trkpt>
      <trkpt lat="44.619" lon="6.68395">
        <ele>1655.6</ele>
        <time>2022-06-12T13:24:18Z</time>
      </trkpt>
      <trkpt lat="44.61907" lon="6.68394">
        <ele>1654.9</ele>
        <time>2022-06-12T13:24:19Z</time>
      </trkpt>
      <trkpt lat="44.61914" lon="6.68393">
        <ele>1654</ele>
        <time>2022-06-12T13:24:20Z</time>
      </trkpt>
      <trkpt lat="44.6192" lon="6.6839">
        <ele>1653</ele>
        <time>2022-06-12T13:24:21Z</time>
      </trkpt>
      <trkpt lat="44.61926" lon="6.68387">
        <ele>1652</ele>
        <time>2022-06-12T13:24:22Z</time>
      </trkpt>
      <trkpt lat="44.61932" lon="6.68383">
        <ele>1651</ele>
        <time>2022-06-12T13:24:23Z</time>
      </trkpt>
      <trkpt lat="44.61938" lon="6.68378">
        <ele>1650.1</ele>
        <time>2022-06-12T13:24:24Z</time>
      </trkpt>
      <trkpt lat="44.61944" lon="6.68373">
        <ele>1649.4</ele>
        <time>2022-06-12T13:24:25Z</time>
      </trkpt>
      <trkpt lat="44.6195" lon="6.68369">
        <ele>1648.5</ele>
        <time>2022-06-12T13:24:26Z</time>
      </trkpt>
      <trkpt lat="44.61957" lon="6.68366">
        <ele>1648.1</ele>
        <time>2022-06-12T13:24:27Z</time>
      </trkpt>
      <trkpt lat="44.61965" lon="6.68365">
        <ele>1648.3</ele>
        <time>2022-06-12T13:24:28Z</time>
      </trkpt>
      <trkpt lat="44.61973" lon="6.68365">
        <ele>1648.9</ele>
        <time>2022-06-12T13:24:29Z</time>
      </trkpt>
      <trkpt lat="44.61981" lon="6.68367">
        <ele>1648.6</ele>
        <time>2022-06-12T13:24:30Z</time>
      </trkpt>
      <trkpt lat="44.61989" lon="6.68371">
        <ele>1648.7</ele>
        <time>2022-06-12T13:24:31Z</time>
      </trkpt>
      <trkpt lat="44.61997" lon="6.68375">
        <ele>1648.9</ele>
        <time>2022-06-12T13:24:32Z</time>
      </trkpt>
      <trkpt lat="44.62006" lon="6.6838">
        <ele>1648.7</ele>
        <time>2022-06-12T13:24:33Z</time>
      </trkpt>
      <trkpt lat="44.62014" lon="6.68384">
        <ele>1648.3</ele>
        <time>2022-06-12T13:24:34Z</time>
      </trkpt>
      <trkpt lat="44.62023" lon="6.68389">
        <ele>1647.9</ele>
        <time>2022-06-12T13:24:35Z</time>
      </trkpt>
      <trkpt lat="44.62033" lon="6.68394">
        <ele>1647</ele>
        <time>2022-06-12T13:24:36Z</time>
      </trkpt>
      <trkpt lat="44.62042" lon="6.68398">
        <ele>1646</ele>
        <time>2022-06-12T13:24:37Z</time>
      </trkpt>
      <trkpt lat="44.62052" lon="6.68403">
        <ele>1644.9</ele>
        <time>2022-06-12T13:24:38Z</time>
      </trkpt>
      <trkpt lat="44.62062" lon="6.68407">
        <ele>1643.9</ele>
        <time>2022-06-12T13:24:39Z</time>
      </trkpt>
      <trkpt lat="44.62072" lon="6.6841">
        <ele>1643.1</ele>
        <time>2022-06-12T13:24:40Z</time>
      </trkpt>
      <trkpt lat="44.62083" lon="6.68412">
        <ele>1641.9</ele>
        <time>2022-06-12T13:24:41Z</time>
      </trkpt>
      <trkpt lat="44.62093" lon="6.68411">
        <ele>1643</ele>
        <time>2022-06-12T13:24:42Z</time>
      </trkpt>
      <trkpt lat="44.62103" lon="6.68406">
        <ele>1643.2</ele>
        <time>2022-06-12T13:24:43Z</time>
      </trkpt>
      <trkpt lat="44.62113" lon="6.68399">
        <ele>1642.2</ele>
        <time>2022-06-12T13:24:44Z</time>
      </trkpt>
      <trkpt lat="44.62121" lon="6.6839">
        <ele>1641.6</ele>
        <time>2022-06-12T13:24:45Z</time>
      </trkpt>
      <trkpt lat="44.62129" lon="6.68378">
        <ele>1640.6</ele>
        <time>2022-06-12T13:24:46Z</time>
      </trkpt>
      <trkpt lat="44.62135" lon="6.68365">
        <ele>1638.8</ele>
        <time>2022-06-12T13:24:47Z</time>
      </trkpt>
      <trkpt lat="44.62141" lon="6.68351">
        <ele>1637</ele>
        <time>2022-06-12T13:24:48Z</time>
      </trkpt>
      <trkpt lat="44.62149" lon="6.68337">
        <ele>1635.6</ele>
        <time>2022-06-12T13:24:49Z</time>
      </trkpt>
      <trkpt lat="44.62157" lon="6.68324">
        <ele>1633.9</ele>
        <time>2022-06-12T13:24:50Z</time>
      </trkpt>
      <trkpt lat="44.62167" lon="6.68313">
        <ele>1632.7</ele>
        <time>2022-06-12T13:24:51Z</time>
      </trkpt>
      <trkpt lat="44.62178" lon="6.68305">
        <ele>1630.9</ele>
        <time>2022-06-12T13:24:52Z</time>
      </trkpt>
      <trkpt lat="44.62189" lon="6.68299">
        <ele>1630.1</ele>
        <time>2022-06-12T13:24:53Z</time>
      </trkpt>
      <trkpt lat="44.62202" lon="6.68298">
        <ele>1629.9</ele>
        <time>2022-06-12T13:24:54Z</time>
      </trkpt>
      <trkpt lat="44.62214" lon="6.68301">
        <ele>1630</ele>
        <time>2022-06-12T13:24:55Z</time>
      </trkpt>
      <trkpt lat="44.62226" lon="6.68305">
        <ele>1630.3</ele>
        <time>2022-06-12T13:24:56Z</time>
      </trkpt>
      <trkpt lat="44.62239" lon="6.68307">
        <ele>1630.3</ele>
        <time>2022-06-12T13:24:57Z</time>
      </trkpt>
      <trkpt lat="44.62251" lon="6.68309">
        <ele>1629.9</ele>
        <time>2022-06-12T13:24:58Z</time>
      </trkpt>
      <trkpt lat="44.62264" lon="6.68311">
        <ele>1629.3</ele>
        <time>2022-06-12T13:24:59Z</time>
      </trkpt>
      <trkpt lat="44.62276" lon="6.68312">
        <ele>1628.7</ele>
        <time>2022-06-12T13:25:00Z</time>
      </trkpt>
      <trkpt lat="44.62288" lon="6.68313">
        <ele>1627.9</ele>
        <time>2022-06-12T13:25:01Z</time>
      </trkpt>
      <trkpt lat="44.62299" lon="6.68314">
        <ele>1627</ele>
        <time>2022-06-12T13:25:02Z</time>
      </trkpt>
      <trkpt lat="44.6231" lon="6.68315">
        <ele>1626.3</ele>
        <time>2022-06-12T13:25:03Z</time>
      </trkpt>
      <trkpt lat="44.62321" lon="6.68316">
        <ele>1625.7</ele>
        <time>2022-06-12T13:25:04Z</time>
      </trkpt>
      <trkpt lat="44.62331" lon="6.68318">
        <ele>1625.1</ele>
        <time>2022-06-12T13:25:05Z</time>
      </trkpt>
      <trkpt lat="44.62341" lon="6.68319">
        <ele>1625.3</ele>
        <time>2022-06-12T13:25:06Z</time>
      </trkpt>
      <trkpt lat="44.62351" lon="6.6832">
        <ele>1625.9</ele>
        <time>2022-06-12T13:25:07Z</time>
      </trkpt>
      <trkpt lat="44.62361" lon="6.68321">
        <ele>1626.4</ele>
        <time>2022-06-12T13:25:08Z</time>
      </trkpt>
      <trkpt lat="44.62371" lon="6.68322">
        <ele>1626.8</ele>
        <time>2022-06-12T13:25:09Z</time>
      </trkpt>
      <trkpt lat="44.6238" lon="6.68324">
        <ele>1627.3</ele>
        <time>2022-06-12T13:25:10Z</time>
      </trkpt>
      <trkpt lat="44.6239" lon="6.68326">
        <ele>1627.8</ele>
        <time>2022-06-12T13:25:11Z</time>
      </trkpt>
      <trkpt lat="44.62398" lon="6.6833">
        <ele>1626.6</ele>
        <time>2022-06-12T13:25:12Z</time>
      </trkpt>
      <trkpt lat="44.62407" lon="6.68334">
        <ele>1625.8</ele>
        <time>2022-06-12T13:25:13Z</time>
      </trkpt>
      <trkpt lat="44.62415" lon="6.68339">
        <ele>1625.2</ele>
        <time>2022-06-12T13:25:14Z</time>
      </trkpt>
      <trkpt lat="44.62428" lon="6.68342">
        <ele>1622.3</ele>
        <time>2022-06-12T13:25:15Z</time>
      </trkpt>
      <trkpt lat="44.62433" lon="6.68342">
        <ele>1620.9</ele>
        <time>2022-06-12T13:25:16Z</time>
      </trkpt>
      <trkpt lat="44.62446" lon="6.68341">
        <ele>1617</ele>
        <time>2022-06-12T13:25:17Z</time>
      </trkpt>
      <trkpt lat="44.6245" lon="6.6834">
        <ele>1617.2</ele>
        <time>2022-06-12T13:25:18Z</time>
      </trkpt>
      <trkpt lat="44.62458" lon="6.68337">
        <ele>1617.8</ele>
        <time>2022-06-12T13:25:19Z</time>
      </trkpt>
      <trkpt lat="44.62469" lon="6.68329">
        <ele>1618.2</ele>
        <time>2022-06-12T13:25:20Z</time>
      </trkpt>
      <trkpt lat="44.62472" lon="6.68327">
        <ele>1618.3</ele>
        <time>2022-06-12T13:25:21Z</time>
      </trkpt>
      <trkpt lat="44.62479" lon="6.68321">
        <ele>1620.4</ele>
        <time>2022-06-12T13:25:22Z</time>
      </trkpt>
      <trkpt lat="44.62484" lon="6.68315">
        <ele>1622.2</ele>
        <time>2022-06-12T13:25:23Z</time>
      </trkpt>
      <trkpt lat="44.6249" lon="6.68309">
        <ele>1623.7</ele>
        <time>2022-06-12T13:25:24Z</time>
      </trkpt>
      <trkpt lat="44.62495" lon="6.68301">
        <ele>1624.9</ele>
        <time>2022-06-12T13:25:25Z</time>
      </trkpt>
      <trkpt lat="44.62502" lon="6.6829">
        <ele>1625.8</ele>
        <time>2022-06-12T13:25:26Z</time>
      </trkpt>
      <trkpt lat="44.62504" lon="6.68286">
        <ele>1626</ele>
        <time>2022-06-12T13:25:27Z</time>
      </trkpt>
      <trkpt lat="44.62508" lon="6.68278">
        <ele>1626.2</ele>
        <time>2022-06-12T13:25:28Z</time>
      </trkpt>
      <trkpt lat="44.62511" lon="6.68271">
        <ele>1626.7</ele>
        <time>2022-06-12T13:25:29Z</time>
      </trkpt>
      <trkpt lat="44.62517" lon="6.68261">
        <ele>1627.5</ele>
        <time>2022-06-12T13:25:30Z</time>
      </trkpt>
      <trkpt lat="44.62519" lon="6.68257">
        <ele>1627.9</ele>
        <time>2022-06-12T13:25:31Z</time>
      </trkpt>
      <trkpt lat="44.62523" lon="6.6825">
        <ele>1628.5</ele>
        <time>2022-06-12T13:25:32Z</time>
      </trkpt>
      <trkpt lat="44.62527" lon="6.68243">
        <ele>1629.1</ele>
        <time>2022-06-12T13:25:33Z</time>
      </trkpt>
      <trkpt lat="44.62531" lon="6.68235">
        <ele>1629.4</ele>
        <time>2022-06-12T13:25:34Z</time>
      </trkpt>
      <trkpt lat="44.62535" lon="6.68228">
        <ele>1629.6</ele>
        <time>2022-06-12T13:25:35Z</time>
      </trkpt>
      <trkpt lat="44.62541" lon="6.68216">
        <ele>1629.1</ele>
        <time>2022-06-12T13:25:36Z</time>
      </trkpt>
      <trkpt lat="44.62543" lon="6.68212">
        <ele>1628.8</ele>
        <time>2022-06-12T13:25:37Z</time>
      </trkpt>
      <trkpt lat="44.62547" lon="6.68205">
        <ele>1628.3</ele>
        <time>2022-06-12T13:25:38Z</time>
      </trkpt>
      <trkpt lat="44.62551" lon="6.68198">
        <ele>1628</ele>
        <time>2022-06-12T13:25:39Z</time>
      </trkpt>
      <trkpt lat="44.62558" lon="6.68187">
        <ele>1628</ele>
        <time>2022-06-12T13:25:40Z</time>
      </trkpt>
      <trkpt lat="44.6256" lon="6.68184">
        <ele>1628</ele>
        <time>2022-06-12T13:25:41Z</time>
      </trkpt>
      <trkpt lat="44.62564" lon="6.68177">
        <ele>1628.4</ele>
        <time>2022-06-12T13:25:42Z</time>
      </trkpt>
      <trkpt lat="44.62568" lon="6.68169">
        <ele>1628.6</ele>
        <time>2022-06-12T13:25:43Z</time>
      </trkpt>
      <trkpt lat="44.6257" lon="6.6816">
        <ele>1629.3</ele>
        <time>2022-06-12T13:25:44Z</time>
      </trkpt>
      <trkpt lat="44.62571" lon="6.68152">
        <ele>1629.5</ele>
        <time>2022-06-12T13:25:45Z</time>
      </trkpt>
      <trkpt lat="44.62571" lon="6.68142">
        <ele>1629.1</ele>
        <time>2022-06-12T13:25:46Z</time>
      </trkpt>
      <trkpt lat="44.62571" lon="6.68133">
        <ele>1628.9</ele>
        <time>2022-06-12T13:25:47Z</time>
      </trkpt>
      <trkpt lat="44.6257" lon="6.68124">
        <ele>1628.6</ele>
        <time>2022-06-12T13:25:48Z</time>
      </trkpt>
      <trkpt lat="44.62568" lon="6.68115">
        <ele>1627.9</ele>
        <time>2022-06-12T13:25:49Z</time>
      </trkpt>
      <trkpt lat="44.62566" lon="6.68106">
        <ele>1627.1</ele>
        <time>2022-06-12T13:25:50Z</time>
      </trkpt>
      <trkpt lat="44.62565" lon="6.68096">
        <ele>1626.5</ele>
        <time>2022-06-12T13:25:51Z</time>
      </trkpt>
      <trkpt lat="44.62565" lon="6.68085">
        <ele>1626.5</ele>
        <time>2022-06-12T13:25:52Z</time>
      </trkpt>
      <trkpt lat="44.62567" lon="6.68075">
        <ele>1625.2</ele>
        <time>2022-06-12T13:25:53Z</time>
      </trkpt>
      <trkpt lat="44.62572" lon="6.68062">
        <ele>1624.7</ele>
        <time>2022-06-12T13:25:54Z</time>
      </trkpt>
      <trkpt lat="44.62575" lon="6.68058">
        <ele>1624.8</ele>
        <time>2022-06-12T13:25:55Z</time>
      </trkpt>
      <trkpt lat="44.62583" lon="6.68047">
        <ele>1624.8</ele>
        <time>2022-06-12T13:25:56Z</time>
      </trkpt>
      <trkpt lat="44.62586" lon="6.68044">
        <ele>1624.6</ele>
        <time>2022-06-12T13:25:57Z</time>
      </trkpt>
      <trkpt lat="44.62593" lon="6.68039">
        <ele>1624.2</ele>
        <time>2022-06-12T13:25:58Z</time>
      </trkpt>
      <trkpt lat="44.626" lon="6.68033">
        <ele>1623.7</ele>
        <time>2022-06-12T13:25:59Z</time>
      </trkpt>
      <trkpt lat="44.62607" lon="6.68029">
        <ele>1623.3</ele>
        <time>2022-06-12T13:26:00Z</time>
      </trkpt>
      <trkpt lat="44.62614" lon="6.68024">
        <ele>1623.4</ele>
        <time>2022-06-12T13:26:01Z</time>
      </trkpt>
      <trkpt lat="44.62621" lon="6.6802">
        <ele>1623.4</ele>
        <time>2022-06-12T13:26:02Z</time>
      </trkpt>
      <trkpt lat="44.62628" lon="6.68016">
        <ele>1623.3</ele>
        <time>2022-06-12T13:26:03Z</time>
      </trkpt>
      <trkpt lat="44.62635" lon="6.68012">
        <ele>1623.2</ele>
        <time>2022-06-12T13:26:04Z</time>
      </trkpt>
      <trkpt lat="44.62646" lon="6.68007">
        <ele>1622.5</ele>
        <time>2022-06-12T13:26:05Z</time>
      </trkpt>
      <trkpt lat="44.6265" lon="6.68006">
        <ele>1622.3</ele>
        <time>2022-06-12T13:26:06Z</time>
      </trkpt>
      <trkpt lat="44.62658" lon="6.68005">
        <ele>1621.9</ele>
        <time>2022-06-12T13:26:07Z</time>
      </trkpt>
      <trkpt lat="44.62665" lon="6.68005">
        <ele>1622.3</ele>
        <time>2022-06-12T13:26:08Z</time>
      </trkpt>
      <trkpt lat="44.62672" lon="6.68006">
        <ele>1621.9</ele>
        <time>2022-06-12T13:26:09Z</time>
      </trkpt>
      <trkpt lat="44.6268" lon="6.68007">
        <ele>1621.4</ele>
        <time>2022-06-12T13:26:10Z</time>
      </trkpt>
      <trkpt lat="44.62687" lon="6.68008">
        <ele>1620.9</ele>
        <time>2022-06-12T13:26:11Z</time>
      </trkpt>
      <trkpt lat="44.62694" lon="6.6801">
        <ele>1620.5</ele>
        <time>2022-06-12T13:26:12Z</time>
      </trkpt>
      <trkpt lat="44.62701" lon="6.68011">
        <ele>1618.8</ele>
        <time>2022-06-12T13:26:13Z</time>
      </trkpt>
      <trkpt lat="44.62708" lon="6.68013">
        <ele>1617.3</ele>
        <time>2022-06-12T13:26:14Z</time>
      </trkpt>
      <trkpt lat="44.62716" lon="6.68016">
        <ele>1615.8</ele>
        <time>2022-06-12T13:26:15Z</time>
      </trkpt>
      <trkpt lat="44.62722" lon="6.6802">
        <ele>1615.1</ele>
        <time>2022-06-12T13:26:16Z</time>
      </trkpt>
      <trkpt lat="44.62728" lon="6.68027">
        <ele>1614.2</ele>
        <time>2022-06-12T13:26:17Z</time>
      </trkpt>
      <trkpt lat="44.62734" lon="6.68035">
        <ele>1613.9</ele>
        <time>2022-06-12T13:26:18Z</time>
      </trkpt>
      <trkpt lat="44.62739" lon="6.68045">
        <ele>1614.3</ele>
        <time>2022-06-12T13:26:19Z</time>
      </trkpt>
      <trkpt lat="44.62743" lon="6.68055">
        <ele>1614.9</ele>
        <time>2022-06-12T13:26:20Z</time>
      </trkpt>
      <trkpt lat="44.62749" lon="6.68066">
        <ele>1615.2</ele>
        <time>2022-06-12T13:26:21Z</time>
      </trkpt>
      <trkpt lat="44.62754" lon="6.68077">
        <ele>1615</ele>
        <time>2022-06-12T13:26:22Z</time>
      </trkpt>
      <trkpt lat="44.62761" lon="6.68087">
        <ele>1614.4</ele>
        <time>2022-06-12T13:26:23Z</time>
      </trkpt>
      <trkpt lat="44.62768" lon="6.68097">
        <ele>1613.2</ele>
        <time>2022-06-12T13:26:24Z</time>
      </trkpt>
      <trkpt lat="44.62776" lon="6.68105">
        <ele>1610.8</ele>
        <time>2022-06-12T13:26:25Z</time>
      </trkpt>
      <trkpt lat="44.62785" lon="6.6811">
        <ele>1609.7</ele>
        <time>2022-06-12T13:26:26Z</time>
      </trkpt>
      <trkpt lat="44.62795" lon="6.6811">
        <ele>1607</ele>
        <time>2022-06-12T13:26:27Z</time>
      </trkpt>
      <trkpt lat="44.62805" lon="6.68105">
        <ele>1602.6</ele>
        <time>2022-06-12T13:26:28Z</time>
      </trkpt>
      <trkpt lat="44.62815" lon="6.68098">
        <ele>1602.1</ele>
        <time>2022-06-12T13:26:29Z</time>
      </trkpt>
      <trkpt lat="44.62824" lon="6.68091">
        <ele>1601.1</ele>
        <time>2022-06-12T13:26:30Z</time>
      </trkpt>
      <trkpt lat="44.62834" lon="6.68082">
        <ele>1599.5</ele>
        <time>2022-06-12T13:26:31Z</time>
      </trkpt>
      <trkpt lat="44.62843" lon="6.68072">
        <ele>1600.5</ele>
        <time>2022-06-12T13:26:32Z</time>
      </trkpt>
      <trkpt lat="44.62853" lon="6.68061">
        <ele>1600.5</ele>
        <time>2022-06-12T13:26:33Z</time>
      </trkpt>
      <trkpt lat="44.62861" lon="6.68049">
        <ele>1599.5</ele>
        <time>2022-06-12T13:26:34Z</time>
      </trkpt>
      <trkpt lat="44.6287" lon="6.68037">
        <ele>1599.8</ele>
        <time>2022-06-12T13:26:35Z</time>
      </trkpt>
      <trkpt lat="44.62878" lon="6.68023">
        <ele>1599.4</ele>
        <time>2022-06-12T13:26:36Z</time>
      </trkpt>
      <trkpt lat="44.62887" lon="6.68009">
        <ele>1598.7</ele>
        <time>2022-06-12T13:26:37Z</time>
      </trkpt>
      <trkpt lat="44.62895" lon="6.67995">
        <ele>1598.3</ele>
        <time>2022-06-12T13:26:38Z</time>
      </trkpt>
      <trkpt lat="44.62904" lon="6.67981">
        <ele>1598.5</ele>
        <time>2022-06-12T13:26:39Z</time>
      </trkpt>
      <trkpt lat="44.62912" lon="6.67967">
        <ele>1598.3</ele>
        <time>2022-06-12T13:26:40Z</time>
      </trkpt>
      <trkpt lat="44.62919" lon="6.67953">
        <ele>1597.5</ele>
        <time>2022-06-12T13:26:41Z</time>
      </trkpt>
      <trkpt lat="44.62925" lon="6.67939">
        <ele>1595</ele>
        <time>2022-06-12T13:26:42Z</time>
      </trkpt>
      <trkpt lat="44.62928" lon="6.67925">
        <ele>1591.5</ele>
        <time>2022-06-12T13:26:43Z</time>
      </trkpt>
      <trkpt lat="44.62932" lon="6.67911">
        <ele>1588.4</ele>
        <time>2022-06-12T13:26:44Z</time>
      </trkpt>
      <trkpt lat="44.62938" lon="6.67898">
        <ele>1586.4</ele>
        <time>2022-06-12T13:26:45Z</time>
      </trkpt>
      <trkpt lat="44.62946" lon="6.67888">
        <ele>1585.9</ele>
        <time>2022-06-12T13:26:46Z</time>
      </trkpt>
      <trkpt lat="44.62954" lon="6.67877">
        <ele>1585.4</ele>
        <time>2022-06-12T13:26:47Z</time>
      </trkpt>
      <trkpt lat="44.62964" lon="6.67868">
        <ele>1585.3</ele>
        <time>2022-06-12T13:26:48Z</time>
      </trkpt>
      <trkpt lat="44.62973" lon="6.67858">
        <ele>1584.8</ele>
        <time>2022-06-12T13:26:49Z</time>
      </trkpt>
      <trkpt lat="44.62983" lon="6.67848">
        <ele>1583.7</ele>
        <time>2022-06-12T13:26:50Z</time>
      </trkpt>
      <trkpt lat="44.62993" lon="6.67837">
        <ele>1582.9</ele>
        <time>2022-06-12T13:26:51Z</time>
      </trkpt>
      <trkpt lat="44.63002" lon="6.67827">
        <ele>1582.2</ele>
        <time>2022-06-12T13:26:52Z</time>
      </trkpt>
      <trkpt lat="44.63012" lon="6.67817">
        <ele>1581.1</ele>
        <time>2022-06-12T13:26:53Z</time>
      </trkpt>
      <trkpt lat="44.63022" lon="6.67808">
        <ele>1580.1</ele>
        <time>2022-06-12T13:26:54Z</time>
      </trkpt>
      <trkpt lat="44.63032" lon="6.67797">
        <ele>1578.5</ele>
        <time>2022-06-12T13:26:55Z</time>
      </trkpt>
      <trkpt lat="44.63042" lon="6.67786">
        <ele>1576.1</ele>
        <time>2022-06-12T13:26:56Z</time>
      </trkpt>
      <trkpt lat="44.63052" lon="6.67776">
        <ele>1574.5</ele>
        <time>2022-06-12T13:26:57Z</time>
      </trkpt>
      <trkpt lat="44.63063" lon="6.67764">
        <ele>1572.6</ele>
        <time>2022-06-12T13:26:58Z</time>
      </trkpt>
      <trkpt lat="44.63073" lon="6.67753">
        <ele>1571</ele>
        <time>2022-06-12T13:26:59Z</time>
      </trkpt>
      <trkpt lat="44.63085" lon="6.67745">
        <ele>1570.9</ele>
        <time>2022-06-12T13:27:00Z</time>
      </trkpt>
      <trkpt lat="44.63098" lon="6.67742">
        <ele>1570.7</ele>
        <time>2022-06-12T13:27:01Z</time>
      </trkpt>
      <trkpt lat="44.63111" lon="6.67741">
        <ele>1571.1</ele>
        <time>2022-06-12T13:27:02Z</time>
      </trkpt>
      <trkpt lat="44.63124" lon="6.67738">
        <ele>1571.3</ele>
        <time>2022-06-12T13:27:03Z</time>
      </trkpt>
      <trkpt lat="44.63135" lon="6.67731">
        <ele>1570.6</ele>
        <time>2022-06-12T13:27:04Z</time>
      </trkpt>
      <trkpt lat="44.63145" lon="6.67719">
        <ele>1569.3</ele>
        <time>2022-06-12T13:27:05Z</time>
      </trkpt>
      <trkpt lat="44.63154" lon="6.67705">
        <ele>1567.3</ele>
        <time>2022-06-12T13:27:06Z</time>
      </trkpt>
      <trkpt lat="44.63163" lon="6.67691">
        <ele>1565.2</ele>
        <time>2022-06-12T13:27:07Z</time>
      </trkpt>
      <trkpt lat="44.63174" lon="6.6768">
        <ele>1563.1</ele>
        <time>2022-06-12T13:27:08Z</time>
      </trkpt>
      <trkpt lat="44.63186" lon="6.6767">
        <ele>1561.2</ele>
        <time>2022-06-12T13:27:09Z</time>
      </trkpt>
      <trkpt lat="44.63199" lon="6.67664">
        <ele>1560</ele>
        <time>2022-06-12T13:27:10Z</time>
      </trkpt>
      <trkpt lat="44.63213" lon="6.67661">
        <ele>1558.9</ele>
        <time>2022-06-12T13:27:11Z</time>
      </trkpt>
      <trkpt lat="44.63227" lon="6.67661">
        <ele>1558.4</ele>
        <time>2022-06-12T13:27:12Z</time>
      </trkpt>
      <trkpt lat="44.63242" lon="6.67663">
        <ele>1557.7</ele>
        <time>2022-06-12T13:27:13Z</time>
      </trkpt>
      <trkpt lat="44.63256" lon="6.67668">
        <ele>1557.9</ele>
        <time>2022-06-12T13:27:14Z</time>
      </trkpt>
      <trkpt lat="44.63269" lon="6.67674">
        <ele>1558</ele>
        <time>2022-06-12T13:27:15Z</time>
      </trkpt>
      <trkpt lat="44.63283" lon="6.67678">
        <ele>1557.6</ele>
        <time>2022-06-12T13:27:16Z</time>
      </trkpt>
      <trkpt lat="44.63297" lon="6.67679">
        <ele>1556.6</ele>
        <time>2022-06-12T13:27:17Z</time>
      </trkpt>
      <trkpt lat="44.63311" lon="6.67676">
        <ele>1555.2</ele>
        <time>2022-06-12T13:27:18Z</time>
      </trkpt>
      <trkpt lat="44.63325" lon="6.67671">
        <ele>1553.9</ele>
        <time>2022-06-12T13:27:19Z</time>
      </trkpt>
      <trkpt lat="44.63339" lon="6.67663">
        <ele>1552.1</ele>
        <time>2022-06-12T13:27:20Z</time>
      </trkpt>
      <trkpt lat="44.63351" lon="6.67652">
        <ele>1549.6</ele>
        <time>2022-06-12T13:27:21Z</time>
      </trkpt>
      <trkpt lat="44.63362" lon="6.67638">
        <ele>1546.9</ele>
        <time>2022-06-12T13:27:22Z</time>
      </trkpt>
      <trkpt lat="44.63373" lon="6.67624">
        <ele>1543.9</ele>
        <time>2022-06-12T13:27:23Z</time>
      </trkpt>
      <trkpt lat="44.63384" lon="6.67608">
        <ele>1541.6</ele>
        <time>2022-06-12T13:27:24Z</time>
      </trkpt>
      <trkpt lat="44.63395" lon="6.67593">
        <ele>1539.6</ele>
        <time>2022-06-12T13:27:25Z</time>
      </trkpt>
      <trkpt lat="44.63406" lon="6.67577">
        <ele>1537.9</ele>
        <time>2022-06-12T13:27:26Z</time>
      </trkpt>
      <trkpt lat="44.63417" lon="6.67562">
        <ele>1536.3</ele>
        <time>2022-06-12T13:27:27Z</time>
      </trkpt>
      <trkpt lat="44.63428" lon="6.67546">
        <ele>1534.5</ele>
        <time>2022-06-12T13:27:28Z</time>
      </trkpt>
      <trkpt lat="44.63439" lon="6.67531">
        <ele>1534.9</ele>
        <time>2022-06-12T13:27:29Z</time>
      </trkpt>
      <trkpt lat="44.63449" lon="6.67516">
        <ele>1534.6</ele>
        <time>2022-06-12T13:27:30Z</time>
      </trkpt>
      <trkpt lat="44.63457" lon="6.67499">
        <ele>1533.4</ele>
        <time>2022-06-12T13:27:31Z</time>
      </trkpt>
      <trkpt lat="44.63464" lon="6.67482">
        <ele>1532.4</ele>
        <time>2022-06-12T13:27:32Z</time>
      </trkpt>
      <trkpt lat="44.63469" lon="6.67464">
        <ele>1531.8</ele>
        <time>2022-06-12T13:27:33Z</time>
      </trkpt>
      <trkpt lat="44.63472" lon="6.67445">
        <ele>1531</ele>
        <time>2022-06-12T13:27:34Z</time>
      </trkpt>
      <trkpt lat="44.63473" lon="6.67425">
        <ele>1530.2</ele>
        <time>2022-06-12T13:27:35Z</time>
      </trkpt>
      <trkpt lat="44.63472" lon="6.67405">
        <ele>1529.6</ele>
        <time>2022-06-12T13:27:36Z</time>
      </trkpt>
      <trkpt lat="44.63471" lon="6.67384">
        <ele>1528.2</ele>
        <time>2022-06-12T13:27:37Z</time>
      </trkpt>
      <trkpt lat="44.63468" lon="6.67364">
        <ele>1526.7</ele>
        <time>2022-06-12T13:27:38Z</time>
      </trkpt>
      <trkpt lat="44.63465" lon="6.67344">
        <ele>1525</ele>
        <time>2022-06-12T13:27:39Z</time>
      </trkpt>
      <trkpt lat="44.63461" lon="6.67324">
        <ele>1524.1</ele>
        <time>2022-06-12T13:27:40Z</time>
      </trkpt>
      <trkpt lat="44.63455" lon="6.67305">
        <ele>1523.7</ele>
        <time>2022-06-12T13:27:41Z</time>
      </trkpt>
      <trkpt lat="44.63447" lon="6.67288">
        <ele>1523.9</ele>
        <time>2022-06-12T13:27:42Z</time>
      </trkpt>
      <trkpt lat="44.63436" lon="6.67273">
        <ele>1522.3</ele>
        <time>2022-06-12T13:27:43Z</time>
      </trkpt>
      <trkpt lat="44.63426" lon="6.67259">
        <ele>1520.9</ele>
        <time>2022-06-12T13:27:44Z</time>
      </trkpt>
      <trkpt lat="44.63415" lon="6.67246">
        <ele>1520.7</ele>
        <time>2022-06-12T13:27:45Z</time>
      </trkpt>
      <trkpt lat="44.63405" lon="6.67233">
        <ele>1520.6</ele>
        <time>2022-06-12T13:27:46Z</time>
      </trkpt>
      <trkpt lat="44.63395" lon="6.6722">
        <ele>1521.1</ele>
        <time>2022-06-12T13:27:47Z</time>
      </trkpt>
      <trkpt lat="44.63384" lon="6.67209">
        <ele>1521.3</ele>
        <time>2022-06-12T13:27:48Z</time>
      </trkpt>
      <trkpt lat="44.63372" lon="6.67202">
        <ele>1520.2</ele>
        <time>2022-06-12T13:27:49Z</time>
      </trkpt>
      <trkpt lat="44.63359" lon="6.67198">
        <ele>1518</ele>
        <time>2022-06-12T13:27:50Z</time>
      </trkpt>
      <trkpt lat="44.63347" lon="6.67195">
        <ele>1515.3</ele>
        <time>2022-06-12T13:27:51Z</time>
      </trkpt>
      <trkpt lat="44.63335" lon="6.67191">
        <ele>1512.6</ele>
        <time>2022-06-12T13:27:52Z</time>
      </trkpt>
      <trkpt lat="44.63325" lon="6.67185">
        <ele>1510.9</ele>
        <time>2022-06-12T13:27:53Z</time>
      </trkpt>
      <trkpt lat="44.63317" lon="6.67176">
        <ele>1510.6</ele>
        <time>2022-06-12T13:27:54Z</time>
      </trkpt>
      <trkpt lat="44.63312" lon="6.67164">
        <ele>1511.7</ele>
        <time>2022-06-12T13:27:55Z</time>
      </trkpt>
      <trkpt lat="44.6331" lon="6.6715">
        <ele>1511.2</ele>
        <time>2022-06-12T13:27:56Z</time>
      </trkpt>
      <trkpt lat="44.6331" lon="6.67136">
        <ele>1511.4</ele>
        <time>2022-06-12T13:27:57Z</time>
      </trkpt>
      <trkpt lat="44.63314" lon="6.67124">
        <ele>1510.9</ele>
        <time>2022-06-12T13:27:58Z</time>
      </trkpt>
      <trkpt lat="44.63319" lon="6.67112">
        <ele>1511.3</ele>
        <time>2022-06-12T13:27:59Z</time>
      </trkpt>
      <trkpt lat="44.63326" lon="6.67102">
        <ele>1510.9</ele>
        <time>2022-06-12T13:28:00Z</time>
      </trkpt>
      <trkpt lat="44.63333" lon="6.67093">
        <ele>1511</ele>
        <time>2022-06-12T13:28:01Z</time>
      </trkpt>
      <trkpt lat="44.63342" lon="6.67085">
        <ele>1510.7</ele>
        <time>2022-06-12T13:28:02Z</time>
      </trkpt>
      <trkpt lat="44.63351" lon="6.67078">
        <ele>1510.1</ele>
        <time>2022-06-12T13:28:03Z</time>
      </trkpt>
      <trkpt lat="44.63361" lon="6.6707">
        <ele>1509.8</ele>
        <time>2022-06-12T13:28:04Z</time>
      </trkpt>
      <trkpt lat="44.63371" lon="6.67062">
        <ele>1508.6</ele>
        <time>2022-06-12T13:28:05Z</time>
      </trkpt>
      <trkpt lat="44.63382" lon="6.67053">
        <ele>1507.4</ele>
        <time>2022-06-12T13:28:06Z</time>
      </trkpt>
      <trkpt lat="44.63393" lon="6.67045">
        <ele>1506.1</ele>
        <time>2022-06-12T13:28:07Z</time>
      </trkpt>
      <trkpt lat="44.63405" lon="6.67037">
        <ele>1505.1</ele>
        <time>2022-06-12T13:28:08Z</time>
      </trkpt>
      <trkpt lat="44.63418" lon="6.6703">
        <ele>1504.8</ele>
        <time>2022-06-12T13:28:09Z</time>
      </trkpt>
      <trkpt lat="44.6343" lon="6.67022">
        <ele>1503.1</ele>
        <time>2022-06-12T13:28:10Z</time>
      </trkpt>
      <trkpt lat="44.63442" lon="6.67013">
        <ele>1501.7</ele>
        <time>2022-06-12T13:28:11Z</time>
      </trkpt>
      <trkpt lat="44.63455" lon="6.67002">
        <ele>1499.6</ele>
        <time>2022-06-12T13:28:12Z</time>
      </trkpt>
      <trkpt lat="44.63472" lon="6.66986">
        <ele>1498.4</ele>
        <time>2022-06-12T13:28:13Z</time>
      </trkpt>
      <trkpt lat="44.63478" lon="6.66981">
        <ele>1497.5</ele>
        <time>2022-06-12T13:28:14Z</time>
      </trkpt>
      <trkpt lat="44.63489" lon="6.66972">
        <ele>1496</ele>
        <time>2022-06-12T13:28:15Z</time>
      </trkpt>
      <trkpt lat="44.63502" lon="6.66968">
        <ele>1495.5</ele>
        <time>2022-06-12T13:28:16Z</time>
      </trkpt>
      <trkpt lat="44.63515" lon="6.66968">
        <ele>1493.5</ele>
        <time>2022-06-12T13:28:17Z</time>
      </trkpt>
      <trkpt lat="44.63528" lon="6.66971">
        <ele>1491.9</ele>
        <time>2022-06-12T13:28:18Z</time>
      </trkpt>
      <trkpt lat="44.63541" lon="6.66976">
        <ele>1490.6</ele>
        <time>2022-06-12T13:28:19Z</time>
      </trkpt>
      <trkpt lat="44.63554" lon="6.6698">
        <ele>1489.3</ele>
        <time>2022-06-12T13:28:20Z</time>
      </trkpt>
      <trkpt lat="44.63568" lon="6.66985">
        <ele>1488</ele>
        <time>2022-06-12T13:28:21Z</time>
      </trkpt>
      <trkpt lat="44.63582" lon="6.66989">
        <ele>1486.8</ele>
        <time>2022-06-12T13:28:22Z</time>
      </trkpt>
      <trkpt lat="44.63596" lon="6.66993">
        <ele>1485.5</ele>
        <time>2022-06-12T13:28:23Z</time>
      </trkpt>
      <trkpt lat="44.6361" lon="6.66996">
        <ele>1484.1</ele>
        <time>2022-06-12T13:28:24Z</time>
      </trkpt>
      <trkpt lat="44.63625" lon="6.66998">
        <ele>1483</ele>
        <time>2022-06-12T13:28:25Z</time>
      </trkpt>
      <trkpt lat="44.6364" lon="6.67">
        <ele>1481.8</ele>
        <time>2022-06-12T13:28:26Z</time>
      </trkpt>
      <trkpt lat="44.63655" lon="6.67">
        <ele>1479.6</ele>
        <time>2022-06-12T13:28:27Z</time>
      </trkpt>
      <trkpt lat="44.6367" lon="6.66998">
        <ele>1477.2</ele>
        <time>2022-06-12T13:28:28Z</time>
      </trkpt>
      <trkpt lat="44.63685" lon="6.66996">
        <ele>1474.6</ele>
        <time>2022-06-12T13:28:29Z</time>
      </trkpt>
      <trkpt lat="44.637" lon="6.66994">
        <ele>1472.1</ele>
        <time>2022-06-12T13:28:30Z</time>
      </trkpt>
      <trkpt lat="44.63714" lon="6.66993">
        <ele>1469.6</ele>
        <time>2022-06-12T13:28:31Z</time>
      </trkpt>
      <trkpt lat="44.63727" lon="6.66991">
        <ele>1467</ele>
        <time>2022-06-12T13:28:32Z</time>
      </trkpt>
      <trkpt lat="44.63739" lon="6.6699">
        <ele>1464.5</ele>
        <time>2022-06-12T13:28:33Z</time>
      </trkpt>
      <trkpt lat="44.6375" lon="6.66988">
        <ele>1462.3</ele>
        <time>2022-06-12T13:28:34Z</time>
      </trkpt>
      <trkpt lat="44.6376" lon="6.66985">
        <ele>1459.5</ele>
        <time>2022-06-12T13:28:35Z</time>
      </trkpt>
      <trkpt lat="44.63768" lon="6.66979">
        <ele>1457.9</ele>
        <time>2022-06-12T13:28:36Z</time>
      </trkpt>
      <trkpt lat="44.63772" lon="6.6697">
        <ele>1457.6</ele>
        <time>2022-06-12T13:28:37Z</time>
      </trkpt>
      <trkpt lat="44.63774" lon="6.66958">
        <ele>1458.4</ele>
        <time>2022-06-12T13:28:38Z</time>
      </trkpt>
      <trkpt lat="44.63772" lon="6.66947">
        <ele>1459.7</ele>
        <time>2022-06-12T13:28:39Z</time>
      </trkpt>
      <trkpt lat="44.63766" lon="6.66938">
        <ele>1460.7</ele>
        <time>2022-06-12T13:28:40Z</time>
      </trkpt>
      <trkpt lat="44.63758" lon="6.66934">
        <ele>1461.4</ele>
        <time>2022-06-12T13:28:41Z</time>
      </trkpt>
      <trkpt lat="44.63749" lon="6.66933">
        <ele>1462.2</ele>
        <time>2022-06-12T13:28:42Z</time>
      </trkpt>
      <trkpt lat="44.6374" lon="6.66934">
        <ele>1462.5</ele>
        <time>2022-06-12T13:28:43Z</time>
      </trkpt>
      <trkpt lat="44.6373" lon="6.66935">
        <ele>1462.8</ele>
        <time>2022-06-12T13:28:44Z</time>
      </trkpt>
      <trkpt lat="44.6372" lon="6.66935">
        <ele>1463</ele>
        <time>2022-06-12T13:28:45Z</time>
      </trkpt>
      <trkpt lat="44.63711" lon="6.66934">
        <ele>1462.9</ele>
        <time>2022-06-12T13:28:46Z</time>
      </trkpt>
      <trkpt lat="44.63701" lon="6.66933">
        <ele>1462.7</ele>
        <time>2022-06-12T13:28:47Z</time>
      </trkpt>
      <trkpt lat="44.63692" lon="6.6693">
        <ele>1462.6</ele>
        <time>2022-06-12T13:28:48Z</time>
      </trkpt>
      <trkpt lat="44.63683" lon="6.66925">
        <ele>1462.5</ele>
        <time>2022-06-12T13:28:49Z</time>
      </trkpt>
      <trkpt lat="44.63674" lon="6.6692">
        <ele>1462.2</ele>
        <time>2022-06-12T13:28:50Z</time>
      </trkpt>
      <trkpt lat="44.63666" lon="6.66915">
        <ele>1461.8</ele>
        <time>2022-06-12T13:28:51Z</time>
      </trkpt>
      <trkpt lat="44.63657" lon="6.6691">
        <ele>1461.3</ele>
        <time>2022-06-12T13:28:52Z</time>
      </trkpt>
      <trkpt lat="44.63649" lon="6.66905">
        <ele>1460.6</ele>
        <time>2022-06-12T13:28:53Z</time>
      </trkpt>
      <trkpt lat="44.6364" lon="6.669">
        <ele>1459.9</ele>
        <time>2022-06-12T13:28:54Z</time>
      </trkpt>
      <trkpt lat="44.63632" lon="6.66894">
        <ele>1459.7</ele>
        <time>2022-06-12T13:28:55Z</time>
      </trkpt>
      <trkpt lat="44.63624" lon="6.66886">
        <ele>1459.2</ele>
        <time>2022-06-12T13:28:56Z</time>
      </trkpt>
      <trkpt lat="44.63619" lon="6.66875">
        <ele>1458.3</ele>
        <time>2022-06-12T13:28:57Z</time>
      </trkpt>
      <trkpt lat="44.63618" lon="6.66863">
        <ele>1456.7</ele>
        <time>2022-06-12T13:28:58Z</time>
      </trkpt>
      <trkpt lat="44.63622" lon="6.66852">
        <ele>1454.4</ele>
        <time>2022-06-12T13:28:59Z</time>
      </trkpt>
      <trkpt lat="44.63629" lon="6.66845">
        <ele>1452.9</ele>
        <time>2022-06-12T13:29:00Z</time>
      </trkpt>
      <trkpt lat="44.63639" lon="6.66843">
        <ele>1452.3</ele>
        <time>2022-06-12T13:29:01Z</time>
      </trkpt>
      <trkpt lat="44.63649" lon="6.66844">
        <ele>1452</ele>
        <time>2022-06-12T13:29:02Z</time>
      </trkpt>
      <trkpt lat="44.63659" lon="6.66847">
        <ele>1451.9</ele>
        <time>2022-06-12T13:29:03Z</time>
      </trkpt>
      <trkpt lat="44.63669" lon="6.6685">
        <ele>1451.8</ele>
        <time>2022-06-12T13:29:04Z</time>
      </trkpt>
      <trkpt lat="44.63679" lon="6.66852">
        <ele>1451.5</ele>
        <time>2022-06-12T13:29:05Z</time>
      </trkpt>
      <trkpt lat="44.6369" lon="6.66854">
        <ele>1451</ele>
        <time>2022-06-12T13:29:06Z</time>
      </trkpt>
      <trkpt lat="44.63701" lon="6.66854">
        <ele>1450.5</ele>
        <time>2022-06-12T13:29:07Z</time>
      </trkpt>
      <trkpt lat="44.63712" lon="6.66853">
        <ele>1449.7</ele>
        <time>2022-06-12T13:29:08Z</time>
      </trkpt>
      <trkpt lat="44.63723" lon="6.6685">
        <ele>1448.6</ele>
        <time>2022-06-12T13:29:09Z</time>
      </trkpt>
      <trkpt lat="44.63734" lon="6.66845">
        <ele>1448</ele>
        <time>2022-06-12T13:29:10Z</time>
      </trkpt>
      <trkpt lat="44.63745" lon="6.6684">
        <ele>1447.2</ele>
        <time>2022-06-12T13:29:11Z</time>
      </trkpt>
      <trkpt lat="44.63757" lon="6.66834">
        <ele>1446.3</ele>
        <time>2022-06-12T13:29:12Z</time>
      </trkpt>
      <trkpt lat="44.63769" lon="6.66828">
        <ele>1445.5</ele>
        <time>2022-06-12T13:29:13Z</time>
      </trkpt>
      <trkpt lat="44.63781" lon="6.66822">
        <ele>1444.6</ele>
        <time>2022-06-12T13:29:14Z</time>
      </trkpt>
      <trkpt lat="44.63793" lon="6.66816">
        <ele>1443.3</ele>
        <time>2022-06-12T13:29:15Z</time>
      </trkpt>
      <trkpt lat="44.63806" lon="6.6681">
        <ele>1442</ele>
        <time>2022-06-12T13:29:16Z</time>
      </trkpt>
      <trkpt lat="44.63818" lon="6.66803">
        <ele>1440.5</ele>
        <time>2022-06-12T13:29:17Z</time>
      </trkpt>
      <trkpt lat="44.6383" lon="6.66795">
        <ele>1439</ele>
        <time>2022-06-12T13:29:18Z</time>
      </trkpt>
      <trkpt lat="44.63842" lon="6.66784">
        <ele>1437.7</ele>
        <time>2022-06-12T13:29:19Z</time>
      </trkpt>
      <trkpt lat="44.63852" lon="6.66772">
        <ele>1436.3</ele>
        <time>2022-06-12T13:29:20Z</time>
      </trkpt>
      <trkpt lat="44.63862" lon="6.66759">
        <ele>1434.6</ele>
        <time>2022-06-12T13:29:21Z</time>
      </trkpt>
      <trkpt lat="44.6387" lon="6.66748">
        <ele>1432.5</ele>
        <time>2022-06-12T13:29:22Z</time>
      </trkpt>
      <trkpt lat="44.6388" lon="6.6674">
        <ele>1430.5</ele>
        <time>2022-06-12T13:29:23Z</time>
      </trkpt>
      <trkpt lat="44.63891" lon="6.66735">
        <ele>1429.2</ele>
        <time>2022-06-12T13:29:24Z</time>
      </trkpt>
      <trkpt lat="44.63903" lon="6.66734">
        <ele>1428.3</ele>
        <time>2022-06-12T13:29:25Z</time>
      </trkpt>
      <trkpt lat="44.63916" lon="6.66734">
        <ele>1428</ele>
        <time>2022-06-12T13:29:26Z</time>
      </trkpt>
      <trkpt lat="44.63929" lon="6.66736">
        <ele>1427.7</ele>
        <time>2022-06-12T13:29:27Z</time>
      </trkpt>
      <trkpt lat="44.63941" lon="6.66738">
        <ele>1427.6</ele>
        <time>2022-06-12T13:29:28Z</time>
      </trkpt>
      <trkpt lat="44.63953" lon="6.6674">
        <ele>1427.3</ele>
        <time>2022-06-12T13:29:29Z</time>
      </trkpt>
      <trkpt lat="44.63963" lon="6.66744">
        <ele>1427.1</ele>
        <time>2022-06-12T13:29:30Z</time>
      </trkpt>
      <trkpt lat="44.63973" lon="6.66746">
        <ele>1426.6</ele>
        <time>2022-06-12T13:29:31Z</time>
      </trkpt>
      <trkpt lat="44.63982" lon="6.66745">
        <ele>1424.6</ele>
        <time>2022-06-12T13:29:32Z</time>
      </trkpt>
      <trkpt lat="44.63991" lon="6.6674">
        <ele>1421.8</ele>
        <time>2022-06-12T13:29:33Z</time>
      </trkpt>
      <trkpt lat="44.63996" lon="6.6673">
        <ele>1418.9</ele>
        <time>2022-06-12T13:29:34Z</time>
      </trkpt>
      <trkpt lat="44.63998" lon="6.66718">
        <ele>1415.8</ele>
        <time>2022-06-12T13:29:35Z</time>
      </trkpt>
      <trkpt lat="44.63995" lon="6.66706">
        <ele>1412.4</ele>
        <time>2022-06-12T13:29:36Z</time>
      </trkpt>
      <trkpt lat="44.63988" lon="6.66697">
        <ele>1410.5</ele>
        <time>2022-06-12T13:29:37Z</time>
      </trkpt>
      <trkpt lat="44.6398" lon="6.66691">
        <ele>1409.8</ele>
        <time>2022-06-12T13:29:38Z</time>
      </trkpt>
      <trkpt lat="44.6397" lon="6.66686">
        <ele>1409.7</ele>
        <time>2022-06-12T13:29:39Z</time>
      </trkpt>
      <trkpt lat="44.6396" lon="6.66682">
        <ele>1409.7</ele>
        <time>2022-06-12T13:29:40Z</time>
      </trkpt>
      <trkpt lat="44.63949" lon="6.66677">
        <ele>1409.9</ele>
        <time>2022-06-12T13:29:41Z</time>
      </trkpt>
      <trkpt lat="44.63938" lon="6.66672">
        <ele>1409.9</ele>
        <time>2022-06-12T13:29:42Z</time>
      </trkpt>
      <trkpt lat="44.63927" lon="6.66667">
        <ele>1409.4</ele>
        <time>2022-06-12T13:29:43Z</time>
      </trkpt>
      <trkpt lat="44.63915" lon="6.66663">
        <ele>1409</ele>
        <time>2022-06-12T13:29:44Z</time>
      </trkpt>
      <trkpt lat="44.63904" lon="6.66657">
        <ele>1407.8</ele>
        <time>2022-06-12T13:29:45Z</time>
      </trkpt>
      <trkpt lat="44.63892" lon="6.66652">
        <ele>1406.2</ele>
        <time>2022-06-12T13:29:46Z</time>
      </trkpt>
      <trkpt lat="44.6388" lon="6.66646">
        <ele>1404.9</ele>
        <time>2022-06-12T13:29:47Z</time>
      </trkpt>
      <trkpt lat="44.63867" lon="6.6664">
        <ele>1404</ele>
        <time>2022-06-12T13:29:48Z</time>
      </trkpt>
      <trkpt lat="44.63855" lon="6.66635">
        <ele>1402.6</ele>
        <time>2022-06-12T13:29:49Z</time>
      </trkpt>
      <trkpt lat="44.63842" lon="6.66629">
        <ele>1401.2</ele>
        <time>2022-06-12T13:29:50Z</time>
      </trkpt>
      <trkpt lat="44.63829" lon="6.66623">
        <ele>1400.2</ele>
        <time>2022-06-12T13:29:51Z</time>
      </trkpt>
      <trkpt lat="44.63815" lon="6.66619">
        <ele>1399.7</ele>
        <time>2022-06-12T13:29:52Z</time>
      </trkpt>
      <trkpt lat="44.63802" lon="6.66617">
        <ele>1399.4</ele>
        <time>2022-06-12T13:29:53Z</time>
      </trkpt>
      <trkpt lat="44.63788" lon="6.66616">
        <ele>1398.6</ele>
        <time>2022-06-12T13:29:54Z</time>
      </trkpt>
      <trkpt lat="44.63776" lon="6.66617">
        <ele>1397.9</ele>
        <time>2022-06-12T13:29:55Z</time>
      </trkpt>
      <trkpt lat="44.63765" lon="6.66618">
        <ele>1396.3</ele>
        <time>2022-06-12T13:29:56Z</time>
      </trkpt>
      <trkpt lat="44.63755" lon="6.66618">
        <ele>1394.9</ele>
        <time>2022-06-12T13:29:57Z</time>
      </trkpt>
      <trkpt lat="44.63747" lon="6.66617">
        <ele>1392.9</ele>
        <time>2022-06-12T13:29:58Z</time>
      </trkpt>
      <trkpt lat="44.6374" lon="6.66612">
        <ele>1390.1</ele>
        <time>2022-06-12T13:29:59Z</time>
      </trkpt>
      <trkpt lat="44.63735" lon="6.66601">
        <ele>1388.4</ele>
        <time>2022-06-12T13:30:00Z</time>
      </trkpt>
      <trkpt lat="44.63735" lon="6.66589">
        <ele>1388</ele>
        <time>2022-06-12T13:30:01Z</time>
      </trkpt>
      <trkpt lat="44.6374" lon="6.6658">
        <ele>1387.5</ele>
        <time>2022-06-12T13:30:02Z</time>
      </trkpt>
      <trkpt lat="44.63749" lon="6.66575">
        <ele>1387.4</ele>
        <time>2022-06-12T13:30:03Z</time>
      </trkpt>
      <trkpt lat="44.63759" lon="6.66573">
        <ele>1386.9</ele>
        <time>2022-06-12T13:30:04Z</time>
      </trkpt>
      <trkpt lat="44.63771" lon="6.66572">
        <ele>1386.6</ele>
        <time>2022-06-12T13:30:05Z</time>
      </trkpt>
      <trkpt lat="44.63782" lon="6.66573">
        <ele>1386.3</ele>
        <time>2022-06-12T13:30:06Z</time>
      </trkpt>
      <trkpt lat="44.63794" lon="6.66574">
        <ele>1385.7</ele>
        <time>2022-06-12T13:30:07Z</time>
      </trkpt>
      <trkpt lat="44.63807" lon="6.66575">
        <ele>1385.3</ele>
        <time>2022-06-12T13:30:08Z</time>
      </trkpt>
      <trkpt lat="44.6382" lon="6.66576">
        <ele>1384.4</ele>
        <time>2022-06-12T13:30:09Z</time>
      </trkpt>
      <trkpt lat="44.63833" lon="6.66576">
        <ele>1383</ele>
        <time>2022-06-12T13:30:10Z</time>
      </trkpt>
      <trkpt lat="44.63846" lon="6.66574">
        <ele>1381.6</ele>
        <time>2022-06-12T13:30:11Z</time>
      </trkpt>
      <trkpt lat="44.6386" lon="6.66571">
        <ele>1379.9</ele>
        <time>2022-06-12T13:30:12Z</time>
      </trkpt>
      <trkpt lat="44.63873" lon="6.66567">
        <ele>1379.1</ele>
        <time>2022-06-12T13:30:13Z</time>
      </trkpt>
      <trkpt lat="44.63888" lon="6.66564">
        <ele>1378.5</ele>
        <time>2022-06-12T13:30:14Z</time>
      </trkpt>
      <trkpt lat="44.63902" lon="6.66561">
        <ele>1377.7</ele>
        <time>2022-06-12T13:30:15Z</time>
      </trkpt>
      <trkpt lat="44.63917" lon="6.66558">
        <ele>1376.6</ele>
        <time>2022-06-12T13:30:16Z</time>
      </trkpt>
      <trkpt lat="44.63932" lon="6.66555">
        <ele>1374.5</ele>
        <time>2022-06-12T13:30:17Z</time>
      </trkpt>
      <trkpt lat="44.63947" lon="6.66554">
        <ele>1373.1</ele>
        <time>2022-06-12T13:30:18Z</time>
      </trkpt>
      <trkpt lat="44.63963" lon="6.66557">
        <ele>1372.6</ele>
        <time>2022-06-12T13:30:19Z</time>
      </trkpt>
      <trkpt lat="44.63977" lon="6.66563">
        <ele>1372.7</ele>
        <time>2022-06-12T13:30:20Z</time>
      </trkpt>
      <trkpt lat="44.63991" lon="6.6657">
        <ele>1372.7</ele>
        <time>2022-06-12T13:30:21Z</time>
      </trkpt>
      <trkpt lat="44.64005" lon="6.66576">
        <ele>1372.9</ele>
        <time>2022-06-12T13:30:22Z</time>
      </trkpt>
      <trkpt lat="44.64019" lon="6.66579">
        <ele>1372.1</ele>
        <time>2022-06-12T13:30:23Z</time>
      </trkpt>
      <trkpt lat="44.64033" lon="6.66577">
        <ele>1369.9</ele>
        <time>2022-06-12T13:30:24Z</time>
      </trkpt>
      <trkpt lat="44.64047" lon="6.66571">
        <ele>1366.5</ele>
        <time>2022-06-12T13:30:25Z</time>
      </trkpt>
      <trkpt lat="44.6406" lon="6.66563">
        <ele>1362.9</ele>
        <time>2022-06-12T13:30:26Z</time>
      </trkpt>
      <trkpt lat="44.64073" lon="6.66555">
        <ele>1360.2</ele>
        <time>2022-06-12T13:30:27Z</time>
      </trkpt>
      <trkpt lat="44.64086" lon="6.66547">
        <ele>1358.3</ele>
        <time>2022-06-12T13:30:28Z</time>
      </trkpt>
      <trkpt lat="44.64098" lon="6.6654">
        <ele>1357.8</ele>
        <time>2022-06-12T13:30:29Z</time>
      </trkpt>
      <trkpt lat="44.64108" lon="6.66529">
        <ele>1356.5</ele>
        <time>2022-06-12T13:30:30Z</time>
      </trkpt>
      <trkpt lat="44.64116" lon="6.66515">
        <ele>1355.4</ele>
        <time>2022-06-12T13:30:31Z</time>
      </trkpt>
      <trkpt lat="44.64122" lon="6.665">
        <ele>1354.3</ele>
        <time>2022-06-12T13:30:32Z</time>
      </trkpt>
      <trkpt lat="44.64128" lon="6.66484">
        <ele>1352.1</ele>
        <time>2022-06-12T13:30:33Z</time>
      </trkpt>
      <trkpt lat="44.64134" lon="6.66467">
        <ele>1349.9</ele>
        <time>2022-06-12T13:30:34Z</time>
      </trkpt>
      <trkpt lat="44.64141" lon="6.6645">
        <ele>1347.5</ele>
        <time>2022-06-12T13:30:35Z</time>
      </trkpt>
      <trkpt lat="44.64148" lon="6.66433">
        <ele>1344.4</ele>
        <time>2022-06-12T13:30:36Z</time>
      </trkpt>
      <trkpt lat="44.64154" lon="6.66414">
        <ele>1340.9</ele>
        <time>2022-06-12T13:30:37Z</time>
      </trkpt>
      <trkpt lat="44.64159" lon="6.66397">
        <ele>1339.3</ele>
        <time>2022-06-12T13:30:38Z</time>
      </trkpt>
      <trkpt lat="44.64162" lon="6.6638">
        <ele>1337.9</ele>
        <time>2022-06-12T13:30:39Z</time>
      </trkpt>
      <trkpt lat="44.64166" lon="6.66365">
        <ele>1337.3</ele>
        <time>2022-06-12T13:30:40Z</time>
      </trkpt>
      <trkpt lat="44.64172" lon="6.66352">
        <ele>1335.1</ele>
        <time>2022-06-12T13:30:41Z</time>
      </trkpt>
      <trkpt lat="44.64179" lon="6.66343">
        <ele>1333.4</ele>
        <time>2022-06-12T13:30:42Z</time>
      </trkpt>
      <trkpt lat="44.6419" lon="6.66339">
        <ele>1332.7</ele>
        <time>2022-06-12T13:30:43Z</time>
      </trkpt>
      <trkpt lat="44.64201" lon="6.66339">
        <ele>1331.6</ele>
        <time>2022-06-12T13:30:44Z</time>
      </trkpt>
      <trkpt lat="44.64213" lon="6.6634">
        <ele>1329.9</ele>
        <time>2022-06-12T13:30:45Z</time>
      </trkpt>
      <trkpt lat="44.64225" lon="6.6634">
        <ele>1328.1</ele>
        <time>2022-06-12T13:30:46Z</time>
      </trkpt>
      <trkpt lat="44.64238" lon="6.66338">
        <ele>1326.3</ele>
        <time>2022-06-12T13:30:47Z</time>
      </trkpt>
      <trkpt lat="44.64251" lon="6.66334">
        <ele>1324.9</ele>
        <time>2022-06-12T13:30:48Z</time>
      </trkpt>
      <trkpt lat="44.64263" lon="6.66328">
        <ele>1322.9</ele>
        <time>2022-06-12T13:30:49Z</time>
      </trkpt>
      <trkpt lat="44.64276" lon="6.66322">
        <ele>1321.5</ele>
        <time>2022-06-12T13:30:50Z</time>
      </trkpt>
      <trkpt lat="44.64288" lon="6.66315">
        <ele>1319.7</ele>
        <time>2022-06-12T13:30:51Z</time>
      </trkpt>
      <trkpt lat="44.64299" lon="6.66309">
        <ele>1318.6</ele>
        <time>2022-06-12T13:30:52Z</time>
      </trkpt>
      <trkpt lat="44.64309" lon="6.66303">
        <ele>1317.1</ele>
        <time>2022-06-12T13:30:53Z</time>
      </trkpt>
      <trkpt lat="44.64318" lon="6.66297">
        <ele>1314.8</ele>
        <time>2022-06-12T13:30:54Z</time>
      </trkpt>
      <trkpt lat="44.64325" lon="6.66289">
        <ele>1313.6</ele>
        <time>2022-06-12T13:30:55Z</time>
      </trkpt>
      <trkpt lat="44.6433" lon="6.6628">
        <ele>1313.6</ele>
        <time>2022-06-12T13:30:56Z</time>
      </trkpt>
      <trkpt lat="44.64332" lon="6.66269">
        <ele>1312.9</ele>
        <time>2022-06-12T13:30:57Z</time>
      </trkpt>
      <trkpt lat="44.64332" lon="6.66257">
        <ele>1312.4</ele>
        <time>2022-06-12T13:30:58Z</time>
      </trkpt>
      <trkpt lat="44.6433" lon="6.66246">
        <ele>1310.9</ele>
        <time>2022-06-12T13:30:59Z</time>
      </trkpt>
      <trkpt lat="44.64324" lon="6.66237">
        <ele>1307.6</ele>
        <time>2022-06-12T13:31:00Z</time>
      </trkpt>
      <trkpt lat="44.64316" lon="6.66232">
        <ele>1306.1</ele>
        <time>2022-06-12T13:31:01Z</time>
      </trkpt>
      <trkpt lat="44.64307" lon="6.66233">
        <ele>1306.8</ele>
        <time>2022-06-12T13:31:02Z</time>
      </trkpt>
      <trkpt lat="44.64297" lon="6.66237">
        <ele>1307.5</ele>
        <time>2022-06-12T13:31:03Z</time>
      </trkpt>
      <trkpt lat="44.64288" lon="6.66241">
        <ele>1308.8</ele>
        <time>2022-06-12T13:31:04Z</time>
      </trkpt>
      <trkpt lat="44.64278" lon="6.66245">
        <ele>1309.8</ele>
        <time>2022-06-12T13:31:05Z</time>
      </trkpt>
      <trkpt lat="44.64267" lon="6.66246">
        <ele>1308.6</ele>
        <time>2022-06-12T13:31:06Z</time>
      </trkpt>
      <trkpt lat="44.64256" lon="6.66246">
        <ele>1306.6</ele>
        <time>2022-06-12T13:31:07Z</time>
      </trkpt>
      <trkpt lat="44.64245" lon="6.66247">
        <ele>1304.5</ele>
        <time>2022-06-12T13:31:08Z</time>
      </trkpt>
      <trkpt lat="44.64233" lon="6.6625">
        <ele>1303.9</ele>
        <time>2022-06-12T13:31:09Z</time>
      </trkpt>
      <trkpt lat="44.64222" lon="6.66257">
        <ele>1303.9</ele>
        <time>2022-06-12T13:31:10Z</time>
      </trkpt>
      <trkpt lat="44.6421" lon="6.66263">
        <ele>1304.7</ele>
        <time>2022-06-12T13:31:11Z</time>
      </trkpt>
      <trkpt lat="44.64198" lon="6.66267">
        <ele>1304.2</ele>
        <time>2022-06-12T13:31:12Z</time>
      </trkpt>
      <trkpt lat="44.64184" lon="6.66268">
        <ele>1302.6</ele>
        <time>2022-06-12T13:31:13Z</time>
      </trkpt>
      <trkpt lat="44.64171" lon="6.66267">
        <ele>1300.6</ele>
        <time>2022-06-12T13:31:14Z</time>
      </trkpt>
      <trkpt lat="44.64159" lon="6.66266">
        <ele>1298.7</ele>
        <time>2022-06-12T13:31:15Z</time>
      </trkpt>
      <trkpt lat="44.64148" lon="6.66265">
        <ele>1297.2</ele>
        <time>2022-06-12T13:31:16Z</time>
      </trkpt>
      <trkpt lat="44.64138" lon="6.66265">
        <ele>1295.9</ele>
        <time>2022-06-12T13:31:17Z</time>
      </trkpt>
      <trkpt lat="44.64128" lon="6.66263">
        <ele>1293.6</ele>
        <time>2022-06-12T13:31:18Z</time>
      </trkpt>
      <trkpt lat="44.64119" lon="6.66258">
        <ele>1290.8</ele>
        <time>2022-06-12T13:31:19Z</time>
      </trkpt>
      <trkpt lat="44.64113" lon="6.66248">
        <ele>1288.1</ele>
        <time>2022-06-12T13:31:20Z</time>
      </trkpt>
      <trkpt lat="44.6411" lon="6.66235">
        <ele>1286.6</ele>
        <time>2022-06-12T13:31:21Z</time>
      </trkpt>
      <trkpt lat="44.64112" lon="6.66221">
        <ele>1285.8</ele>
        <time>2022-06-12T13:31:22Z</time>
      </trkpt>
      <trkpt lat="44.64117" lon="6.6621">
        <ele>1283.7</ele>
        <time>2022-06-12T13:31:23Z</time>
      </trkpt>
      <trkpt lat="44.64126" lon="6.66204">
        <ele>1282.9</ele>
        <time>2022-06-12T13:31:24Z</time>
      </trkpt>
      <trkpt lat="44.64137" lon="6.66203">
        <ele>1283.1</ele>
        <time>2022-06-12T13:31:25Z</time>
      </trkpt>
      <trkpt lat="44.64148" lon="6.66204">
        <ele>1282.6</ele>
        <time>2022-06-12T13:31:26Z</time>
      </trkpt>
      <trkpt lat="44.6416" lon="6.66206">
        <ele>1282.1</ele>
        <time>2022-06-12T13:31:27Z</time>
      </trkpt>
      <trkpt lat="44.64172" lon="6.66207">
        <ele>1281.9</ele>
        <time>2022-06-12T13:31:28Z</time>
      </trkpt>
      <trkpt lat="44.64184" lon="6.66209">
        <ele>1282</ele>
        <time>2022-06-12T13:31:29Z</time>
      </trkpt>
      <trkpt lat="44.64197" lon="6.6621">
        <ele>1282.2</ele>
        <time>2022-06-12T13:31:30Z</time>
      </trkpt>
      <trkpt lat="44.64211" lon="6.66211">
        <ele>1282.1</ele>
        <time>2022-06-12T13:31:31Z</time>
      </trkpt>
      <trkpt lat="44.64224" lon="6.66211">
        <ele>1281.8</ele>
        <time>2022-06-12T13:31:32Z</time>
      </trkpt>
      <trkpt lat="44.64238" lon="6.66209">
        <ele>1281.5</ele>
        <time>2022-06-12T13:31:33Z</time>
      </trkpt>
      <trkpt lat="44.64251" lon="6.66204">
        <ele>1279.6</ele>
        <time>2022-06-12T13:31:34Z</time>
      </trkpt>
      <trkpt lat="44.64265" lon="6.66197">
        <ele>1277.5</ele>
        <time>2022-06-12T13:31:35Z</time>
      </trkpt>
      <trkpt lat="44.64278" lon="6.66189">
        <ele>1275</ele>
        <time>2022-06-12T13:31:36Z</time>
      </trkpt>
      <trkpt lat="44.6429" lon="6.66181">
        <ele>1273.2</ele>
        <time>2022-06-12T13:31:37Z</time>
      </trkpt>
      <trkpt lat="44.643" lon="6.66173">
        <ele>1270.7</ele>
        <time>2022-06-12T13:31:38Z</time>
      </trkpt>
      <trkpt lat="44.64308" lon="6.66161">
        <ele>1267.5</ele>
        <time>2022-06-12T13:31:39Z</time>
      </trkpt>
      <trkpt lat="44.64313" lon="6.66146">
        <ele>1264.1</ele>
        <time>2022-06-12T13:31:40Z</time>
      </trkpt>
      <trkpt lat="44.64316" lon="6.6613">
        <ele>1261.6</ele>
        <time>2022-06-12T13:31:41Z</time>
      </trkpt>
      <trkpt lat="44.64316" lon="6.66112">
        <ele>1259.8</ele>
        <time>2022-06-12T13:31:42Z</time>
      </trkpt>
      <trkpt lat="44.64318" lon="6.66094">
        <ele>1257.5</ele>
        <time>2022-06-12T13:31:43Z</time>
      </trkpt>
      <trkpt lat="44.64323" lon="6.66077">
        <ele>1255.6</ele>
        <time>2022-06-12T13:31:44Z</time>
      </trkpt>
      <trkpt lat="44.64331" lon="6.66063">
        <ele>1254.2</ele>
        <time>2022-06-12T13:31:45Z</time>
      </trkpt>
      <trkpt lat="44.64342" lon="6.66051">
        <ele>1252.8</ele>
        <time>2022-06-12T13:31:46Z</time>
      </trkpt>
      <trkpt lat="44.64353" lon="6.66039">
        <ele>1251</ele>
        <time>2022-06-12T13:31:47Z</time>
      </trkpt>
      <trkpt lat="44.64363" lon="6.66025">
        <ele>1248.3</ele>
        <time>2022-06-12T13:31:48Z</time>
      </trkpt>
      <trkpt lat="44.64371" lon="6.66008">
        <ele>1245.2</ele>
        <time>2022-06-12T13:31:49Z</time>
      </trkpt>
      <trkpt lat="44.64379" lon="6.6599">
        <ele>1243.3</ele>
        <time>2022-06-12T13:31:50Z</time>
      </trkpt>
      <trkpt lat="44.64387" lon="6.65971">
        <ele>1242.9</ele>
        <time>2022-06-12T13:31:51Z</time>
      </trkpt>
      <trkpt lat="44.64396" lon="6.65954">
        <ele>1240.6</ele>
        <time>2022-06-12T13:31:52Z</time>
      </trkpt>
      <trkpt lat="44.64408" lon="6.65939">
        <ele>1239.1</ele>
        <time>2022-06-12T13:31:53Z</time>
      </trkpt>
      <trkpt lat="44.64421" lon="6.65926">
        <ele>1238</ele>
        <time>2022-06-12T13:31:54Z</time>
      </trkpt>
      <trkpt lat="44.64435" lon="6.65914">
        <ele>1235.8</ele>
        <time>2022-06-12T13:31:55Z</time>
      </trkpt>
      <trkpt lat="44.64449" lon="6.65903">
        <ele>1233.8</ele>
        <time>2022-06-12T13:31:56Z</time>
      </trkpt>
      <trkpt lat="44.64463" lon="6.65893">
        <ele>1231.6</ele>
        <time>2022-06-12T13:31:57Z</time>
      </trkpt>
      <trkpt lat="44.64476" lon="6.65882">
        <ele>1229.8</ele>
        <time>2022-06-12T13:31:58Z</time>
      </trkpt>
      <trkpt lat="44.6449" lon="6.65872">
        <ele>1228.1</ele>
        <time>2022-06-12T13:31:59Z</time>
      </trkpt>
      <trkpt lat="44.64502" lon="6.65861">
        <ele>1226.6</ele>
        <time>2022-06-12T13:32:00Z</time>
      </trkpt>
      <trkpt lat="44.64513" lon="6.65847">
        <ele>1225.6</ele>
        <time>2022-06-12T13:32:01Z</time>
      </trkpt>
      <trkpt lat="44.64522" lon="6.65831">
        <ele>1225.5</ele>
        <time>2022-06-12T13:32:02Z</time>
      </trkpt>
      <trkpt lat="44.6453" lon="6.65814">
        <ele>1226</ele>
        <time>2022-06-12T13:32:03Z</time>
      </trkpt>
      <trkpt lat="44.64537" lon="6.65797">
        <ele>1225.9</ele>
        <time>2022-06-12T13:32:04Z</time>
      </trkpt>
      <trkpt lat="44.64544" lon="6.65779">
        <ele>1225.5</ele>
        <time>2022-06-12T13:32:05Z</time>
      </trkpt>
      <trkpt lat="44.64551" lon="6.65762">
        <ele>1224.9</ele>
        <time>2022-06-12T13:32:06Z</time>
      </trkpt>
      <trkpt lat="44.64559" lon="6.65746">
        <ele>1223.7</ele>
        <time>2022-06-12T13:32:07Z</time>
      </trkpt>
      <trkpt lat="44.64568" lon="6.65732">
        <ele>1220.9</ele>
        <time>2022-06-12T13:32:08Z</time>
      </trkpt>
      <trkpt lat="44.64577" lon="6.65719">
        <ele>1218.7</ele>
        <time>2022-06-12T13:32:09Z</time>
      </trkpt>
      <trkpt lat="44.64585" lon="6.65707">
        <ele>1217</ele>
        <time>2022-06-12T13:32:10Z</time>
      </trkpt>
      <trkpt lat="44.64591" lon="6.65695">
        <ele>1215.9</ele>
        <time>2022-06-12T13:32:11Z</time>
      </trkpt>
      <trkpt lat="44.64594" lon="6.65683">
        <ele>1215.2</ele>
        <time>2022-06-12T13:32:12Z</time>
      </trkpt>
      <trkpt lat="44.64593" lon="6.6567">
        <ele>1215.3</ele>
        <time>2022-06-12T13:32:13Z</time>
      </trkpt>
      <trkpt lat="44.64588" lon="6.65659">
        <ele>1215.9</ele>
        <time>2022-06-12T13:32:14Z</time>
      </trkpt>
      <trkpt lat="44.6458" lon="6.65651">
        <ele>1216.4</ele>
        <time>2022-06-12T13:32:15Z</time>
      </trkpt>
      <trkpt lat="44.64571" lon="6.65648">
        <ele>1216</ele>
        <time>2022-06-12T13:32:16Z</time>
      </trkpt>
      <trkpt lat="44.64562" lon="6.65648">
        <ele>1215.8</ele>
        <time>2022-06-12T13:32:17Z</time>
      </trkpt>
      <trkpt lat="44.64553" lon="6.65651">
        <ele>1215.6</ele>
        <time>2022-06-12T13:32:18Z</time>
      </trkpt>
      <trkpt lat="44.64544" lon="6.65653">
        <ele>1214.9</ele>
        <time>2022-06-12T13:32:19Z</time>
      </trkpt>
      <trkpt lat="44.64535" lon="6.65656">
        <ele>1214.4</ele>
        <time>2022-06-12T13:32:20Z</time>
      </trkpt>
      <trkpt lat="44.64526" lon="6.65659">
        <ele>1214</ele>
        <time>2022-06-12T13:32:21Z</time>
      </trkpt>
      <trkpt lat="44.64517" lon="6.65662">
        <ele>1214</ele>
        <time>2022-06-12T13:32:22Z</time>
      </trkpt>
      <trkpt lat="44.64508" lon="6.65665">
        <ele>1214</ele>
        <time>2022-06-12T13:32:23Z</time>
      </trkpt>
      <trkpt lat="44.645" lon="6.65668">
        <ele>1214.1</ele>
        <time>2022-06-12T13:32:24Z</time>
      </trkpt>
      <trkpt lat="44.64491" lon="6.65671">
        <ele>1214</ele>
        <time>2022-06-12T13:32:25Z</time>
      </trkpt>
      <trkpt lat="44.64482" lon="6.65675">
        <ele>1214</ele>
        <time>2022-06-12T13:32:26Z</time>
      </trkpt>
      <trkpt lat="44.64473" lon="6.65679">
        <ele>1214.2</ele>
        <time>2022-06-12T13:32:27Z</time>
      </trkpt>
      <trkpt lat="44.64464" lon="6.65683">
        <ele>1214.2</ele>
        <time>2022-06-12T13:32:28Z</time>
      </trkpt>
      <trkpt lat="44.64456" lon="6.65688">
        <ele>1214.4</ele>
        <time>2022-06-12T13:32:29Z</time>
      </trkpt>
      <trkpt lat="44.64448" lon="6.65693">
        <ele>1214.9</ele>
        <time>2022-06-12T13:32:30Z</time>
      </trkpt>
      <trkpt lat="44.64439" lon="6.65698">
        <ele>1215.1</ele>
        <time>2022-06-12T13:32:31Z</time>
      </trkpt>
      <trkpt lat="44.64431" lon="6.65703">
        <ele>1215.2</ele>
        <time>2022-06-12T13:32:32Z</time>
      </trkpt>
      <trkpt lat="44.64423" lon="6.65709">
        <ele>1215.3</ele>
        <time>2022-06-12T13:32:33Z</time>
      </trkpt>
      <trkpt lat="44.64414" lon="6.65715">
        <ele>1215.4</ele>
        <time>2022-06-12T13:32:34Z</time>
      </trkpt>
      <trkpt lat="44.64406" lon="6.65721">
        <ele>1215.5</ele>
        <time>2022-06-12T13:32:35Z</time>
      </trkpt>
      <trkpt lat="44.64397" lon="6.65727">
        <ele>1215.7</ele>
        <time>2022-06-12T13:32:36Z</time>
      </trkpt>
      <trkpt lat="44.64389" lon="6.65731">
        <ele>1215.6</ele>
        <time>2022-06-12T13:32:37Z</time>
      </trkpt>
      <trkpt lat="44.64381" lon="6.65731">
        <ele>1214.5</ele>
        <time>2022-06-12T13:32:38Z</time>
      </trkpt>
      <trkpt lat="44.64375" lon="6.65725">
        <ele>1212.5</ele>
        <time>2022-06-12T13:32:39Z</time>
      </trkpt>
      <trkpt lat="44.64372" lon="6.65714">
        <ele>1209.7</ele>
        <time>2022-06-12T13:32:40Z</time>
      </trkpt>
      <trkpt lat="44.64373" lon="6.65702">
        <ele>1207.3</ele>
        <time>2022-06-12T13:32:41Z</time>
      </trkpt>
      <trkpt lat="44.64378" lon="6.65692">
        <ele>1205.7</ele>
        <time>2022-06-12T13:32:42Z</time>
      </trkpt>
      <trkpt lat="44.64386" lon="6.65684">
        <ele>1204.9</ele>
        <time>2022-06-12T13:32:43Z</time>
      </trkpt>
      <trkpt lat="44.64395" lon="6.65678">
        <ele>1204.8</ele>
        <time>2022-06-12T13:32:44Z</time>
      </trkpt>
      <trkpt lat="44.64406" lon="6.65673">
        <ele>1205</ele>
        <time>2022-06-12T13:32:45Z</time>
      </trkpt>
      <trkpt lat="44.64416" lon="6.65668">
        <ele>1205.2</ele>
        <time>2022-06-12T13:32:46Z</time>
      </trkpt>
      <trkpt lat="44.64425" lon="6.65663">
        <ele>1204.9</ele>
        <time>2022-06-12T13:32:47Z</time>
      </trkpt>
      <trkpt lat="44.64435" lon="6.65657">
        <ele>1204.4</ele>
        <time>2022-06-12T13:32:48Z</time>
      </trkpt>
      <trkpt lat="44.64444" lon="6.6565">
        <ele>1203.5</ele>
        <time>2022-06-12T13:32:49Z</time>
      </trkpt>
      <trkpt lat="44.64454" lon="6.65642">
        <ele>1202.8</ele>
        <time>2022-06-12T13:32:50Z</time>
      </trkpt>
      <trkpt lat="44.64465" lon="6.65634">
        <ele>1202</ele>
        <time>2022-06-12T13:32:51Z</time>
      </trkpt>
      <trkpt lat="44.64475" lon="6.65627">
        <ele>1201</ele>
        <time>2022-06-12T13:32:52Z</time>
      </trkpt>
      <trkpt lat="44.64485" lon="6.65619">
        <ele>1200.2</ele>
        <time>2022-06-12T13:32:53Z</time>
      </trkpt>
      <trkpt lat="44.64496" lon="6.65609">
        <ele>1199.4</ele>
        <time>2022-06-12T13:32:54Z</time>
      </trkpt>
      <trkpt lat="44.64506" lon="6.656">
        <ele>1198.1</ele>
        <time>2022-06-12T13:32:55Z</time>
      </trkpt>
      <trkpt lat="44.64516" lon="6.65589">
        <ele>1196.6</ele>
        <time>2022-06-12T13:32:56Z</time>
      </trkpt>
      <trkpt lat="44.64526" lon="6.65579">
        <ele>1194.8</ele>
        <time>2022-06-12T13:32:57Z</time>
      </trkpt>
      <trkpt lat="44.64536" lon="6.65568">
        <ele>1192</ele>
        <time>2022-06-12T13:32:58Z</time>
      </trkpt>
      <trkpt lat="44.64547" lon="6.65559">
        <ele>1189.9</ele>
        <time>2022-06-12T13:32:59Z</time>
      </trkpt>
      <trkpt lat="44.64558" lon="6.65553">
        <ele>1189.1</ele>
        <time>2022-06-12T13:33:00Z</time>
      </trkpt>
      <trkpt lat="44.6457" lon="6.65551">
        <ele>1189</ele>
        <time>2022-06-12T13:33:01Z</time>
      </trkpt>
      <trkpt lat="44.64583" lon="6.65551">
        <ele>1190</ele>
        <time>2022-06-12T13:33:02Z</time>
      </trkpt>
      <trkpt lat="44.64596" lon="6.65553">
        <ele>1189.8</ele>
        <time>2022-06-12T13:33:03Z</time>
      </trkpt>
      <trkpt lat="44.64609" lon="6.65555">
        <ele>1189.7</ele>
        <time>2022-06-12T13:33:04Z</time>
      </trkpt>
      <trkpt lat="44.64623" lon="6.65557">
        <ele>1189.1</ele>
        <time>2022-06-12T13:33:05Z</time>
      </trkpt>
      <trkpt lat="44.64636" lon="6.65559">
        <ele>1188.6</ele>
        <time>2022-06-12T13:33:06Z</time>
      </trkpt>
      <trkpt lat="44.6465" lon="6.65561">
        <ele>1187.3</ele>
        <time>2022-06-12T13:33:07Z</time>
      </trkpt>
      <trkpt lat="44.64664" lon="6.65563">
        <ele>1185.7</ele>
        <time>2022-06-12T13:33:08Z</time>
      </trkpt>
      <trkpt lat="44.64678" lon="6.65563">
        <ele>1184.1</ele>
        <time>2022-06-12T13:33:09Z</time>
      </trkpt>
      <trkpt lat="44.64693" lon="6.65563">
        <ele>1182.3</ele>
        <time>2022-06-12T13:33:10Z</time>
      </trkpt>
      <trkpt lat="44.64707" lon="6.65562">
        <ele>1180.4</ele>
        <time>2022-06-12T13:33:11Z</time>
      </trkpt>
      <trkpt lat="44.64722" lon="6.65561">
        <ele>1178.2</ele>
        <time>2022-06-12T13:33:12Z</time>
      </trkpt>
      <trkpt lat="44.64737" lon="6.65558">
        <ele>1175.9</ele>
        <time>2022-06-12T13:33:13Z</time>
      </trkpt>
      <trkpt lat="44.64752" lon="6.65554">
        <ele>1173.5</ele>
        <time>2022-06-12T13:33:14Z</time>
      </trkpt>
      <trkpt lat="44.64766" lon="6.65549">
        <ele>1171.1</ele>
        <time>2022-06-12T13:33:15Z</time>
      </trkpt>
      <trkpt lat="44.64781" lon="6.65544">
        <ele>1168.9</ele>
        <time>2022-06-12T13:33:16Z</time>
      </trkpt>
      <trkpt lat="44.64797" lon="6.65541">
        <ele>1166.9</ele>
        <time>2022-06-12T13:33:17Z</time>
      </trkpt>
      <trkpt lat="44.64813" lon="6.65538">
        <ele>1165.2</ele>
        <time>2022-06-12T13:33:18Z</time>
      </trkpt>
      <trkpt lat="44.64829" lon="6.65536">
        <ele>1163.3</ele>
        <time>2022-06-12T13:33:19Z</time>
      </trkpt>
      <trkpt lat="44.64845" lon="6.65532">
        <ele>1161.4</ele>
        <time>2022-06-12T13:33:20Z</time>
      </trkpt>
      <trkpt lat="44.6486" lon="6.65525">
        <ele>1159.5</ele>
        <time>2022-06-12T13:33:21Z</time>
      </trkpt>
      <trkpt lat="44.64875" lon="6.65516">
        <ele>1155.8</ele>
        <time>2022-06-12T13:33:22Z</time>
      </trkpt>
      <trkpt lat="44.64889" lon="6.65505">
        <ele>1154</ele>
        <time>2022-06-12T13:33:23Z</time>
      </trkpt>
      <trkpt lat="44.64903" lon="6.65494">
        <ele>1150.7</ele>
        <time>2022-06-12T13:33:24Z</time>
      </trkpt>
      <trkpt lat="44.64917" lon="6.65484">
        <ele>1148.2</ele>
        <time>2022-06-12T13:33:25Z</time>
      </trkpt>
      <trkpt lat="44.64931" lon="6.65477">
        <ele>1147</ele>
        <time>2022-06-12T13:33:26Z</time>
      </trkpt>
      <trkpt lat="44.64945" lon="6.65472">
        <ele>1146.9</ele>
        <time>2022-06-12T13:33:27Z</time>
      </trkpt>
      <trkpt lat="44.64959" lon="6.65469">
        <ele>1145.7</ele>
        <time>2022-06-12T13:33:28Z</time>
      </trkpt>
      <trkpt lat="44.64971" lon="6.65464">
        <ele>1144.7</ele>
        <time>2022-06-12T13:33:29Z</time>
      </trkpt>
      <trkpt lat="44.64983" lon="6.65456">
        <ele>1144.1</ele>
        <time>2022-06-12T13:33:30Z</time>
      </trkpt>
      <trkpt lat="44.64993" lon="6.65445">
        <ele>1144</ele>
        <time>2022-06-12T13:33:31Z</time>
      </trkpt>
      <trkpt lat="44.65001" lon="6.65432">
        <ele>1143</ele>
        <time>2022-06-12T13:33:32Z</time>
      </trkpt>
      <trkpt lat="44.65007" lon="6.65416">
        <ele>1141.9</ele>
        <time>2022-06-12T13:33:33Z</time>
      </trkpt>
      <trkpt lat="44.6501" lon="6.65399">
        <ele>1140.9</ele>
        <time>2022-06-12T13:33:34Z</time>
      </trkpt>
      <trkpt lat="44.65011" lon="6.65382">
        <ele>1139.8</ele>
        <time>2022-06-12T13:33:35Z</time>
      </trkpt>
      <trkpt lat="44.6501" lon="6.65364">
        <ele>1138.3</ele>
        <time>2022-06-12T13:33:36Z</time>
      </trkpt>
      <trkpt lat="44.65009" lon="6.65347">
        <ele>1137.3</ele>
        <time>2022-06-12T13:33:37Z</time>
      </trkpt>
      <trkpt lat="44.6501" lon="6.65331">
        <ele>1136.5</ele>
        <time>2022-06-12T13:33:38Z</time>
      </trkpt>
      <trkpt lat="44.65012" lon="6.65316">
        <ele>1135.2</ele>
        <time>2022-06-12T13:33:39Z</time>
      </trkpt>
      <trkpt lat="44.65016" lon="6.65302">
        <ele>1134.5</ele>
        <time>2022-06-12T13:33:40Z</time>
      </trkpt>
      <trkpt lat="44.65023" lon="6.65289">
        <ele>1134.4</ele>
        <time>2022-06-12T13:33:41Z</time>
      </trkpt>
      <trkpt lat="44.65031" lon="6.65278">
        <ele>1134</ele>
        <time>2022-06-12T13:33:42Z</time>
      </trkpt>
      <trkpt lat="44.6504" lon="6.65266">
        <ele>1132.3</ele>
        <time>2022-06-12T13:33:43Z</time>
      </trkpt>
      <trkpt lat="44.65048" lon="6.65253">
        <ele>1130.9</ele>
        <time>2022-06-12T13:33:44Z</time>
      </trkpt>
      <trkpt lat="44.65055" lon="6.65239">
        <ele>1129.7</ele>
        <time>2022-06-12T13:33:45Z</time>
      </trkpt>
      <trkpt lat="44.6506" lon="6.65225">
        <ele>1128.6</ele>
        <time>2022-06-12T13:33:46Z</time>
      </trkpt>
      <trkpt lat="44.65064" lon="6.65209">
        <ele>1127.3</ele>
        <time>2022-06-12T13:33:47Z</time>
      </trkpt>
      <trkpt lat="44.65064" lon="6.65192">
        <ele>1125.8</ele>
        <time>2022-06-12T13:33:48Z</time>
      </trkpt>
      <trkpt lat="44.65063" lon="6.65176">
        <ele>1124.4</ele>
        <time>2022-06-12T13:33:49Z</time>
      </trkpt>
      <trkpt lat="44.6506" lon="6.65159">
        <ele>1123.2</ele>
        <time>2022-06-12T13:33:50Z</time>
      </trkpt>
      <trkpt lat="44.65056" lon="6.65143">
        <ele>1122.2</ele>
        <time>2022-06-12T13:33:51Z</time>
      </trkpt>
      <trkpt lat="44.65053" lon="6.65126">
        <ele>1120.2</ele>
        <time>2022-06-12T13:33:52Z</time>
      </trkpt>
      <trkpt lat="44.65052" lon="6.65109">
        <ele>1118.5</ele>
        <time>2022-06-12T13:33:53Z</time>
      </trkpt>
      <trkpt lat="44.65055" lon="6.65093">
        <ele>1118.4</ele>
        <time>2022-06-12T13:33:54Z</time>
      </trkpt>
      <trkpt lat="44.65061" lon="6.65078">
        <ele>1117.4</ele>
        <time>2022-06-12T13:33:55Z</time>
      </trkpt>
      <trkpt lat="44.65069" lon="6.65066">
        <ele>1115.5</ele>
        <time>2022-06-12T13:33:56Z</time>
      </trkpt>
      <trkpt lat="44.65078" lon="6.65058">
        <ele>1114.3</ele>
        <time>2022-06-12T13:33:57Z</time>
      </trkpt>
      <trkpt lat="44.65089" lon="6.65054">
        <ele>1113.2</ele>
        <time>2022-06-12T13:33:58Z</time>
      </trkpt>
      <trkpt lat="44.651" lon="6.65054">
        <ele>1112.5</ele>
        <time>2022-06-12T13:33:59Z</time>
      </trkpt>
      <trkpt lat="44.65112" lon="6.65058">
        <ele>1112.3</ele>
        <time>2022-06-12T13:34:00Z</time>
      </trkpt>
      <trkpt lat="44.65123" lon="6.65061">
        <ele>1112</ele>
        <time>2022-06-12T13:34:01Z</time>
      </trkpt>
      <trkpt lat="44.65135" lon="6.65062">
        <ele>1111.4</ele>
        <time>2022-06-12T13:34:02Z</time>
      </trkpt>
      <trkpt lat="44.65148" lon="6.6506">
        <ele>1110.7</ele>
        <time>2022-06-12T13:34:03Z</time>
      </trkpt>
      <trkpt lat="44.6516" lon="6.65056">
        <ele>1110</ele>
        <time>2022-06-12T13:34:04Z</time>
      </trkpt>
      <trkpt lat="44.65172" lon="6.65051">
        <ele>1108.7</ele>
        <time>2022-06-12T13:34:05Z</time>
      </trkpt>
      <trkpt lat="44.65184" lon="6.65046">
        <ele>1107.5</ele>
        <time>2022-06-12T13:34:06Z</time>
      </trkpt>
      <trkpt lat="44.65197" lon="6.6504">
        <ele>1106.3</ele>
        <time>2022-06-12T13:34:07Z</time>
      </trkpt>
      <trkpt lat="44.6521" lon="6.65034">
        <ele>1105.1</ele>
        <time>2022-06-12T13:34:08Z</time>
      </trkpt>
      <trkpt lat="44.65223" lon="6.65027">
        <ele>1103.8</ele>
        <time>2022-06-12T13:34:09Z</time>
      </trkpt>
      <trkpt lat="44.65235" lon="6.6502">
        <ele>1101.4</ele>
        <time>2022-06-12T13:34:10Z</time>
      </trkpt>
      <trkpt lat="44.65247" lon="6.65013">
        <ele>1099.5</ele>
        <time>2022-06-12T13:34:11Z</time>
      </trkpt>
      <trkpt lat="44.65257" lon="6.65005">
        <ele>1096.9</ele>
        <time>2022-06-12T13:34:12Z</time>
      </trkpt>
      <trkpt lat="44.65267" lon="6.64998">
        <ele>1094.7</ele>
        <time>2022-06-12T13:34:13Z</time>
      </trkpt>
      <trkpt lat="44.65277" lon="6.64994">
        <ele>1093.6</ele>
        <time>2022-06-12T13:34:14Z</time>
      </trkpt>
      <trkpt lat="44.65287" lon="6.64995">
        <ele>1092.2</ele>
        <time>2022-06-12T13:34:15Z</time>
      </trkpt>
      <trkpt lat="44.65297" lon="6.65001">
        <ele>1091.6</ele>
        <time>2022-06-12T13:34:16Z</time>
      </trkpt>
      <trkpt lat="44.65305" lon="6.65012">
        <ele>1090.5</ele>
        <time>2022-06-12T13:34:17Z</time>
      </trkpt>
      <trkpt lat="44.65311" lon="6.65027">
        <ele>1089.4</ele>
        <time>2022-06-12T13:34:18Z</time>
      </trkpt>
      <trkpt lat="44.65314" lon="6.65043">
        <ele>1088.4</ele>
        <time>2022-06-12T13:34:19Z</time>
      </trkpt>
      <trkpt lat="44.65316" lon="6.6506">
        <ele>1087.7</ele>
        <time>2022-06-12T13:34:20Z</time>
      </trkpt>
      <trkpt lat="44.65319" lon="6.65078">
        <ele>1087.4</ele>
        <time>2022-06-12T13:34:21Z</time>
      </trkpt>
      <trkpt lat="44.65322" lon="6.65096">
        <ele>1086.2</ele>
        <time>2022-06-12T13:34:22Z</time>
      </trkpt>
      <trkpt lat="44.65325" lon="6.65114">
        <ele>1084.6</ele>
        <time>2022-06-12T13:34:23Z</time>
      </trkpt>
      <trkpt lat="44.65328" lon="6.65133">
        <ele>1082.9</ele>
        <time>2022-06-12T13:34:24Z</time>
      </trkpt>
      <trkpt lat="44.65331" lon="6.65152">
        <ele>1081.8</ele>
        <time>2022-06-12T13:34:25Z</time>
      </trkpt>
      <trkpt lat="44.65333" lon="6.6517">
        <ele>1080.9</ele>
        <time>2022-06-12T13:34:26Z</time>
      </trkpt>
      <trkpt lat="44.65338" lon="6.65187">
        <ele>1079.8</ele>
        <time>2022-06-12T13:34:27Z</time>
      </trkpt>
      <trkpt lat="44.65344" lon="6.65201">
        <ele>1078.8</ele>
        <time>2022-06-12T13:34:28Z</time>
      </trkpt>
      <trkpt lat="44.65353" lon="6.65211">
        <ele>1077.5</ele>
        <time>2022-06-12T13:34:29Z</time>
      </trkpt>
      <trkpt lat="44.65363" lon="6.65216">
        <ele>1075.8</ele>
        <time>2022-06-12T13:34:30Z</time>
      </trkpt>
      <trkpt lat="44.65374" lon="6.65216">
        <ele>1073.7</ele>
        <time>2022-06-12T13:34:31Z</time>
      </trkpt>
      <trkpt lat="44.65386" lon="6.6521">
        <ele>1072.3</ele>
        <time>2022-06-12T13:34:32Z</time>
      </trkpt>
      <trkpt lat="44.65396" lon="6.65202">
        <ele>1070.7</ele>
        <time>2022-06-12T13:34:33Z</time>
      </trkpt>
      <trkpt lat="44.65406" lon="6.65191">
        <ele>1069.4</ele>
        <time>2022-06-12T13:34:34Z</time>
      </trkpt>
      <trkpt lat="44.65415" lon="6.65178">
        <ele>1068.7</ele>
        <time>2022-06-12T13:34:35Z</time>
      </trkpt>
      <trkpt lat="44.65422" lon="6.65163">
        <ele>1067.9</ele>
        <time>2022-06-12T13:34:36Z</time>
      </trkpt>
      <trkpt lat="44.65427" lon="6.65147">
        <ele>1066.7</ele>
        <time>2022-06-12T13:34:37Z</time>
      </trkpt>
      <trkpt lat="44.65429" lon="6.65129">
        <ele>1065.8</ele>
        <time>2022-06-12T13:34:38Z</time>
      </trkpt>
      <trkpt lat="44.6543" lon="6.6511">
        <ele>1064.5</ele>
        <time>2022-06-12T13:34:39Z</time>
      </trkpt>
      <trkpt lat="44.65431" lon="6.65092">
        <ele>1063.1</ele>
        <time>2022-06-12T13:34:40Z</time>
      </trkpt>
      <trkpt lat="44.65431" lon="6.65074">
        <ele>1061.6</ele>
        <time>2022-06-12T13:34:41Z</time>
      </trkpt>
      <trkpt lat="44.65428" lon="6.65057">
        <ele>1060.6</ele>
        <time>2022-06-12T13:34:42Z</time>
      </trkpt>
      <trkpt lat="44.65423" lon="6.65043">
        <ele>1060.9</ele>
        <time>2022-06-12T13:34:43Z</time>
      </trkpt>
      <trkpt lat="44.65414" lon="6.65032">
        <ele>1061.7</ele>
        <time>2022-06-12T13:34:44Z</time>
      </trkpt>
      <trkpt lat="44.65404" lon="6.65022">
        <ele>1062.1</ele>
        <time>2022-06-12T13:34:45Z</time>
      </trkpt>
      <trkpt lat="44.65394" lon="6.65014">
        <ele>1062.3</ele>
        <time>2022-06-12T13:34:46Z</time>
      </trkpt>
      <trkpt lat="44.65387" lon="6.65004">
        <ele>1062.2</ele>
        <time>2022-06-12T13:34:47Z</time>
      </trkpt>
      <trkpt lat="44.65383" lon="6.64992">
        <ele>1062.3</ele>
        <time>2022-06-12T13:34:48Z</time>
      </trkpt>
      <trkpt lat="44.65382" lon="6.6498">
        <ele>1061.5</ele>
        <time>2022-06-12T13:34:49Z</time>
      </trkpt>
      <trkpt lat="44.65385" lon="6.64969">
        <ele>1059.8</ele>
        <time>2022-06-12T13:34:50Z</time>
      </trkpt>
      <trkpt lat="44.65392" lon="6.64961">
        <ele>1057.7</ele>
        <time>2022-06-12T13:34:51Z</time>
      </trkpt>
      <trkpt lat="44.65401" lon="6.64958">
        <ele>1056.1</ele>
        <time>2022-06-12T13:34:52Z</time>
      </trkpt>
      <trkpt lat="44.6541" lon="6.64959">
        <ele>1054.6</ele>
        <time>2022-06-12T13:34:53Z</time>
      </trkpt>
      <trkpt lat="44.6542" lon="6.64962">
        <ele>1053.6</ele>
        <time>2022-06-12T13:34:54Z</time>
      </trkpt>
      <trkpt lat="44.6543" lon="6.64966">
        <ele>1052.9</ele>
        <time>2022-06-12T13:34:55Z</time>
      </trkpt>
      <trkpt lat="44.6544" lon="6.64969">
        <ele>1052.1</ele>
        <time>2022-06-12T13:34:56Z</time>
      </trkpt>
      <trkpt lat="44.65451" lon="6.6497">
        <ele>1051</ele>
        <time>2022-06-12T13:34:57Z</time>
      </trkpt>
      <trkpt lat="44.65462" lon="6.64969">
        <ele>1049.7</ele>
        <time>2022-06-12T13:34:58Z</time>
      </trkpt>
      <trkpt lat="44.65473" lon="6.64968">
        <ele>1048.3</ele>
        <time>2022-06-12T13:34:59Z</time>
      </trkpt>
      <trkpt lat="44.65485" lon="6.64971">
        <ele>1047.1</ele>
        <time>2022-06-12T13:35:00Z</time>
      </trkpt>
      <trkpt lat="44.65495" lon="6.64979">
        <ele>1046.2</ele>
        <time>2022-06-12T13:35:01Z</time>
      </trkpt>
      <trkpt lat="44.65504" lon="6.64991">
        <ele>1045.6</ele>
        <time>2022-06-12T13:35:02Z</time>
      </trkpt>
      <trkpt lat="44.65511" lon="6.65006">
        <ele>1045.4</ele>
        <time>2022-06-12T13:35:03Z</time>
      </trkpt>
      <trkpt lat="44.65517" lon="6.65021">
        <ele>1045.1</ele>
        <time>2022-06-12T13:35:04Z</time>
      </trkpt>
      <trkpt lat="44.65524" lon="6.65036">
        <ele>1043.9</ele>
        <time>2022-06-12T13:35:05Z</time>
      </trkpt>
      <trkpt lat="44.65533" lon="6.6505">
        <ele>1042.1</ele>
        <time>2022-06-12T13:35:06Z</time>
      </trkpt>
      <trkpt lat="44.65542" lon="6.65063">
        <ele>1040.3</ele>
        <time>2022-06-12T13:35:07Z</time>
      </trkpt>
      <trkpt lat="44.65549" lon="6.65076">
        <ele>1038.5</ele>
        <time>2022-06-12T13:35:08Z</time>
      </trkpt>
      <trkpt lat="44.65553" lon="6.65089">
        <ele>1037</ele>
        <time>2022-06-12T13:35:09Z</time>
      </trkpt>
      <trkpt lat="44.65553" lon="6.65103">
        <ele>1036</ele>
        <time>2022-06-12T13:35:10Z</time>
      </trkpt>
      <trkpt lat="44.6555" lon="6.65116">
        <ele>1035.7</ele>
        <time>2022-06-12T13:35:11Z</time>
      </trkpt>
      <trkpt lat="44.65543" lon="6.65126">
        <ele>1035.9</ele>
        <time>2022-06-12T13:35:12Z</time>
      </trkpt>
      <trkpt lat="44.65535" lon="6.65133">
        <ele>1036.6</ele>
        <time>2022-06-12T13:35:13Z</time>
      </trkpt>
      <trkpt lat="44.65526" lon="6.65139">
        <ele>1037.5</ele>
        <time>2022-06-12T13:35:14Z</time>
      </trkpt>
      <trkpt lat="44.65518" lon="6.65145">
        <ele>1038.5</ele>
        <time>2022-06-12T13:35:15Z</time>
      </trkpt>
      <trkpt lat="44.65511" lon="6.65151">
        <ele>1039.3</ele>
        <time>2022-06-12T13:35:16Z</time>
      </trkpt>
      <trkpt lat="44.65505" lon="6.65158">
        <ele>1040</ele>
        <time>2022-06-12T13:35:17Z</time>
      </trkpt>
      <trkpt lat="44.65499" lon="6.65164">
        <ele>1040.6</ele>
        <time>2022-06-12T13:35:18Z</time>
      </trkpt>
      <trkpt lat="44.65494" lon="6.65168">
        <ele>1041.3</ele>
        <time>2022-06-12T13:35:19Z</time>
      </trkpt>
      <trkpt lat="44.6549" lon="6.65172">
        <ele>1041.9</ele>
        <time>2022-06-12T13:35:20Z</time>
      </trkpt>
      <trkpt lat="44.65486" lon="6.65178">
        <ele>1042</ele>
        <time>2022-06-12T13:35:21Z</time>
      </trkpt>
      <trkpt lat="44.65484" lon="6.65184">
        <ele>1041.6</ele>
        <time>2022-06-12T13:35:22Z</time>
      </trkpt>
      <trkpt lat="44.65484" lon="6.65192">
        <ele>1040.3</ele>
        <time>2022-06-12T13:35:23Z</time>
      </trkpt>
      <trkpt lat="44.65487" lon="6.65201">
        <ele>1038.4</ele>
        <time>2022-06-12T13:35:24Z</time>
      </trkpt>
      <trkpt lat="44.65491" lon="6.65207">
        <ele>1036.3</ele>
        <time>2022-06-12T13:35:25Z</time>
      </trkpt>
      <trkpt lat="44.65497" lon="6.65212">
        <ele>1034.2</ele>
        <time>2022-06-12T13:35:26Z</time>
      </trkpt>
      <trkpt lat="44.65504" lon="6.65216">
        <ele>1032.5</ele>
        <time>2022-06-12T13:35:27Z</time>
      </trkpt>
      <trkpt lat="44.65509" lon="6.65222">
        <ele>1031</ele>
        <time>2022-06-12T13:35:28Z</time>
      </trkpt>
      <trkpt lat="44.65514" lon="6.6523">
        <ele>1030.3</ele>
        <time>2022-06-12T13:35:29Z</time>
      </trkpt>
      <trkpt lat="44.6552" lon="6.65238">
        <ele>1029.7</ele>
        <time>2022-06-12T13:35:30Z</time>
      </trkpt>
      <trkpt lat="44.65525" lon="6.65246">
        <ele>1029.2</ele>
        <time>2022-06-12T13:35:31Z</time>
      </trkpt>
      <trkpt lat="44.65531" lon="6.65253">
        <ele>1029.3</ele>
        <time>2022-06-12T13:35:32Z</time>
      </trkpt>
      <trkpt lat="44.65537" lon="6.65258">
        <ele>1029.7</ele>
        <time>2022-06-12T13:35:33Z</time>
      </trkpt>
      <trkpt lat="44.65544" lon="6.65261">
        <ele>1029.6</ele>
        <time>2022-06-12T13:35:34Z</time>
      </trkpt>
      <trkpt lat="44.6555" lon="6.65263">
        <ele>1029.3</ele>
        <time>2022-06-12T13:35:35Z</time>
      </trkpt>
      <trkpt lat="44.65557" lon="6.65264">
        <ele>1028.8</ele>
        <time>2022-06-12T13:35:36Z</time>
      </trkpt>
      <trkpt lat="44.65563" lon="6.65263">
        <ele>1028.1</ele>
        <time>2022-06-12T13:35:37Z</time>
      </trkpt>
      <trkpt lat="44.6557" lon="6.65262">
        <ele>1027.1</ele>
        <time>2022-06-12T13:35:38Z</time>
      </trkpt>
      <trkpt lat="44.65577" lon="6.65258">
        <ele>1025.8</ele>
        <time>2022-06-12T13:35:39Z</time>
      </trkpt>
      <trkpt lat="44.65585" lon="6.65255">
        <ele>1024.6</ele>
        <time>2022-06-12T13:35:40Z</time>
      </trkpt>
      <trkpt lat="44.65593" lon="6.6525">
        <ele>1023.3</ele>
        <time>2022-06-12T13:35:41Z</time>
      </trkpt>
      <trkpt lat="44.65601" lon="6.65245">
        <ele>1022.5</ele>
        <time>2022-06-12T13:35:42Z</time>
      </trkpt>
      <trkpt lat="44.6561" lon="6.65239">
        <ele>1021.7</ele>
        <time>2022-06-12T13:35:43Z</time>
      </trkpt>
      <trkpt lat="44.65619" lon="6.65234">
        <ele>1020.9</ele>
        <time>2022-06-12T13:35:44Z</time>
      </trkpt>
      <trkpt lat="44.65628" lon="6.65228">
        <ele>1020.1</ele>
        <time>2022-06-12T13:35:45Z</time>
      </trkpt>
      <trkpt lat="44.65637" lon="6.65221">
        <ele>1019.1</ele>
        <time>2022-06-12T13:35:46Z</time>
      </trkpt>
      <trkpt lat="44.65645" lon="6.65214">
        <ele>1018.7</ele>
        <time>2022-06-12T13:35:47Z</time>
      </trkpt>
      <trkpt lat="44.65652" lon="6.65206">
        <ele>1018.2</ele>
        <time>2022-06-12T13:35:48Z</time>
      </trkpt>
      <trkpt lat="44.65659" lon="6.65198">
        <ele>1017.7</ele>
        <time>2022-06-12T13:35:49Z</time>
      </trkpt>
      <trkpt lat="44.65665" lon="6.65192">
        <ele>1017.1</ele>
        <time>2022-06-12T13:35:50Z</time>
      </trkpt>
      <trkpt lat="44.65671" lon="6.65187">
        <ele>1016.4</ele>
        <time>2022-06-12T13:35:51Z</time>
      </trkpt>
      <trkpt lat="44.65676" lon="6.6518">
        <ele>1015.8</ele>
        <time>2022-06-12T13:35:52Z</time>
      </trkpt>
      <trkpt lat="44.65681" lon="6.65172">
        <ele>1015.2</ele>
        <time>2022-06-12T13:35:53Z</time>
      </trkpt>
      <trkpt lat="44.65685" lon="6.65162">
        <ele>1014.6</ele>
        <time>2022-06-12T13:35:54Z</time>
      </trkpt>
      <trkpt lat="44.65689" lon="6.65151">
        <ele>1014</ele>
        <time>2022-06-12T13:35:55Z</time>
      </trkpt>
      <trkpt lat="44.65695" lon="6.65143">
        <ele>1013.1</ele>
        <time>2022-06-12T13:35:56Z</time>
      </trkpt>
      <trkpt lat="44.65702" lon="6.65137">
        <ele>1012.4</ele>
        <time>2022-06-12T13:35:57Z</time>
      </trkpt>
      <trkpt lat="44.6571" lon="6.65133">
        <ele>1011.7</ele>
        <time>2022-06-12T13:35:58Z</time>
      </trkpt>
      <trkpt lat="44.65718" lon="6.65127">
        <ele>1010.9</ele>
        <time>2022-06-12T13:35:59Z</time>
      </trkpt>
      <trkpt lat="44.65726" lon="6.6512">
        <ele>1010.1</ele>
        <time>2022-06-12T13:36:00Z</time>
      </trkpt>
      <trkpt lat="44.65733" lon="6.65113">
        <ele>1009.3</ele>
        <time>2022-06-12T13:36:01Z</time>
      </trkpt>
      <trkpt lat="44.65741" lon="6.65106">
        <ele>1008.7</ele>
        <time>2022-06-12T13:36:02Z</time>
      </trkpt>
      <trkpt lat="44.65749" lon="6.65098">
        <ele>1008.1</ele>
        <time>2022-06-12T13:36:03Z</time>
      </trkpt>
      <trkpt lat="44.65758" lon="6.6509">
        <ele>1007.5</ele>
        <time>2022-06-12T13:36:04Z</time>
      </trkpt>
      <trkpt lat="44.65766" lon="6.65083">
        <ele>1006.9</ele>
        <time>2022-06-12T13:36:05Z</time>
      </trkpt>
      <trkpt lat="44.65775" lon="6.65075">
        <ele>1006.5</ele>
        <time>2022-06-12T13:36:06Z</time>
      </trkpt>
      <trkpt lat="44.65785" lon="6.65068">
        <ele>1005.8</ele>
        <time>2022-06-12T13:36:07Z</time>
      </trkpt>
      <trkpt lat="44.65794" lon="6.6506">
        <ele>1005.1</ele>
        <time>2022-06-12T13:36:08Z</time>
      </trkpt>
      <trkpt lat="44.65804" lon="6.65053">
        <ele>1004.6</ele>
        <time>2022-06-12T13:36:09Z</time>
      </trkpt>
      <trkpt lat="44.65813" lon="6.65045">
        <ele>1004.6</ele>
        <time>2022-06-12T13:36:10Z</time>
      </trkpt>
      <trkpt lat="44.65822" lon="6.65035">
        <ele>1004.3</ele>
        <time>2022-06-12T13:36:11Z</time>
      </trkpt>
      <trkpt lat="44.6583" lon="6.65023">
        <ele>1004.3</ele>
        <time>2022-06-12T13:36:12Z</time>
      </trkpt>
      <trkpt lat="44.65836" lon="6.65008">
        <ele>1004.7</ele>
        <time>2022-06-12T13:36:13Z</time>
      </trkpt>
      <trkpt lat="44.65839" lon="6.64992">
        <ele>1004.3</ele>
        <time>2022-06-12T13:36:14Z</time>
      </trkpt>
      <trkpt lat="44.65839" lon="6.64976">
        <ele>1003.2</ele>
        <time>2022-06-12T13:36:15Z</time>
      </trkpt>
      <trkpt lat="44.65838" lon="6.64959">
        <ele>1002.5</ele>
        <time>2022-06-12T13:36:16Z</time>
      </trkpt>
      <trkpt lat="44.65836" lon="6.64941">
        <ele>1001.7</ele>
        <time>2022-06-12T13:36:17Z</time>
      </trkpt>
      <trkpt lat="44.65835" lon="6.64924">
        <ele>999</ele>
        <time>2022-06-12T13:36:18Z</time>
      </trkpt>
      <trkpt lat="44.65833" lon="6.64906">
        <ele>996.8</ele>
        <time>2022-06-12T13:36:19Z</time>
      </trkpt>
      <trkpt lat="44.65831" lon="6.64887">
        <ele>995.8</ele>
        <time>2022-06-12T13:36:20Z</time>
      </trkpt>
      <trkpt lat="44.65828" lon="6.64869">
        <ele>995.6</ele>
        <time>2022-06-12T13:36:21Z</time>
      </trkpt>
      <trkpt lat="44.65825" lon="6.6485">
        <ele>995.4</ele>
        <time>2022-06-12T13:36:22Z</time>
      </trkpt>
      <trkpt lat="44.65822" lon="6.64831">
        <ele>994.6</ele>
        <time>2022-06-12T13:36:23Z</time>
      </trkpt>
      <trkpt lat="44.65819" lon="6.64812">
        <ele>992.6</ele>
        <time>2022-06-12T13:36:24Z</time>
      </trkpt>
      <trkpt lat="44.65817" lon="6.64793">
        <ele>991</ele>
        <time>2022-06-12T13:36:25Z</time>
      </trkpt>
      <trkpt lat="44.65814" lon="6.64773">
        <ele>989.6</ele>
        <time>2022-06-12T13:36:26Z</time>
      </trkpt>
      <trkpt lat="44.65811" lon="6.64754">
        <ele>987.5</ele>
        <time>2022-06-12T13:36:27Z</time>
      </trkpt>
      <trkpt lat="44.65809" lon="6.64735">
        <ele>985.4</ele>
        <time>2022-06-12T13:36:28Z</time>
      </trkpt>
      <trkpt lat="44.65806" lon="6.64715">
        <ele>983.3</ele>
        <time>2022-06-12T13:36:29Z</time>
      </trkpt>
      <trkpt lat="44.65803" lon="6.64696">
        <ele>983</ele>
        <time>2022-06-12T13:36:30Z</time>
      </trkpt>
      <trkpt lat="44.658" lon="6.64676">
        <ele>983.2</ele>
        <time>2022-06-12T13:36:31Z</time>
      </trkpt>
      <trkpt lat="44.65797" lon="6.64657">
        <ele>983.4</ele>
        <time>2022-06-12T13:36:32Z</time>
      </trkpt>
      <trkpt lat="44.65794" lon="6.64639">
        <ele>983.1</ele>
        <time>2022-06-12T13:36:33Z</time>
      </trkpt>
      <trkpt lat="44.65792" lon="6.64622">
        <ele>980.2</ele>
        <time>2022-06-12T13:36:34Z</time>
      </trkpt>
      <trkpt lat="44.65791" lon="6.64604">
        <ele>977.1</ele>
        <time>2022-06-12T13:36:35Z</time>
      </trkpt>
      <trkpt lat="44.6579" lon="6.64588">
        <ele>974.8</ele>
        <time>2022-06-12T13:36:36Z</time>
      </trkpt>
      <trkpt lat="44.6579" lon="6.64574">
        <ele>973.4</ele>
        <time>2022-06-12T13:36:37Z</time>
      </trkpt>
      <trkpt lat="44.6579" lon="6.64562">
        <ele>972.5</ele>
        <time>2022-06-12T13:36:38Z</time>
      </trkpt>
      <trkpt lat="44.65791" lon="6.64552">
        <ele>971.9</ele>
        <time>2022-06-12T13:36:39Z</time>
      </trkpt>
      <trkpt lat="44.65793" lon="6.64544">
        <ele>971.6</ele>
        <time>2022-06-12T13:36:40Z</time>
      </trkpt>
      <trkpt lat="44.65795" lon="6.64536">
        <ele>971.3</ele>
        <time>2022-06-12T13:36:41Z</time>
      </trkpt>
      <trkpt lat="44.65798" lon="6.6453">
        <ele>971.1</ele>
        <time>2022-06-12T13:36:42Z</time>
      </trkpt>
      <trkpt lat="44.65802" lon="6.64524">
        <ele>971</ele>
        <time>2022-06-12T13:36:43Z</time>
      </trkpt>
      <trkpt lat="44.65806" lon="6.64519">
        <ele>971</ele>
        <time>2022-06-12T13:36:44Z</time>
      </trkpt>
      <trkpt lat="44.6581" lon="6.64513">
        <ele>971</ele>
        <time>2022-06-12T13:36:45Z</time>
      </trkpt>
      <trkpt lat="44.65811" lon="6.64505">
        <ele>971</ele>
        <time>2022-06-12T13:36:46Z</time>
      </trkpt>
      <trkpt lat="44.6581" lon="6.64496">
        <ele>971</ele>
        <time>2022-06-12T13:36:47Z</time>
      </trkpt>
      <trkpt lat="44.65806" lon="6.64489">
        <ele>971</ele>
        <time>2022-06-12T13:36:48Z</time>
      </trkpt>
      <trkpt lat="44.658" lon="6.64486">
        <ele>970.7</ele>
        <time>2022-06-12T13:36:49Z</time>
      </trkpt>
      <trkpt lat="44.65794" lon="6.64484">
        <ele>970.3</ele>
        <time>2022-06-12T13:36:50Z</time>
      </trkpt>
      <trkpt lat="44.65789" lon="6.64482">
        <ele>970</ele>
        <time>2022-06-12T13:36:51Z</time>
      </trkpt>
      <trkpt lat="44.65785" lon="6.64477">
        <ele>969.6</ele>
        <time>2022-06-12T13:36:52Z</time>
      </trkpt>
      <trkpt lat="44.65781" lon="6.64472">
        <ele>969.2</ele>
        <time>2022-06-12T13:36:53Z</time>
      </trkpt>
      <trkpt lat="44.65777" lon="6.64467">
        <ele>968.7</ele>
        <time>2022-06-12T13:36:54Z</time>
      </trkpt>
      <trkpt lat="44.65773" lon="6.64462">
        <ele>968.6</ele>
        <time>2022-06-12T13:36:55Z</time>
      </trkpt>
      <trkpt lat="44.6577" lon="6.64457">
        <ele>968.5</ele>
        <time>2022-06-12T13:36:56Z</time>
      </trkpt>
      <trkpt lat="44.65767" lon="6.64453">
        <ele>968.5</ele>
        <time>2022-06-12T13:36:57Z</time>
      </trkpt>
      <trkpt lat="44.65765" lon="6.64452">
        <ele>968.7</ele>
        <time>2022-06-12T13:36:58Z</time>
      </trkpt>
      <trkpt lat="44.65765" lon="6.64455">
        <ele>968.8</ele>
        <time>2022-06-12T13:36:59Z</time>
      </trkpt>
      <trkpt lat="44.65766" lon="6.64457">
        <ele>968.8</ele>
        <time>2022-06-12T13:37:00Z</time>
      </trkpt>
      <trkpt lat="44.65767" lon="6.6446">
        <ele>968.8</ele>
        <time>2022-06-12T13:37:01Z</time>
      </trkpt>
      <trkpt lat="44.65769" lon="6.64462">
        <ele>968.9</ele>
        <time>2022-06-12T13:37:02Z</time>
      </trkpt>
      <trkpt lat="44.6577" lon="6.64465">
        <ele>968.9</ele>
        <time>2022-06-12T13:37:03Z</time>
      </trkpt>
      <trkpt lat="44.65772" lon="6.64467">
        <ele>968.9</ele>
        <time>2022-06-12T13:37:04Z</time>
      </trkpt>
      <trkpt lat="44.65775" lon="6.6447">
        <ele>969</ele>
        <time>2022-06-12T13:37:05Z</time>
      </trkpt>
      <trkpt lat="44.65777" lon="6.64473">
        <ele>969</ele>
        <time>2022-06-12T13:37:06Z</time>
      </trkpt>
      <trkpt lat="44.6578" lon="6.64476">
        <ele>969.3</ele>
        <time>2022-06-12T13:37:07Z</time>
      </trkpt>
      <trkpt lat="44.65782" lon="6.6448">
        <ele>969.5</ele>
        <time>2022-06-12T13:37:08Z</time>
      </trkpt>
      <trkpt lat="44.65782" lon="6.64484">
        <ele>969.7</ele>
        <time>2022-06-12T13:37:09Z</time>
      </trkpt>
      <trkpt lat="44.6578" lon="6.64488">
        <ele>969.7</ele>
        <time>2022-06-12T13:37:10Z</time>
      </trkpt>
      <trkpt lat="44.65778" lon="6.64491">
        <ele>969.7</ele>
        <time>2022-06-12T13:37:11Z</time>
      </trkpt>
      <trkpt lat="44.65775" lon="6.64494">
        <ele>969.8</ele>
        <time>2022-06-12T13:37:12Z</time>
      </trkpt>
      <trkpt lat="44.65771" lon="6.64498">
        <ele>969.9</ele>
        <time>2022-06-12T13:37:13Z</time>
      </trkpt>
      <trkpt lat="44.65768" lon="6.64501">
        <ele>970.1</ele>
        <time>2022-06-12T13:37:14Z</time>
      </trkpt>
      <trkpt lat="44.65764" lon="6.64505">
        <ele>970.3</ele>
        <time>2022-06-12T13:37:15Z</time>
      </trkpt>
      <trkpt lat="44.6576" lon="6.64508">
        <ele>970.5</ele>
        <time>2022-06-12T13:37:16Z</time>
      </trkpt>
      <trkpt lat="44.65756" lon="6.64511">
        <ele>970.7</ele>
        <time>2022-06-12T13:37:17Z</time>
      </trkpt>
      <trkpt lat="44.65752" lon="6.64514">
        <ele>971</ele>
        <time>2022-06-12T13:37:18Z</time>
      </trkpt>
      <trkpt lat="44.65749" lon="6.64518">
        <ele>971.3</ele>
        <time>2022-06-12T13:37:19Z</time>
      </trkpt>
      <trkpt lat="44.65745" lon="6.64521">
        <ele>971.7</ele>
        <time>2022-06-12T13:37:20Z</time>
      </trkpt>
      <trkpt lat="44.65741" lon="6.64524">
        <ele>972.1</ele>
        <time>2022-06-12T13:37:21Z</time>
      </trkpt>
      <trkpt lat="44.65737" lon="6.64527">
        <ele>972.4</ele>
        <time>2022-06-12T13:37:22Z</time>
      </trkpt>
      <trkpt lat="44.65733" lon="6.64531">
        <ele>972.8</ele>
        <time>2022-06-12T13:37:23Z</time>
      </trkpt>
      <trkpt lat="44.65729" lon="6.64534">
        <ele>973.2</ele>
        <time>2022-06-12T13:37:24Z</time>
      </trkpt>
      <trkpt lat="44.65726" lon="6.64536">
        <ele>973.5</ele>
        <time>2022-06-12T13:37:25Z</time>
      </trkpt>
      <trkpt lat="44.65722" lon="6.64538">
        <ele>973.7</ele>
        <time>2022-06-12T13:37:26Z</time>
      </trkpt>
      <trkpt lat="44.65719" lon="6.64539">
        <ele>974</ele>
        <time>2022-06-12T13:37:27Z</time>
      </trkpt>
      <trkpt lat="44.65716" lon="6.64542">
        <ele>974.3</ele>
        <time>2022-06-12T13:37:28Z</time>
      </trkpt>
      <trkpt lat="44.65713" lon="6.64545">
        <ele>974.7</ele>
        <time>2022-06-12T13:37:29Z</time>
      </trkpt>
      <trkpt lat="44.6571" lon="6.64547">
        <ele>975</ele>
        <time>2022-06-12T13:37:30Z</time>
      </trkpt>
      <trkpt lat="44.65707" lon="6.6455">
        <ele>975.2</ele>
        <time>2022-06-12T13:37:31Z</time>
      </trkpt>
      <trkpt lat="44.65704" lon="6.64553">
        <ele>975.5</ele>
        <time>2022-06-12T13:37:32Z</time>
      </trkpt>
      <trkpt lat="44.65701" lon="6.64556">
        <ele>975.8</ele>
        <time>2022-06-12T13:37:33Z</time>
      </trkpt>
      <trkpt lat="44.65699" lon="6.64559">
        <ele>976.1</ele>
        <time>2022-06-12T13:37:34Z</time>
      </trkpt>
      <trkpt lat="44.65697" lon="6.64562">
        <ele>976.4</ele>
        <time>2022-06-12T13:37:35Z</time>
      </trkpt>
      <trkpt lat="44.65694" lon="6.64564">
        <ele>976.6</ele>
        <time>2022-06-12T13:37:36Z</time>
      </trkpt>
      <trkpt lat="44.65692" lon="6.64567">
        <ele>977</ele>
        <time>2022-06-12T13:37:37Z</time>
      </trkpt>
      <trkpt lat="44.6569" lon="6.64569">
        <ele>977.3</ele>
        <time>2022-06-12T13:37:38Z</time>
      </trkpt>
      <trkpt lat="44.65687" lon="6.64572">
        <ele>977.6</ele>
        <time>2022-06-12T13:37:39Z</time>
      </trkpt>
      <trkpt lat="44.65685" lon="6.64574">
        <ele>977.9</ele>
        <time>2022-06-12T13:37:40Z</time>
      </trkpt>
      <trkpt lat="44.65683" lon="6.64577">
        <ele>978.1</ele>
        <time>2022-06-12T13:37:41Z</time>
      </trkpt>
      <trkpt lat="44.65681" lon="6.64579">
        <ele>978.3</ele>
        <time>2022-06-12T13:37:42Z</time>
      </trkpt>
      <trkpt lat="44.65679" lon="6.64582">
        <ele>978.5</ele>
        <time>2022-06-12T13:37:43Z</time>
      </trkpt>
      <trkpt lat="44.65677" lon="6.64584">
        <ele>978.7</ele>
        <time>2022-06-12T13:37:44Z</time>
      </trkpt>
      <trkpt lat="44.65674" lon="6.64586">
        <ele>979</ele>
        <time>2022-06-12T13:37:45Z</time>
      </trkpt>
      <trkpt lat="44.65672" lon="6.64589">
        <ele>979.3</ele>
        <time>2022-06-12T13:37:46Z</time>
      </trkpt>
      <trkpt lat="44.6567" lon="6.64592">
        <ele>979.6</ele>
        <time>2022-06-12T13:37:47Z</time>
      </trkpt>
      <trkpt lat="44.65667" lon="6.64596">
        <ele>979.9</ele>
        <time>2022-06-12T13:37:48Z</time>
      </trkpt>
      <trkpt lat="44.65665" lon="6.64598">
        <ele>980.2</ele>
        <time>2022-06-12T13:37:49Z</time>
      </trkpt>
      <trkpt lat="44.65662" lon="6.64601">
        <ele>980.4</ele>
        <time>2022-06-12T13:37:50Z</time>
      </trkpt>
      <trkpt lat="44.6566" lon="6.64603">
        <ele>980.6</ele>
        <time>2022-06-12T13:37:51Z</time>
      </trkpt>
      <trkpt lat="44.65658" lon="6.64605">
        <ele>980.8</ele>
        <time>2022-06-12T13:37:52Z</time>
      </trkpt>
      <trkpt lat="44.65656" lon="6.64607">
        <ele>980.9</ele>
        <time>2022-06-12T13:37:53Z</time>
      </trkpt>
      <trkpt lat="44.65653" lon="6.64609">
        <ele>981</ele>
        <time>2022-06-12T13:37:54Z</time>
      </trkpt>
      <trkpt lat="44.65651" lon="6.64612">
        <ele>981</ele>
        <time>2022-06-12T13:37:55Z</time>
      </trkpt>
      <trkpt lat="44.65649" lon="6.64614">
        <ele>981.1</ele>
        <time>2022-06-12T13:37:56Z</time>
      </trkpt>
      <trkpt lat="44.65646" lon="6.64617">
        <ele>981.2</ele>
        <time>2022-06-12T13:37:57Z</time>
      </trkpt>
      <trkpt lat="44.65644" lon="6.64619">
        <ele>981.3</ele>
        <time>2022-06-12T13:37:58Z</time>
      </trkpt>
      <trkpt lat="44.65641" lon="6.64622">
        <ele>981.4</ele>
        <time>2022-06-12T13:37:59Z</time>
      </trkpt>
      <trkpt lat="44.65639" lon="6.64624">
        <ele>981.5</ele>
        <time>2022-06-12T13:38:00Z</time>
      </trkpt>
      <trkpt lat="44.65636" lon="6.64626">
        <ele>981.6</ele>
        <time>2022-06-12T13:38:01Z</time>
      </trkpt>
      <trkpt lat="44.65634" lon="6.64628">
        <ele>981.6</ele>
        <time>2022-06-12T13:38:02Z</time>
      </trkpt>
      <trkpt lat="44.65631" lon="6.6463">
        <ele>981.7</ele>
        <time>2022-06-12T13:38:03Z</time>
      </trkpt>
      <trkpt lat="44.65628" lon="6.64633">
        <ele>981.6</ele>
        <time>2022-06-12T13:38:04Z</time>
      </trkpt>
      <trkpt lat="44.65625" lon="6.64636">
        <ele>981.6</ele>
        <time>2022-06-12T13:38:05Z</time>
      </trkpt>
      <trkpt lat="44.65622" lon="6.64638">
        <ele>981.4</ele>
        <time>2022-06-12T13:38:06Z</time>
      </trkpt>
      <trkpt lat="44.65619" lon="6.6464">
        <ele>981.3</ele>
        <time>2022-06-12T13:38:07Z</time>
      </trkpt>
      <trkpt lat="44.65616" lon="6.64642">
        <ele>981.2</ele>
        <time>2022-06-12T13:38:08Z</time>
      </trkpt>
      <trkpt lat="44.65613" lon="6.64644">
        <ele>981.2</ele>
        <time>2022-06-12T13:38:09Z</time>
      </trkpt>
      <trkpt lat="44.65609" lon="6.64646">
        <ele>981.3</ele>
        <time>2022-06-12T13:38:10Z</time>
      </trkpt>
      <trkpt lat="44.65606" lon="6.64648">
        <ele>981.4</ele>
        <time>2022-06-12T13:38:11Z</time>
      </trkpt>
      <trkpt lat="44.65603" lon="6.6465">
        <ele>981.6</ele>
        <time>2022-06-12T13:38:12Z</time>
      </trkpt>
      <trkpt lat="44.656" lon="6.64652">
        <ele>981.7</ele>
        <time>2022-06-12T13:38:13Z</time>
      </trkpt>
      <trkpt lat="44.65597" lon="6.64654">
        <ele>981.8</ele>
        <time>2022-06-12T13:38:14Z</time>
      </trkpt>
      <trkpt lat="44.65595" lon="6.64655">
        <ele>981.8</ele>
        <time>2022-06-12T13:38:15Z</time>
      </trkpt>
      <trkpt lat="44.65592" lon="6.64657">
        <ele>981.9</ele>
        <time>2022-06-12T13:38:16Z</time>
      </trkpt>
      <trkpt lat="44.6559" lon="6.64658">
        <ele>981.9</ele>
        <time>2022-06-12T13:38:17Z</time>
      </trkpt>
      <trkpt lat="44.65587" lon="6.6466">
        <ele>982</ele>
        <time>2022-06-12T13:38:18Z</time>
      </trkpt>
      <trkpt lat="44.65585" lon="6.64662">
        <ele>982</ele>
        <time>2022-06-12T13:38:19Z</time>
      </trkpt>
      <trkpt lat="44.65584" lon="6.64664">
        <ele>982</ele>
        <time>2022-06-12T13:38:20Z</time>
      </trkpt>
      <trkpt lat="44.65585" lon="6.64667">
        <ele>982</ele>
        <time>2022-06-12T13:38:21Z</time>
      </trkpt>
      <trkpt lat="44.65585" lon="6.6467">
        <ele>982.2</ele>
        <time>2022-06-12T13:38:22Z</time>
      </trkpt>
      <trkpt lat="44.65586" lon="6.64672">
        <ele>982.3</ele>
        <time>2022-06-12T13:38:23Z</time>
      </trkpt>
      <trkpt lat="44.65586" lon="6.64674">
        <ele>982.5</ele>
        <time>2022-06-12T13:38:24Z</time>
      </trkpt>
      <trkpt lat="44.65586" lon="6.64674">
        <ele>982.5</ele>
        <time>2022-06-12T13:38:25Z</time>
      </trkpt>
    </trkseg>
  </trk>
</gpx>